<?xml version="1.0" encoding="UTF-8" standalone="no" ?>
<gpx xmlns="http://www.topografix.com/GPX/1/1" xmlns:xsi="http://www.w3.org/2001/XMLSchema-instance" xsi:schemaLocation="http://www.topografix.com/GPX/1/1 http://www.topografix.com/GPX/1/1/gpx.xsd" version="1.1" creator="VisuGPX - https://www.visugpx.com">
  <metadata>
    <name>Boucle valonnée au départ de Laragne passant par Lagrand Aspremont Savournon</name>
    <desc><![CDATA[Très beau circuit de 66;78 km avec un dénivelé positif de 753 m. Cette boucle au départ de Laragne, nous a fait traverser les villages de Saléon, Lagrand, Mereuil, Serres, Sigotier, Aspremont, Savournon, Ventavon et Lazer.]]></desc>
  </metadata>
  <trk>
    <name><![CDATA[Boucle valonnée au départ de Laragne passant par Lagrand Aspremont Savournon_1]]></name>
    <trkseg>
      <trkpt lat="44.31604" lon="5.82961">
        <ele>579</ele>
        <time>2019-03-29T12:55:51Z</time>
      </trkpt>
      <trkpt lat="44.31582" lon="5.82933">
        <ele>573</ele>
        <time>2019-03-29T12:57:08Z</time>
      </trkpt>
      <trkpt lat="44.31578" lon="5.82931">
        <ele>573</ele>
        <time>2019-03-29T12:57:09Z</time>
      </trkpt>
      <trkpt lat="44.31575" lon="5.82929">
        <ele>573</ele>
        <time>2019-03-29T12:57:10Z</time>
      </trkpt>
      <trkpt lat="44.3157" lon="5.82926">
        <ele>573</ele>
        <time>2019-03-29T12:57:11Z</time>
      </trkpt>
      <trkpt lat="44.31566" lon="5.82922">
        <ele>573</ele>
        <time>2019-03-29T12:57:12Z</time>
      </trkpt>
      <trkpt lat="44.31562" lon="5.8292">
        <ele>573</ele>
        <time>2019-03-29T12:57:13Z</time>
      </trkpt>
      <trkpt lat="44.31557" lon="5.82917">
        <ele>573</ele>
        <time>2019-03-29T12:57:14Z</time>
      </trkpt>
      <trkpt lat="44.31554" lon="5.82914">
        <ele>573</ele>
        <time>2019-03-29T12:57:15Z</time>
      </trkpt>
      <trkpt lat="44.31551" lon="5.82913">
        <ele>573</ele>
        <time>2019-03-29T12:57:16Z</time>
      </trkpt>
      <trkpt lat="44.31549" lon="5.82911">
        <ele>573</ele>
        <time>2019-03-29T12:57:17Z</time>
      </trkpt>
      <trkpt lat="44.31546" lon="5.82909">
        <ele>573</ele>
        <time>2019-03-29T12:57:18Z</time>
      </trkpt>
      <trkpt lat="44.31543" lon="5.82907">
        <ele>573</ele>
        <time>2019-03-29T12:57:19Z</time>
      </trkpt>
      <trkpt lat="44.31541" lon="5.82905">
        <ele>573</ele>
        <time>2019-03-29T12:57:20Z</time>
      </trkpt>
      <trkpt lat="44.31538" lon="5.82901">
        <ele>573</ele>
        <time>2019-03-29T12:57:21Z</time>
      </trkpt>
      <trkpt lat="44.31535" lon="5.82898">
        <ele>573</ele>
        <time>2019-03-29T12:57:22Z</time>
      </trkpt>
      <trkpt lat="44.31532" lon="5.82894">
        <ele>573</ele>
        <time>2019-03-29T12:57:23Z</time>
      </trkpt>
      <trkpt lat="44.31529" lon="5.8289">
        <ele>573</ele>
        <time>2019-03-29T12:57:24Z</time>
      </trkpt>
      <trkpt lat="44.31526" lon="5.82887">
        <ele>573</ele>
        <time>2019-03-29T12:57:25Z</time>
      </trkpt>
      <trkpt lat="44.31523" lon="5.82884">
        <ele>573</ele>
        <time>2019-03-29T12:57:26Z</time>
      </trkpt>
      <trkpt lat="44.31519" lon="5.82881">
        <ele>573</ele>
        <time>2019-03-29T12:57:27Z</time>
      </trkpt>
      <trkpt lat="44.31516" lon="5.82879">
        <ele>573</ele>
        <time>2019-03-29T12:57:28Z</time>
      </trkpt>
      <trkpt lat="44.31513" lon="5.82876">
        <ele>573</ele>
        <time>2019-03-29T12:57:29Z</time>
      </trkpt>
      <trkpt lat="44.31509" lon="5.82872">
        <ele>573</ele>
        <time>2019-03-29T12:57:30Z</time>
      </trkpt>
      <trkpt lat="44.31505" lon="5.82871">
        <ele>573</ele>
        <time>2019-03-29T12:57:31Z</time>
      </trkpt>
      <trkpt lat="44.31501" lon="5.82872">
        <ele>573</ele>
        <time>2019-03-29T12:57:32Z</time>
      </trkpt>
      <trkpt lat="44.31497" lon="5.82874">
        <ele>573</ele>
        <time>2019-03-29T12:57:33Z</time>
      </trkpt>
      <trkpt lat="44.31494" lon="5.82877">
        <ele>573</ele>
        <time>2019-03-29T12:57:34Z</time>
      </trkpt>
      <trkpt lat="44.31491" lon="5.8288">
        <ele>573</ele>
        <time>2019-03-29T12:57:35Z</time>
      </trkpt>
      <trkpt lat="44.31488" lon="5.82884">
        <ele>572</ele>
        <time>2019-03-29T12:57:36Z</time>
      </trkpt>
      <trkpt lat="44.31485" lon="5.82889">
        <ele>572</ele>
        <time>2019-03-29T12:57:37Z</time>
      </trkpt>
      <trkpt lat="44.31483" lon="5.82894">
        <ele>572</ele>
        <time>2019-03-29T12:57:38Z</time>
      </trkpt>
      <trkpt lat="44.31481" lon="5.82899">
        <ele>572</ele>
        <time>2019-03-29T12:57:39Z</time>
      </trkpt>
      <trkpt lat="44.31479" lon="5.82903">
        <ele>572</ele>
        <time>2019-03-29T12:57:40Z</time>
      </trkpt>
      <trkpt lat="44.31476" lon="5.82908">
        <ele>572</ele>
        <time>2019-03-29T12:57:41Z</time>
      </trkpt>
      <trkpt lat="44.31474" lon="5.82912">
        <ele>572</ele>
        <time>2019-03-29T12:57:42Z</time>
      </trkpt>
      <trkpt lat="44.31471" lon="5.82916">
        <ele>572</ele>
        <time>2019-03-29T12:57:43Z</time>
      </trkpt>
      <trkpt lat="44.31468" lon="5.8292">
        <ele>572</ele>
        <time>2019-03-29T12:57:44Z</time>
      </trkpt>
      <trkpt lat="44.31464" lon="5.82923">
        <ele>572</ele>
        <time>2019-03-29T12:57:45Z</time>
      </trkpt>
      <trkpt lat="44.31461" lon="5.82926">
        <ele>572</ele>
        <time>2019-03-29T12:57:46Z</time>
      </trkpt>
      <trkpt lat="44.31459" lon="5.82931">
        <ele>572</ele>
        <time>2019-03-29T12:57:47Z</time>
      </trkpt>
      <trkpt lat="44.31456" lon="5.82935">
        <ele>572</ele>
        <time>2019-03-29T12:57:48Z</time>
      </trkpt>
      <trkpt lat="44.31453" lon="5.82939">
        <ele>572</ele>
        <time>2019-03-29T12:57:49Z</time>
      </trkpt>
      <trkpt lat="44.31449" lon="5.82944">
        <ele>572</ele>
        <time>2019-03-29T12:57:50Z</time>
      </trkpt>
      <trkpt lat="44.31446" lon="5.82949">
        <ele>572</ele>
        <time>2019-03-29T12:57:51Z</time>
      </trkpt>
      <trkpt lat="44.31443" lon="5.82954">
        <ele>572</ele>
        <time>2019-03-29T12:57:52Z</time>
      </trkpt>
      <trkpt lat="44.3144" lon="5.82958">
        <ele>572</ele>
        <time>2019-03-29T12:57:53Z</time>
      </trkpt>
      <trkpt lat="44.31436" lon="5.82963">
        <ele>572</ele>
        <time>2019-03-29T12:57:54Z</time>
      </trkpt>
      <trkpt lat="44.31433" lon="5.82968">
        <ele>572</ele>
        <time>2019-03-29T12:57:55Z</time>
      </trkpt>
      <trkpt lat="44.3143" lon="5.82972">
        <ele>572</ele>
        <time>2019-03-29T12:57:56Z</time>
      </trkpt>
      <trkpt lat="44.31427" lon="5.82977">
        <ele>572</ele>
        <time>2019-03-29T12:57:57Z</time>
      </trkpt>
      <trkpt lat="44.31424" lon="5.82982">
        <ele>572</ele>
        <time>2019-03-29T12:57:58Z</time>
      </trkpt>
      <trkpt lat="44.31421" lon="5.82986">
        <ele>572</ele>
        <time>2019-03-29T12:57:59Z</time>
      </trkpt>
      <trkpt lat="44.31418" lon="5.82991">
        <ele>572</ele>
        <time>2019-03-29T12:58:00Z</time>
      </trkpt>
      <trkpt lat="44.31414" lon="5.82995">
        <ele>572</ele>
        <time>2019-03-29T12:58:01Z</time>
      </trkpt>
      <trkpt lat="44.31411" lon="5.83">
        <ele>572</ele>
        <time>2019-03-29T12:58:02Z</time>
      </trkpt>
      <trkpt lat="44.31408" lon="5.83004">
        <ele>572</ele>
        <time>2019-03-29T12:58:03Z</time>
      </trkpt>
      <trkpt lat="44.31405" lon="5.83009">
        <ele>572</ele>
        <time>2019-03-29T12:58:04Z</time>
      </trkpt>
      <trkpt lat="44.31402" lon="5.83014">
        <ele>572</ele>
        <time>2019-03-29T12:58:05Z</time>
      </trkpt>
      <trkpt lat="44.31398" lon="5.83018">
        <ele>572</ele>
        <time>2019-03-29T12:58:06Z</time>
      </trkpt>
      <trkpt lat="44.31395" lon="5.83023">
        <ele>572</ele>
        <time>2019-03-29T12:58:07Z</time>
      </trkpt>
      <trkpt lat="44.31392" lon="5.83027">
        <ele>572</ele>
        <time>2019-03-29T12:58:08Z</time>
      </trkpt>
      <trkpt lat="44.31389" lon="5.83032">
        <ele>572</ele>
        <time>2019-03-29T12:58:09Z</time>
      </trkpt>
      <trkpt lat="44.31386" lon="5.83036">
        <ele>572</ele>
        <time>2019-03-29T12:58:10Z</time>
      </trkpt>
      <trkpt lat="44.31383" lon="5.8304">
        <ele>572</ele>
        <time>2019-03-29T12:58:11Z</time>
      </trkpt>
      <trkpt lat="44.3138" lon="5.83044">
        <ele>572</ele>
        <time>2019-03-29T12:58:12Z</time>
      </trkpt>
      <trkpt lat="44.31377" lon="5.83048">
        <ele>572</ele>
        <time>2019-03-29T12:58:13Z</time>
      </trkpt>
      <trkpt lat="44.31375" lon="5.83052">
        <ele>572</ele>
        <time>2019-03-29T12:58:14Z</time>
      </trkpt>
      <trkpt lat="44.31372" lon="5.83056">
        <ele>572</ele>
        <time>2019-03-29T12:58:15Z</time>
      </trkpt>
      <trkpt lat="44.3137" lon="5.8306">
        <ele>572</ele>
        <time>2019-03-29T12:58:16Z</time>
      </trkpt>
      <trkpt lat="44.31368" lon="5.83064">
        <ele>572</ele>
        <time>2019-03-29T12:58:17Z</time>
      </trkpt>
      <trkpt lat="44.31366" lon="5.83068">
        <ele>572</ele>
        <time>2019-03-29T12:58:18Z</time>
      </trkpt>
      <trkpt lat="44.31365" lon="5.83072">
        <ele>572</ele>
        <time>2019-03-29T12:58:19Z</time>
      </trkpt>
      <trkpt lat="44.31363" lon="5.83076">
        <ele>572</ele>
        <time>2019-03-29T12:58:20Z</time>
      </trkpt>
      <trkpt lat="44.31362" lon="5.8308">
        <ele>572</ele>
        <time>2019-03-29T12:58:21Z</time>
      </trkpt>
      <trkpt lat="44.31361" lon="5.83084">
        <ele>572</ele>
        <time>2019-03-29T12:58:22Z</time>
      </trkpt>
      <trkpt lat="44.31361" lon="5.83088">
        <ele>572</ele>
        <time>2019-03-29T12:58:23Z</time>
      </trkpt>
      <trkpt lat="44.3136" lon="5.83092">
        <ele>572</ele>
        <time>2019-03-29T12:58:24Z</time>
      </trkpt>
      <trkpt lat="44.31358" lon="5.83096">
        <ele>572</ele>
        <time>2019-03-29T12:58:25Z</time>
      </trkpt>
      <trkpt lat="44.31356" lon="5.83099">
        <ele>572</ele>
        <time>2019-03-29T12:58:26Z</time>
      </trkpt>
      <trkpt lat="44.31353" lon="5.83101">
        <ele>572</ele>
        <time>2019-03-29T12:58:27Z</time>
      </trkpt>
      <trkpt lat="44.31351" lon="5.83101">
        <ele>572</ele>
        <time>2019-03-29T12:58:28Z</time>
      </trkpt>
      <trkpt lat="44.31349" lon="5.831">
        <ele>572</ele>
        <time>2019-03-29T12:58:29Z</time>
      </trkpt>
      <trkpt lat="44.31347" lon="5.83099">
        <ele>572</ele>
        <time>2019-03-29T12:58:30Z</time>
      </trkpt>
      <trkpt lat="44.31345" lon="5.83098">
        <ele>572</ele>
        <time>2019-03-29T12:58:31Z</time>
      </trkpt>
      <trkpt lat="44.31344" lon="5.83096">
        <ele>572</ele>
        <time>2019-03-29T12:58:32Z</time>
      </trkpt>
      <trkpt lat="44.31344" lon="5.83092">
        <ele>572</ele>
        <time>2019-03-29T12:58:33Z</time>
      </trkpt>
      <trkpt lat="44.31343" lon="5.83089">
        <ele>572</ele>
        <time>2019-03-29T12:58:34Z</time>
      </trkpt>
      <trkpt lat="44.31343" lon="5.83086">
        <ele>572</ele>
        <time>2019-03-29T12:58:35Z</time>
      </trkpt>
      <trkpt lat="44.31344" lon="5.83082">
        <ele>572</ele>
        <time>2019-03-29T12:58:36Z</time>
      </trkpt>
      <trkpt lat="44.31344" lon="5.83078">
        <ele>572</ele>
        <time>2019-03-29T12:58:37Z</time>
      </trkpt>
      <trkpt lat="44.31345" lon="5.83075">
        <ele>572</ele>
        <time>2019-03-29T12:58:38Z</time>
      </trkpt>
      <trkpt lat="44.31345" lon="5.83071">
        <ele>572</ele>
        <time>2019-03-29T12:58:39Z</time>
      </trkpt>
      <trkpt lat="44.31346" lon="5.83066">
        <ele>572</ele>
        <time>2019-03-29T12:58:40Z</time>
      </trkpt>
      <trkpt lat="44.31348" lon="5.83062">
        <ele>572</ele>
        <time>2019-03-29T12:58:41Z</time>
      </trkpt>
      <trkpt lat="44.31349" lon="5.83056">
        <ele>572</ele>
        <time>2019-03-29T12:58:42Z</time>
      </trkpt>
      <trkpt lat="44.3135" lon="5.83051">
        <ele>572</ele>
        <time>2019-03-29T12:58:43Z</time>
      </trkpt>
      <trkpt lat="44.3135" lon="5.83045">
        <ele>572</ele>
        <time>2019-03-29T12:58:44Z</time>
      </trkpt>
      <trkpt lat="44.31351" lon="5.83039">
        <ele>572</ele>
        <time>2019-03-29T12:58:45Z</time>
      </trkpt>
      <trkpt lat="44.31352" lon="5.83033">
        <ele>572</ele>
        <time>2019-03-29T12:58:46Z</time>
      </trkpt>
      <trkpt lat="44.31353" lon="5.83027">
        <ele>572</ele>
        <time>2019-03-29T12:58:47Z</time>
      </trkpt>
      <trkpt lat="44.31354" lon="5.83021">
        <ele>572</ele>
        <time>2019-03-29T12:58:48Z</time>
      </trkpt>
      <trkpt lat="44.31355" lon="5.83014">
        <ele>572</ele>
        <time>2019-03-29T12:58:49Z</time>
      </trkpt>
      <trkpt lat="44.31357" lon="5.83007">
        <ele>572</ele>
        <time>2019-03-29T12:58:50Z</time>
      </trkpt>
      <trkpt lat="44.31357" lon="5.83">
        <ele>572</ele>
        <time>2019-03-29T12:58:51Z</time>
      </trkpt>
      <trkpt lat="44.31358" lon="5.82993">
        <ele>572</ele>
        <time>2019-03-29T12:58:52Z</time>
      </trkpt>
      <trkpt lat="44.31359" lon="5.82986">
        <ele>572</ele>
        <time>2019-03-29T12:58:53Z</time>
      </trkpt>
      <trkpt lat="44.3136" lon="5.82978">
        <ele>572</ele>
        <time>2019-03-29T12:58:54Z</time>
      </trkpt>
      <trkpt lat="44.31362" lon="5.82971">
        <ele>572</ele>
        <time>2019-03-29T12:58:55Z</time>
      </trkpt>
      <trkpt lat="44.31363" lon="5.82963">
        <ele>572</ele>
        <time>2019-03-29T12:58:56Z</time>
      </trkpt>
      <trkpt lat="44.31364" lon="5.82955">
        <ele>572</ele>
        <time>2019-03-29T12:58:57Z</time>
      </trkpt>
      <trkpt lat="44.31365" lon="5.82946">
        <ele>572</ele>
        <time>2019-03-29T12:58:58Z</time>
      </trkpt>
      <trkpt lat="44.31366" lon="5.82938">
        <ele>572</ele>
        <time>2019-03-29T12:58:59Z</time>
      </trkpt>
      <trkpt lat="44.31367" lon="5.8293">
        <ele>572</ele>
        <time>2019-03-29T12:59:00Z</time>
      </trkpt>
      <trkpt lat="44.31367" lon="5.82921">
        <ele>572</ele>
        <time>2019-03-29T12:59:01Z</time>
      </trkpt>
      <trkpt lat="44.31369" lon="5.82912">
        <ele>572</ele>
        <time>2019-03-29T12:59:02Z</time>
      </trkpt>
      <trkpt lat="44.31369" lon="5.82904">
        <ele>572</ele>
        <time>2019-03-29T12:59:03Z</time>
      </trkpt>
      <trkpt lat="44.3137" lon="5.82896">
        <ele>572</ele>
        <time>2019-03-29T12:59:04Z</time>
      </trkpt>
      <trkpt lat="44.31371" lon="5.82887">
        <ele>572</ele>
        <time>2019-03-29T12:59:05Z</time>
      </trkpt>
      <trkpt lat="44.31372" lon="5.82879">
        <ele>572</ele>
        <time>2019-03-29T12:59:06Z</time>
      </trkpt>
      <trkpt lat="44.31372" lon="5.82871">
        <ele>572</ele>
        <time>2019-03-29T12:59:07Z</time>
      </trkpt>
      <trkpt lat="44.31374" lon="5.82863">
        <ele>572</ele>
        <time>2019-03-29T12:59:08Z</time>
      </trkpt>
      <trkpt lat="44.31374" lon="5.82855">
        <ele>572</ele>
        <time>2019-03-29T12:59:09Z</time>
      </trkpt>
      <trkpt lat="44.31375" lon="5.82847">
        <ele>572</ele>
        <time>2019-03-29T12:59:10Z</time>
      </trkpt>
      <trkpt lat="44.31376" lon="5.82839">
        <ele>572</ele>
        <time>2019-03-29T12:59:11Z</time>
      </trkpt>
      <trkpt lat="44.31377" lon="5.82831">
        <ele>572</ele>
        <time>2019-03-29T12:59:12Z</time>
      </trkpt>
      <trkpt lat="44.31378" lon="5.82823">
        <ele>572</ele>
        <time>2019-03-29T12:59:13Z</time>
      </trkpt>
      <trkpt lat="44.31379" lon="5.82815">
        <ele>572</ele>
        <time>2019-03-29T12:59:14Z</time>
      </trkpt>
      <trkpt lat="44.31379" lon="5.82807">
        <ele>572</ele>
        <time>2019-03-29T12:59:15Z</time>
      </trkpt>
      <trkpt lat="44.31379" lon="5.82799">
        <ele>572</ele>
        <time>2019-03-29T12:59:16Z</time>
      </trkpt>
      <trkpt lat="44.3138" lon="5.82792">
        <ele>572</ele>
        <time>2019-03-29T12:59:17Z</time>
      </trkpt>
      <trkpt lat="44.31381" lon="5.82784">
        <ele>572</ele>
        <time>2019-03-29T12:59:18Z</time>
      </trkpt>
      <trkpt lat="44.31381" lon="5.82776">
        <ele>572</ele>
        <time>2019-03-29T12:59:19Z</time>
      </trkpt>
      <trkpt lat="44.31381" lon="5.82768">
        <ele>572</ele>
        <time>2019-03-29T12:59:20Z</time>
      </trkpt>
      <trkpt lat="44.31382" lon="5.82761">
        <ele>572</ele>
        <time>2019-03-29T12:59:21Z</time>
      </trkpt>
      <trkpt lat="44.31381" lon="5.82754">
        <ele>572</ele>
        <time>2019-03-29T12:59:22Z</time>
      </trkpt>
      <trkpt lat="44.31381" lon="5.82747">
        <ele>571</ele>
        <time>2019-03-29T12:59:23Z</time>
      </trkpt>
      <trkpt lat="44.31381" lon="5.8274">
        <ele>571</ele>
        <time>2019-03-29T12:59:24Z</time>
      </trkpt>
      <trkpt lat="44.3138" lon="5.82732">
        <ele>571</ele>
        <time>2019-03-29T12:59:25Z</time>
      </trkpt>
      <trkpt lat="44.31379" lon="5.82725">
        <ele>571</ele>
        <time>2019-03-29T12:59:26Z</time>
      </trkpt>
      <trkpt lat="44.31379" lon="5.82718">
        <ele>571</ele>
        <time>2019-03-29T12:59:27Z</time>
      </trkpt>
      <trkpt lat="44.31377" lon="5.82711">
        <ele>571</ele>
        <time>2019-03-29T12:59:28Z</time>
      </trkpt>
      <trkpt lat="44.31376" lon="5.82705">
        <ele>571</ele>
        <time>2019-03-29T12:59:29Z</time>
      </trkpt>
      <trkpt lat="44.31375" lon="5.827">
        <ele>571</ele>
        <time>2019-03-29T12:59:30Z</time>
      </trkpt>
      <trkpt lat="44.31374" lon="5.82695">
        <ele>571</ele>
        <time>2019-03-29T12:59:31Z</time>
      </trkpt>
      <trkpt lat="44.31373" lon="5.8269">
        <ele>571</ele>
        <time>2019-03-29T12:59:32Z</time>
      </trkpt>
      <trkpt lat="44.31371" lon="5.82687">
        <ele>571</ele>
        <time>2019-03-29T12:59:33Z</time>
      </trkpt>
      <trkpt lat="44.31367" lon="5.82683">
        <ele>571</ele>
        <time>2019-03-29T12:59:34Z</time>
      </trkpt>
      <trkpt lat="44.31364" lon="5.8268">
        <ele>571</ele>
        <time>2019-03-29T12:59:35Z</time>
      </trkpt>
      <trkpt lat="44.31359" lon="5.82678">
        <ele>571</ele>
        <time>2019-03-29T12:59:36Z</time>
      </trkpt>
      <trkpt lat="44.31355" lon="5.82676">
        <ele>571</ele>
        <time>2019-03-29T12:59:37Z</time>
      </trkpt>
      <trkpt lat="44.31351" lon="5.82674">
        <ele>571</ele>
        <time>2019-03-29T12:59:38Z</time>
      </trkpt>
      <trkpt lat="44.31347" lon="5.82672">
        <ele>571</ele>
        <time>2019-03-29T12:59:39Z</time>
      </trkpt>
      <trkpt lat="44.31342" lon="5.82669">
        <ele>571</ele>
        <time>2019-03-29T12:59:40Z</time>
      </trkpt>
      <trkpt lat="44.31337" lon="5.82667">
        <ele>571</ele>
        <time>2019-03-29T12:59:41Z</time>
      </trkpt>
      <trkpt lat="44.31332" lon="5.82665">
        <ele>571</ele>
        <time>2019-03-29T12:59:42Z</time>
      </trkpt>
      <trkpt lat="44.31327" lon="5.82662">
        <ele>571</ele>
        <time>2019-03-29T12:59:43Z</time>
      </trkpt>
      <trkpt lat="44.31322" lon="5.8266">
        <ele>571</ele>
        <time>2019-03-29T12:59:44Z</time>
      </trkpt>
      <trkpt lat="44.31317" lon="5.82656">
        <ele>571</ele>
        <time>2019-03-29T12:59:45Z</time>
      </trkpt>
      <trkpt lat="44.31311" lon="5.82653">
        <ele>571</ele>
        <time>2019-03-29T12:59:46Z</time>
      </trkpt>
      <trkpt lat="44.31304" lon="5.82648">
        <ele>570</ele>
        <time>2019-03-29T12:59:47Z</time>
      </trkpt>
      <trkpt lat="44.31297" lon="5.82644">
        <ele>570</ele>
        <time>2019-03-29T12:59:48Z</time>
      </trkpt>
      <trkpt lat="44.3129" lon="5.82639">
        <ele>569</ele>
        <time>2019-03-29T12:59:49Z</time>
      </trkpt>
      <trkpt lat="44.31282" lon="5.82634">
        <ele>568</ele>
        <time>2019-03-29T12:59:50Z</time>
      </trkpt>
      <trkpt lat="44.31275" lon="5.8263">
        <ele>568</ele>
        <time>2019-03-29T12:59:51Z</time>
      </trkpt>
      <trkpt lat="44.31267" lon="5.82625">
        <ele>568</ele>
        <time>2019-03-29T12:59:52Z</time>
      </trkpt>
      <trkpt lat="44.31259" lon="5.82621">
        <ele>567</ele>
        <time>2019-03-29T12:59:53Z</time>
      </trkpt>
      <trkpt lat="44.31251" lon="5.82617">
        <ele>567</ele>
        <time>2019-03-29T12:59:54Z</time>
      </trkpt>
      <trkpt lat="44.31244" lon="5.82612">
        <ele>566</ele>
        <time>2019-03-29T12:59:55Z</time>
      </trkpt>
      <trkpt lat="44.31236" lon="5.82608">
        <ele>566</ele>
        <time>2019-03-29T12:59:56Z</time>
      </trkpt>
      <trkpt lat="44.31229" lon="5.82603">
        <ele>566</ele>
        <time>2019-03-29T12:59:57Z</time>
      </trkpt>
      <trkpt lat="44.31221" lon="5.82599">
        <ele>565</ele>
        <time>2019-03-29T12:59:58Z</time>
      </trkpt>
      <trkpt lat="44.31214" lon="5.82596">
        <ele>565</ele>
        <time>2019-03-29T12:59:59Z</time>
      </trkpt>
      <trkpt lat="44.31207" lon="5.82592">
        <ele>565</ele>
        <time>2019-03-29T13:00:00Z</time>
      </trkpt>
      <trkpt lat="44.312" lon="5.82588">
        <ele>565</ele>
        <time>2019-03-29T13:00:01Z</time>
      </trkpt>
      <trkpt lat="44.31193" lon="5.82584">
        <ele>564</ele>
        <time>2019-03-29T13:00:02Z</time>
      </trkpt>
      <trkpt lat="44.31187" lon="5.82581">
        <ele>564</ele>
        <time>2019-03-29T13:00:03Z</time>
      </trkpt>
      <trkpt lat="44.3118" lon="5.82577">
        <ele>564</ele>
        <time>2019-03-29T13:00:04Z</time>
      </trkpt>
      <trkpt lat="44.31174" lon="5.82573">
        <ele>564</ele>
        <time>2019-03-29T13:00:05Z</time>
      </trkpt>
      <trkpt lat="44.31168" lon="5.8257">
        <ele>564</ele>
        <time>2019-03-29T13:00:06Z</time>
      </trkpt>
      <trkpt lat="44.31162" lon="5.82566">
        <ele>564</ele>
        <time>2019-03-29T13:00:07Z</time>
      </trkpt>
      <trkpt lat="44.31156" lon="5.82563">
        <ele>564</ele>
        <time>2019-03-29T13:00:08Z</time>
      </trkpt>
      <trkpt lat="44.3115" lon="5.8256">
        <ele>564</ele>
        <time>2019-03-29T13:00:09Z</time>
      </trkpt>
      <trkpt lat="44.31144" lon="5.82557">
        <ele>564</ele>
        <time>2019-03-29T13:00:10Z</time>
      </trkpt>
      <trkpt lat="44.31139" lon="5.82554">
        <ele>564</ele>
        <time>2019-03-29T13:00:11Z</time>
      </trkpt>
      <trkpt lat="44.31134" lon="5.82551">
        <ele>564</ele>
        <time>2019-03-29T13:00:12Z</time>
      </trkpt>
      <trkpt lat="44.31128" lon="5.82548">
        <ele>564</ele>
        <time>2019-03-29T13:00:13Z</time>
      </trkpt>
      <trkpt lat="44.31123" lon="5.82545">
        <ele>564</ele>
        <time>2019-03-29T13:00:14Z</time>
      </trkpt>
      <trkpt lat="44.31118" lon="5.82543">
        <ele>564</ele>
        <time>2019-03-29T13:00:15Z</time>
      </trkpt>
      <trkpt lat="44.31113" lon="5.8254">
        <ele>564</ele>
        <time>2019-03-29T13:00:16Z</time>
      </trkpt>
      <trkpt lat="44.31107" lon="5.82537">
        <ele>564</ele>
        <time>2019-03-29T13:00:17Z</time>
      </trkpt>
      <trkpt lat="44.31102" lon="5.82535">
        <ele>564</ele>
        <time>2019-03-29T13:00:18Z</time>
      </trkpt>
      <trkpt lat="44.31098" lon="5.82532">
        <ele>564</ele>
        <time>2019-03-29T13:00:19Z</time>
      </trkpt>
      <trkpt lat="44.31093" lon="5.82529">
        <ele>564</ele>
        <time>2019-03-29T13:00:20Z</time>
      </trkpt>
      <trkpt lat="44.31089" lon="5.82526">
        <ele>564</ele>
        <time>2019-03-29T13:00:21Z</time>
      </trkpt>
      <trkpt lat="44.31084" lon="5.82522">
        <ele>564</ele>
        <time>2019-03-29T13:00:22Z</time>
      </trkpt>
      <trkpt lat="44.3108" lon="5.82518">
        <ele>564</ele>
        <time>2019-03-29T13:00:23Z</time>
      </trkpt>
      <trkpt lat="44.31077" lon="5.82513">
        <ele>564</ele>
        <time>2019-03-29T13:00:24Z</time>
      </trkpt>
      <trkpt lat="44.31075" lon="5.82507">
        <ele>564</ele>
        <time>2019-03-29T13:00:25Z</time>
      </trkpt>
      <trkpt lat="44.31073" lon="5.82501">
        <ele>564</ele>
        <time>2019-03-29T13:00:26Z</time>
      </trkpt>
      <trkpt lat="44.31072" lon="5.82495">
        <ele>564</ele>
        <time>2019-03-29T13:00:27Z</time>
      </trkpt>
      <trkpt lat="44.31073" lon="5.82488">
        <ele>564</ele>
        <time>2019-03-29T13:00:28Z</time>
      </trkpt>
      <trkpt lat="44.31074" lon="5.82482">
        <ele>564</ele>
        <time>2019-03-29T13:00:29Z</time>
      </trkpt>
      <trkpt lat="44.31076" lon="5.82476">
        <ele>564</ele>
        <time>2019-03-29T13:00:30Z</time>
      </trkpt>
      <trkpt lat="44.31078" lon="5.82471">
        <ele>564</ele>
        <time>2019-03-29T13:00:31Z</time>
      </trkpt>
      <trkpt lat="44.3108" lon="5.82465">
        <ele>564</ele>
        <time>2019-03-29T13:00:32Z</time>
      </trkpt>
      <trkpt lat="44.31082" lon="5.8246">
        <ele>564</ele>
        <time>2019-03-29T13:00:33Z</time>
      </trkpt>
      <trkpt lat="44.31084" lon="5.82455">
        <ele>564</ele>
        <time>2019-03-29T13:00:34Z</time>
      </trkpt>
      <trkpt lat="44.31086" lon="5.8245">
        <ele>564</ele>
        <time>2019-03-29T13:00:35Z</time>
      </trkpt>
      <trkpt lat="44.31088" lon="5.82446">
        <ele>564</ele>
        <time>2019-03-29T13:00:36Z</time>
      </trkpt>
      <trkpt lat="44.31091" lon="5.82441">
        <ele>564</ele>
        <time>2019-03-29T13:00:37Z</time>
      </trkpt>
      <trkpt lat="44.31093" lon="5.82436">
        <ele>564</ele>
        <time>2019-03-29T13:00:38Z</time>
      </trkpt>
      <trkpt lat="44.31096" lon="5.82431">
        <ele>564</ele>
        <time>2019-03-29T13:00:39Z</time>
      </trkpt>
      <trkpt lat="44.31099" lon="5.82424">
        <ele>564</ele>
        <time>2019-03-29T13:00:40Z</time>
      </trkpt>
      <trkpt lat="44.31103" lon="5.82417">
        <ele>564</ele>
        <time>2019-03-29T13:00:41Z</time>
      </trkpt>
      <trkpt lat="44.31106" lon="5.82409">
        <ele>563</ele>
        <time>2019-03-29T13:00:42Z</time>
      </trkpt>
      <trkpt lat="44.31109" lon="5.824">
        <ele>563</ele>
        <time>2019-03-29T13:00:43Z</time>
      </trkpt>
      <trkpt lat="44.3111" lon="5.82392">
        <ele>562</ele>
        <time>2019-03-29T13:00:44Z</time>
      </trkpt>
      <trkpt lat="44.3111" lon="5.82383">
        <ele>561</ele>
        <time>2019-03-29T13:00:45Z</time>
      </trkpt>
      <trkpt lat="44.31111" lon="5.82374">
        <ele>561</ele>
        <time>2019-03-29T13:00:46Z</time>
      </trkpt>
      <trkpt lat="44.31112" lon="5.82365">
        <ele>560</ele>
        <time>2019-03-29T13:00:47Z</time>
      </trkpt>
      <trkpt lat="44.31115" lon="5.82356">
        <ele>560</ele>
        <time>2019-03-29T13:00:48Z</time>
      </trkpt>
      <trkpt lat="44.31118" lon="5.82349">
        <ele>559</ele>
        <time>2019-03-29T13:00:49Z</time>
      </trkpt>
      <trkpt lat="44.31123" lon="5.82342">
        <ele>559</ele>
        <time>2019-03-29T13:00:50Z</time>
      </trkpt>
      <trkpt lat="44.31127" lon="5.82336">
        <ele>559</ele>
        <time>2019-03-29T13:00:51Z</time>
      </trkpt>
      <trkpt lat="44.31131" lon="5.8233">
        <ele>559</ele>
        <time>2019-03-29T13:00:52Z</time>
      </trkpt>
      <trkpt lat="44.31136" lon="5.82325">
        <ele>558</ele>
        <time>2019-03-29T13:00:53Z</time>
      </trkpt>
      <trkpt lat="44.3114" lon="5.82319">
        <ele>558</ele>
        <time>2019-03-29T13:00:54Z</time>
      </trkpt>
      <trkpt lat="44.31143" lon="5.82314">
        <ele>558</ele>
        <time>2019-03-29T13:00:55Z</time>
      </trkpt>
      <trkpt lat="44.31146" lon="5.82309">
        <ele>558</ele>
        <time>2019-03-29T13:00:56Z</time>
      </trkpt>
      <trkpt lat="44.31149" lon="5.82305">
        <ele>558</ele>
        <time>2019-03-29T13:00:57Z</time>
      </trkpt>
      <trkpt lat="44.31151" lon="5.82301">
        <ele>558</ele>
        <time>2019-03-29T13:00:58Z</time>
      </trkpt>
      <trkpt lat="44.31152" lon="5.82297">
        <ele>558</ele>
        <time>2019-03-29T13:00:59Z</time>
      </trkpt>
      <trkpt lat="44.31152" lon="5.82294">
        <ele>558</ele>
        <time>2019-03-29T13:01:00Z</time>
      </trkpt>
      <trkpt lat="44.31152" lon="5.82291">
        <ele>558</ele>
        <time>2019-03-29T13:01:01Z</time>
      </trkpt>
      <trkpt lat="44.31152" lon="5.8229">
        <ele>558</ele>
        <time>2019-03-29T13:01:02Z</time>
      </trkpt>
      <trkpt lat="44.31151" lon="5.82289">
        <ele>557</ele>
        <time>2019-03-29T13:01:05Z</time>
      </trkpt>
      <trkpt lat="44.3115" lon="5.82289">
        <ele>557</ele>
        <time>2019-03-29T13:01:12Z</time>
      </trkpt>
      <trkpt lat="44.31151" lon="5.82291">
        <ele>556</ele>
        <time>2019-03-29T13:01:46Z</time>
      </trkpt>
      <trkpt lat="44.31152" lon="5.82288">
        <ele>556</ele>
        <time>2019-03-29T13:02:06Z</time>
      </trkpt>
      <trkpt lat="44.31152" lon="5.82287">
        <ele>556</ele>
        <time>2019-03-29T13:02:07Z</time>
      </trkpt>
      <trkpt lat="44.31152" lon="5.82285">
        <ele>556</ele>
        <time>2019-03-29T13:02:08Z</time>
      </trkpt>
      <trkpt lat="44.31152" lon="5.82282">
        <ele>556</ele>
        <time>2019-03-29T13:02:09Z</time>
      </trkpt>
      <trkpt lat="44.31152" lon="5.82279">
        <ele>556</ele>
        <time>2019-03-29T13:02:10Z</time>
      </trkpt>
      <trkpt lat="44.31152" lon="5.82276">
        <ele>556</ele>
        <time>2019-03-29T13:02:11Z</time>
      </trkpt>
      <trkpt lat="44.31151" lon="5.82273">
        <ele>556</ele>
        <time>2019-03-29T13:02:12Z</time>
      </trkpt>
      <trkpt lat="44.31149" lon="5.8227">
        <ele>556</ele>
        <time>2019-03-29T13:02:13Z</time>
      </trkpt>
      <trkpt lat="44.31147" lon="5.82266">
        <ele>556</ele>
        <time>2019-03-29T13:02:14Z</time>
      </trkpt>
      <trkpt lat="44.31144" lon="5.82263">
        <ele>556</ele>
        <time>2019-03-29T13:02:15Z</time>
      </trkpt>
      <trkpt lat="44.31141" lon="5.82259">
        <ele>556</ele>
        <time>2019-03-29T13:02:16Z</time>
      </trkpt>
      <trkpt lat="44.31138" lon="5.82255">
        <ele>556</ele>
        <time>2019-03-29T13:02:17Z</time>
      </trkpt>
      <trkpt lat="44.31134" lon="5.82251">
        <ele>556</ele>
        <time>2019-03-29T13:02:18Z</time>
      </trkpt>
      <trkpt lat="44.31131" lon="5.82246">
        <ele>556</ele>
        <time>2019-03-29T13:02:19Z</time>
      </trkpt>
      <trkpt lat="44.31127" lon="5.82242">
        <ele>556</ele>
        <time>2019-03-29T13:02:20Z</time>
      </trkpt>
      <trkpt lat="44.31123" lon="5.82237">
        <ele>556</ele>
        <time>2019-03-29T13:02:21Z</time>
      </trkpt>
      <trkpt lat="44.31119" lon="5.82232">
        <ele>556</ele>
        <time>2019-03-29T13:02:22Z</time>
      </trkpt>
      <trkpt lat="44.31115" lon="5.82227">
        <ele>556</ele>
        <time>2019-03-29T13:02:23Z</time>
      </trkpt>
      <trkpt lat="44.31111" lon="5.82221">
        <ele>556</ele>
        <time>2019-03-29T13:02:24Z</time>
      </trkpt>
      <trkpt lat="44.31107" lon="5.82216">
        <ele>556</ele>
        <time>2019-03-29T13:02:25Z</time>
      </trkpt>
      <trkpt lat="44.31103" lon="5.8221">
        <ele>556</ele>
        <time>2019-03-29T13:02:26Z</time>
      </trkpt>
      <trkpt lat="44.31099" lon="5.82206">
        <ele>556</ele>
        <time>2019-03-29T13:02:27Z</time>
      </trkpt>
      <trkpt lat="44.31095" lon="5.822">
        <ele>556</ele>
        <time>2019-03-29T13:02:28Z</time>
      </trkpt>
      <trkpt lat="44.31091" lon="5.82196">
        <ele>556</ele>
        <time>2019-03-29T13:02:29Z</time>
      </trkpt>
      <trkpt lat="44.31087" lon="5.8219">
        <ele>556</ele>
        <time>2019-03-29T13:02:30Z</time>
      </trkpt>
      <trkpt lat="44.31083" lon="5.82186">
        <ele>556</ele>
        <time>2019-03-29T13:02:31Z</time>
      </trkpt>
      <trkpt lat="44.31079" lon="5.8218">
        <ele>556</ele>
        <time>2019-03-29T13:02:32Z</time>
      </trkpt>
      <trkpt lat="44.31076" lon="5.82175">
        <ele>556</ele>
        <time>2019-03-29T13:02:33Z</time>
      </trkpt>
      <trkpt lat="44.31071" lon="5.82171">
        <ele>556</ele>
        <time>2019-03-29T13:02:34Z</time>
      </trkpt>
      <trkpt lat="44.31067" lon="5.82167">
        <ele>556</ele>
        <time>2019-03-29T13:02:35Z</time>
      </trkpt>
      <trkpt lat="44.31062" lon="5.82163">
        <ele>556</ele>
        <time>2019-03-29T13:02:36Z</time>
      </trkpt>
      <trkpt lat="44.31057" lon="5.82158">
        <ele>556</ele>
        <time>2019-03-29T13:02:37Z</time>
      </trkpt>
      <trkpt lat="44.31054" lon="5.82153">
        <ele>556</ele>
        <time>2019-03-29T13:02:38Z</time>
      </trkpt>
      <trkpt lat="44.31049" lon="5.82148">
        <ele>556</ele>
        <time>2019-03-29T13:02:39Z</time>
      </trkpt>
      <trkpt lat="44.31045" lon="5.82142">
        <ele>556</ele>
        <time>2019-03-29T13:02:40Z</time>
      </trkpt>
      <trkpt lat="44.31041" lon="5.82136">
        <ele>556</ele>
        <time>2019-03-29T13:02:41Z</time>
      </trkpt>
      <trkpt lat="44.31037" lon="5.82131">
        <ele>556</ele>
        <time>2019-03-29T13:02:42Z</time>
      </trkpt>
      <trkpt lat="44.31033" lon="5.82126">
        <ele>556</ele>
        <time>2019-03-29T13:02:43Z</time>
      </trkpt>
      <trkpt lat="44.31029" lon="5.82121">
        <ele>556</ele>
        <time>2019-03-29T13:02:44Z</time>
      </trkpt>
      <trkpt lat="44.31025" lon="5.82115">
        <ele>556</ele>
        <time>2019-03-29T13:02:45Z</time>
      </trkpt>
      <trkpt lat="44.31021" lon="5.82109">
        <ele>556</ele>
        <time>2019-03-29T13:02:46Z</time>
      </trkpt>
      <trkpt lat="44.31017" lon="5.82103">
        <ele>556</ele>
        <time>2019-03-29T13:02:47Z</time>
      </trkpt>
      <trkpt lat="44.31013" lon="5.82098">
        <ele>556</ele>
        <time>2019-03-29T13:02:48Z</time>
      </trkpt>
      <trkpt lat="44.31009" lon="5.82093">
        <ele>556</ele>
        <time>2019-03-29T13:02:49Z</time>
      </trkpt>
      <trkpt lat="44.31005" lon="5.82088">
        <ele>556</ele>
        <time>2019-03-29T13:02:50Z</time>
      </trkpt>
      <trkpt lat="44.31001" lon="5.82083">
        <ele>556</ele>
        <time>2019-03-29T13:02:51Z</time>
      </trkpt>
      <trkpt lat="44.30996" lon="5.82078">
        <ele>556</ele>
        <time>2019-03-29T13:02:52Z</time>
      </trkpt>
      <trkpt lat="44.30992" lon="5.82073">
        <ele>556</ele>
        <time>2019-03-29T13:02:53Z</time>
      </trkpt>
      <trkpt lat="44.30988" lon="5.82069">
        <ele>556</ele>
        <time>2019-03-29T13:02:54Z</time>
      </trkpt>
      <trkpt lat="44.30983" lon="5.82065">
        <ele>556</ele>
        <time>2019-03-29T13:02:55Z</time>
      </trkpt>
      <trkpt lat="44.30978" lon="5.82061">
        <ele>556</ele>
        <time>2019-03-29T13:02:56Z</time>
      </trkpt>
      <trkpt lat="44.30973" lon="5.82057">
        <ele>556</ele>
        <time>2019-03-29T13:02:57Z</time>
      </trkpt>
      <trkpt lat="44.30968" lon="5.82053">
        <ele>556</ele>
        <time>2019-03-29T13:02:58Z</time>
      </trkpt>
      <trkpt lat="44.30963" lon="5.8205">
        <ele>556</ele>
        <time>2019-03-29T13:02:59Z</time>
      </trkpt>
      <trkpt lat="44.30958" lon="5.82047">
        <ele>556</ele>
        <time>2019-03-29T13:03:00Z</time>
      </trkpt>
      <trkpt lat="44.30953" lon="5.82044">
        <ele>556</ele>
        <time>2019-03-29T13:03:01Z</time>
      </trkpt>
      <trkpt lat="44.30947" lon="5.82042">
        <ele>556</ele>
        <time>2019-03-29T13:03:02Z</time>
      </trkpt>
      <trkpt lat="44.30942" lon="5.82039">
        <ele>556</ele>
        <time>2019-03-29T13:03:03Z</time>
      </trkpt>
      <trkpt lat="44.30936" lon="5.82038">
        <ele>556</ele>
        <time>2019-03-29T13:03:04Z</time>
      </trkpt>
      <trkpt lat="44.30931" lon="5.82037">
        <ele>556</ele>
        <time>2019-03-29T13:03:05Z</time>
      </trkpt>
      <trkpt lat="44.30925" lon="5.82037">
        <ele>556</ele>
        <time>2019-03-29T13:03:06Z</time>
      </trkpt>
      <trkpt lat="44.3092" lon="5.82037">
        <ele>556</ele>
        <time>2019-03-29T13:03:07Z</time>
      </trkpt>
      <trkpt lat="44.30915" lon="5.82037">
        <ele>556</ele>
        <time>2019-03-29T13:03:08Z</time>
      </trkpt>
      <trkpt lat="44.3091" lon="5.82037">
        <ele>556</ele>
        <time>2019-03-29T13:03:09Z</time>
      </trkpt>
      <trkpt lat="44.30906" lon="5.82038">
        <ele>556</ele>
        <time>2019-03-29T13:03:10Z</time>
      </trkpt>
      <trkpt lat="44.30901" lon="5.82039">
        <ele>556</ele>
        <time>2019-03-29T13:03:11Z</time>
      </trkpt>
      <trkpt lat="44.30896" lon="5.8204">
        <ele>556</ele>
        <time>2019-03-29T13:03:12Z</time>
      </trkpt>
      <trkpt lat="44.30891" lon="5.82041">
        <ele>556</ele>
        <time>2019-03-29T13:03:13Z</time>
      </trkpt>
      <trkpt lat="44.30887" lon="5.82043">
        <ele>556</ele>
        <time>2019-03-29T13:03:14Z</time>
      </trkpt>
      <trkpt lat="44.30882" lon="5.82044">
        <ele>556</ele>
        <time>2019-03-29T13:03:15Z</time>
      </trkpt>
      <trkpt lat="44.30877" lon="5.82047">
        <ele>556</ele>
        <time>2019-03-29T13:03:16Z</time>
      </trkpt>
      <trkpt lat="44.30872" lon="5.82049">
        <ele>556</ele>
        <time>2019-03-29T13:03:17Z</time>
      </trkpt>
      <trkpt lat="44.30868" lon="5.82051">
        <ele>556</ele>
        <time>2019-03-29T13:03:18Z</time>
      </trkpt>
      <trkpt lat="44.30863" lon="5.82053">
        <ele>556</ele>
        <time>2019-03-29T13:03:19Z</time>
      </trkpt>
      <trkpt lat="44.30859" lon="5.82055">
        <ele>556</ele>
        <time>2019-03-29T13:03:20Z</time>
      </trkpt>
      <trkpt lat="44.30854" lon="5.82056">
        <ele>556</ele>
        <time>2019-03-29T13:03:21Z</time>
      </trkpt>
      <trkpt lat="44.3085" lon="5.82057">
        <ele>556</ele>
        <time>2019-03-29T13:03:22Z</time>
      </trkpt>
      <trkpt lat="44.30845" lon="5.82058">
        <ele>556</ele>
        <time>2019-03-29T13:03:23Z</time>
      </trkpt>
      <trkpt lat="44.30841" lon="5.8206">
        <ele>556</ele>
        <time>2019-03-29T13:03:24Z</time>
      </trkpt>
      <trkpt lat="44.30836" lon="5.82061">
        <ele>556</ele>
        <time>2019-03-29T13:03:25Z</time>
      </trkpt>
      <trkpt lat="44.30831" lon="5.82063">
        <ele>556</ele>
        <time>2019-03-29T13:03:26Z</time>
      </trkpt>
      <trkpt lat="44.30826" lon="5.82064">
        <ele>556</ele>
        <time>2019-03-29T13:03:27Z</time>
      </trkpt>
      <trkpt lat="44.30821" lon="5.82065">
        <ele>556</ele>
        <time>2019-03-29T13:03:28Z</time>
      </trkpt>
      <trkpt lat="44.30817" lon="5.82066">
        <ele>556</ele>
        <time>2019-03-29T13:03:29Z</time>
      </trkpt>
      <trkpt lat="44.30811" lon="5.82067">
        <ele>557</ele>
        <time>2019-03-29T13:03:30Z</time>
      </trkpt>
      <trkpt lat="44.30806" lon="5.82069">
        <ele>557</ele>
        <time>2019-03-29T13:03:31Z</time>
      </trkpt>
      <trkpt lat="44.30801" lon="5.8207">
        <ele>557</ele>
        <time>2019-03-29T13:03:32Z</time>
      </trkpt>
      <trkpt lat="44.30796" lon="5.82071">
        <ele>557</ele>
        <time>2019-03-29T13:03:33Z</time>
      </trkpt>
      <trkpt lat="44.30791" lon="5.82073">
        <ele>557</ele>
        <time>2019-03-29T13:03:34Z</time>
      </trkpt>
      <trkpt lat="44.30786" lon="5.82074">
        <ele>557</ele>
        <time>2019-03-29T13:03:35Z</time>
      </trkpt>
      <trkpt lat="44.30781" lon="5.82075">
        <ele>557</ele>
        <time>2019-03-29T13:03:36Z</time>
      </trkpt>
      <trkpt lat="44.30776" lon="5.82077">
        <ele>557</ele>
        <time>2019-03-29T13:03:37Z</time>
      </trkpt>
      <trkpt lat="44.30772" lon="5.82079">
        <ele>557</ele>
        <time>2019-03-29T13:03:38Z</time>
      </trkpt>
      <trkpt lat="44.30767" lon="5.82082">
        <ele>557</ele>
        <time>2019-03-29T13:03:39Z</time>
      </trkpt>
      <trkpt lat="44.30762" lon="5.82085">
        <ele>557</ele>
        <time>2019-03-29T13:03:40Z</time>
      </trkpt>
      <trkpt lat="44.30758" lon="5.82088">
        <ele>557</ele>
        <time>2019-03-29T13:03:41Z</time>
      </trkpt>
      <trkpt lat="44.30754" lon="5.82093">
        <ele>557</ele>
        <time>2019-03-29T13:03:42Z</time>
      </trkpt>
      <trkpt lat="44.3075" lon="5.82097">
        <ele>557</ele>
        <time>2019-03-29T13:03:43Z</time>
      </trkpt>
      <trkpt lat="44.30746" lon="5.82103">
        <ele>557</ele>
        <time>2019-03-29T13:03:44Z</time>
      </trkpt>
      <trkpt lat="44.30743" lon="5.82108">
        <ele>557</ele>
        <time>2019-03-29T13:03:45Z</time>
      </trkpt>
      <trkpt lat="44.3074" lon="5.82114">
        <ele>557</ele>
        <time>2019-03-29T13:03:46Z</time>
      </trkpt>
      <trkpt lat="44.30738" lon="5.8212">
        <ele>557</ele>
        <time>2019-03-29T13:03:47Z</time>
      </trkpt>
      <trkpt lat="44.30735" lon="5.82126">
        <ele>557</ele>
        <time>2019-03-29T13:03:48Z</time>
      </trkpt>
      <trkpt lat="44.30733" lon="5.82133">
        <ele>557</ele>
        <time>2019-03-29T13:03:49Z</time>
      </trkpt>
      <trkpt lat="44.30731" lon="5.82139">
        <ele>557</ele>
        <time>2019-03-29T13:03:50Z</time>
      </trkpt>
      <trkpt lat="44.30729" lon="5.82146">
        <ele>557</ele>
        <time>2019-03-29T13:03:51Z</time>
      </trkpt>
      <trkpt lat="44.30727" lon="5.82152">
        <ele>557</ele>
        <time>2019-03-29T13:03:52Z</time>
      </trkpt>
      <trkpt lat="44.30725" lon="5.82158">
        <ele>557</ele>
        <time>2019-03-29T13:03:53Z</time>
      </trkpt>
      <trkpt lat="44.30722" lon="5.82164">
        <ele>557</ele>
        <time>2019-03-29T13:03:54Z</time>
      </trkpt>
      <trkpt lat="44.3072" lon="5.82171">
        <ele>557</ele>
        <time>2019-03-29T13:03:55Z</time>
      </trkpt>
      <trkpt lat="44.30718" lon="5.82176">
        <ele>557</ele>
        <time>2019-03-29T13:03:56Z</time>
      </trkpt>
      <trkpt lat="44.30715" lon="5.82183">
        <ele>557</ele>
        <time>2019-03-29T13:03:57Z</time>
      </trkpt>
      <trkpt lat="44.30713" lon="5.82188">
        <ele>557</ele>
        <time>2019-03-29T13:03:58Z</time>
      </trkpt>
      <trkpt lat="44.3071" lon="5.82194">
        <ele>557</ele>
        <time>2019-03-29T13:03:59Z</time>
      </trkpt>
      <trkpt lat="44.30707" lon="5.822">
        <ele>557</ele>
        <time>2019-03-29T13:04:00Z</time>
      </trkpt>
      <trkpt lat="44.30705" lon="5.82205">
        <ele>557</ele>
        <time>2019-03-29T13:04:01Z</time>
      </trkpt>
      <trkpt lat="44.30702" lon="5.8221">
        <ele>557</ele>
        <time>2019-03-29T13:04:02Z</time>
      </trkpt>
      <trkpt lat="44.30699" lon="5.82216">
        <ele>557</ele>
        <time>2019-03-29T13:04:03Z</time>
      </trkpt>
      <trkpt lat="44.30696" lon="5.82221">
        <ele>557</ele>
        <time>2019-03-29T13:04:04Z</time>
      </trkpt>
      <trkpt lat="44.30693" lon="5.82225">
        <ele>557</ele>
        <time>2019-03-29T13:04:05Z</time>
      </trkpt>
      <trkpt lat="44.30689" lon="5.82226">
        <ele>557</ele>
        <time>2019-03-29T13:04:06Z</time>
      </trkpt>
      <trkpt lat="44.30686" lon="5.82225">
        <ele>557</ele>
        <time>2019-03-29T13:04:07Z</time>
      </trkpt>
      <trkpt lat="44.30683" lon="5.82221">
        <ele>557</ele>
        <time>2019-03-29T13:04:08Z</time>
      </trkpt>
      <trkpt lat="44.30683" lon="5.82217">
        <ele>557</ele>
        <time>2019-03-29T13:04:09Z</time>
      </trkpt>
      <trkpt lat="44.30685" lon="5.82213">
        <ele>557</ele>
        <time>2019-03-29T13:04:10Z</time>
      </trkpt>
      <trkpt lat="44.30688" lon="5.82209">
        <ele>557</ele>
        <time>2019-03-29T13:04:11Z</time>
      </trkpt>
      <trkpt lat="44.30691" lon="5.82205">
        <ele>557</ele>
        <time>2019-03-29T13:04:12Z</time>
      </trkpt>
      <trkpt lat="44.30695" lon="5.82201">
        <ele>558</ele>
        <time>2019-03-29T13:04:13Z</time>
      </trkpt>
      <trkpt lat="44.30697" lon="5.82197">
        <ele>558</ele>
        <time>2019-03-29T13:04:14Z</time>
      </trkpt>
      <trkpt lat="44.30699" lon="5.82193">
        <ele>558</ele>
        <time>2019-03-29T13:04:15Z</time>
      </trkpt>
      <trkpt lat="44.30701" lon="5.82189">
        <ele>558</ele>
        <time>2019-03-29T13:04:16Z</time>
      </trkpt>
      <trkpt lat="44.30702" lon="5.82185">
        <ele>559</ele>
        <time>2019-03-29T13:04:17Z</time>
      </trkpt>
      <trkpt lat="44.30704" lon="5.8218">
        <ele>559</ele>
        <time>2019-03-29T13:04:18Z</time>
      </trkpt>
      <trkpt lat="44.30706" lon="5.82175">
        <ele>559</ele>
        <time>2019-03-29T13:04:19Z</time>
      </trkpt>
      <trkpt lat="44.30708" lon="5.8217">
        <ele>559</ele>
        <time>2019-03-29T13:04:20Z</time>
      </trkpt>
      <trkpt lat="44.3071" lon="5.82165">
        <ele>560</ele>
        <time>2019-03-29T13:04:21Z</time>
      </trkpt>
      <trkpt lat="44.30711" lon="5.8216">
        <ele>560</ele>
        <time>2019-03-29T13:04:22Z</time>
      </trkpt>
      <trkpt lat="44.30713" lon="5.82155">
        <ele>560</ele>
        <time>2019-03-29T13:04:23Z</time>
      </trkpt>
      <trkpt lat="44.30714" lon="5.8215">
        <ele>560</ele>
        <time>2019-03-29T13:04:24Z</time>
      </trkpt>
      <trkpt lat="44.30715" lon="5.82145">
        <ele>560</ele>
        <time>2019-03-29T13:04:25Z</time>
      </trkpt>
      <trkpt lat="44.30716" lon="5.8214">
        <ele>560</ele>
        <time>2019-03-29T13:04:26Z</time>
      </trkpt>
      <trkpt lat="44.30717" lon="5.82135">
        <ele>561</ele>
        <time>2019-03-29T13:04:27Z</time>
      </trkpt>
      <trkpt lat="44.30717" lon="5.8213">
        <ele>561</ele>
        <time>2019-03-29T13:04:28Z</time>
      </trkpt>
      <trkpt lat="44.30718" lon="5.82125">
        <ele>561</ele>
        <time>2019-03-29T13:04:29Z</time>
      </trkpt>
      <trkpt lat="44.30718" lon="5.82121">
        <ele>562</ele>
        <time>2019-03-29T13:04:30Z</time>
      </trkpt>
      <trkpt lat="44.30718" lon="5.82116">
        <ele>562</ele>
        <time>2019-03-29T13:04:31Z</time>
      </trkpt>
      <trkpt lat="44.30718" lon="5.82112">
        <ele>562</ele>
        <time>2019-03-29T13:04:32Z</time>
      </trkpt>
      <trkpt lat="44.30718" lon="5.82107">
        <ele>563</ele>
        <time>2019-03-29T13:04:33Z</time>
      </trkpt>
      <trkpt lat="44.30717" lon="5.82103">
        <ele>563</ele>
        <time>2019-03-29T13:04:34Z</time>
      </trkpt>
      <trkpt lat="44.30717" lon="5.82099">
        <ele>563</ele>
        <time>2019-03-29T13:04:35Z</time>
      </trkpt>
      <trkpt lat="44.30716" lon="5.82094">
        <ele>563</ele>
        <time>2019-03-29T13:04:36Z</time>
      </trkpt>
      <trkpt lat="44.30716" lon="5.8209">
        <ele>563</ele>
        <time>2019-03-29T13:04:37Z</time>
      </trkpt>
      <trkpt lat="44.30715" lon="5.82086">
        <ele>564</ele>
        <time>2019-03-29T13:04:38Z</time>
      </trkpt>
      <trkpt lat="44.30714" lon="5.82082">
        <ele>564</ele>
        <time>2019-03-29T13:04:39Z</time>
      </trkpt>
      <trkpt lat="44.30713" lon="5.82078">
        <ele>564</ele>
        <time>2019-03-29T13:04:40Z</time>
      </trkpt>
      <trkpt lat="44.30712" lon="5.82073">
        <ele>564</ele>
        <time>2019-03-29T13:04:41Z</time>
      </trkpt>
      <trkpt lat="44.30711" lon="5.82069">
        <ele>565</ele>
        <time>2019-03-29T13:04:42Z</time>
      </trkpt>
      <trkpt lat="44.30711" lon="5.82065">
        <ele>565</ele>
        <time>2019-03-29T13:04:43Z</time>
      </trkpt>
      <trkpt lat="44.3071" lon="5.82061">
        <ele>565</ele>
        <time>2019-03-29T13:04:44Z</time>
      </trkpt>
      <trkpt lat="44.30709" lon="5.82057">
        <ele>565</ele>
        <time>2019-03-29T13:04:45Z</time>
      </trkpt>
      <trkpt lat="44.30709" lon="5.82054">
        <ele>566</ele>
        <time>2019-03-29T13:04:46Z</time>
      </trkpt>
      <trkpt lat="44.30708" lon="5.8205">
        <ele>566</ele>
        <time>2019-03-29T13:04:47Z</time>
      </trkpt>
      <trkpt lat="44.30708" lon="5.82046">
        <ele>566</ele>
        <time>2019-03-29T13:04:48Z</time>
      </trkpt>
      <trkpt lat="44.30707" lon="5.82042">
        <ele>567</ele>
        <time>2019-03-29T13:04:49Z</time>
      </trkpt>
      <trkpt lat="44.30706" lon="5.82039">
        <ele>567</ele>
        <time>2019-03-29T13:04:50Z</time>
      </trkpt>
      <trkpt lat="44.30706" lon="5.82035">
        <ele>567</ele>
        <time>2019-03-29T13:04:51Z</time>
      </trkpt>
      <trkpt lat="44.30707" lon="5.82031">
        <ele>568</ele>
        <time>2019-03-29T13:04:52Z</time>
      </trkpt>
      <trkpt lat="44.30707" lon="5.82027">
        <ele>568</ele>
        <time>2019-03-29T13:04:53Z</time>
      </trkpt>
      <trkpt lat="44.30706" lon="5.82023">
        <ele>569</ele>
        <time>2019-03-29T13:04:54Z</time>
      </trkpt>
      <trkpt lat="44.30707" lon="5.82019">
        <ele>569</ele>
        <time>2019-03-29T13:04:55Z</time>
      </trkpt>
      <trkpt lat="44.30707" lon="5.82015">
        <ele>569</ele>
        <time>2019-03-29T13:04:56Z</time>
      </trkpt>
      <trkpt lat="44.30707" lon="5.82011">
        <ele>569</ele>
        <time>2019-03-29T13:04:57Z</time>
      </trkpt>
      <trkpt lat="44.30707" lon="5.82007">
        <ele>570</ele>
        <time>2019-03-29T13:04:58Z</time>
      </trkpt>
      <trkpt lat="44.30708" lon="5.82002">
        <ele>570</ele>
        <time>2019-03-29T13:04:59Z</time>
      </trkpt>
      <trkpt lat="44.30708" lon="5.81998">
        <ele>570</ele>
        <time>2019-03-29T13:05:00Z</time>
      </trkpt>
      <trkpt lat="44.30709" lon="5.81994">
        <ele>570</ele>
        <time>2019-03-29T13:05:01Z</time>
      </trkpt>
      <trkpt lat="44.30709" lon="5.8199">
        <ele>571</ele>
        <time>2019-03-29T13:05:02Z</time>
      </trkpt>
      <trkpt lat="44.3071" lon="5.81986">
        <ele>571</ele>
        <time>2019-03-29T13:05:03Z</time>
      </trkpt>
      <trkpt lat="44.30711" lon="5.81982">
        <ele>572</ele>
        <time>2019-03-29T13:05:04Z</time>
      </trkpt>
      <trkpt lat="44.30711" lon="5.81978">
        <ele>572</ele>
        <time>2019-03-29T13:05:05Z</time>
      </trkpt>
      <trkpt lat="44.30712" lon="5.81973">
        <ele>572</ele>
        <time>2019-03-29T13:05:06Z</time>
      </trkpt>
      <trkpt lat="44.30713" lon="5.81969">
        <ele>573</ele>
        <time>2019-03-29T13:05:07Z</time>
      </trkpt>
      <trkpt lat="44.30714" lon="5.81965">
        <ele>573</ele>
        <time>2019-03-29T13:05:08Z</time>
      </trkpt>
      <trkpt lat="44.30714" lon="5.81961">
        <ele>573</ele>
        <time>2019-03-29T13:05:09Z</time>
      </trkpt>
      <trkpt lat="44.30714" lon="5.81957">
        <ele>574</ele>
        <time>2019-03-29T13:05:10Z</time>
      </trkpt>
      <trkpt lat="44.30715" lon="5.81954">
        <ele>574</ele>
        <time>2019-03-29T13:05:11Z</time>
      </trkpt>
      <trkpt lat="44.30715" lon="5.8195">
        <ele>574</ele>
        <time>2019-03-29T13:05:12Z</time>
      </trkpt>
      <trkpt lat="44.30716" lon="5.81946">
        <ele>574</ele>
        <time>2019-03-29T13:05:13Z</time>
      </trkpt>
      <trkpt lat="44.30717" lon="5.81942">
        <ele>575</ele>
        <time>2019-03-29T13:05:14Z</time>
      </trkpt>
      <trkpt lat="44.30717" lon="5.81937">
        <ele>575</ele>
        <time>2019-03-29T13:05:15Z</time>
      </trkpt>
      <trkpt lat="44.30718" lon="5.81933">
        <ele>575</ele>
        <time>2019-03-29T13:05:16Z</time>
      </trkpt>
      <trkpt lat="44.30719" lon="5.81929">
        <ele>576</ele>
        <time>2019-03-29T13:05:17Z</time>
      </trkpt>
      <trkpt lat="44.3072" lon="5.81925">
        <ele>576</ele>
        <time>2019-03-29T13:05:18Z</time>
      </trkpt>
      <trkpt lat="44.30721" lon="5.8192">
        <ele>576</ele>
        <time>2019-03-29T13:05:19Z</time>
      </trkpt>
      <trkpt lat="44.30722" lon="5.81916">
        <ele>577</ele>
        <time>2019-03-29T13:05:20Z</time>
      </trkpt>
      <trkpt lat="44.30723" lon="5.81912">
        <ele>577</ele>
        <time>2019-03-29T13:05:21Z</time>
      </trkpt>
      <trkpt lat="44.30724" lon="5.81908">
        <ele>578</ele>
        <time>2019-03-29T13:05:22Z</time>
      </trkpt>
      <trkpt lat="44.30725" lon="5.81904">
        <ele>578</ele>
        <time>2019-03-29T13:05:23Z</time>
      </trkpt>
      <trkpt lat="44.30726" lon="5.81901">
        <ele>578</ele>
        <time>2019-03-29T13:05:24Z</time>
      </trkpt>
      <trkpt lat="44.30727" lon="5.81896">
        <ele>579</ele>
        <time>2019-03-29T13:05:25Z</time>
      </trkpt>
      <trkpt lat="44.30727" lon="5.81892">
        <ele>579</ele>
        <time>2019-03-29T13:05:26Z</time>
      </trkpt>
      <trkpt lat="44.30728" lon="5.81888">
        <ele>579</ele>
        <time>2019-03-29T13:05:27Z</time>
      </trkpt>
      <trkpt lat="44.30729" lon="5.81885">
        <ele>579</ele>
        <time>2019-03-29T13:05:28Z</time>
      </trkpt>
      <trkpt lat="44.3073" lon="5.81881">
        <ele>579</ele>
        <time>2019-03-29T13:05:29Z</time>
      </trkpt>
      <trkpt lat="44.3073" lon="5.81876">
        <ele>579</ele>
        <time>2019-03-29T13:05:30Z</time>
      </trkpt>
      <trkpt lat="44.30731" lon="5.81872">
        <ele>579</ele>
        <time>2019-03-29T13:05:31Z</time>
      </trkpt>
      <trkpt lat="44.30732" lon="5.81868">
        <ele>579</ele>
        <time>2019-03-29T13:05:32Z</time>
      </trkpt>
      <trkpt lat="44.30732" lon="5.81864">
        <ele>579</ele>
        <time>2019-03-29T13:05:33Z</time>
      </trkpt>
      <trkpt lat="44.30733" lon="5.8186">
        <ele>579</ele>
        <time>2019-03-29T13:05:34Z</time>
      </trkpt>
      <trkpt lat="44.30735" lon="5.81855">
        <ele>579</ele>
        <time>2019-03-29T13:05:35Z</time>
      </trkpt>
      <trkpt lat="44.30735" lon="5.81851">
        <ele>579</ele>
        <time>2019-03-29T13:05:36Z</time>
      </trkpt>
      <trkpt lat="44.30736" lon="5.81847">
        <ele>579</ele>
        <time>2019-03-29T13:05:37Z</time>
      </trkpt>
      <trkpt lat="44.30737" lon="5.81843">
        <ele>580</ele>
        <time>2019-03-29T13:05:38Z</time>
      </trkpt>
      <trkpt lat="44.30738" lon="5.81839">
        <ele>580</ele>
        <time>2019-03-29T13:05:39Z</time>
      </trkpt>
      <trkpt lat="44.30739" lon="5.81835">
        <ele>580</ele>
        <time>2019-03-29T13:05:40Z</time>
      </trkpt>
      <trkpt lat="44.3074" lon="5.81832">
        <ele>580</ele>
        <time>2019-03-29T13:05:41Z</time>
      </trkpt>
      <trkpt lat="44.30741" lon="5.81828">
        <ele>581</ele>
        <time>2019-03-29T13:05:42Z</time>
      </trkpt>
      <trkpt lat="44.30742" lon="5.81824">
        <ele>581</ele>
        <time>2019-03-29T13:05:43Z</time>
      </trkpt>
      <trkpt lat="44.30743" lon="5.8182">
        <ele>581</ele>
        <time>2019-03-29T13:05:44Z</time>
      </trkpt>
      <trkpt lat="44.30744" lon="5.81816">
        <ele>581</ele>
        <time>2019-03-29T13:05:45Z</time>
      </trkpt>
      <trkpt lat="44.30745" lon="5.81812">
        <ele>582</ele>
        <time>2019-03-29T13:05:46Z</time>
      </trkpt>
      <trkpt lat="44.30747" lon="5.81808">
        <ele>582</ele>
        <time>2019-03-29T13:05:47Z</time>
      </trkpt>
      <trkpt lat="44.30748" lon="5.81805">
        <ele>582</ele>
        <time>2019-03-29T13:05:48Z</time>
      </trkpt>
      <trkpt lat="44.30749" lon="5.81801">
        <ele>582</ele>
        <time>2019-03-29T13:05:49Z</time>
      </trkpt>
      <trkpt lat="44.3075" lon="5.81797">
        <ele>583</ele>
        <time>2019-03-29T13:05:50Z</time>
      </trkpt>
      <trkpt lat="44.30751" lon="5.81793">
        <ele>583</ele>
        <time>2019-03-29T13:05:51Z</time>
      </trkpt>
      <trkpt lat="44.30752" lon="5.81789">
        <ele>583</ele>
        <time>2019-03-29T13:05:52Z</time>
      </trkpt>
      <trkpt lat="44.30753" lon="5.81785">
        <ele>583</ele>
        <time>2019-03-29T13:05:53Z</time>
      </trkpt>
      <trkpt lat="44.30755" lon="5.81781">
        <ele>584</ele>
        <time>2019-03-29T13:05:54Z</time>
      </trkpt>
      <trkpt lat="44.30756" lon="5.81777">
        <ele>584</ele>
        <time>2019-03-29T13:05:55Z</time>
      </trkpt>
      <trkpt lat="44.30758" lon="5.81773">
        <ele>584</ele>
        <time>2019-03-29T13:05:56Z</time>
      </trkpt>
      <trkpt lat="44.30759" lon="5.81769">
        <ele>585</ele>
        <time>2019-03-29T13:05:57Z</time>
      </trkpt>
      <trkpt lat="44.3076" lon="5.81765">
        <ele>585</ele>
        <time>2019-03-29T13:05:58Z</time>
      </trkpt>
      <trkpt lat="44.30761" lon="5.81761">
        <ele>585</ele>
        <time>2019-03-29T13:05:59Z</time>
      </trkpt>
      <trkpt lat="44.30762" lon="5.81757">
        <ele>586</ele>
        <time>2019-03-29T13:06:00Z</time>
      </trkpt>
      <trkpt lat="44.30763" lon="5.81753">
        <ele>586</ele>
        <time>2019-03-29T13:06:01Z</time>
      </trkpt>
      <trkpt lat="44.30764" lon="5.81749">
        <ele>586</ele>
        <time>2019-03-29T13:06:02Z</time>
      </trkpt>
      <trkpt lat="44.30765" lon="5.81745">
        <ele>587</ele>
        <time>2019-03-29T13:06:03Z</time>
      </trkpt>
      <trkpt lat="44.30766" lon="5.81742">
        <ele>587</ele>
        <time>2019-03-29T13:06:04Z</time>
      </trkpt>
      <trkpt lat="44.30767" lon="5.81738">
        <ele>587</ele>
        <time>2019-03-29T13:06:05Z</time>
      </trkpt>
      <trkpt lat="44.30769" lon="5.81734">
        <ele>588</ele>
        <time>2019-03-29T13:06:06Z</time>
      </trkpt>
      <trkpt lat="44.3077" lon="5.8173">
        <ele>588</ele>
        <time>2019-03-29T13:06:07Z</time>
      </trkpt>
      <trkpt lat="44.30772" lon="5.81726">
        <ele>588</ele>
        <time>2019-03-29T13:06:08Z</time>
      </trkpt>
      <trkpt lat="44.30773" lon="5.81723">
        <ele>588</ele>
        <time>2019-03-29T13:06:09Z</time>
      </trkpt>
      <trkpt lat="44.30774" lon="5.81719">
        <ele>589</ele>
        <time>2019-03-29T13:06:10Z</time>
      </trkpt>
      <trkpt lat="44.30775" lon="5.81715">
        <ele>589</ele>
        <time>2019-03-29T13:06:11Z</time>
      </trkpt>
      <trkpt lat="44.30777" lon="5.81711">
        <ele>589</ele>
        <time>2019-03-29T13:06:12Z</time>
      </trkpt>
      <trkpt lat="44.30778" lon="5.81708">
        <ele>589</ele>
        <time>2019-03-29T13:06:13Z</time>
      </trkpt>
      <trkpt lat="44.30779" lon="5.81704">
        <ele>589</ele>
        <time>2019-03-29T13:06:14Z</time>
      </trkpt>
      <trkpt lat="44.30781" lon="5.817">
        <ele>590</ele>
        <time>2019-03-29T13:06:15Z</time>
      </trkpt>
      <trkpt lat="44.30782" lon="5.81696">
        <ele>590</ele>
        <time>2019-03-29T13:06:16Z</time>
      </trkpt>
      <trkpt lat="44.30783" lon="5.81692">
        <ele>590</ele>
        <time>2019-03-29T13:06:17Z</time>
      </trkpt>
      <trkpt lat="44.30785" lon="5.81689">
        <ele>590</ele>
        <time>2019-03-29T13:06:18Z</time>
      </trkpt>
      <trkpt lat="44.30786" lon="5.81685">
        <ele>590</ele>
        <time>2019-03-29T13:06:19Z</time>
      </trkpt>
      <trkpt lat="44.30787" lon="5.81681">
        <ele>591</ele>
        <time>2019-03-29T13:06:20Z</time>
      </trkpt>
      <trkpt lat="44.30788" lon="5.81677">
        <ele>591</ele>
        <time>2019-03-29T13:06:21Z</time>
      </trkpt>
      <trkpt lat="44.30789" lon="5.81673">
        <ele>591</ele>
        <time>2019-03-29T13:06:22Z</time>
      </trkpt>
      <trkpt lat="44.3079" lon="5.81669">
        <ele>591</ele>
        <time>2019-03-29T13:06:23Z</time>
      </trkpt>
      <trkpt lat="44.30791" lon="5.81664">
        <ele>591</ele>
        <time>2019-03-29T13:06:24Z</time>
      </trkpt>
      <trkpt lat="44.30792" lon="5.8166">
        <ele>591</ele>
        <time>2019-03-29T13:06:25Z</time>
      </trkpt>
      <trkpt lat="44.30793" lon="5.81656">
        <ele>592</ele>
        <time>2019-03-29T13:06:26Z</time>
      </trkpt>
      <trkpt lat="44.30793" lon="5.81652">
        <ele>592</ele>
        <time>2019-03-29T13:06:27Z</time>
      </trkpt>
      <trkpt lat="44.30794" lon="5.81647">
        <ele>592</ele>
        <time>2019-03-29T13:06:28Z</time>
      </trkpt>
      <trkpt lat="44.30795" lon="5.81643">
        <ele>592</ele>
        <time>2019-03-29T13:06:29Z</time>
      </trkpt>
      <trkpt lat="44.30796" lon="5.81639">
        <ele>592</ele>
        <time>2019-03-29T13:06:30Z</time>
      </trkpt>
      <trkpt lat="44.30796" lon="5.81635">
        <ele>593</ele>
        <time>2019-03-29T13:06:31Z</time>
      </trkpt>
      <trkpt lat="44.30797" lon="5.81631">
        <ele>593</ele>
        <time>2019-03-29T13:06:32Z</time>
      </trkpt>
      <trkpt lat="44.30798" lon="5.81627">
        <ele>593</ele>
        <time>2019-03-29T13:06:33Z</time>
      </trkpt>
      <trkpt lat="44.30798" lon="5.81623">
        <ele>593</ele>
        <time>2019-03-29T13:06:34Z</time>
      </trkpt>
      <trkpt lat="44.30799" lon="5.81619">
        <ele>593</ele>
        <time>2019-03-29T13:06:35Z</time>
      </trkpt>
      <trkpt lat="44.30799" lon="5.81615">
        <ele>594</ele>
        <time>2019-03-29T13:06:36Z</time>
      </trkpt>
      <trkpt lat="44.308" lon="5.81611">
        <ele>594</ele>
        <time>2019-03-29T13:06:37Z</time>
      </trkpt>
      <trkpt lat="44.308" lon="5.81607">
        <ele>594</ele>
        <time>2019-03-29T13:06:38Z</time>
      </trkpt>
      <trkpt lat="44.30801" lon="5.81603">
        <ele>594</ele>
        <time>2019-03-29T13:06:39Z</time>
      </trkpt>
      <trkpt lat="44.30801" lon="5.81599">
        <ele>595</ele>
        <time>2019-03-29T13:06:40Z</time>
      </trkpt>
      <trkpt lat="44.30802" lon="5.81595">
        <ele>595</ele>
        <time>2019-03-29T13:06:41Z</time>
      </trkpt>
      <trkpt lat="44.30803" lon="5.81591">
        <ele>595</ele>
        <time>2019-03-29T13:06:42Z</time>
      </trkpt>
      <trkpt lat="44.30803" lon="5.81587">
        <ele>595</ele>
        <time>2019-03-29T13:06:43Z</time>
      </trkpt>
      <trkpt lat="44.30804" lon="5.81583">
        <ele>595</ele>
        <time>2019-03-29T13:06:44Z</time>
      </trkpt>
      <trkpt lat="44.30804" lon="5.81579">
        <ele>596</ele>
        <time>2019-03-29T13:06:45Z</time>
      </trkpt>
      <trkpt lat="44.30805" lon="5.81576">
        <ele>596</ele>
        <time>2019-03-29T13:06:46Z</time>
      </trkpt>
      <trkpt lat="44.30805" lon="5.81572">
        <ele>596</ele>
        <time>2019-03-29T13:06:47Z</time>
      </trkpt>
      <trkpt lat="44.30806" lon="5.81568">
        <ele>596</ele>
        <time>2019-03-29T13:06:48Z</time>
      </trkpt>
      <trkpt lat="44.30806" lon="5.81564">
        <ele>596</ele>
        <time>2019-03-29T13:06:49Z</time>
      </trkpt>
      <trkpt lat="44.30806" lon="5.8156">
        <ele>597</ele>
        <time>2019-03-29T13:06:50Z</time>
      </trkpt>
      <trkpt lat="44.30807" lon="5.81556">
        <ele>597</ele>
        <time>2019-03-29T13:06:51Z</time>
      </trkpt>
      <trkpt lat="44.30807" lon="5.81553">
        <ele>597</ele>
        <time>2019-03-29T13:06:52Z</time>
      </trkpt>
      <trkpt lat="44.30808" lon="5.81549">
        <ele>597</ele>
        <time>2019-03-29T13:06:53Z</time>
      </trkpt>
      <trkpt lat="44.30808" lon="5.81545">
        <ele>597</ele>
        <time>2019-03-29T13:06:54Z</time>
      </trkpt>
      <trkpt lat="44.30809" lon="5.81541">
        <ele>598</ele>
        <time>2019-03-29T13:06:55Z</time>
      </trkpt>
      <trkpt lat="44.30809" lon="5.81536">
        <ele>598</ele>
        <time>2019-03-29T13:06:56Z</time>
      </trkpt>
      <trkpt lat="44.30809" lon="5.81532">
        <ele>598</ele>
        <time>2019-03-29T13:06:57Z</time>
      </trkpt>
      <trkpt lat="44.3081" lon="5.81529">
        <ele>598</ele>
        <time>2019-03-29T13:06:58Z</time>
      </trkpt>
      <trkpt lat="44.30811" lon="5.81525">
        <ele>598</ele>
        <time>2019-03-29T13:06:59Z</time>
      </trkpt>
      <trkpt lat="44.30812" lon="5.81521">
        <ele>599</ele>
        <time>2019-03-29T13:07:00Z</time>
      </trkpt>
      <trkpt lat="44.30813" lon="5.81518">
        <ele>599</ele>
        <time>2019-03-29T13:07:01Z</time>
      </trkpt>
      <trkpt lat="44.30814" lon="5.81514">
        <ele>599</ele>
        <time>2019-03-29T13:07:02Z</time>
      </trkpt>
      <trkpt lat="44.30815" lon="5.8151">
        <ele>599</ele>
        <time>2019-03-29T13:07:03Z</time>
      </trkpt>
      <trkpt lat="44.30816" lon="5.81506">
        <ele>599</ele>
        <time>2019-03-29T13:07:04Z</time>
      </trkpt>
      <trkpt lat="44.30817" lon="5.81502">
        <ele>599</ele>
        <time>2019-03-29T13:07:05Z</time>
      </trkpt>
      <trkpt lat="44.30817" lon="5.81499">
        <ele>599</ele>
        <time>2019-03-29T13:07:06Z</time>
      </trkpt>
      <trkpt lat="44.30818" lon="5.81495">
        <ele>600</ele>
        <time>2019-03-29T13:07:07Z</time>
      </trkpt>
      <trkpt lat="44.30819" lon="5.81492">
        <ele>600</ele>
        <time>2019-03-29T13:07:08Z</time>
      </trkpt>
      <trkpt lat="44.3082" lon="5.81488">
        <ele>600</ele>
        <time>2019-03-29T13:07:09Z</time>
      </trkpt>
      <trkpt lat="44.30821" lon="5.81484">
        <ele>600</ele>
        <time>2019-03-29T13:07:10Z</time>
      </trkpt>
      <trkpt lat="44.30822" lon="5.81481">
        <ele>600</ele>
        <time>2019-03-29T13:07:11Z</time>
      </trkpt>
      <trkpt lat="44.30822" lon="5.81477">
        <ele>600</ele>
        <time>2019-03-29T13:07:12Z</time>
      </trkpt>
      <trkpt lat="44.30823" lon="5.81473">
        <ele>600</ele>
        <time>2019-03-29T13:07:13Z</time>
      </trkpt>
      <trkpt lat="44.30824" lon="5.81469">
        <ele>601</ele>
        <time>2019-03-29T13:07:14Z</time>
      </trkpt>
      <trkpt lat="44.30825" lon="5.81466">
        <ele>601</ele>
        <time>2019-03-29T13:07:15Z</time>
      </trkpt>
      <trkpt lat="44.30825" lon="5.81462">
        <ele>601</ele>
        <time>2019-03-29T13:07:16Z</time>
      </trkpt>
      <trkpt lat="44.30826" lon="5.81459">
        <ele>601</ele>
        <time>2019-03-29T13:07:17Z</time>
      </trkpt>
      <trkpt lat="44.30827" lon="5.81455">
        <ele>602</ele>
        <time>2019-03-29T13:07:18Z</time>
      </trkpt>
      <trkpt lat="44.30827" lon="5.81452">
        <ele>602</ele>
        <time>2019-03-29T13:07:19Z</time>
      </trkpt>
      <trkpt lat="44.30827" lon="5.81448">
        <ele>602</ele>
        <time>2019-03-29T13:07:20Z</time>
      </trkpt>
      <trkpt lat="44.30828" lon="5.81445">
        <ele>603</ele>
        <time>2019-03-29T13:07:21Z</time>
      </trkpt>
      <trkpt lat="44.30829" lon="5.81441">
        <ele>603</ele>
        <time>2019-03-29T13:07:22Z</time>
      </trkpt>
      <trkpt lat="44.30829" lon="5.81438">
        <ele>603</ele>
        <time>2019-03-29T13:07:23Z</time>
      </trkpt>
      <trkpt lat="44.30829" lon="5.81434">
        <ele>603</ele>
        <time>2019-03-29T13:07:24Z</time>
      </trkpt>
      <trkpt lat="44.30829" lon="5.81431">
        <ele>604</ele>
        <time>2019-03-29T13:07:25Z</time>
      </trkpt>
      <trkpt lat="44.30829" lon="5.81428">
        <ele>604</ele>
        <time>2019-03-29T13:07:26Z</time>
      </trkpt>
      <trkpt lat="44.3083" lon="5.81425">
        <ele>604</ele>
        <time>2019-03-29T13:07:27Z</time>
      </trkpt>
      <trkpt lat="44.3083" lon="5.81421">
        <ele>604</ele>
        <time>2019-03-29T13:07:28Z</time>
      </trkpt>
      <trkpt lat="44.30831" lon="5.81418">
        <ele>605</ele>
        <time>2019-03-29T13:07:29Z</time>
      </trkpt>
      <trkpt lat="44.30832" lon="5.81414">
        <ele>605</ele>
        <time>2019-03-29T13:07:30Z</time>
      </trkpt>
      <trkpt lat="44.30832" lon="5.81411">
        <ele>605</ele>
        <time>2019-03-29T13:07:31Z</time>
      </trkpt>
      <trkpt lat="44.30832" lon="5.81407">
        <ele>605</ele>
        <time>2019-03-29T13:07:32Z</time>
      </trkpt>
      <trkpt lat="44.30832" lon="5.81404">
        <ele>606</ele>
        <time>2019-03-29T13:07:33Z</time>
      </trkpt>
      <trkpt lat="44.30832" lon="5.814">
        <ele>606</ele>
        <time>2019-03-29T13:07:34Z</time>
      </trkpt>
      <trkpt lat="44.30833" lon="5.81396">
        <ele>606</ele>
        <time>2019-03-29T13:07:35Z</time>
      </trkpt>
      <trkpt lat="44.30833" lon="5.81392">
        <ele>606</ele>
        <time>2019-03-29T13:07:36Z</time>
      </trkpt>
      <trkpt lat="44.30834" lon="5.81389">
        <ele>606</ele>
        <time>2019-03-29T13:07:37Z</time>
      </trkpt>
      <trkpt lat="44.30834" lon="5.81385">
        <ele>606</ele>
        <time>2019-03-29T13:07:38Z</time>
      </trkpt>
      <trkpt lat="44.30835" lon="5.81381">
        <ele>606</ele>
        <time>2019-03-29T13:07:39Z</time>
      </trkpt>
      <trkpt lat="44.30835" lon="5.81377">
        <ele>607</ele>
        <time>2019-03-29T13:07:40Z</time>
      </trkpt>
      <trkpt lat="44.30836" lon="5.81374">
        <ele>607</ele>
        <time>2019-03-29T13:07:41Z</time>
      </trkpt>
      <trkpt lat="44.30836" lon="5.8137">
        <ele>607</ele>
        <time>2019-03-29T13:07:42Z</time>
      </trkpt>
      <trkpt lat="44.30836" lon="5.81366">
        <ele>607</ele>
        <time>2019-03-29T13:07:43Z</time>
      </trkpt>
      <trkpt lat="44.30836" lon="5.81362">
        <ele>607</ele>
        <time>2019-03-29T13:07:44Z</time>
      </trkpt>
      <trkpt lat="44.30837" lon="5.81359">
        <ele>608</ele>
        <time>2019-03-29T13:07:45Z</time>
      </trkpt>
      <trkpt lat="44.30838" lon="5.81355">
        <ele>608</ele>
        <time>2019-03-29T13:07:46Z</time>
      </trkpt>
      <trkpt lat="44.30839" lon="5.81351">
        <ele>608</ele>
        <time>2019-03-29T13:07:47Z</time>
      </trkpt>
      <trkpt lat="44.30841" lon="5.81348">
        <ele>608</ele>
        <time>2019-03-29T13:07:48Z</time>
      </trkpt>
      <trkpt lat="44.30842" lon="5.81344">
        <ele>608</ele>
        <time>2019-03-29T13:07:49Z</time>
      </trkpt>
      <trkpt lat="44.30843" lon="5.8134">
        <ele>609</ele>
        <time>2019-03-29T13:07:50Z</time>
      </trkpt>
      <trkpt lat="44.30844" lon="5.81337">
        <ele>609</ele>
        <time>2019-03-29T13:07:51Z</time>
      </trkpt>
      <trkpt lat="44.30846" lon="5.81333">
        <ele>609</ele>
        <time>2019-03-29T13:07:52Z</time>
      </trkpt>
      <trkpt lat="44.30847" lon="5.8133">
        <ele>609</ele>
        <time>2019-03-29T13:07:53Z</time>
      </trkpt>
      <trkpt lat="44.30848" lon="5.81326">
        <ele>610</ele>
        <time>2019-03-29T13:07:54Z</time>
      </trkpt>
      <trkpt lat="44.3085" lon="5.81323">
        <ele>610</ele>
        <time>2019-03-29T13:07:55Z</time>
      </trkpt>
      <trkpt lat="44.30851" lon="5.8132">
        <ele>610</ele>
        <time>2019-03-29T13:07:56Z</time>
      </trkpt>
      <trkpt lat="44.30853" lon="5.81316">
        <ele>610</ele>
        <time>2019-03-29T13:07:57Z</time>
      </trkpt>
      <trkpt lat="44.30854" lon="5.81313">
        <ele>610</ele>
        <time>2019-03-29T13:07:58Z</time>
      </trkpt>
      <trkpt lat="44.30855" lon="5.81309">
        <ele>611</ele>
        <time>2019-03-29T13:07:59Z</time>
      </trkpt>
      <trkpt lat="44.30857" lon="5.81305">
        <ele>611</ele>
        <time>2019-03-29T13:08:00Z</time>
      </trkpt>
      <trkpt lat="44.30857" lon="5.81301">
        <ele>611</ele>
        <time>2019-03-29T13:08:01Z</time>
      </trkpt>
      <trkpt lat="44.30858" lon="5.81297">
        <ele>611</ele>
        <time>2019-03-29T13:08:02Z</time>
      </trkpt>
      <trkpt lat="44.30859" lon="5.81293">
        <ele>611</ele>
        <time>2019-03-29T13:08:03Z</time>
      </trkpt>
      <trkpt lat="44.3086" lon="5.81289">
        <ele>611</ele>
        <time>2019-03-29T13:08:04Z</time>
      </trkpt>
      <trkpt lat="44.30861" lon="5.81285">
        <ele>611</ele>
        <time>2019-03-29T13:08:05Z</time>
      </trkpt>
      <trkpt lat="44.30862" lon="5.81281">
        <ele>611</ele>
        <time>2019-03-29T13:08:06Z</time>
      </trkpt>
      <trkpt lat="44.30863" lon="5.81277">
        <ele>612</ele>
        <time>2019-03-29T13:08:07Z</time>
      </trkpt>
      <trkpt lat="44.30864" lon="5.81273">
        <ele>612</ele>
        <time>2019-03-29T13:08:08Z</time>
      </trkpt>
      <trkpt lat="44.30865" lon="5.81269">
        <ele>612</ele>
        <time>2019-03-29T13:08:09Z</time>
      </trkpt>
      <trkpt lat="44.30866" lon="5.81264">
        <ele>612</ele>
        <time>2019-03-29T13:08:10Z</time>
      </trkpt>
      <trkpt lat="44.30867" lon="5.8126">
        <ele>612</ele>
        <time>2019-03-29T13:08:11Z</time>
      </trkpt>
      <trkpt lat="44.30868" lon="5.81257">
        <ele>612</ele>
        <time>2019-03-29T13:08:12Z</time>
      </trkpt>
      <trkpt lat="44.30869" lon="5.81253">
        <ele>613</ele>
        <time>2019-03-29T13:08:13Z</time>
      </trkpt>
      <trkpt lat="44.3087" lon="5.81248">
        <ele>613</ele>
        <time>2019-03-29T13:08:14Z</time>
      </trkpt>
      <trkpt lat="44.30872" lon="5.81244">
        <ele>613</ele>
        <time>2019-03-29T13:08:15Z</time>
      </trkpt>
      <trkpt lat="44.30873" lon="5.8124">
        <ele>613</ele>
        <time>2019-03-29T13:08:16Z</time>
      </trkpt>
      <trkpt lat="44.30875" lon="5.81235">
        <ele>613</ele>
        <time>2019-03-29T13:08:17Z</time>
      </trkpt>
      <trkpt lat="44.30876" lon="5.81231">
        <ele>613</ele>
        <time>2019-03-29T13:08:18Z</time>
      </trkpt>
      <trkpt lat="44.30878" lon="5.81226">
        <ele>613</ele>
        <time>2019-03-29T13:08:19Z</time>
      </trkpt>
      <trkpt lat="44.30879" lon="5.81222">
        <ele>613</ele>
        <time>2019-03-29T13:08:20Z</time>
      </trkpt>
      <trkpt lat="44.3088" lon="5.81217">
        <ele>613</ele>
        <time>2019-03-29T13:08:21Z</time>
      </trkpt>
      <trkpt lat="44.30882" lon="5.81212">
        <ele>613</ele>
        <time>2019-03-29T13:08:22Z</time>
      </trkpt>
      <trkpt lat="44.30883" lon="5.81207">
        <ele>613</ele>
        <time>2019-03-29T13:08:23Z</time>
      </trkpt>
      <trkpt lat="44.30885" lon="5.81202">
        <ele>613</ele>
        <time>2019-03-29T13:08:24Z</time>
      </trkpt>
      <trkpt lat="44.30886" lon="5.81197">
        <ele>613</ele>
        <time>2019-03-29T13:08:25Z</time>
      </trkpt>
      <trkpt lat="44.30888" lon="5.81192">
        <ele>613</ele>
        <time>2019-03-29T13:08:26Z</time>
      </trkpt>
      <trkpt lat="44.30889" lon="5.81187">
        <ele>613</ele>
        <time>2019-03-29T13:08:27Z</time>
      </trkpt>
      <trkpt lat="44.3089" lon="5.81182">
        <ele>613</ele>
        <time>2019-03-29T13:08:28Z</time>
      </trkpt>
      <trkpt lat="44.30892" lon="5.81178">
        <ele>613</ele>
        <time>2019-03-29T13:08:29Z</time>
      </trkpt>
      <trkpt lat="44.30894" lon="5.81173">
        <ele>613</ele>
        <time>2019-03-29T13:08:30Z</time>
      </trkpt>
      <trkpt lat="44.30895" lon="5.81169">
        <ele>613</ele>
        <time>2019-03-29T13:08:31Z</time>
      </trkpt>
      <trkpt lat="44.30897" lon="5.81164">
        <ele>613</ele>
        <time>2019-03-29T13:08:32Z</time>
      </trkpt>
      <trkpt lat="44.30899" lon="5.8116">
        <ele>613</ele>
        <time>2019-03-29T13:08:33Z</time>
      </trkpt>
      <trkpt lat="44.309" lon="5.81155">
        <ele>613</ele>
        <time>2019-03-29T13:08:34Z</time>
      </trkpt>
      <trkpt lat="44.30901" lon="5.8115">
        <ele>614</ele>
        <time>2019-03-29T13:08:35Z</time>
      </trkpt>
      <trkpt lat="44.30903" lon="5.81144">
        <ele>614</ele>
        <time>2019-03-29T13:08:36Z</time>
      </trkpt>
      <trkpt lat="44.30905" lon="5.81139">
        <ele>614</ele>
        <time>2019-03-29T13:08:37Z</time>
      </trkpt>
      <trkpt lat="44.30906" lon="5.81132">
        <ele>614</ele>
        <time>2019-03-29T13:08:38Z</time>
      </trkpt>
      <trkpt lat="44.30908" lon="5.81126">
        <ele>614</ele>
        <time>2019-03-29T13:08:39Z</time>
      </trkpt>
      <trkpt lat="44.30909" lon="5.81119">
        <ele>614</ele>
        <time>2019-03-29T13:08:40Z</time>
      </trkpt>
      <trkpt lat="44.30911" lon="5.81112">
        <ele>614</ele>
        <time>2019-03-29T13:08:41Z</time>
      </trkpt>
      <trkpt lat="44.30913" lon="5.81105">
        <ele>614</ele>
        <time>2019-03-29T13:08:42Z</time>
      </trkpt>
      <trkpt lat="44.30914" lon="5.81098">
        <ele>614</ele>
        <time>2019-03-29T13:08:43Z</time>
      </trkpt>
      <trkpt lat="44.30916" lon="5.8109">
        <ele>614</ele>
        <time>2019-03-29T13:08:44Z</time>
      </trkpt>
      <trkpt lat="44.30917" lon="5.81083">
        <ele>614</ele>
        <time>2019-03-29T13:08:45Z</time>
      </trkpt>
      <trkpt lat="44.30919" lon="5.81076">
        <ele>614</ele>
        <time>2019-03-29T13:08:46Z</time>
      </trkpt>
      <trkpt lat="44.3092" lon="5.81069">
        <ele>614</ele>
        <time>2019-03-29T13:08:47Z</time>
      </trkpt>
      <trkpt lat="44.30922" lon="5.81062">
        <ele>614</ele>
        <time>2019-03-29T13:08:48Z</time>
      </trkpt>
      <trkpt lat="44.30925" lon="5.81055">
        <ele>614</ele>
        <time>2019-03-29T13:08:49Z</time>
      </trkpt>
      <trkpt lat="44.30927" lon="5.81048">
        <ele>614</ele>
        <time>2019-03-29T13:08:50Z</time>
      </trkpt>
      <trkpt lat="44.30929" lon="5.81042">
        <ele>614</ele>
        <time>2019-03-29T13:08:51Z</time>
      </trkpt>
      <trkpt lat="44.30931" lon="5.81035">
        <ele>614</ele>
        <time>2019-03-29T13:08:52Z</time>
      </trkpt>
      <trkpt lat="44.30934" lon="5.81029">
        <ele>614</ele>
        <time>2019-03-29T13:08:53Z</time>
      </trkpt>
      <trkpt lat="44.30937" lon="5.81023">
        <ele>614</ele>
        <time>2019-03-29T13:08:54Z</time>
      </trkpt>
      <trkpt lat="44.3094" lon="5.81017">
        <ele>614</ele>
        <time>2019-03-29T13:08:55Z</time>
      </trkpt>
      <trkpt lat="44.30943" lon="5.81011">
        <ele>614</ele>
        <time>2019-03-29T13:08:56Z</time>
      </trkpt>
      <trkpt lat="44.30946" lon="5.81006">
        <ele>614</ele>
        <time>2019-03-29T13:08:57Z</time>
      </trkpt>
      <trkpt lat="44.30948" lon="5.81001">
        <ele>614</ele>
        <time>2019-03-29T13:08:58Z</time>
      </trkpt>
      <trkpt lat="44.30952" lon="5.80996">
        <ele>614</ele>
        <time>2019-03-29T13:08:59Z</time>
      </trkpt>
      <trkpt lat="44.30954" lon="5.80991">
        <ele>614</ele>
        <time>2019-03-29T13:09:00Z</time>
      </trkpt>
      <trkpt lat="44.30957" lon="5.80986">
        <ele>615</ele>
        <time>2019-03-29T13:09:01Z</time>
      </trkpt>
      <trkpt lat="44.30959" lon="5.80981">
        <ele>615</ele>
        <time>2019-03-29T13:09:02Z</time>
      </trkpt>
      <trkpt lat="44.30962" lon="5.80977">
        <ele>615</ele>
        <time>2019-03-29T13:09:03Z</time>
      </trkpt>
      <trkpt lat="44.30964" lon="5.80973">
        <ele>615</ele>
        <time>2019-03-29T13:09:04Z</time>
      </trkpt>
      <trkpt lat="44.30967" lon="5.80969">
        <ele>616</ele>
        <time>2019-03-29T13:09:05Z</time>
      </trkpt>
      <trkpt lat="44.30969" lon="5.80965">
        <ele>616</ele>
        <time>2019-03-29T13:09:06Z</time>
      </trkpt>
      <trkpt lat="44.30972" lon="5.8096">
        <ele>616</ele>
        <time>2019-03-29T13:09:07Z</time>
      </trkpt>
      <trkpt lat="44.30974" lon="5.80956">
        <ele>616</ele>
        <time>2019-03-29T13:09:08Z</time>
      </trkpt>
      <trkpt lat="44.30976" lon="5.80951">
        <ele>617</ele>
        <time>2019-03-29T13:09:09Z</time>
      </trkpt>
      <trkpt lat="44.30978" lon="5.80947">
        <ele>617</ele>
        <time>2019-03-29T13:09:10Z</time>
      </trkpt>
      <trkpt lat="44.3098" lon="5.80942">
        <ele>617</ele>
        <time>2019-03-29T13:09:11Z</time>
      </trkpt>
      <trkpt lat="44.30983" lon="5.80937">
        <ele>617</ele>
        <time>2019-03-29T13:09:12Z</time>
      </trkpt>
      <trkpt lat="44.30984" lon="5.80933">
        <ele>618</ele>
        <time>2019-03-29T13:09:13Z</time>
      </trkpt>
      <trkpt lat="44.30986" lon="5.80928">
        <ele>618</ele>
        <time>2019-03-29T13:09:14Z</time>
      </trkpt>
      <trkpt lat="44.30988" lon="5.80924">
        <ele>618</ele>
        <time>2019-03-29T13:09:15Z</time>
      </trkpt>
      <trkpt lat="44.3099" lon="5.80919">
        <ele>618</ele>
        <time>2019-03-29T13:09:16Z</time>
      </trkpt>
      <trkpt lat="44.30991" lon="5.80914">
        <ele>619</ele>
        <time>2019-03-29T13:09:17Z</time>
      </trkpt>
      <trkpt lat="44.30992" lon="5.80909">
        <ele>619</ele>
        <time>2019-03-29T13:09:18Z</time>
      </trkpt>
      <trkpt lat="44.30993" lon="5.80905">
        <ele>619</ele>
        <time>2019-03-29T13:09:19Z</time>
      </trkpt>
      <trkpt lat="44.30994" lon="5.809">
        <ele>619</ele>
        <time>2019-03-29T13:09:20Z</time>
      </trkpt>
      <trkpt lat="44.30996" lon="5.80895">
        <ele>619</ele>
        <time>2019-03-29T13:09:21Z</time>
      </trkpt>
      <trkpt lat="44.30996" lon="5.8089">
        <ele>620</ele>
        <time>2019-03-29T13:09:22Z</time>
      </trkpt>
      <trkpt lat="44.30997" lon="5.80885">
        <ele>620</ele>
        <time>2019-03-29T13:09:23Z</time>
      </trkpt>
      <trkpt lat="44.30998" lon="5.8088">
        <ele>620</ele>
        <time>2019-03-29T13:09:24Z</time>
      </trkpt>
      <trkpt lat="44.30999" lon="5.80875">
        <ele>620</ele>
        <time>2019-03-29T13:09:25Z</time>
      </trkpt>
      <trkpt lat="44.30999" lon="5.8087">
        <ele>621</ele>
        <time>2019-03-29T13:09:26Z</time>
      </trkpt>
      <trkpt lat="44.31" lon="5.80864">
        <ele>621</ele>
        <time>2019-03-29T13:09:27Z</time>
      </trkpt>
      <trkpt lat="44.31" lon="5.80859">
        <ele>621</ele>
        <time>2019-03-29T13:09:28Z</time>
      </trkpt>
      <trkpt lat="44.31001" lon="5.80853">
        <ele>621</ele>
        <time>2019-03-29T13:09:29Z</time>
      </trkpt>
      <trkpt lat="44.31002" lon="5.80847">
        <ele>621</ele>
        <time>2019-03-29T13:09:30Z</time>
      </trkpt>
      <trkpt lat="44.31003" lon="5.80841">
        <ele>621</ele>
        <time>2019-03-29T13:09:31Z</time>
      </trkpt>
      <trkpt lat="44.31005" lon="5.80835">
        <ele>621</ele>
        <time>2019-03-29T13:09:32Z</time>
      </trkpt>
      <trkpt lat="44.31007" lon="5.80829">
        <ele>621</ele>
        <time>2019-03-29T13:09:33Z</time>
      </trkpt>
      <trkpt lat="44.31009" lon="5.80824">
        <ele>621</ele>
        <time>2019-03-29T13:09:34Z</time>
      </trkpt>
      <trkpt lat="44.3101" lon="5.80819">
        <ele>621</ele>
        <time>2019-03-29T13:09:35Z</time>
      </trkpt>
      <trkpt lat="44.31013" lon="5.80814">
        <ele>621</ele>
        <time>2019-03-29T13:09:36Z</time>
      </trkpt>
      <trkpt lat="44.31015" lon="5.80808">
        <ele>622</ele>
        <time>2019-03-29T13:09:37Z</time>
      </trkpt>
      <trkpt lat="44.31017" lon="5.80804">
        <ele>622</ele>
        <time>2019-03-29T13:09:38Z</time>
      </trkpt>
      <trkpt lat="44.31019" lon="5.80799">
        <ele>622</ele>
        <time>2019-03-29T13:09:39Z</time>
      </trkpt>
      <trkpt lat="44.31021" lon="5.80795">
        <ele>622</ele>
        <time>2019-03-29T13:09:40Z</time>
      </trkpt>
      <trkpt lat="44.31023" lon="5.80791">
        <ele>623</ele>
        <time>2019-03-29T13:09:41Z</time>
      </trkpt>
      <trkpt lat="44.31026" lon="5.80787">
        <ele>623</ele>
        <time>2019-03-29T13:09:42Z</time>
      </trkpt>
      <trkpt lat="44.31028" lon="5.80783">
        <ele>623</ele>
        <time>2019-03-29T13:09:43Z</time>
      </trkpt>
      <trkpt lat="44.3103" lon="5.80778">
        <ele>623</ele>
        <time>2019-03-29T13:09:44Z</time>
      </trkpt>
      <trkpt lat="44.31032" lon="5.80773">
        <ele>623</ele>
        <time>2019-03-29T13:09:45Z</time>
      </trkpt>
      <trkpt lat="44.31034" lon="5.80769">
        <ele>623</ele>
        <time>2019-03-29T13:09:46Z</time>
      </trkpt>
      <trkpt lat="44.31037" lon="5.80764">
        <ele>623</ele>
        <time>2019-03-29T13:09:47Z</time>
      </trkpt>
      <trkpt lat="44.31039" lon="5.80759">
        <ele>623</ele>
        <time>2019-03-29T13:09:48Z</time>
      </trkpt>
      <trkpt lat="44.31041" lon="5.80754">
        <ele>623</ele>
        <time>2019-03-29T13:09:49Z</time>
      </trkpt>
      <trkpt lat="44.31042" lon="5.80748">
        <ele>623</ele>
        <time>2019-03-29T13:09:50Z</time>
      </trkpt>
      <trkpt lat="44.31044" lon="5.80743">
        <ele>623</ele>
        <time>2019-03-29T13:09:51Z</time>
      </trkpt>
      <trkpt lat="44.31046" lon="5.80737">
        <ele>623</ele>
        <time>2019-03-29T13:09:52Z</time>
      </trkpt>
      <trkpt lat="44.31048" lon="5.80732">
        <ele>623</ele>
        <time>2019-03-29T13:09:53Z</time>
      </trkpt>
      <trkpt lat="44.31049" lon="5.80726">
        <ele>623</ele>
        <time>2019-03-29T13:09:54Z</time>
      </trkpt>
      <trkpt lat="44.3105" lon="5.80721">
        <ele>623</ele>
        <time>2019-03-29T13:09:55Z</time>
      </trkpt>
      <trkpt lat="44.31052" lon="5.80716">
        <ele>623</ele>
        <time>2019-03-29T13:09:56Z</time>
      </trkpt>
      <trkpt lat="44.31054" lon="5.8071">
        <ele>623</ele>
        <time>2019-03-29T13:09:57Z</time>
      </trkpt>
      <trkpt lat="44.31055" lon="5.80705">
        <ele>623</ele>
        <time>2019-03-29T13:09:58Z</time>
      </trkpt>
      <trkpt lat="44.31057" lon="5.807">
        <ele>623</ele>
        <time>2019-03-29T13:09:59Z</time>
      </trkpt>
      <trkpt lat="44.31058" lon="5.80695">
        <ele>623</ele>
        <time>2019-03-29T13:10:00Z</time>
      </trkpt>
      <trkpt lat="44.31059" lon="5.8069">
        <ele>624</ele>
        <time>2019-03-29T13:10:01Z</time>
      </trkpt>
      <trkpt lat="44.31061" lon="5.80684">
        <ele>624</ele>
        <time>2019-03-29T13:10:02Z</time>
      </trkpt>
      <trkpt lat="44.31062" lon="5.80679">
        <ele>624</ele>
        <time>2019-03-29T13:10:03Z</time>
      </trkpt>
      <trkpt lat="44.31063" lon="5.80674">
        <ele>624</ele>
        <time>2019-03-29T13:10:04Z</time>
      </trkpt>
      <trkpt lat="44.31065" lon="5.80668">
        <ele>624</ele>
        <time>2019-03-29T13:10:05Z</time>
      </trkpt>
      <trkpt lat="44.31066" lon="5.80662">
        <ele>624</ele>
        <time>2019-03-29T13:10:06Z</time>
      </trkpt>
      <trkpt lat="44.31067" lon="5.80657">
        <ele>624</ele>
        <time>2019-03-29T13:10:07Z</time>
      </trkpt>
      <trkpt lat="44.31069" lon="5.80652">
        <ele>624</ele>
        <time>2019-03-29T13:10:08Z</time>
      </trkpt>
      <trkpt lat="44.3107" lon="5.80646">
        <ele>625</ele>
        <time>2019-03-29T13:10:09Z</time>
      </trkpt>
      <trkpt lat="44.31072" lon="5.80641">
        <ele>625</ele>
        <time>2019-03-29T13:10:10Z</time>
      </trkpt>
      <trkpt lat="44.31074" lon="5.80635">
        <ele>625</ele>
        <time>2019-03-29T13:10:11Z</time>
      </trkpt>
      <trkpt lat="44.31075" lon="5.8063">
        <ele>625</ele>
        <time>2019-03-29T13:10:12Z</time>
      </trkpt>
      <trkpt lat="44.31077" lon="5.80624">
        <ele>625</ele>
        <time>2019-03-29T13:10:13Z</time>
      </trkpt>
      <trkpt lat="44.31078" lon="5.80619">
        <ele>625</ele>
        <time>2019-03-29T13:10:14Z</time>
      </trkpt>
      <trkpt lat="44.3108" lon="5.80613">
        <ele>625</ele>
        <time>2019-03-29T13:10:15Z</time>
      </trkpt>
      <trkpt lat="44.31081" lon="5.80608">
        <ele>625</ele>
        <time>2019-03-29T13:10:16Z</time>
      </trkpt>
      <trkpt lat="44.31083" lon="5.80602">
        <ele>625</ele>
        <time>2019-03-29T13:10:17Z</time>
      </trkpt>
      <trkpt lat="44.31084" lon="5.80595">
        <ele>625</ele>
        <time>2019-03-29T13:10:18Z</time>
      </trkpt>
      <trkpt lat="44.31086" lon="5.80588">
        <ele>625</ele>
        <time>2019-03-29T13:10:19Z</time>
      </trkpt>
      <trkpt lat="44.31087" lon="5.80581">
        <ele>625</ele>
        <time>2019-03-29T13:10:20Z</time>
      </trkpt>
      <trkpt lat="44.31089" lon="5.80573">
        <ele>625</ele>
        <time>2019-03-29T13:10:21Z</time>
      </trkpt>
      <trkpt lat="44.31091" lon="5.80566">
        <ele>625</ele>
        <time>2019-03-29T13:10:22Z</time>
      </trkpt>
      <trkpt lat="44.31093" lon="5.80558">
        <ele>625</ele>
        <time>2019-03-29T13:10:23Z</time>
      </trkpt>
      <trkpt lat="44.31095" lon="5.80549">
        <ele>625</ele>
        <time>2019-03-29T13:10:24Z</time>
      </trkpt>
      <trkpt lat="44.31097" lon="5.80541">
        <ele>625</ele>
        <time>2019-03-29T13:10:25Z</time>
      </trkpt>
      <trkpt lat="44.31099" lon="5.80533">
        <ele>625</ele>
        <time>2019-03-29T13:10:26Z</time>
      </trkpt>
      <trkpt lat="44.31101" lon="5.80525">
        <ele>625</ele>
        <time>2019-03-29T13:10:27Z</time>
      </trkpt>
      <trkpt lat="44.31103" lon="5.80517">
        <ele>625</ele>
        <time>2019-03-29T13:10:28Z</time>
      </trkpt>
      <trkpt lat="44.31105" lon="5.80509">
        <ele>625</ele>
        <time>2019-03-29T13:10:29Z</time>
      </trkpt>
      <trkpt lat="44.31107" lon="5.80502">
        <ele>625</ele>
        <time>2019-03-29T13:10:30Z</time>
      </trkpt>
      <trkpt lat="44.31109" lon="5.80496">
        <ele>625</ele>
        <time>2019-03-29T13:10:31Z</time>
      </trkpt>
      <trkpt lat="44.31111" lon="5.80489">
        <ele>625</ele>
        <time>2019-03-29T13:10:32Z</time>
      </trkpt>
      <trkpt lat="44.31113" lon="5.80483">
        <ele>625</ele>
        <time>2019-03-29T13:10:33Z</time>
      </trkpt>
      <trkpt lat="44.31114" lon="5.80477">
        <ele>625</ele>
        <time>2019-03-29T13:10:34Z</time>
      </trkpt>
      <trkpt lat="44.31115" lon="5.8047">
        <ele>625</ele>
        <time>2019-03-29T13:10:35Z</time>
      </trkpt>
      <trkpt lat="44.31116" lon="5.80463">
        <ele>625</ele>
        <time>2019-03-29T13:10:36Z</time>
      </trkpt>
      <trkpt lat="44.31117" lon="5.80455">
        <ele>625</ele>
        <time>2019-03-29T13:10:37Z</time>
      </trkpt>
      <trkpt lat="44.31117" lon="5.80448">
        <ele>625</ele>
        <time>2019-03-29T13:10:38Z</time>
      </trkpt>
      <trkpt lat="44.31116" lon="5.80441">
        <ele>625</ele>
        <time>2019-03-29T13:10:39Z</time>
      </trkpt>
      <trkpt lat="44.31116" lon="5.80434">
        <ele>625</ele>
        <time>2019-03-29T13:10:40Z</time>
      </trkpt>
      <trkpt lat="44.31115" lon="5.80427">
        <ele>625</ele>
        <time>2019-03-29T13:10:41Z</time>
      </trkpt>
      <trkpt lat="44.31115" lon="5.80419">
        <ele>625</ele>
        <time>2019-03-29T13:10:42Z</time>
      </trkpt>
      <trkpt lat="44.31115" lon="5.80411">
        <ele>625</ele>
        <time>2019-03-29T13:10:43Z</time>
      </trkpt>
      <trkpt lat="44.31114" lon="5.80403">
        <ele>625</ele>
        <time>2019-03-29T13:10:44Z</time>
      </trkpt>
      <trkpt lat="44.31114" lon="5.80396">
        <ele>625</ele>
        <time>2019-03-29T13:10:45Z</time>
      </trkpt>
      <trkpt lat="44.31114" lon="5.80388">
        <ele>625</ele>
        <time>2019-03-29T13:10:46Z</time>
      </trkpt>
      <trkpt lat="44.31114" lon="5.8038">
        <ele>625</ele>
        <time>2019-03-29T13:10:47Z</time>
      </trkpt>
      <trkpt lat="44.31113" lon="5.80372">
        <ele>625</ele>
        <time>2019-03-29T13:10:48Z</time>
      </trkpt>
      <trkpt lat="44.31113" lon="5.80364">
        <ele>625</ele>
        <time>2019-03-29T13:10:49Z</time>
      </trkpt>
      <trkpt lat="44.31113" lon="5.80356">
        <ele>625</ele>
        <time>2019-03-29T13:10:50Z</time>
      </trkpt>
      <trkpt lat="44.31112" lon="5.80348">
        <ele>625</ele>
        <time>2019-03-29T13:10:51Z</time>
      </trkpt>
      <trkpt lat="44.31112" lon="5.80339">
        <ele>625</ele>
        <time>2019-03-29T13:10:52Z</time>
      </trkpt>
      <trkpt lat="44.31112" lon="5.80331">
        <ele>625</ele>
        <time>2019-03-29T13:10:53Z</time>
      </trkpt>
      <trkpt lat="44.31112" lon="5.80322">
        <ele>625</ele>
        <time>2019-03-29T13:10:54Z</time>
      </trkpt>
      <trkpt lat="44.31113" lon="5.80313">
        <ele>625</ele>
        <time>2019-03-29T13:10:55Z</time>
      </trkpt>
      <trkpt lat="44.31115" lon="5.80305">
        <ele>625</ele>
        <time>2019-03-29T13:10:56Z</time>
      </trkpt>
      <trkpt lat="44.31117" lon="5.80296">
        <ele>625</ele>
        <time>2019-03-29T13:10:57Z</time>
      </trkpt>
      <trkpt lat="44.3112" lon="5.80288">
        <ele>625</ele>
        <time>2019-03-29T13:10:58Z</time>
      </trkpt>
      <trkpt lat="44.31123" lon="5.80279">
        <ele>625</ele>
        <time>2019-03-29T13:10:59Z</time>
      </trkpt>
      <trkpt lat="44.31127" lon="5.80271">
        <ele>625</ele>
        <time>2019-03-29T13:11:00Z</time>
      </trkpt>
      <trkpt lat="44.31131" lon="5.80263">
        <ele>625</ele>
        <time>2019-03-29T13:11:01Z</time>
      </trkpt>
      <trkpt lat="44.31135" lon="5.80255">
        <ele>625</ele>
        <time>2019-03-29T13:11:02Z</time>
      </trkpt>
      <trkpt lat="44.31139" lon="5.80247">
        <ele>625</ele>
        <time>2019-03-29T13:11:03Z</time>
      </trkpt>
      <trkpt lat="44.31143" lon="5.80239">
        <ele>625</ele>
        <time>2019-03-29T13:11:04Z</time>
      </trkpt>
      <trkpt lat="44.31147" lon="5.80231">
        <ele>625</ele>
        <time>2019-03-29T13:11:05Z</time>
      </trkpt>
      <trkpt lat="44.31151" lon="5.80223">
        <ele>625</ele>
        <time>2019-03-29T13:11:06Z</time>
      </trkpt>
      <trkpt lat="44.31155" lon="5.80214">
        <ele>625</ele>
        <time>2019-03-29T13:11:07Z</time>
      </trkpt>
      <trkpt lat="44.31158" lon="5.80204">
        <ele>625</ele>
        <time>2019-03-29T13:11:08Z</time>
      </trkpt>
      <trkpt lat="44.31162" lon="5.80194">
        <ele>624</ele>
        <time>2019-03-29T13:11:09Z</time>
      </trkpt>
      <trkpt lat="44.31166" lon="5.80184">
        <ele>624</ele>
        <time>2019-03-29T13:11:10Z</time>
      </trkpt>
      <trkpt lat="44.3117" lon="5.80174">
        <ele>623</ele>
        <time>2019-03-29T13:11:11Z</time>
      </trkpt>
      <trkpt lat="44.31173" lon="5.80162">
        <ele>623</ele>
        <time>2019-03-29T13:11:12Z</time>
      </trkpt>
      <trkpt lat="44.31176" lon="5.80151">
        <ele>623</ele>
        <time>2019-03-29T13:11:13Z</time>
      </trkpt>
      <trkpt lat="44.31179" lon="5.80139">
        <ele>622</ele>
        <time>2019-03-29T13:11:14Z</time>
      </trkpt>
      <trkpt lat="44.31182" lon="5.80128">
        <ele>622</ele>
        <time>2019-03-29T13:11:15Z</time>
      </trkpt>
      <trkpt lat="44.31186" lon="5.80117">
        <ele>621</ele>
        <time>2019-03-29T13:11:16Z</time>
      </trkpt>
      <trkpt lat="44.31191" lon="5.80107">
        <ele>621</ele>
        <time>2019-03-29T13:11:17Z</time>
      </trkpt>
      <trkpt lat="44.31196" lon="5.80098">
        <ele>621</ele>
        <time>2019-03-29T13:11:18Z</time>
      </trkpt>
      <trkpt lat="44.31202" lon="5.80091">
        <ele>621</ele>
        <time>2019-03-29T13:11:19Z</time>
      </trkpt>
      <trkpt lat="44.31207" lon="5.80084">
        <ele>621</ele>
        <time>2019-03-29T13:11:20Z</time>
      </trkpt>
      <trkpt lat="44.31211" lon="5.80077">
        <ele>621</ele>
        <time>2019-03-29T13:11:21Z</time>
      </trkpt>
      <trkpt lat="44.31215" lon="5.80068">
        <ele>621</ele>
        <time>2019-03-29T13:11:22Z</time>
      </trkpt>
      <trkpt lat="44.31218" lon="5.8006">
        <ele>621</ele>
        <time>2019-03-29T13:11:23Z</time>
      </trkpt>
      <trkpt lat="44.31221" lon="5.80052">
        <ele>621</ele>
        <time>2019-03-29T13:11:24Z</time>
      </trkpt>
      <trkpt lat="44.31223" lon="5.80042">
        <ele>621</ele>
        <time>2019-03-29T13:11:25Z</time>
      </trkpt>
      <trkpt lat="44.31224" lon="5.80033">
        <ele>621</ele>
        <time>2019-03-29T13:11:26Z</time>
      </trkpt>
      <trkpt lat="44.31225" lon="5.80023">
        <ele>621</ele>
        <time>2019-03-29T13:11:27Z</time>
      </trkpt>
      <trkpt lat="44.31225" lon="5.80013">
        <ele>621</ele>
        <time>2019-03-29T13:11:28Z</time>
      </trkpt>
      <trkpt lat="44.31226" lon="5.80003">
        <ele>620</ele>
        <time>2019-03-29T13:11:29Z</time>
      </trkpt>
      <trkpt lat="44.31226" lon="5.79993">
        <ele>620</ele>
        <time>2019-03-29T13:11:30Z</time>
      </trkpt>
      <trkpt lat="44.31227" lon="5.79983">
        <ele>620</ele>
        <time>2019-03-29T13:11:31Z</time>
      </trkpt>
      <trkpt lat="44.3123" lon="5.79973">
        <ele>620</ele>
        <time>2019-03-29T13:11:32Z</time>
      </trkpt>
      <trkpt lat="44.31233" lon="5.79963">
        <ele>619</ele>
        <time>2019-03-29T13:11:33Z</time>
      </trkpt>
      <trkpt lat="44.31236" lon="5.79956">
        <ele>619</ele>
        <time>2019-03-29T13:11:34Z</time>
      </trkpt>
      <trkpt lat="44.3124" lon="5.79949">
        <ele>619</ele>
        <time>2019-03-29T13:11:35Z</time>
      </trkpt>
      <trkpt lat="44.31244" lon="5.79944">
        <ele>619</ele>
        <time>2019-03-29T13:11:36Z</time>
      </trkpt>
      <trkpt lat="44.31248" lon="5.79938">
        <ele>619</ele>
        <time>2019-03-29T13:11:37Z</time>
      </trkpt>
      <trkpt lat="44.31252" lon="5.79932">
        <ele>619</ele>
        <time>2019-03-29T13:11:38Z</time>
      </trkpt>
      <trkpt lat="44.31256" lon="5.79927">
        <ele>619</ele>
        <time>2019-03-29T13:11:39Z</time>
      </trkpt>
      <trkpt lat="44.31261" lon="5.79921">
        <ele>619</ele>
        <time>2019-03-29T13:11:40Z</time>
      </trkpt>
      <trkpt lat="44.31266" lon="5.79915">
        <ele>619</ele>
        <time>2019-03-29T13:11:41Z</time>
      </trkpt>
      <trkpt lat="44.3127" lon="5.79909">
        <ele>619</ele>
        <time>2019-03-29T13:11:42Z</time>
      </trkpt>
      <trkpt lat="44.31275" lon="5.79902">
        <ele>619</ele>
        <time>2019-03-29T13:11:43Z</time>
      </trkpt>
      <trkpt lat="44.3128" lon="5.79895">
        <ele>619</ele>
        <time>2019-03-29T13:11:44Z</time>
      </trkpt>
      <trkpt lat="44.31285" lon="5.79888">
        <ele>619</ele>
        <time>2019-03-29T13:11:45Z</time>
      </trkpt>
      <trkpt lat="44.3129" lon="5.79882">
        <ele>619</ele>
        <time>2019-03-29T13:11:46Z</time>
      </trkpt>
      <trkpt lat="44.31295" lon="5.79875">
        <ele>619</ele>
        <time>2019-03-29T13:11:47Z</time>
      </trkpt>
      <trkpt lat="44.313" lon="5.79867">
        <ele>619</ele>
        <time>2019-03-29T13:11:48Z</time>
      </trkpt>
      <trkpt lat="44.31305" lon="5.7986">
        <ele>619</ele>
        <time>2019-03-29T13:11:49Z</time>
      </trkpt>
      <trkpt lat="44.3131" lon="5.79853">
        <ele>619</ele>
        <time>2019-03-29T13:11:50Z</time>
      </trkpt>
      <trkpt lat="44.31314" lon="5.79845">
        <ele>619</ele>
        <time>2019-03-29T13:11:51Z</time>
      </trkpt>
      <trkpt lat="44.31319" lon="5.79838">
        <ele>619</ele>
        <time>2019-03-29T13:11:52Z</time>
      </trkpt>
      <trkpt lat="44.31324" lon="5.79831">
        <ele>619</ele>
        <time>2019-03-29T13:11:53Z</time>
      </trkpt>
      <trkpt lat="44.31328" lon="5.79824">
        <ele>619</ele>
        <time>2019-03-29T13:11:54Z</time>
      </trkpt>
      <trkpt lat="44.31333" lon="5.79817">
        <ele>619</ele>
        <time>2019-03-29T13:11:55Z</time>
      </trkpt>
      <trkpt lat="44.31338" lon="5.7981">
        <ele>619</ele>
        <time>2019-03-29T13:11:56Z</time>
      </trkpt>
      <trkpt lat="44.31342" lon="5.79803">
        <ele>619</ele>
        <time>2019-03-29T13:11:57Z</time>
      </trkpt>
      <trkpt lat="44.31346" lon="5.79796">
        <ele>619</ele>
        <time>2019-03-29T13:11:58Z</time>
      </trkpt>
      <trkpt lat="44.3135" lon="5.79788">
        <ele>619</ele>
        <time>2019-03-29T13:11:59Z</time>
      </trkpt>
      <trkpt lat="44.31355" lon="5.79781">
        <ele>619</ele>
        <time>2019-03-29T13:12:00Z</time>
      </trkpt>
      <trkpt lat="44.31359" lon="5.79774">
        <ele>619</ele>
        <time>2019-03-29T13:12:01Z</time>
      </trkpt>
      <trkpt lat="44.31364" lon="5.79768">
        <ele>619</ele>
        <time>2019-03-29T13:12:02Z</time>
      </trkpt>
      <trkpt lat="44.31368" lon="5.79761">
        <ele>619</ele>
        <time>2019-03-29T13:12:03Z</time>
      </trkpt>
      <trkpt lat="44.31372" lon="5.79754">
        <ele>619</ele>
        <time>2019-03-29T13:12:04Z</time>
      </trkpt>
      <trkpt lat="44.31376" lon="5.79747">
        <ele>619</ele>
        <time>2019-03-29T13:12:05Z</time>
      </trkpt>
      <trkpt lat="44.3138" lon="5.7974">
        <ele>619</ele>
        <time>2019-03-29T13:12:06Z</time>
      </trkpt>
      <trkpt lat="44.31384" lon="5.79733">
        <ele>619</ele>
        <time>2019-03-29T13:12:07Z</time>
      </trkpt>
      <trkpt lat="44.31387" lon="5.79727">
        <ele>619</ele>
        <time>2019-03-29T13:12:08Z</time>
      </trkpt>
      <trkpt lat="44.3139" lon="5.7972">
        <ele>619</ele>
        <time>2019-03-29T13:12:09Z</time>
      </trkpt>
      <trkpt lat="44.31393" lon="5.79713">
        <ele>619</ele>
        <time>2019-03-29T13:12:10Z</time>
      </trkpt>
      <trkpt lat="44.31396" lon="5.79706">
        <ele>619</ele>
        <time>2019-03-29T13:12:11Z</time>
      </trkpt>
      <trkpt lat="44.31398" lon="5.79698">
        <ele>619</ele>
        <time>2019-03-29T13:12:12Z</time>
      </trkpt>
      <trkpt lat="44.31401" lon="5.7969">
        <ele>619</ele>
        <time>2019-03-29T13:12:13Z</time>
      </trkpt>
      <trkpt lat="44.31403" lon="5.79682">
        <ele>619</ele>
        <time>2019-03-29T13:12:14Z</time>
      </trkpt>
      <trkpt lat="44.31405" lon="5.79673">
        <ele>619</ele>
        <time>2019-03-29T13:12:15Z</time>
      </trkpt>
      <trkpt lat="44.31408" lon="5.79664">
        <ele>619</ele>
        <time>2019-03-29T13:12:16Z</time>
      </trkpt>
      <trkpt lat="44.3141" lon="5.79654">
        <ele>618</ele>
        <time>2019-03-29T13:12:17Z</time>
      </trkpt>
      <trkpt lat="44.31412" lon="5.79644">
        <ele>617</ele>
        <time>2019-03-29T13:12:18Z</time>
      </trkpt>
      <trkpt lat="44.31415" lon="5.79634">
        <ele>617</ele>
        <time>2019-03-29T13:12:19Z</time>
      </trkpt>
      <trkpt lat="44.31417" lon="5.79624">
        <ele>616</ele>
        <time>2019-03-29T13:12:20Z</time>
      </trkpt>
      <trkpt lat="44.3142" lon="5.79614">
        <ele>615</ele>
        <time>2019-03-29T13:12:21Z</time>
      </trkpt>
      <trkpt lat="44.31423" lon="5.79605">
        <ele>615</ele>
        <time>2019-03-29T13:12:22Z</time>
      </trkpt>
      <trkpt lat="44.31425" lon="5.79594">
        <ele>614</ele>
        <time>2019-03-29T13:12:23Z</time>
      </trkpt>
      <trkpt lat="44.31428" lon="5.79584">
        <ele>613</ele>
        <time>2019-03-29T13:12:24Z</time>
      </trkpt>
      <trkpt lat="44.3143" lon="5.79573">
        <ele>613</ele>
        <time>2019-03-29T13:12:25Z</time>
      </trkpt>
      <trkpt lat="44.31433" lon="5.79563">
        <ele>612</ele>
        <time>2019-03-29T13:12:26Z</time>
      </trkpt>
      <trkpt lat="44.31436" lon="5.79552">
        <ele>611</ele>
        <time>2019-03-29T13:12:27Z</time>
      </trkpt>
      <trkpt lat="44.3144" lon="5.79541">
        <ele>610</ele>
        <time>2019-03-29T13:12:28Z</time>
      </trkpt>
      <trkpt lat="44.31443" lon="5.7953">
        <ele>610</ele>
        <time>2019-03-29T13:12:29Z</time>
      </trkpt>
      <trkpt lat="44.31446" lon="5.79519">
        <ele>609</ele>
        <time>2019-03-29T13:12:30Z</time>
      </trkpt>
      <trkpt lat="44.31449" lon="5.79507">
        <ele>608</ele>
        <time>2019-03-29T13:12:31Z</time>
      </trkpt>
      <trkpt lat="44.31452" lon="5.79495">
        <ele>608</ele>
        <time>2019-03-29T13:12:32Z</time>
      </trkpt>
      <trkpt lat="44.31454" lon="5.79483">
        <ele>607</ele>
        <time>2019-03-29T13:12:33Z</time>
      </trkpt>
      <trkpt lat="44.31457" lon="5.79471">
        <ele>606</ele>
        <time>2019-03-29T13:12:34Z</time>
      </trkpt>
      <trkpt lat="44.31459" lon="5.79458">
        <ele>605</ele>
        <time>2019-03-29T13:12:35Z</time>
      </trkpt>
      <trkpt lat="44.3146" lon="5.79445">
        <ele>605</ele>
        <time>2019-03-29T13:12:36Z</time>
      </trkpt>
      <trkpt lat="44.31461" lon="5.79433">
        <ele>604</ele>
        <time>2019-03-29T13:12:37Z</time>
      </trkpt>
      <trkpt lat="44.31461" lon="5.7942">
        <ele>603</ele>
        <time>2019-03-29T13:12:38Z</time>
      </trkpt>
      <trkpt lat="44.3146" lon="5.79407">
        <ele>603</ele>
        <time>2019-03-29T13:12:39Z</time>
      </trkpt>
      <trkpt lat="44.31459" lon="5.79394">
        <ele>602</ele>
        <time>2019-03-29T13:12:40Z</time>
      </trkpt>
      <trkpt lat="44.31458" lon="5.79381">
        <ele>601</ele>
        <time>2019-03-29T13:12:41Z</time>
      </trkpt>
      <trkpt lat="44.31457" lon="5.79368">
        <ele>601</ele>
        <time>2019-03-29T13:12:42Z</time>
      </trkpt>
      <trkpt lat="44.31456" lon="5.79355">
        <ele>600</ele>
        <time>2019-03-29T13:12:43Z</time>
      </trkpt>
      <trkpt lat="44.31456" lon="5.79343">
        <ele>599</ele>
        <time>2019-03-29T13:12:44Z</time>
      </trkpt>
      <trkpt lat="44.31456" lon="5.7933">
        <ele>598</ele>
        <time>2019-03-29T13:12:45Z</time>
      </trkpt>
      <trkpt lat="44.31458" lon="5.79317">
        <ele>598</ele>
        <time>2019-03-29T13:12:46Z</time>
      </trkpt>
      <trkpt lat="44.31459" lon="5.79304">
        <ele>597</ele>
        <time>2019-03-29T13:12:47Z</time>
      </trkpt>
      <trkpt lat="44.31462" lon="5.7929">
        <ele>596</ele>
        <time>2019-03-29T13:12:48Z</time>
      </trkpt>
      <trkpt lat="44.31464" lon="5.79277">
        <ele>596</ele>
        <time>2019-03-29T13:12:49Z</time>
      </trkpt>
      <trkpt lat="44.31467" lon="5.79263">
        <ele>595</ele>
        <time>2019-03-29T13:12:50Z</time>
      </trkpt>
      <trkpt lat="44.3147" lon="5.7925">
        <ele>594</ele>
        <time>2019-03-29T13:12:51Z</time>
      </trkpt>
      <trkpt lat="44.31474" lon="5.79238">
        <ele>594</ele>
        <time>2019-03-29T13:12:52Z</time>
      </trkpt>
      <trkpt lat="44.31479" lon="5.79226">
        <ele>593</ele>
        <time>2019-03-29T13:12:53Z</time>
      </trkpt>
      <trkpt lat="44.31484" lon="5.79215">
        <ele>592</ele>
        <time>2019-03-29T13:12:54Z</time>
      </trkpt>
      <trkpt lat="44.3149" lon="5.79205">
        <ele>592</ele>
        <time>2019-03-29T13:12:55Z</time>
      </trkpt>
      <trkpt lat="44.31495" lon="5.79194">
        <ele>591</ele>
        <time>2019-03-29T13:12:56Z</time>
      </trkpt>
      <trkpt lat="44.31501" lon="5.79183">
        <ele>591</ele>
        <time>2019-03-29T13:12:57Z</time>
      </trkpt>
      <trkpt lat="44.31505" lon="5.79171">
        <ele>590</ele>
        <time>2019-03-29T13:12:58Z</time>
      </trkpt>
      <trkpt lat="44.31509" lon="5.79159">
        <ele>590</ele>
        <time>2019-03-29T13:12:59Z</time>
      </trkpt>
      <trkpt lat="44.31514" lon="5.79146">
        <ele>589</ele>
        <time>2019-03-29T13:13:00Z</time>
      </trkpt>
      <trkpt lat="44.31517" lon="5.79134">
        <ele>589</ele>
        <time>2019-03-29T13:13:01Z</time>
      </trkpt>
      <trkpt lat="44.3152" lon="5.79122">
        <ele>589</ele>
        <time>2019-03-29T13:13:02Z</time>
      </trkpt>
      <trkpt lat="44.31524" lon="5.79111">
        <ele>588</ele>
        <time>2019-03-29T13:13:03Z</time>
      </trkpt>
      <trkpt lat="44.31527" lon="5.79099">
        <ele>588</ele>
        <time>2019-03-29T13:13:04Z</time>
      </trkpt>
      <trkpt lat="44.3153" lon="5.79087">
        <ele>588</ele>
        <time>2019-03-29T13:13:05Z</time>
      </trkpt>
      <trkpt lat="44.31533" lon="5.79077">
        <ele>588</ele>
        <time>2019-03-29T13:13:06Z</time>
      </trkpt>
      <trkpt lat="44.31536" lon="5.79066">
        <ele>588</ele>
        <time>2019-03-29T13:13:07Z</time>
      </trkpt>
      <trkpt lat="44.31541" lon="5.79056">
        <ele>588</ele>
        <time>2019-03-29T13:13:08Z</time>
      </trkpt>
      <trkpt lat="44.31544" lon="5.79046">
        <ele>588</ele>
        <time>2019-03-29T13:13:09Z</time>
      </trkpt>
      <trkpt lat="44.31549" lon="5.79037">
        <ele>588</ele>
        <time>2019-03-29T13:13:10Z</time>
      </trkpt>
      <trkpt lat="44.31552" lon="5.79027">
        <ele>588</ele>
        <time>2019-03-29T13:13:11Z</time>
      </trkpt>
      <trkpt lat="44.31556" lon="5.79018">
        <ele>588</ele>
        <time>2019-03-29T13:13:12Z</time>
      </trkpt>
      <trkpt lat="44.31559" lon="5.79009">
        <ele>588</ele>
        <time>2019-03-29T13:13:13Z</time>
      </trkpt>
      <trkpt lat="44.31562" lon="5.79">
        <ele>588</ele>
        <time>2019-03-29T13:13:14Z</time>
      </trkpt>
      <trkpt lat="44.31564" lon="5.7899">
        <ele>588</ele>
        <time>2019-03-29T13:13:15Z</time>
      </trkpt>
      <trkpt lat="44.31566" lon="5.7898">
        <ele>588</ele>
        <time>2019-03-29T13:13:16Z</time>
      </trkpt>
      <trkpt lat="44.31568" lon="5.78971">
        <ele>588</ele>
        <time>2019-03-29T13:13:17Z</time>
      </trkpt>
      <trkpt lat="44.3157" lon="5.78961">
        <ele>588</ele>
        <time>2019-03-29T13:13:18Z</time>
      </trkpt>
      <trkpt lat="44.31571" lon="5.78951">
        <ele>588</ele>
        <time>2019-03-29T13:13:19Z</time>
      </trkpt>
      <trkpt lat="44.31572" lon="5.78942">
        <ele>588</ele>
        <time>2019-03-29T13:13:20Z</time>
      </trkpt>
      <trkpt lat="44.31573" lon="5.78933">
        <ele>588</ele>
        <time>2019-03-29T13:13:21Z</time>
      </trkpt>
      <trkpt lat="44.31574" lon="5.78924">
        <ele>588</ele>
        <time>2019-03-29T13:13:22Z</time>
      </trkpt>
      <trkpt lat="44.31575" lon="5.78915">
        <ele>588</ele>
        <time>2019-03-29T13:13:23Z</time>
      </trkpt>
      <trkpt lat="44.31576" lon="5.78906">
        <ele>588</ele>
        <time>2019-03-29T13:13:24Z</time>
      </trkpt>
      <trkpt lat="44.31577" lon="5.78898">
        <ele>588</ele>
        <time>2019-03-29T13:13:25Z</time>
      </trkpt>
      <trkpt lat="44.31577" lon="5.7889">
        <ele>588</ele>
        <time>2019-03-29T13:13:26Z</time>
      </trkpt>
      <trkpt lat="44.31578" lon="5.78882">
        <ele>588</ele>
        <time>2019-03-29T13:13:27Z</time>
      </trkpt>
      <trkpt lat="44.31579" lon="5.78874">
        <ele>588</ele>
        <time>2019-03-29T13:13:28Z</time>
      </trkpt>
      <trkpt lat="44.3158" lon="5.78866">
        <ele>588</ele>
        <time>2019-03-29T13:13:29Z</time>
      </trkpt>
      <trkpt lat="44.3158" lon="5.78859">
        <ele>588</ele>
        <time>2019-03-29T13:13:30Z</time>
      </trkpt>
      <trkpt lat="44.31581" lon="5.78853">
        <ele>588</ele>
        <time>2019-03-29T13:13:31Z</time>
      </trkpt>
      <trkpt lat="44.31582" lon="5.78847">
        <ele>588</ele>
        <time>2019-03-29T13:13:32Z</time>
      </trkpt>
      <trkpt lat="44.31583" lon="5.78841">
        <ele>588</ele>
        <time>2019-03-29T13:13:33Z</time>
      </trkpt>
      <trkpt lat="44.31584" lon="5.78835">
        <ele>588</ele>
        <time>2019-03-29T13:13:34Z</time>
      </trkpt>
      <trkpt lat="44.31585" lon="5.78829">
        <ele>588</ele>
        <time>2019-03-29T13:13:35Z</time>
      </trkpt>
      <trkpt lat="44.31585" lon="5.78823">
        <ele>588</ele>
        <time>2019-03-29T13:13:36Z</time>
      </trkpt>
      <trkpt lat="44.31586" lon="5.78817">
        <ele>588</ele>
        <time>2019-03-29T13:13:37Z</time>
      </trkpt>
      <trkpt lat="44.31587" lon="5.78811">
        <ele>588</ele>
        <time>2019-03-29T13:13:38Z</time>
      </trkpt>
      <trkpt lat="44.31587" lon="5.78805">
        <ele>588</ele>
        <time>2019-03-29T13:13:39Z</time>
      </trkpt>
      <trkpt lat="44.31587" lon="5.788">
        <ele>588</ele>
        <time>2019-03-29T13:13:40Z</time>
      </trkpt>
      <trkpt lat="44.31588" lon="5.78794">
        <ele>588</ele>
        <time>2019-03-29T13:13:41Z</time>
      </trkpt>
      <trkpt lat="44.31588" lon="5.78788">
        <ele>588</ele>
        <time>2019-03-29T13:13:42Z</time>
      </trkpt>
      <trkpt lat="44.31588" lon="5.78783">
        <ele>588</ele>
        <time>2019-03-29T13:13:43Z</time>
      </trkpt>
      <trkpt lat="44.31589" lon="5.78777">
        <ele>588</ele>
        <time>2019-03-29T13:13:44Z</time>
      </trkpt>
      <trkpt lat="44.3159" lon="5.78771">
        <ele>588</ele>
        <time>2019-03-29T13:13:45Z</time>
      </trkpt>
      <trkpt lat="44.3159" lon="5.78765">
        <ele>588</ele>
        <time>2019-03-29T13:13:46Z</time>
      </trkpt>
      <trkpt lat="44.31591" lon="5.78759">
        <ele>589</ele>
        <time>2019-03-29T13:13:47Z</time>
      </trkpt>
      <trkpt lat="44.31591" lon="5.78754">
        <ele>589</ele>
        <time>2019-03-29T13:13:48Z</time>
      </trkpt>
      <trkpt lat="44.31591" lon="5.78749">
        <ele>589</ele>
        <time>2019-03-29T13:13:49Z</time>
      </trkpt>
      <trkpt lat="44.31591" lon="5.78744">
        <ele>590</ele>
        <time>2019-03-29T13:13:50Z</time>
      </trkpt>
      <trkpt lat="44.31591" lon="5.7874">
        <ele>590</ele>
        <time>2019-03-29T13:13:51Z</time>
      </trkpt>
      <trkpt lat="44.31592" lon="5.78735">
        <ele>591</ele>
        <time>2019-03-29T13:13:52Z</time>
      </trkpt>
      <trkpt lat="44.31592" lon="5.78731">
        <ele>591</ele>
        <time>2019-03-29T13:13:53Z</time>
      </trkpt>
      <trkpt lat="44.31592" lon="5.78727">
        <ele>591</ele>
        <time>2019-03-29T13:13:54Z</time>
      </trkpt>
      <trkpt lat="44.31593" lon="5.78722">
        <ele>591</ele>
        <time>2019-03-29T13:13:55Z</time>
      </trkpt>
      <trkpt lat="44.31593" lon="5.78718">
        <ele>592</ele>
        <time>2019-03-29T13:13:56Z</time>
      </trkpt>
      <trkpt lat="44.31593" lon="5.78713">
        <ele>592</ele>
        <time>2019-03-29T13:13:57Z</time>
      </trkpt>
      <trkpt lat="44.31593" lon="5.78709">
        <ele>592</ele>
        <time>2019-03-29T13:13:58Z</time>
      </trkpt>
      <trkpt lat="44.31593" lon="5.78704">
        <ele>592</ele>
        <time>2019-03-29T13:13:59Z</time>
      </trkpt>
      <trkpt lat="44.31593" lon="5.78699">
        <ele>592</ele>
        <time>2019-03-29T13:14:00Z</time>
      </trkpt>
      <trkpt lat="44.31593" lon="5.78694">
        <ele>593</ele>
        <time>2019-03-29T13:14:01Z</time>
      </trkpt>
      <trkpt lat="44.31593" lon="5.78689">
        <ele>593</ele>
        <time>2019-03-29T13:14:02Z</time>
      </trkpt>
      <trkpt lat="44.31593" lon="5.78683">
        <ele>593</ele>
        <time>2019-03-29T13:14:03Z</time>
      </trkpt>
      <trkpt lat="44.31593" lon="5.78677">
        <ele>593</ele>
        <time>2019-03-29T13:14:04Z</time>
      </trkpt>
      <trkpt lat="44.31593" lon="5.78671">
        <ele>594</ele>
        <time>2019-03-29T13:14:05Z</time>
      </trkpt>
      <trkpt lat="44.31593" lon="5.78665">
        <ele>594</ele>
        <time>2019-03-29T13:14:06Z</time>
      </trkpt>
      <trkpt lat="44.31593" lon="5.78659">
        <ele>594</ele>
        <time>2019-03-29T13:14:07Z</time>
      </trkpt>
      <trkpt lat="44.31593" lon="5.78653">
        <ele>594</ele>
        <time>2019-03-29T13:14:08Z</time>
      </trkpt>
      <trkpt lat="44.31593" lon="5.78648">
        <ele>594</ele>
        <time>2019-03-29T13:14:09Z</time>
      </trkpt>
      <trkpt lat="44.31593" lon="5.78642">
        <ele>594</ele>
        <time>2019-03-29T13:14:10Z</time>
      </trkpt>
      <trkpt lat="44.31593" lon="5.78637">
        <ele>595</ele>
        <time>2019-03-29T13:14:11Z</time>
      </trkpt>
      <trkpt lat="44.31594" lon="5.78631">
        <ele>595</ele>
        <time>2019-03-29T13:14:12Z</time>
      </trkpt>
      <trkpt lat="44.31594" lon="5.78625">
        <ele>596</ele>
        <time>2019-03-29T13:14:13Z</time>
      </trkpt>
      <trkpt lat="44.31594" lon="5.7862">
        <ele>596</ele>
        <time>2019-03-29T13:14:14Z</time>
      </trkpt>
      <trkpt lat="44.31594" lon="5.78614">
        <ele>597</ele>
        <time>2019-03-29T13:14:15Z</time>
      </trkpt>
      <trkpt lat="44.31594" lon="5.78609">
        <ele>597</ele>
        <time>2019-03-29T13:14:16Z</time>
      </trkpt>
      <trkpt lat="44.31595" lon="5.78604">
        <ele>597</ele>
        <time>2019-03-29T13:14:17Z</time>
      </trkpt>
      <trkpt lat="44.31596" lon="5.786">
        <ele>598</ele>
        <time>2019-03-29T13:14:18Z</time>
      </trkpt>
      <trkpt lat="44.31596" lon="5.78595">
        <ele>598</ele>
        <time>2019-03-29T13:14:19Z</time>
      </trkpt>
      <trkpt lat="44.31598" lon="5.7859">
        <ele>598</ele>
        <time>2019-03-29T13:14:20Z</time>
      </trkpt>
      <trkpt lat="44.31599" lon="5.78585">
        <ele>599</ele>
        <time>2019-03-29T13:14:21Z</time>
      </trkpt>
      <trkpt lat="44.31601" lon="5.7858">
        <ele>599</ele>
        <time>2019-03-29T13:14:22Z</time>
      </trkpt>
      <trkpt lat="44.31603" lon="5.78574">
        <ele>599</ele>
        <time>2019-03-29T13:14:23Z</time>
      </trkpt>
      <trkpt lat="44.31606" lon="5.78568">
        <ele>599</ele>
        <time>2019-03-29T13:14:24Z</time>
      </trkpt>
      <trkpt lat="44.3161" lon="5.78562">
        <ele>599</ele>
        <time>2019-03-29T13:14:25Z</time>
      </trkpt>
      <trkpt lat="44.31615" lon="5.78557">
        <ele>599</ele>
        <time>2019-03-29T13:14:26Z</time>
      </trkpt>
      <trkpt lat="44.3162" lon="5.78553">
        <ele>599</ele>
        <time>2019-03-29T13:14:27Z</time>
      </trkpt>
      <trkpt lat="44.31627" lon="5.78549">
        <ele>599</ele>
        <time>2019-03-29T13:14:28Z</time>
      </trkpt>
      <trkpt lat="44.31633" lon="5.78546">
        <ele>599</ele>
        <time>2019-03-29T13:14:29Z</time>
      </trkpt>
      <trkpt lat="44.31641" lon="5.78542">
        <ele>599</ele>
        <time>2019-03-29T13:14:30Z</time>
      </trkpt>
      <trkpt lat="44.31648" lon="5.78539">
        <ele>599</ele>
        <time>2019-03-29T13:14:31Z</time>
      </trkpt>
      <trkpt lat="44.31656" lon="5.78536">
        <ele>599</ele>
        <time>2019-03-29T13:14:32Z</time>
      </trkpt>
      <trkpt lat="44.31664" lon="5.78532">
        <ele>599</ele>
        <time>2019-03-29T13:14:33Z</time>
      </trkpt>
      <trkpt lat="44.31672" lon="5.78529">
        <ele>599</ele>
        <time>2019-03-29T13:14:34Z</time>
      </trkpt>
      <trkpt lat="44.3168" lon="5.78525">
        <ele>599</ele>
        <time>2019-03-29T13:14:35Z</time>
      </trkpt>
      <trkpt lat="44.31688" lon="5.78522">
        <ele>599</ele>
        <time>2019-03-29T13:14:36Z</time>
      </trkpt>
      <trkpt lat="44.31696" lon="5.78518">
        <ele>599</ele>
        <time>2019-03-29T13:14:37Z</time>
      </trkpt>
      <trkpt lat="44.31704" lon="5.78514">
        <ele>599</ele>
        <time>2019-03-29T13:14:38Z</time>
      </trkpt>
      <trkpt lat="44.31712" lon="5.7851">
        <ele>599</ele>
        <time>2019-03-29T13:14:39Z</time>
      </trkpt>
      <trkpt lat="44.3172" lon="5.78506">
        <ele>599</ele>
        <time>2019-03-29T13:14:40Z</time>
      </trkpt>
      <trkpt lat="44.31728" lon="5.78501">
        <ele>599</ele>
        <time>2019-03-29T13:14:41Z</time>
      </trkpt>
      <trkpt lat="44.31735" lon="5.78495">
        <ele>599</ele>
        <time>2019-03-29T13:14:42Z</time>
      </trkpt>
      <trkpt lat="44.31741" lon="5.78488">
        <ele>599</ele>
        <time>2019-03-29T13:14:43Z</time>
      </trkpt>
      <trkpt lat="44.31747" lon="5.78481">
        <ele>599</ele>
        <time>2019-03-29T13:14:44Z</time>
      </trkpt>
      <trkpt lat="44.31752" lon="5.78473">
        <ele>599</ele>
        <time>2019-03-29T13:14:45Z</time>
      </trkpt>
      <trkpt lat="44.31757" lon="5.78465">
        <ele>599</ele>
        <time>2019-03-29T13:14:46Z</time>
      </trkpt>
      <trkpt lat="44.31761" lon="5.78458">
        <ele>599</ele>
        <time>2019-03-29T13:14:47Z</time>
      </trkpt>
      <trkpt lat="44.31765" lon="5.7845">
        <ele>599</ele>
        <time>2019-03-29T13:14:48Z</time>
      </trkpt>
      <trkpt lat="44.31769" lon="5.78443">
        <ele>599</ele>
        <time>2019-03-29T13:14:49Z</time>
      </trkpt>
      <trkpt lat="44.31773" lon="5.78437">
        <ele>599</ele>
        <time>2019-03-29T13:14:50Z</time>
      </trkpt>
      <trkpt lat="44.31776" lon="5.7843">
        <ele>599</ele>
        <time>2019-03-29T13:14:51Z</time>
      </trkpt>
      <trkpt lat="44.3178" lon="5.78424">
        <ele>599</ele>
        <time>2019-03-29T13:14:52Z</time>
      </trkpt>
      <trkpt lat="44.31783" lon="5.78418">
        <ele>599</ele>
        <time>2019-03-29T13:14:53Z</time>
      </trkpt>
      <trkpt lat="44.31786" lon="5.78412">
        <ele>599</ele>
        <time>2019-03-29T13:14:54Z</time>
      </trkpt>
      <trkpt lat="44.31789" lon="5.78406">
        <ele>599</ele>
        <time>2019-03-29T13:14:55Z</time>
      </trkpt>
      <trkpt lat="44.31793" lon="5.78399">
        <ele>599</ele>
        <time>2019-03-29T13:14:56Z</time>
      </trkpt>
      <trkpt lat="44.31797" lon="5.78393">
        <ele>599</ele>
        <time>2019-03-29T13:14:57Z</time>
      </trkpt>
      <trkpt lat="44.318" lon="5.78387">
        <ele>599</ele>
        <time>2019-03-29T13:14:58Z</time>
      </trkpt>
      <trkpt lat="44.31804" lon="5.78379">
        <ele>599</ele>
        <time>2019-03-29T13:14:59Z</time>
      </trkpt>
      <trkpt lat="44.31807" lon="5.78372">
        <ele>599</ele>
        <time>2019-03-29T13:15:00Z</time>
      </trkpt>
      <trkpt lat="44.3181" lon="5.78363">
        <ele>599</ele>
        <time>2019-03-29T13:15:01Z</time>
      </trkpt>
      <trkpt lat="44.31814" lon="5.78354">
        <ele>599</ele>
        <time>2019-03-29T13:15:02Z</time>
      </trkpt>
      <trkpt lat="44.31816" lon="5.78343">
        <ele>599</ele>
        <time>2019-03-29T13:15:03Z</time>
      </trkpt>
      <trkpt lat="44.31817" lon="5.78332">
        <ele>599</ele>
        <time>2019-03-29T13:15:04Z</time>
      </trkpt>
      <trkpt lat="44.31816" lon="5.7832">
        <ele>599</ele>
        <time>2019-03-29T13:15:05Z</time>
      </trkpt>
      <trkpt lat="44.31815" lon="5.78308">
        <ele>599</ele>
        <time>2019-03-29T13:15:06Z</time>
      </trkpt>
      <trkpt lat="44.31814" lon="5.78297">
        <ele>598</ele>
        <time>2019-03-29T13:15:07Z</time>
      </trkpt>
      <trkpt lat="44.31814" lon="5.78287">
        <ele>597</ele>
        <time>2019-03-29T13:15:08Z</time>
      </trkpt>
      <trkpt lat="44.31816" lon="5.78278">
        <ele>596</ele>
        <time>2019-03-29T13:15:09Z</time>
      </trkpt>
      <trkpt lat="44.3182" lon="5.78271">
        <ele>596</ele>
        <time>2019-03-29T13:15:10Z</time>
      </trkpt>
      <trkpt lat="44.31824" lon="5.78267">
        <ele>595</ele>
        <time>2019-03-29T13:15:11Z</time>
      </trkpt>
      <trkpt lat="44.3183" lon="5.78265">
        <ele>595</ele>
        <time>2019-03-29T13:15:12Z</time>
      </trkpt>
      <trkpt lat="44.31836" lon="5.78266">
        <ele>595</ele>
        <time>2019-03-29T13:15:13Z</time>
      </trkpt>
      <trkpt lat="44.31841" lon="5.78269">
        <ele>595</ele>
        <time>2019-03-29T13:15:14Z</time>
      </trkpt>
      <trkpt lat="44.31847" lon="5.78272">
        <ele>595</ele>
        <time>2019-03-29T13:15:15Z</time>
      </trkpt>
      <trkpt lat="44.31852" lon="5.78275">
        <ele>595</ele>
        <time>2019-03-29T13:15:16Z</time>
      </trkpt>
      <trkpt lat="44.31857" lon="5.78277">
        <ele>595</ele>
        <time>2019-03-29T13:15:17Z</time>
      </trkpt>
      <trkpt lat="44.31861" lon="5.78279">
        <ele>595</ele>
        <time>2019-03-29T13:15:18Z</time>
      </trkpt>
      <trkpt lat="44.31865" lon="5.78282">
        <ele>595</ele>
        <time>2019-03-29T13:15:19Z</time>
      </trkpt>
      <trkpt lat="44.31869" lon="5.78284">
        <ele>595</ele>
        <time>2019-03-29T13:15:20Z</time>
      </trkpt>
      <trkpt lat="44.31873" lon="5.78285">
        <ele>595</ele>
        <time>2019-03-29T13:15:21Z</time>
      </trkpt>
      <trkpt lat="44.31877" lon="5.78286">
        <ele>595</ele>
        <time>2019-03-29T13:15:22Z</time>
      </trkpt>
      <trkpt lat="44.31882" lon="5.78288">
        <ele>595</ele>
        <time>2019-03-29T13:15:23Z</time>
      </trkpt>
      <trkpt lat="44.31887" lon="5.7829">
        <ele>595</ele>
        <time>2019-03-29T13:15:24Z</time>
      </trkpt>
      <trkpt lat="44.31891" lon="5.78293">
        <ele>595</ele>
        <time>2019-03-29T13:15:25Z</time>
      </trkpt>
      <trkpt lat="44.31895" lon="5.78296">
        <ele>595</ele>
        <time>2019-03-29T13:15:26Z</time>
      </trkpt>
      <trkpt lat="44.31899" lon="5.78298">
        <ele>595</ele>
        <time>2019-03-29T13:15:27Z</time>
      </trkpt>
      <trkpt lat="44.31903" lon="5.78301">
        <ele>595</ele>
        <time>2019-03-29T13:15:28Z</time>
      </trkpt>
      <trkpt lat="44.31907" lon="5.78304">
        <ele>595</ele>
        <time>2019-03-29T13:15:29Z</time>
      </trkpt>
      <trkpt lat="44.3191" lon="5.78306">
        <ele>595</ele>
        <time>2019-03-29T13:15:30Z</time>
      </trkpt>
      <trkpt lat="44.31914" lon="5.78308">
        <ele>596</ele>
        <time>2019-03-29T13:15:31Z</time>
      </trkpt>
      <trkpt lat="44.31918" lon="5.7831">
        <ele>596</ele>
        <time>2019-03-29T13:15:32Z</time>
      </trkpt>
      <trkpt lat="44.31922" lon="5.78312">
        <ele>596</ele>
        <time>2019-03-29T13:15:33Z</time>
      </trkpt>
      <trkpt lat="44.31926" lon="5.78313">
        <ele>596</ele>
        <time>2019-03-29T13:15:34Z</time>
      </trkpt>
      <trkpt lat="44.31929" lon="5.78314">
        <ele>596</ele>
        <time>2019-03-29T13:15:35Z</time>
      </trkpt>
      <trkpt lat="44.31934" lon="5.78312">
        <ele>597</ele>
        <time>2019-03-29T13:15:36Z</time>
      </trkpt>
      <trkpt lat="44.31939" lon="5.78311">
        <ele>597</ele>
        <time>2019-03-29T13:15:37Z</time>
      </trkpt>
      <trkpt lat="44.31944" lon="5.7831">
        <ele>598</ele>
        <time>2019-03-29T13:15:38Z</time>
      </trkpt>
      <trkpt lat="44.31948" lon="5.78308">
        <ele>598</ele>
        <time>2019-03-29T13:15:39Z</time>
      </trkpt>
      <trkpt lat="44.31953" lon="5.78307">
        <ele>598</ele>
        <time>2019-03-29T13:15:40Z</time>
      </trkpt>
      <trkpt lat="44.31957" lon="5.78304">
        <ele>599</ele>
        <time>2019-03-29T13:15:41Z</time>
      </trkpt>
      <trkpt lat="44.31961" lon="5.78301">
        <ele>599</ele>
        <time>2019-03-29T13:15:42Z</time>
      </trkpt>
      <trkpt lat="44.31964" lon="5.78298">
        <ele>599</ele>
        <time>2019-03-29T13:15:43Z</time>
      </trkpt>
      <trkpt lat="44.31968" lon="5.78295">
        <ele>599</ele>
        <time>2019-03-29T13:15:44Z</time>
      </trkpt>
      <trkpt lat="44.31972" lon="5.78292">
        <ele>600</ele>
        <time>2019-03-29T13:15:45Z</time>
      </trkpt>
      <trkpt lat="44.31976" lon="5.78289">
        <ele>600</ele>
        <time>2019-03-29T13:15:46Z</time>
      </trkpt>
      <trkpt lat="44.3198" lon="5.78286">
        <ele>600</ele>
        <time>2019-03-29T13:15:47Z</time>
      </trkpt>
      <trkpt lat="44.31984" lon="5.78283">
        <ele>600</ele>
        <time>2019-03-29T13:15:48Z</time>
      </trkpt>
      <trkpt lat="44.31989" lon="5.78279">
        <ele>600</ele>
        <time>2019-03-29T13:15:49Z</time>
      </trkpt>
      <trkpt lat="44.31993" lon="5.78276">
        <ele>600</ele>
        <time>2019-03-29T13:15:50Z</time>
      </trkpt>
      <trkpt lat="44.31998" lon="5.78272">
        <ele>600</ele>
        <time>2019-03-29T13:15:51Z</time>
      </trkpt>
      <trkpt lat="44.32002" lon="5.78268">
        <ele>600</ele>
        <time>2019-03-29T13:15:52Z</time>
      </trkpt>
      <trkpt lat="44.32007" lon="5.78264">
        <ele>600</ele>
        <time>2019-03-29T13:15:53Z</time>
      </trkpt>
      <trkpt lat="44.32012" lon="5.7826">
        <ele>600</ele>
        <time>2019-03-29T13:15:54Z</time>
      </trkpt>
      <trkpt lat="44.32016" lon="5.78256">
        <ele>600</ele>
        <time>2019-03-29T13:15:55Z</time>
      </trkpt>
      <trkpt lat="44.32021" lon="5.78251">
        <ele>600</ele>
        <time>2019-03-29T13:15:56Z</time>
      </trkpt>
      <trkpt lat="44.32026" lon="5.78247">
        <ele>600</ele>
        <time>2019-03-29T13:15:57Z</time>
      </trkpt>
      <trkpt lat="44.3203" lon="5.78242">
        <ele>600</ele>
        <time>2019-03-29T13:15:58Z</time>
      </trkpt>
      <trkpt lat="44.32035" lon="5.78238">
        <ele>600</ele>
        <time>2019-03-29T13:15:59Z</time>
      </trkpt>
      <trkpt lat="44.3204" lon="5.78233">
        <ele>600</ele>
        <time>2019-03-29T13:16:00Z</time>
      </trkpt>
      <trkpt lat="44.32045" lon="5.78228">
        <ele>600</ele>
        <time>2019-03-29T13:16:01Z</time>
      </trkpt>
      <trkpt lat="44.32049" lon="5.78223">
        <ele>600</ele>
        <time>2019-03-29T13:16:02Z</time>
      </trkpt>
      <trkpt lat="44.32054" lon="5.78218">
        <ele>600</ele>
        <time>2019-03-29T13:16:03Z</time>
      </trkpt>
      <trkpt lat="44.32058" lon="5.78214">
        <ele>600</ele>
        <time>2019-03-29T13:16:04Z</time>
      </trkpt>
      <trkpt lat="44.32063" lon="5.78209">
        <ele>600</ele>
        <time>2019-03-29T13:16:05Z</time>
      </trkpt>
      <trkpt lat="44.32067" lon="5.78204">
        <ele>600</ele>
        <time>2019-03-29T13:16:06Z</time>
      </trkpt>
      <trkpt lat="44.32072" lon="5.782">
        <ele>600</ele>
        <time>2019-03-29T13:16:07Z</time>
      </trkpt>
      <trkpt lat="44.32076" lon="5.78195">
        <ele>600</ele>
        <time>2019-03-29T13:16:08Z</time>
      </trkpt>
      <trkpt lat="44.3208" lon="5.78191">
        <ele>600</ele>
        <time>2019-03-29T13:16:09Z</time>
      </trkpt>
      <trkpt lat="44.32084" lon="5.78187">
        <ele>600</ele>
        <time>2019-03-29T13:16:10Z</time>
      </trkpt>
      <trkpt lat="44.32088" lon="5.78182">
        <ele>600</ele>
        <time>2019-03-29T13:16:11Z</time>
      </trkpt>
      <trkpt lat="44.32092" lon="5.78177">
        <ele>600</ele>
        <time>2019-03-29T13:16:12Z</time>
      </trkpt>
      <trkpt lat="44.32096" lon="5.78173">
        <ele>600</ele>
        <time>2019-03-29T13:16:13Z</time>
      </trkpt>
      <trkpt lat="44.321" lon="5.78169">
        <ele>600</ele>
        <time>2019-03-29T13:16:14Z</time>
      </trkpt>
      <trkpt lat="44.32104" lon="5.78165">
        <ele>600</ele>
        <time>2019-03-29T13:16:15Z</time>
      </trkpt>
      <trkpt lat="44.32108" lon="5.78161">
        <ele>600</ele>
        <time>2019-03-29T13:16:16Z</time>
      </trkpt>
      <trkpt lat="44.32112" lon="5.78158">
        <ele>600</ele>
        <time>2019-03-29T13:16:17Z</time>
      </trkpt>
      <trkpt lat="44.32116" lon="5.78154">
        <ele>600</ele>
        <time>2019-03-29T13:16:18Z</time>
      </trkpt>
      <trkpt lat="44.32121" lon="5.78149">
        <ele>600</ele>
        <time>2019-03-29T13:16:19Z</time>
      </trkpt>
      <trkpt lat="44.32125" lon="5.78145">
        <ele>600</ele>
        <time>2019-03-29T13:16:20Z</time>
      </trkpt>
      <trkpt lat="44.32129" lon="5.7814">
        <ele>600</ele>
        <time>2019-03-29T13:16:21Z</time>
      </trkpt>
      <trkpt lat="44.32133" lon="5.78136">
        <ele>600</ele>
        <time>2019-03-29T13:16:22Z</time>
      </trkpt>
      <trkpt lat="44.32138" lon="5.78132">
        <ele>600</ele>
        <time>2019-03-29T13:16:23Z</time>
      </trkpt>
      <trkpt lat="44.32142" lon="5.78128">
        <ele>600</ele>
        <time>2019-03-29T13:16:24Z</time>
      </trkpt>
      <trkpt lat="44.32146" lon="5.78124">
        <ele>600</ele>
        <time>2019-03-29T13:16:25Z</time>
      </trkpt>
      <trkpt lat="44.32151" lon="5.78119">
        <ele>600</ele>
        <time>2019-03-29T13:16:26Z</time>
      </trkpt>
      <trkpt lat="44.32156" lon="5.78115">
        <ele>600</ele>
        <time>2019-03-29T13:16:27Z</time>
      </trkpt>
      <trkpt lat="44.3216" lon="5.7811">
        <ele>600</ele>
        <time>2019-03-29T13:16:28Z</time>
      </trkpt>
      <trkpt lat="44.32165" lon="5.78106">
        <ele>600</ele>
        <time>2019-03-29T13:16:29Z</time>
      </trkpt>
      <trkpt lat="44.32169" lon="5.78101">
        <ele>600</ele>
        <time>2019-03-29T13:16:30Z</time>
      </trkpt>
      <trkpt lat="44.32174" lon="5.78097">
        <ele>600</ele>
        <time>2019-03-29T13:16:31Z</time>
      </trkpt>
      <trkpt lat="44.32179" lon="5.78093">
        <ele>600</ele>
        <time>2019-03-29T13:16:32Z</time>
      </trkpt>
      <trkpt lat="44.32184" lon="5.78089">
        <ele>600</ele>
        <time>2019-03-29T13:16:33Z</time>
      </trkpt>
      <trkpt lat="44.32189" lon="5.78086">
        <ele>600</ele>
        <time>2019-03-29T13:16:34Z</time>
      </trkpt>
      <trkpt lat="44.32194" lon="5.78082">
        <ele>600</ele>
        <time>2019-03-29T13:16:35Z</time>
      </trkpt>
      <trkpt lat="44.32199" lon="5.78079">
        <ele>600</ele>
        <time>2019-03-29T13:16:36Z</time>
      </trkpt>
      <trkpt lat="44.32204" lon="5.78075">
        <ele>600</ele>
        <time>2019-03-29T13:16:37Z</time>
      </trkpt>
      <trkpt lat="44.32209" lon="5.78071">
        <ele>600</ele>
        <time>2019-03-29T13:16:38Z</time>
      </trkpt>
      <trkpt lat="44.32215" lon="5.78068">
        <ele>600</ele>
        <time>2019-03-29T13:16:39Z</time>
      </trkpt>
      <trkpt lat="44.3222" lon="5.78065">
        <ele>600</ele>
        <time>2019-03-29T13:16:40Z</time>
      </trkpt>
      <trkpt lat="44.32226" lon="5.78062">
        <ele>600</ele>
        <time>2019-03-29T13:16:41Z</time>
      </trkpt>
      <trkpt lat="44.32232" lon="5.78058">
        <ele>600</ele>
        <time>2019-03-29T13:16:42Z</time>
      </trkpt>
      <trkpt lat="44.32237" lon="5.78055">
        <ele>600</ele>
        <time>2019-03-29T13:16:43Z</time>
      </trkpt>
      <trkpt lat="44.32243" lon="5.78051">
        <ele>600</ele>
        <time>2019-03-29T13:16:44Z</time>
      </trkpt>
      <trkpt lat="44.32249" lon="5.78048">
        <ele>600</ele>
        <time>2019-03-29T13:16:45Z</time>
      </trkpt>
      <trkpt lat="44.32255" lon="5.78044">
        <ele>600</ele>
        <time>2019-03-29T13:16:46Z</time>
      </trkpt>
      <trkpt lat="44.3226" lon="5.7804">
        <ele>600</ele>
        <time>2019-03-29T13:16:47Z</time>
      </trkpt>
      <trkpt lat="44.32266" lon="5.78036">
        <ele>600</ele>
        <time>2019-03-29T13:16:48Z</time>
      </trkpt>
      <trkpt lat="44.32272" lon="5.78033">
        <ele>600</ele>
        <time>2019-03-29T13:16:49Z</time>
      </trkpt>
      <trkpt lat="44.32279" lon="5.78029">
        <ele>600</ele>
        <time>2019-03-29T13:16:50Z</time>
      </trkpt>
      <trkpt lat="44.32285" lon="5.78025">
        <ele>600</ele>
        <time>2019-03-29T13:16:51Z</time>
      </trkpt>
      <trkpt lat="44.32291" lon="5.78021">
        <ele>600</ele>
        <time>2019-03-29T13:16:52Z</time>
      </trkpt>
      <trkpt lat="44.32298" lon="5.78018">
        <ele>600</ele>
        <time>2019-03-29T13:16:53Z</time>
      </trkpt>
      <trkpt lat="44.32304" lon="5.78013">
        <ele>600</ele>
        <time>2019-03-29T13:16:54Z</time>
      </trkpt>
      <trkpt lat="44.3231" lon="5.7801">
        <ele>600</ele>
        <time>2019-03-29T13:16:55Z</time>
      </trkpt>
      <trkpt lat="44.32316" lon="5.78006">
        <ele>600</ele>
        <time>2019-03-29T13:16:56Z</time>
      </trkpt>
      <trkpt lat="44.32322" lon="5.78002">
        <ele>600</ele>
        <time>2019-03-29T13:16:57Z</time>
      </trkpt>
      <trkpt lat="44.32329" lon="5.77998">
        <ele>600</ele>
        <time>2019-03-29T13:16:58Z</time>
      </trkpt>
      <trkpt lat="44.32336" lon="5.77994">
        <ele>600</ele>
        <time>2019-03-29T13:16:59Z</time>
      </trkpt>
      <trkpt lat="44.32342" lon="5.7799">
        <ele>600</ele>
        <time>2019-03-29T13:17:00Z</time>
      </trkpt>
      <trkpt lat="44.32349" lon="5.77985">
        <ele>600</ele>
        <time>2019-03-29T13:17:01Z</time>
      </trkpt>
      <trkpt lat="44.32355" lon="5.77982">
        <ele>600</ele>
        <time>2019-03-29T13:17:02Z</time>
      </trkpt>
      <trkpt lat="44.32362" lon="5.77978">
        <ele>600</ele>
        <time>2019-03-29T13:17:03Z</time>
      </trkpt>
      <trkpt lat="44.32368" lon="5.77974">
        <ele>600</ele>
        <time>2019-03-29T13:17:04Z</time>
      </trkpt>
      <trkpt lat="44.32375" lon="5.7797">
        <ele>600</ele>
        <time>2019-03-29T13:17:05Z</time>
      </trkpt>
      <trkpt lat="44.32382" lon="5.77967">
        <ele>600</ele>
        <time>2019-03-29T13:17:06Z</time>
      </trkpt>
      <trkpt lat="44.32388" lon="5.77963">
        <ele>600</ele>
        <time>2019-03-29T13:17:07Z</time>
      </trkpt>
      <trkpt lat="44.32395" lon="5.77959">
        <ele>600</ele>
        <time>2019-03-29T13:17:08Z</time>
      </trkpt>
      <trkpt lat="44.32401" lon="5.77955">
        <ele>600</ele>
        <time>2019-03-29T13:17:09Z</time>
      </trkpt>
      <trkpt lat="44.32408" lon="5.77951">
        <ele>600</ele>
        <time>2019-03-29T13:17:10Z</time>
      </trkpt>
      <trkpt lat="44.32414" lon="5.77947">
        <ele>600</ele>
        <time>2019-03-29T13:17:11Z</time>
      </trkpt>
      <trkpt lat="44.32421" lon="5.77944">
        <ele>600</ele>
        <time>2019-03-29T13:17:12Z</time>
      </trkpt>
      <trkpt lat="44.32427" lon="5.7794">
        <ele>600</ele>
        <time>2019-03-29T13:17:13Z</time>
      </trkpt>
      <trkpt lat="44.32434" lon="5.77936">
        <ele>600</ele>
        <time>2019-03-29T13:17:14Z</time>
      </trkpt>
      <trkpt lat="44.3244" lon="5.77931">
        <ele>600</ele>
        <time>2019-03-29T13:17:15Z</time>
      </trkpt>
      <trkpt lat="44.32447" lon="5.77927">
        <ele>600</ele>
        <time>2019-03-29T13:17:16Z</time>
      </trkpt>
      <trkpt lat="44.32453" lon="5.77923">
        <ele>600</ele>
        <time>2019-03-29T13:17:17Z</time>
      </trkpt>
      <trkpt lat="44.3246" lon="5.77918">
        <ele>600</ele>
        <time>2019-03-29T13:17:18Z</time>
      </trkpt>
      <trkpt lat="44.32466" lon="5.77913">
        <ele>600</ele>
        <time>2019-03-29T13:17:19Z</time>
      </trkpt>
      <trkpt lat="44.32473" lon="5.77909">
        <ele>600</ele>
        <time>2019-03-29T13:17:20Z</time>
      </trkpt>
      <trkpt lat="44.32479" lon="5.77904">
        <ele>600</ele>
        <time>2019-03-29T13:17:21Z</time>
      </trkpt>
      <trkpt lat="44.32485" lon="5.77899">
        <ele>600</ele>
        <time>2019-03-29T13:17:22Z</time>
      </trkpt>
      <trkpt lat="44.32491" lon="5.77893">
        <ele>600</ele>
        <time>2019-03-29T13:17:23Z</time>
      </trkpt>
      <trkpt lat="44.32497" lon="5.77888">
        <ele>600</ele>
        <time>2019-03-29T13:17:24Z</time>
      </trkpt>
      <trkpt lat="44.32502" lon="5.77882">
        <ele>600</ele>
        <time>2019-03-29T13:17:25Z</time>
      </trkpt>
      <trkpt lat="44.32508" lon="5.77877">
        <ele>600</ele>
        <time>2019-03-29T13:17:26Z</time>
      </trkpt>
      <trkpt lat="44.32514" lon="5.77872">
        <ele>600</ele>
        <time>2019-03-29T13:17:27Z</time>
      </trkpt>
      <trkpt lat="44.3252" lon="5.77866">
        <ele>600</ele>
        <time>2019-03-29T13:17:28Z</time>
      </trkpt>
      <trkpt lat="44.32526" lon="5.77861">
        <ele>600</ele>
        <time>2019-03-29T13:17:29Z</time>
      </trkpt>
      <trkpt lat="44.32532" lon="5.77855">
        <ele>600</ele>
        <time>2019-03-29T13:17:30Z</time>
      </trkpt>
      <trkpt lat="44.32538" lon="5.7785">
        <ele>600</ele>
        <time>2019-03-29T13:17:31Z</time>
      </trkpt>
      <trkpt lat="44.32544" lon="5.77844">
        <ele>600</ele>
        <time>2019-03-29T13:17:32Z</time>
      </trkpt>
      <trkpt lat="44.32551" lon="5.77838">
        <ele>600</ele>
        <time>2019-03-29T13:17:33Z</time>
      </trkpt>
      <trkpt lat="44.32557" lon="5.77832">
        <ele>600</ele>
        <time>2019-03-29T13:17:34Z</time>
      </trkpt>
      <trkpt lat="44.32564" lon="5.77826">
        <ele>600</ele>
        <time>2019-03-29T13:17:35Z</time>
      </trkpt>
      <trkpt lat="44.32571" lon="5.77821">
        <ele>599</ele>
        <time>2019-03-29T13:17:36Z</time>
      </trkpt>
      <trkpt lat="44.32577" lon="5.77815">
        <ele>599</ele>
        <time>2019-03-29T13:17:37Z</time>
      </trkpt>
      <trkpt lat="44.32584" lon="5.77809">
        <ele>599</ele>
        <time>2019-03-29T13:17:38Z</time>
      </trkpt>
      <trkpt lat="44.3259" lon="5.77804">
        <ele>599</ele>
        <time>2019-03-29T13:17:39Z</time>
      </trkpt>
      <trkpt lat="44.32597" lon="5.77799">
        <ele>599</ele>
        <time>2019-03-29T13:17:40Z</time>
      </trkpt>
      <trkpt lat="44.32604" lon="5.77794">
        <ele>599</ele>
        <time>2019-03-29T13:17:41Z</time>
      </trkpt>
      <trkpt lat="44.3261" lon="5.77788">
        <ele>599</ele>
        <time>2019-03-29T13:17:42Z</time>
      </trkpt>
      <trkpt lat="44.32616" lon="5.77783">
        <ele>599</ele>
        <time>2019-03-29T13:17:43Z</time>
      </trkpt>
      <trkpt lat="44.32622" lon="5.77776">
        <ele>599</ele>
        <time>2019-03-29T13:17:44Z</time>
      </trkpt>
      <trkpt lat="44.32628" lon="5.7777">
        <ele>599</ele>
        <time>2019-03-29T13:17:45Z</time>
      </trkpt>
      <trkpt lat="44.32633" lon="5.77763">
        <ele>599</ele>
        <time>2019-03-29T13:17:46Z</time>
      </trkpt>
      <trkpt lat="44.32637" lon="5.77755">
        <ele>599</ele>
        <time>2019-03-29T13:17:47Z</time>
      </trkpt>
      <trkpt lat="44.32642" lon="5.77747">
        <ele>599</ele>
        <time>2019-03-29T13:17:48Z</time>
      </trkpt>
      <trkpt lat="44.32646" lon="5.77739">
        <ele>599</ele>
        <time>2019-03-29T13:17:49Z</time>
      </trkpt>
      <trkpt lat="44.3265" lon="5.77731">
        <ele>599</ele>
        <time>2019-03-29T13:17:50Z</time>
      </trkpt>
      <trkpt lat="44.32654" lon="5.77723">
        <ele>599</ele>
        <time>2019-03-29T13:17:51Z</time>
      </trkpt>
      <trkpt lat="44.32658" lon="5.77714">
        <ele>599</ele>
        <time>2019-03-29T13:17:52Z</time>
      </trkpt>
      <trkpt lat="44.32662" lon="5.77705">
        <ele>599</ele>
        <time>2019-03-29T13:17:53Z</time>
      </trkpt>
      <trkpt lat="44.32665" lon="5.77697">
        <ele>599</ele>
        <time>2019-03-29T13:17:54Z</time>
      </trkpt>
      <trkpt lat="44.32668" lon="5.77688">
        <ele>599</ele>
        <time>2019-03-29T13:17:55Z</time>
      </trkpt>
      <trkpt lat="44.32671" lon="5.77678">
        <ele>599</ele>
        <time>2019-03-29T13:17:56Z</time>
      </trkpt>
      <trkpt lat="44.32673" lon="5.77669">
        <ele>599</ele>
        <time>2019-03-29T13:17:57Z</time>
      </trkpt>
      <trkpt lat="44.32675" lon="5.77659">
        <ele>599</ele>
        <time>2019-03-29T13:17:58Z</time>
      </trkpt>
      <trkpt lat="44.32677" lon="5.7765">
        <ele>599</ele>
        <time>2019-03-29T13:17:59Z</time>
      </trkpt>
      <trkpt lat="44.32679" lon="5.7764">
        <ele>599</ele>
        <time>2019-03-29T13:18:00Z</time>
      </trkpt>
      <trkpt lat="44.32682" lon="5.7763">
        <ele>599</ele>
        <time>2019-03-29T13:18:01Z</time>
      </trkpt>
      <trkpt lat="44.32685" lon="5.77621">
        <ele>599</ele>
        <time>2019-03-29T13:18:02Z</time>
      </trkpt>
      <trkpt lat="44.32689" lon="5.77613">
        <ele>599</ele>
        <time>2019-03-29T13:18:03Z</time>
      </trkpt>
      <trkpt lat="44.32695" lon="5.77607">
        <ele>599</ele>
        <time>2019-03-29T13:18:04Z</time>
      </trkpt>
      <trkpt lat="44.32701" lon="5.77602">
        <ele>599</ele>
        <time>2019-03-29T13:18:05Z</time>
      </trkpt>
      <trkpt lat="44.32708" lon="5.77599">
        <ele>599</ele>
        <time>2019-03-29T13:18:06Z</time>
      </trkpt>
      <trkpt lat="44.32716" lon="5.77597">
        <ele>599</ele>
        <time>2019-03-29T13:18:07Z</time>
      </trkpt>
      <trkpt lat="44.32723" lon="5.77595">
        <ele>599</ele>
        <time>2019-03-29T13:18:08Z</time>
      </trkpt>
      <trkpt lat="44.3273" lon="5.77593">
        <ele>599</ele>
        <time>2019-03-29T13:18:09Z</time>
      </trkpt>
      <trkpt lat="44.32737" lon="5.7759">
        <ele>599</ele>
        <time>2019-03-29T13:18:10Z</time>
      </trkpt>
      <trkpt lat="44.32743" lon="5.77588">
        <ele>599</ele>
        <time>2019-03-29T13:18:11Z</time>
      </trkpt>
      <trkpt lat="44.3275" lon="5.77585">
        <ele>599</ele>
        <time>2019-03-29T13:18:12Z</time>
      </trkpt>
      <trkpt lat="44.32757" lon="5.77583">
        <ele>599</ele>
        <time>2019-03-29T13:18:13Z</time>
      </trkpt>
      <trkpt lat="44.32763" lon="5.7758">
        <ele>599</ele>
        <time>2019-03-29T13:18:14Z</time>
      </trkpt>
      <trkpt lat="44.3277" lon="5.77578">
        <ele>599</ele>
        <time>2019-03-29T13:18:15Z</time>
      </trkpt>
      <trkpt lat="44.32776" lon="5.77577">
        <ele>599</ele>
        <time>2019-03-29T13:18:16Z</time>
      </trkpt>
      <trkpt lat="44.32783" lon="5.77577">
        <ele>599</ele>
        <time>2019-03-29T13:18:17Z</time>
      </trkpt>
      <trkpt lat="44.3279" lon="5.77578">
        <ele>599</ele>
        <time>2019-03-29T13:18:18Z</time>
      </trkpt>
      <trkpt lat="44.32796" lon="5.77579">
        <ele>599</ele>
        <time>2019-03-29T13:18:19Z</time>
      </trkpt>
      <trkpt lat="44.32803" lon="5.77582">
        <ele>599</ele>
        <time>2019-03-29T13:18:20Z</time>
      </trkpt>
      <trkpt lat="44.32811" lon="5.77585">
        <ele>599</ele>
        <time>2019-03-29T13:18:21Z</time>
      </trkpt>
      <trkpt lat="44.32818" lon="5.77588">
        <ele>599</ele>
        <time>2019-03-29T13:18:22Z</time>
      </trkpt>
      <trkpt lat="44.32826" lon="5.77591">
        <ele>599</ele>
        <time>2019-03-29T13:18:23Z</time>
      </trkpt>
      <trkpt lat="44.32833" lon="5.77592">
        <ele>599</ele>
        <time>2019-03-29T13:18:24Z</time>
      </trkpt>
      <trkpt lat="44.32841" lon="5.77593">
        <ele>599</ele>
        <time>2019-03-29T13:18:25Z</time>
      </trkpt>
      <trkpt lat="44.32849" lon="5.77593">
        <ele>599</ele>
        <time>2019-03-29T13:18:26Z</time>
      </trkpt>
      <trkpt lat="44.32856" lon="5.77594">
        <ele>599</ele>
        <time>2019-03-29T13:18:27Z</time>
      </trkpt>
      <trkpt lat="44.32864" lon="5.77594">
        <ele>599</ele>
        <time>2019-03-29T13:18:28Z</time>
      </trkpt>
      <trkpt lat="44.32871" lon="5.77594">
        <ele>599</ele>
        <time>2019-03-29T13:18:29Z</time>
      </trkpt>
      <trkpt lat="44.32879" lon="5.77595">
        <ele>599</ele>
        <time>2019-03-29T13:18:30Z</time>
      </trkpt>
      <trkpt lat="44.32886" lon="5.77596">
        <ele>599</ele>
        <time>2019-03-29T13:18:31Z</time>
      </trkpt>
      <trkpt lat="44.32893" lon="5.77596">
        <ele>599</ele>
        <time>2019-03-29T13:18:32Z</time>
      </trkpt>
      <trkpt lat="44.329" lon="5.77597">
        <ele>599</ele>
        <time>2019-03-29T13:18:33Z</time>
      </trkpt>
      <trkpt lat="44.32907" lon="5.77597">
        <ele>599</ele>
        <time>2019-03-29T13:18:34Z</time>
      </trkpt>
      <trkpt lat="44.32914" lon="5.77597">
        <ele>599</ele>
        <time>2019-03-29T13:18:35Z</time>
      </trkpt>
      <trkpt lat="44.32921" lon="5.77598">
        <ele>599</ele>
        <time>2019-03-29T13:18:36Z</time>
      </trkpt>
      <trkpt lat="44.32927" lon="5.77598">
        <ele>599</ele>
        <time>2019-03-29T13:18:37Z</time>
      </trkpt>
      <trkpt lat="44.32934" lon="5.77598">
        <ele>599</ele>
        <time>2019-03-29T13:18:38Z</time>
      </trkpt>
      <trkpt lat="44.32941" lon="5.77598">
        <ele>599</ele>
        <time>2019-03-29T13:18:39Z</time>
      </trkpt>
      <trkpt lat="44.32948" lon="5.77599">
        <ele>599</ele>
        <time>2019-03-29T13:18:40Z</time>
      </trkpt>
      <trkpt lat="44.32955" lon="5.77599">
        <ele>599</ele>
        <time>2019-03-29T13:18:41Z</time>
      </trkpt>
      <trkpt lat="44.32962" lon="5.77599">
        <ele>599</ele>
        <time>2019-03-29T13:18:42Z</time>
      </trkpt>
      <trkpt lat="44.32969" lon="5.776">
        <ele>599</ele>
        <time>2019-03-29T13:18:43Z</time>
      </trkpt>
      <trkpt lat="44.32976" lon="5.776">
        <ele>598</ele>
        <time>2019-03-29T13:18:44Z</time>
      </trkpt>
      <trkpt lat="44.32983" lon="5.776">
        <ele>598</ele>
        <time>2019-03-29T13:18:45Z</time>
      </trkpt>
      <trkpt lat="44.3299" lon="5.776">
        <ele>598</ele>
        <time>2019-03-29T13:18:46Z</time>
      </trkpt>
      <trkpt lat="44.32997" lon="5.776">
        <ele>598</ele>
        <time>2019-03-29T13:18:47Z</time>
      </trkpt>
      <trkpt lat="44.33004" lon="5.77599">
        <ele>598</ele>
        <time>2019-03-29T13:18:48Z</time>
      </trkpt>
      <trkpt lat="44.33012" lon="5.77598">
        <ele>598</ele>
        <time>2019-03-29T13:18:49Z</time>
      </trkpt>
      <trkpt lat="44.33019" lon="5.77598">
        <ele>597</ele>
        <time>2019-03-29T13:18:50Z</time>
      </trkpt>
      <trkpt lat="44.33027" lon="5.77597">
        <ele>597</ele>
        <time>2019-03-29T13:18:51Z</time>
      </trkpt>
      <trkpt lat="44.33035" lon="5.77597">
        <ele>597</ele>
        <time>2019-03-29T13:18:52Z</time>
      </trkpt>
      <trkpt lat="44.33044" lon="5.77597">
        <ele>597</ele>
        <time>2019-03-29T13:18:53Z</time>
      </trkpt>
      <trkpt lat="44.33052" lon="5.77597">
        <ele>596</ele>
        <time>2019-03-29T13:18:54Z</time>
      </trkpt>
      <trkpt lat="44.3306" lon="5.77597">
        <ele>596</ele>
        <time>2019-03-29T13:18:55Z</time>
      </trkpt>
      <trkpt lat="44.33069" lon="5.77598">
        <ele>596</ele>
        <time>2019-03-29T13:18:56Z</time>
      </trkpt>
      <trkpt lat="44.33077" lon="5.77598">
        <ele>596</ele>
        <time>2019-03-29T13:18:57Z</time>
      </trkpt>
      <trkpt lat="44.33085" lon="5.77598">
        <ele>596</ele>
        <time>2019-03-29T13:18:58Z</time>
      </trkpt>
      <trkpt lat="44.33093" lon="5.77597">
        <ele>596</ele>
        <time>2019-03-29T13:18:59Z</time>
      </trkpt>
      <trkpt lat="44.33101" lon="5.77597">
        <ele>596</ele>
        <time>2019-03-29T13:19:00Z</time>
      </trkpt>
      <trkpt lat="44.33108" lon="5.77596">
        <ele>595</ele>
        <time>2019-03-29T13:19:01Z</time>
      </trkpt>
      <trkpt lat="44.33115" lon="5.77595">
        <ele>595</ele>
        <time>2019-03-29T13:19:02Z</time>
      </trkpt>
      <trkpt lat="44.33122" lon="5.77593">
        <ele>595</ele>
        <time>2019-03-29T13:19:03Z</time>
      </trkpt>
      <trkpt lat="44.33129" lon="5.7759">
        <ele>595</ele>
        <time>2019-03-29T13:19:04Z</time>
      </trkpt>
      <trkpt lat="44.33135" lon="5.77587">
        <ele>595</ele>
        <time>2019-03-29T13:19:05Z</time>
      </trkpt>
      <trkpt lat="44.33142" lon="5.77584">
        <ele>595</ele>
        <time>2019-03-29T13:19:06Z</time>
      </trkpt>
      <trkpt lat="44.33148" lon="5.7758">
        <ele>595</ele>
        <time>2019-03-29T13:19:07Z</time>
      </trkpt>
      <trkpt lat="44.33154" lon="5.77577">
        <ele>595</ele>
        <time>2019-03-29T13:19:08Z</time>
      </trkpt>
      <trkpt lat="44.33159" lon="5.77573">
        <ele>595</ele>
        <time>2019-03-29T13:19:09Z</time>
      </trkpt>
      <trkpt lat="44.33165" lon="5.77569">
        <ele>595</ele>
        <time>2019-03-29T13:19:10Z</time>
      </trkpt>
      <trkpt lat="44.3317" lon="5.77565">
        <ele>595</ele>
        <time>2019-03-29T13:19:11Z</time>
      </trkpt>
      <trkpt lat="44.33176" lon="5.77561">
        <ele>595</ele>
        <time>2019-03-29T13:19:12Z</time>
      </trkpt>
      <trkpt lat="44.33182" lon="5.77557">
        <ele>595</ele>
        <time>2019-03-29T13:19:13Z</time>
      </trkpt>
      <trkpt lat="44.33188" lon="5.77553">
        <ele>595</ele>
        <time>2019-03-29T13:19:14Z</time>
      </trkpt>
      <trkpt lat="44.33194" lon="5.77547">
        <ele>595</ele>
        <time>2019-03-29T13:19:15Z</time>
      </trkpt>
      <trkpt lat="44.33199" lon="5.77541">
        <ele>595</ele>
        <time>2019-03-29T13:19:16Z</time>
      </trkpt>
      <trkpt lat="44.33205" lon="5.77535">
        <ele>595</ele>
        <time>2019-03-29T13:19:17Z</time>
      </trkpt>
      <trkpt lat="44.3321" lon="5.77529">
        <ele>595</ele>
        <time>2019-03-29T13:19:18Z</time>
      </trkpt>
      <trkpt lat="44.33215" lon="5.77523">
        <ele>595</ele>
        <time>2019-03-29T13:19:19Z</time>
      </trkpt>
      <trkpt lat="44.33221" lon="5.77518">
        <ele>595</ele>
        <time>2019-03-29T13:19:20Z</time>
      </trkpt>
      <trkpt lat="44.33227" lon="5.77514">
        <ele>595</ele>
        <time>2019-03-29T13:19:21Z</time>
      </trkpt>
      <trkpt lat="44.33233" lon="5.7751">
        <ele>595</ele>
        <time>2019-03-29T13:19:22Z</time>
      </trkpt>
      <trkpt lat="44.33239" lon="5.77508">
        <ele>595</ele>
        <time>2019-03-29T13:19:23Z</time>
      </trkpt>
      <trkpt lat="44.33246" lon="5.77505">
        <ele>595</ele>
        <time>2019-03-29T13:19:24Z</time>
      </trkpt>
      <trkpt lat="44.33253" lon="5.77504">
        <ele>595</ele>
        <time>2019-03-29T13:19:25Z</time>
      </trkpt>
      <trkpt lat="44.33259" lon="5.77502">
        <ele>595</ele>
        <time>2019-03-29T13:19:26Z</time>
      </trkpt>
      <trkpt lat="44.33266" lon="5.77501">
        <ele>595</ele>
        <time>2019-03-29T13:19:27Z</time>
      </trkpt>
      <trkpt lat="44.33273" lon="5.77501">
        <ele>595</ele>
        <time>2019-03-29T13:19:28Z</time>
      </trkpt>
      <trkpt lat="44.3328" lon="5.775">
        <ele>595</ele>
        <time>2019-03-29T13:19:29Z</time>
      </trkpt>
      <trkpt lat="44.33286" lon="5.775">
        <ele>595</ele>
        <time>2019-03-29T13:19:30Z</time>
      </trkpt>
      <trkpt lat="44.33293" lon="5.775">
        <ele>595</ele>
        <time>2019-03-29T13:19:31Z</time>
      </trkpt>
      <trkpt lat="44.33299" lon="5.775">
        <ele>595</ele>
        <time>2019-03-29T13:19:32Z</time>
      </trkpt>
      <trkpt lat="44.33306" lon="5.775">
        <ele>595</ele>
        <time>2019-03-29T13:19:33Z</time>
      </trkpt>
      <trkpt lat="44.33312" lon="5.775">
        <ele>595</ele>
        <time>2019-03-29T13:19:34Z</time>
      </trkpt>
      <trkpt lat="44.33318" lon="5.775">
        <ele>595</ele>
        <time>2019-03-29T13:19:35Z</time>
      </trkpt>
      <trkpt lat="44.33324" lon="5.775">
        <ele>595</ele>
        <time>2019-03-29T13:19:36Z</time>
      </trkpt>
      <trkpt lat="44.33329" lon="5.775">
        <ele>595</ele>
        <time>2019-03-29T13:19:37Z</time>
      </trkpt>
      <trkpt lat="44.33334" lon="5.775">
        <ele>595</ele>
        <time>2019-03-29T13:19:38Z</time>
      </trkpt>
      <trkpt lat="44.33339" lon="5.775">
        <ele>595</ele>
        <time>2019-03-29T13:19:38Z</time>
      </trkpt>
      <trkpt lat="44.33345" lon="5.77501">
        <ele>595</ele>
        <time>2019-03-29T13:19:40Z</time>
      </trkpt>
      <trkpt lat="44.3335" lon="5.77502">
        <ele>595</ele>
        <time>2019-03-29T13:19:41Z</time>
      </trkpt>
      <trkpt lat="44.33356" lon="5.77503">
        <ele>595</ele>
        <time>2019-03-29T13:19:42Z</time>
      </trkpt>
      <trkpt lat="44.33361" lon="5.77503">
        <ele>595</ele>
        <time>2019-03-29T13:19:43Z</time>
      </trkpt>
      <trkpt lat="44.33367" lon="5.77503">
        <ele>595</ele>
        <time>2019-03-29T13:19:44Z</time>
      </trkpt>
      <trkpt lat="44.33372" lon="5.77503">
        <ele>595</ele>
        <time>2019-03-29T13:19:45Z</time>
      </trkpt>
      <trkpt lat="44.33376" lon="5.77503">
        <ele>595</ele>
        <time>2019-03-29T13:19:46Z</time>
      </trkpt>
      <trkpt lat="44.33382" lon="5.77503">
        <ele>595</ele>
        <time>2019-03-29T13:19:47Z</time>
      </trkpt>
      <trkpt lat="44.33386" lon="5.77504">
        <ele>595</ele>
        <time>2019-03-29T13:19:48Z</time>
      </trkpt>
      <trkpt lat="44.33391" lon="5.77505">
        <ele>595</ele>
        <time>2019-03-29T13:19:48Z</time>
      </trkpt>
      <trkpt lat="44.33396" lon="5.77506">
        <ele>595</ele>
        <time>2019-03-29T13:19:50Z</time>
      </trkpt>
      <trkpt lat="44.33401" lon="5.77506">
        <ele>595</ele>
        <time>2019-03-29T13:19:51Z</time>
      </trkpt>
      <trkpt lat="44.33406" lon="5.77507">
        <ele>595</ele>
        <time>2019-03-29T13:19:52Z</time>
      </trkpt>
      <trkpt lat="44.33412" lon="5.77508">
        <ele>595</ele>
        <time>2019-03-29T13:19:53Z</time>
      </trkpt>
      <trkpt lat="44.33418" lon="5.77509">
        <ele>595</ele>
        <time>2019-03-29T13:19:54Z</time>
      </trkpt>
      <trkpt lat="44.33424" lon="5.7751">
        <ele>595</ele>
        <time>2019-03-29T13:19:55Z</time>
      </trkpt>
      <trkpt lat="44.3343" lon="5.77512">
        <ele>595</ele>
        <time>2019-03-29T13:19:56Z</time>
      </trkpt>
      <trkpt lat="44.33437" lon="5.77513">
        <ele>595</ele>
        <time>2019-03-29T13:19:57Z</time>
      </trkpt>
      <trkpt lat="44.33443" lon="5.77515">
        <ele>595</ele>
        <time>2019-03-29T13:19:58Z</time>
      </trkpt>
      <trkpt lat="44.33449" lon="5.77517">
        <ele>595</ele>
        <time>2019-03-29T13:19:59Z</time>
      </trkpt>
      <trkpt lat="44.33456" lon="5.77518">
        <ele>595</ele>
        <time>2019-03-29T13:20:00Z</time>
      </trkpt>
      <trkpt lat="44.33462" lon="5.7752">
        <ele>595</ele>
        <time>2019-03-29T13:20:01Z</time>
      </trkpt>
      <trkpt lat="44.33469" lon="5.77521">
        <ele>595</ele>
        <time>2019-03-29T13:20:02Z</time>
      </trkpt>
      <trkpt lat="44.33476" lon="5.77522">
        <ele>595</ele>
        <time>2019-03-29T13:20:03Z</time>
      </trkpt>
      <trkpt lat="44.33483" lon="5.77523">
        <ele>595</ele>
        <time>2019-03-29T13:20:04Z</time>
      </trkpt>
      <trkpt lat="44.3349" lon="5.77525">
        <ele>595</ele>
        <time>2019-03-29T13:20:05Z</time>
      </trkpt>
      <trkpt lat="44.33496" lon="5.77527">
        <ele>595</ele>
        <time>2019-03-29T13:20:06Z</time>
      </trkpt>
      <trkpt lat="44.33503" lon="5.77528">
        <ele>595</ele>
        <time>2019-03-29T13:20:07Z</time>
      </trkpt>
      <trkpt lat="44.3351" lon="5.77529">
        <ele>595</ele>
        <time>2019-03-29T13:20:08Z</time>
      </trkpt>
      <trkpt lat="44.33516" lon="5.7753">
        <ele>595</ele>
        <time>2019-03-29T13:20:08Z</time>
      </trkpt>
      <trkpt lat="44.33523" lon="5.77531">
        <ele>595</ele>
        <time>2019-03-29T13:20:09Z</time>
      </trkpt>
      <trkpt lat="44.33529" lon="5.77532">
        <ele>595</ele>
        <time>2019-03-29T13:20:10Z</time>
      </trkpt>
      <trkpt lat="44.33535" lon="5.77534">
        <ele>595</ele>
        <time>2019-03-29T13:20:12Z</time>
      </trkpt>
      <trkpt lat="44.33541" lon="5.77535">
        <ele>595</ele>
        <time>2019-03-29T13:20:12Z</time>
      </trkpt>
      <trkpt lat="44.33546" lon="5.77536">
        <ele>595</ele>
        <time>2019-03-29T13:20:13Z</time>
      </trkpt>
      <trkpt lat="44.33551" lon="5.77537">
        <ele>595</ele>
        <time>2019-03-29T13:20:14Z</time>
      </trkpt>
      <trkpt lat="44.33556" lon="5.77538">
        <ele>596</ele>
        <time>2019-03-29T13:20:16Z</time>
      </trkpt>
      <trkpt lat="44.33561" lon="5.7754">
        <ele>596</ele>
        <time>2019-03-29T13:20:17Z</time>
      </trkpt>
      <trkpt lat="44.33565" lon="5.7754">
        <ele>597</ele>
        <time>2019-03-29T13:20:17Z</time>
      </trkpt>
      <trkpt lat="44.3357" lon="5.77541">
        <ele>597</ele>
        <time>2019-03-29T13:20:18Z</time>
      </trkpt>
      <trkpt lat="44.33575" lon="5.77541">
        <ele>598</ele>
        <time>2019-03-29T13:20:19Z</time>
      </trkpt>
      <trkpt lat="44.33579" lon="5.7754">
        <ele>598</ele>
        <time>2019-03-29T13:20:20Z</time>
      </trkpt>
      <trkpt lat="44.33583" lon="5.77539">
        <ele>599</ele>
        <time>2019-03-29T13:20:22Z</time>
      </trkpt>
      <trkpt lat="44.33588" lon="5.77536">
        <ele>599</ele>
        <time>2019-03-29T13:20:23Z</time>
      </trkpt>
      <trkpt lat="44.33591" lon="5.77534">
        <ele>599</ele>
        <time>2019-03-29T13:20:23Z</time>
      </trkpt>
      <trkpt lat="44.33594" lon="5.7753">
        <ele>599</ele>
        <time>2019-03-29T13:20:25Z</time>
      </trkpt>
      <trkpt lat="44.33597" lon="5.77527">
        <ele>600</ele>
        <time>2019-03-29T13:20:26Z</time>
      </trkpt>
      <trkpt lat="44.336" lon="5.77523">
        <ele>600</ele>
        <time>2019-03-29T13:20:27Z</time>
      </trkpt>
      <trkpt lat="44.33603" lon="5.7752">
        <ele>600</ele>
        <time>2019-03-29T13:20:28Z</time>
      </trkpt>
      <trkpt lat="44.33606" lon="5.77516">
        <ele>600</ele>
        <time>2019-03-29T13:20:29Z</time>
      </trkpt>
      <trkpt lat="44.33609" lon="5.77513">
        <ele>601</ele>
        <time>2019-03-29T13:20:30Z</time>
      </trkpt>
      <trkpt lat="44.33613" lon="5.7751">
        <ele>601</ele>
        <time>2019-03-29T13:20:31Z</time>
      </trkpt>
      <trkpt lat="44.33616" lon="5.77508">
        <ele>601</ele>
        <time>2019-03-29T13:20:32Z</time>
      </trkpt>
      <trkpt lat="44.3362" lon="5.77506">
        <ele>601</ele>
        <time>2019-03-29T13:20:33Z</time>
      </trkpt>
      <trkpt lat="44.33623" lon="5.77506">
        <ele>601</ele>
        <time>2019-03-29T13:20:33Z</time>
      </trkpt>
      <trkpt lat="44.33626" lon="5.77506">
        <ele>602</ele>
        <time>2019-03-29T13:20:34Z</time>
      </trkpt>
      <trkpt lat="44.3363" lon="5.77506">
        <ele>602</ele>
        <time>2019-03-29T13:20:35Z</time>
      </trkpt>
      <trkpt lat="44.33633" lon="5.77507">
        <ele>602</ele>
        <time>2019-03-29T13:20:37Z</time>
      </trkpt>
      <trkpt lat="44.33636" lon="5.77508">
        <ele>603</ele>
        <time>2019-03-29T13:20:37Z</time>
      </trkpt>
      <trkpt lat="44.33639" lon="5.7751">
        <ele>603</ele>
        <time>2019-03-29T13:20:38Z</time>
      </trkpt>
      <trkpt lat="44.33642" lon="5.77511">
        <ele>603</ele>
        <time>2019-03-29T13:20:40Z</time>
      </trkpt>
      <trkpt lat="44.33646" lon="5.77513">
        <ele>603</ele>
        <time>2019-03-29T13:20:40Z</time>
      </trkpt>
      <trkpt lat="44.33649" lon="5.77514">
        <ele>604</ele>
        <time>2019-03-29T13:20:41Z</time>
      </trkpt>
      <trkpt lat="44.33652" lon="5.77515">
        <ele>604</ele>
        <time>2019-03-29T13:20:43Z</time>
      </trkpt>
      <trkpt lat="44.33655" lon="5.77517">
        <ele>604</ele>
        <time>2019-03-29T13:20:43Z</time>
      </trkpt>
      <trkpt lat="44.33658" lon="5.77518">
        <ele>604</ele>
        <time>2019-03-29T13:20:44Z</time>
      </trkpt>
      <trkpt lat="44.33661" lon="5.77519">
        <ele>605</ele>
        <time>2019-03-29T13:20:45Z</time>
      </trkpt>
      <trkpt lat="44.33664" lon="5.7752">
        <ele>605</ele>
        <time>2019-03-29T13:20:46Z</time>
      </trkpt>
      <trkpt lat="44.33667" lon="5.77521">
        <ele>605</ele>
        <time>2019-03-29T13:20:48Z</time>
      </trkpt>
      <trkpt lat="44.3367" lon="5.77522">
        <ele>606</ele>
        <time>2019-03-29T13:20:48Z</time>
      </trkpt>
      <trkpt lat="44.33672" lon="5.77524">
        <ele>606</ele>
        <time>2019-03-29T13:20:49Z</time>
      </trkpt>
      <trkpt lat="44.33675" lon="5.77525">
        <ele>606</ele>
        <time>2019-03-29T13:20:50Z</time>
      </trkpt>
      <trkpt lat="44.33678" lon="5.77527">
        <ele>606</ele>
        <time>2019-03-29T13:20:52Z</time>
      </trkpt>
      <trkpt lat="44.33681" lon="5.77528">
        <ele>607</ele>
        <time>2019-03-29T13:20:53Z</time>
      </trkpt>
      <trkpt lat="44.33684" lon="5.77529">
        <ele>607</ele>
        <time>2019-03-29T13:20:53Z</time>
      </trkpt>
      <trkpt lat="44.33687" lon="5.7753">
        <ele>607</ele>
        <time>2019-03-29T13:20:54Z</time>
      </trkpt>
      <trkpt lat="44.3369" lon="5.77531">
        <ele>607</ele>
        <time>2019-03-29T13:20:56Z</time>
      </trkpt>
      <trkpt lat="44.33693" lon="5.77532">
        <ele>607</ele>
        <time>2019-03-29T13:20:56Z</time>
      </trkpt>
      <trkpt lat="44.33696" lon="5.77533">
        <ele>607</ele>
        <time>2019-03-29T13:20:57Z</time>
      </trkpt>
      <trkpt lat="44.33699" lon="5.77533">
        <ele>607</ele>
        <time>2019-03-29T13:20:59Z</time>
      </trkpt>
      <trkpt lat="44.33702" lon="5.77534">
        <ele>607</ele>
        <time>2019-03-29T13:20:59Z</time>
      </trkpt>
      <trkpt lat="44.33705" lon="5.77535">
        <ele>607</ele>
        <time>2019-03-29T13:21:00Z</time>
      </trkpt>
      <trkpt lat="44.33708" lon="5.77535">
        <ele>607</ele>
        <time>2019-03-29T13:21:01Z</time>
      </trkpt>
      <trkpt lat="44.33711" lon="5.77536">
        <ele>607</ele>
        <time>2019-03-29T13:21:02Z</time>
      </trkpt>
      <trkpt lat="44.33714" lon="5.77537">
        <ele>608</ele>
        <time>2019-03-29T13:21:03Z</time>
      </trkpt>
      <trkpt lat="44.33717" lon="5.77538">
        <ele>608</ele>
        <time>2019-03-29T13:21:05Z</time>
      </trkpt>
      <trkpt lat="44.3372" lon="5.7754">
        <ele>608</ele>
        <time>2019-03-29T13:21:05Z</time>
      </trkpt>
      <trkpt lat="44.33723" lon="5.77542">
        <ele>609</ele>
        <time>2019-03-29T13:21:06Z</time>
      </trkpt>
      <trkpt lat="44.33725" lon="5.77543">
        <ele>609</ele>
        <time>2019-03-29T13:21:07Z</time>
      </trkpt>
      <trkpt lat="44.33728" lon="5.77545">
        <ele>609</ele>
        <time>2019-03-29T13:21:08Z</time>
      </trkpt>
      <trkpt lat="44.3373" lon="5.77546">
        <ele>610</ele>
        <time>2019-03-29T13:21:10Z</time>
      </trkpt>
      <trkpt lat="44.33733" lon="5.77547">
        <ele>610</ele>
        <time>2019-03-29T13:21:10Z</time>
      </trkpt>
      <trkpt lat="44.33735" lon="5.77549">
        <ele>610</ele>
        <time>2019-03-29T13:21:11Z</time>
      </trkpt>
      <trkpt lat="44.33737" lon="5.7755">
        <ele>610</ele>
        <time>2019-03-29T13:21:12Z</time>
      </trkpt>
      <trkpt lat="44.3374" lon="5.77552">
        <ele>611</ele>
        <time>2019-03-29T13:21:13Z</time>
      </trkpt>
      <trkpt lat="44.33742" lon="5.77553">
        <ele>611</ele>
        <time>2019-03-29T13:21:15Z</time>
      </trkpt>
      <trkpt lat="44.33744" lon="5.77555">
        <ele>611</ele>
        <time>2019-03-29T13:21:16Z</time>
      </trkpt>
      <trkpt lat="44.33746" lon="5.77557">
        <ele>611</ele>
        <time>2019-03-29T13:21:17Z</time>
      </trkpt>
      <trkpt lat="44.33749" lon="5.77558">
        <ele>611</ele>
        <time>2019-03-29T13:21:17Z</time>
      </trkpt>
      <trkpt lat="44.33751" lon="5.77559">
        <ele>611</ele>
        <time>2019-03-29T13:21:18Z</time>
      </trkpt>
      <trkpt lat="44.33753" lon="5.77561">
        <ele>612</ele>
        <time>2019-03-29T13:21:20Z</time>
      </trkpt>
      <trkpt lat="44.33755" lon="5.77563">
        <ele>612</ele>
        <time>2019-03-29T13:21:20Z</time>
      </trkpt>
      <trkpt lat="44.33757" lon="5.77564">
        <ele>612</ele>
        <time>2019-03-29T13:21:22Z</time>
      </trkpt>
      <trkpt lat="44.3376" lon="5.77566">
        <ele>612</ele>
        <time>2019-03-29T13:21:23Z</time>
      </trkpt>
      <trkpt lat="44.33762" lon="5.77567">
        <ele>612</ele>
        <time>2019-03-29T13:21:23Z</time>
      </trkpt>
      <trkpt lat="44.33764" lon="5.77569">
        <ele>613</ele>
        <time>2019-03-29T13:21:25Z</time>
      </trkpt>
      <trkpt lat="44.33767" lon="5.7757">
        <ele>613</ele>
        <time>2019-03-29T13:21:25Z</time>
      </trkpt>
      <trkpt lat="44.33769" lon="5.77572">
        <ele>613</ele>
        <time>2019-03-29T13:21:26Z</time>
      </trkpt>
      <trkpt lat="44.33771" lon="5.77573">
        <ele>613</ele>
        <time>2019-03-29T13:21:28Z</time>
      </trkpt>
      <trkpt lat="44.33773" lon="5.77576">
        <ele>614</ele>
        <time>2019-03-29T13:21:29Z</time>
      </trkpt>
      <trkpt lat="44.33776" lon="5.77577">
        <ele>614</ele>
        <time>2019-03-29T13:21:30Z</time>
      </trkpt>
      <trkpt lat="44.33778" lon="5.77579">
        <ele>614</ele>
        <time>2019-03-29T13:21:30Z</time>
      </trkpt>
      <trkpt lat="44.33781" lon="5.7758">
        <ele>614</ele>
        <time>2019-03-29T13:21:31Z</time>
      </trkpt>
      <trkpt lat="44.33784" lon="5.77582">
        <ele>615</ele>
        <time>2019-03-29T13:21:32Z</time>
      </trkpt>
      <trkpt lat="44.33787" lon="5.77584">
        <ele>615</ele>
        <time>2019-03-29T13:21:33Z</time>
      </trkpt>
      <trkpt lat="44.33789" lon="5.77586">
        <ele>615</ele>
        <time>2019-03-29T13:21:34Z</time>
      </trkpt>
      <trkpt lat="44.33792" lon="5.77588">
        <ele>615</ele>
        <time>2019-03-29T13:21:36Z</time>
      </trkpt>
      <trkpt lat="44.33796" lon="5.7759">
        <ele>616</ele>
        <time>2019-03-29T13:21:36Z</time>
      </trkpt>
      <trkpt lat="44.33799" lon="5.77592">
        <ele>616</ele>
        <time>2019-03-29T13:21:37Z</time>
      </trkpt>
      <trkpt lat="44.33802" lon="5.77594">
        <ele>616</ele>
        <time>2019-03-29T13:21:38Z</time>
      </trkpt>
      <trkpt lat="44.33805" lon="5.77597">
        <ele>617</ele>
        <time>2019-03-29T13:21:39Z</time>
      </trkpt>
      <trkpt lat="44.33808" lon="5.77599">
        <ele>617</ele>
        <time>2019-03-29T13:21:41Z</time>
      </trkpt>
      <trkpt lat="44.33812" lon="5.77602">
        <ele>617</ele>
        <time>2019-03-29T13:21:41Z</time>
      </trkpt>
      <trkpt lat="44.33815" lon="5.77605">
        <ele>617</ele>
        <time>2019-03-29T13:21:42Z</time>
      </trkpt>
      <trkpt lat="44.33818" lon="5.77608">
        <ele>618</ele>
        <time>2019-03-29T13:21:43Z</time>
      </trkpt>
      <trkpt lat="44.3382" lon="5.77611">
        <ele>618</ele>
        <time>2019-03-29T13:21:44Z</time>
      </trkpt>
      <trkpt lat="44.33823" lon="5.77615">
        <ele>618</ele>
        <time>2019-03-29T13:21:46Z</time>
      </trkpt>
      <trkpt lat="44.33826" lon="5.77619">
        <ele>618</ele>
        <time>2019-03-29T13:21:47Z</time>
      </trkpt>
      <trkpt lat="44.33829" lon="5.77622">
        <ele>619</ele>
        <time>2019-03-29T13:21:47Z</time>
      </trkpt>
      <trkpt lat="44.33832" lon="5.77626">
        <ele>619</ele>
        <time>2019-03-29T13:21:48Z</time>
      </trkpt>
      <trkpt lat="44.33835" lon="5.7763">
        <ele>619</ele>
        <time>2019-03-29T13:21:49Z</time>
      </trkpt>
      <trkpt lat="44.33838" lon="5.77634">
        <ele>619</ele>
        <time>2019-03-29T13:21:51Z</time>
      </trkpt>
      <trkpt lat="44.33841" lon="5.77637">
        <ele>620</ele>
        <time>2019-03-29T13:21:52Z</time>
      </trkpt>
      <trkpt lat="44.33844" lon="5.77641">
        <ele>620</ele>
        <time>2019-03-29T13:21:52Z</time>
      </trkpt>
      <trkpt lat="44.33847" lon="5.77645">
        <ele>620</ele>
        <time>2019-03-29T13:21:53Z</time>
      </trkpt>
      <trkpt lat="44.33851" lon="5.77648">
        <ele>620</ele>
        <time>2019-03-29T13:21:54Z</time>
      </trkpt>
      <trkpt lat="44.33854" lon="5.77651">
        <ele>621</ele>
        <time>2019-03-29T13:21:56Z</time>
      </trkpt>
      <trkpt lat="44.33858" lon="5.77655">
        <ele>621</ele>
        <time>2019-03-29T13:21:57Z</time>
      </trkpt>
      <trkpt lat="44.33862" lon="5.77658">
        <ele>621</ele>
        <time>2019-03-29T13:21:57Z</time>
      </trkpt>
      <trkpt lat="44.33865" lon="5.7766">
        <ele>621</ele>
        <time>2019-03-29T13:21:58Z</time>
      </trkpt>
      <trkpt lat="44.33869" lon="5.77663">
        <ele>622</ele>
        <time>2019-03-29T13:21:59Z</time>
      </trkpt>
      <trkpt lat="44.33873" lon="5.77664">
        <ele>622</ele>
        <time>2019-03-29T13:22:01Z</time>
      </trkpt>
      <trkpt lat="44.33877" lon="5.77666">
        <ele>622</ele>
        <time>2019-03-29T13:22:01Z</time>
      </trkpt>
      <trkpt lat="44.33881" lon="5.77667">
        <ele>622</ele>
        <time>2019-03-29T13:22:02Z</time>
      </trkpt>
      <trkpt lat="44.33885" lon="5.77669">
        <ele>623</ele>
        <time>2019-03-29T13:22:03Z</time>
      </trkpt>
      <trkpt lat="44.33889" lon="5.77669">
        <ele>623</ele>
        <time>2019-03-29T13:22:04Z</time>
      </trkpt>
      <trkpt lat="44.33893" lon="5.77669">
        <ele>623</ele>
        <time>2019-03-29T13:22:06Z</time>
      </trkpt>
      <trkpt lat="44.33897" lon="5.77669">
        <ele>623</ele>
        <time>2019-03-29T13:22:06Z</time>
      </trkpt>
      <trkpt lat="44.33902" lon="5.77668">
        <ele>624</ele>
        <time>2019-03-29T13:22:07Z</time>
      </trkpt>
      <trkpt lat="44.33906" lon="5.77667">
        <ele>624</ele>
        <time>2019-03-29T13:22:08Z</time>
      </trkpt>
      <trkpt lat="44.33911" lon="5.77666">
        <ele>624</ele>
        <time>2019-03-29T13:22:09Z</time>
      </trkpt>
      <trkpt lat="44.33915" lon="5.77664">
        <ele>624</ele>
        <time>2019-03-29T13:22:11Z</time>
      </trkpt>
      <trkpt lat="44.3392" lon="5.77662">
        <ele>624</ele>
        <time>2019-03-29T13:22:11Z</time>
      </trkpt>
      <trkpt lat="44.33924" lon="5.77659">
        <ele>624</ele>
        <time>2019-03-29T13:22:12Z</time>
      </trkpt>
      <trkpt lat="44.33928" lon="5.77657">
        <ele>624</ele>
        <time>2019-03-29T13:22:13Z</time>
      </trkpt>
      <trkpt lat="44.33932" lon="5.77654">
        <ele>624</ele>
        <time>2019-03-29T13:22:15Z</time>
      </trkpt>
      <trkpt lat="44.33936" lon="5.77652">
        <ele>624</ele>
        <time>2019-03-29T13:22:16Z</time>
      </trkpt>
      <trkpt lat="44.3394" lon="5.77648">
        <ele>624</ele>
        <time>2019-03-29T13:22:17Z</time>
      </trkpt>
      <trkpt lat="44.33944" lon="5.77645">
        <ele>624</ele>
        <time>2019-03-29T13:22:18Z</time>
      </trkpt>
      <trkpt lat="44.33947" lon="5.77642">
        <ele>624</ele>
        <time>2019-03-29T13:22:19Z</time>
      </trkpt>
      <trkpt lat="44.3395" lon="5.77639">
        <ele>624</ele>
        <time>2019-03-29T13:22:20Z</time>
      </trkpt>
      <trkpt lat="44.33954" lon="5.77636">
        <ele>624</ele>
        <time>2019-03-29T13:22:21Z</time>
      </trkpt>
      <trkpt lat="44.33957" lon="5.77632">
        <ele>624</ele>
        <time>2019-03-29T13:22:22Z</time>
      </trkpt>
      <trkpt lat="44.3396" lon="5.77629">
        <ele>624</ele>
        <time>2019-03-29T13:22:23Z</time>
      </trkpt>
      <trkpt lat="44.33964" lon="5.77625">
        <ele>624</ele>
        <time>2019-03-29T13:22:24Z</time>
      </trkpt>
      <trkpt lat="44.33967" lon="5.77622">
        <ele>624</ele>
        <time>2019-03-29T13:22:25Z</time>
      </trkpt>
      <trkpt lat="44.3397" lon="5.77618">
        <ele>624</ele>
        <time>2019-03-29T13:22:26Z</time>
      </trkpt>
      <trkpt lat="44.33973" lon="5.77613">
        <ele>624</ele>
        <time>2019-03-29T13:22:26Z</time>
      </trkpt>
      <trkpt lat="44.33976" lon="5.77609">
        <ele>624</ele>
        <time>2019-03-29T13:22:28Z</time>
      </trkpt>
      <trkpt lat="44.33978" lon="5.77604">
        <ele>624</ele>
        <time>2019-03-29T13:22:29Z</time>
      </trkpt>
      <trkpt lat="44.33981" lon="5.77599">
        <ele>624</ele>
        <time>2019-03-29T13:22:29Z</time>
      </trkpt>
      <trkpt lat="44.33984" lon="5.77595">
        <ele>624</ele>
        <time>2019-03-29T13:22:30Z</time>
      </trkpt>
      <trkpt lat="44.33986" lon="5.7759">
        <ele>624</ele>
        <time>2019-03-29T13:22:32Z</time>
      </trkpt>
      <trkpt lat="44.33988" lon="5.77585">
        <ele>625</ele>
        <time>2019-03-29T13:22:32Z</time>
      </trkpt>
      <trkpt lat="44.3399" lon="5.77579">
        <ele>625</ele>
        <time>2019-03-29T13:22:33Z</time>
      </trkpt>
      <trkpt lat="44.33992" lon="5.77573">
        <ele>625</ele>
        <time>2019-03-29T13:22:34Z</time>
      </trkpt>
      <trkpt lat="44.33993" lon="5.77568">
        <ele>625</ele>
        <time>2019-03-29T13:22:35Z</time>
      </trkpt>
      <trkpt lat="44.33995" lon="5.77562">
        <ele>626</ele>
        <time>2019-03-29T13:22:37Z</time>
      </trkpt>
      <trkpt lat="44.33997" lon="5.77557">
        <ele>626</ele>
        <time>2019-03-29T13:22:37Z</time>
      </trkpt>
      <trkpt lat="44.33999" lon="5.77552">
        <ele>626</ele>
        <time>2019-03-29T13:22:38Z</time>
      </trkpt>
      <trkpt lat="44.34001" lon="5.77547">
        <ele>627</ele>
        <time>2019-03-29T13:22:39Z</time>
      </trkpt>
      <trkpt lat="44.34004" lon="5.77542">
        <ele>627</ele>
        <time>2019-03-29T13:22:41Z</time>
      </trkpt>
      <trkpt lat="44.34006" lon="5.77536">
        <ele>627</ele>
        <time>2019-03-29T13:22:42Z</time>
      </trkpt>
      <trkpt lat="44.34008" lon="5.77531">
        <ele>627</ele>
        <time>2019-03-29T13:22:43Z</time>
      </trkpt>
      <trkpt lat="44.34009" lon="5.77526">
        <ele>628</ele>
        <time>2019-03-29T13:22:44Z</time>
      </trkpt>
      <trkpt lat="44.34011" lon="5.7752">
        <ele>628</ele>
        <time>2019-03-29T13:22:45Z</time>
      </trkpt>
      <trkpt lat="44.34011" lon="5.77514">
        <ele>628</ele>
        <time>2019-03-29T13:22:46Z</time>
      </trkpt>
      <trkpt lat="44.34011" lon="5.77508">
        <ele>628</ele>
        <time>2019-03-29T13:22:47Z</time>
      </trkpt>
      <trkpt lat="44.3401" lon="5.77501">
        <ele>628</ele>
        <time>2019-03-29T13:22:48Z</time>
      </trkpt>
      <trkpt lat="44.34009" lon="5.77495">
        <ele>628</ele>
        <time>2019-03-29T13:22:49Z</time>
      </trkpt>
      <trkpt lat="44.34008" lon="5.77489">
        <ele>628</ele>
        <time>2019-03-29T13:22:50Z</time>
      </trkpt>
      <trkpt lat="44.34006" lon="5.77482">
        <ele>628</ele>
        <time>2019-03-29T13:22:51Z</time>
      </trkpt>
      <trkpt lat="44.34004" lon="5.77476">
        <ele>628</ele>
        <time>2019-03-29T13:22:52Z</time>
      </trkpt>
      <trkpt lat="44.34001" lon="5.77468">
        <ele>628</ele>
        <time>2019-03-29T13:22:53Z</time>
      </trkpt>
      <trkpt lat="44.33999" lon="5.7746">
        <ele>628</ele>
        <time>2019-03-29T13:22:54Z</time>
      </trkpt>
      <trkpt lat="44.33996" lon="5.77452">
        <ele>628</ele>
        <time>2019-03-29T13:22:54Z</time>
      </trkpt>
      <trkpt lat="44.33993" lon="5.77443">
        <ele>628</ele>
        <time>2019-03-29T13:22:55Z</time>
      </trkpt>
      <trkpt lat="44.33989" lon="5.77434">
        <ele>628</ele>
        <time>2019-03-29T13:22:56Z</time>
      </trkpt>
      <trkpt lat="44.33986" lon="5.77424">
        <ele>628</ele>
        <time>2019-03-29T13:22:58Z</time>
      </trkpt>
      <trkpt lat="44.33982" lon="5.77414">
        <ele>628</ele>
        <time>2019-03-29T13:22:58Z</time>
      </trkpt>
      <trkpt lat="44.3398" lon="5.77403">
        <ele>628</ele>
        <time>2019-03-29T13:23:00Z</time>
      </trkpt>
      <trkpt lat="44.33979" lon="5.77391">
        <ele>628</ele>
        <time>2019-03-29T13:23:00Z</time>
      </trkpt>
      <trkpt lat="44.33981" lon="5.77379">
        <ele>628</ele>
        <time>2019-03-29T13:23:01Z</time>
      </trkpt>
      <trkpt lat="44.33983" lon="5.77366">
        <ele>628</ele>
        <time>2019-03-29T13:23:03Z</time>
      </trkpt>
      <trkpt lat="44.33986" lon="5.77353">
        <ele>628</ele>
        <time>2019-03-29T13:23:03Z</time>
      </trkpt>
      <trkpt lat="44.33987" lon="5.77339">
        <ele>627</ele>
        <time>2019-03-29T13:23:04Z</time>
      </trkpt>
      <trkpt lat="44.33987" lon="5.77325">
        <ele>627</ele>
        <time>2019-03-29T13:23:05Z</time>
      </trkpt>
      <trkpt lat="44.33986" lon="5.77311">
        <ele>626</ele>
        <time>2019-03-29T13:23:06Z</time>
      </trkpt>
      <trkpt lat="44.33983" lon="5.77297">
        <ele>625</ele>
        <time>2019-03-29T13:23:07Z</time>
      </trkpt>
      <trkpt lat="44.33981" lon="5.77283">
        <ele>624</ele>
        <time>2019-03-29T13:23:08Z</time>
      </trkpt>
      <trkpt lat="44.33978" lon="5.77268">
        <ele>624</ele>
        <time>2019-03-29T13:23:09Z</time>
      </trkpt>
      <trkpt lat="44.33977" lon="5.77252">
        <ele>623</ele>
        <time>2019-03-29T13:23:10Z</time>
      </trkpt>
      <trkpt lat="44.33977" lon="5.77237">
        <ele>622</ele>
        <time>2019-03-29T13:23:11Z</time>
      </trkpt>
      <trkpt lat="44.33978" lon="5.77221">
        <ele>621</ele>
        <time>2019-03-29T13:23:12Z</time>
      </trkpt>
      <trkpt lat="44.33979" lon="5.77206">
        <ele>621</ele>
        <time>2019-03-29T13:23:13Z</time>
      </trkpt>
      <trkpt lat="44.33979" lon="5.77191">
        <ele>620</ele>
        <time>2019-03-29T13:23:14Z</time>
      </trkpt>
      <trkpt lat="44.33979" lon="5.77176">
        <ele>619</ele>
        <time>2019-03-29T13:23:15Z</time>
      </trkpt>
      <trkpt lat="44.33979" lon="5.77162">
        <ele>618</ele>
        <time>2019-03-29T13:23:16Z</time>
      </trkpt>
      <trkpt lat="44.33979" lon="5.77148">
        <ele>617</ele>
        <time>2019-03-29T13:23:18Z</time>
      </trkpt>
      <trkpt lat="44.33979" lon="5.77136">
        <ele>616</ele>
        <time>2019-03-29T13:23:18Z</time>
      </trkpt>
      <trkpt lat="44.33978" lon="5.77123">
        <ele>615</ele>
        <time>2019-03-29T13:23:19Z</time>
      </trkpt>
      <trkpt lat="44.33978" lon="5.77111">
        <ele>615</ele>
        <time>2019-03-29T13:23:20Z</time>
      </trkpt>
      <trkpt lat="44.33978" lon="5.771">
        <ele>614</ele>
        <time>2019-03-29T13:23:21Z</time>
      </trkpt>
      <trkpt lat="44.33979" lon="5.77088">
        <ele>613</ele>
        <time>2019-03-29T13:23:23Z</time>
      </trkpt>
      <trkpt lat="44.3398" lon="5.77076">
        <ele>612</ele>
        <time>2019-03-29T13:23:23Z</time>
      </trkpt>
      <trkpt lat="44.33981" lon="5.77064">
        <ele>611</ele>
        <time>2019-03-29T13:23:24Z</time>
      </trkpt>
      <trkpt lat="44.33983" lon="5.77051">
        <ele>610</ele>
        <time>2019-03-29T13:23:25Z</time>
      </trkpt>
      <trkpt lat="44.33985" lon="5.77038">
        <ele>609</ele>
        <time>2019-03-29T13:23:26Z</time>
      </trkpt>
      <trkpt lat="44.33987" lon="5.77025">
        <ele>608</ele>
        <time>2019-03-29T13:23:28Z</time>
      </trkpt>
      <trkpt lat="44.33989" lon="5.77011">
        <ele>607</ele>
        <time>2019-03-29T13:23:28Z</time>
      </trkpt>
      <trkpt lat="44.3399" lon="5.76998">
        <ele>607</ele>
        <time>2019-03-29T13:23:29Z</time>
      </trkpt>
      <trkpt lat="44.33992" lon="5.76984">
        <ele>606</ele>
        <time>2019-03-29T13:23:30Z</time>
      </trkpt>
      <trkpt lat="44.33994" lon="5.7697">
        <ele>605</ele>
        <time>2019-03-29T13:23:31Z</time>
      </trkpt>
      <trkpt lat="44.33996" lon="5.76957">
        <ele>604</ele>
        <time>2019-03-29T13:23:33Z</time>
      </trkpt>
      <trkpt lat="44.33997" lon="5.76943">
        <ele>603</ele>
        <time>2019-03-29T13:23:33Z</time>
      </trkpt>
      <trkpt lat="44.33999" lon="5.7693">
        <ele>603</ele>
        <time>2019-03-29T13:23:34Z</time>
      </trkpt>
      <trkpt lat="44.34001" lon="5.76918">
        <ele>602</ele>
        <time>2019-03-29T13:23:35Z</time>
      </trkpt>
      <trkpt lat="44.34003" lon="5.76906">
        <ele>601</ele>
        <time>2019-03-29T13:23:36Z</time>
      </trkpt>
      <trkpt lat="44.34005" lon="5.76894">
        <ele>601</ele>
        <time>2019-03-29T13:23:38Z</time>
      </trkpt>
      <trkpt lat="44.34007" lon="5.76883">
        <ele>601</ele>
        <time>2019-03-29T13:23:38Z</time>
      </trkpt>
      <trkpt lat="44.3401" lon="5.76872">
        <ele>600</ele>
        <time>2019-03-29T13:23:39Z</time>
      </trkpt>
      <trkpt lat="44.34012" lon="5.76862">
        <ele>600</ele>
        <time>2019-03-29T13:23:41Z</time>
      </trkpt>
      <trkpt lat="44.34014" lon="5.76852">
        <ele>600</ele>
        <time>2019-03-29T13:23:42Z</time>
      </trkpt>
      <trkpt lat="44.34016" lon="5.76841">
        <ele>599</ele>
        <time>2019-03-29T13:23:43Z</time>
      </trkpt>
      <trkpt lat="44.34018" lon="5.7683">
        <ele>599</ele>
        <time>2019-03-29T13:23:43Z</time>
      </trkpt>
      <trkpt lat="44.34019" lon="5.76819">
        <ele>599</ele>
        <time>2019-03-29T13:23:44Z</time>
      </trkpt>
      <trkpt lat="44.3402" lon="5.76808">
        <ele>599</ele>
        <time>2019-03-29T13:23:45Z</time>
      </trkpt>
      <trkpt lat="44.34021" lon="5.76797">
        <ele>598</ele>
        <time>2019-03-29T13:23:46Z</time>
      </trkpt>
      <trkpt lat="44.3402" lon="5.76786">
        <ele>598</ele>
        <time>2019-03-29T13:23:48Z</time>
      </trkpt>
      <trkpt lat="44.34019" lon="5.76775">
        <ele>598</ele>
        <time>2019-03-29T13:23:48Z</time>
      </trkpt>
      <trkpt lat="44.34018" lon="5.76766">
        <ele>598</ele>
        <time>2019-03-29T13:23:49Z</time>
      </trkpt>
      <trkpt lat="44.34017" lon="5.76757">
        <ele>598</ele>
        <time>2019-03-29T13:23:50Z</time>
      </trkpt>
      <trkpt lat="44.34016" lon="5.76749">
        <ele>597</ele>
        <time>2019-03-29T13:23:52Z</time>
      </trkpt>
      <trkpt lat="44.34014" lon="5.7674">
        <ele>597</ele>
        <time>2019-03-29T13:23:52Z</time>
      </trkpt>
      <trkpt lat="44.34012" lon="5.7673">
        <ele>597</ele>
        <time>2019-03-29T13:23:53Z</time>
      </trkpt>
      <trkpt lat="44.3401" lon="5.76721">
        <ele>597</ele>
        <time>2019-03-29T13:23:54Z</time>
      </trkpt>
      <trkpt lat="44.34011" lon="5.76711">
        <ele>596</ele>
        <time>2019-03-29T13:23:55Z</time>
      </trkpt>
      <trkpt lat="44.34013" lon="5.76701">
        <ele>596</ele>
        <time>2019-03-29T13:23:56Z</time>
      </trkpt>
      <trkpt lat="44.34018" lon="5.76693">
        <ele>596</ele>
        <time>2019-03-29T13:23:58Z</time>
      </trkpt>
      <trkpt lat="44.34024" lon="5.76687">
        <ele>595</ele>
        <time>2019-03-29T13:23:58Z</time>
      </trkpt>
      <trkpt lat="44.34032" lon="5.76683">
        <ele>595</ele>
        <time>2019-03-29T13:23:59Z</time>
      </trkpt>
      <trkpt lat="44.34041" lon="5.7668">
        <ele>595</ele>
        <time>2019-03-29T13:24:00Z</time>
      </trkpt>
      <trkpt lat="44.34048" lon="5.76676">
        <ele>595</ele>
        <time>2019-03-29T13:24:01Z</time>
      </trkpt>
      <trkpt lat="44.34055" lon="5.76671">
        <ele>595</ele>
        <time>2019-03-29T13:24:03Z</time>
      </trkpt>
      <trkpt lat="44.3406" lon="5.76663">
        <ele>595</ele>
        <time>2019-03-29T13:24:03Z</time>
      </trkpt>
      <trkpt lat="44.34063" lon="5.76655">
        <ele>595</ele>
        <time>2019-03-29T13:24:04Z</time>
      </trkpt>
      <trkpt lat="44.34065" lon="5.76646">
        <ele>595</ele>
        <time>2019-03-29T13:24:05Z</time>
      </trkpt>
      <trkpt lat="44.34063" lon="5.76639">
        <ele>595</ele>
        <time>2019-03-29T13:24:06Z</time>
      </trkpt>
      <trkpt lat="44.3406" lon="5.76633">
        <ele>595</ele>
        <time>2019-03-29T13:24:07Z</time>
      </trkpt>
      <trkpt lat="44.34056" lon="5.76627">
        <ele>595</ele>
        <time>2019-03-29T13:24:08Z</time>
      </trkpt>
      <trkpt lat="44.34053" lon="5.76621">
        <ele>595</ele>
        <time>2019-03-29T13:24:09Z</time>
      </trkpt>
      <trkpt lat="44.3405" lon="5.76616">
        <ele>595</ele>
        <time>2019-03-29T13:24:10Z</time>
      </trkpt>
      <trkpt lat="44.34047" lon="5.7661">
        <ele>595</ele>
        <time>2019-03-29T13:24:11Z</time>
      </trkpt>
      <trkpt lat="44.34045" lon="5.76604">
        <ele>595</ele>
        <time>2019-03-29T13:24:13Z</time>
      </trkpt>
      <trkpt lat="44.34043" lon="5.76598">
        <ele>595</ele>
        <time>2019-03-29T13:24:13Z</time>
      </trkpt>
      <trkpt lat="44.34041" lon="5.76593">
        <ele>595</ele>
        <time>2019-03-29T13:24:14Z</time>
      </trkpt>
      <trkpt lat="44.34039" lon="5.76587">
        <ele>595</ele>
        <time>2019-03-29T13:24:15Z</time>
      </trkpt>
      <trkpt lat="44.34037" lon="5.76581">
        <ele>595</ele>
        <time>2019-03-29T13:24:16Z</time>
      </trkpt>
      <trkpt lat="44.34035" lon="5.76575">
        <ele>595</ele>
        <time>2019-03-29T13:24:18Z</time>
      </trkpt>
      <trkpt lat="44.34035" lon="5.76569">
        <ele>595</ele>
        <time>2019-03-29T13:24:19Z</time>
      </trkpt>
      <trkpt lat="44.34036" lon="5.76563">
        <ele>595</ele>
        <time>2019-03-29T13:24:19Z</time>
      </trkpt>
      <trkpt lat="44.34038" lon="5.76556">
        <ele>595</ele>
        <time>2019-03-29T13:24:20Z</time>
      </trkpt>
      <trkpt lat="44.34041" lon="5.76551">
        <ele>595</ele>
        <time>2019-03-29T13:24:21Z</time>
      </trkpt>
      <trkpt lat="44.34043" lon="5.76545">
        <ele>595</ele>
        <time>2019-03-29T13:24:23Z</time>
      </trkpt>
      <trkpt lat="44.34046" lon="5.76539">
        <ele>595</ele>
        <time>2019-03-29T13:24:24Z</time>
      </trkpt>
      <trkpt lat="44.34049" lon="5.76533">
        <ele>595</ele>
        <time>2019-03-29T13:24:24Z</time>
      </trkpt>
      <trkpt lat="44.34052" lon="5.76528">
        <ele>595</ele>
        <time>2019-03-29T13:24:25Z</time>
      </trkpt>
      <trkpt lat="44.34055" lon="5.76522">
        <ele>595</ele>
        <time>2019-03-29T13:24:26Z</time>
      </trkpt>
      <trkpt lat="44.34058" lon="5.76516">
        <ele>595</ele>
        <time>2019-03-29T13:24:28Z</time>
      </trkpt>
      <trkpt lat="44.34061" lon="5.7651">
        <ele>595</ele>
        <time>2019-03-29T13:24:28Z</time>
      </trkpt>
      <trkpt lat="44.34064" lon="5.76504">
        <ele>595</ele>
        <time>2019-03-29T13:24:29Z</time>
      </trkpt>
      <trkpt lat="44.34067" lon="5.76498">
        <ele>595</ele>
        <time>2019-03-29T13:24:30Z</time>
      </trkpt>
      <trkpt lat="44.3407" lon="5.76492">
        <ele>595</ele>
        <time>2019-03-29T13:24:31Z</time>
      </trkpt>
      <trkpt lat="44.34073" lon="5.76486">
        <ele>595</ele>
        <time>2019-03-29T13:24:33Z</time>
      </trkpt>
      <trkpt lat="44.34076" lon="5.7648">
        <ele>595</ele>
        <time>2019-03-29T13:24:33Z</time>
      </trkpt>
      <trkpt lat="44.34079" lon="5.76474">
        <ele>595</ele>
        <time>2019-03-29T13:24:34Z</time>
      </trkpt>
      <trkpt lat="44.34082" lon="5.76468">
        <ele>595</ele>
        <time>2019-03-29T13:24:35Z</time>
      </trkpt>
      <trkpt lat="44.34085" lon="5.76462">
        <ele>595</ele>
        <time>2019-03-29T13:24:36Z</time>
      </trkpt>
      <trkpt lat="44.34089" lon="5.76456">
        <ele>595</ele>
        <time>2019-03-29T13:24:38Z</time>
      </trkpt>
      <trkpt lat="44.34092" lon="5.76449">
        <ele>595</ele>
        <time>2019-03-29T13:24:38Z</time>
      </trkpt>
      <trkpt lat="44.34095" lon="5.76443">
        <ele>595</ele>
        <time>2019-03-29T13:24:39Z</time>
      </trkpt>
      <trkpt lat="44.34099" lon="5.76437">
        <ele>595</ele>
        <time>2019-03-29T13:24:40Z</time>
      </trkpt>
      <trkpt lat="44.34102" lon="5.7643">
        <ele>595</ele>
        <time>2019-03-29T13:24:41Z</time>
      </trkpt>
      <trkpt lat="44.34106" lon="5.76424">
        <ele>595</ele>
        <time>2019-03-29T13:24:43Z</time>
      </trkpt>
      <trkpt lat="44.34109" lon="5.76418">
        <ele>595</ele>
        <time>2019-03-29T13:24:43Z</time>
      </trkpt>
      <trkpt lat="44.34112" lon="5.76411">
        <ele>595</ele>
        <time>2019-03-29T13:24:44Z</time>
      </trkpt>
      <trkpt lat="44.34114" lon="5.76405">
        <ele>595</ele>
        <time>2019-03-29T13:24:45Z</time>
      </trkpt>
      <trkpt lat="44.34116" lon="5.76398">
        <ele>595</ele>
        <time>2019-03-29T13:24:46Z</time>
      </trkpt>
      <trkpt lat="44.34119" lon="5.76392">
        <ele>595</ele>
        <time>2019-03-29T13:24:48Z</time>
      </trkpt>
      <trkpt lat="44.34122" lon="5.76386">
        <ele>595</ele>
        <time>2019-03-29T13:24:48Z</time>
      </trkpt>
      <trkpt lat="44.34126" lon="5.76382">
        <ele>595</ele>
        <time>2019-03-29T13:24:49Z</time>
      </trkpt>
      <trkpt lat="44.3413" lon="5.76379">
        <ele>595</ele>
        <time>2019-03-29T13:24:50Z</time>
      </trkpt>
      <trkpt lat="44.34135" lon="5.76375">
        <ele>595</ele>
        <time>2019-03-29T13:24:52Z</time>
      </trkpt>
      <trkpt lat="44.34138" lon="5.76369">
        <ele>595</ele>
        <time>2019-03-29T13:24:53Z</time>
      </trkpt>
      <trkpt lat="44.3414" lon="5.76362">
        <ele>595</ele>
        <time>2019-03-29T13:24:53Z</time>
      </trkpt>
      <trkpt lat="44.34141" lon="5.76354">
        <ele>595</ele>
        <time>2019-03-29T13:24:54Z</time>
      </trkpt>
      <trkpt lat="44.34143" lon="5.76346">
        <ele>595</ele>
        <time>2019-03-29T13:24:55Z</time>
      </trkpt>
      <trkpt lat="44.34145" lon="5.76338">
        <ele>595</ele>
        <time>2019-03-29T13:24:56Z</time>
      </trkpt>
      <trkpt lat="44.34147" lon="5.7633">
        <ele>595</ele>
        <time>2019-03-29T13:24:58Z</time>
      </trkpt>
      <trkpt lat="44.3415" lon="5.76322">
        <ele>595</ele>
        <time>2019-03-29T13:24:58Z</time>
      </trkpt>
      <trkpt lat="44.34152" lon="5.76313">
        <ele>595</ele>
        <time>2019-03-29T13:24:59Z</time>
      </trkpt>
      <trkpt lat="44.34155" lon="5.76305">
        <ele>595</ele>
        <time>2019-03-29T13:25:00Z</time>
      </trkpt>
      <trkpt lat="44.34157" lon="5.76297">
        <ele>595</ele>
        <time>2019-03-29T13:25:01Z</time>
      </trkpt>
      <trkpt lat="44.3416" lon="5.76288">
        <ele>595</ele>
        <time>2019-03-29T13:25:03Z</time>
      </trkpt>
      <trkpt lat="44.34163" lon="5.7628">
        <ele>596</ele>
        <time>2019-03-29T13:25:03Z</time>
      </trkpt>
      <trkpt lat="44.34166" lon="5.76272">
        <ele>596</ele>
        <time>2019-03-29T13:25:04Z</time>
      </trkpt>
      <trkpt lat="44.34168" lon="5.76264">
        <ele>596</ele>
        <time>2019-03-29T13:25:05Z</time>
      </trkpt>
      <trkpt lat="44.3417" lon="5.76257">
        <ele>596</ele>
        <time>2019-03-29T13:25:06Z</time>
      </trkpt>
      <trkpt lat="44.34172" lon="5.76249">
        <ele>596</ele>
        <time>2019-03-29T13:25:08Z</time>
      </trkpt>
      <trkpt lat="44.34174" lon="5.76241">
        <ele>597</ele>
        <time>2019-03-29T13:25:08Z</time>
      </trkpt>
      <trkpt lat="44.34177" lon="5.76234">
        <ele>597</ele>
        <time>2019-03-29T13:25:09Z</time>
      </trkpt>
      <trkpt lat="44.34178" lon="5.76228">
        <ele>597</ele>
        <time>2019-03-29T13:25:10Z</time>
      </trkpt>
      <trkpt lat="44.3418" lon="5.76221">
        <ele>598</ele>
        <time>2019-03-29T13:25:11Z</time>
      </trkpt>
      <trkpt lat="44.34183" lon="5.76214">
        <ele>598</ele>
        <time>2019-03-29T13:25:13Z</time>
      </trkpt>
      <trkpt lat="44.34185" lon="5.76208">
        <ele>598</ele>
        <time>2019-03-29T13:25:13Z</time>
      </trkpt>
      <trkpt lat="44.34188" lon="5.76202">
        <ele>598</ele>
        <time>2019-03-29T13:25:14Z</time>
      </trkpt>
      <trkpt lat="44.34191" lon="5.76196">
        <ele>599</ele>
        <time>2019-03-29T13:25:15Z</time>
      </trkpt>
      <trkpt lat="44.34195" lon="5.76191">
        <ele>599</ele>
        <time>2019-03-29T13:25:16Z</time>
      </trkpt>
      <trkpt lat="44.34199" lon="5.76187">
        <ele>599</ele>
        <time>2019-03-29T13:25:17Z</time>
      </trkpt>
      <trkpt lat="44.34203" lon="5.76183">
        <ele>599</ele>
        <time>2019-03-29T13:25:18Z</time>
      </trkpt>
      <trkpt lat="44.34208" lon="5.76179">
        <ele>599</ele>
        <time>2019-03-29T13:25:19Z</time>
      </trkpt>
      <trkpt lat="44.34212" lon="5.76175">
        <ele>599</ele>
        <time>2019-03-29T13:25:20Z</time>
      </trkpt>
      <trkpt lat="44.34217" lon="5.76171">
        <ele>599</ele>
        <time>2019-03-29T13:25:21Z</time>
      </trkpt>
      <trkpt lat="44.34221" lon="5.76167">
        <ele>599</ele>
        <time>2019-03-29T13:25:23Z</time>
      </trkpt>
      <trkpt lat="44.34226" lon="5.76162">
        <ele>599</ele>
        <time>2019-03-29T13:25:23Z</time>
      </trkpt>
      <trkpt lat="44.34231" lon="5.76159">
        <ele>600</ele>
        <time>2019-03-29T13:25:24Z</time>
      </trkpt>
      <trkpt lat="44.34236" lon="5.76155">
        <ele>600</ele>
        <time>2019-03-29T13:25:25Z</time>
      </trkpt>
      <trkpt lat="44.34241" lon="5.76152">
        <ele>600</ele>
        <time>2019-03-29T13:25:26Z</time>
      </trkpt>
      <trkpt lat="44.34247" lon="5.76149">
        <ele>600</ele>
        <time>2019-03-29T13:25:28Z</time>
      </trkpt>
      <trkpt lat="44.34253" lon="5.76148">
        <ele>600</ele>
        <time>2019-03-29T13:25:28Z</time>
      </trkpt>
      <trkpt lat="44.34259" lon="5.76148">
        <ele>600</ele>
        <time>2019-03-29T13:25:29Z</time>
      </trkpt>
      <trkpt lat="44.34267" lon="5.76149">
        <ele>600</ele>
        <time>2019-03-29T13:25:30Z</time>
      </trkpt>
      <trkpt lat="44.34274" lon="5.76151">
        <ele>600</ele>
        <time>2019-03-29T13:25:31Z</time>
      </trkpt>
      <trkpt lat="44.34281" lon="5.76153">
        <ele>600</ele>
        <time>2019-03-29T13:25:33Z</time>
      </trkpt>
      <trkpt lat="44.34289" lon="5.76155">
        <ele>600</ele>
        <time>2019-03-29T13:25:33Z</time>
      </trkpt>
      <trkpt lat="44.34297" lon="5.76158">
        <ele>600</ele>
        <time>2019-03-29T13:25:34Z</time>
      </trkpt>
      <trkpt lat="44.34305" lon="5.76162">
        <ele>600</ele>
        <time>2019-03-29T13:25:35Z</time>
      </trkpt>
      <trkpt lat="44.34312" lon="5.76165">
        <ele>600</ele>
        <time>2019-03-29T13:25:36Z</time>
      </trkpt>
      <trkpt lat="44.3432" lon="5.76169">
        <ele>600</ele>
        <time>2019-03-29T13:25:38Z</time>
      </trkpt>
      <trkpt lat="44.34327" lon="5.76172">
        <ele>600</ele>
        <time>2019-03-29T13:25:38Z</time>
      </trkpt>
      <trkpt lat="44.34335" lon="5.76176">
        <ele>600</ele>
        <time>2019-03-29T13:25:39Z</time>
      </trkpt>
      <trkpt lat="44.34341" lon="5.7618">
        <ele>600</ele>
        <time>2019-03-29T13:25:40Z</time>
      </trkpt>
      <trkpt lat="44.34349" lon="5.76184">
        <ele>600</ele>
        <time>2019-03-29T13:25:41Z</time>
      </trkpt>
      <trkpt lat="44.34356" lon="5.76188">
        <ele>600</ele>
        <time>2019-03-29T13:25:43Z</time>
      </trkpt>
      <trkpt lat="44.34362" lon="5.76192">
        <ele>600</ele>
        <time>2019-03-29T13:25:43Z</time>
      </trkpt>
      <trkpt lat="44.34369" lon="5.76195">
        <ele>600</ele>
        <time>2019-03-29T13:25:44Z</time>
      </trkpt>
      <trkpt lat="44.34375" lon="5.76198">
        <ele>600</ele>
        <time>2019-03-29T13:25:45Z</time>
      </trkpt>
      <trkpt lat="44.34381" lon="5.762">
        <ele>600</ele>
        <time>2019-03-29T13:25:46Z</time>
      </trkpt>
      <trkpt lat="44.34387" lon="5.76203">
        <ele>600</ele>
        <time>2019-03-29T13:25:48Z</time>
      </trkpt>
      <trkpt lat="44.34393" lon="5.76205">
        <ele>600</ele>
        <time>2019-03-29T13:25:48Z</time>
      </trkpt>
      <trkpt lat="44.34398" lon="5.76208">
        <ele>600</ele>
        <time>2019-03-29T13:25:49Z</time>
      </trkpt>
      <trkpt lat="44.34404" lon="5.76211">
        <ele>600</ele>
        <time>2019-03-29T13:25:50Z</time>
      </trkpt>
      <trkpt lat="44.34409" lon="5.76213">
        <ele>600</ele>
        <time>2019-03-29T13:25:52Z</time>
      </trkpt>
      <trkpt lat="44.34414" lon="5.76214">
        <ele>600</ele>
        <time>2019-03-29T13:25:53Z</time>
      </trkpt>
      <trkpt lat="44.3442" lon="5.76215">
        <ele>600</ele>
        <time>2019-03-29T13:25:53Z</time>
      </trkpt>
      <trkpt lat="44.34425" lon="5.76215">
        <ele>600</ele>
        <time>2019-03-29T13:25:54Z</time>
      </trkpt>
      <trkpt lat="44.3443" lon="5.76214">
        <ele>600</ele>
        <time>2019-03-29T13:25:55Z</time>
      </trkpt>
      <trkpt lat="44.34436" lon="5.76213">
        <ele>600</ele>
        <time>2019-03-29T13:25:56Z</time>
      </trkpt>
      <trkpt lat="44.34441" lon="5.76212">
        <ele>600</ele>
        <time>2019-03-29T13:25:58Z</time>
      </trkpt>
      <trkpt lat="44.34446" lon="5.76211">
        <ele>600</ele>
        <time>2019-03-29T13:25:58Z</time>
      </trkpt>
      <trkpt lat="44.34451" lon="5.76209">
        <ele>600</ele>
        <time>2019-03-29T13:25:59Z</time>
      </trkpt>
      <trkpt lat="44.34456" lon="5.76207">
        <ele>601</ele>
        <time>2019-03-29T13:26:00Z</time>
      </trkpt>
      <trkpt lat="44.34462" lon="5.76206">
        <ele>601</ele>
        <time>2019-03-29T13:26:01Z</time>
      </trkpt>
      <trkpt lat="44.34466" lon="5.76204">
        <ele>601</ele>
        <time>2019-03-29T13:26:03Z</time>
      </trkpt>
      <trkpt lat="44.34471" lon="5.76202">
        <ele>602</ele>
        <time>2019-03-29T13:26:03Z</time>
      </trkpt>
      <trkpt lat="44.34475" lon="5.762">
        <ele>602</ele>
        <time>2019-03-29T13:26:04Z</time>
      </trkpt>
      <trkpt lat="44.34479" lon="5.76197">
        <ele>602</ele>
        <time>2019-03-29T13:26:05Z</time>
      </trkpt>
      <trkpt lat="44.34483" lon="5.76194">
        <ele>603</ele>
        <time>2019-03-29T13:26:06Z</time>
      </trkpt>
      <trkpt lat="44.34487" lon="5.76191">
        <ele>603</ele>
        <time>2019-03-29T13:26:08Z</time>
      </trkpt>
      <trkpt lat="44.34491" lon="5.76187">
        <ele>603</ele>
        <time>2019-03-29T13:26:08Z</time>
      </trkpt>
      <trkpt lat="44.34495" lon="5.76184">
        <ele>603</ele>
        <time>2019-03-29T13:26:09Z</time>
      </trkpt>
      <trkpt lat="44.34499" lon="5.7618">
        <ele>604</ele>
        <time>2019-03-29T13:26:10Z</time>
      </trkpt>
      <trkpt lat="44.34502" lon="5.76177">
        <ele>604</ele>
        <time>2019-03-29T13:26:11Z</time>
      </trkpt>
      <trkpt lat="44.34507" lon="5.76173">
        <ele>604</ele>
        <time>2019-03-29T13:26:13Z</time>
      </trkpt>
      <trkpt lat="44.3451" lon="5.76169">
        <ele>604</ele>
        <time>2019-03-29T13:26:13Z</time>
      </trkpt>
      <trkpt lat="44.34515" lon="5.76165">
        <ele>604</ele>
        <time>2019-03-29T13:26:14Z</time>
      </trkpt>
      <trkpt lat="44.34519" lon="5.76162">
        <ele>604</ele>
        <time>2019-03-29T13:26:15Z</time>
      </trkpt>
      <trkpt lat="44.34524" lon="5.76158">
        <ele>604</ele>
        <time>2019-03-29T13:26:16Z</time>
      </trkpt>
      <trkpt lat="44.34528" lon="5.76155">
        <ele>604</ele>
        <time>2019-03-29T13:26:18Z</time>
      </trkpt>
      <trkpt lat="44.34533" lon="5.76152">
        <ele>604</ele>
        <time>2019-03-29T13:26:18Z</time>
      </trkpt>
      <trkpt lat="44.34538" lon="5.76148">
        <ele>604</ele>
        <time>2019-03-29T13:26:19Z</time>
      </trkpt>
      <trkpt lat="44.34544" lon="5.76145">
        <ele>604</ele>
        <time>2019-03-29T13:26:20Z</time>
      </trkpt>
      <trkpt lat="44.34549" lon="5.76142">
        <ele>604</ele>
        <time>2019-03-29T13:26:21Z</time>
      </trkpt>
      <trkpt lat="44.34554" lon="5.76138">
        <ele>604</ele>
        <time>2019-03-29T13:26:23Z</time>
      </trkpt>
      <trkpt lat="44.34559" lon="5.76135">
        <ele>604</ele>
        <time>2019-03-29T13:26:23Z</time>
      </trkpt>
      <trkpt lat="44.34564" lon="5.76131">
        <ele>604</ele>
        <time>2019-03-29T13:26:24Z</time>
      </trkpt>
      <trkpt lat="44.3457" lon="5.76127">
        <ele>604</ele>
        <time>2019-03-29T13:26:25Z</time>
      </trkpt>
      <trkpt lat="44.34576" lon="5.76123">
        <ele>604</ele>
        <time>2019-03-29T13:26:26Z</time>
      </trkpt>
      <trkpt lat="44.34581" lon="5.76118">
        <ele>604</ele>
        <time>2019-03-29T13:26:28Z</time>
      </trkpt>
      <trkpt lat="44.34587" lon="5.76114">
        <ele>604</ele>
        <time>2019-03-29T13:26:28Z</time>
      </trkpt>
      <trkpt lat="44.34593" lon="5.7611">
        <ele>604</ele>
        <time>2019-03-29T13:26:29Z</time>
      </trkpt>
      <trkpt lat="44.34599" lon="5.76105">
        <ele>604</ele>
        <time>2019-03-29T13:26:30Z</time>
      </trkpt>
      <trkpt lat="44.34605" lon="5.76101">
        <ele>604</ele>
        <time>2019-03-29T13:26:31Z</time>
      </trkpt>
      <trkpt lat="44.34612" lon="5.76096">
        <ele>604</ele>
        <time>2019-03-29T13:26:33Z</time>
      </trkpt>
      <trkpt lat="44.34618" lon="5.76092">
        <ele>604</ele>
        <time>2019-03-29T13:26:33Z</time>
      </trkpt>
      <trkpt lat="44.34626" lon="5.76088">
        <ele>604</ele>
        <time>2019-03-29T13:26:34Z</time>
      </trkpt>
      <trkpt lat="44.34633" lon="5.76084">
        <ele>604</ele>
        <time>2019-03-29T13:26:35Z</time>
      </trkpt>
      <trkpt lat="44.34641" lon="5.7608">
        <ele>603</ele>
        <time>2019-03-29T13:26:36Z</time>
      </trkpt>
      <trkpt lat="44.34648" lon="5.76076">
        <ele>603</ele>
        <time>2019-03-29T13:26:38Z</time>
      </trkpt>
      <trkpt lat="44.34656" lon="5.76072">
        <ele>603</ele>
        <time>2019-03-29T13:26:38Z</time>
      </trkpt>
      <trkpt lat="44.34663" lon="5.76068">
        <ele>602</ele>
        <time>2019-03-29T13:26:39Z</time>
      </trkpt>
      <trkpt lat="44.34671" lon="5.76064">
        <ele>602</ele>
        <time>2019-03-29T13:26:40Z</time>
      </trkpt>
      <trkpt lat="44.34679" lon="5.76061">
        <ele>602</ele>
        <time>2019-03-29T13:26:41Z</time>
      </trkpt>
      <trkpt lat="44.34687" lon="5.76057">
        <ele>601</ele>
        <time>2019-03-29T13:26:43Z</time>
      </trkpt>
      <trkpt lat="44.34695" lon="5.76053">
        <ele>601</ele>
        <time>2019-03-29T13:26:43Z</time>
      </trkpt>
      <trkpt lat="44.34703" lon="5.76049">
        <ele>601</ele>
        <time>2019-03-29T13:26:44Z</time>
      </trkpt>
      <trkpt lat="44.3471" lon="5.76043">
        <ele>601</ele>
        <time>2019-03-29T13:26:45Z</time>
      </trkpt>
      <trkpt lat="44.34718" lon="5.76035">
        <ele>600</ele>
        <time>2019-03-29T13:26:46Z</time>
      </trkpt>
      <trkpt lat="44.34724" lon="5.76028">
        <ele>600</ele>
        <time>2019-03-29T13:26:48Z</time>
      </trkpt>
      <trkpt lat="44.34731" lon="5.7602">
        <ele>600</ele>
        <time>2019-03-29T13:26:48Z</time>
      </trkpt>
      <trkpt lat="44.34737" lon="5.76012">
        <ele>599</ele>
        <time>2019-03-29T13:26:49Z</time>
      </trkpt>
      <trkpt lat="44.34744" lon="5.76005">
        <ele>599</ele>
        <time>2019-03-29T13:26:50Z</time>
      </trkpt>
      <trkpt lat="44.3475" lon="5.75999">
        <ele>599</ele>
        <time>2019-03-29T13:26:52Z</time>
      </trkpt>
      <trkpt lat="44.34757" lon="5.75993">
        <ele>599</ele>
        <time>2019-03-29T13:26:53Z</time>
      </trkpt>
      <trkpt lat="44.34764" lon="5.75988">
        <ele>599</ele>
        <time>2019-03-29T13:26:53Z</time>
      </trkpt>
      <trkpt lat="44.34772" lon="5.75983">
        <ele>599</ele>
        <time>2019-03-29T13:26:54Z</time>
      </trkpt>
      <trkpt lat="44.34779" lon="5.75979">
        <ele>599</ele>
        <time>2019-03-29T13:26:55Z</time>
      </trkpt>
      <trkpt lat="44.34787" lon="5.75975">
        <ele>599</ele>
        <time>2019-03-29T13:26:56Z</time>
      </trkpt>
      <trkpt lat="44.34794" lon="5.75971">
        <ele>599</ele>
        <time>2019-03-29T13:26:58Z</time>
      </trkpt>
      <trkpt lat="44.34801" lon="5.75967">
        <ele>599</ele>
        <time>2019-03-29T13:26:58Z</time>
      </trkpt>
      <trkpt lat="44.34808" lon="5.75961">
        <ele>599</ele>
        <time>2019-03-29T13:26:59Z</time>
      </trkpt>
      <trkpt lat="44.34814" lon="5.75956">
        <ele>599</ele>
        <time>2019-03-29T13:27:00Z</time>
      </trkpt>
      <trkpt lat="44.34821" lon="5.75951">
        <ele>599</ele>
        <time>2019-03-29T13:27:01Z</time>
      </trkpt>
      <trkpt lat="44.34827" lon="5.75945">
        <ele>599</ele>
        <time>2019-03-29T13:27:02Z</time>
      </trkpt>
      <trkpt lat="44.34834" lon="5.7594">
        <ele>599</ele>
        <time>2019-03-29T13:27:03Z</time>
      </trkpt>
      <trkpt lat="44.34841" lon="5.75934">
        <ele>599</ele>
        <time>2019-03-29T13:27:04Z</time>
      </trkpt>
      <trkpt lat="44.34847" lon="5.75928">
        <ele>599</ele>
        <time>2019-03-29T13:27:05Z</time>
      </trkpt>
      <trkpt lat="44.34854" lon="5.75923">
        <ele>599</ele>
        <time>2019-03-29T13:27:06Z</time>
      </trkpt>
      <trkpt lat="44.34861" lon="5.75917">
        <ele>599</ele>
        <time>2019-03-29T13:27:07Z</time>
      </trkpt>
      <trkpt lat="44.34867" lon="5.75912">
        <ele>599</ele>
        <time>2019-03-29T13:27:08Z</time>
      </trkpt>
      <trkpt lat="44.34874" lon="5.75907">
        <ele>599</ele>
        <time>2019-03-29T13:27:09Z</time>
      </trkpt>
      <trkpt lat="44.3488" lon="5.75902">
        <ele>599</ele>
        <time>2019-03-29T13:27:10Z</time>
      </trkpt>
      <trkpt lat="44.34887" lon="5.75897">
        <ele>599</ele>
        <time>2019-03-29T13:27:11Z</time>
      </trkpt>
      <trkpt lat="44.34893" lon="5.75892">
        <ele>599</ele>
        <time>2019-03-29T13:27:13Z</time>
      </trkpt>
      <trkpt lat="44.349" lon="5.75888">
        <ele>599</ele>
        <time>2019-03-29T13:27:13Z</time>
      </trkpt>
      <trkpt lat="44.34906" lon="5.75883">
        <ele>599</ele>
        <time>2019-03-29T13:27:14Z</time>
      </trkpt>
      <trkpt lat="44.34913" lon="5.75879">
        <ele>599</ele>
        <time>2019-03-29T13:27:15Z</time>
      </trkpt>
      <trkpt lat="44.34919" lon="5.75875">
        <ele>599</ele>
        <time>2019-03-29T13:27:16Z</time>
      </trkpt>
      <trkpt lat="44.34925" lon="5.7587">
        <ele>599</ele>
        <time>2019-03-29T13:27:18Z</time>
      </trkpt>
      <trkpt lat="44.34932" lon="5.75866">
        <ele>599</ele>
        <time>2019-03-29T13:27:18Z</time>
      </trkpt>
      <trkpt lat="44.34938" lon="5.7586">
        <ele>599</ele>
        <time>2019-03-29T13:27:19Z</time>
      </trkpt>
      <trkpt lat="44.34943" lon="5.75855">
        <ele>599</ele>
        <time>2019-03-29T13:27:20Z</time>
      </trkpt>
      <trkpt lat="44.34949" lon="5.7585">
        <ele>599</ele>
        <time>2019-03-29T13:27:21Z</time>
      </trkpt>
      <trkpt lat="44.34955" lon="5.75845">
        <ele>599</ele>
        <time>2019-03-29T13:27:23Z</time>
      </trkpt>
      <trkpt lat="44.34961" lon="5.7584">
        <ele>599</ele>
        <time>2019-03-29T13:27:23Z</time>
      </trkpt>
      <trkpt lat="44.34967" lon="5.75835">
        <ele>599</ele>
        <time>2019-03-29T13:27:24Z</time>
      </trkpt>
      <trkpt lat="44.34972" lon="5.7583">
        <ele>599</ele>
        <time>2019-03-29T13:27:25Z</time>
      </trkpt>
      <trkpt lat="44.34978" lon="5.75824">
        <ele>599</ele>
        <time>2019-03-29T13:27:26Z</time>
      </trkpt>
      <trkpt lat="44.34984" lon="5.7582">
        <ele>599</ele>
        <time>2019-03-29T13:27:27Z</time>
      </trkpt>
      <trkpt lat="44.3499" lon="5.75815">
        <ele>599</ele>
        <time>2019-03-29T13:27:28Z</time>
      </trkpt>
      <trkpt lat="44.34996" lon="5.7581">
        <ele>599</ele>
        <time>2019-03-29T13:27:29Z</time>
      </trkpt>
      <trkpt lat="44.35002" lon="5.75806">
        <ele>599</ele>
        <time>2019-03-29T13:27:30Z</time>
      </trkpt>
      <trkpt lat="44.35008" lon="5.75801">
        <ele>599</ele>
        <time>2019-03-29T13:27:31Z</time>
      </trkpt>
      <trkpt lat="44.35014" lon="5.75797">
        <ele>599</ele>
        <time>2019-03-29T13:27:33Z</time>
      </trkpt>
      <trkpt lat="44.3502" lon="5.75793">
        <ele>599</ele>
        <time>2019-03-29T13:27:33Z</time>
      </trkpt>
      <trkpt lat="44.35026" lon="5.75788">
        <ele>599</ele>
        <time>2019-03-29T13:27:34Z</time>
      </trkpt>
      <trkpt lat="44.35031" lon="5.75784">
        <ele>599</ele>
        <time>2019-03-29T13:27:35Z</time>
      </trkpt>
      <trkpt lat="44.35037" lon="5.7578">
        <ele>599</ele>
        <time>2019-03-29T13:27:36Z</time>
      </trkpt>
      <trkpt lat="44.35043" lon="5.75775">
        <ele>599</ele>
        <time>2019-03-29T13:27:37Z</time>
      </trkpt>
      <trkpt lat="44.35049" lon="5.75771">
        <ele>599</ele>
        <time>2019-03-29T13:27:38Z</time>
      </trkpt>
      <trkpt lat="44.35054" lon="5.75766">
        <ele>599</ele>
        <time>2019-03-29T13:27:39Z</time>
      </trkpt>
      <trkpt lat="44.3506" lon="5.75761">
        <ele>599</ele>
        <time>2019-03-29T13:27:40Z</time>
      </trkpt>
      <trkpt lat="44.35065" lon="5.75756">
        <ele>599</ele>
        <time>2019-03-29T13:27:41Z</time>
      </trkpt>
      <trkpt lat="44.3507" lon="5.7575">
        <ele>599</ele>
        <time>2019-03-29T13:27:42Z</time>
      </trkpt>
      <trkpt lat="44.35075" lon="5.75744">
        <ele>599</ele>
        <time>2019-03-29T13:27:43Z</time>
      </trkpt>
      <trkpt lat="44.3508" lon="5.75739">
        <ele>599</ele>
        <time>2019-03-29T13:27:44Z</time>
      </trkpt>
      <trkpt lat="44.35086" lon="5.75733">
        <ele>599</ele>
        <time>2019-03-29T13:27:45Z</time>
      </trkpt>
      <trkpt lat="44.35091" lon="5.75728">
        <ele>599</ele>
        <time>2019-03-29T13:27:46Z</time>
      </trkpt>
      <trkpt lat="44.35096" lon="5.75723">
        <ele>599</ele>
        <time>2019-03-29T13:27:48Z</time>
      </trkpt>
      <trkpt lat="44.35101" lon="5.75717">
        <ele>599</ele>
        <time>2019-03-29T13:27:48Z</time>
      </trkpt>
      <trkpt lat="44.35107" lon="5.75712">
        <ele>599</ele>
        <time>2019-03-29T13:27:49Z</time>
      </trkpt>
      <trkpt lat="44.35112" lon="5.75707">
        <ele>599</ele>
        <time>2019-03-29T13:27:50Z</time>
      </trkpt>
      <trkpt lat="44.35118" lon="5.75702">
        <ele>599</ele>
        <time>2019-03-29T13:27:52Z</time>
      </trkpt>
      <trkpt lat="44.35124" lon="5.75697">
        <ele>599</ele>
        <time>2019-03-29T13:27:53Z</time>
      </trkpt>
      <trkpt lat="44.3513" lon="5.75692">
        <ele>599</ele>
        <time>2019-03-29T13:27:53Z</time>
      </trkpt>
      <trkpt lat="44.35136" lon="5.75686">
        <ele>599</ele>
        <time>2019-03-29T13:27:54Z</time>
      </trkpt>
      <trkpt lat="44.35141" lon="5.75681">
        <ele>599</ele>
        <time>2019-03-29T13:27:55Z</time>
      </trkpt>
      <trkpt lat="44.35147" lon="5.75675">
        <ele>599</ele>
        <time>2019-03-29T13:27:56Z</time>
      </trkpt>
      <trkpt lat="44.35152" lon="5.75669">
        <ele>599</ele>
        <time>2019-03-29T13:27:58Z</time>
      </trkpt>
      <trkpt lat="44.35158" lon="5.75664">
        <ele>599</ele>
        <time>2019-03-29T13:27:58Z</time>
      </trkpt>
      <trkpt lat="44.35163" lon="5.75658">
        <ele>599</ele>
        <time>2019-03-29T13:27:59Z</time>
      </trkpt>
      <trkpt lat="44.35169" lon="5.75652">
        <ele>599</ele>
        <time>2019-03-29T13:28:00Z</time>
      </trkpt>
      <trkpt lat="44.35175" lon="5.75646">
        <ele>599</ele>
        <time>2019-03-29T13:28:01Z</time>
      </trkpt>
      <trkpt lat="44.3518" lon="5.75641">
        <ele>599</ele>
        <time>2019-03-29T13:28:03Z</time>
      </trkpt>
      <trkpt lat="44.35186" lon="5.75635">
        <ele>599</ele>
        <time>2019-03-29T13:28:03Z</time>
      </trkpt>
      <trkpt lat="44.35191" lon="5.7563">
        <ele>599</ele>
        <time>2019-03-29T13:28:04Z</time>
      </trkpt>
      <trkpt lat="44.35197" lon="5.75625">
        <ele>599</ele>
        <time>2019-03-29T13:28:05Z</time>
      </trkpt>
      <trkpt lat="44.35203" lon="5.7562">
        <ele>599</ele>
        <time>2019-03-29T13:28:06Z</time>
      </trkpt>
      <trkpt lat="44.35209" lon="5.75615">
        <ele>599</ele>
        <time>2019-03-29T13:28:08Z</time>
      </trkpt>
      <trkpt lat="44.35215" lon="5.7561">
        <ele>599</ele>
        <time>2019-03-29T13:28:08Z</time>
      </trkpt>
      <trkpt lat="44.35221" lon="5.75606">
        <ele>599</ele>
        <time>2019-03-29T13:28:09Z</time>
      </trkpt>
      <trkpt lat="44.35228" lon="5.75601">
        <ele>599</ele>
        <time>2019-03-29T13:28:11Z</time>
      </trkpt>
      <trkpt lat="44.35234" lon="5.75597">
        <ele>599</ele>
        <time>2019-03-29T13:28:11Z</time>
      </trkpt>
      <trkpt lat="44.3524" lon="5.75592">
        <ele>599</ele>
        <time>2019-03-29T13:28:13Z</time>
      </trkpt>
      <trkpt lat="44.35246" lon="5.75588">
        <ele>599</ele>
        <time>2019-03-29T13:28:13Z</time>
      </trkpt>
      <trkpt lat="44.35252" lon="5.75583">
        <ele>599</ele>
        <time>2019-03-29T13:28:14Z</time>
      </trkpt>
      <trkpt lat="44.35259" lon="5.75579">
        <ele>599</ele>
        <time>2019-03-29T13:28:15Z</time>
      </trkpt>
      <trkpt lat="44.35265" lon="5.75575">
        <ele>599</ele>
        <time>2019-03-29T13:28:17Z</time>
      </trkpt>
      <trkpt lat="44.35271" lon="5.7557">
        <ele>599</ele>
        <time>2019-03-29T13:28:18Z</time>
      </trkpt>
      <trkpt lat="44.35278" lon="5.75566">
        <ele>599</ele>
        <time>2019-03-29T13:28:18Z</time>
      </trkpt>
      <trkpt lat="44.35284" lon="5.75562">
        <ele>599</ele>
        <time>2019-03-29T13:28:19Z</time>
      </trkpt>
      <trkpt lat="44.3529" lon="5.75558">
        <ele>599</ele>
        <time>2019-03-29T13:28:20Z</time>
      </trkpt>
      <trkpt lat="44.35296" lon="5.75554">
        <ele>599</ele>
        <time>2019-03-29T13:28:21Z</time>
      </trkpt>
      <trkpt lat="44.35302" lon="5.7555">
        <ele>599</ele>
        <time>2019-03-29T13:28:23Z</time>
      </trkpt>
      <trkpt lat="44.35308" lon="5.75547">
        <ele>599</ele>
        <time>2019-03-29T13:28:23Z</time>
      </trkpt>
      <trkpt lat="44.35315" lon="5.75543">
        <ele>599</ele>
        <time>2019-03-29T13:28:24Z</time>
      </trkpt>
      <trkpt lat="44.35321" lon="5.7554">
        <ele>599</ele>
        <time>2019-03-29T13:28:25Z</time>
      </trkpt>
      <trkpt lat="44.35327" lon="5.75536">
        <ele>599</ele>
        <time>2019-03-29T13:28:26Z</time>
      </trkpt>
      <trkpt lat="44.35333" lon="5.75533">
        <ele>599</ele>
        <time>2019-03-29T13:28:28Z</time>
      </trkpt>
      <trkpt lat="44.35339" lon="5.7553">
        <ele>599</ele>
        <time>2019-03-29T13:28:28Z</time>
      </trkpt>
      <trkpt lat="44.35345" lon="5.75526">
        <ele>599</ele>
        <time>2019-03-29T13:28:29Z</time>
      </trkpt>
      <trkpt lat="44.35352" lon="5.75523">
        <ele>599</ele>
        <time>2019-03-29T13:28:30Z</time>
      </trkpt>
      <trkpt lat="44.35358" lon="5.75519">
        <ele>599</ele>
        <time>2019-03-29T13:28:31Z</time>
      </trkpt>
      <trkpt lat="44.35364" lon="5.75515">
        <ele>599</ele>
        <time>2019-03-29T13:28:32Z</time>
      </trkpt>
      <trkpt lat="44.3537" lon="5.75511">
        <ele>599</ele>
        <time>2019-03-29T13:28:33Z</time>
      </trkpt>
      <trkpt lat="44.35376" lon="5.75507">
        <ele>599</ele>
        <time>2019-03-29T13:28:34Z</time>
      </trkpt>
      <trkpt lat="44.35383" lon="5.75503">
        <ele>599</ele>
        <time>2019-03-29T13:28:35Z</time>
      </trkpt>
      <trkpt lat="44.35389" lon="5.75499">
        <ele>599</ele>
        <time>2019-03-29T13:28:36Z</time>
      </trkpt>
      <trkpt lat="44.35395" lon="5.75494">
        <ele>599</ele>
        <time>2019-03-29T13:28:38Z</time>
      </trkpt>
      <trkpt lat="44.35401" lon="5.7549">
        <ele>599</ele>
        <time>2019-03-29T13:28:38Z</time>
      </trkpt>
      <trkpt lat="44.35407" lon="5.75485">
        <ele>599</ele>
        <time>2019-03-29T13:28:39Z</time>
      </trkpt>
      <trkpt lat="44.35413" lon="5.75481">
        <ele>599</ele>
        <time>2019-03-29T13:28:41Z</time>
      </trkpt>
      <trkpt lat="44.35418" lon="5.75476">
        <ele>599</ele>
        <time>2019-03-29T13:28:41Z</time>
      </trkpt>
      <trkpt lat="44.35424" lon="5.75471">
        <ele>599</ele>
        <time>2019-03-29T13:28:43Z</time>
      </trkpt>
      <trkpt lat="44.3543" lon="5.75466">
        <ele>599</ele>
        <time>2019-03-29T13:28:43Z</time>
      </trkpt>
      <trkpt lat="44.35435" lon="5.75461">
        <ele>599</ele>
        <time>2019-03-29T13:28:44Z</time>
      </trkpt>
      <trkpt lat="44.35441" lon="5.75456">
        <ele>599</ele>
        <time>2019-03-29T13:28:45Z</time>
      </trkpt>
      <trkpt lat="44.35447" lon="5.75451">
        <ele>599</ele>
        <time>2019-03-29T13:28:46Z</time>
      </trkpt>
      <trkpt lat="44.35452" lon="5.75446">
        <ele>599</ele>
        <time>2019-03-29T13:28:48Z</time>
      </trkpt>
      <trkpt lat="44.35457" lon="5.75441">
        <ele>599</ele>
        <time>2019-03-29T13:28:48Z</time>
      </trkpt>
      <trkpt lat="44.35462" lon="5.75435">
        <ele>599</ele>
        <time>2019-03-29T13:28:49Z</time>
      </trkpt>
      <trkpt lat="44.35468" lon="5.7543">
        <ele>599</ele>
        <time>2019-03-29T13:28:50Z</time>
      </trkpt>
      <trkpt lat="44.35473" lon="5.75425">
        <ele>599</ele>
        <time>2019-03-29T13:28:52Z</time>
      </trkpt>
      <trkpt lat="44.35479" lon="5.7542">
        <ele>599</ele>
        <time>2019-03-29T13:28:53Z</time>
      </trkpt>
      <trkpt lat="44.35484" lon="5.75416">
        <ele>599</ele>
        <time>2019-03-29T13:28:53Z</time>
      </trkpt>
      <trkpt lat="44.3549" lon="5.75412">
        <ele>599</ele>
        <time>2019-03-29T13:28:54Z</time>
      </trkpt>
      <trkpt lat="44.35495" lon="5.75407">
        <ele>599</ele>
        <time>2019-03-29T13:28:55Z</time>
      </trkpt>
      <trkpt lat="44.35501" lon="5.75403">
        <ele>599</ele>
        <time>2019-03-29T13:28:56Z</time>
      </trkpt>
      <trkpt lat="44.35506" lon="5.754">
        <ele>600</ele>
        <time>2019-03-29T13:28:58Z</time>
      </trkpt>
      <trkpt lat="44.35511" lon="5.75396">
        <ele>600</ele>
        <time>2019-03-29T13:28:58Z</time>
      </trkpt>
      <trkpt lat="44.35516" lon="5.75393">
        <ele>600</ele>
        <time>2019-03-29T13:28:59Z</time>
      </trkpt>
      <trkpt lat="44.35521" lon="5.7539">
        <ele>601</ele>
        <time>2019-03-29T13:29:00Z</time>
      </trkpt>
      <trkpt lat="44.35525" lon="5.75386">
        <ele>601</ele>
        <time>2019-03-29T13:29:01Z</time>
      </trkpt>
      <trkpt lat="44.3553" lon="5.75383">
        <ele>602</ele>
        <time>2019-03-29T13:29:03Z</time>
      </trkpt>
      <trkpt lat="44.35535" lon="5.7538">
        <ele>602</ele>
        <time>2019-03-29T13:29:03Z</time>
      </trkpt>
      <trkpt lat="44.3554" lon="5.75377">
        <ele>603</ele>
        <time>2019-03-29T13:29:04Z</time>
      </trkpt>
      <trkpt lat="44.35545" lon="5.75374">
        <ele>603</ele>
        <time>2019-03-29T13:29:05Z</time>
      </trkpt>
      <trkpt lat="44.35549" lon="5.75371">
        <ele>603</ele>
        <time>2019-03-29T13:29:06Z</time>
      </trkpt>
      <trkpt lat="44.35554" lon="5.75367">
        <ele>603</ele>
        <time>2019-03-29T13:29:07Z</time>
      </trkpt>
      <trkpt lat="44.35559" lon="5.75363">
        <ele>604</ele>
        <time>2019-03-29T13:29:08Z</time>
      </trkpt>
      <trkpt lat="44.35564" lon="5.7536">
        <ele>604</ele>
        <time>2019-03-29T13:29:09Z</time>
      </trkpt>
      <trkpt lat="44.35569" lon="5.75357">
        <ele>604</ele>
        <time>2019-03-29T13:29:10Z</time>
      </trkpt>
      <trkpt lat="44.35574" lon="5.75354">
        <ele>604</ele>
        <time>2019-03-29T13:29:11Z</time>
      </trkpt>
      <trkpt lat="44.35579" lon="5.75352">
        <ele>605</ele>
        <time>2019-03-29T13:29:12Z</time>
      </trkpt>
      <trkpt lat="44.35584" lon="5.75349">
        <ele>605</ele>
        <time>2019-03-29T13:29:13Z</time>
      </trkpt>
      <trkpt lat="44.35589" lon="5.75347">
        <ele>605</ele>
        <time>2019-03-29T13:29:14Z</time>
      </trkpt>
      <trkpt lat="44.35595" lon="5.75344">
        <ele>605</ele>
        <time>2019-03-29T13:29:15Z</time>
      </trkpt>
      <trkpt lat="44.356" lon="5.75342">
        <ele>605</ele>
        <time>2019-03-29T13:29:16Z</time>
      </trkpt>
      <trkpt lat="44.35605" lon="5.75339">
        <ele>605</ele>
        <time>2019-03-29T13:29:17Z</time>
      </trkpt>
      <trkpt lat="44.3561" lon="5.75336">
        <ele>606</ele>
        <time>2019-03-29T13:29:18Z</time>
      </trkpt>
      <trkpt lat="44.35615" lon="5.75332">
        <ele>606</ele>
        <time>2019-03-29T13:29:19Z</time>
      </trkpt>
      <trkpt lat="44.3562" lon="5.75329">
        <ele>606</ele>
        <time>2019-03-29T13:29:20Z</time>
      </trkpt>
      <trkpt lat="44.35625" lon="5.75325">
        <ele>606</ele>
        <time>2019-03-29T13:29:21Z</time>
      </trkpt>
      <trkpt lat="44.3563" lon="5.7532">
        <ele>606</ele>
        <time>2019-03-29T13:29:23Z</time>
      </trkpt>
      <trkpt lat="44.35634" lon="5.75316">
        <ele>606</ele>
        <time>2019-03-29T13:29:23Z</time>
      </trkpt>
      <trkpt lat="44.35639" lon="5.75311">
        <ele>606</ele>
        <time>2019-03-29T13:29:24Z</time>
      </trkpt>
      <trkpt lat="44.35644" lon="5.75306">
        <ele>606</ele>
        <time>2019-03-29T13:29:25Z</time>
      </trkpt>
      <trkpt lat="44.35648" lon="5.75301">
        <ele>606</ele>
        <time>2019-03-29T13:29:26Z</time>
      </trkpt>
      <trkpt lat="44.35653" lon="5.75296">
        <ele>607</ele>
        <time>2019-03-29T13:29:27Z</time>
      </trkpt>
      <trkpt lat="44.35658" lon="5.75291">
        <ele>607</ele>
        <time>2019-03-29T13:29:28Z</time>
      </trkpt>
      <trkpt lat="44.35662" lon="5.75286">
        <ele>607</ele>
        <time>2019-03-29T13:29:29Z</time>
      </trkpt>
      <trkpt lat="44.35667" lon="5.75281">
        <ele>607</ele>
        <time>2019-03-29T13:29:30Z</time>
      </trkpt>
      <trkpt lat="44.35672" lon="5.75276">
        <ele>607</ele>
        <time>2019-03-29T13:29:31Z</time>
      </trkpt>
      <trkpt lat="44.35677" lon="5.75271">
        <ele>607</ele>
        <time>2019-03-29T13:29:32Z</time>
      </trkpt>
      <trkpt lat="44.35682" lon="5.75266">
        <ele>608</ele>
        <time>2019-03-29T13:29:33Z</time>
      </trkpt>
      <trkpt lat="44.35686" lon="5.75261">
        <ele>608</ele>
        <time>2019-03-29T13:29:34Z</time>
      </trkpt>
      <trkpt lat="44.35691" lon="5.75256">
        <ele>608</ele>
        <time>2019-03-29T13:29:35Z</time>
      </trkpt>
      <trkpt lat="44.35696" lon="5.75251">
        <ele>608</ele>
        <time>2019-03-29T13:29:36Z</time>
      </trkpt>
      <trkpt lat="44.357" lon="5.75246">
        <ele>608</ele>
        <time>2019-03-29T13:29:37Z</time>
      </trkpt>
      <trkpt lat="44.35704" lon="5.75242">
        <ele>608</ele>
        <time>2019-03-29T13:29:38Z</time>
      </trkpt>
      <trkpt lat="44.35709" lon="5.75237">
        <ele>608</ele>
        <time>2019-03-29T13:29:39Z</time>
      </trkpt>
      <trkpt lat="44.35713" lon="5.75233">
        <ele>609</ele>
        <time>2019-03-29T13:29:40Z</time>
      </trkpt>
      <trkpt lat="44.35717" lon="5.75228">
        <ele>609</ele>
        <time>2019-03-29T13:29:41Z</time>
      </trkpt>
      <trkpt lat="44.35721" lon="5.75223">
        <ele>609</ele>
        <time>2019-03-29T13:29:42Z</time>
      </trkpt>
      <trkpt lat="44.35726" lon="5.75218">
        <ele>609</ele>
        <time>2019-03-29T13:29:43Z</time>
      </trkpt>
      <trkpt lat="44.35731" lon="5.75213">
        <ele>609</ele>
        <time>2019-03-29T13:29:44Z</time>
      </trkpt>
      <trkpt lat="44.35736" lon="5.75208">
        <ele>609</ele>
        <time>2019-03-29T13:29:45Z</time>
      </trkpt>
      <trkpt lat="44.35742" lon="5.75203">
        <ele>609</ele>
        <time>2019-03-29T13:29:46Z</time>
      </trkpt>
      <trkpt lat="44.35749" lon="5.75198">
        <ele>609</ele>
        <time>2019-03-29T13:29:47Z</time>
      </trkpt>
      <trkpt lat="44.35755" lon="5.75193">
        <ele>609</ele>
        <time>2019-03-29T13:29:48Z</time>
      </trkpt>
      <trkpt lat="44.35762" lon="5.7519">
        <ele>609</ele>
        <time>2019-03-29T13:29:49Z</time>
      </trkpt>
      <trkpt lat="44.35769" lon="5.75187">
        <ele>609</ele>
        <time>2019-03-29T13:29:50Z</time>
      </trkpt>
      <trkpt lat="44.35775" lon="5.75185">
        <ele>609</ele>
        <time>2019-03-29T13:29:52Z</time>
      </trkpt>
      <trkpt lat="44.35781" lon="5.75183">
        <ele>609</ele>
        <time>2019-03-29T13:29:52Z</time>
      </trkpt>
      <trkpt lat="44.35787" lon="5.75182">
        <ele>609</ele>
        <time>2019-03-29T13:29:53Z</time>
      </trkpt>
      <trkpt lat="44.35793" lon="5.75181">
        <ele>609</ele>
        <time>2019-03-29T13:29:54Z</time>
      </trkpt>
      <trkpt lat="44.35799" lon="5.7518">
        <ele>609</ele>
        <time>2019-03-29T13:29:55Z</time>
      </trkpt>
      <trkpt lat="44.35805" lon="5.75179">
        <ele>609</ele>
        <time>2019-03-29T13:29:56Z</time>
      </trkpt>
      <trkpt lat="44.35811" lon="5.75178">
        <ele>609</ele>
        <time>2019-03-29T13:29:57Z</time>
      </trkpt>
      <trkpt lat="44.35817" lon="5.75176">
        <ele>609</ele>
        <time>2019-03-29T13:29:58Z</time>
      </trkpt>
      <trkpt lat="44.35823" lon="5.75174">
        <ele>609</ele>
        <time>2019-03-29T13:29:59Z</time>
      </trkpt>
      <trkpt lat="44.3583" lon="5.75171">
        <ele>609</ele>
        <time>2019-03-29T13:30:00Z</time>
      </trkpt>
      <trkpt lat="44.35836" lon="5.75168">
        <ele>609</ele>
        <time>2019-03-29T13:30:01Z</time>
      </trkpt>
      <trkpt lat="44.35842" lon="5.75164">
        <ele>609</ele>
        <time>2019-03-29T13:30:02Z</time>
      </trkpt>
      <trkpt lat="44.35848" lon="5.7516">
        <ele>609</ele>
        <time>2019-03-29T13:30:03Z</time>
      </trkpt>
      <trkpt lat="44.35854" lon="5.75156">
        <ele>609</ele>
        <time>2019-03-29T13:30:04Z</time>
      </trkpt>
      <trkpt lat="44.3586" lon="5.75151">
        <ele>609</ele>
        <time>2019-03-29T13:30:05Z</time>
      </trkpt>
      <trkpt lat="44.35866" lon="5.75147">
        <ele>609</ele>
        <time>2019-03-29T13:30:06Z</time>
      </trkpt>
      <trkpt lat="44.35872" lon="5.75143">
        <ele>609</ele>
        <time>2019-03-29T13:30:07Z</time>
      </trkpt>
      <trkpt lat="44.35878" lon="5.75139">
        <ele>609</ele>
        <time>2019-03-29T13:30:08Z</time>
      </trkpt>
      <trkpt lat="44.35884" lon="5.75134">
        <ele>609</ele>
        <time>2019-03-29T13:30:09Z</time>
      </trkpt>
      <trkpt lat="44.35891" lon="5.7513">
        <ele>609</ele>
        <time>2019-03-29T13:30:10Z</time>
      </trkpt>
      <trkpt lat="44.35897" lon="5.75125">
        <ele>609</ele>
        <time>2019-03-29T13:30:11Z</time>
      </trkpt>
      <trkpt lat="44.35903" lon="5.7512">
        <ele>609</ele>
        <time>2019-03-29T13:30:12Z</time>
      </trkpt>
      <trkpt lat="44.35909" lon="5.75115">
        <ele>609</ele>
        <time>2019-03-29T13:30:13Z</time>
      </trkpt>
      <trkpt lat="44.35914" lon="5.75109">
        <ele>609</ele>
        <time>2019-03-29T13:30:14Z</time>
      </trkpt>
      <trkpt lat="44.3592" lon="5.75104">
        <ele>609</ele>
        <time>2019-03-29T13:30:15Z</time>
      </trkpt>
      <trkpt lat="44.35925" lon="5.75099">
        <ele>609</ele>
        <time>2019-03-29T13:30:16Z</time>
      </trkpt>
      <trkpt lat="44.3593" lon="5.75093">
        <ele>609</ele>
        <time>2019-03-29T13:30:17Z</time>
      </trkpt>
      <trkpt lat="44.35935" lon="5.75088">
        <ele>609</ele>
        <time>2019-03-29T13:30:18Z</time>
      </trkpt>
      <trkpt lat="44.3594" lon="5.75083">
        <ele>609</ele>
        <time>2019-03-29T13:30:19Z</time>
      </trkpt>
      <trkpt lat="44.35946" lon="5.75078">
        <ele>609</ele>
        <time>2019-03-29T13:30:20Z</time>
      </trkpt>
      <trkpt lat="44.35952" lon="5.75074">
        <ele>609</ele>
        <time>2019-03-29T13:30:21Z</time>
      </trkpt>
      <trkpt lat="44.35957" lon="5.75069">
        <ele>609</ele>
        <time>2019-03-29T13:30:22Z</time>
      </trkpt>
      <trkpt lat="44.35963" lon="5.75065">
        <ele>609</ele>
        <time>2019-03-29T13:30:23Z</time>
      </trkpt>
      <trkpt lat="44.35969" lon="5.7506">
        <ele>609</ele>
        <time>2019-03-29T13:30:24Z</time>
      </trkpt>
      <trkpt lat="44.35975" lon="5.75056">
        <ele>609</ele>
        <time>2019-03-29T13:30:25Z</time>
      </trkpt>
      <trkpt lat="44.35981" lon="5.75052">
        <ele>609</ele>
        <time>2019-03-29T13:30:26Z</time>
      </trkpt>
      <trkpt lat="44.35987" lon="5.75048">
        <ele>609</ele>
        <time>2019-03-29T13:30:27Z</time>
      </trkpt>
      <trkpt lat="44.35993" lon="5.75044">
        <ele>609</ele>
        <time>2019-03-29T13:30:28Z</time>
      </trkpt>
      <trkpt lat="44.35999" lon="5.7504">
        <ele>609</ele>
        <time>2019-03-29T13:30:29Z</time>
      </trkpt>
      <trkpt lat="44.36005" lon="5.75036">
        <ele>609</ele>
        <time>2019-03-29T13:30:30Z</time>
      </trkpt>
      <trkpt lat="44.36012" lon="5.75032">
        <ele>609</ele>
        <time>2019-03-29T13:30:31Z</time>
      </trkpt>
      <trkpt lat="44.36018" lon="5.75027">
        <ele>609</ele>
        <time>2019-03-29T13:30:32Z</time>
      </trkpt>
      <trkpt lat="44.36024" lon="5.75023">
        <ele>609</ele>
        <time>2019-03-29T13:30:33Z</time>
      </trkpt>
      <trkpt lat="44.3603" lon="5.75019">
        <ele>609</ele>
        <time>2019-03-29T13:30:34Z</time>
      </trkpt>
      <trkpt lat="44.36036" lon="5.75015">
        <ele>609</ele>
        <time>2019-03-29T13:30:35Z</time>
      </trkpt>
      <trkpt lat="44.36042" lon="5.75012">
        <ele>609</ele>
        <time>2019-03-29T13:30:36Z</time>
      </trkpt>
      <trkpt lat="44.36048" lon="5.75008">
        <ele>609</ele>
        <time>2019-03-29T13:30:37Z</time>
      </trkpt>
      <trkpt lat="44.36054" lon="5.75004">
        <ele>609</ele>
        <time>2019-03-29T13:30:38Z</time>
      </trkpt>
      <trkpt lat="44.3606" lon="5.75">
        <ele>609</ele>
        <time>2019-03-29T13:30:39Z</time>
      </trkpt>
      <trkpt lat="44.36066" lon="5.74996">
        <ele>609</ele>
        <time>2019-03-29T13:30:40Z</time>
      </trkpt>
      <trkpt lat="44.36072" lon="5.74992">
        <ele>609</ele>
        <time>2019-03-29T13:30:41Z</time>
      </trkpt>
      <trkpt lat="44.36078" lon="5.74987">
        <ele>609</ele>
        <time>2019-03-29T13:30:42Z</time>
      </trkpt>
      <trkpt lat="44.36084" lon="5.74983">
        <ele>609</ele>
        <time>2019-03-29T13:30:43Z</time>
      </trkpt>
      <trkpt lat="44.36089" lon="5.74979">
        <ele>609</ele>
        <time>2019-03-29T13:30:44Z</time>
      </trkpt>
      <trkpt lat="44.36094" lon="5.74975">
        <ele>609</ele>
        <time>2019-03-29T13:30:45Z</time>
      </trkpt>
      <trkpt lat="44.361" lon="5.7497">
        <ele>609</ele>
        <time>2019-03-29T13:30:46Z</time>
      </trkpt>
      <trkpt lat="44.36105" lon="5.74966">
        <ele>609</ele>
        <time>2019-03-29T13:30:47Z</time>
      </trkpt>
      <trkpt lat="44.36111" lon="5.74961">
        <ele>609</ele>
        <time>2019-03-29T13:30:48Z</time>
      </trkpt>
      <trkpt lat="44.36117" lon="5.74957">
        <ele>609</ele>
        <time>2019-03-29T13:30:49Z</time>
      </trkpt>
      <trkpt lat="44.36123" lon="5.74952">
        <ele>609</ele>
        <time>2019-03-29T13:30:50Z</time>
      </trkpt>
      <trkpt lat="44.36128" lon="5.74948">
        <ele>609</ele>
        <time>2019-03-29T13:30:52Z</time>
      </trkpt>
      <trkpt lat="44.36134" lon="5.74943">
        <ele>609</ele>
        <time>2019-03-29T13:30:52Z</time>
      </trkpt>
      <trkpt lat="44.3614" lon="5.74938">
        <ele>609</ele>
        <time>2019-03-29T13:30:53Z</time>
      </trkpt>
      <trkpt lat="44.36146" lon="5.74933">
        <ele>609</ele>
        <time>2019-03-29T13:30:54Z</time>
      </trkpt>
      <trkpt lat="44.36152" lon="5.74928">
        <ele>609</ele>
        <time>2019-03-29T13:30:55Z</time>
      </trkpt>
      <trkpt lat="44.36158" lon="5.74924">
        <ele>609</ele>
        <time>2019-03-29T13:30:56Z</time>
      </trkpt>
      <trkpt lat="44.36163" lon="5.74919">
        <ele>609</ele>
        <time>2019-03-29T13:30:57Z</time>
      </trkpt>
      <trkpt lat="44.36169" lon="5.74914">
        <ele>609</ele>
        <time>2019-03-29T13:30:58Z</time>
      </trkpt>
      <trkpt lat="44.36175" lon="5.74909">
        <ele>609</ele>
        <time>2019-03-29T13:30:59Z</time>
      </trkpt>
      <trkpt lat="44.3618" lon="5.74904">
        <ele>609</ele>
        <time>2019-03-29T13:31:00Z</time>
      </trkpt>
      <trkpt lat="44.36185" lon="5.74899">
        <ele>609</ele>
        <time>2019-03-29T13:31:01Z</time>
      </trkpt>
      <trkpt lat="44.36191" lon="5.74895">
        <ele>609</ele>
        <time>2019-03-29T13:31:02Z</time>
      </trkpt>
      <trkpt lat="44.36197" lon="5.7489">
        <ele>609</ele>
        <time>2019-03-29T13:31:03Z</time>
      </trkpt>
      <trkpt lat="44.36202" lon="5.74886">
        <ele>609</ele>
        <time>2019-03-29T13:31:04Z</time>
      </trkpt>
      <trkpt lat="44.36208" lon="5.7488">
        <ele>609</ele>
        <time>2019-03-29T13:31:05Z</time>
      </trkpt>
      <trkpt lat="44.36213" lon="5.74875">
        <ele>609</ele>
        <time>2019-03-29T13:31:06Z</time>
      </trkpt>
      <trkpt lat="44.36219" lon="5.74868">
        <ele>609</ele>
        <time>2019-03-29T13:31:07Z</time>
      </trkpt>
      <trkpt lat="44.36224" lon="5.74862">
        <ele>609</ele>
        <time>2019-03-29T13:31:08Z</time>
      </trkpt>
      <trkpt lat="44.3623" lon="5.74855">
        <ele>609</ele>
        <time>2019-03-29T13:31:09Z</time>
      </trkpt>
      <trkpt lat="44.36237" lon="5.7485">
        <ele>609</ele>
        <time>2019-03-29T13:31:10Z</time>
      </trkpt>
      <trkpt lat="44.36243" lon="5.74845">
        <ele>609</ele>
        <time>2019-03-29T13:31:11Z</time>
      </trkpt>
      <trkpt lat="44.36249" lon="5.74839">
        <ele>609</ele>
        <time>2019-03-29T13:31:12Z</time>
      </trkpt>
      <trkpt lat="44.36255" lon="5.74834">
        <ele>609</ele>
        <time>2019-03-29T13:31:13Z</time>
      </trkpt>
      <trkpt lat="44.36261" lon="5.74828">
        <ele>609</ele>
        <time>2019-03-29T13:31:14Z</time>
      </trkpt>
      <trkpt lat="44.36266" lon="5.74822">
        <ele>609</ele>
        <time>2019-03-29T13:31:15Z</time>
      </trkpt>
      <trkpt lat="44.36272" lon="5.74816">
        <ele>609</ele>
        <time>2019-03-29T13:31:16Z</time>
      </trkpt>
      <trkpt lat="44.36277" lon="5.7481">
        <ele>609</ele>
        <time>2019-03-29T13:31:17Z</time>
      </trkpt>
      <trkpt lat="44.36282" lon="5.74804">
        <ele>609</ele>
        <time>2019-03-29T13:31:18Z</time>
      </trkpt>
      <trkpt lat="44.36287" lon="5.74799">
        <ele>610</ele>
        <time>2019-03-29T13:31:19Z</time>
      </trkpt>
      <trkpt lat="44.36292" lon="5.74793">
        <ele>610</ele>
        <time>2019-03-29T13:31:20Z</time>
      </trkpt>
      <trkpt lat="44.36297" lon="5.74788">
        <ele>610</ele>
        <time>2019-03-29T13:31:21Z</time>
      </trkpt>
      <trkpt lat="44.36302" lon="5.74783">
        <ele>610</ele>
        <time>2019-03-29T13:31:22Z</time>
      </trkpt>
      <trkpt lat="44.36307" lon="5.74777">
        <ele>610</ele>
        <time>2019-03-29T13:31:23Z</time>
      </trkpt>
      <trkpt lat="44.36311" lon="5.74772">
        <ele>610</ele>
        <time>2019-03-29T13:31:24Z</time>
      </trkpt>
      <trkpt lat="44.36316" lon="5.74766">
        <ele>610</ele>
        <time>2019-03-29T13:31:25Z</time>
      </trkpt>
      <trkpt lat="44.36321" lon="5.74761">
        <ele>611</ele>
        <time>2019-03-29T13:31:26Z</time>
      </trkpt>
      <trkpt lat="44.36326" lon="5.74756">
        <ele>611</ele>
        <time>2019-03-29T13:31:27Z</time>
      </trkpt>
      <trkpt lat="44.36331" lon="5.74751">
        <ele>611</ele>
        <time>2019-03-29T13:31:28Z</time>
      </trkpt>
      <trkpt lat="44.36336" lon="5.74745">
        <ele>611</ele>
        <time>2019-03-29T13:31:29Z</time>
      </trkpt>
      <trkpt lat="44.36342" lon="5.7474">
        <ele>611</ele>
        <time>2019-03-29T13:31:30Z</time>
      </trkpt>
      <trkpt lat="44.36348" lon="5.74735">
        <ele>611</ele>
        <time>2019-03-29T13:31:31Z</time>
      </trkpt>
      <trkpt lat="44.36354" lon="5.7473">
        <ele>611</ele>
        <time>2019-03-29T13:31:32Z</time>
      </trkpt>
      <trkpt lat="44.36359" lon="5.74726">
        <ele>611</ele>
        <time>2019-03-29T13:31:33Z</time>
      </trkpt>
      <trkpt lat="44.36366" lon="5.74721">
        <ele>611</ele>
        <time>2019-03-29T13:31:34Z</time>
      </trkpt>
      <trkpt lat="44.36372" lon="5.74717">
        <ele>611</ele>
        <time>2019-03-29T13:31:35Z</time>
      </trkpt>
      <trkpt lat="44.36378" lon="5.74713">
        <ele>611</ele>
        <time>2019-03-29T13:31:36Z</time>
      </trkpt>
      <trkpt lat="44.36384" lon="5.74709">
        <ele>611</ele>
        <time>2019-03-29T13:31:37Z</time>
      </trkpt>
      <trkpt lat="44.3639" lon="5.74705">
        <ele>611</ele>
        <time>2019-03-29T13:31:38Z</time>
      </trkpt>
      <trkpt lat="44.36396" lon="5.74701">
        <ele>611</ele>
        <time>2019-03-29T13:31:39Z</time>
      </trkpt>
      <trkpt lat="44.36403" lon="5.74697">
        <ele>611</ele>
        <time>2019-03-29T13:31:40Z</time>
      </trkpt>
      <trkpt lat="44.36409" lon="5.74693">
        <ele>611</ele>
        <time>2019-03-29T13:31:41Z</time>
      </trkpt>
      <trkpt lat="44.36414" lon="5.74689">
        <ele>611</ele>
        <time>2019-03-29T13:31:42Z</time>
      </trkpt>
      <trkpt lat="44.3642" lon="5.74685">
        <ele>611</ele>
        <time>2019-03-29T13:31:43Z</time>
      </trkpt>
      <trkpt lat="44.36426" lon="5.7468">
        <ele>611</ele>
        <time>2019-03-29T13:31:44Z</time>
      </trkpt>
      <trkpt lat="44.36432" lon="5.74676">
        <ele>611</ele>
        <time>2019-03-29T13:31:45Z</time>
      </trkpt>
      <trkpt lat="44.36438" lon="5.74672">
        <ele>611</ele>
        <time>2019-03-29T13:31:46Z</time>
      </trkpt>
      <trkpt lat="44.36444" lon="5.74668">
        <ele>611</ele>
        <time>2019-03-29T13:31:47Z</time>
      </trkpt>
      <trkpt lat="44.3645" lon="5.74664">
        <ele>611</ele>
        <time>2019-03-29T13:31:48Z</time>
      </trkpt>
      <trkpt lat="44.36456" lon="5.74659">
        <ele>611</ele>
        <time>2019-03-29T13:31:49Z</time>
      </trkpt>
      <trkpt lat="44.36462" lon="5.74655">
        <ele>611</ele>
        <time>2019-03-29T13:31:50Z</time>
      </trkpt>
      <trkpt lat="44.36468" lon="5.74651">
        <ele>611</ele>
        <time>2019-03-29T13:31:52Z</time>
      </trkpt>
      <trkpt lat="44.36474" lon="5.74647">
        <ele>611</ele>
        <time>2019-03-29T13:31:52Z</time>
      </trkpt>
      <trkpt lat="44.3648" lon="5.74643">
        <ele>611</ele>
        <time>2019-03-29T13:31:53Z</time>
      </trkpt>
      <trkpt lat="44.36486" lon="5.74639">
        <ele>611</ele>
        <time>2019-03-29T13:31:54Z</time>
      </trkpt>
      <trkpt lat="44.36492" lon="5.74635">
        <ele>612</ele>
        <time>2019-03-29T13:31:55Z</time>
      </trkpt>
      <trkpt lat="44.36497" lon="5.7463">
        <ele>612</ele>
        <time>2019-03-29T13:31:56Z</time>
      </trkpt>
      <trkpt lat="44.36503" lon="5.74626">
        <ele>612</ele>
        <time>2019-03-29T13:31:57Z</time>
      </trkpt>
      <trkpt lat="44.36509" lon="5.74621">
        <ele>612</ele>
        <time>2019-03-29T13:31:58Z</time>
      </trkpt>
      <trkpt lat="44.36514" lon="5.74616">
        <ele>612</ele>
        <time>2019-03-29T13:31:59Z</time>
      </trkpt>
      <trkpt lat="44.3652" lon="5.74612">
        <ele>612</ele>
        <time>2019-03-29T13:32:00Z</time>
      </trkpt>
      <trkpt lat="44.36525" lon="5.74607">
        <ele>612</ele>
        <time>2019-03-29T13:32:01Z</time>
      </trkpt>
      <trkpt lat="44.36531" lon="5.74602">
        <ele>612</ele>
        <time>2019-03-29T13:32:02Z</time>
      </trkpt>
      <trkpt lat="44.36536" lon="5.74597">
        <ele>612</ele>
        <time>2019-03-29T13:32:03Z</time>
      </trkpt>
      <trkpt lat="44.36542" lon="5.74592">
        <ele>612</ele>
        <time>2019-03-29T13:32:04Z</time>
      </trkpt>
      <trkpt lat="44.36547" lon="5.74586">
        <ele>612</ele>
        <time>2019-03-29T13:32:05Z</time>
      </trkpt>
      <trkpt lat="44.36552" lon="5.74581">
        <ele>612</ele>
        <time>2019-03-29T13:32:06Z</time>
      </trkpt>
      <trkpt lat="44.36557" lon="5.74575">
        <ele>613</ele>
        <time>2019-03-29T13:32:07Z</time>
      </trkpt>
      <trkpt lat="44.36561" lon="5.7457">
        <ele>613</ele>
        <time>2019-03-29T13:32:08Z</time>
      </trkpt>
      <trkpt lat="44.36566" lon="5.74565">
        <ele>613</ele>
        <time>2019-03-29T13:32:09Z</time>
      </trkpt>
      <trkpt lat="44.36572" lon="5.74559">
        <ele>613</ele>
        <time>2019-03-29T13:32:10Z</time>
      </trkpt>
      <trkpt lat="44.36577" lon="5.74554">
        <ele>613</ele>
        <time>2019-03-29T13:32:11Z</time>
      </trkpt>
      <trkpt lat="44.36582" lon="5.74548">
        <ele>613</ele>
        <time>2019-03-29T13:32:12Z</time>
      </trkpt>
      <trkpt lat="44.36587" lon="5.74543">
        <ele>613</ele>
        <time>2019-03-29T13:32:13Z</time>
      </trkpt>
      <trkpt lat="44.36592" lon="5.74537">
        <ele>613</ele>
        <time>2019-03-29T13:32:14Z</time>
      </trkpt>
      <trkpt lat="44.36597" lon="5.74531">
        <ele>613</ele>
        <time>2019-03-29T13:32:15Z</time>
      </trkpt>
      <trkpt lat="44.36602" lon="5.74526">
        <ele>613</ele>
        <time>2019-03-29T13:32:16Z</time>
      </trkpt>
      <trkpt lat="44.36607" lon="5.7452">
        <ele>613</ele>
        <time>2019-03-29T13:32:17Z</time>
      </trkpt>
      <trkpt lat="44.36613" lon="5.74515">
        <ele>613</ele>
        <time>2019-03-29T13:32:18Z</time>
      </trkpt>
      <trkpt lat="44.36618" lon="5.74509">
        <ele>613</ele>
        <time>2019-03-29T13:32:19Z</time>
      </trkpt>
      <trkpt lat="44.36623" lon="5.74503">
        <ele>613</ele>
        <time>2019-03-29T13:32:20Z</time>
      </trkpt>
      <trkpt lat="44.36628" lon="5.74497">
        <ele>613</ele>
        <time>2019-03-29T13:32:21Z</time>
      </trkpt>
      <trkpt lat="44.36634" lon="5.74491">
        <ele>613</ele>
        <time>2019-03-29T13:32:22Z</time>
      </trkpt>
      <trkpt lat="44.36639" lon="5.74485">
        <ele>613</ele>
        <time>2019-03-29T13:32:23Z</time>
      </trkpt>
      <trkpt lat="44.36644" lon="5.7448">
        <ele>613</ele>
        <time>2019-03-29T13:32:24Z</time>
      </trkpt>
      <trkpt lat="44.3665" lon="5.74475">
        <ele>613</ele>
        <time>2019-03-29T13:32:25Z</time>
      </trkpt>
      <trkpt lat="44.36655" lon="5.7447">
        <ele>613</ele>
        <time>2019-03-29T13:32:26Z</time>
      </trkpt>
      <trkpt lat="44.36661" lon="5.74465">
        <ele>613</ele>
        <time>2019-03-29T13:32:27Z</time>
      </trkpt>
      <trkpt lat="44.36667" lon="5.7446">
        <ele>613</ele>
        <time>2019-03-29T13:32:28Z</time>
      </trkpt>
      <trkpt lat="44.36673" lon="5.74455">
        <ele>613</ele>
        <time>2019-03-29T13:32:29Z</time>
      </trkpt>
      <trkpt lat="44.36679" lon="5.74451">
        <ele>613</ele>
        <time>2019-03-29T13:32:30Z</time>
      </trkpt>
      <trkpt lat="44.36685" lon="5.74447">
        <ele>613</ele>
        <time>2019-03-29T13:32:31Z</time>
      </trkpt>
      <trkpt lat="44.36691" lon="5.74444">
        <ele>613</ele>
        <time>2019-03-29T13:32:32Z</time>
      </trkpt>
      <trkpt lat="44.36697" lon="5.7444">
        <ele>613</ele>
        <time>2019-03-29T13:32:33Z</time>
      </trkpt>
      <trkpt lat="44.36702" lon="5.74437">
        <ele>613</ele>
        <time>2019-03-29T13:32:34Z</time>
      </trkpt>
      <trkpt lat="44.36708" lon="5.74433">
        <ele>613</ele>
        <time>2019-03-29T13:32:35Z</time>
      </trkpt>
      <trkpt lat="44.36714" lon="5.74429">
        <ele>613</ele>
        <time>2019-03-29T13:32:36Z</time>
      </trkpt>
      <trkpt lat="44.36721" lon="5.74426">
        <ele>613</ele>
        <time>2019-03-29T13:32:37Z</time>
      </trkpt>
      <trkpt lat="44.36727" lon="5.74422">
        <ele>613</ele>
        <time>2019-03-29T13:32:38Z</time>
      </trkpt>
      <trkpt lat="44.36733" lon="5.74419">
        <ele>613</ele>
        <time>2019-03-29T13:32:39Z</time>
      </trkpt>
      <trkpt lat="44.36739" lon="5.74416">
        <ele>613</ele>
        <time>2019-03-29T13:32:40Z</time>
      </trkpt>
      <trkpt lat="44.36745" lon="5.74413">
        <ele>613</ele>
        <time>2019-03-29T13:32:41Z</time>
      </trkpt>
      <trkpt lat="44.36751" lon="5.74409">
        <ele>613</ele>
        <time>2019-03-29T13:32:42Z</time>
      </trkpt>
      <trkpt lat="44.36757" lon="5.74405">
        <ele>613</ele>
        <time>2019-03-29T13:32:43Z</time>
      </trkpt>
      <trkpt lat="44.36762" lon="5.744">
        <ele>613</ele>
        <time>2019-03-29T13:32:44Z</time>
      </trkpt>
      <trkpt lat="44.36767" lon="5.74394">
        <ele>613</ele>
        <time>2019-03-29T13:32:45Z</time>
      </trkpt>
      <trkpt lat="44.36772" lon="5.74388">
        <ele>613</ele>
        <time>2019-03-29T13:32:46Z</time>
      </trkpt>
      <trkpt lat="44.36776" lon="5.74381">
        <ele>613</ele>
        <time>2019-03-29T13:32:47Z</time>
      </trkpt>
      <trkpt lat="44.36781" lon="5.74375">
        <ele>613</ele>
        <time>2019-03-29T13:32:48Z</time>
      </trkpt>
      <trkpt lat="44.36785" lon="5.74368">
        <ele>613</ele>
        <time>2019-03-29T13:32:49Z</time>
      </trkpt>
      <trkpt lat="44.36789" lon="5.7436">
        <ele>613</ele>
        <time>2019-03-29T13:32:50Z</time>
      </trkpt>
      <trkpt lat="44.36792" lon="5.74352">
        <ele>613</ele>
        <time>2019-03-29T13:32:52Z</time>
      </trkpt>
      <trkpt lat="44.36796" lon="5.74345">
        <ele>613</ele>
        <time>2019-03-29T13:32:52Z</time>
      </trkpt>
      <trkpt lat="44.368" lon="5.74337">
        <ele>613</ele>
        <time>2019-03-29T13:32:53Z</time>
      </trkpt>
      <trkpt lat="44.36805" lon="5.7433">
        <ele>613</ele>
        <time>2019-03-29T13:32:54Z</time>
      </trkpt>
      <trkpt lat="44.36809" lon="5.74323">
        <ele>613</ele>
        <time>2019-03-29T13:32:55Z</time>
      </trkpt>
      <trkpt lat="44.36813" lon="5.74316">
        <ele>613</ele>
        <time>2019-03-29T13:32:56Z</time>
      </trkpt>
      <trkpt lat="44.36818" lon="5.7431">
        <ele>614</ele>
        <time>2019-03-29T13:32:57Z</time>
      </trkpt>
      <trkpt lat="44.36824" lon="5.74305">
        <ele>614</ele>
        <time>2019-03-29T13:32:58Z</time>
      </trkpt>
      <trkpt lat="44.3683" lon="5.74301">
        <ele>614</ele>
        <time>2019-03-29T13:32:59Z</time>
      </trkpt>
      <trkpt lat="44.36836" lon="5.74298">
        <ele>614</ele>
        <time>2019-03-29T13:33:00Z</time>
      </trkpt>
      <trkpt lat="44.36842" lon="5.74295">
        <ele>614</ele>
        <time>2019-03-29T13:33:01Z</time>
      </trkpt>
      <trkpt lat="44.36849" lon="5.74294">
        <ele>614</ele>
        <time>2019-03-29T13:33:02Z</time>
      </trkpt>
      <trkpt lat="44.36856" lon="5.74292">
        <ele>614</ele>
        <time>2019-03-29T13:33:03Z</time>
      </trkpt>
      <trkpt lat="44.36863" lon="5.74291">
        <ele>614</ele>
        <time>2019-03-29T13:33:04Z</time>
      </trkpt>
      <trkpt lat="44.36869" lon="5.7429">
        <ele>614</ele>
        <time>2019-03-29T13:33:05Z</time>
      </trkpt>
      <trkpt lat="44.36876" lon="5.74289">
        <ele>614</ele>
        <time>2019-03-29T13:33:06Z</time>
      </trkpt>
      <trkpt lat="44.36882" lon="5.74287">
        <ele>614</ele>
        <time>2019-03-29T13:33:07Z</time>
      </trkpt>
      <trkpt lat="44.36889" lon="5.74286">
        <ele>614</ele>
        <time>2019-03-29T13:33:08Z</time>
      </trkpt>
      <trkpt lat="44.36896" lon="5.74284">
        <ele>614</ele>
        <time>2019-03-29T13:33:09Z</time>
      </trkpt>
      <trkpt lat="44.36903" lon="5.74282">
        <ele>614</ele>
        <time>2019-03-29T13:33:10Z</time>
      </trkpt>
      <trkpt lat="44.3691" lon="5.74279">
        <ele>614</ele>
        <time>2019-03-29T13:33:11Z</time>
      </trkpt>
      <trkpt lat="44.36916" lon="5.74276">
        <ele>614</ele>
        <time>2019-03-29T13:33:12Z</time>
      </trkpt>
      <trkpt lat="44.36923" lon="5.74273">
        <ele>614</ele>
        <time>2019-03-29T13:33:13Z</time>
      </trkpt>
      <trkpt lat="44.3693" lon="5.7427">
        <ele>614</ele>
        <time>2019-03-29T13:33:14Z</time>
      </trkpt>
      <trkpt lat="44.36937" lon="5.74267">
        <ele>614</ele>
        <time>2019-03-29T13:33:15Z</time>
      </trkpt>
      <trkpt lat="44.36943" lon="5.74264">
        <ele>614</ele>
        <time>2019-03-29T13:33:16Z</time>
      </trkpt>
      <trkpt lat="44.3695" lon="5.74261">
        <ele>614</ele>
        <time>2019-03-29T13:33:17Z</time>
      </trkpt>
      <trkpt lat="44.36956" lon="5.74258">
        <ele>614</ele>
        <time>2019-03-29T13:33:18Z</time>
      </trkpt>
      <trkpt lat="44.36963" lon="5.74255">
        <ele>614</ele>
        <time>2019-03-29T13:33:19Z</time>
      </trkpt>
      <trkpt lat="44.36969" lon="5.74252">
        <ele>615</ele>
        <time>2019-03-29T13:33:20Z</time>
      </trkpt>
      <trkpt lat="44.36975" lon="5.74249">
        <ele>615</ele>
        <time>2019-03-29T13:33:21Z</time>
      </trkpt>
      <trkpt lat="44.36982" lon="5.74247">
        <ele>615</ele>
        <time>2019-03-29T13:33:22Z</time>
      </trkpt>
      <trkpt lat="44.36988" lon="5.74244">
        <ele>615</ele>
        <time>2019-03-29T13:33:23Z</time>
      </trkpt>
      <trkpt lat="44.36994" lon="5.74241">
        <ele>615</ele>
        <time>2019-03-29T13:33:24Z</time>
      </trkpt>
      <trkpt lat="44.37" lon="5.74237">
        <ele>615</ele>
        <time>2019-03-29T13:33:25Z</time>
      </trkpt>
      <trkpt lat="44.37006" lon="5.74233">
        <ele>616</ele>
        <time>2019-03-29T13:33:26Z</time>
      </trkpt>
      <trkpt lat="44.37011" lon="5.74227">
        <ele>616</ele>
        <time>2019-03-29T13:33:27Z</time>
      </trkpt>
      <trkpt lat="44.37016" lon="5.74222">
        <ele>616</ele>
        <time>2019-03-29T13:33:28Z</time>
      </trkpt>
      <trkpt lat="44.3702" lon="5.74215">
        <ele>616</ele>
        <time>2019-03-29T13:33:29Z</time>
      </trkpt>
      <trkpt lat="44.37025" lon="5.74209">
        <ele>616</ele>
        <time>2019-03-29T13:33:30Z</time>
      </trkpt>
      <trkpt lat="44.37029" lon="5.74202">
        <ele>616</ele>
        <time>2019-03-29T13:33:31Z</time>
      </trkpt>
      <trkpt lat="44.37033" lon="5.74196">
        <ele>616</ele>
        <time>2019-03-29T13:33:32Z</time>
      </trkpt>
      <trkpt lat="44.37038" lon="5.74189">
        <ele>616</ele>
        <time>2019-03-29T13:33:33Z</time>
      </trkpt>
      <trkpt lat="44.37042" lon="5.74182">
        <ele>616</ele>
        <time>2019-03-29T13:33:34Z</time>
      </trkpt>
      <trkpt lat="44.37046" lon="5.74175">
        <ele>616</ele>
        <time>2019-03-29T13:33:35Z</time>
      </trkpt>
      <trkpt lat="44.3705" lon="5.74168">
        <ele>616</ele>
        <time>2019-03-29T13:33:36Z</time>
      </trkpt>
      <trkpt lat="44.37054" lon="5.74161">
        <ele>616</ele>
        <time>2019-03-29T13:33:37Z</time>
      </trkpt>
      <trkpt lat="44.37058" lon="5.74154">
        <ele>616</ele>
        <time>2019-03-29T13:33:38Z</time>
      </trkpt>
      <trkpt lat="44.37062" lon="5.74147">
        <ele>616</ele>
        <time>2019-03-29T13:33:39Z</time>
      </trkpt>
      <trkpt lat="44.37066" lon="5.74139">
        <ele>616</ele>
        <time>2019-03-29T13:33:40Z</time>
      </trkpt>
      <trkpt lat="44.37069" lon="5.74133">
        <ele>616</ele>
        <time>2019-03-29T13:33:41Z</time>
      </trkpt>
      <trkpt lat="44.37073" lon="5.74126">
        <ele>616</ele>
        <time>2019-03-29T13:33:42Z</time>
      </trkpt>
      <trkpt lat="44.37077" lon="5.74119">
        <ele>616</ele>
        <time>2019-03-29T13:33:43Z</time>
      </trkpt>
      <trkpt lat="44.3708" lon="5.74112">
        <ele>617</ele>
        <time>2019-03-29T13:33:44Z</time>
      </trkpt>
      <trkpt lat="44.37084" lon="5.74105">
        <ele>617</ele>
        <time>2019-03-29T13:33:45Z</time>
      </trkpt>
      <trkpt lat="44.37088" lon="5.74098">
        <ele>617</ele>
        <time>2019-03-29T13:33:46Z</time>
      </trkpt>
      <trkpt lat="44.37091" lon="5.7409">
        <ele>617</ele>
        <time>2019-03-29T13:33:47Z</time>
      </trkpt>
      <trkpt lat="44.37095" lon="5.74083">
        <ele>617</ele>
        <time>2019-03-29T13:33:48Z</time>
      </trkpt>
      <trkpt lat="44.37098" lon="5.74076">
        <ele>617</ele>
        <time>2019-03-29T13:33:49Z</time>
      </trkpt>
      <trkpt lat="44.37102" lon="5.74068">
        <ele>617</ele>
        <time>2019-03-29T13:33:50Z</time>
      </trkpt>
      <trkpt lat="44.37106" lon="5.74061">
        <ele>617</ele>
        <time>2019-03-29T13:33:52Z</time>
      </trkpt>
      <trkpt lat="44.37111" lon="5.74053">
        <ele>617</ele>
        <time>2019-03-29T13:33:52Z</time>
      </trkpt>
      <trkpt lat="44.37115" lon="5.74045">
        <ele>617</ele>
        <time>2019-03-29T13:33:53Z</time>
      </trkpt>
      <trkpt lat="44.37119" lon="5.74037">
        <ele>617</ele>
        <time>2019-03-29T13:33:54Z</time>
      </trkpt>
      <trkpt lat="44.37123" lon="5.74028">
        <ele>617</ele>
        <time>2019-03-29T13:33:55Z</time>
      </trkpt>
      <trkpt lat="44.37127" lon="5.7402">
        <ele>617</ele>
        <time>2019-03-29T13:33:56Z</time>
      </trkpt>
      <trkpt lat="44.37132" lon="5.74012">
        <ele>617</ele>
        <time>2019-03-29T13:33:57Z</time>
      </trkpt>
      <trkpt lat="44.37136" lon="5.74003">
        <ele>617</ele>
        <time>2019-03-29T13:33:58Z</time>
      </trkpt>
      <trkpt lat="44.3714" lon="5.73994">
        <ele>617</ele>
        <time>2019-03-29T13:33:59Z</time>
      </trkpt>
      <trkpt lat="44.37145" lon="5.73986">
        <ele>617</ele>
        <time>2019-03-29T13:34:00Z</time>
      </trkpt>
      <trkpt lat="44.37149" lon="5.73977">
        <ele>617</ele>
        <time>2019-03-29T13:34:01Z</time>
      </trkpt>
      <trkpt lat="44.37154" lon="5.73968">
        <ele>617</ele>
        <time>2019-03-29T13:34:02Z</time>
      </trkpt>
      <trkpt lat="44.37158" lon="5.73959">
        <ele>617</ele>
        <time>2019-03-29T13:34:03Z</time>
      </trkpt>
      <trkpt lat="44.37162" lon="5.73951">
        <ele>617</ele>
        <time>2019-03-29T13:34:04Z</time>
      </trkpt>
      <trkpt lat="44.37166" lon="5.73942">
        <ele>617</ele>
        <time>2019-03-29T13:34:05Z</time>
      </trkpt>
      <trkpt lat="44.3717" lon="5.73934">
        <ele>617</ele>
        <time>2019-03-29T13:34:06Z</time>
      </trkpt>
      <trkpt lat="44.37175" lon="5.73926">
        <ele>617</ele>
        <time>2019-03-29T13:34:07Z</time>
      </trkpt>
      <trkpt lat="44.3718" lon="5.73919">
        <ele>617</ele>
        <time>2019-03-29T13:34:08Z</time>
      </trkpt>
      <trkpt lat="44.37186" lon="5.73912">
        <ele>617</ele>
        <time>2019-03-29T13:34:09Z</time>
      </trkpt>
      <trkpt lat="44.37191" lon="5.73907">
        <ele>617</ele>
        <time>2019-03-29T13:34:10Z</time>
      </trkpt>
      <trkpt lat="44.37198" lon="5.73903">
        <ele>617</ele>
        <time>2019-03-29T13:34:11Z</time>
      </trkpt>
      <trkpt lat="44.37204" lon="5.73901">
        <ele>617</ele>
        <time>2019-03-29T13:34:12Z</time>
      </trkpt>
      <trkpt lat="44.37211" lon="5.73899">
        <ele>617</ele>
        <time>2019-03-29T13:34:13Z</time>
      </trkpt>
      <trkpt lat="44.37217" lon="5.73897">
        <ele>617</ele>
        <time>2019-03-29T13:34:14Z</time>
      </trkpt>
      <trkpt lat="44.37223" lon="5.73896">
        <ele>617</ele>
        <time>2019-03-29T13:34:15Z</time>
      </trkpt>
      <trkpt lat="44.3723" lon="5.73894">
        <ele>617</ele>
        <time>2019-03-29T13:34:16Z</time>
      </trkpt>
      <trkpt lat="44.37235" lon="5.73892">
        <ele>617</ele>
        <time>2019-03-29T13:34:17Z</time>
      </trkpt>
      <trkpt lat="44.37241" lon="5.73891">
        <ele>618</ele>
        <time>2019-03-29T13:34:18Z</time>
      </trkpt>
      <trkpt lat="44.37247" lon="5.73889">
        <ele>618</ele>
        <time>2019-03-29T13:34:19Z</time>
      </trkpt>
      <trkpt lat="44.37252" lon="5.73887">
        <ele>618</ele>
        <time>2019-03-29T13:34:20Z</time>
      </trkpt>
      <trkpt lat="44.37258" lon="5.73885">
        <ele>618</ele>
        <time>2019-03-29T13:34:21Z</time>
      </trkpt>
      <trkpt lat="44.37263" lon="5.73884">
        <ele>619</ele>
        <time>2019-03-29T13:34:22Z</time>
      </trkpt>
      <trkpt lat="44.37269" lon="5.73882">
        <ele>619</ele>
        <time>2019-03-29T13:34:23Z</time>
      </trkpt>
      <trkpt lat="44.37275" lon="5.73881">
        <ele>619</ele>
        <time>2019-03-29T13:34:24Z</time>
      </trkpt>
      <trkpt lat="44.3728" lon="5.73879">
        <ele>619</ele>
        <time>2019-03-29T13:34:25Z</time>
      </trkpt>
      <trkpt lat="44.37286" lon="5.73877">
        <ele>619</ele>
        <time>2019-03-29T13:34:26Z</time>
      </trkpt>
      <trkpt lat="44.37292" lon="5.73876">
        <ele>619</ele>
        <time>2019-03-29T13:34:27Z</time>
      </trkpt>
      <trkpt lat="44.37298" lon="5.73874">
        <ele>619</ele>
        <time>2019-03-29T13:34:28Z</time>
      </trkpt>
      <trkpt lat="44.37304" lon="5.73872">
        <ele>620</ele>
        <time>2019-03-29T13:34:29Z</time>
      </trkpt>
      <trkpt lat="44.3731" lon="5.73871">
        <ele>620</ele>
        <time>2019-03-29T13:34:30Z</time>
      </trkpt>
      <trkpt lat="44.37316" lon="5.73869">
        <ele>620</ele>
        <time>2019-03-29T13:34:31Z</time>
      </trkpt>
      <trkpt lat="44.37322" lon="5.73868">
        <ele>620</ele>
        <time>2019-03-29T13:34:32Z</time>
      </trkpt>
      <trkpt lat="44.37328" lon="5.73866">
        <ele>620</ele>
        <time>2019-03-29T13:34:33Z</time>
      </trkpt>
      <trkpt lat="44.37334" lon="5.73864">
        <ele>620</ele>
        <time>2019-03-29T13:34:34Z</time>
      </trkpt>
      <trkpt lat="44.3734" lon="5.73862">
        <ele>621</ele>
        <time>2019-03-29T13:34:35Z</time>
      </trkpt>
      <trkpt lat="44.37346" lon="5.73859">
        <ele>621</ele>
        <time>2019-03-29T13:34:36Z</time>
      </trkpt>
      <trkpt lat="44.37352" lon="5.73857">
        <ele>621</ele>
        <time>2019-03-29T13:34:37Z</time>
      </trkpt>
      <trkpt lat="44.37358" lon="5.73854">
        <ele>621</ele>
        <time>2019-03-29T13:34:38Z</time>
      </trkpt>
      <trkpt lat="44.37365" lon="5.73851">
        <ele>621</ele>
        <time>2019-03-29T13:34:39Z</time>
      </trkpt>
      <trkpt lat="44.37371" lon="5.73847">
        <ele>621</ele>
        <time>2019-03-29T13:34:40Z</time>
      </trkpt>
      <trkpt lat="44.37377" lon="5.73844">
        <ele>621</ele>
        <time>2019-03-29T13:34:41Z</time>
      </trkpt>
      <trkpt lat="44.37383" lon="5.7384">
        <ele>621</ele>
        <time>2019-03-29T13:34:42Z</time>
      </trkpt>
      <trkpt lat="44.37389" lon="5.73837">
        <ele>621</ele>
        <time>2019-03-29T13:34:43Z</time>
      </trkpt>
      <trkpt lat="44.37395" lon="5.73833">
        <ele>621</ele>
        <time>2019-03-29T13:34:44Z</time>
      </trkpt>
      <trkpt lat="44.37402" lon="5.73828">
        <ele>621</ele>
        <time>2019-03-29T13:34:45Z</time>
      </trkpt>
      <trkpt lat="44.37408" lon="5.73824">
        <ele>621</ele>
        <time>2019-03-29T13:34:46Z</time>
      </trkpt>
      <trkpt lat="44.37414" lon="5.73821">
        <ele>621</ele>
        <time>2019-03-29T13:34:47Z</time>
      </trkpt>
      <trkpt lat="44.3742" lon="5.73817">
        <ele>621</ele>
        <time>2019-03-29T13:34:48Z</time>
      </trkpt>
      <trkpt lat="44.37426" lon="5.73813">
        <ele>621</ele>
        <time>2019-03-29T13:34:49Z</time>
      </trkpt>
      <trkpt lat="44.37433" lon="5.7381">
        <ele>621</ele>
        <time>2019-03-29T13:34:50Z</time>
      </trkpt>
      <trkpt lat="44.37439" lon="5.73807">
        <ele>621</ele>
        <time>2019-03-29T13:34:52Z</time>
      </trkpt>
      <trkpt lat="44.37445" lon="5.73804">
        <ele>621</ele>
        <time>2019-03-29T13:34:52Z</time>
      </trkpt>
      <trkpt lat="44.37452" lon="5.73801">
        <ele>621</ele>
        <time>2019-03-29T13:34:53Z</time>
      </trkpt>
      <trkpt lat="44.37458" lon="5.73799">
        <ele>621</ele>
        <time>2019-03-29T13:34:54Z</time>
      </trkpt>
      <trkpt lat="44.37464" lon="5.73795">
        <ele>621</ele>
        <time>2019-03-29T13:34:55Z</time>
      </trkpt>
      <trkpt lat="44.37471" lon="5.73792">
        <ele>621</ele>
        <time>2019-03-29T13:34:56Z</time>
      </trkpt>
      <trkpt lat="44.37476" lon="5.73787">
        <ele>621</ele>
        <time>2019-03-29T13:34:57Z</time>
      </trkpt>
      <trkpt lat="44.37481" lon="5.73781">
        <ele>621</ele>
        <time>2019-03-29T13:34:58Z</time>
      </trkpt>
      <trkpt lat="44.37486" lon="5.73775">
        <ele>621</ele>
        <time>2019-03-29T13:34:59Z</time>
      </trkpt>
      <trkpt lat="44.37491" lon="5.73769">
        <ele>621</ele>
        <time>2019-03-29T13:35:00Z</time>
      </trkpt>
      <trkpt lat="44.37497" lon="5.73763">
        <ele>621</ele>
        <time>2019-03-29T13:35:01Z</time>
      </trkpt>
      <trkpt lat="44.37504" lon="5.73759">
        <ele>621</ele>
        <time>2019-03-29T13:35:02Z</time>
      </trkpt>
      <trkpt lat="44.37511" lon="5.73757">
        <ele>621</ele>
        <time>2019-03-29T13:35:03Z</time>
      </trkpt>
      <trkpt lat="44.37518" lon="5.73757">
        <ele>621</ele>
        <time>2019-03-29T13:35:04Z</time>
      </trkpt>
      <trkpt lat="44.37525" lon="5.73755">
        <ele>621</ele>
        <time>2019-03-29T13:35:05Z</time>
      </trkpt>
      <trkpt lat="44.37531" lon="5.73752">
        <ele>621</ele>
        <time>2019-03-29T13:35:06Z</time>
      </trkpt>
      <trkpt lat="44.37536" lon="5.73747">
        <ele>621</ele>
        <time>2019-03-29T13:35:07Z</time>
      </trkpt>
      <trkpt lat="44.37541" lon="5.73741">
        <ele>621</ele>
        <time>2019-03-29T13:35:08Z</time>
      </trkpt>
      <trkpt lat="44.37545" lon="5.73735">
        <ele>621</ele>
        <time>2019-03-29T13:35:09Z</time>
      </trkpt>
      <trkpt lat="44.37549" lon="5.73728">
        <ele>621</ele>
        <time>2019-03-29T13:35:10Z</time>
      </trkpt>
      <trkpt lat="44.37553" lon="5.7372">
        <ele>621</ele>
        <time>2019-03-29T13:35:11Z</time>
      </trkpt>
      <trkpt lat="44.37556" lon="5.73713">
        <ele>621</ele>
        <time>2019-03-29T13:35:12Z</time>
      </trkpt>
      <trkpt lat="44.37561" lon="5.73707">
        <ele>621</ele>
        <time>2019-03-29T13:35:13Z</time>
      </trkpt>
      <trkpt lat="44.37566" lon="5.73701">
        <ele>621</ele>
        <time>2019-03-29T13:35:14Z</time>
      </trkpt>
      <trkpt lat="44.37571" lon="5.73697">
        <ele>621</ele>
        <time>2019-03-29T13:35:15Z</time>
      </trkpt>
      <trkpt lat="44.37577" lon="5.73694">
        <ele>621</ele>
        <time>2019-03-29T13:35:16Z</time>
      </trkpt>
      <trkpt lat="44.37583" lon="5.7369">
        <ele>621</ele>
        <time>2019-03-29T13:35:17Z</time>
      </trkpt>
      <trkpt lat="44.37589" lon="5.73688">
        <ele>621</ele>
        <time>2019-03-29T13:35:18Z</time>
      </trkpt>
      <trkpt lat="44.37595" lon="5.73685">
        <ele>621</ele>
        <time>2019-03-29T13:35:19Z</time>
      </trkpt>
      <trkpt lat="44.37601" lon="5.73682">
        <ele>622</ele>
        <time>2019-03-29T13:35:20Z</time>
      </trkpt>
      <trkpt lat="44.37607" lon="5.73679">
        <ele>622</ele>
        <time>2019-03-29T13:35:21Z</time>
      </trkpt>
      <trkpt lat="44.37613" lon="5.73675">
        <ele>622</ele>
        <time>2019-03-29T13:35:22Z</time>
      </trkpt>
      <trkpt lat="44.37619" lon="5.73672">
        <ele>622</ele>
        <time>2019-03-29T13:35:23Z</time>
      </trkpt>
      <trkpt lat="44.37625" lon="5.73669">
        <ele>622</ele>
        <time>2019-03-29T13:35:24Z</time>
      </trkpt>
      <trkpt lat="44.3763" lon="5.73666">
        <ele>622</ele>
        <time>2019-03-29T13:35:25Z</time>
      </trkpt>
      <trkpt lat="44.37637" lon="5.73662">
        <ele>622</ele>
        <time>2019-03-29T13:35:26Z</time>
      </trkpt>
      <trkpt lat="44.37643" lon="5.73658">
        <ele>622</ele>
        <time>2019-03-29T13:35:27Z</time>
      </trkpt>
      <trkpt lat="44.37648" lon="5.73654">
        <ele>622</ele>
        <time>2019-03-29T13:35:28Z</time>
      </trkpt>
      <trkpt lat="44.37655" lon="5.73651">
        <ele>622</ele>
        <time>2019-03-29T13:35:29Z</time>
      </trkpt>
      <trkpt lat="44.37661" lon="5.73647">
        <ele>622</ele>
        <time>2019-03-29T13:35:30Z</time>
      </trkpt>
      <trkpt lat="44.37667" lon="5.73644">
        <ele>622</ele>
        <time>2019-03-29T13:35:31Z</time>
      </trkpt>
      <trkpt lat="44.37673" lon="5.73641">
        <ele>622</ele>
        <time>2019-03-29T13:35:32Z</time>
      </trkpt>
      <trkpt lat="44.37679" lon="5.73638">
        <ele>622</ele>
        <time>2019-03-29T13:35:33Z</time>
      </trkpt>
      <trkpt lat="44.37685" lon="5.73635">
        <ele>622</ele>
        <time>2019-03-29T13:35:34Z</time>
      </trkpt>
      <trkpt lat="44.37691" lon="5.73631">
        <ele>622</ele>
        <time>2019-03-29T13:35:35Z</time>
      </trkpt>
      <trkpt lat="44.37698" lon="5.73628">
        <ele>622</ele>
        <time>2019-03-29T13:35:36Z</time>
      </trkpt>
      <trkpt lat="44.37704" lon="5.73624">
        <ele>622</ele>
        <time>2019-03-29T13:35:37Z</time>
      </trkpt>
      <trkpt lat="44.3771" lon="5.73621">
        <ele>622</ele>
        <time>2019-03-29T13:35:38Z</time>
      </trkpt>
      <trkpt lat="44.37717" lon="5.73618">
        <ele>622</ele>
        <time>2019-03-29T13:35:39Z</time>
      </trkpt>
      <trkpt lat="44.37723" lon="5.73614">
        <ele>622</ele>
        <time>2019-03-29T13:35:40Z</time>
      </trkpt>
      <trkpt lat="44.37729" lon="5.7361">
        <ele>622</ele>
        <time>2019-03-29T13:35:41Z</time>
      </trkpt>
      <trkpt lat="44.37735" lon="5.73605">
        <ele>622</ele>
        <time>2019-03-29T13:35:42Z</time>
      </trkpt>
      <trkpt lat="44.37741" lon="5.736">
        <ele>622</ele>
        <time>2019-03-29T13:35:43Z</time>
      </trkpt>
      <trkpt lat="44.37747" lon="5.73595">
        <ele>622</ele>
        <time>2019-03-29T13:35:44Z</time>
      </trkpt>
      <trkpt lat="44.37752" lon="5.7359">
        <ele>622</ele>
        <time>2019-03-29T13:35:45Z</time>
      </trkpt>
      <trkpt lat="44.37758" lon="5.73585">
        <ele>622</ele>
        <time>2019-03-29T13:35:46Z</time>
      </trkpt>
      <trkpt lat="44.37763" lon="5.73579">
        <ele>622</ele>
        <time>2019-03-29T13:35:47Z</time>
      </trkpt>
      <trkpt lat="44.37769" lon="5.73573">
        <ele>622</ele>
        <time>2019-03-29T13:35:48Z</time>
      </trkpt>
      <trkpt lat="44.37774" lon="5.73567">
        <ele>622</ele>
        <time>2019-03-29T13:35:49Z</time>
      </trkpt>
      <trkpt lat="44.37779" lon="5.73562">
        <ele>622</ele>
        <time>2019-03-29T13:35:50Z</time>
      </trkpt>
      <trkpt lat="44.37784" lon="5.73556">
        <ele>622</ele>
        <time>2019-03-29T13:35:52Z</time>
      </trkpt>
      <trkpt lat="44.37789" lon="5.7355">
        <ele>622</ele>
        <time>2019-03-29T13:35:52Z</time>
      </trkpt>
      <trkpt lat="44.37794" lon="5.73544">
        <ele>622</ele>
        <time>2019-03-29T13:35:53Z</time>
      </trkpt>
      <trkpt lat="44.37798" lon="5.73538">
        <ele>622</ele>
        <time>2019-03-29T13:35:54Z</time>
      </trkpt>
      <trkpt lat="44.37804" lon="5.73532">
        <ele>623</ele>
        <time>2019-03-29T13:35:55Z</time>
      </trkpt>
      <trkpt lat="44.37809" lon="5.73526">
        <ele>623</ele>
        <time>2019-03-29T13:35:56Z</time>
      </trkpt>
      <trkpt lat="44.37814" lon="5.73521">
        <ele>623</ele>
        <time>2019-03-29T13:35:57Z</time>
      </trkpt>
      <trkpt lat="44.37819" lon="5.73515">
        <ele>623</ele>
        <time>2019-03-29T13:35:58Z</time>
      </trkpt>
      <trkpt lat="44.37824" lon="5.73509">
        <ele>623</ele>
        <time>2019-03-29T13:35:59Z</time>
      </trkpt>
      <trkpt lat="44.37828" lon="5.73503">
        <ele>623</ele>
        <time>2019-03-29T13:36:00Z</time>
      </trkpt>
      <trkpt lat="44.37833" lon="5.73497">
        <ele>623</ele>
        <time>2019-03-29T13:36:01Z</time>
      </trkpt>
      <trkpt lat="44.37839" lon="5.73491">
        <ele>623</ele>
        <time>2019-03-29T13:36:02Z</time>
      </trkpt>
      <trkpt lat="44.37844" lon="5.73486">
        <ele>623</ele>
        <time>2019-03-29T13:36:03Z</time>
      </trkpt>
      <trkpt lat="44.37849" lon="5.7348">
        <ele>623</ele>
        <time>2019-03-29T13:36:04Z</time>
      </trkpt>
      <trkpt lat="44.37854" lon="5.73475">
        <ele>623</ele>
        <time>2019-03-29T13:36:05Z</time>
      </trkpt>
      <trkpt lat="44.37859" lon="5.73468">
        <ele>623</ele>
        <time>2019-03-29T13:36:06Z</time>
      </trkpt>
      <trkpt lat="44.37864" lon="5.73463">
        <ele>623</ele>
        <time>2019-03-29T13:36:07Z</time>
      </trkpt>
      <trkpt lat="44.37869" lon="5.73457">
        <ele>624</ele>
        <time>2019-03-29T13:36:08Z</time>
      </trkpt>
      <trkpt lat="44.37874" lon="5.73451">
        <ele>624</ele>
        <time>2019-03-29T13:36:09Z</time>
      </trkpt>
      <trkpt lat="44.37879" lon="5.73446">
        <ele>624</ele>
        <time>2019-03-29T13:36:10Z</time>
      </trkpt>
      <trkpt lat="44.37885" lon="5.7344">
        <ele>624</ele>
        <time>2019-03-29T13:36:11Z</time>
      </trkpt>
      <trkpt lat="44.37889" lon="5.73433">
        <ele>624</ele>
        <time>2019-03-29T13:36:12Z</time>
      </trkpt>
      <trkpt lat="44.37895" lon="5.73428">
        <ele>624</ele>
        <time>2019-03-29T13:36:13Z</time>
      </trkpt>
      <trkpt lat="44.379" lon="5.73422">
        <ele>624</ele>
        <time>2019-03-29T13:36:14Z</time>
      </trkpt>
      <trkpt lat="44.37905" lon="5.73416">
        <ele>624</ele>
        <time>2019-03-29T13:36:15Z</time>
      </trkpt>
      <trkpt lat="44.37911" lon="5.7341">
        <ele>624</ele>
        <time>2019-03-29T13:36:16Z</time>
      </trkpt>
      <trkpt lat="44.37916" lon="5.73404">
        <ele>624</ele>
        <time>2019-03-29T13:36:17Z</time>
      </trkpt>
      <trkpt lat="44.37921" lon="5.73398">
        <ele>624</ele>
        <time>2019-03-29T13:36:18Z</time>
      </trkpt>
      <trkpt lat="44.37926" lon="5.73392">
        <ele>624</ele>
        <time>2019-03-29T13:36:19Z</time>
      </trkpt>
      <trkpt lat="44.37931" lon="5.73386">
        <ele>624</ele>
        <time>2019-03-29T13:36:20Z</time>
      </trkpt>
      <trkpt lat="44.37936" lon="5.7338">
        <ele>624</ele>
        <time>2019-03-29T13:36:21Z</time>
      </trkpt>
      <trkpt lat="44.37941" lon="5.73375">
        <ele>624</ele>
        <time>2019-03-29T13:36:22Z</time>
      </trkpt>
      <trkpt lat="44.37946" lon="5.73369">
        <ele>625</ele>
        <time>2019-03-29T13:36:23Z</time>
      </trkpt>
      <trkpt lat="44.3795" lon="5.73364">
        <ele>625</ele>
        <time>2019-03-29T13:36:24Z</time>
      </trkpt>
      <trkpt lat="44.37954" lon="5.73359">
        <ele>625</ele>
        <time>2019-03-29T13:36:25Z</time>
      </trkpt>
      <trkpt lat="44.37959" lon="5.73356">
        <ele>625</ele>
        <time>2019-03-29T13:36:26Z</time>
      </trkpt>
      <trkpt lat="44.37964" lon="5.73354">
        <ele>626</ele>
        <time>2019-03-29T13:36:27Z</time>
      </trkpt>
      <trkpt lat="44.37969" lon="5.73353">
        <ele>626</ele>
        <time>2019-03-29T13:36:28Z</time>
      </trkpt>
      <trkpt lat="44.37974" lon="5.73353">
        <ele>626</ele>
        <time>2019-03-29T13:36:29Z</time>
      </trkpt>
      <trkpt lat="44.3798" lon="5.73355">
        <ele>627</ele>
        <time>2019-03-29T13:36:30Z</time>
      </trkpt>
      <trkpt lat="44.37986" lon="5.73356">
        <ele>627</ele>
        <time>2019-03-29T13:36:31Z</time>
      </trkpt>
      <trkpt lat="44.37992" lon="5.73358">
        <ele>627</ele>
        <time>2019-03-29T13:36:32Z</time>
      </trkpt>
      <trkpt lat="44.37998" lon="5.73359">
        <ele>627</ele>
        <time>2019-03-29T13:36:33Z</time>
      </trkpt>
      <trkpt lat="44.38004" lon="5.7336">
        <ele>628</ele>
        <time>2019-03-29T13:36:34Z</time>
      </trkpt>
      <trkpt lat="44.38009" lon="5.73361">
        <ele>628</ele>
        <time>2019-03-29T13:36:35Z</time>
      </trkpt>
      <trkpt lat="44.38015" lon="5.73363">
        <ele>628</ele>
        <time>2019-03-29T13:36:36Z</time>
      </trkpt>
      <trkpt lat="44.3802" lon="5.73364">
        <ele>628</ele>
        <time>2019-03-29T13:36:37Z</time>
      </trkpt>
      <trkpt lat="44.38026" lon="5.73366">
        <ele>629</ele>
        <time>2019-03-29T13:36:38Z</time>
      </trkpt>
      <trkpt lat="44.38032" lon="5.73367">
        <ele>629</ele>
        <time>2019-03-29T13:36:39Z</time>
      </trkpt>
      <trkpt lat="44.38038" lon="5.73369">
        <ele>629</ele>
        <time>2019-03-29T13:36:40Z</time>
      </trkpt>
      <trkpt lat="44.38044" lon="5.7337">
        <ele>629</ele>
        <time>2019-03-29T13:36:41Z</time>
      </trkpt>
      <trkpt lat="44.3805" lon="5.73372">
        <ele>629</ele>
        <time>2019-03-29T13:36:42Z</time>
      </trkpt>
      <trkpt lat="44.38057" lon="5.73374">
        <ele>629</ele>
        <time>2019-03-29T13:36:43Z</time>
      </trkpt>
      <trkpt lat="44.38063" lon="5.73375">
        <ele>629</ele>
        <time>2019-03-29T13:36:44Z</time>
      </trkpt>
      <trkpt lat="44.3807" lon="5.73377">
        <ele>629</ele>
        <time>2019-03-29T13:36:45Z</time>
      </trkpt>
      <trkpt lat="44.38077" lon="5.73378">
        <ele>629</ele>
        <time>2019-03-29T13:36:46Z</time>
      </trkpt>
      <trkpt lat="44.38084" lon="5.73379">
        <ele>629</ele>
        <time>2019-03-29T13:36:47Z</time>
      </trkpt>
      <trkpt lat="44.38091" lon="5.7338">
        <ele>629</ele>
        <time>2019-03-29T13:36:48Z</time>
      </trkpt>
      <trkpt lat="44.38099" lon="5.7338">
        <ele>629</ele>
        <time>2019-03-29T13:36:49Z</time>
      </trkpt>
      <trkpt lat="44.38106" lon="5.73381">
        <ele>629</ele>
        <time>2019-03-29T13:36:50Z</time>
      </trkpt>
      <trkpt lat="44.38114" lon="5.73382">
        <ele>629</ele>
        <time>2019-03-29T13:36:52Z</time>
      </trkpt>
      <trkpt lat="44.38122" lon="5.73383">
        <ele>629</ele>
        <time>2019-03-29T13:36:52Z</time>
      </trkpt>
      <trkpt lat="44.3813" lon="5.73383">
        <ele>629</ele>
        <time>2019-03-29T13:36:53Z</time>
      </trkpt>
      <trkpt lat="44.38139" lon="5.73384">
        <ele>629</ele>
        <time>2019-03-29T13:36:54Z</time>
      </trkpt>
      <trkpt lat="44.38147" lon="5.73385">
        <ele>629</ele>
        <time>2019-03-29T13:36:55Z</time>
      </trkpt>
      <trkpt lat="44.38155" lon="5.73386">
        <ele>629</ele>
        <time>2019-03-29T13:36:56Z</time>
      </trkpt>
      <trkpt lat="44.38164" lon="5.73387">
        <ele>629</ele>
        <time>2019-03-29T13:36:57Z</time>
      </trkpt>
      <trkpt lat="44.38172" lon="5.73389">
        <ele>629</ele>
        <time>2019-03-29T13:36:58Z</time>
      </trkpt>
      <trkpt lat="44.38181" lon="5.7339">
        <ele>629</ele>
        <time>2019-03-29T13:36:59Z</time>
      </trkpt>
      <trkpt lat="44.38189" lon="5.73391">
        <ele>629</ele>
        <time>2019-03-29T13:37:00Z</time>
      </trkpt>
      <trkpt lat="44.38197" lon="5.73393">
        <ele>629</ele>
        <time>2019-03-29T13:37:01Z</time>
      </trkpt>
      <trkpt lat="44.38205" lon="5.73394">
        <ele>629</ele>
        <time>2019-03-29T13:37:02Z</time>
      </trkpt>
      <trkpt lat="44.38213" lon="5.73396">
        <ele>629</ele>
        <time>2019-03-29T13:37:03Z</time>
      </trkpt>
      <trkpt lat="44.38221" lon="5.73397">
        <ele>629</ele>
        <time>2019-03-29T13:37:04Z</time>
      </trkpt>
      <trkpt lat="44.38229" lon="5.73399">
        <ele>629</ele>
        <time>2019-03-29T13:37:05Z</time>
      </trkpt>
      <trkpt lat="44.38236" lon="5.734">
        <ele>629</ele>
        <time>2019-03-29T13:37:06Z</time>
      </trkpt>
      <trkpt lat="44.38244" lon="5.73401">
        <ele>629</ele>
        <time>2019-03-29T13:37:07Z</time>
      </trkpt>
      <trkpt lat="44.38251" lon="5.73402">
        <ele>629</ele>
        <time>2019-03-29T13:37:08Z</time>
      </trkpt>
      <trkpt lat="44.38258" lon="5.73403">
        <ele>629</ele>
        <time>2019-03-29T13:37:09Z</time>
      </trkpt>
      <trkpt lat="44.38265" lon="5.73404">
        <ele>629</ele>
        <time>2019-03-29T13:37:10Z</time>
      </trkpt>
      <trkpt lat="44.38272" lon="5.73405">
        <ele>629</ele>
        <time>2019-03-29T13:37:11Z</time>
      </trkpt>
      <trkpt lat="44.38278" lon="5.73406">
        <ele>629</ele>
        <time>2019-03-29T13:37:12Z</time>
      </trkpt>
      <trkpt lat="44.38285" lon="5.73407">
        <ele>629</ele>
        <time>2019-03-29T13:37:13Z</time>
      </trkpt>
      <trkpt lat="44.38291" lon="5.73408">
        <ele>629</ele>
        <time>2019-03-29T13:37:14Z</time>
      </trkpt>
      <trkpt lat="44.38297" lon="5.73408">
        <ele>629</ele>
        <time>2019-03-29T13:37:15Z</time>
      </trkpt>
      <trkpt lat="44.38303" lon="5.73409">
        <ele>629</ele>
        <time>2019-03-29T13:37:16Z</time>
      </trkpt>
      <trkpt lat="44.38309" lon="5.7341">
        <ele>629</ele>
        <time>2019-03-29T13:37:17Z</time>
      </trkpt>
      <trkpt lat="44.38315" lon="5.73411">
        <ele>629</ele>
        <time>2019-03-29T13:37:18Z</time>
      </trkpt>
      <trkpt lat="44.38321" lon="5.73411">
        <ele>629</ele>
        <time>2019-03-29T13:37:19Z</time>
      </trkpt>
      <trkpt lat="44.38327" lon="5.73412">
        <ele>629</ele>
        <time>2019-03-29T13:37:20Z</time>
      </trkpt>
      <trkpt lat="44.38332" lon="5.73413">
        <ele>629</ele>
        <time>2019-03-29T13:37:21Z</time>
      </trkpt>
      <trkpt lat="44.38337" lon="5.73414">
        <ele>629</ele>
        <time>2019-03-29T13:37:22Z</time>
      </trkpt>
      <trkpt lat="44.38343" lon="5.73415">
        <ele>629</ele>
        <time>2019-03-29T13:37:23Z</time>
      </trkpt>
      <trkpt lat="44.38348" lon="5.73416">
        <ele>629</ele>
        <time>2019-03-29T13:37:24Z</time>
      </trkpt>
      <trkpt lat="44.38353" lon="5.73417">
        <ele>630</ele>
        <time>2019-03-29T13:37:25Z</time>
      </trkpt>
      <trkpt lat="44.38359" lon="5.73418">
        <ele>630</ele>
        <time>2019-03-29T13:37:26Z</time>
      </trkpt>
      <trkpt lat="44.38364" lon="5.73419">
        <ele>630</ele>
        <time>2019-03-29T13:37:27Z</time>
      </trkpt>
      <trkpt lat="44.38369" lon="5.7342">
        <ele>630</ele>
        <time>2019-03-29T13:37:28Z</time>
      </trkpt>
      <trkpt lat="44.38375" lon="5.73421">
        <ele>631</ele>
        <time>2019-03-29T13:37:29Z</time>
      </trkpt>
      <trkpt lat="44.3838" lon="5.73422">
        <ele>631</ele>
        <time>2019-03-29T13:37:30Z</time>
      </trkpt>
      <trkpt lat="44.38386" lon="5.73424">
        <ele>631</ele>
        <time>2019-03-29T13:37:31Z</time>
      </trkpt>
      <trkpt lat="44.38391" lon="5.73425">
        <ele>631</ele>
        <time>2019-03-29T13:37:32Z</time>
      </trkpt>
      <trkpt lat="44.38396" lon="5.73426">
        <ele>631</ele>
        <time>2019-03-29T13:37:33Z</time>
      </trkpt>
      <trkpt lat="44.38401" lon="5.73428">
        <ele>631</ele>
        <time>2019-03-29T13:37:34Z</time>
      </trkpt>
      <trkpt lat="44.38406" lon="5.73431">
        <ele>632</ele>
        <time>2019-03-29T13:37:35Z</time>
      </trkpt>
      <trkpt lat="44.38412" lon="5.73432">
        <ele>632</ele>
        <time>2019-03-29T13:37:36Z</time>
      </trkpt>
      <trkpt lat="44.38417" lon="5.73432">
        <ele>632</ele>
        <time>2019-03-29T13:37:37Z</time>
      </trkpt>
      <trkpt lat="44.38423" lon="5.73432">
        <ele>632</ele>
        <time>2019-03-29T13:37:38Z</time>
      </trkpt>
      <trkpt lat="44.38428" lon="5.73429">
        <ele>633</ele>
        <time>2019-03-29T13:37:39Z</time>
      </trkpt>
      <trkpt lat="44.38433" lon="5.73425">
        <ele>633</ele>
        <time>2019-03-29T13:37:40Z</time>
      </trkpt>
      <trkpt lat="44.38437" lon="5.7342">
        <ele>633</ele>
        <time>2019-03-29T13:37:41Z</time>
      </trkpt>
      <trkpt lat="44.38441" lon="5.73416">
        <ele>633</ele>
        <time>2019-03-29T13:37:42Z</time>
      </trkpt>
      <trkpt lat="44.38445" lon="5.7341">
        <ele>633</ele>
        <time>2019-03-29T13:37:43Z</time>
      </trkpt>
      <trkpt lat="44.38448" lon="5.73403">
        <ele>633</ele>
        <time>2019-03-29T13:37:44Z</time>
      </trkpt>
      <trkpt lat="44.38451" lon="5.73396">
        <ele>633</ele>
        <time>2019-03-29T13:37:45Z</time>
      </trkpt>
      <trkpt lat="44.38455" lon="5.7339">
        <ele>633</ele>
        <time>2019-03-29T13:37:46Z</time>
      </trkpt>
      <trkpt lat="44.3846" lon="5.73383">
        <ele>633</ele>
        <time>2019-03-29T13:37:47Z</time>
      </trkpt>
      <trkpt lat="44.38465" lon="5.73377">
        <ele>633</ele>
        <time>2019-03-29T13:37:48Z</time>
      </trkpt>
      <trkpt lat="44.38472" lon="5.73371">
        <ele>633</ele>
        <time>2019-03-29T13:37:49Z</time>
      </trkpt>
      <trkpt lat="44.38479" lon="5.73365">
        <ele>633</ele>
        <time>2019-03-29T13:37:50Z</time>
      </trkpt>
      <trkpt lat="44.38487" lon="5.73361">
        <ele>633</ele>
        <time>2019-03-29T13:37:52Z</time>
      </trkpt>
      <trkpt lat="44.38495" lon="5.73358">
        <ele>633</ele>
        <time>2019-03-29T13:37:52Z</time>
      </trkpt>
      <trkpt lat="44.38504" lon="5.73356">
        <ele>633</ele>
        <time>2019-03-29T13:37:53Z</time>
      </trkpt>
      <trkpt lat="44.38513" lon="5.73357">
        <ele>633</ele>
        <time>2019-03-29T13:37:54Z</time>
      </trkpt>
      <trkpt lat="44.38523" lon="5.73357">
        <ele>633</ele>
        <time>2019-03-29T13:37:55Z</time>
      </trkpt>
      <trkpt lat="44.38532" lon="5.73357">
        <ele>633</ele>
        <time>2019-03-29T13:37:56Z</time>
      </trkpt>
      <trkpt lat="44.38542" lon="5.73355">
        <ele>632</ele>
        <time>2019-03-29T13:37:57Z</time>
      </trkpt>
      <trkpt lat="44.38551" lon="5.73352">
        <ele>632</ele>
        <time>2019-03-29T13:37:58Z</time>
      </trkpt>
      <trkpt lat="44.38561" lon="5.73347">
        <ele>631</ele>
        <time>2019-03-29T13:37:59Z</time>
      </trkpt>
      <trkpt lat="44.38571" lon="5.73342">
        <ele>630</ele>
        <time>2019-03-29T13:38:00Z</time>
      </trkpt>
      <trkpt lat="44.38581" lon="5.73336">
        <ele>630</ele>
        <time>2019-03-29T13:38:01Z</time>
      </trkpt>
      <trkpt lat="44.3859" lon="5.73329">
        <ele>629</ele>
        <time>2019-03-29T13:38:02Z</time>
      </trkpt>
      <trkpt lat="44.386" lon="5.73323">
        <ele>628</ele>
        <time>2019-03-29T13:38:03Z</time>
      </trkpt>
      <trkpt lat="44.38609" lon="5.73318">
        <ele>628</ele>
        <time>2019-03-29T13:38:04Z</time>
      </trkpt>
      <trkpt lat="44.38619" lon="5.73312">
        <ele>627</ele>
        <time>2019-03-29T13:38:05Z</time>
      </trkpt>
      <trkpt lat="44.38628" lon="5.73306">
        <ele>627</ele>
        <time>2019-03-29T13:38:06Z</time>
      </trkpt>
      <trkpt lat="44.38637" lon="5.733">
        <ele>626</ele>
        <time>2019-03-29T13:38:07Z</time>
      </trkpt>
      <trkpt lat="44.38646" lon="5.73294">
        <ele>626</ele>
        <time>2019-03-29T13:38:08Z</time>
      </trkpt>
      <trkpt lat="44.38654" lon="5.73288">
        <ele>626</ele>
        <time>2019-03-29T13:38:09Z</time>
      </trkpt>
      <trkpt lat="44.38662" lon="5.73282">
        <ele>626</ele>
        <time>2019-03-29T13:38:10Z</time>
      </trkpt>
      <trkpt lat="44.3867" lon="5.73276">
        <ele>626</ele>
        <time>2019-03-29T13:38:11Z</time>
      </trkpt>
      <trkpt lat="44.38678" lon="5.7327">
        <ele>626</ele>
        <time>2019-03-29T13:38:12Z</time>
      </trkpt>
      <trkpt lat="44.38686" lon="5.73264">
        <ele>626</ele>
        <time>2019-03-29T13:38:13Z</time>
      </trkpt>
      <trkpt lat="44.38694" lon="5.73258">
        <ele>626</ele>
        <time>2019-03-29T13:38:14Z</time>
      </trkpt>
      <trkpt lat="44.38701" lon="5.73252">
        <ele>626</ele>
        <time>2019-03-29T13:38:15Z</time>
      </trkpt>
      <trkpt lat="44.38708" lon="5.73247">
        <ele>626</ele>
        <time>2019-03-29T13:38:16Z</time>
      </trkpt>
      <trkpt lat="44.38715" lon="5.73241">
        <ele>626</ele>
        <time>2019-03-29T13:38:17Z</time>
      </trkpt>
      <trkpt lat="44.38721" lon="5.73235">
        <ele>626</ele>
        <time>2019-03-29T13:38:18Z</time>
      </trkpt>
      <trkpt lat="44.38728" lon="5.7323">
        <ele>626</ele>
        <time>2019-03-29T13:38:19Z</time>
      </trkpt>
      <trkpt lat="44.38735" lon="5.73224">
        <ele>626</ele>
        <time>2019-03-29T13:38:20Z</time>
      </trkpt>
      <trkpt lat="44.38742" lon="5.73218">
        <ele>626</ele>
        <time>2019-03-29T13:38:21Z</time>
      </trkpt>
      <trkpt lat="44.38748" lon="5.73212">
        <ele>626</ele>
        <time>2019-03-29T13:38:22Z</time>
      </trkpt>
      <trkpt lat="44.38755" lon="5.73207">
        <ele>626</ele>
        <time>2019-03-29T13:38:23Z</time>
      </trkpt>
      <trkpt lat="44.38761" lon="5.73201">
        <ele>626</ele>
        <time>2019-03-29T13:38:24Z</time>
      </trkpt>
      <trkpt lat="44.38768" lon="5.73196">
        <ele>626</ele>
        <time>2019-03-29T13:38:25Z</time>
      </trkpt>
      <trkpt lat="44.38774" lon="5.73191">
        <ele>626</ele>
        <time>2019-03-29T13:38:26Z</time>
      </trkpt>
      <trkpt lat="44.38781" lon="5.73186">
        <ele>626</ele>
        <time>2019-03-29T13:38:27Z</time>
      </trkpt>
      <trkpt lat="44.38787" lon="5.7318">
        <ele>626</ele>
        <time>2019-03-29T13:38:28Z</time>
      </trkpt>
      <trkpt lat="44.38794" lon="5.73175">
        <ele>626</ele>
        <time>2019-03-29T13:38:29Z</time>
      </trkpt>
      <trkpt lat="44.388" lon="5.7317">
        <ele>626</ele>
        <time>2019-03-29T13:38:30Z</time>
      </trkpt>
      <trkpt lat="44.38807" lon="5.73166">
        <ele>626</ele>
        <time>2019-03-29T13:38:31Z</time>
      </trkpt>
      <trkpt lat="44.38813" lon="5.73162">
        <ele>626</ele>
        <time>2019-03-29T13:38:32Z</time>
      </trkpt>
      <trkpt lat="44.3882" lon="5.73158">
        <ele>626</ele>
        <time>2019-03-29T13:38:33Z</time>
      </trkpt>
      <trkpt lat="44.38827" lon="5.73154">
        <ele>626</ele>
        <time>2019-03-29T13:38:34Z</time>
      </trkpt>
      <trkpt lat="44.38834" lon="5.73151">
        <ele>626</ele>
        <time>2019-03-29T13:38:35Z</time>
      </trkpt>
      <trkpt lat="44.3884" lon="5.73147">
        <ele>626</ele>
        <time>2019-03-29T13:38:36Z</time>
      </trkpt>
      <trkpt lat="44.38847" lon="5.73143">
        <ele>626</ele>
        <time>2019-03-29T13:38:37Z</time>
      </trkpt>
      <trkpt lat="44.38854" lon="5.73139">
        <ele>626</ele>
        <time>2019-03-29T13:38:38Z</time>
      </trkpt>
      <trkpt lat="44.38861" lon="5.73136">
        <ele>626</ele>
        <time>2019-03-29T13:38:39Z</time>
      </trkpt>
      <trkpt lat="44.38867" lon="5.73132">
        <ele>626</ele>
        <time>2019-03-29T13:38:40Z</time>
      </trkpt>
      <trkpt lat="44.38874" lon="5.73127">
        <ele>626</ele>
        <time>2019-03-29T13:38:41Z</time>
      </trkpt>
      <trkpt lat="44.3888" lon="5.73123">
        <ele>626</ele>
        <time>2019-03-29T13:38:42Z</time>
      </trkpt>
      <trkpt lat="44.38886" lon="5.73119">
        <ele>626</ele>
        <time>2019-03-29T13:38:43Z</time>
      </trkpt>
      <trkpt lat="44.38892" lon="5.73114">
        <ele>626</ele>
        <time>2019-03-29T13:38:44Z</time>
      </trkpt>
      <trkpt lat="44.38899" lon="5.7311">
        <ele>626</ele>
        <time>2019-03-29T13:38:45Z</time>
      </trkpt>
      <trkpt lat="44.38905" lon="5.73105">
        <ele>626</ele>
        <time>2019-03-29T13:38:46Z</time>
      </trkpt>
      <trkpt lat="44.38911" lon="5.731">
        <ele>626</ele>
        <time>2019-03-29T13:38:47Z</time>
      </trkpt>
      <trkpt lat="44.38917" lon="5.73095">
        <ele>626</ele>
        <time>2019-03-29T13:38:48Z</time>
      </trkpt>
      <trkpt lat="44.38923" lon="5.7309">
        <ele>626</ele>
        <time>2019-03-29T13:38:49Z</time>
      </trkpt>
      <trkpt lat="44.38929" lon="5.73085">
        <ele>626</ele>
        <time>2019-03-29T13:38:50Z</time>
      </trkpt>
      <trkpt lat="44.38935" lon="5.7308">
        <ele>626</ele>
        <time>2019-03-29T13:38:52Z</time>
      </trkpt>
      <trkpt lat="44.38941" lon="5.73074">
        <ele>626</ele>
        <time>2019-03-29T13:38:52Z</time>
      </trkpt>
      <trkpt lat="44.38947" lon="5.73069">
        <ele>626</ele>
        <time>2019-03-29T13:38:53Z</time>
      </trkpt>
      <trkpt lat="44.38953" lon="5.73063">
        <ele>626</ele>
        <time>2019-03-29T13:38:54Z</time>
      </trkpt>
      <trkpt lat="44.38959" lon="5.73058">
        <ele>626</ele>
        <time>2019-03-29T13:38:55Z</time>
      </trkpt>
      <trkpt lat="44.38964" lon="5.73052">
        <ele>626</ele>
        <time>2019-03-29T13:38:56Z</time>
      </trkpt>
      <trkpt lat="44.3897" lon="5.73047">
        <ele>626</ele>
        <time>2019-03-29T13:38:57Z</time>
      </trkpt>
      <trkpt lat="44.38976" lon="5.73042">
        <ele>626</ele>
        <time>2019-03-29T13:38:58Z</time>
      </trkpt>
      <trkpt lat="44.38981" lon="5.73037">
        <ele>626</ele>
        <time>2019-03-29T13:38:59Z</time>
      </trkpt>
      <trkpt lat="44.38986" lon="5.73033">
        <ele>626</ele>
        <time>2019-03-29T13:39:00Z</time>
      </trkpt>
      <trkpt lat="44.38992" lon="5.73029">
        <ele>626</ele>
        <time>2019-03-29T13:39:01Z</time>
      </trkpt>
      <trkpt lat="44.38997" lon="5.73025">
        <ele>626</ele>
        <time>2019-03-29T13:39:02Z</time>
      </trkpt>
      <trkpt lat="44.39002" lon="5.73021">
        <ele>626</ele>
        <time>2019-03-29T13:39:03Z</time>
      </trkpt>
      <trkpt lat="44.39007" lon="5.73018">
        <ele>626</ele>
        <time>2019-03-29T13:39:04Z</time>
      </trkpt>
      <trkpt lat="44.39012" lon="5.73015">
        <ele>626</ele>
        <time>2019-03-29T13:39:05Z</time>
      </trkpt>
      <trkpt lat="44.39017" lon="5.73012">
        <ele>626</ele>
        <time>2019-03-29T13:39:06Z</time>
      </trkpt>
      <trkpt lat="44.39023" lon="5.73009">
        <ele>626</ele>
        <time>2019-03-29T13:39:07Z</time>
      </trkpt>
      <trkpt lat="44.39028" lon="5.73007">
        <ele>626</ele>
        <time>2019-03-29T13:39:08Z</time>
      </trkpt>
      <trkpt lat="44.39034" lon="5.73005">
        <ele>626</ele>
        <time>2019-03-29T13:39:09Z</time>
      </trkpt>
      <trkpt lat="44.3904" lon="5.73003">
        <ele>626</ele>
        <time>2019-03-29T13:39:10Z</time>
      </trkpt>
      <trkpt lat="44.39046" lon="5.73001">
        <ele>626</ele>
        <time>2019-03-29T13:39:11Z</time>
      </trkpt>
      <trkpt lat="44.39052" lon="5.73">
        <ele>626</ele>
        <time>2019-03-29T13:39:12Z</time>
      </trkpt>
      <trkpt lat="44.39059" lon="5.73">
        <ele>627</ele>
        <time>2019-03-29T13:39:13Z</time>
      </trkpt>
      <trkpt lat="44.39065" lon="5.72999">
        <ele>627</ele>
        <time>2019-03-29T13:39:14Z</time>
      </trkpt>
      <trkpt lat="44.39071" lon="5.72999">
        <ele>627</ele>
        <time>2019-03-29T13:39:15Z</time>
      </trkpt>
      <trkpt lat="44.39077" lon="5.72999">
        <ele>627</ele>
        <time>2019-03-29T13:39:16Z</time>
      </trkpt>
      <trkpt lat="44.39084" lon="5.72999">
        <ele>627</ele>
        <time>2019-03-29T13:39:17Z</time>
      </trkpt>
      <trkpt lat="44.3909" lon="5.73001">
        <ele>628</ele>
        <time>2019-03-29T13:39:18Z</time>
      </trkpt>
      <trkpt lat="44.39096" lon="5.73003">
        <ele>628</ele>
        <time>2019-03-29T13:39:19Z</time>
      </trkpt>
      <trkpt lat="44.39102" lon="5.73006">
        <ele>628</ele>
        <time>2019-03-29T13:39:20Z</time>
      </trkpt>
      <trkpt lat="44.39108" lon="5.7301">
        <ele>628</ele>
        <time>2019-03-29T13:39:21Z</time>
      </trkpt>
      <trkpt lat="44.39114" lon="5.73013">
        <ele>628</ele>
        <time>2019-03-29T13:39:22Z</time>
      </trkpt>
      <trkpt lat="44.3912" lon="5.73018">
        <ele>628</ele>
        <time>2019-03-29T13:39:23Z</time>
      </trkpt>
      <trkpt lat="44.39125" lon="5.73022">
        <ele>628</ele>
        <time>2019-03-29T13:39:24Z</time>
      </trkpt>
      <trkpt lat="44.39131" lon="5.73027">
        <ele>628</ele>
        <time>2019-03-29T13:39:25Z</time>
      </trkpt>
      <trkpt lat="44.39137" lon="5.73032">
        <ele>628</ele>
        <time>2019-03-29T13:39:26Z</time>
      </trkpt>
      <trkpt lat="44.39142" lon="5.73037">
        <ele>628</ele>
        <time>2019-03-29T13:39:27Z</time>
      </trkpt>
      <trkpt lat="44.39148" lon="5.73042">
        <ele>628</ele>
        <time>2019-03-29T13:39:28Z</time>
      </trkpt>
      <trkpt lat="44.39153" lon="5.73047">
        <ele>628</ele>
        <time>2019-03-29T13:39:29Z</time>
      </trkpt>
      <trkpt lat="44.39158" lon="5.73053">
        <ele>628</ele>
        <time>2019-03-29T13:39:30Z</time>
      </trkpt>
      <trkpt lat="44.39164" lon="5.73058">
        <ele>628</ele>
        <time>2019-03-29T13:39:31Z</time>
      </trkpt>
      <trkpt lat="44.39169" lon="5.73064">
        <ele>628</ele>
        <time>2019-03-29T13:39:32Z</time>
      </trkpt>
      <trkpt lat="44.39174" lon="5.73069">
        <ele>628</ele>
        <time>2019-03-29T13:39:33Z</time>
      </trkpt>
      <trkpt lat="44.3918" lon="5.73074">
        <ele>628</ele>
        <time>2019-03-29T13:39:34Z</time>
      </trkpt>
      <trkpt lat="44.39185" lon="5.73078">
        <ele>628</ele>
        <time>2019-03-29T13:39:35Z</time>
      </trkpt>
      <trkpt lat="44.39191" lon="5.73082">
        <ele>628</ele>
        <time>2019-03-29T13:39:36Z</time>
      </trkpt>
      <trkpt lat="44.39197" lon="5.73086">
        <ele>628</ele>
        <time>2019-03-29T13:39:37Z</time>
      </trkpt>
      <trkpt lat="44.39203" lon="5.73089">
        <ele>628</ele>
        <time>2019-03-29T13:39:38Z</time>
      </trkpt>
      <trkpt lat="44.39209" lon="5.73091">
        <ele>628</ele>
        <time>2019-03-29T13:39:39Z</time>
      </trkpt>
      <trkpt lat="44.39215" lon="5.73093">
        <ele>628</ele>
        <time>2019-03-29T13:39:40Z</time>
      </trkpt>
      <trkpt lat="44.39222" lon="5.73095">
        <ele>628</ele>
        <time>2019-03-29T13:39:41Z</time>
      </trkpt>
      <trkpt lat="44.39228" lon="5.73096">
        <ele>628</ele>
        <time>2019-03-29T13:39:42Z</time>
      </trkpt>
      <trkpt lat="44.39235" lon="5.73097">
        <ele>628</ele>
        <time>2019-03-29T13:39:43Z</time>
      </trkpt>
      <trkpt lat="44.39242" lon="5.73097">
        <ele>628</ele>
        <time>2019-03-29T13:39:44Z</time>
      </trkpt>
      <trkpt lat="44.39249" lon="5.73097">
        <ele>628</ele>
        <time>2019-03-29T13:39:45Z</time>
      </trkpt>
      <trkpt lat="44.39256" lon="5.73096">
        <ele>628</ele>
        <time>2019-03-29T13:39:46Z</time>
      </trkpt>
      <trkpt lat="44.39263" lon="5.73094">
        <ele>628</ele>
        <time>2019-03-29T13:39:47Z</time>
      </trkpt>
      <trkpt lat="44.3927" lon="5.73092">
        <ele>628</ele>
        <time>2019-03-29T13:39:48Z</time>
      </trkpt>
      <trkpt lat="44.39277" lon="5.7309">
        <ele>628</ele>
        <time>2019-03-29T13:39:49Z</time>
      </trkpt>
      <trkpt lat="44.39283" lon="5.73088">
        <ele>628</ele>
        <time>2019-03-29T13:39:50Z</time>
      </trkpt>
      <trkpt lat="44.3929" lon="5.73085">
        <ele>628</ele>
        <time>2019-03-29T13:39:52Z</time>
      </trkpt>
      <trkpt lat="44.39297" lon="5.73083">
        <ele>628</ele>
        <time>2019-03-29T13:39:52Z</time>
      </trkpt>
      <trkpt lat="44.39304" lon="5.7308">
        <ele>628</ele>
        <time>2019-03-29T13:39:53Z</time>
      </trkpt>
      <trkpt lat="44.39312" lon="5.73078">
        <ele>628</ele>
        <time>2019-03-29T13:39:54Z</time>
      </trkpt>
      <trkpt lat="44.39318" lon="5.73075">
        <ele>628</ele>
        <time>2019-03-29T13:39:55Z</time>
      </trkpt>
      <trkpt lat="44.39325" lon="5.73072">
        <ele>628</ele>
        <time>2019-03-29T13:39:56Z</time>
      </trkpt>
      <trkpt lat="44.39332" lon="5.7307">
        <ele>628</ele>
        <time>2019-03-29T13:39:57Z</time>
      </trkpt>
      <trkpt lat="44.39339" lon="5.73067">
        <ele>628</ele>
        <time>2019-03-29T13:39:58Z</time>
      </trkpt>
      <trkpt lat="44.39346" lon="5.73065">
        <ele>628</ele>
        <time>2019-03-29T13:39:59Z</time>
      </trkpt>
      <trkpt lat="44.39353" lon="5.73063">
        <ele>628</ele>
        <time>2019-03-29T13:40:00Z</time>
      </trkpt>
      <trkpt lat="44.3936" lon="5.7306">
        <ele>628</ele>
        <time>2019-03-29T13:40:01Z</time>
      </trkpt>
      <trkpt lat="44.39367" lon="5.73057">
        <ele>628</ele>
        <time>2019-03-29T13:40:02Z</time>
      </trkpt>
      <trkpt lat="44.39374" lon="5.73055">
        <ele>628</ele>
        <time>2019-03-29T13:40:03Z</time>
      </trkpt>
      <trkpt lat="44.39381" lon="5.73052">
        <ele>628</ele>
        <time>2019-03-29T13:40:04Z</time>
      </trkpt>
      <trkpt lat="44.39387" lon="5.7305">
        <ele>628</ele>
        <time>2019-03-29T13:40:05Z</time>
      </trkpt>
      <trkpt lat="44.39394" lon="5.73047">
        <ele>628</ele>
        <time>2019-03-29T13:40:06Z</time>
      </trkpt>
      <trkpt lat="44.394" lon="5.73045">
        <ele>628</ele>
        <time>2019-03-29T13:40:07Z</time>
      </trkpt>
      <trkpt lat="44.39407" lon="5.73042">
        <ele>628</ele>
        <time>2019-03-29T13:40:08Z</time>
      </trkpt>
      <trkpt lat="44.39413" lon="5.73038">
        <ele>628</ele>
        <time>2019-03-29T13:40:09Z</time>
      </trkpt>
      <trkpt lat="44.3942" lon="5.73035">
        <ele>629</ele>
        <time>2019-03-29T13:40:10Z</time>
      </trkpt>
      <trkpt lat="44.39426" lon="5.73031">
        <ele>629</ele>
        <time>2019-03-29T13:40:11Z</time>
      </trkpt>
      <trkpt lat="44.39432" lon="5.73027">
        <ele>629</ele>
        <time>2019-03-29T13:40:12Z</time>
      </trkpt>
      <trkpt lat="44.39437" lon="5.73022">
        <ele>629</ele>
        <time>2019-03-29T13:40:13Z</time>
      </trkpt>
      <trkpt lat="44.39443" lon="5.73018">
        <ele>629</ele>
        <time>2019-03-29T13:40:14Z</time>
      </trkpt>
      <trkpt lat="44.39449" lon="5.73013">
        <ele>630</ele>
        <time>2019-03-29T13:40:15Z</time>
      </trkpt>
      <trkpt lat="44.39455" lon="5.7301">
        <ele>630</ele>
        <time>2019-03-29T13:40:16Z</time>
      </trkpt>
      <trkpt lat="44.39461" lon="5.73006">
        <ele>630</ele>
        <time>2019-03-29T13:40:17Z</time>
      </trkpt>
      <trkpt lat="44.39467" lon="5.73002">
        <ele>630</ele>
        <time>2019-03-29T13:40:18Z</time>
      </trkpt>
      <trkpt lat="44.39473" lon="5.72999">
        <ele>631</ele>
        <time>2019-03-29T13:40:19Z</time>
      </trkpt>
      <trkpt lat="44.39479" lon="5.72996">
        <ele>631</ele>
        <time>2019-03-29T13:40:20Z</time>
      </trkpt>
      <trkpt lat="44.39486" lon="5.72992">
        <ele>631</ele>
        <time>2019-03-29T13:40:21Z</time>
      </trkpt>
      <trkpt lat="44.39492" lon="5.72989">
        <ele>631</ele>
        <time>2019-03-29T13:40:22Z</time>
      </trkpt>
      <trkpt lat="44.39498" lon="5.72987">
        <ele>631</ele>
        <time>2019-03-29T13:40:23Z</time>
      </trkpt>
      <trkpt lat="44.39504" lon="5.72985">
        <ele>632</ele>
        <time>2019-03-29T13:40:24Z</time>
      </trkpt>
      <trkpt lat="44.3951" lon="5.72983">
        <ele>632</ele>
        <time>2019-03-29T13:40:25Z</time>
      </trkpt>
      <trkpt lat="44.39516" lon="5.7298">
        <ele>632</ele>
        <time>2019-03-29T13:40:26Z</time>
      </trkpt>
      <trkpt lat="44.39523" lon="5.72978">
        <ele>632</ele>
        <time>2019-03-29T13:40:27Z</time>
      </trkpt>
      <trkpt lat="44.39529" lon="5.72976">
        <ele>633</ele>
        <time>2019-03-29T13:40:28Z</time>
      </trkpt>
      <trkpt lat="44.39535" lon="5.72973">
        <ele>633</ele>
        <time>2019-03-29T13:40:29Z</time>
      </trkpt>
      <trkpt lat="44.39541" lon="5.7297">
        <ele>633</ele>
        <time>2019-03-29T13:40:30Z</time>
      </trkpt>
      <trkpt lat="44.39547" lon="5.72967">
        <ele>634</ele>
        <time>2019-03-29T13:40:31Z</time>
      </trkpt>
      <trkpt lat="44.39553" lon="5.72963">
        <ele>634</ele>
        <time>2019-03-29T13:40:32Z</time>
      </trkpt>
      <trkpt lat="44.39559" lon="5.7296">
        <ele>634</ele>
        <time>2019-03-29T13:40:33Z</time>
      </trkpt>
      <trkpt lat="44.39565" lon="5.72956">
        <ele>634</ele>
        <time>2019-03-29T13:40:34Z</time>
      </trkpt>
      <trkpt lat="44.39571" lon="5.72952">
        <ele>635</ele>
        <time>2019-03-29T13:40:35Z</time>
      </trkpt>
      <trkpt lat="44.39576" lon="5.72947">
        <ele>635</ele>
        <time>2019-03-29T13:40:36Z</time>
      </trkpt>
      <trkpt lat="44.39581" lon="5.72942">
        <ele>635</ele>
        <time>2019-03-29T13:40:37Z</time>
      </trkpt>
      <trkpt lat="44.39586" lon="5.72936">
        <ele>635</ele>
        <time>2019-03-29T13:40:38Z</time>
      </trkpt>
      <trkpt lat="44.39591" lon="5.72931">
        <ele>636</ele>
        <time>2019-03-29T13:40:39Z</time>
      </trkpt>
      <trkpt lat="44.39597" lon="5.72926">
        <ele>636</ele>
        <time>2019-03-29T13:40:40Z</time>
      </trkpt>
      <trkpt lat="44.39602" lon="5.72921">
        <ele>636</ele>
        <time>2019-03-29T13:40:41Z</time>
      </trkpt>
      <trkpt lat="44.39606" lon="5.72916">
        <ele>636</ele>
        <time>2019-03-29T13:40:42Z</time>
      </trkpt>
      <trkpt lat="44.39611" lon="5.72911">
        <ele>637</ele>
        <time>2019-03-29T13:40:43Z</time>
      </trkpt>
      <trkpt lat="44.39616" lon="5.72905">
        <ele>637</ele>
        <time>2019-03-29T13:40:44Z</time>
      </trkpt>
      <trkpt lat="44.39621" lon="5.729">
        <ele>637</ele>
        <time>2019-03-29T13:40:45Z</time>
      </trkpt>
      <trkpt lat="44.39626" lon="5.72895">
        <ele>637</ele>
        <time>2019-03-29T13:40:46Z</time>
      </trkpt>
      <trkpt lat="44.39631" lon="5.7289">
        <ele>638</ele>
        <time>2019-03-29T13:40:47Z</time>
      </trkpt>
      <trkpt lat="44.39635" lon="5.72884">
        <ele>638</ele>
        <time>2019-03-29T13:40:48Z</time>
      </trkpt>
      <trkpt lat="44.3964" lon="5.72879">
        <ele>638</ele>
        <time>2019-03-29T13:40:49Z</time>
      </trkpt>
      <trkpt lat="44.39645" lon="5.72873">
        <ele>638</ele>
        <time>2019-03-29T13:40:50Z</time>
      </trkpt>
      <trkpt lat="44.3965" lon="5.72868">
        <ele>638</ele>
        <time>2019-03-29T13:40:52Z</time>
      </trkpt>
      <trkpt lat="44.39655" lon="5.72862">
        <ele>638</ele>
        <time>2019-03-29T13:40:52Z</time>
      </trkpt>
      <trkpt lat="44.3966" lon="5.72856">
        <ele>638</ele>
        <time>2019-03-29T13:40:53Z</time>
      </trkpt>
      <trkpt lat="44.39665" lon="5.72851">
        <ele>638</ele>
        <time>2019-03-29T13:40:54Z</time>
      </trkpt>
      <trkpt lat="44.3967" lon="5.72845">
        <ele>638</ele>
        <time>2019-03-29T13:40:55Z</time>
      </trkpt>
      <trkpt lat="44.39675" lon="5.72839">
        <ele>638</ele>
        <time>2019-03-29T13:40:56Z</time>
      </trkpt>
      <trkpt lat="44.3968" lon="5.72833">
        <ele>638</ele>
        <time>2019-03-29T13:40:57Z</time>
      </trkpt>
      <trkpt lat="44.39685" lon="5.72827">
        <ele>638</ele>
        <time>2019-03-29T13:40:58Z</time>
      </trkpt>
      <trkpt lat="44.3969" lon="5.72821">
        <ele>638</ele>
        <time>2019-03-29T13:40:59Z</time>
      </trkpt>
      <trkpt lat="44.39695" lon="5.72815">
        <ele>638</ele>
        <time>2019-03-29T13:41:00Z</time>
      </trkpt>
      <trkpt lat="44.397" lon="5.72809">
        <ele>638</ele>
        <time>2019-03-29T13:41:01Z</time>
      </trkpt>
      <trkpt lat="44.39706" lon="5.72803">
        <ele>638</ele>
        <time>2019-03-29T13:41:02Z</time>
      </trkpt>
      <trkpt lat="44.39711" lon="5.72797">
        <ele>638</ele>
        <time>2019-03-29T13:41:03Z</time>
      </trkpt>
      <trkpt lat="44.39716" lon="5.7279">
        <ele>638</ele>
        <time>2019-03-29T13:41:04Z</time>
      </trkpt>
      <trkpt lat="44.3972" lon="5.72784">
        <ele>638</ele>
        <time>2019-03-29T13:41:05Z</time>
      </trkpt>
      <trkpt lat="44.39725" lon="5.72778">
        <ele>638</ele>
        <time>2019-03-29T13:41:06Z</time>
      </trkpt>
      <trkpt lat="44.3973" lon="5.72772">
        <ele>638</ele>
        <time>2019-03-29T13:41:07Z</time>
      </trkpt>
      <trkpt lat="44.39735" lon="5.72765">
        <ele>638</ele>
        <time>2019-03-29T13:41:08Z</time>
      </trkpt>
      <trkpt lat="44.3974" lon="5.72759">
        <ele>638</ele>
        <time>2019-03-29T13:41:09Z</time>
      </trkpt>
      <trkpt lat="44.39746" lon="5.72753">
        <ele>639</ele>
        <time>2019-03-29T13:41:10Z</time>
      </trkpt>
      <trkpt lat="44.39751" lon="5.72747">
        <ele>639</ele>
        <time>2019-03-29T13:41:11Z</time>
      </trkpt>
      <trkpt lat="44.39756" lon="5.72741">
        <ele>639</ele>
        <time>2019-03-29T13:41:12Z</time>
      </trkpt>
      <trkpt lat="44.39761" lon="5.72734">
        <ele>639</ele>
        <time>2019-03-29T13:41:13Z</time>
      </trkpt>
      <trkpt lat="44.39766" lon="5.72728">
        <ele>639</ele>
        <time>2019-03-29T13:41:14Z</time>
      </trkpt>
      <trkpt lat="44.39772" lon="5.72721">
        <ele>639</ele>
        <time>2019-03-29T13:41:15Z</time>
      </trkpt>
      <trkpt lat="44.39777" lon="5.72715">
        <ele>639</ele>
        <time>2019-03-29T13:41:16Z</time>
      </trkpt>
      <trkpt lat="44.39782" lon="5.72708">
        <ele>639</ele>
        <time>2019-03-29T13:41:17Z</time>
      </trkpt>
      <trkpt lat="44.39787" lon="5.72701">
        <ele>639</ele>
        <time>2019-03-29T13:41:18Z</time>
      </trkpt>
      <trkpt lat="44.39791" lon="5.72695">
        <ele>639</ele>
        <time>2019-03-29T13:41:19Z</time>
      </trkpt>
      <trkpt lat="44.39796" lon="5.72688">
        <ele>639</ele>
        <time>2019-03-29T13:41:20Z</time>
      </trkpt>
      <trkpt lat="44.39801" lon="5.72681">
        <ele>640</ele>
        <time>2019-03-29T13:41:21Z</time>
      </trkpt>
      <trkpt lat="44.39806" lon="5.72674">
        <ele>640</ele>
        <time>2019-03-29T13:41:22Z</time>
      </trkpt>
      <trkpt lat="44.39811" lon="5.72667">
        <ele>640</ele>
        <time>2019-03-29T13:41:23Z</time>
      </trkpt>
      <trkpt lat="44.39816" lon="5.72659">
        <ele>640</ele>
        <time>2019-03-29T13:41:24Z</time>
      </trkpt>
      <trkpt lat="44.39821" lon="5.72652">
        <ele>640</ele>
        <time>2019-03-29T13:41:25Z</time>
      </trkpt>
      <trkpt lat="44.39826" lon="5.72645">
        <ele>640</ele>
        <time>2019-03-29T13:41:26Z</time>
      </trkpt>
      <trkpt lat="44.39831" lon="5.72638">
        <ele>640</ele>
        <time>2019-03-29T13:41:27Z</time>
      </trkpt>
      <trkpt lat="44.39835" lon="5.72631">
        <ele>640</ele>
        <time>2019-03-29T13:41:28Z</time>
      </trkpt>
      <trkpt lat="44.3984" lon="5.72624">
        <ele>640</ele>
        <time>2019-03-29T13:41:29Z</time>
      </trkpt>
      <trkpt lat="44.39845" lon="5.72617">
        <ele>640</ele>
        <time>2019-03-29T13:41:30Z</time>
      </trkpt>
      <trkpt lat="44.3985" lon="5.7261">
        <ele>641</ele>
        <time>2019-03-29T13:41:31Z</time>
      </trkpt>
      <trkpt lat="44.39855" lon="5.72603">
        <ele>641</ele>
        <time>2019-03-29T13:41:32Z</time>
      </trkpt>
      <trkpt lat="44.3986" lon="5.72596">
        <ele>641</ele>
        <time>2019-03-29T13:41:33Z</time>
      </trkpt>
      <trkpt lat="44.39865" lon="5.72589">
        <ele>641</ele>
        <time>2019-03-29T13:41:34Z</time>
      </trkpt>
      <trkpt lat="44.3987" lon="5.72582">
        <ele>641</ele>
        <time>2019-03-29T13:41:35Z</time>
      </trkpt>
      <trkpt lat="44.39875" lon="5.72575">
        <ele>641</ele>
        <time>2019-03-29T13:41:36Z</time>
      </trkpt>
      <trkpt lat="44.3988" lon="5.72569">
        <ele>641</ele>
        <time>2019-03-29T13:41:37Z</time>
      </trkpt>
      <trkpt lat="44.39885" lon="5.72562">
        <ele>641</ele>
        <time>2019-03-29T13:41:38Z</time>
      </trkpt>
      <trkpt lat="44.39891" lon="5.72556">
        <ele>641</ele>
        <time>2019-03-29T13:41:39Z</time>
      </trkpt>
      <trkpt lat="44.39896" lon="5.72549">
        <ele>641</ele>
        <time>2019-03-29T13:41:40Z</time>
      </trkpt>
      <trkpt lat="44.39901" lon="5.72542">
        <ele>641</ele>
        <time>2019-03-29T13:41:41Z</time>
      </trkpt>
      <trkpt lat="44.39907" lon="5.72536">
        <ele>641</ele>
        <time>2019-03-29T13:41:42Z</time>
      </trkpt>
      <trkpt lat="44.39912" lon="5.72529">
        <ele>641</ele>
        <time>2019-03-29T13:41:43Z</time>
      </trkpt>
      <trkpt lat="44.39917" lon="5.72522">
        <ele>641</ele>
        <time>2019-03-29T13:41:44Z</time>
      </trkpt>
      <trkpt lat="44.39922" lon="5.72515">
        <ele>641</ele>
        <time>2019-03-29T13:41:45Z</time>
      </trkpt>
      <trkpt lat="44.39927" lon="5.72508">
        <ele>641</ele>
        <time>2019-03-29T13:41:46Z</time>
      </trkpt>
      <trkpt lat="44.39932" lon="5.72501">
        <ele>641</ele>
        <time>2019-03-29T13:41:47Z</time>
      </trkpt>
      <trkpt lat="44.39936" lon="5.72494">
        <ele>641</ele>
        <time>2019-03-29T13:41:48Z</time>
      </trkpt>
      <trkpt lat="44.3994" lon="5.72487">
        <ele>641</ele>
        <time>2019-03-29T13:41:49Z</time>
      </trkpt>
      <trkpt lat="44.39944" lon="5.72479">
        <ele>641</ele>
        <time>2019-03-29T13:41:50Z</time>
      </trkpt>
      <trkpt lat="44.39948" lon="5.72472">
        <ele>641</ele>
        <time>2019-03-29T13:41:52Z</time>
      </trkpt>
      <trkpt lat="44.39952" lon="5.72465">
        <ele>641</ele>
        <time>2019-03-29T13:41:52Z</time>
      </trkpt>
      <trkpt lat="44.39956" lon="5.72457">
        <ele>641</ele>
        <time>2019-03-29T13:41:53Z</time>
      </trkpt>
      <trkpt lat="44.3996" lon="5.7245">
        <ele>641</ele>
        <time>2019-03-29T13:41:54Z</time>
      </trkpt>
      <trkpt lat="44.39965" lon="5.72442">
        <ele>641</ele>
        <time>2019-03-29T13:41:55Z</time>
      </trkpt>
      <trkpt lat="44.39969" lon="5.72435">
        <ele>641</ele>
        <time>2019-03-29T13:41:56Z</time>
      </trkpt>
      <trkpt lat="44.39973" lon="5.72427">
        <ele>641</ele>
        <time>2019-03-29T13:41:57Z</time>
      </trkpt>
      <trkpt lat="44.39978" lon="5.7242">
        <ele>641</ele>
        <time>2019-03-29T13:41:58Z</time>
      </trkpt>
      <trkpt lat="44.39982" lon="5.72413">
        <ele>641</ele>
        <time>2019-03-29T13:41:59Z</time>
      </trkpt>
      <trkpt lat="44.39987" lon="5.72406">
        <ele>641</ele>
        <time>2019-03-29T13:42:00Z</time>
      </trkpt>
      <trkpt lat="44.39991" lon="5.724">
        <ele>641</ele>
        <time>2019-03-29T13:42:01Z</time>
      </trkpt>
      <trkpt lat="44.39996" lon="5.72393">
        <ele>641</ele>
        <time>2019-03-29T13:42:02Z</time>
      </trkpt>
      <trkpt lat="44.40001" lon="5.72387">
        <ele>641</ele>
        <time>2019-03-29T13:42:03Z</time>
      </trkpt>
      <trkpt lat="44.40007" lon="5.72381">
        <ele>641</ele>
        <time>2019-03-29T13:42:04Z</time>
      </trkpt>
      <trkpt lat="44.40012" lon="5.72376">
        <ele>641</ele>
        <time>2019-03-29T13:42:05Z</time>
      </trkpt>
      <trkpt lat="44.40017" lon="5.7237">
        <ele>641</ele>
        <time>2019-03-29T13:42:06Z</time>
      </trkpt>
      <trkpt lat="44.40022" lon="5.72365">
        <ele>641</ele>
        <time>2019-03-29T13:42:07Z</time>
      </trkpt>
      <trkpt lat="44.40028" lon="5.7236">
        <ele>641</ele>
        <time>2019-03-29T13:42:08Z</time>
      </trkpt>
      <trkpt lat="44.40033" lon="5.72355">
        <ele>641</ele>
        <time>2019-03-29T13:42:09Z</time>
      </trkpt>
      <trkpt lat="44.40038" lon="5.7235">
        <ele>641</ele>
        <time>2019-03-29T13:42:10Z</time>
      </trkpt>
      <trkpt lat="44.40044" lon="5.72344">
        <ele>641</ele>
        <time>2019-03-29T13:42:11Z</time>
      </trkpt>
      <trkpt lat="44.40049" lon="5.72339">
        <ele>641</ele>
        <time>2019-03-29T13:42:12Z</time>
      </trkpt>
      <trkpt lat="44.40055" lon="5.72334">
        <ele>641</ele>
        <time>2019-03-29T13:42:13Z</time>
      </trkpt>
      <trkpt lat="44.4006" lon="5.72329">
        <ele>641</ele>
        <time>2019-03-29T13:42:15Z</time>
      </trkpt>
      <trkpt lat="44.40066" lon="5.72324">
        <ele>641</ele>
        <time>2019-03-29T13:42:15Z</time>
      </trkpt>
      <trkpt lat="44.40071" lon="5.72319">
        <ele>641</ele>
        <time>2019-03-29T13:42:16Z</time>
      </trkpt>
      <trkpt lat="44.40077" lon="5.72314">
        <ele>641</ele>
        <time>2019-03-29T13:42:17Z</time>
      </trkpt>
      <trkpt lat="44.40082" lon="5.72309">
        <ele>641</ele>
        <time>2019-03-29T13:42:18Z</time>
      </trkpt>
      <trkpt lat="44.40088" lon="5.72304">
        <ele>641</ele>
        <time>2019-03-29T13:42:19Z</time>
      </trkpt>
      <trkpt lat="44.40093" lon="5.72299">
        <ele>641</ele>
        <time>2019-03-29T13:42:20Z</time>
      </trkpt>
      <trkpt lat="44.40099" lon="5.72294">
        <ele>642</ele>
        <time>2019-03-29T13:42:21Z</time>
      </trkpt>
      <trkpt lat="44.40104" lon="5.72289">
        <ele>642</ele>
        <time>2019-03-29T13:42:22Z</time>
      </trkpt>
      <trkpt lat="44.40109" lon="5.72284">
        <ele>642</ele>
        <time>2019-03-29T13:42:23Z</time>
      </trkpt>
      <trkpt lat="44.40114" lon="5.72279">
        <ele>642</ele>
        <time>2019-03-29T13:42:24Z</time>
      </trkpt>
      <trkpt lat="44.40119" lon="5.72274">
        <ele>642</ele>
        <time>2019-03-29T13:42:25Z</time>
      </trkpt>
      <trkpt lat="44.40125" lon="5.7227">
        <ele>642</ele>
        <time>2019-03-29T13:42:26Z</time>
      </trkpt>
      <trkpt lat="44.4013" lon="5.72265">
        <ele>643</ele>
        <time>2019-03-29T13:42:27Z</time>
      </trkpt>
      <trkpt lat="44.40135" lon="5.7226">
        <ele>643</ele>
        <time>2019-03-29T13:42:28Z</time>
      </trkpt>
      <trkpt lat="44.4014" lon="5.72255">
        <ele>643</ele>
        <time>2019-03-29T13:42:29Z</time>
      </trkpt>
      <trkpt lat="44.40145" lon="5.72251">
        <ele>643</ele>
        <time>2019-03-29T13:42:30Z</time>
      </trkpt>
      <trkpt lat="44.40151" lon="5.72246">
        <ele>643</ele>
        <time>2019-03-29T13:42:31Z</time>
      </trkpt>
      <trkpt lat="44.40156" lon="5.7224">
        <ele>643</ele>
        <time>2019-03-29T13:42:32Z</time>
      </trkpt>
      <trkpt lat="44.40161" lon="5.72235">
        <ele>643</ele>
        <time>2019-03-29T13:42:33Z</time>
      </trkpt>
      <trkpt lat="44.40166" lon="5.7223">
        <ele>643</ele>
        <time>2019-03-29T13:42:34Z</time>
      </trkpt>
      <trkpt lat="44.40172" lon="5.72224">
        <ele>643</ele>
        <time>2019-03-29T13:42:35Z</time>
      </trkpt>
      <trkpt lat="44.40178" lon="5.72219">
        <ele>643</ele>
        <time>2019-03-29T13:42:36Z</time>
      </trkpt>
      <trkpt lat="44.40183" lon="5.72214">
        <ele>643</ele>
        <time>2019-03-29T13:42:37Z</time>
      </trkpt>
      <trkpt lat="44.40189" lon="5.72208">
        <ele>643</ele>
        <time>2019-03-29T13:42:38Z</time>
      </trkpt>
      <trkpt lat="44.40194" lon="5.72203">
        <ele>643</ele>
        <time>2019-03-29T13:42:39Z</time>
      </trkpt>
      <trkpt lat="44.402" lon="5.72198">
        <ele>643</ele>
        <time>2019-03-29T13:42:40Z</time>
      </trkpt>
      <trkpt lat="44.40205" lon="5.72192">
        <ele>643</ele>
        <time>2019-03-29T13:42:41Z</time>
      </trkpt>
      <trkpt lat="44.40211" lon="5.72187">
        <ele>643</ele>
        <time>2019-03-29T13:42:42Z</time>
      </trkpt>
      <trkpt lat="44.40216" lon="5.72181">
        <ele>643</ele>
        <time>2019-03-29T13:42:43Z</time>
      </trkpt>
      <trkpt lat="44.40221" lon="5.72176">
        <ele>643</ele>
        <time>2019-03-29T13:42:44Z</time>
      </trkpt>
      <trkpt lat="44.40227" lon="5.7217">
        <ele>643</ele>
        <time>2019-03-29T13:42:45Z</time>
      </trkpt>
      <trkpt lat="44.40232" lon="5.72165">
        <ele>643</ele>
        <time>2019-03-29T13:42:46Z</time>
      </trkpt>
      <trkpt lat="44.40237" lon="5.72159">
        <ele>643</ele>
        <time>2019-03-29T13:42:47Z</time>
      </trkpt>
      <trkpt lat="44.40242" lon="5.72153">
        <ele>643</ele>
        <time>2019-03-29T13:42:48Z</time>
      </trkpt>
      <trkpt lat="44.40247" lon="5.72148">
        <ele>643</ele>
        <time>2019-03-29T13:42:49Z</time>
      </trkpt>
      <trkpt lat="44.40252" lon="5.72142">
        <ele>644</ele>
        <time>2019-03-29T13:42:50Z</time>
      </trkpt>
      <trkpt lat="44.40257" lon="5.72136">
        <ele>644</ele>
        <time>2019-03-29T13:42:52Z</time>
      </trkpt>
      <trkpt lat="44.40262" lon="5.7213">
        <ele>644</ele>
        <time>2019-03-29T13:42:52Z</time>
      </trkpt>
      <trkpt lat="44.40267" lon="5.72124">
        <ele>644</ele>
        <time>2019-03-29T13:42:53Z</time>
      </trkpt>
      <trkpt lat="44.40272" lon="5.72118">
        <ele>644</ele>
        <time>2019-03-29T13:42:54Z</time>
      </trkpt>
      <trkpt lat="44.40277" lon="5.72112">
        <ele>644</ele>
        <time>2019-03-29T13:42:55Z</time>
      </trkpt>
      <trkpt lat="44.40282" lon="5.72106">
        <ele>644</ele>
        <time>2019-03-29T13:42:56Z</time>
      </trkpt>
      <trkpt lat="44.40287" lon="5.721">
        <ele>644</ele>
        <time>2019-03-29T13:42:57Z</time>
      </trkpt>
      <trkpt lat="44.40291" lon="5.72094">
        <ele>644</ele>
        <time>2019-03-29T13:42:58Z</time>
      </trkpt>
      <trkpt lat="44.40296" lon="5.72088">
        <ele>644</ele>
        <time>2019-03-29T13:42:59Z</time>
      </trkpt>
      <trkpt lat="44.40301" lon="5.72082">
        <ele>644</ele>
        <time>2019-03-29T13:43:00Z</time>
      </trkpt>
      <trkpt lat="44.40306" lon="5.72075">
        <ele>644</ele>
        <time>2019-03-29T13:43:01Z</time>
      </trkpt>
      <trkpt lat="44.40311" lon="5.72069">
        <ele>644</ele>
        <time>2019-03-29T13:43:02Z</time>
      </trkpt>
      <trkpt lat="44.40316" lon="5.72062">
        <ele>644</ele>
        <time>2019-03-29T13:43:03Z</time>
      </trkpt>
      <trkpt lat="44.40321" lon="5.72056">
        <ele>644</ele>
        <time>2019-03-29T13:43:04Z</time>
      </trkpt>
      <trkpt lat="44.40326" lon="5.7205">
        <ele>644</ele>
        <time>2019-03-29T13:43:05Z</time>
      </trkpt>
      <trkpt lat="44.40331" lon="5.72043">
        <ele>644</ele>
        <time>2019-03-29T13:43:06Z</time>
      </trkpt>
      <trkpt lat="44.40335" lon="5.72037">
        <ele>644</ele>
        <time>2019-03-29T13:43:07Z</time>
      </trkpt>
      <trkpt lat="44.4034" lon="5.7203">
        <ele>644</ele>
        <time>2019-03-29T13:43:08Z</time>
      </trkpt>
      <trkpt lat="44.40345" lon="5.72024">
        <ele>644</ele>
        <time>2019-03-29T13:43:09Z</time>
      </trkpt>
      <trkpt lat="44.4035" lon="5.72018">
        <ele>644</ele>
        <time>2019-03-29T13:43:10Z</time>
      </trkpt>
      <trkpt lat="44.40355" lon="5.72011">
        <ele>644</ele>
        <time>2019-03-29T13:43:11Z</time>
      </trkpt>
      <trkpt lat="44.4036" lon="5.72005">
        <ele>644</ele>
        <time>2019-03-29T13:43:12Z</time>
      </trkpt>
      <trkpt lat="44.40365" lon="5.71998">
        <ele>644</ele>
        <time>2019-03-29T13:43:13Z</time>
      </trkpt>
      <trkpt lat="44.4037" lon="5.71992">
        <ele>644</ele>
        <time>2019-03-29T13:43:14Z</time>
      </trkpt>
      <trkpt lat="44.40376" lon="5.71986">
        <ele>644</ele>
        <time>2019-03-29T13:43:15Z</time>
      </trkpt>
      <trkpt lat="44.40381" lon="5.7198">
        <ele>644</ele>
        <time>2019-03-29T13:43:16Z</time>
      </trkpt>
      <trkpt lat="44.40387" lon="5.71974">
        <ele>644</ele>
        <time>2019-03-29T13:43:17Z</time>
      </trkpt>
      <trkpt lat="44.40392" lon="5.71969">
        <ele>644</ele>
        <time>2019-03-29T13:43:18Z</time>
      </trkpt>
      <trkpt lat="44.40398" lon="5.71963">
        <ele>644</ele>
        <time>2019-03-29T13:43:19Z</time>
      </trkpt>
      <trkpt lat="44.40403" lon="5.71958">
        <ele>644</ele>
        <time>2019-03-29T13:43:20Z</time>
      </trkpt>
      <trkpt lat="44.40408" lon="5.71952">
        <ele>644</ele>
        <time>2019-03-29T13:43:21Z</time>
      </trkpt>
      <trkpt lat="44.40414" lon="5.71947">
        <ele>644</ele>
        <time>2019-03-29T13:43:22Z</time>
      </trkpt>
      <trkpt lat="44.40419" lon="5.71942">
        <ele>644</ele>
        <time>2019-03-29T13:43:23Z</time>
      </trkpt>
      <trkpt lat="44.40425" lon="5.71936">
        <ele>644</ele>
        <time>2019-03-29T13:43:24Z</time>
      </trkpt>
      <trkpt lat="44.4043" lon="5.71931">
        <ele>644</ele>
        <time>2019-03-29T13:43:25Z</time>
      </trkpt>
      <trkpt lat="44.40435" lon="5.71925">
        <ele>644</ele>
        <time>2019-03-29T13:43:26Z</time>
      </trkpt>
      <trkpt lat="44.4044" lon="5.7192">
        <ele>644</ele>
        <time>2019-03-29T13:43:27Z</time>
      </trkpt>
      <trkpt lat="44.40446" lon="5.71914">
        <ele>644</ele>
        <time>2019-03-29T13:43:28Z</time>
      </trkpt>
      <trkpt lat="44.40451" lon="5.71909">
        <ele>644</ele>
        <time>2019-03-29T13:43:29Z</time>
      </trkpt>
      <trkpt lat="44.40456" lon="5.71903">
        <ele>644</ele>
        <time>2019-03-29T13:43:30Z</time>
      </trkpt>
      <trkpt lat="44.40462" lon="5.71897">
        <ele>644</ele>
        <time>2019-03-29T13:43:31Z</time>
      </trkpt>
      <trkpt lat="44.40467" lon="5.71892">
        <ele>644</ele>
        <time>2019-03-29T13:43:32Z</time>
      </trkpt>
      <trkpt lat="44.40472" lon="5.71886">
        <ele>644</ele>
        <time>2019-03-29T13:43:33Z</time>
      </trkpt>
      <trkpt lat="44.40477" lon="5.7188">
        <ele>644</ele>
        <time>2019-03-29T13:43:34Z</time>
      </trkpt>
      <trkpt lat="44.40482" lon="5.71874">
        <ele>644</ele>
        <time>2019-03-29T13:43:35Z</time>
      </trkpt>
      <trkpt lat="44.40486" lon="5.71868">
        <ele>644</ele>
        <time>2019-03-29T13:43:36Z</time>
      </trkpt>
      <trkpt lat="44.40491" lon="5.71861">
        <ele>645</ele>
        <time>2019-03-29T13:43:37Z</time>
      </trkpt>
      <trkpt lat="44.40495" lon="5.71855">
        <ele>645</ele>
        <time>2019-03-29T13:43:38Z</time>
      </trkpt>
      <trkpt lat="44.405" lon="5.71848">
        <ele>645</ele>
        <time>2019-03-29T13:43:39Z</time>
      </trkpt>
      <trkpt lat="44.40504" lon="5.71842">
        <ele>645</ele>
        <time>2019-03-29T13:43:40Z</time>
      </trkpt>
      <trkpt lat="44.40509" lon="5.71836">
        <ele>645</ele>
        <time>2019-03-29T13:43:41Z</time>
      </trkpt>
      <trkpt lat="44.40513" lon="5.71829">
        <ele>645</ele>
        <time>2019-03-29T13:43:42Z</time>
      </trkpt>
      <trkpt lat="44.40517" lon="5.71822">
        <ele>645</ele>
        <time>2019-03-29T13:43:43Z</time>
      </trkpt>
      <trkpt lat="44.40522" lon="5.71816">
        <ele>645</ele>
        <time>2019-03-29T13:43:44Z</time>
      </trkpt>
      <trkpt lat="44.40527" lon="5.71809">
        <ele>645</ele>
        <time>2019-03-29T13:43:45Z</time>
      </trkpt>
      <trkpt lat="44.40531" lon="5.71803">
        <ele>645</ele>
        <time>2019-03-29T13:43:46Z</time>
      </trkpt>
      <trkpt lat="44.40536" lon="5.71797">
        <ele>645</ele>
        <time>2019-03-29T13:43:47Z</time>
      </trkpt>
      <trkpt lat="44.4054" lon="5.7179">
        <ele>645</ele>
        <time>2019-03-29T13:43:48Z</time>
      </trkpt>
      <trkpt lat="44.40545" lon="5.71784">
        <ele>645</ele>
        <time>2019-03-29T13:43:49Z</time>
      </trkpt>
      <trkpt lat="44.40549" lon="5.71777">
        <ele>645</ele>
        <time>2019-03-29T13:43:50Z</time>
      </trkpt>
      <trkpt lat="44.40553" lon="5.71771">
        <ele>645</ele>
        <time>2019-03-29T13:43:51Z</time>
      </trkpt>
      <trkpt lat="44.40557" lon="5.71764">
        <ele>645</ele>
        <time>2019-03-29T13:43:52Z</time>
      </trkpt>
      <trkpt lat="44.40562" lon="5.71758">
        <ele>645</ele>
        <time>2019-03-29T13:43:53Z</time>
      </trkpt>
      <trkpt lat="44.40566" lon="5.71751">
        <ele>645</ele>
        <time>2019-03-29T13:43:54Z</time>
      </trkpt>
      <trkpt lat="44.40571" lon="5.71744">
        <ele>645</ele>
        <time>2019-03-29T13:43:55Z</time>
      </trkpt>
      <trkpt lat="44.40575" lon="5.71737">
        <ele>645</ele>
        <time>2019-03-29T13:43:56Z</time>
      </trkpt>
      <trkpt lat="44.4058" lon="5.7173">
        <ele>645</ele>
        <time>2019-03-29T13:43:57Z</time>
      </trkpt>
      <trkpt lat="44.40585" lon="5.71723">
        <ele>645</ele>
        <time>2019-03-29T13:43:58Z</time>
      </trkpt>
      <trkpt lat="44.4059" lon="5.71715">
        <ele>645</ele>
        <time>2019-03-29T13:43:59Z</time>
      </trkpt>
      <trkpt lat="44.40595" lon="5.71708">
        <ele>645</ele>
        <time>2019-03-29T13:44:00Z</time>
      </trkpt>
      <trkpt lat="44.40601" lon="5.71702">
        <ele>645</ele>
        <time>2019-03-29T13:44:01Z</time>
      </trkpt>
      <trkpt lat="44.40606" lon="5.71695">
        <ele>645</ele>
        <time>2019-03-29T13:44:02Z</time>
      </trkpt>
      <trkpt lat="44.40611" lon="5.71689">
        <ele>645</ele>
        <time>2019-03-29T13:44:03Z</time>
      </trkpt>
      <trkpt lat="44.40617" lon="5.71682">
        <ele>645</ele>
        <time>2019-03-29T13:44:04Z</time>
      </trkpt>
      <trkpt lat="44.40622" lon="5.71676">
        <ele>645</ele>
        <time>2019-03-29T13:44:05Z</time>
      </trkpt>
      <trkpt lat="44.40628" lon="5.71669">
        <ele>645</ele>
        <time>2019-03-29T13:44:06Z</time>
      </trkpt>
      <trkpt lat="44.40633" lon="5.71663">
        <ele>645</ele>
        <time>2019-03-29T13:44:07Z</time>
      </trkpt>
      <trkpt lat="44.40639" lon="5.71657">
        <ele>645</ele>
        <time>2019-03-29T13:44:08Z</time>
      </trkpt>
      <trkpt lat="44.40644" lon="5.71651">
        <ele>645</ele>
        <time>2019-03-29T13:44:09Z</time>
      </trkpt>
      <trkpt lat="44.40649" lon="5.71645">
        <ele>645</ele>
        <time>2019-03-29T13:44:10Z</time>
      </trkpt>
      <trkpt lat="44.40655" lon="5.7164">
        <ele>645</ele>
        <time>2019-03-29T13:44:11Z</time>
      </trkpt>
      <trkpt lat="44.40659" lon="5.71634">
        <ele>645</ele>
        <time>2019-03-29T13:44:12Z</time>
      </trkpt>
      <trkpt lat="44.40664" lon="5.71629">
        <ele>645</ele>
        <time>2019-03-29T13:44:13Z</time>
      </trkpt>
      <trkpt lat="44.40668" lon="5.71624">
        <ele>645</ele>
        <time>2019-03-29T13:44:14Z</time>
      </trkpt>
      <trkpt lat="44.40673" lon="5.7162">
        <ele>645</ele>
        <time>2019-03-29T13:44:15Z</time>
      </trkpt>
      <trkpt lat="44.40677" lon="5.71615">
        <ele>646</ele>
        <time>2019-03-29T13:44:16Z</time>
      </trkpt>
      <trkpt lat="44.40682" lon="5.7161">
        <ele>646</ele>
        <time>2019-03-29T13:44:17Z</time>
      </trkpt>
      <trkpt lat="44.40686" lon="5.71605">
        <ele>646</ele>
        <time>2019-03-29T13:44:18Z</time>
      </trkpt>
      <trkpt lat="44.40691" lon="5.71599">
        <ele>647</ele>
        <time>2019-03-29T13:44:19Z</time>
      </trkpt>
      <trkpt lat="44.40696" lon="5.71594">
        <ele>647</ele>
        <time>2019-03-29T13:44:20Z</time>
      </trkpt>
      <trkpt lat="44.40702" lon="5.71588">
        <ele>647</ele>
        <time>2019-03-29T13:44:21Z</time>
      </trkpt>
      <trkpt lat="44.40707" lon="5.71582">
        <ele>647</ele>
        <time>2019-03-29T13:44:22Z</time>
      </trkpt>
      <trkpt lat="44.40712" lon="5.71576">
        <ele>648</ele>
        <time>2019-03-29T13:44:23Z</time>
      </trkpt>
      <trkpt lat="44.40718" lon="5.7157">
        <ele>648</ele>
        <time>2019-03-29T13:44:24Z</time>
      </trkpt>
      <trkpt lat="44.40723" lon="5.71563">
        <ele>648</ele>
        <time>2019-03-29T13:44:25Z</time>
      </trkpt>
      <trkpt lat="44.4073" lon="5.71557">
        <ele>648</ele>
        <time>2019-03-29T13:44:26Z</time>
      </trkpt>
      <trkpt lat="44.40736" lon="5.71551">
        <ele>648</ele>
        <time>2019-03-29T13:44:27Z</time>
      </trkpt>
      <trkpt lat="44.40743" lon="5.71545">
        <ele>648</ele>
        <time>2019-03-29T13:44:28Z</time>
      </trkpt>
      <trkpt lat="44.4075" lon="5.7154">
        <ele>648</ele>
        <time>2019-03-29T13:44:29Z</time>
      </trkpt>
      <trkpt lat="44.40758" lon="5.71534">
        <ele>648</ele>
        <time>2019-03-29T13:44:30Z</time>
      </trkpt>
      <trkpt lat="44.40766" lon="5.71529">
        <ele>648</ele>
        <time>2019-03-29T13:44:31Z</time>
      </trkpt>
      <trkpt lat="44.40775" lon="5.71525">
        <ele>648</ele>
        <time>2019-03-29T13:44:32Z</time>
      </trkpt>
      <trkpt lat="44.40783" lon="5.71522">
        <ele>648</ele>
        <time>2019-03-29T13:44:33Z</time>
      </trkpt>
      <trkpt lat="44.40791" lon="5.71519">
        <ele>648</ele>
        <time>2019-03-29T13:44:34Z</time>
      </trkpt>
      <trkpt lat="44.408" lon="5.71516">
        <ele>648</ele>
        <time>2019-03-29T13:44:35Z</time>
      </trkpt>
      <trkpt lat="44.40808" lon="5.71513">
        <ele>648</ele>
        <time>2019-03-29T13:44:36Z</time>
      </trkpt>
      <trkpt lat="44.40816" lon="5.71511">
        <ele>648</ele>
        <time>2019-03-29T13:44:37Z</time>
      </trkpt>
      <trkpt lat="44.40824" lon="5.71509">
        <ele>648</ele>
        <time>2019-03-29T13:44:38Z</time>
      </trkpt>
      <trkpt lat="44.40833" lon="5.71507">
        <ele>648</ele>
        <time>2019-03-29T13:44:39Z</time>
      </trkpt>
      <trkpt lat="44.40841" lon="5.71505">
        <ele>648</ele>
        <time>2019-03-29T13:44:40Z</time>
      </trkpt>
      <trkpt lat="44.40849" lon="5.71503">
        <ele>648</ele>
        <time>2019-03-29T13:44:41Z</time>
      </trkpt>
      <trkpt lat="44.40857" lon="5.71501">
        <ele>648</ele>
        <time>2019-03-29T13:44:42Z</time>
      </trkpt>
      <trkpt lat="44.40865" lon="5.71499">
        <ele>648</ele>
        <time>2019-03-29T13:44:43Z</time>
      </trkpt>
      <trkpt lat="44.40872" lon="5.71497">
        <ele>648</ele>
        <time>2019-03-29T13:44:44Z</time>
      </trkpt>
      <trkpt lat="44.4088" lon="5.71495">
        <ele>648</ele>
        <time>2019-03-29T13:44:45Z</time>
      </trkpt>
      <trkpt lat="44.40887" lon="5.71493">
        <ele>648</ele>
        <time>2019-03-29T13:44:46Z</time>
      </trkpt>
      <trkpt lat="44.40894" lon="5.71492">
        <ele>648</ele>
        <time>2019-03-29T13:44:47Z</time>
      </trkpt>
      <trkpt lat="44.40902" lon="5.7149">
        <ele>648</ele>
        <time>2019-03-29T13:44:48Z</time>
      </trkpt>
      <trkpt lat="44.40909" lon="5.71488">
        <ele>648</ele>
        <time>2019-03-29T13:44:49Z</time>
      </trkpt>
      <trkpt lat="44.40916" lon="5.71486">
        <ele>648</ele>
        <time>2019-03-29T13:44:50Z</time>
      </trkpt>
      <trkpt lat="44.40922" lon="5.71485">
        <ele>648</ele>
        <time>2019-03-29T13:44:52Z</time>
      </trkpt>
      <trkpt lat="44.40929" lon="5.71483">
        <ele>648</ele>
        <time>2019-03-29T13:44:52Z</time>
      </trkpt>
      <trkpt lat="44.40936" lon="5.71482">
        <ele>648</ele>
        <time>2019-03-29T13:44:53Z</time>
      </trkpt>
      <trkpt lat="44.40942" lon="5.7148">
        <ele>648</ele>
        <time>2019-03-29T13:44:54Z</time>
      </trkpt>
      <trkpt lat="44.40949" lon="5.71478">
        <ele>648</ele>
        <time>2019-03-29T13:44:55Z</time>
      </trkpt>
      <trkpt lat="44.40955" lon="5.71476">
        <ele>648</ele>
        <time>2019-03-29T13:44:56Z</time>
      </trkpt>
      <trkpt lat="44.40961" lon="5.71475">
        <ele>648</ele>
        <time>2019-03-29T13:44:57Z</time>
      </trkpt>
      <trkpt lat="44.40968" lon="5.71474">
        <ele>648</ele>
        <time>2019-03-29T13:44:58Z</time>
      </trkpt>
      <trkpt lat="44.40974" lon="5.71472">
        <ele>649</ele>
        <time>2019-03-29T13:44:59Z</time>
      </trkpt>
      <trkpt lat="44.4098" lon="5.71471">
        <ele>649</ele>
        <time>2019-03-29T13:45:00Z</time>
      </trkpt>
      <trkpt lat="44.40987" lon="5.7147">
        <ele>649</ele>
        <time>2019-03-29T13:45:01Z</time>
      </trkpt>
      <trkpt lat="44.40992" lon="5.71468">
        <ele>650</ele>
        <time>2019-03-29T13:45:02Z</time>
      </trkpt>
      <trkpt lat="44.40998" lon="5.71467">
        <ele>650</ele>
        <time>2019-03-29T13:45:03Z</time>
      </trkpt>
      <trkpt lat="44.41004" lon="5.71466">
        <ele>650</ele>
        <time>2019-03-29T13:45:04Z</time>
      </trkpt>
      <trkpt lat="44.4101" lon="5.71464">
        <ele>651</ele>
        <time>2019-03-29T13:45:05Z</time>
      </trkpt>
      <trkpt lat="44.41016" lon="5.71463">
        <ele>651</ele>
        <time>2019-03-29T13:45:06Z</time>
      </trkpt>
      <trkpt lat="44.41021" lon="5.71461">
        <ele>651</ele>
        <time>2019-03-29T13:45:07Z</time>
      </trkpt>
      <trkpt lat="44.41027" lon="5.71459">
        <ele>651</ele>
        <time>2019-03-29T13:45:08Z</time>
      </trkpt>
      <trkpt lat="44.41033" lon="5.71457">
        <ele>652</ele>
        <time>2019-03-29T13:45:09Z</time>
      </trkpt>
      <trkpt lat="44.41039" lon="5.71455">
        <ele>652</ele>
        <time>2019-03-29T13:45:10Z</time>
      </trkpt>
      <trkpt lat="44.41045" lon="5.71453">
        <ele>652</ele>
        <time>2019-03-29T13:45:11Z</time>
      </trkpt>
      <trkpt lat="44.41052" lon="5.7145">
        <ele>652</ele>
        <time>2019-03-29T13:45:12Z</time>
      </trkpt>
      <trkpt lat="44.41059" lon="5.71447">
        <ele>652</ele>
        <time>2019-03-29T13:45:13Z</time>
      </trkpt>
      <trkpt lat="44.41066" lon="5.71443">
        <ele>652</ele>
        <time>2019-03-29T13:45:14Z</time>
      </trkpt>
      <trkpt lat="44.41074" lon="5.7144">
        <ele>652</ele>
        <time>2019-03-29T13:45:15Z</time>
      </trkpt>
      <trkpt lat="44.41082" lon="5.71436">
        <ele>652</ele>
        <time>2019-03-29T13:45:16Z</time>
      </trkpt>
      <trkpt lat="44.4109" lon="5.71433">
        <ele>652</ele>
        <time>2019-03-29T13:45:17Z</time>
      </trkpt>
      <trkpt lat="44.41098" lon="5.71429">
        <ele>652</ele>
        <time>2019-03-29T13:45:18Z</time>
      </trkpt>
      <trkpt lat="44.41106" lon="5.71425">
        <ele>652</ele>
        <time>2019-03-29T13:45:19Z</time>
      </trkpt>
      <trkpt lat="44.41115" lon="5.71421">
        <ele>652</ele>
        <time>2019-03-29T13:45:20Z</time>
      </trkpt>
      <trkpt lat="44.41123" lon="5.71418">
        <ele>652</ele>
        <time>2019-03-29T13:45:21Z</time>
      </trkpt>
      <trkpt lat="44.41132" lon="5.71414">
        <ele>652</ele>
        <time>2019-03-29T13:45:22Z</time>
      </trkpt>
      <trkpt lat="44.4114" lon="5.7141">
        <ele>652</ele>
        <time>2019-03-29T13:45:23Z</time>
      </trkpt>
      <trkpt lat="44.41148" lon="5.71407">
        <ele>652</ele>
        <time>2019-03-29T13:45:24Z</time>
      </trkpt>
      <trkpt lat="44.41156" lon="5.71403">
        <ele>652</ele>
        <time>2019-03-29T13:45:25Z</time>
      </trkpt>
      <trkpt lat="44.41165" lon="5.71398">
        <ele>652</ele>
        <time>2019-03-29T13:45:26Z</time>
      </trkpt>
      <trkpt lat="44.41173" lon="5.71394">
        <ele>652</ele>
        <time>2019-03-29T13:45:27Z</time>
      </trkpt>
      <trkpt lat="44.4118" lon="5.71388">
        <ele>652</ele>
        <time>2019-03-29T13:45:28Z</time>
      </trkpt>
      <trkpt lat="44.41188" lon="5.71383">
        <ele>652</ele>
        <time>2019-03-29T13:45:29Z</time>
      </trkpt>
      <trkpt lat="44.41195" lon="5.71377">
        <ele>652</ele>
        <time>2019-03-29T13:45:30Z</time>
      </trkpt>
      <trkpt lat="44.41202" lon="5.71371">
        <ele>652</ele>
        <time>2019-03-29T13:45:31Z</time>
      </trkpt>
      <trkpt lat="44.41209" lon="5.71364">
        <ele>652</ele>
        <time>2019-03-29T13:45:32Z</time>
      </trkpt>
      <trkpt lat="44.41216" lon="5.71359">
        <ele>652</ele>
        <time>2019-03-29T13:45:33Z</time>
      </trkpt>
      <trkpt lat="44.41222" lon="5.71353">
        <ele>652</ele>
        <time>2019-03-29T13:45:34Z</time>
      </trkpt>
      <trkpt lat="44.41229" lon="5.71348">
        <ele>652</ele>
        <time>2019-03-29T13:45:35Z</time>
      </trkpt>
      <trkpt lat="44.41236" lon="5.71344">
        <ele>652</ele>
        <time>2019-03-29T13:45:36Z</time>
      </trkpt>
      <trkpt lat="44.41243" lon="5.71339">
        <ele>652</ele>
        <time>2019-03-29T13:45:37Z</time>
      </trkpt>
      <trkpt lat="44.41249" lon="5.71333">
        <ele>652</ele>
        <time>2019-03-29T13:45:38Z</time>
      </trkpt>
      <trkpt lat="44.41256" lon="5.71328">
        <ele>652</ele>
        <time>2019-03-29T13:45:39Z</time>
      </trkpt>
      <trkpt lat="44.41262" lon="5.71322">
        <ele>652</ele>
        <time>2019-03-29T13:45:40Z</time>
      </trkpt>
      <trkpt lat="44.41269" lon="5.71317">
        <ele>652</ele>
        <time>2019-03-29T13:45:41Z</time>
      </trkpt>
      <trkpt lat="44.41275" lon="5.71312">
        <ele>652</ele>
        <time>2019-03-29T13:45:42Z</time>
      </trkpt>
      <trkpt lat="44.41282" lon="5.71306">
        <ele>652</ele>
        <time>2019-03-29T13:45:43Z</time>
      </trkpt>
      <trkpt lat="44.41288" lon="5.71301">
        <ele>652</ele>
        <time>2019-03-29T13:45:44Z</time>
      </trkpt>
      <trkpt lat="44.41295" lon="5.71295">
        <ele>652</ele>
        <time>2019-03-29T13:45:45Z</time>
      </trkpt>
      <trkpt lat="44.41301" lon="5.7129">
        <ele>652</ele>
        <time>2019-03-29T13:45:46Z</time>
      </trkpt>
      <trkpt lat="44.41307" lon="5.71285">
        <ele>652</ele>
        <time>2019-03-29T13:45:47Z</time>
      </trkpt>
      <trkpt lat="44.41314" lon="5.71279">
        <ele>652</ele>
        <time>2019-03-29T13:45:48Z</time>
      </trkpt>
      <trkpt lat="44.4132" lon="5.71275">
        <ele>652</ele>
        <time>2019-03-29T13:45:49Z</time>
      </trkpt>
      <trkpt lat="44.41326" lon="5.7127">
        <ele>652</ele>
        <time>2019-03-29T13:45:50Z</time>
      </trkpt>
      <trkpt lat="44.41333" lon="5.71265">
        <ele>652</ele>
        <time>2019-03-29T13:45:51Z</time>
      </trkpt>
      <trkpt lat="44.41339" lon="5.7126">
        <ele>652</ele>
        <time>2019-03-29T13:45:52Z</time>
      </trkpt>
      <trkpt lat="44.41346" lon="5.71257">
        <ele>652</ele>
        <time>2019-03-29T13:45:53Z</time>
      </trkpt>
      <trkpt lat="44.41354" lon="5.71254">
        <ele>652</ele>
        <time>2019-03-29T13:45:54Z</time>
      </trkpt>
      <trkpt lat="44.41361" lon="5.71251">
        <ele>652</ele>
        <time>2019-03-29T13:45:55Z</time>
      </trkpt>
      <trkpt lat="44.41368" lon="5.71249">
        <ele>652</ele>
        <time>2019-03-29T13:45:56Z</time>
      </trkpt>
      <trkpt lat="44.41375" lon="5.71246">
        <ele>652</ele>
        <time>2019-03-29T13:45:57Z</time>
      </trkpt>
      <trkpt lat="44.41382" lon="5.71244">
        <ele>652</ele>
        <time>2019-03-29T13:45:58Z</time>
      </trkpt>
      <trkpt lat="44.41389" lon="5.71242">
        <ele>652</ele>
        <time>2019-03-29T13:45:59Z</time>
      </trkpt>
      <trkpt lat="44.41396" lon="5.7124">
        <ele>652</ele>
        <time>2019-03-29T13:46:00Z</time>
      </trkpt>
      <trkpt lat="44.41404" lon="5.71238">
        <ele>652</ele>
        <time>2019-03-29T13:46:01Z</time>
      </trkpt>
      <trkpt lat="44.41411" lon="5.71236">
        <ele>652</ele>
        <time>2019-03-29T13:46:02Z</time>
      </trkpt>
      <trkpt lat="44.41418" lon="5.71233">
        <ele>652</ele>
        <time>2019-03-29T13:46:03Z</time>
      </trkpt>
      <trkpt lat="44.41425" lon="5.71232">
        <ele>652</ele>
        <time>2019-03-29T13:46:04Z</time>
      </trkpt>
      <trkpt lat="44.41433" lon="5.7123">
        <ele>652</ele>
        <time>2019-03-29T13:46:05Z</time>
      </trkpt>
      <trkpt lat="44.4144" lon="5.71228">
        <ele>652</ele>
        <time>2019-03-29T13:46:06Z</time>
      </trkpt>
      <trkpt lat="44.41447" lon="5.71227">
        <ele>652</ele>
        <time>2019-03-29T13:46:07Z</time>
      </trkpt>
      <trkpt lat="44.41454" lon="5.71225">
        <ele>652</ele>
        <time>2019-03-29T13:46:08Z</time>
      </trkpt>
      <trkpt lat="44.41461" lon="5.71223">
        <ele>652</ele>
        <time>2019-03-29T13:46:09Z</time>
      </trkpt>
      <trkpt lat="44.41468" lon="5.71222">
        <ele>652</ele>
        <time>2019-03-29T13:46:10Z</time>
      </trkpt>
      <trkpt lat="44.41475" lon="5.7122">
        <ele>652</ele>
        <time>2019-03-29T13:46:11Z</time>
      </trkpt>
      <trkpt lat="44.41483" lon="5.71219">
        <ele>652</ele>
        <time>2019-03-29T13:46:12Z</time>
      </trkpt>
      <trkpt lat="44.4149" lon="5.71218">
        <ele>652</ele>
        <time>2019-03-29T13:46:13Z</time>
      </trkpt>
      <trkpt lat="44.41497" lon="5.71217">
        <ele>652</ele>
        <time>2019-03-29T13:46:14Z</time>
      </trkpt>
      <trkpt lat="44.41505" lon="5.71216">
        <ele>652</ele>
        <time>2019-03-29T13:46:15Z</time>
      </trkpt>
      <trkpt lat="44.41512" lon="5.71215">
        <ele>652</ele>
        <time>2019-03-29T13:46:16Z</time>
      </trkpt>
      <trkpt lat="44.41519" lon="5.71214">
        <ele>652</ele>
        <time>2019-03-29T13:46:17Z</time>
      </trkpt>
      <trkpt lat="44.41526" lon="5.71213">
        <ele>652</ele>
        <time>2019-03-29T13:46:18Z</time>
      </trkpt>
      <trkpt lat="44.41534" lon="5.71212">
        <ele>652</ele>
        <time>2019-03-29T13:46:19Z</time>
      </trkpt>
      <trkpt lat="44.41541" lon="5.71212">
        <ele>652</ele>
        <time>2019-03-29T13:46:20Z</time>
      </trkpt>
      <trkpt lat="44.41549" lon="5.71211">
        <ele>652</ele>
        <time>2019-03-29T13:46:21Z</time>
      </trkpt>
      <trkpt lat="44.41556" lon="5.7121">
        <ele>652</ele>
        <time>2019-03-29T13:46:22Z</time>
      </trkpt>
      <trkpt lat="44.41563" lon="5.71209">
        <ele>652</ele>
        <time>2019-03-29T13:46:23Z</time>
      </trkpt>
      <trkpt lat="44.41571" lon="5.71208">
        <ele>652</ele>
        <time>2019-03-29T13:46:24Z</time>
      </trkpt>
      <trkpt lat="44.41578" lon="5.71207">
        <ele>652</ele>
        <time>2019-03-29T13:46:25Z</time>
      </trkpt>
      <trkpt lat="44.41586" lon="5.71206">
        <ele>652</ele>
        <time>2019-03-29T13:46:26Z</time>
      </trkpt>
      <trkpt lat="44.41593" lon="5.71205">
        <ele>652</ele>
        <time>2019-03-29T13:46:27Z</time>
      </trkpt>
      <trkpt lat="44.41601" lon="5.71204">
        <ele>652</ele>
        <time>2019-03-29T13:46:28Z</time>
      </trkpt>
      <trkpt lat="44.41608" lon="5.71202">
        <ele>652</ele>
        <time>2019-03-29T13:46:29Z</time>
      </trkpt>
      <trkpt lat="44.41616" lon="5.71201">
        <ele>652</ele>
        <time>2019-03-29T13:46:30Z</time>
      </trkpt>
      <trkpt lat="44.41624" lon="5.712">
        <ele>652</ele>
        <time>2019-03-29T13:46:31Z</time>
      </trkpt>
      <trkpt lat="44.41632" lon="5.71199">
        <ele>652</ele>
        <time>2019-03-29T13:46:32Z</time>
      </trkpt>
      <trkpt lat="44.41639" lon="5.71198">
        <ele>652</ele>
        <time>2019-03-29T13:46:33Z</time>
      </trkpt>
      <trkpt lat="44.41647" lon="5.71197">
        <ele>652</ele>
        <time>2019-03-29T13:46:34Z</time>
      </trkpt>
      <trkpt lat="44.41655" lon="5.71196">
        <ele>652</ele>
        <time>2019-03-29T13:46:35Z</time>
      </trkpt>
      <trkpt lat="44.41663" lon="5.71196">
        <ele>652</ele>
        <time>2019-03-29T13:46:36Z</time>
      </trkpt>
      <trkpt lat="44.41671" lon="5.71196">
        <ele>652</ele>
        <time>2019-03-29T13:46:37Z</time>
      </trkpt>
      <trkpt lat="44.41679" lon="5.71197">
        <ele>652</ele>
        <time>2019-03-29T13:46:38Z</time>
      </trkpt>
      <trkpt lat="44.41686" lon="5.71198">
        <ele>652</ele>
        <time>2019-03-29T13:46:39Z</time>
      </trkpt>
      <trkpt lat="44.41694" lon="5.71199">
        <ele>652</ele>
        <time>2019-03-29T13:46:40Z</time>
      </trkpt>
      <trkpt lat="44.41701" lon="5.71201">
        <ele>652</ele>
        <time>2019-03-29T13:46:41Z</time>
      </trkpt>
      <trkpt lat="44.41708" lon="5.71204">
        <ele>652</ele>
        <time>2019-03-29T13:46:42Z</time>
      </trkpt>
      <trkpt lat="44.41715" lon="5.71206">
        <ele>652</ele>
        <time>2019-03-29T13:46:43Z</time>
      </trkpt>
      <trkpt lat="44.41722" lon="5.71207">
        <ele>652</ele>
        <time>2019-03-29T13:46:44Z</time>
      </trkpt>
      <trkpt lat="44.41729" lon="5.71209">
        <ele>652</ele>
        <time>2019-03-29T13:46:45Z</time>
      </trkpt>
      <trkpt lat="44.41735" lon="5.71211">
        <ele>652</ele>
        <time>2019-03-29T13:46:46Z</time>
      </trkpt>
      <trkpt lat="44.41741" lon="5.71212">
        <ele>652</ele>
        <time>2019-03-29T13:46:47Z</time>
      </trkpt>
      <trkpt lat="44.41748" lon="5.71213">
        <ele>652</ele>
        <time>2019-03-29T13:46:48Z</time>
      </trkpt>
      <trkpt lat="44.41755" lon="5.71213">
        <ele>652</ele>
        <time>2019-03-29T13:46:49Z</time>
      </trkpt>
      <trkpt lat="44.41762" lon="5.71213">
        <ele>652</ele>
        <time>2019-03-29T13:46:50Z</time>
      </trkpt>
      <trkpt lat="44.41769" lon="5.71211">
        <ele>652</ele>
        <time>2019-03-29T13:46:51Z</time>
      </trkpt>
      <trkpt lat="44.41777" lon="5.71208">
        <ele>652</ele>
        <time>2019-03-29T13:46:52Z</time>
      </trkpt>
      <trkpt lat="44.41784" lon="5.71205">
        <ele>652</ele>
        <time>2019-03-29T13:46:53Z</time>
      </trkpt>
      <trkpt lat="44.41791" lon="5.712">
        <ele>652</ele>
        <time>2019-03-29T13:46:54Z</time>
      </trkpt>
      <trkpt lat="44.41798" lon="5.71195">
        <ele>652</ele>
        <time>2019-03-29T13:46:55Z</time>
      </trkpt>
      <trkpt lat="44.41805" lon="5.7119">
        <ele>652</ele>
        <time>2019-03-29T13:46:56Z</time>
      </trkpt>
      <trkpt lat="44.41811" lon="5.71184">
        <ele>652</ele>
        <time>2019-03-29T13:46:57Z</time>
      </trkpt>
      <trkpt lat="44.41818" lon="5.71178">
        <ele>652</ele>
        <time>2019-03-29T13:46:58Z</time>
      </trkpt>
      <trkpt lat="44.41825" lon="5.71173">
        <ele>652</ele>
        <time>2019-03-29T13:46:59Z</time>
      </trkpt>
      <trkpt lat="44.41831" lon="5.71167">
        <ele>652</ele>
        <time>2019-03-29T13:47:00Z</time>
      </trkpt>
      <trkpt lat="44.41837" lon="5.71161">
        <ele>652</ele>
        <time>2019-03-29T13:47:01Z</time>
      </trkpt>
      <trkpt lat="44.41844" lon="5.71156">
        <ele>652</ele>
        <time>2019-03-29T13:47:02Z</time>
      </trkpt>
      <trkpt lat="44.4185" lon="5.7115">
        <ele>652</ele>
        <time>2019-03-29T13:47:03Z</time>
      </trkpt>
      <trkpt lat="44.41856" lon="5.71145">
        <ele>652</ele>
        <time>2019-03-29T13:47:04Z</time>
      </trkpt>
      <trkpt lat="44.41862" lon="5.71139">
        <ele>652</ele>
        <time>2019-03-29T13:47:05Z</time>
      </trkpt>
      <trkpt lat="44.41868" lon="5.71134">
        <ele>652</ele>
        <time>2019-03-29T13:47:06Z</time>
      </trkpt>
      <trkpt lat="44.41874" lon="5.71129">
        <ele>652</ele>
        <time>2019-03-29T13:47:07Z</time>
      </trkpt>
      <trkpt lat="44.4188" lon="5.71124">
        <ele>652</ele>
        <time>2019-03-29T13:47:08Z</time>
      </trkpt>
      <trkpt lat="44.41886" lon="5.71118">
        <ele>652</ele>
        <time>2019-03-29T13:47:09Z</time>
      </trkpt>
      <trkpt lat="44.41893" lon="5.71113">
        <ele>652</ele>
        <time>2019-03-29T13:47:10Z</time>
      </trkpt>
      <trkpt lat="44.41898" lon="5.71107">
        <ele>652</ele>
        <time>2019-03-29T13:47:11Z</time>
      </trkpt>
      <trkpt lat="44.41905" lon="5.71102">
        <ele>652</ele>
        <time>2019-03-29T13:47:12Z</time>
      </trkpt>
      <trkpt lat="44.41911" lon="5.71096">
        <ele>652</ele>
        <time>2019-03-29T13:47:13Z</time>
      </trkpt>
      <trkpt lat="44.41917" lon="5.71091">
        <ele>652</ele>
        <time>2019-03-29T13:47:14Z</time>
      </trkpt>
      <trkpt lat="44.41923" lon="5.71086">
        <ele>652</ele>
        <time>2019-03-29T13:47:15Z</time>
      </trkpt>
      <trkpt lat="44.4193" lon="5.7108">
        <ele>652</ele>
        <time>2019-03-29T13:47:16Z</time>
      </trkpt>
      <trkpt lat="44.41936" lon="5.71075">
        <ele>652</ele>
        <time>2019-03-29T13:47:17Z</time>
      </trkpt>
      <trkpt lat="44.41942" lon="5.7107">
        <ele>652</ele>
        <time>2019-03-29T13:47:18Z</time>
      </trkpt>
      <trkpt lat="44.41948" lon="5.71065">
        <ele>652</ele>
        <time>2019-03-29T13:47:19Z</time>
      </trkpt>
      <trkpt lat="44.41954" lon="5.71059">
        <ele>652</ele>
        <time>2019-03-29T13:47:20Z</time>
      </trkpt>
      <trkpt lat="44.4196" lon="5.71054">
        <ele>652</ele>
        <time>2019-03-29T13:47:21Z</time>
      </trkpt>
      <trkpt lat="44.41966" lon="5.71049">
        <ele>652</ele>
        <time>2019-03-29T13:47:22Z</time>
      </trkpt>
      <trkpt lat="44.41972" lon="5.71045">
        <ele>652</ele>
        <time>2019-03-29T13:47:23Z</time>
      </trkpt>
      <trkpt lat="44.41977" lon="5.7104">
        <ele>652</ele>
        <time>2019-03-29T13:47:24Z</time>
      </trkpt>
      <trkpt lat="44.41984" lon="5.71036">
        <ele>652</ele>
        <time>2019-03-29T13:47:25Z</time>
      </trkpt>
      <trkpt lat="44.4199" lon="5.71031">
        <ele>652</ele>
        <time>2019-03-29T13:47:26Z</time>
      </trkpt>
      <trkpt lat="44.41996" lon="5.71027">
        <ele>652</ele>
        <time>2019-03-29T13:47:27Z</time>
      </trkpt>
      <trkpt lat="44.42002" lon="5.71024">
        <ele>652</ele>
        <time>2019-03-29T13:47:28Z</time>
      </trkpt>
      <trkpt lat="44.42009" lon="5.71021">
        <ele>652</ele>
        <time>2019-03-29T13:47:29Z</time>
      </trkpt>
      <trkpt lat="44.42015" lon="5.71019">
        <ele>652</ele>
        <time>2019-03-29T13:47:30Z</time>
      </trkpt>
      <trkpt lat="44.42022" lon="5.71016">
        <ele>652</ele>
        <time>2019-03-29T13:47:31Z</time>
      </trkpt>
      <trkpt lat="44.42028" lon="5.71014">
        <ele>652</ele>
        <time>2019-03-29T13:47:32Z</time>
      </trkpt>
      <trkpt lat="44.42035" lon="5.71012">
        <ele>652</ele>
        <time>2019-03-29T13:47:33Z</time>
      </trkpt>
      <trkpt lat="44.42042" lon="5.71011">
        <ele>652</ele>
        <time>2019-03-29T13:47:34Z</time>
      </trkpt>
      <trkpt lat="44.42049" lon="5.7101">
        <ele>652</ele>
        <time>2019-03-29T13:47:35Z</time>
      </trkpt>
      <trkpt lat="44.42055" lon="5.7101">
        <ele>652</ele>
        <time>2019-03-29T13:47:36Z</time>
      </trkpt>
      <trkpt lat="44.42062" lon="5.7101">
        <ele>652</ele>
        <time>2019-03-29T13:47:37Z</time>
      </trkpt>
      <trkpt lat="44.42069" lon="5.7101">
        <ele>652</ele>
        <time>2019-03-29T13:47:38Z</time>
      </trkpt>
      <trkpt lat="44.42076" lon="5.7101">
        <ele>652</ele>
        <time>2019-03-29T13:47:39Z</time>
      </trkpt>
      <trkpt lat="44.42083" lon="5.7101">
        <ele>652</ele>
        <time>2019-03-29T13:47:40Z</time>
      </trkpt>
      <trkpt lat="44.4209" lon="5.71011">
        <ele>652</ele>
        <time>2019-03-29T13:47:41Z</time>
      </trkpt>
      <trkpt lat="44.42097" lon="5.71011">
        <ele>652</ele>
        <time>2019-03-29T13:47:42Z</time>
      </trkpt>
      <trkpt lat="44.42104" lon="5.71011">
        <ele>652</ele>
        <time>2019-03-29T13:47:43Z</time>
      </trkpt>
      <trkpt lat="44.42111" lon="5.71011">
        <ele>652</ele>
        <time>2019-03-29T13:47:44Z</time>
      </trkpt>
      <trkpt lat="44.42118" lon="5.71011">
        <ele>652</ele>
        <time>2019-03-29T13:47:45Z</time>
      </trkpt>
      <trkpt lat="44.42125" lon="5.7101">
        <ele>652</ele>
        <time>2019-03-29T13:47:46Z</time>
      </trkpt>
      <trkpt lat="44.42132" lon="5.71011">
        <ele>652</ele>
        <time>2019-03-29T13:47:47Z</time>
      </trkpt>
      <trkpt lat="44.42139" lon="5.71011">
        <ele>652</ele>
        <time>2019-03-29T13:47:48Z</time>
      </trkpt>
      <trkpt lat="44.42146" lon="5.71012">
        <ele>652</ele>
        <time>2019-03-29T13:47:49Z</time>
      </trkpt>
      <trkpt lat="44.42153" lon="5.71013">
        <ele>652</ele>
        <time>2019-03-29T13:47:50Z</time>
      </trkpt>
      <trkpt lat="44.4216" lon="5.71013">
        <ele>652</ele>
        <time>2019-03-29T13:47:51Z</time>
      </trkpt>
      <trkpt lat="44.42167" lon="5.71015">
        <ele>652</ele>
        <time>2019-03-29T13:47:52Z</time>
      </trkpt>
      <trkpt lat="44.42174" lon="5.71016">
        <ele>652</ele>
        <time>2019-03-29T13:47:53Z</time>
      </trkpt>
      <trkpt lat="44.42181" lon="5.71017">
        <ele>652</ele>
        <time>2019-03-29T13:47:54Z</time>
      </trkpt>
      <trkpt lat="44.42187" lon="5.71017">
        <ele>652</ele>
        <time>2019-03-29T13:47:55Z</time>
      </trkpt>
      <trkpt lat="44.42194" lon="5.71018">
        <ele>652</ele>
        <time>2019-03-29T13:47:56Z</time>
      </trkpt>
      <trkpt lat="44.42201" lon="5.71018">
        <ele>652</ele>
        <time>2019-03-29T13:47:57Z</time>
      </trkpt>
      <trkpt lat="44.42207" lon="5.71018">
        <ele>652</ele>
        <time>2019-03-29T13:47:58Z</time>
      </trkpt>
      <trkpt lat="44.42214" lon="5.71018">
        <ele>652</ele>
        <time>2019-03-29T13:47:59Z</time>
      </trkpt>
      <trkpt lat="44.4222" lon="5.71017">
        <ele>652</ele>
        <time>2019-03-29T13:48:00Z</time>
      </trkpt>
      <trkpt lat="44.42226" lon="5.71016">
        <ele>652</ele>
        <time>2019-03-29T13:48:01Z</time>
      </trkpt>
      <trkpt lat="44.42233" lon="5.71015">
        <ele>652</ele>
        <time>2019-03-29T13:48:02Z</time>
      </trkpt>
      <trkpt lat="44.42239" lon="5.71013">
        <ele>652</ele>
        <time>2019-03-29T13:48:03Z</time>
      </trkpt>
      <trkpt lat="44.42245" lon="5.71012">
        <ele>652</ele>
        <time>2019-03-29T13:48:04Z</time>
      </trkpt>
      <trkpt lat="44.42251" lon="5.7101">
        <ele>652</ele>
        <time>2019-03-29T13:48:05Z</time>
      </trkpt>
      <trkpt lat="44.42257" lon="5.71009">
        <ele>652</ele>
        <time>2019-03-29T13:48:06Z</time>
      </trkpt>
      <trkpt lat="44.42263" lon="5.71007">
        <ele>652</ele>
        <time>2019-03-29T13:48:07Z</time>
      </trkpt>
      <trkpt lat="44.42269" lon="5.71006">
        <ele>652</ele>
        <time>2019-03-29T13:48:08Z</time>
      </trkpt>
      <trkpt lat="44.42275" lon="5.71004">
        <ele>652</ele>
        <time>2019-03-29T13:48:09Z</time>
      </trkpt>
      <trkpt lat="44.42281" lon="5.71002">
        <ele>652</ele>
        <time>2019-03-29T13:48:10Z</time>
      </trkpt>
      <trkpt lat="44.42287" lon="5.71">
        <ele>652</ele>
        <time>2019-03-29T13:48:11Z</time>
      </trkpt>
      <trkpt lat="44.42292" lon="5.70999">
        <ele>652</ele>
        <time>2019-03-29T13:48:12Z</time>
      </trkpt>
      <trkpt lat="44.42298" lon="5.70997">
        <ele>652</ele>
        <time>2019-03-29T13:48:13Z</time>
      </trkpt>
      <trkpt lat="44.42304" lon="5.70995">
        <ele>652</ele>
        <time>2019-03-29T13:48:14Z</time>
      </trkpt>
      <trkpt lat="44.4231" lon="5.70994">
        <ele>652</ele>
        <time>2019-03-29T13:48:15Z</time>
      </trkpt>
      <trkpt lat="44.42316" lon="5.70992">
        <ele>652</ele>
        <time>2019-03-29T13:48:16Z</time>
      </trkpt>
      <trkpt lat="44.42321" lon="5.70991">
        <ele>652</ele>
        <time>2019-03-29T13:48:17Z</time>
      </trkpt>
      <trkpt lat="44.42327" lon="5.7099">
        <ele>652</ele>
        <time>2019-03-29T13:48:18Z</time>
      </trkpt>
      <trkpt lat="44.42332" lon="5.70988">
        <ele>652</ele>
        <time>2019-03-29T13:48:19Z</time>
      </trkpt>
      <trkpt lat="44.42338" lon="5.70987">
        <ele>652</ele>
        <time>2019-03-29T13:48:20Z</time>
      </trkpt>
      <trkpt lat="44.42343" lon="5.70986">
        <ele>652</ele>
        <time>2019-03-29T13:48:21Z</time>
      </trkpt>
      <trkpt lat="44.42348" lon="5.70985">
        <ele>652</ele>
        <time>2019-03-29T13:48:22Z</time>
      </trkpt>
      <trkpt lat="44.42353" lon="5.70984">
        <ele>652</ele>
        <time>2019-03-29T13:48:23Z</time>
      </trkpt>
      <trkpt lat="44.42358" lon="5.70984">
        <ele>652</ele>
        <time>2019-03-29T13:48:24Z</time>
      </trkpt>
      <trkpt lat="44.42363" lon="5.70983">
        <ele>652</ele>
        <time>2019-03-29T13:48:25Z</time>
      </trkpt>
      <trkpt lat="44.42368" lon="5.70982">
        <ele>652</ele>
        <time>2019-03-29T13:48:26Z</time>
      </trkpt>
      <trkpt lat="44.42372" lon="5.70982">
        <ele>652</ele>
        <time>2019-03-29T13:48:27Z</time>
      </trkpt>
      <trkpt lat="44.42377" lon="5.70981">
        <ele>652</ele>
        <time>2019-03-29T13:48:28Z</time>
      </trkpt>
      <trkpt lat="44.42382" lon="5.7098">
        <ele>652</ele>
        <time>2019-03-29T13:48:29Z</time>
      </trkpt>
      <trkpt lat="44.42386" lon="5.70979">
        <ele>652</ele>
        <time>2019-03-29T13:48:30Z</time>
      </trkpt>
      <trkpt lat="44.42391" lon="5.70979">
        <ele>653</ele>
        <time>2019-03-29T13:48:31Z</time>
      </trkpt>
      <trkpt lat="44.42396" lon="5.70978">
        <ele>653</ele>
        <time>2019-03-29T13:48:32Z</time>
      </trkpt>
      <trkpt lat="44.42401" lon="5.70978">
        <ele>653</ele>
        <time>2019-03-29T13:48:33Z</time>
      </trkpt>
      <trkpt lat="44.42405" lon="5.70978">
        <ele>654</ele>
        <time>2019-03-29T13:48:34Z</time>
      </trkpt>
      <trkpt lat="44.4241" lon="5.70978">
        <ele>654</ele>
        <time>2019-03-29T13:48:35Z</time>
      </trkpt>
      <trkpt lat="44.42415" lon="5.70978">
        <ele>654</ele>
        <time>2019-03-29T13:48:36Z</time>
      </trkpt>
      <trkpt lat="44.4242" lon="5.70978">
        <ele>654</ele>
        <time>2019-03-29T13:48:37Z</time>
      </trkpt>
      <trkpt lat="44.42424" lon="5.70979">
        <ele>654</ele>
        <time>2019-03-29T13:48:38Z</time>
      </trkpt>
      <trkpt lat="44.42429" lon="5.7098">
        <ele>654</ele>
        <time>2019-03-29T13:48:39Z</time>
      </trkpt>
      <trkpt lat="44.42434" lon="5.70981">
        <ele>654</ele>
        <time>2019-03-29T13:48:40Z</time>
      </trkpt>
      <trkpt lat="44.42439" lon="5.70983">
        <ele>655</ele>
        <time>2019-03-29T13:48:41Z</time>
      </trkpt>
      <trkpt lat="44.42443" lon="5.70985">
        <ele>655</ele>
        <time>2019-03-29T13:48:42Z</time>
      </trkpt>
      <trkpt lat="44.42448" lon="5.70988">
        <ele>655</ele>
        <time>2019-03-29T13:48:43Z</time>
      </trkpt>
      <trkpt lat="44.42452" lon="5.70991">
        <ele>655</ele>
        <time>2019-03-29T13:48:44Z</time>
      </trkpt>
      <trkpt lat="44.42456" lon="5.70994">
        <ele>655</ele>
        <time>2019-03-29T13:48:45Z</time>
      </trkpt>
      <trkpt lat="44.4246" lon="5.70997">
        <ele>655</ele>
        <time>2019-03-29T13:48:46Z</time>
      </trkpt>
      <trkpt lat="44.42464" lon="5.71">
        <ele>656</ele>
        <time>2019-03-29T13:48:47Z</time>
      </trkpt>
      <trkpt lat="44.42468" lon="5.71003">
        <ele>656</ele>
        <time>2019-03-29T13:48:48Z</time>
      </trkpt>
      <trkpt lat="44.42472" lon="5.71007">
        <ele>656</ele>
        <time>2019-03-29T13:48:49Z</time>
      </trkpt>
      <trkpt lat="44.42475" lon="5.7101">
        <ele>657</ele>
        <time>2019-03-29T13:48:50Z</time>
      </trkpt>
      <trkpt lat="44.42479" lon="5.71014">
        <ele>657</ele>
        <time>2019-03-29T13:48:51Z</time>
      </trkpt>
      <trkpt lat="44.42484" lon="5.71017">
        <ele>658</ele>
        <time>2019-03-29T13:48:52Z</time>
      </trkpt>
      <trkpt lat="44.42488" lon="5.7102">
        <ele>658</ele>
        <time>2019-03-29T13:48:53Z</time>
      </trkpt>
      <trkpt lat="44.42492" lon="5.71023">
        <ele>658</ele>
        <time>2019-03-29T13:48:54Z</time>
      </trkpt>
      <trkpt lat="44.42496" lon="5.71026">
        <ele>659</ele>
        <time>2019-03-29T13:48:55Z</time>
      </trkpt>
      <trkpt lat="44.42501" lon="5.71027">
        <ele>659</ele>
        <time>2019-03-29T13:48:56Z</time>
      </trkpt>
      <trkpt lat="44.42506" lon="5.71028">
        <ele>659</ele>
        <time>2019-03-29T13:48:57Z</time>
      </trkpt>
      <trkpt lat="44.4251" lon="5.71028">
        <ele>659</ele>
        <time>2019-03-29T13:48:58Z</time>
      </trkpt>
      <trkpt lat="44.42515" lon="5.71028">
        <ele>659</ele>
        <time>2019-03-29T13:48:59Z</time>
      </trkpt>
      <trkpt lat="44.4252" lon="5.71027">
        <ele>659</ele>
        <time>2019-03-29T13:49:00Z</time>
      </trkpt>
      <trkpt lat="44.42524" lon="5.71027">
        <ele>659</ele>
        <time>2019-03-29T13:49:01Z</time>
      </trkpt>
      <trkpt lat="44.42529" lon="5.71026">
        <ele>659</ele>
        <time>2019-03-29T13:49:02Z</time>
      </trkpt>
      <trkpt lat="44.42534" lon="5.71024">
        <ele>659</ele>
        <time>2019-03-29T13:49:03Z</time>
      </trkpt>
      <trkpt lat="44.42538" lon="5.71023">
        <ele>659</ele>
        <time>2019-03-29T13:49:04Z</time>
      </trkpt>
      <trkpt lat="44.42543" lon="5.71022">
        <ele>659</ele>
        <time>2019-03-29T13:49:05Z</time>
      </trkpt>
      <trkpt lat="44.42548" lon="5.71021">
        <ele>659</ele>
        <time>2019-03-29T13:49:06Z</time>
      </trkpt>
      <trkpt lat="44.42553" lon="5.71021">
        <ele>659</ele>
        <time>2019-03-29T13:49:07Z</time>
      </trkpt>
      <trkpt lat="44.42557" lon="5.7102">
        <ele>659</ele>
        <time>2019-03-29T13:49:08Z</time>
      </trkpt>
      <trkpt lat="44.42562" lon="5.7102">
        <ele>659</ele>
        <time>2019-03-29T13:49:09Z</time>
      </trkpt>
      <trkpt lat="44.42567" lon="5.7102">
        <ele>659</ele>
        <time>2019-03-29T13:49:10Z</time>
      </trkpt>
      <trkpt lat="44.42571" lon="5.7102">
        <ele>659</ele>
        <time>2019-03-29T13:49:11Z</time>
      </trkpt>
      <trkpt lat="44.42576" lon="5.71021">
        <ele>659</ele>
        <time>2019-03-29T13:49:12Z</time>
      </trkpt>
      <trkpt lat="44.4258" lon="5.7102">
        <ele>660</ele>
        <time>2019-03-29T13:49:13Z</time>
      </trkpt>
      <trkpt lat="44.42585" lon="5.7102">
        <ele>660</ele>
        <time>2019-03-29T13:49:14Z</time>
      </trkpt>
      <trkpt lat="44.42588" lon="5.7102">
        <ele>660</ele>
        <time>2019-03-29T13:49:15Z</time>
      </trkpt>
      <trkpt lat="44.42592" lon="5.71019">
        <ele>660</ele>
        <time>2019-03-29T13:49:16Z</time>
      </trkpt>
      <trkpt lat="44.42595" lon="5.71019">
        <ele>660</ele>
        <time>2019-03-29T13:49:17Z</time>
      </trkpt>
      <trkpt lat="44.42598" lon="5.71018">
        <ele>660</ele>
        <time>2019-03-29T13:49:18Z</time>
      </trkpt>
      <trkpt lat="44.42601" lon="5.71017">
        <ele>660</ele>
        <time>2019-03-29T13:49:19Z</time>
      </trkpt>
      <trkpt lat="44.42604" lon="5.71017">
        <ele>660</ele>
        <time>2019-03-29T13:49:20Z</time>
      </trkpt>
      <trkpt lat="44.42608" lon="5.71017">
        <ele>660</ele>
        <time>2019-03-29T13:49:21Z</time>
      </trkpt>
      <trkpt lat="44.42611" lon="5.71018">
        <ele>660</ele>
        <time>2019-03-29T13:49:22Z</time>
      </trkpt>
      <trkpt lat="44.42613" lon="5.7102">
        <ele>661</ele>
        <time>2019-03-29T13:49:23Z</time>
      </trkpt>
      <trkpt lat="44.42616" lon="5.71023">
        <ele>661</ele>
        <time>2019-03-29T13:49:24Z</time>
      </trkpt>
      <trkpt lat="44.42619" lon="5.71025">
        <ele>661</ele>
        <time>2019-03-29T13:49:25Z</time>
      </trkpt>
      <trkpt lat="44.42622" lon="5.71028">
        <ele>661</ele>
        <time>2019-03-29T13:49:26Z</time>
      </trkpt>
      <trkpt lat="44.42625" lon="5.71031">
        <ele>661</ele>
        <time>2019-03-29T13:49:27Z</time>
      </trkpt>
      <trkpt lat="44.42628" lon="5.71035">
        <ele>661</ele>
        <time>2019-03-29T13:49:28Z</time>
      </trkpt>
      <trkpt lat="44.42632" lon="5.71038">
        <ele>662</ele>
        <time>2019-03-29T13:49:29Z</time>
      </trkpt>
      <trkpt lat="44.42635" lon="5.71041">
        <ele>662</ele>
        <time>2019-03-29T13:49:30Z</time>
      </trkpt>
      <trkpt lat="44.42638" lon="5.71044">
        <ele>662</ele>
        <time>2019-03-29T13:49:31Z</time>
      </trkpt>
      <trkpt lat="44.42642" lon="5.71047">
        <ele>662</ele>
        <time>2019-03-29T13:49:32Z</time>
      </trkpt>
      <trkpt lat="44.42646" lon="5.71051">
        <ele>663</ele>
        <time>2019-03-29T13:49:33Z</time>
      </trkpt>
      <trkpt lat="44.42649" lon="5.71054">
        <ele>663</ele>
        <time>2019-03-29T13:49:34Z</time>
      </trkpt>
      <trkpt lat="44.42653" lon="5.71058">
        <ele>663</ele>
        <time>2019-03-29T13:49:35Z</time>
      </trkpt>
      <trkpt lat="44.42657" lon="5.71061">
        <ele>663</ele>
        <time>2019-03-29T13:49:36Z</time>
      </trkpt>
      <trkpt lat="44.42661" lon="5.71065">
        <ele>663</ele>
        <time>2019-03-29T13:49:37Z</time>
      </trkpt>
      <trkpt lat="44.42665" lon="5.7107">
        <ele>663</ele>
        <time>2019-03-29T13:49:38Z</time>
      </trkpt>
      <trkpt lat="44.42669" lon="5.71074">
        <ele>664</ele>
        <time>2019-03-29T13:49:39Z</time>
      </trkpt>
      <trkpt lat="44.42673" lon="5.71079">
        <ele>664</ele>
        <time>2019-03-29T13:49:40Z</time>
      </trkpt>
      <trkpt lat="44.42676" lon="5.71084">
        <ele>664</ele>
        <time>2019-03-29T13:49:41Z</time>
      </trkpt>
      <trkpt lat="44.4268" lon="5.71089">
        <ele>664</ele>
        <time>2019-03-29T13:49:42Z</time>
      </trkpt>
      <trkpt lat="44.42684" lon="5.71095">
        <ele>664</ele>
        <time>2019-03-29T13:49:43Z</time>
      </trkpt>
      <trkpt lat="44.42688" lon="5.711">
        <ele>664</ele>
        <time>2019-03-29T13:49:44Z</time>
      </trkpt>
      <trkpt lat="44.42692" lon="5.71106">
        <ele>664</ele>
        <time>2019-03-29T13:49:45Z</time>
      </trkpt>
      <trkpt lat="44.42696" lon="5.71112">
        <ele>664</ele>
        <time>2019-03-29T13:49:46Z</time>
      </trkpt>
      <trkpt lat="44.427" lon="5.71118">
        <ele>664</ele>
        <time>2019-03-29T13:49:47Z</time>
      </trkpt>
      <trkpt lat="44.42704" lon="5.71124">
        <ele>664</ele>
        <time>2019-03-29T13:49:48Z</time>
      </trkpt>
      <trkpt lat="44.42708" lon="5.7113">
        <ele>664</ele>
        <time>2019-03-29T13:49:49Z</time>
      </trkpt>
      <trkpt lat="44.42712" lon="5.71136">
        <ele>664</ele>
        <time>2019-03-29T13:49:50Z</time>
      </trkpt>
      <trkpt lat="44.42716" lon="5.71142">
        <ele>664</ele>
        <time>2019-03-29T13:49:51Z</time>
      </trkpt>
      <trkpt lat="44.4272" lon="5.71148">
        <ele>664</ele>
        <time>2019-03-29T13:49:52Z</time>
      </trkpt>
      <trkpt lat="44.42723" lon="5.71155">
        <ele>664</ele>
        <time>2019-03-29T13:49:53Z</time>
      </trkpt>
      <trkpt lat="44.42727" lon="5.71161">
        <ele>664</ele>
        <time>2019-03-29T13:49:54Z</time>
      </trkpt>
      <trkpt lat="44.4273" lon="5.71168">
        <ele>664</ele>
        <time>2019-03-29T13:49:55Z</time>
      </trkpt>
      <trkpt lat="44.42733" lon="5.71175">
        <ele>664</ele>
        <time>2019-03-29T13:49:56Z</time>
      </trkpt>
      <trkpt lat="44.42737" lon="5.71182">
        <ele>664</ele>
        <time>2019-03-29T13:49:57Z</time>
      </trkpt>
      <trkpt lat="44.4274" lon="5.71189">
        <ele>664</ele>
        <time>2019-03-29T13:49:58Z</time>
      </trkpt>
      <trkpt lat="44.42744" lon="5.71197">
        <ele>665</ele>
        <time>2019-03-29T13:49:59Z</time>
      </trkpt>
      <trkpt lat="44.42747" lon="5.71204">
        <ele>665</ele>
        <time>2019-03-29T13:50:00Z</time>
      </trkpt>
      <trkpt lat="44.4275" lon="5.71211">
        <ele>665</ele>
        <time>2019-03-29T13:50:01Z</time>
      </trkpt>
      <trkpt lat="44.42752" lon="5.71218">
        <ele>665</ele>
        <time>2019-03-29T13:50:02Z</time>
      </trkpt>
      <trkpt lat="44.42755" lon="5.71226">
        <ele>665</ele>
        <time>2019-03-29T13:50:03Z</time>
      </trkpt>
      <trkpt lat="44.42758" lon="5.71234">
        <ele>665</ele>
        <time>2019-03-29T13:50:04Z</time>
      </trkpt>
      <trkpt lat="44.42762" lon="5.71242">
        <ele>665</ele>
        <time>2019-03-29T13:50:05Z</time>
      </trkpt>
      <trkpt lat="44.42764" lon="5.71249">
        <ele>665</ele>
        <time>2019-03-29T13:50:06Z</time>
      </trkpt>
      <trkpt lat="44.42767" lon="5.71257">
        <ele>665</ele>
        <time>2019-03-29T13:50:07Z</time>
      </trkpt>
      <trkpt lat="44.42769" lon="5.71265">
        <ele>665</ele>
        <time>2019-03-29T13:50:08Z</time>
      </trkpt>
      <trkpt lat="44.42771" lon="5.71273">
        <ele>666</ele>
        <time>2019-03-29T13:50:09Z</time>
      </trkpt>
      <trkpt lat="44.42774" lon="5.71281">
        <ele>666</ele>
        <time>2019-03-29T13:50:10Z</time>
      </trkpt>
      <trkpt lat="44.42776" lon="5.71289">
        <ele>666</ele>
        <time>2019-03-29T13:50:11Z</time>
      </trkpt>
      <trkpt lat="44.42778" lon="5.71297">
        <ele>666</ele>
        <time>2019-03-29T13:50:12Z</time>
      </trkpt>
      <trkpt lat="44.42781" lon="5.71305">
        <ele>666</ele>
        <time>2019-03-29T13:50:13Z</time>
      </trkpt>
      <trkpt lat="44.42783" lon="5.71313">
        <ele>666</ele>
        <time>2019-03-29T13:50:14Z</time>
      </trkpt>
      <trkpt lat="44.42786" lon="5.71322">
        <ele>667</ele>
        <time>2019-03-29T13:50:15Z</time>
      </trkpt>
      <trkpt lat="44.42788" lon="5.7133">
        <ele>667</ele>
        <time>2019-03-29T13:50:16Z</time>
      </trkpt>
      <trkpt lat="44.4279" lon="5.71339">
        <ele>667</ele>
        <time>2019-03-29T13:50:17Z</time>
      </trkpt>
      <trkpt lat="44.42792" lon="5.71348">
        <ele>667</ele>
        <time>2019-03-29T13:50:18Z</time>
      </trkpt>
      <trkpt lat="44.42794" lon="5.71357">
        <ele>668</ele>
        <time>2019-03-29T13:50:19Z</time>
      </trkpt>
      <trkpt lat="44.42796" lon="5.71366">
        <ele>668</ele>
        <time>2019-03-29T13:50:20Z</time>
      </trkpt>
      <trkpt lat="44.42798" lon="5.71375">
        <ele>668</ele>
        <time>2019-03-29T13:50:21Z</time>
      </trkpt>
      <trkpt lat="44.428" lon="5.71383">
        <ele>668</ele>
        <time>2019-03-29T13:50:22Z</time>
      </trkpt>
      <trkpt lat="44.42801" lon="5.71392">
        <ele>668</ele>
        <time>2019-03-29T13:50:23Z</time>
      </trkpt>
      <trkpt lat="44.42803" lon="5.71401">
        <ele>668</ele>
        <time>2019-03-29T13:50:24Z</time>
      </trkpt>
      <trkpt lat="44.42804" lon="5.71409">
        <ele>668</ele>
        <time>2019-03-29T13:50:25Z</time>
      </trkpt>
      <trkpt lat="44.42806" lon="5.71417">
        <ele>668</ele>
        <time>2019-03-29T13:50:26Z</time>
      </trkpt>
      <trkpt lat="44.42808" lon="5.71425">
        <ele>668</ele>
        <time>2019-03-29T13:50:27Z</time>
      </trkpt>
      <trkpt lat="44.4281" lon="5.71433">
        <ele>668</ele>
        <time>2019-03-29T13:50:28Z</time>
      </trkpt>
      <trkpt lat="44.42812" lon="5.71441">
        <ele>668</ele>
        <time>2019-03-29T13:50:29Z</time>
      </trkpt>
      <trkpt lat="44.42814" lon="5.71449">
        <ele>668</ele>
        <time>2019-03-29T13:50:30Z</time>
      </trkpt>
      <trkpt lat="44.42816" lon="5.71456">
        <ele>668</ele>
        <time>2019-03-29T13:50:31Z</time>
      </trkpt>
      <trkpt lat="44.42817" lon="5.71463">
        <ele>668</ele>
        <time>2019-03-29T13:50:32Z</time>
      </trkpt>
      <trkpt lat="44.42818" lon="5.7147">
        <ele>668</ele>
        <time>2019-03-29T13:50:33Z</time>
      </trkpt>
      <trkpt lat="44.4282" lon="5.71478">
        <ele>668</ele>
        <time>2019-03-29T13:50:34Z</time>
      </trkpt>
      <trkpt lat="44.42822" lon="5.71485">
        <ele>668</ele>
        <time>2019-03-29T13:50:35Z</time>
      </trkpt>
      <trkpt lat="44.42824" lon="5.71492">
        <ele>668</ele>
        <time>2019-03-29T13:50:36Z</time>
      </trkpt>
      <trkpt lat="44.42826" lon="5.715">
        <ele>668</ele>
        <time>2019-03-29T13:50:37Z</time>
      </trkpt>
      <trkpt lat="44.42828" lon="5.71509">
        <ele>668</ele>
        <time>2019-03-29T13:50:38Z</time>
      </trkpt>
      <trkpt lat="44.4283" lon="5.71517">
        <ele>668</ele>
        <time>2019-03-29T13:50:39Z</time>
      </trkpt>
      <trkpt lat="44.42833" lon="5.71525">
        <ele>668</ele>
        <time>2019-03-29T13:50:40Z</time>
      </trkpt>
      <trkpt lat="44.42836" lon="5.71533">
        <ele>668</ele>
        <time>2019-03-29T13:50:41Z</time>
      </trkpt>
      <trkpt lat="44.42839" lon="5.71542">
        <ele>668</ele>
        <time>2019-03-29T13:50:42Z</time>
      </trkpt>
      <trkpt lat="44.42843" lon="5.71551">
        <ele>668</ele>
        <time>2019-03-29T13:50:43Z</time>
      </trkpt>
      <trkpt lat="44.42847" lon="5.7156">
        <ele>668</ele>
        <time>2019-03-29T13:50:44Z</time>
      </trkpt>
      <trkpt lat="44.42851" lon="5.71569">
        <ele>668</ele>
        <time>2019-03-29T13:50:45Z</time>
      </trkpt>
      <trkpt lat="44.42855" lon="5.71578">
        <ele>668</ele>
        <time>2019-03-29T13:50:46Z</time>
      </trkpt>
      <trkpt lat="44.4286" lon="5.71588">
        <ele>668</ele>
        <time>2019-03-29T13:50:47Z</time>
      </trkpt>
      <trkpt lat="44.42865" lon="5.71597">
        <ele>668</ele>
        <time>2019-03-29T13:50:48Z</time>
      </trkpt>
      <trkpt lat="44.4287" lon="5.71607">
        <ele>668</ele>
        <time>2019-03-29T13:50:49Z</time>
      </trkpt>
      <trkpt lat="44.42875" lon="5.71617">
        <ele>668</ele>
        <time>2019-03-29T13:50:50Z</time>
      </trkpt>
      <trkpt lat="44.42879" lon="5.71625">
        <ele>668</ele>
        <time>2019-03-29T13:50:51Z</time>
      </trkpt>
      <trkpt lat="44.42883" lon="5.71634">
        <ele>668</ele>
        <time>2019-03-29T13:50:52Z</time>
      </trkpt>
      <trkpt lat="44.42887" lon="5.71642">
        <ele>667</ele>
        <time>2019-03-29T13:50:53Z</time>
      </trkpt>
      <trkpt lat="44.42892" lon="5.71651">
        <ele>667</ele>
        <time>2019-03-29T13:50:54Z</time>
      </trkpt>
      <trkpt lat="44.42897" lon="5.7166">
        <ele>666</ele>
        <time>2019-03-29T13:50:55Z</time>
      </trkpt>
      <trkpt lat="44.429" lon="5.71668">
        <ele>665</ele>
        <time>2019-03-29T13:50:56Z</time>
      </trkpt>
      <trkpt lat="44.42904" lon="5.71675">
        <ele>665</ele>
        <time>2019-03-29T13:50:57Z</time>
      </trkpt>
      <trkpt lat="44.42907" lon="5.71682">
        <ele>665</ele>
        <time>2019-03-29T13:50:58Z</time>
      </trkpt>
      <trkpt lat="44.4291" lon="5.71687">
        <ele>664</ele>
        <time>2019-03-29T13:50:59Z</time>
      </trkpt>
      <trkpt lat="44.42913" lon="5.71692">
        <ele>664</ele>
        <time>2019-03-29T13:51:00Z</time>
      </trkpt>
      <trkpt lat="44.42915" lon="5.71697">
        <ele>664</ele>
        <time>2019-03-29T13:51:01Z</time>
      </trkpt>
      <trkpt lat="44.42916" lon="5.71701">
        <ele>664</ele>
        <time>2019-03-29T13:51:02Z</time>
      </trkpt>
      <trkpt lat="44.42918" lon="5.71706">
        <ele>664</ele>
        <time>2019-03-29T13:51:03Z</time>
      </trkpt>
      <trkpt lat="44.42918" lon="5.71712">
        <ele>664</ele>
        <time>2019-03-29T13:51:04Z</time>
      </trkpt>
      <trkpt lat="44.42917" lon="5.71716">
        <ele>664</ele>
        <time>2019-03-29T13:51:05Z</time>
      </trkpt>
      <trkpt lat="44.42916" lon="5.71722">
        <ele>664</ele>
        <time>2019-03-29T13:51:06Z</time>
      </trkpt>
      <trkpt lat="44.42916" lon="5.71727">
        <ele>664</ele>
        <time>2019-03-29T13:51:07Z</time>
      </trkpt>
      <trkpt lat="44.42918" lon="5.71732">
        <ele>664</ele>
        <time>2019-03-29T13:51:08Z</time>
      </trkpt>
      <trkpt lat="44.42921" lon="5.71735">
        <ele>664</ele>
        <time>2019-03-29T13:51:09Z</time>
      </trkpt>
      <trkpt lat="44.42925" lon="5.71736">
        <ele>664</ele>
        <time>2019-03-29T13:51:10Z</time>
      </trkpt>
      <trkpt lat="44.42929" lon="5.71735">
        <ele>664</ele>
        <time>2019-03-29T13:51:11Z</time>
      </trkpt>
      <trkpt lat="44.42934" lon="5.71734">
        <ele>664</ele>
        <time>2019-03-29T13:51:12Z</time>
      </trkpt>
      <trkpt lat="44.42939" lon="5.71733">
        <ele>664</ele>
        <time>2019-03-29T13:51:13Z</time>
      </trkpt>
      <trkpt lat="44.42944" lon="5.71734">
        <ele>664</ele>
        <time>2019-03-29T13:51:14Z</time>
      </trkpt>
      <trkpt lat="44.42948" lon="5.71736">
        <ele>664</ele>
        <time>2019-03-29T13:51:15Z</time>
      </trkpt>
      <trkpt lat="44.42952" lon="5.71737">
        <ele>664</ele>
        <time>2019-03-29T13:51:16Z</time>
      </trkpt>
      <trkpt lat="44.42957" lon="5.71739">
        <ele>664</ele>
        <time>2019-03-29T13:51:17Z</time>
      </trkpt>
      <trkpt lat="44.42962" lon="5.7174">
        <ele>664</ele>
        <time>2019-03-29T13:51:18Z</time>
      </trkpt>
      <trkpt lat="44.42966" lon="5.7174">
        <ele>664</ele>
        <time>2019-03-29T13:51:19Z</time>
      </trkpt>
      <trkpt lat="44.42971" lon="5.7174">
        <ele>664</ele>
        <time>2019-03-29T13:51:20Z</time>
      </trkpt>
      <trkpt lat="44.42977" lon="5.71739">
        <ele>664</ele>
        <time>2019-03-29T13:51:21Z</time>
      </trkpt>
      <trkpt lat="44.42982" lon="5.71736">
        <ele>664</ele>
        <time>2019-03-29T13:51:22Z</time>
      </trkpt>
      <trkpt lat="44.42987" lon="5.71734">
        <ele>664</ele>
        <time>2019-03-29T13:51:23Z</time>
      </trkpt>
      <trkpt lat="44.42993" lon="5.7173">
        <ele>664</ele>
        <time>2019-03-29T13:51:24Z</time>
      </trkpt>
      <trkpt lat="44.42998" lon="5.71726">
        <ele>664</ele>
        <time>2019-03-29T13:51:25Z</time>
      </trkpt>
      <trkpt lat="44.43003" lon="5.71721">
        <ele>664</ele>
        <time>2019-03-29T13:51:26Z</time>
      </trkpt>
      <trkpt lat="44.43008" lon="5.71715">
        <ele>664</ele>
        <time>2019-03-29T13:51:27Z</time>
      </trkpt>
      <trkpt lat="44.43011" lon="5.71709">
        <ele>664</ele>
        <time>2019-03-29T13:51:28Z</time>
      </trkpt>
      <trkpt lat="44.43014" lon="5.71702">
        <ele>664</ele>
        <time>2019-03-29T13:51:29Z</time>
      </trkpt>
      <trkpt lat="44.43017" lon="5.71695">
        <ele>664</ele>
        <time>2019-03-29T13:51:30Z</time>
      </trkpt>
      <trkpt lat="44.43019" lon="5.71689">
        <ele>664</ele>
        <time>2019-03-29T13:51:31Z</time>
      </trkpt>
      <trkpt lat="44.43021" lon="5.71682">
        <ele>664</ele>
        <time>2019-03-29T13:51:32Z</time>
      </trkpt>
      <trkpt lat="44.43024" lon="5.71674">
        <ele>664</ele>
        <time>2019-03-29T13:51:33Z</time>
      </trkpt>
      <trkpt lat="44.43026" lon="5.71668">
        <ele>664</ele>
        <time>2019-03-29T13:51:34Z</time>
      </trkpt>
      <trkpt lat="44.43028" lon="5.71661">
        <ele>664</ele>
        <time>2019-03-29T13:51:35Z</time>
      </trkpt>
      <trkpt lat="44.4303" lon="5.71655">
        <ele>664</ele>
        <time>2019-03-29T13:51:36Z</time>
      </trkpt>
      <trkpt lat="44.43032" lon="5.71648">
        <ele>664</ele>
        <time>2019-03-29T13:51:37Z</time>
      </trkpt>
      <trkpt lat="44.43034" lon="5.71642">
        <ele>664</ele>
        <time>2019-03-29T13:51:38Z</time>
      </trkpt>
      <trkpt lat="44.43037" lon="5.71635">
        <ele>664</ele>
        <time>2019-03-29T13:51:39Z</time>
      </trkpt>
      <trkpt lat="44.4304" lon="5.71629">
        <ele>665</ele>
        <time>2019-03-29T13:51:40Z</time>
      </trkpt>
      <trkpt lat="44.43042" lon="5.71623">
        <ele>665</ele>
        <time>2019-03-29T13:51:41Z</time>
      </trkpt>
      <trkpt lat="44.43044" lon="5.71616">
        <ele>665</ele>
        <time>2019-03-29T13:51:42Z</time>
      </trkpt>
      <trkpt lat="44.43046" lon="5.71609">
        <ele>666</ele>
        <time>2019-03-29T13:51:43Z</time>
      </trkpt>
      <trkpt lat="44.43048" lon="5.71602">
        <ele>666</ele>
        <time>2019-03-29T13:51:44Z</time>
      </trkpt>
      <trkpt lat="44.4305" lon="5.71595">
        <ele>666</ele>
        <time>2019-03-29T13:51:45Z</time>
      </trkpt>
      <trkpt lat="44.43052" lon="5.71588">
        <ele>666</ele>
        <time>2019-03-29T13:51:46Z</time>
      </trkpt>
      <trkpt lat="44.43054" lon="5.71581">
        <ele>666</ele>
        <time>2019-03-29T13:51:47Z</time>
      </trkpt>
      <trkpt lat="44.43055" lon="5.71574">
        <ele>667</ele>
        <time>2019-03-29T13:51:48Z</time>
      </trkpt>
      <trkpt lat="44.43056" lon="5.71567">
        <ele>667</ele>
        <time>2019-03-29T13:51:49Z</time>
      </trkpt>
      <trkpt lat="44.43058" lon="5.7156">
        <ele>667</ele>
        <time>2019-03-29T13:51:50Z</time>
      </trkpt>
      <trkpt lat="44.4306" lon="5.71552">
        <ele>667</ele>
        <time>2019-03-29T13:51:51Z</time>
      </trkpt>
      <trkpt lat="44.43061" lon="5.71545">
        <ele>668</ele>
        <time>2019-03-29T13:51:52Z</time>
      </trkpt>
      <trkpt lat="44.43062" lon="5.71538">
        <ele>668</ele>
        <time>2019-03-29T13:51:53Z</time>
      </trkpt>
      <trkpt lat="44.43064" lon="5.7153">
        <ele>669</ele>
        <time>2019-03-29T13:51:54Z</time>
      </trkpt>
      <trkpt lat="44.43066" lon="5.71523">
        <ele>670</ele>
        <time>2019-03-29T13:51:55Z</time>
      </trkpt>
      <trkpt lat="44.43068" lon="5.71515">
        <ele>671</ele>
        <time>2019-03-29T13:51:56Z</time>
      </trkpt>
      <trkpt lat="44.43071" lon="5.71508">
        <ele>671</ele>
        <time>2019-03-29T13:51:57Z</time>
      </trkpt>
      <trkpt lat="44.43074" lon="5.715">
        <ele>671</ele>
        <time>2019-03-29T13:51:58Z</time>
      </trkpt>
      <trkpt lat="44.43078" lon="5.71493">
        <ele>672</ele>
        <time>2019-03-29T13:51:59Z</time>
      </trkpt>
      <trkpt lat="44.43082" lon="5.71486">
        <ele>672</ele>
        <time>2019-03-29T13:52:00Z</time>
      </trkpt>
      <trkpt lat="44.43085" lon="5.71479">
        <ele>672</ele>
        <time>2019-03-29T13:52:01Z</time>
      </trkpt>
      <trkpt lat="44.4309" lon="5.71471">
        <ele>672</ele>
        <time>2019-03-29T13:52:02Z</time>
      </trkpt>
      <trkpt lat="44.43093" lon="5.71464">
        <ele>672</ele>
        <time>2019-03-29T13:52:03Z</time>
      </trkpt>
      <trkpt lat="44.43097" lon="5.71456">
        <ele>672</ele>
        <time>2019-03-29T13:52:04Z</time>
      </trkpt>
      <trkpt lat="44.43101" lon="5.71449">
        <ele>672</ele>
        <time>2019-03-29T13:52:05Z</time>
      </trkpt>
      <trkpt lat="44.43105" lon="5.71441">
        <ele>672</ele>
        <time>2019-03-29T13:52:06Z</time>
      </trkpt>
      <trkpt lat="44.43108" lon="5.71433">
        <ele>672</ele>
        <time>2019-03-29T13:52:07Z</time>
      </trkpt>
      <trkpt lat="44.43111" lon="5.71426">
        <ele>672</ele>
        <time>2019-03-29T13:52:08Z</time>
      </trkpt>
      <trkpt lat="44.43115" lon="5.71418">
        <ele>672</ele>
        <time>2019-03-29T13:52:09Z</time>
      </trkpt>
      <trkpt lat="44.43119" lon="5.7141">
        <ele>672</ele>
        <time>2019-03-29T13:52:10Z</time>
      </trkpt>
      <trkpt lat="44.43123" lon="5.71401">
        <ele>672</ele>
        <time>2019-03-29T13:52:11Z</time>
      </trkpt>
      <trkpt lat="44.43127" lon="5.71393">
        <ele>672</ele>
        <time>2019-03-29T13:52:12Z</time>
      </trkpt>
      <trkpt lat="44.4313" lon="5.71384">
        <ele>672</ele>
        <time>2019-03-29T13:52:13Z</time>
      </trkpt>
      <trkpt lat="44.43133" lon="5.71376">
        <ele>672</ele>
        <time>2019-03-29T13:52:14Z</time>
      </trkpt>
      <trkpt lat="44.43137" lon="5.71367">
        <ele>672</ele>
        <time>2019-03-29T13:52:15Z</time>
      </trkpt>
      <trkpt lat="44.4314" lon="5.71359">
        <ele>672</ele>
        <time>2019-03-29T13:52:16Z</time>
      </trkpt>
      <trkpt lat="44.43144" lon="5.71351">
        <ele>672</ele>
        <time>2019-03-29T13:52:17Z</time>
      </trkpt>
      <trkpt lat="44.43148" lon="5.71343">
        <ele>672</ele>
        <time>2019-03-29T13:52:18Z</time>
      </trkpt>
      <trkpt lat="44.43152" lon="5.71336">
        <ele>672</ele>
        <time>2019-03-29T13:52:19Z</time>
      </trkpt>
      <trkpt lat="44.43156" lon="5.71329">
        <ele>672</ele>
        <time>2019-03-29T13:52:20Z</time>
      </trkpt>
      <trkpt lat="44.43161" lon="5.71323">
        <ele>672</ele>
        <time>2019-03-29T13:52:21Z</time>
      </trkpt>
      <trkpt lat="44.43167" lon="5.71318">
        <ele>672</ele>
        <time>2019-03-29T13:52:22Z</time>
      </trkpt>
      <trkpt lat="44.43172" lon="5.71314">
        <ele>671</ele>
        <time>2019-03-29T13:52:23Z</time>
      </trkpt>
      <trkpt lat="44.43177" lon="5.71312">
        <ele>671</ele>
        <time>2019-03-29T13:52:24Z</time>
      </trkpt>
      <trkpt lat="44.43182" lon="5.7131">
        <ele>671</ele>
        <time>2019-03-29T13:52:25Z</time>
      </trkpt>
      <trkpt lat="44.43186" lon="5.71309">
        <ele>671</ele>
        <time>2019-03-29T13:52:26Z</time>
      </trkpt>
      <trkpt lat="44.4319" lon="5.71309">
        <ele>671</ele>
        <time>2019-03-29T13:52:27Z</time>
      </trkpt>
      <trkpt lat="44.43195" lon="5.71309">
        <ele>671</ele>
        <time>2019-03-29T13:52:28Z</time>
      </trkpt>
      <trkpt lat="44.432" lon="5.7131">
        <ele>671</ele>
        <time>2019-03-29T13:52:29Z</time>
      </trkpt>
      <trkpt lat="44.43204" lon="5.7131">
        <ele>671</ele>
        <time>2019-03-29T13:52:30Z</time>
      </trkpt>
      <trkpt lat="44.43209" lon="5.71309">
        <ele>671</ele>
        <time>2019-03-29T13:52:31Z</time>
      </trkpt>
      <trkpt lat="44.43213" lon="5.71307">
        <ele>671</ele>
        <time>2019-03-29T13:52:32Z</time>
      </trkpt>
      <trkpt lat="44.43217" lon="5.71303">
        <ele>671</ele>
        <time>2019-03-29T13:52:33Z</time>
      </trkpt>
      <trkpt lat="44.43221" lon="5.71297">
        <ele>671</ele>
        <time>2019-03-29T13:52:34Z</time>
      </trkpt>
      <trkpt lat="44.43224" lon="5.7129">
        <ele>671</ele>
        <time>2019-03-29T13:52:35Z</time>
      </trkpt>
      <trkpt lat="44.43228" lon="5.71284">
        <ele>671</ele>
        <time>2019-03-29T13:52:36Z</time>
      </trkpt>
      <trkpt lat="44.43232" lon="5.71278">
        <ele>671</ele>
        <time>2019-03-29T13:52:37Z</time>
      </trkpt>
      <trkpt lat="44.43235" lon="5.71271">
        <ele>671</ele>
        <time>2019-03-29T13:52:38Z</time>
      </trkpt>
      <trkpt lat="44.4324" lon="5.71265">
        <ele>671</ele>
        <time>2019-03-29T13:52:39Z</time>
      </trkpt>
      <trkpt lat="44.43244" lon="5.71259">
        <ele>671</ele>
        <time>2019-03-29T13:52:40Z</time>
      </trkpt>
      <trkpt lat="44.43248" lon="5.71252">
        <ele>671</ele>
        <time>2019-03-29T13:52:41Z</time>
      </trkpt>
      <trkpt lat="44.43252" lon="5.71245">
        <ele>671</ele>
        <time>2019-03-29T13:52:42Z</time>
      </trkpt>
      <trkpt lat="44.43256" lon="5.71239">
        <ele>671</ele>
        <time>2019-03-29T13:52:43Z</time>
      </trkpt>
      <trkpt lat="44.43259" lon="5.71232">
        <ele>671</ele>
        <time>2019-03-29T13:52:44Z</time>
      </trkpt>
      <trkpt lat="44.43263" lon="5.71225">
        <ele>671</ele>
        <time>2019-03-29T13:52:45Z</time>
      </trkpt>
      <trkpt lat="44.43266" lon="5.71218">
        <ele>671</ele>
        <time>2019-03-29T13:52:46Z</time>
      </trkpt>
      <trkpt lat="44.43269" lon="5.71212">
        <ele>671</ele>
        <time>2019-03-29T13:52:47Z</time>
      </trkpt>
      <trkpt lat="44.43271" lon="5.71205">
        <ele>671</ele>
        <time>2019-03-29T13:52:48Z</time>
      </trkpt>
      <trkpt lat="44.43273" lon="5.71198">
        <ele>671</ele>
        <time>2019-03-29T13:52:49Z</time>
      </trkpt>
      <trkpt lat="44.43275" lon="5.71191">
        <ele>671</ele>
        <time>2019-03-29T13:52:50Z</time>
      </trkpt>
      <trkpt lat="44.43278" lon="5.71184">
        <ele>671</ele>
        <time>2019-03-29T13:52:51Z</time>
      </trkpt>
      <trkpt lat="44.4328" lon="5.71177">
        <ele>671</ele>
        <time>2019-03-29T13:52:52Z</time>
      </trkpt>
      <trkpt lat="44.43283" lon="5.71171">
        <ele>671</ele>
        <time>2019-03-29T13:52:53Z</time>
      </trkpt>
      <trkpt lat="44.43286" lon="5.71164">
        <ele>671</ele>
        <time>2019-03-29T13:52:54Z</time>
      </trkpt>
      <trkpt lat="44.43289" lon="5.71158">
        <ele>671</ele>
        <time>2019-03-29T13:52:55Z</time>
      </trkpt>
      <trkpt lat="44.43292" lon="5.71152">
        <ele>671</ele>
        <time>2019-03-29T13:52:56Z</time>
      </trkpt>
      <trkpt lat="44.43296" lon="5.71147">
        <ele>671</ele>
        <time>2019-03-29T13:52:57Z</time>
      </trkpt>
      <trkpt lat="44.43299" lon="5.71143">
        <ele>671</ele>
        <time>2019-03-29T13:52:58Z</time>
      </trkpt>
      <trkpt lat="44.43303" lon="5.71139">
        <ele>671</ele>
        <time>2019-03-29T13:52:59Z</time>
      </trkpt>
      <trkpt lat="44.43306" lon="5.71136">
        <ele>671</ele>
        <time>2019-03-29T13:53:00Z</time>
      </trkpt>
      <trkpt lat="44.43309" lon="5.71132">
        <ele>671</ele>
        <time>2019-03-29T13:53:01Z</time>
      </trkpt>
      <trkpt lat="44.43313" lon="5.71129">
        <ele>671</ele>
        <time>2019-03-29T13:53:02Z</time>
      </trkpt>
      <trkpt lat="44.43317" lon="5.71126">
        <ele>671</ele>
        <time>2019-03-29T13:53:03Z</time>
      </trkpt>
      <trkpt lat="44.43321" lon="5.71123">
        <ele>671</ele>
        <time>2019-03-29T13:53:04Z</time>
      </trkpt>
      <trkpt lat="44.43325" lon="5.7112">
        <ele>671</ele>
        <time>2019-03-29T13:53:05Z</time>
      </trkpt>
      <trkpt lat="44.43328" lon="5.71117">
        <ele>671</ele>
        <time>2019-03-29T13:53:06Z</time>
      </trkpt>
      <trkpt lat="44.43331" lon="5.71114">
        <ele>671</ele>
        <time>2019-03-29T13:53:07Z</time>
      </trkpt>
      <trkpt lat="44.43334" lon="5.71111">
        <ele>671</ele>
        <time>2019-03-29T13:53:08Z</time>
      </trkpt>
      <trkpt lat="44.43338" lon="5.71109">
        <ele>671</ele>
        <time>2019-03-29T13:53:09Z</time>
      </trkpt>
      <trkpt lat="44.43342" lon="5.71106">
        <ele>671</ele>
        <time>2019-03-29T13:53:10Z</time>
      </trkpt>
      <trkpt lat="44.43345" lon="5.71103">
        <ele>671</ele>
        <time>2019-03-29T13:53:11Z</time>
      </trkpt>
      <trkpt lat="44.43348" lon="5.71101">
        <ele>671</ele>
        <time>2019-03-29T13:53:12Z</time>
      </trkpt>
      <trkpt lat="44.43352" lon="5.71099">
        <ele>671</ele>
        <time>2019-03-29T13:53:13Z</time>
      </trkpt>
      <trkpt lat="44.43356" lon="5.71097">
        <ele>671</ele>
        <time>2019-03-29T13:53:14Z</time>
      </trkpt>
      <trkpt lat="44.43359" lon="5.71095">
        <ele>672</ele>
        <time>2019-03-29T13:53:15Z</time>
      </trkpt>
      <trkpt lat="44.43362" lon="5.71093">
        <ele>672</ele>
        <time>2019-03-29T13:53:16Z</time>
      </trkpt>
      <trkpt lat="44.43366" lon="5.71091">
        <ele>672</ele>
        <time>2019-03-29T13:53:17Z</time>
      </trkpt>
      <trkpt lat="44.43369" lon="5.71089">
        <ele>673</ele>
        <time>2019-03-29T13:53:18Z</time>
      </trkpt>
      <trkpt lat="44.43373" lon="5.71088">
        <ele>673</ele>
        <time>2019-03-29T13:53:19Z</time>
      </trkpt>
      <trkpt lat="44.43376" lon="5.71086">
        <ele>674</ele>
        <time>2019-03-29T13:53:20Z</time>
      </trkpt>
      <trkpt lat="44.4338" lon="5.71084">
        <ele>674</ele>
        <time>2019-03-29T13:53:21Z</time>
      </trkpt>
      <trkpt lat="44.43383" lon="5.71082">
        <ele>674</ele>
        <time>2019-03-29T13:53:22Z</time>
      </trkpt>
      <trkpt lat="44.43387" lon="5.7108">
        <ele>675</ele>
        <time>2019-03-29T13:53:23Z</time>
      </trkpt>
      <trkpt lat="44.4339" lon="5.71079">
        <ele>675</ele>
        <time>2019-03-29T13:53:24Z</time>
      </trkpt>
      <trkpt lat="44.43393" lon="5.71077">
        <ele>675</ele>
        <time>2019-03-29T13:53:25Z</time>
      </trkpt>
      <trkpt lat="44.43397" lon="5.71075">
        <ele>675</ele>
        <time>2019-03-29T13:53:26Z</time>
      </trkpt>
      <trkpt lat="44.434" lon="5.71073">
        <ele>675</ele>
        <time>2019-03-29T13:53:27Z</time>
      </trkpt>
      <trkpt lat="44.43404" lon="5.71071">
        <ele>676</ele>
        <time>2019-03-29T13:53:28Z</time>
      </trkpt>
      <trkpt lat="44.43407" lon="5.7107">
        <ele>676</ele>
        <time>2019-03-29T13:53:29Z</time>
      </trkpt>
      <trkpt lat="44.43411" lon="5.71069">
        <ele>676</ele>
        <time>2019-03-29T13:53:30Z</time>
      </trkpt>
      <trkpt lat="44.43414" lon="5.71067">
        <ele>676</ele>
        <time>2019-03-29T13:53:31Z</time>
      </trkpt>
      <trkpt lat="44.43417" lon="5.71066">
        <ele>676</ele>
        <time>2019-03-29T13:53:32Z</time>
      </trkpt>
      <trkpt lat="44.43421" lon="5.71064">
        <ele>676</ele>
        <time>2019-03-29T13:53:33Z</time>
      </trkpt>
      <trkpt lat="44.43423" lon="5.71062">
        <ele>676</ele>
        <time>2019-03-29T13:53:34Z</time>
      </trkpt>
      <trkpt lat="44.43426" lon="5.7106">
        <ele>676</ele>
        <time>2019-03-29T13:53:35Z</time>
      </trkpt>
      <trkpt lat="44.43428" lon="5.71058">
        <ele>677</ele>
        <time>2019-03-29T13:53:36Z</time>
      </trkpt>
      <trkpt lat="44.43431" lon="5.71056">
        <ele>677</ele>
        <time>2019-03-29T13:53:37Z</time>
      </trkpt>
      <trkpt lat="44.43435" lon="5.71054">
        <ele>677</ele>
        <time>2019-03-29T13:53:38Z</time>
      </trkpt>
      <trkpt lat="44.43438" lon="5.71052">
        <ele>678</ele>
        <time>2019-03-29T13:53:39Z</time>
      </trkpt>
      <trkpt lat="44.43441" lon="5.7105">
        <ele>678</ele>
        <time>2019-03-29T13:53:40Z</time>
      </trkpt>
      <trkpt lat="44.43444" lon="5.71048">
        <ele>679</ele>
        <time>2019-03-29T13:53:41Z</time>
      </trkpt>
      <trkpt lat="44.43447" lon="5.71047">
        <ele>679</ele>
        <time>2019-03-29T13:53:42Z</time>
      </trkpt>
      <trkpt lat="44.4345" lon="5.71045">
        <ele>680</ele>
        <time>2019-03-29T13:53:43Z</time>
      </trkpt>
      <trkpt lat="44.43453" lon="5.71043">
        <ele>680</ele>
        <time>2019-03-29T13:53:44Z</time>
      </trkpt>
      <trkpt lat="44.43457" lon="5.71041">
        <ele>680</ele>
        <time>2019-03-29T13:53:45Z</time>
      </trkpt>
      <trkpt lat="44.4346" lon="5.7104">
        <ele>680</ele>
        <time>2019-03-29T13:53:46Z</time>
      </trkpt>
      <trkpt lat="44.43463" lon="5.71038">
        <ele>681</ele>
        <time>2019-03-29T13:53:47Z</time>
      </trkpt>
      <trkpt lat="44.43467" lon="5.71037">
        <ele>681</ele>
        <time>2019-03-29T13:53:48Z</time>
      </trkpt>
      <trkpt lat="44.4347" lon="5.71036">
        <ele>681</ele>
        <time>2019-03-29T13:53:49Z</time>
      </trkpt>
      <trkpt lat="44.43473" lon="5.71034">
        <ele>682</ele>
        <time>2019-03-29T13:53:50Z</time>
      </trkpt>
      <trkpt lat="44.43477" lon="5.71033">
        <ele>682</ele>
        <time>2019-03-29T13:53:51Z</time>
      </trkpt>
      <trkpt lat="44.4348" lon="5.71032">
        <ele>683</ele>
        <time>2019-03-29T13:53:52Z</time>
      </trkpt>
      <trkpt lat="44.43483" lon="5.7103">
        <ele>683</ele>
        <time>2019-03-29T13:53:53Z</time>
      </trkpt>
      <trkpt lat="44.43486" lon="5.71029">
        <ele>683</ele>
        <time>2019-03-29T13:53:54Z</time>
      </trkpt>
      <trkpt lat="44.4349" lon="5.71028">
        <ele>684</ele>
        <time>2019-03-29T13:53:55Z</time>
      </trkpt>
      <trkpt lat="44.43493" lon="5.71026">
        <ele>684</ele>
        <time>2019-03-29T13:53:56Z</time>
      </trkpt>
      <trkpt lat="44.43496" lon="5.71024">
        <ele>685</ele>
        <time>2019-03-29T13:53:57Z</time>
      </trkpt>
      <trkpt lat="44.435" lon="5.71023">
        <ele>685</ele>
        <time>2019-03-29T13:53:58Z</time>
      </trkpt>
      <trkpt lat="44.43503" lon="5.71021">
        <ele>685</ele>
        <time>2019-03-29T13:53:59Z</time>
      </trkpt>
      <trkpt lat="44.43507" lon="5.7102">
        <ele>685</ele>
        <time>2019-03-29T13:54:00Z</time>
      </trkpt>
      <trkpt lat="44.4351" lon="5.71018">
        <ele>685</ele>
        <time>2019-03-29T13:54:01Z</time>
      </trkpt>
      <trkpt lat="44.43513" lon="5.71017">
        <ele>685</ele>
        <time>2019-03-29T13:54:02Z</time>
      </trkpt>
      <trkpt lat="44.43517" lon="5.71015">
        <ele>685</ele>
        <time>2019-03-29T13:54:03Z</time>
      </trkpt>
      <trkpt lat="44.4352" lon="5.71014">
        <ele>685</ele>
        <time>2019-03-29T13:54:04Z</time>
      </trkpt>
      <trkpt lat="44.43524" lon="5.71012">
        <ele>685</ele>
        <time>2019-03-29T13:54:05Z</time>
      </trkpt>
      <trkpt lat="44.43528" lon="5.71011">
        <ele>685</ele>
        <time>2019-03-29T13:54:06Z</time>
      </trkpt>
      <trkpt lat="44.43531" lon="5.7101">
        <ele>685</ele>
        <time>2019-03-29T13:54:07Z</time>
      </trkpt>
      <trkpt lat="44.43535" lon="5.71009">
        <ele>685</ele>
        <time>2019-03-29T13:54:08Z</time>
      </trkpt>
      <trkpt lat="44.43539" lon="5.71009">
        <ele>685</ele>
        <time>2019-03-29T13:54:09Z</time>
      </trkpt>
      <trkpt lat="44.43543" lon="5.71008">
        <ele>685</ele>
        <time>2019-03-29T13:54:10Z</time>
      </trkpt>
      <trkpt lat="44.43547" lon="5.71007">
        <ele>685</ele>
        <time>2019-03-29T13:54:11Z</time>
      </trkpt>
      <trkpt lat="44.43551" lon="5.71006">
        <ele>685</ele>
        <time>2019-03-29T13:54:12Z</time>
      </trkpt>
      <trkpt lat="44.43555" lon="5.71006">
        <ele>685</ele>
        <time>2019-03-29T13:54:13Z</time>
      </trkpt>
      <trkpt lat="44.43559" lon="5.71005">
        <ele>685</ele>
        <time>2019-03-29T13:54:14Z</time>
      </trkpt>
      <trkpt lat="44.43563" lon="5.71004">
        <ele>685</ele>
        <time>2019-03-29T13:54:15Z</time>
      </trkpt>
      <trkpt lat="44.43567" lon="5.71003">
        <ele>685</ele>
        <time>2019-03-29T13:54:16Z</time>
      </trkpt>
      <trkpt lat="44.43571" lon="5.71002">
        <ele>685</ele>
        <time>2019-03-29T13:54:17Z</time>
      </trkpt>
      <trkpt lat="44.43575" lon="5.71002">
        <ele>685</ele>
        <time>2019-03-29T13:54:18Z</time>
      </trkpt>
      <trkpt lat="44.43579" lon="5.71001">
        <ele>685</ele>
        <time>2019-03-29T13:54:19Z</time>
      </trkpt>
      <trkpt lat="44.43583" lon="5.71001">
        <ele>685</ele>
        <time>2019-03-29T13:54:20Z</time>
      </trkpt>
      <trkpt lat="44.43587" lon="5.71">
        <ele>685</ele>
        <time>2019-03-29T13:54:21Z</time>
      </trkpt>
      <trkpt lat="44.43591" lon="5.70999">
        <ele>685</ele>
        <time>2019-03-29T13:54:22Z</time>
      </trkpt>
      <trkpt lat="44.43594" lon="5.70998">
        <ele>685</ele>
        <time>2019-03-29T13:54:23Z</time>
      </trkpt>
      <trkpt lat="44.43598" lon="5.70998">
        <ele>685</ele>
        <time>2019-03-29T13:54:24Z</time>
      </trkpt>
      <trkpt lat="44.43602" lon="5.70997">
        <ele>685</ele>
        <time>2019-03-29T13:54:25Z</time>
      </trkpt>
      <trkpt lat="44.43605" lon="5.70996">
        <ele>685</ele>
        <time>2019-03-29T13:54:26Z</time>
      </trkpt>
      <trkpt lat="44.43609" lon="5.70995">
        <ele>685</ele>
        <time>2019-03-29T13:54:27Z</time>
      </trkpt>
      <trkpt lat="44.43613" lon="5.70994">
        <ele>685</ele>
        <time>2019-03-29T13:54:28Z</time>
      </trkpt>
      <trkpt lat="44.43617" lon="5.70994">
        <ele>685</ele>
        <time>2019-03-29T13:54:29Z</time>
      </trkpt>
      <trkpt lat="44.43621" lon="5.70993">
        <ele>685</ele>
        <time>2019-03-29T13:54:30Z</time>
      </trkpt>
      <trkpt lat="44.43625" lon="5.70992">
        <ele>685</ele>
        <time>2019-03-29T13:54:31Z</time>
      </trkpt>
      <trkpt lat="44.43629" lon="5.70992">
        <ele>686</ele>
        <time>2019-03-29T13:54:32Z</time>
      </trkpt>
      <trkpt lat="44.43634" lon="5.70992">
        <ele>686</ele>
        <time>2019-03-29T13:54:33Z</time>
      </trkpt>
      <trkpt lat="44.43638" lon="5.70991">
        <ele>686</ele>
        <time>2019-03-29T13:54:34Z</time>
      </trkpt>
      <trkpt lat="44.43642" lon="5.70991">
        <ele>686</ele>
        <time>2019-03-29T13:54:35Z</time>
      </trkpt>
      <trkpt lat="44.43647" lon="5.7099">
        <ele>686</ele>
        <time>2019-03-29T13:54:36Z</time>
      </trkpt>
      <trkpt lat="44.43651" lon="5.70989">
        <ele>686</ele>
        <time>2019-03-29T13:54:37Z</time>
      </trkpt>
      <trkpt lat="44.43655" lon="5.70988">
        <ele>687</ele>
        <time>2019-03-29T13:54:38Z</time>
      </trkpt>
      <trkpt lat="44.4366" lon="5.70988">
        <ele>687</ele>
        <time>2019-03-29T13:54:39Z</time>
      </trkpt>
      <trkpt lat="44.43664" lon="5.70987">
        <ele>687</ele>
        <time>2019-03-29T13:54:40Z</time>
      </trkpt>
      <trkpt lat="44.43669" lon="5.70986">
        <ele>687</ele>
        <time>2019-03-29T13:54:41Z</time>
      </trkpt>
      <trkpt lat="44.43674" lon="5.70985">
        <ele>687</ele>
        <time>2019-03-29T13:54:42Z</time>
      </trkpt>
      <trkpt lat="44.43679" lon="5.70984">
        <ele>687</ele>
        <time>2019-03-29T13:54:43Z</time>
      </trkpt>
      <trkpt lat="44.43684" lon="5.70983">
        <ele>687</ele>
        <time>2019-03-29T13:54:44Z</time>
      </trkpt>
      <trkpt lat="44.43689" lon="5.70982">
        <ele>687</ele>
        <time>2019-03-29T13:54:45Z</time>
      </trkpt>
      <trkpt lat="44.43695" lon="5.70981">
        <ele>687</ele>
        <time>2019-03-29T13:54:46Z</time>
      </trkpt>
      <trkpt lat="44.437" lon="5.70979">
        <ele>687</ele>
        <time>2019-03-29T13:54:47Z</time>
      </trkpt>
      <trkpt lat="44.43706" lon="5.70978">
        <ele>687</ele>
        <time>2019-03-29T13:54:48Z</time>
      </trkpt>
      <trkpt lat="44.43711" lon="5.70976">
        <ele>687</ele>
        <time>2019-03-29T13:54:49Z</time>
      </trkpt>
      <trkpt lat="44.43717" lon="5.70973">
        <ele>687</ele>
        <time>2019-03-29T13:54:50Z</time>
      </trkpt>
      <trkpt lat="44.43723" lon="5.70971">
        <ele>687</ele>
        <time>2019-03-29T13:54:51Z</time>
      </trkpt>
      <trkpt lat="44.43728" lon="5.70968">
        <ele>687</ele>
        <time>2019-03-29T13:54:52Z</time>
      </trkpt>
      <trkpt lat="44.43734" lon="5.70965">
        <ele>687</ele>
        <time>2019-03-29T13:54:53Z</time>
      </trkpt>
      <trkpt lat="44.4374" lon="5.70961">
        <ele>687</ele>
        <time>2019-03-29T13:54:54Z</time>
      </trkpt>
      <trkpt lat="44.43746" lon="5.70958">
        <ele>687</ele>
        <time>2019-03-29T13:54:55Z</time>
      </trkpt>
      <trkpt lat="44.43752" lon="5.70954">
        <ele>687</ele>
        <time>2019-03-29T13:54:56Z</time>
      </trkpt>
      <trkpt lat="44.43758" lon="5.7095">
        <ele>687</ele>
        <time>2019-03-29T13:54:57Z</time>
      </trkpt>
      <trkpt lat="44.43764" lon="5.70945">
        <ele>687</ele>
        <time>2019-03-29T13:54:58Z</time>
      </trkpt>
      <trkpt lat="44.43771" lon="5.70939">
        <ele>687</ele>
        <time>2019-03-29T13:54:59Z</time>
      </trkpt>
      <trkpt lat="44.43777" lon="5.70934">
        <ele>687</ele>
        <time>2019-03-29T13:55:00Z</time>
      </trkpt>
      <trkpt lat="44.43784" lon="5.70927">
        <ele>687</ele>
        <time>2019-03-29T13:55:01Z</time>
      </trkpt>
      <trkpt lat="44.4379" lon="5.70921">
        <ele>687</ele>
        <time>2019-03-29T13:55:02Z</time>
      </trkpt>
      <trkpt lat="44.43797" lon="5.70915">
        <ele>687</ele>
        <time>2019-03-29T13:55:03Z</time>
      </trkpt>
      <trkpt lat="44.43804" lon="5.70909">
        <ele>687</ele>
        <time>2019-03-29T13:55:04Z</time>
      </trkpt>
      <trkpt lat="44.4381" lon="5.70902">
        <ele>687</ele>
        <time>2019-03-29T13:55:05Z</time>
      </trkpt>
      <trkpt lat="44.43816" lon="5.70896">
        <ele>687</ele>
        <time>2019-03-29T13:55:06Z</time>
      </trkpt>
      <trkpt lat="44.43822" lon="5.7089">
        <ele>687</ele>
        <time>2019-03-29T13:55:07Z</time>
      </trkpt>
      <trkpt lat="44.43828" lon="5.70884">
        <ele>687</ele>
        <time>2019-03-29T13:55:08Z</time>
      </trkpt>
      <trkpt lat="44.43834" lon="5.70878">
        <ele>687</ele>
        <time>2019-03-29T13:55:09Z</time>
      </trkpt>
      <trkpt lat="44.43839" lon="5.70873">
        <ele>687</ele>
        <time>2019-03-29T13:55:10Z</time>
      </trkpt>
      <trkpt lat="44.43845" lon="5.70869">
        <ele>687</ele>
        <time>2019-03-29T13:55:11Z</time>
      </trkpt>
      <trkpt lat="44.4385" lon="5.70865">
        <ele>687</ele>
        <time>2019-03-29T13:55:12Z</time>
      </trkpt>
      <trkpt lat="44.43856" lon="5.70861">
        <ele>687</ele>
        <time>2019-03-29T13:55:13Z</time>
      </trkpt>
      <trkpt lat="44.43861" lon="5.70857">
        <ele>687</ele>
        <time>2019-03-29T13:55:14Z</time>
      </trkpt>
      <trkpt lat="44.43866" lon="5.70853">
        <ele>687</ele>
        <time>2019-03-29T13:55:15Z</time>
      </trkpt>
      <trkpt lat="44.43872" lon="5.7085">
        <ele>687</ele>
        <time>2019-03-29T13:55:16Z</time>
      </trkpt>
      <trkpt lat="44.43877" lon="5.70847">
        <ele>687</ele>
        <time>2019-03-29T13:55:17Z</time>
      </trkpt>
      <trkpt lat="44.43882" lon="5.70844">
        <ele>687</ele>
        <time>2019-03-29T13:55:18Z</time>
      </trkpt>
      <trkpt lat="44.43888" lon="5.70841">
        <ele>687</ele>
        <time>2019-03-29T13:55:19Z</time>
      </trkpt>
      <trkpt lat="44.43893" lon="5.70838">
        <ele>687</ele>
        <time>2019-03-29T13:55:20Z</time>
      </trkpt>
      <trkpt lat="44.43898" lon="5.70836">
        <ele>687</ele>
        <time>2019-03-29T13:55:21Z</time>
      </trkpt>
      <trkpt lat="44.43903" lon="5.70833">
        <ele>687</ele>
        <time>2019-03-29T13:55:22Z</time>
      </trkpt>
      <trkpt lat="44.43908" lon="5.7083">
        <ele>687</ele>
        <time>2019-03-29T13:55:23Z</time>
      </trkpt>
      <trkpt lat="44.43913" lon="5.70827">
        <ele>687</ele>
        <time>2019-03-29T13:55:24Z</time>
      </trkpt>
      <trkpt lat="44.43919" lon="5.70824">
        <ele>687</ele>
        <time>2019-03-29T13:55:25Z</time>
      </trkpt>
      <trkpt lat="44.43924" lon="5.70821">
        <ele>687</ele>
        <time>2019-03-29T13:55:26Z</time>
      </trkpt>
      <trkpt lat="44.43929" lon="5.70817">
        <ele>687</ele>
        <time>2019-03-29T13:55:27Z</time>
      </trkpt>
      <trkpt lat="44.43934" lon="5.70813">
        <ele>687</ele>
        <time>2019-03-29T13:55:28Z</time>
      </trkpt>
      <trkpt lat="44.43939" lon="5.70809">
        <ele>687</ele>
        <time>2019-03-29T13:55:29Z</time>
      </trkpt>
      <trkpt lat="44.43944" lon="5.70805">
        <ele>687</ele>
        <time>2019-03-29T13:55:30Z</time>
      </trkpt>
      <trkpt lat="44.43949" lon="5.70802">
        <ele>687</ele>
        <time>2019-03-29T13:55:31Z</time>
      </trkpt>
      <trkpt lat="44.43954" lon="5.70798">
        <ele>687</ele>
        <time>2019-03-29T13:55:32Z</time>
      </trkpt>
      <trkpt lat="44.43959" lon="5.70793">
        <ele>687</ele>
        <time>2019-03-29T13:55:33Z</time>
      </trkpt>
      <trkpt lat="44.43964" lon="5.70789">
        <ele>687</ele>
        <time>2019-03-29T13:55:34Z</time>
      </trkpt>
      <trkpt lat="44.43968" lon="5.70785">
        <ele>687</ele>
        <time>2019-03-29T13:55:35Z</time>
      </trkpt>
      <trkpt lat="44.43973" lon="5.70781">
        <ele>687</ele>
        <time>2019-03-29T13:55:36Z</time>
      </trkpt>
      <trkpt lat="44.43978" lon="5.70777">
        <ele>687</ele>
        <time>2019-03-29T13:55:37Z</time>
      </trkpt>
      <trkpt lat="44.43982" lon="5.70772">
        <ele>687</ele>
        <time>2019-03-29T13:55:38Z</time>
      </trkpt>
      <trkpt lat="44.43987" lon="5.70767">
        <ele>687</ele>
        <time>2019-03-29T13:55:39Z</time>
      </trkpt>
      <trkpt lat="44.4399" lon="5.70761">
        <ele>687</ele>
        <time>2019-03-29T13:55:40Z</time>
      </trkpt>
      <trkpt lat="44.43993" lon="5.70754">
        <ele>687</ele>
        <time>2019-03-29T13:55:41Z</time>
      </trkpt>
      <trkpt lat="44.43996" lon="5.70747">
        <ele>687</ele>
        <time>2019-03-29T13:55:42Z</time>
      </trkpt>
      <trkpt lat="44.43998" lon="5.7074">
        <ele>687</ele>
        <time>2019-03-29T13:55:43Z</time>
      </trkpt>
      <trkpt lat="44.44001" lon="5.70733">
        <ele>687</ele>
        <time>2019-03-29T13:55:44Z</time>
      </trkpt>
      <trkpt lat="44.44003" lon="5.70726">
        <ele>687</ele>
        <time>2019-03-29T13:55:45Z</time>
      </trkpt>
      <trkpt lat="44.44005" lon="5.70718">
        <ele>687</ele>
        <time>2019-03-29T13:55:46Z</time>
      </trkpt>
      <trkpt lat="44.44009" lon="5.70712">
        <ele>687</ele>
        <time>2019-03-29T13:55:47Z</time>
      </trkpt>
      <trkpt lat="44.44012" lon="5.70706">
        <ele>687</ele>
        <time>2019-03-29T13:55:48Z</time>
      </trkpt>
      <trkpt lat="44.44016" lon="5.707">
        <ele>687</ele>
        <time>2019-03-29T13:55:49Z</time>
      </trkpt>
      <trkpt lat="44.4402" lon="5.70694">
        <ele>687</ele>
        <time>2019-03-29T13:55:50Z</time>
      </trkpt>
      <trkpt lat="44.44024" lon="5.70689">
        <ele>687</ele>
        <time>2019-03-29T13:55:51Z</time>
      </trkpt>
      <trkpt lat="44.44028" lon="5.70684">
        <ele>687</ele>
        <time>2019-03-29T13:55:52Z</time>
      </trkpt>
      <trkpt lat="44.44032" lon="5.70678">
        <ele>687</ele>
        <time>2019-03-29T13:55:53Z</time>
      </trkpt>
      <trkpt lat="44.44036" lon="5.70673">
        <ele>687</ele>
        <time>2019-03-29T13:55:54Z</time>
      </trkpt>
      <trkpt lat="44.44041" lon="5.70668">
        <ele>687</ele>
        <time>2019-03-29T13:55:55Z</time>
      </trkpt>
      <trkpt lat="44.44046" lon="5.70663">
        <ele>687</ele>
        <time>2019-03-29T13:55:56Z</time>
      </trkpt>
      <trkpt lat="44.44051" lon="5.70659">
        <ele>687</ele>
        <time>2019-03-29T13:55:57Z</time>
      </trkpt>
      <trkpt lat="44.44057" lon="5.70655">
        <ele>687</ele>
        <time>2019-03-29T13:55:58Z</time>
      </trkpt>
      <trkpt lat="44.44062" lon="5.70652">
        <ele>687</ele>
        <time>2019-03-29T13:55:59Z</time>
      </trkpt>
      <trkpt lat="44.44067" lon="5.70648">
        <ele>687</ele>
        <time>2019-03-29T13:56:00Z</time>
      </trkpt>
      <trkpt lat="44.44073" lon="5.70646">
        <ele>687</ele>
        <time>2019-03-29T13:56:01Z</time>
      </trkpt>
      <trkpt lat="44.44078" lon="5.70644">
        <ele>687</ele>
        <time>2019-03-29T13:56:02Z</time>
      </trkpt>
      <trkpt lat="44.44084" lon="5.70642">
        <ele>687</ele>
        <time>2019-03-29T13:56:03Z</time>
      </trkpt>
      <trkpt lat="44.44089" lon="5.70641">
        <ele>687</ele>
        <time>2019-03-29T13:56:04Z</time>
      </trkpt>
      <trkpt lat="44.44095" lon="5.7064">
        <ele>687</ele>
        <time>2019-03-29T13:56:05Z</time>
      </trkpt>
      <trkpt lat="44.441" lon="5.7064">
        <ele>687</ele>
        <time>2019-03-29T13:56:06Z</time>
      </trkpt>
      <trkpt lat="44.44106" lon="5.70639">
        <ele>687</ele>
        <time>2019-03-29T13:56:07Z</time>
      </trkpt>
      <trkpt lat="44.44112" lon="5.70639">
        <ele>687</ele>
        <time>2019-03-29T13:56:08Z</time>
      </trkpt>
      <trkpt lat="44.44117" lon="5.70638">
        <ele>687</ele>
        <time>2019-03-29T13:56:09Z</time>
      </trkpt>
      <trkpt lat="44.44123" lon="5.70637">
        <ele>687</ele>
        <time>2019-03-29T13:56:10Z</time>
      </trkpt>
      <trkpt lat="44.44128" lon="5.70635">
        <ele>687</ele>
        <time>2019-03-29T13:56:11Z</time>
      </trkpt>
      <trkpt lat="44.44134" lon="5.70634">
        <ele>687</ele>
        <time>2019-03-29T13:56:12Z</time>
      </trkpt>
      <trkpt lat="44.44139" lon="5.70632">
        <ele>687</ele>
        <time>2019-03-29T13:56:13Z</time>
      </trkpt>
      <trkpt lat="44.44144" lon="5.70628">
        <ele>687</ele>
        <time>2019-03-29T13:56:14Z</time>
      </trkpt>
      <trkpt lat="44.4415" lon="5.70625">
        <ele>687</ele>
        <time>2019-03-29T13:56:15Z</time>
      </trkpt>
      <trkpt lat="44.44154" lon="5.70621">
        <ele>687</ele>
        <time>2019-03-29T13:56:16Z</time>
      </trkpt>
      <trkpt lat="44.4416" lon="5.70617">
        <ele>687</ele>
        <time>2019-03-29T13:56:17Z</time>
      </trkpt>
      <trkpt lat="44.44164" lon="5.70613">
        <ele>687</ele>
        <time>2019-03-29T13:56:18Z</time>
      </trkpt>
      <trkpt lat="44.44169" lon="5.70609">
        <ele>687</ele>
        <time>2019-03-29T13:56:19Z</time>
      </trkpt>
      <trkpt lat="44.44174" lon="5.70604">
        <ele>687</ele>
        <time>2019-03-29T13:56:20Z</time>
      </trkpt>
      <trkpt lat="44.44178" lon="5.70599">
        <ele>687</ele>
        <time>2019-03-29T13:56:21Z</time>
      </trkpt>
      <trkpt lat="44.44183" lon="5.70594">
        <ele>687</ele>
        <time>2019-03-29T13:56:22Z</time>
      </trkpt>
      <trkpt lat="44.44187" lon="5.70588">
        <ele>687</ele>
        <time>2019-03-29T13:56:23Z</time>
      </trkpt>
      <trkpt lat="44.44191" lon="5.70583">
        <ele>687</ele>
        <time>2019-03-29T13:56:24Z</time>
      </trkpt>
      <trkpt lat="44.44194" lon="5.70577">
        <ele>687</ele>
        <time>2019-03-29T13:56:25Z</time>
      </trkpt>
      <trkpt lat="44.44197" lon="5.7057">
        <ele>687</ele>
        <time>2019-03-29T13:56:26Z</time>
      </trkpt>
      <trkpt lat="44.44201" lon="5.70564">
        <ele>687</ele>
        <time>2019-03-29T13:56:27Z</time>
      </trkpt>
      <trkpt lat="44.44203" lon="5.70558">
        <ele>687</ele>
        <time>2019-03-29T13:56:28Z</time>
      </trkpt>
      <trkpt lat="44.44206" lon="5.70551">
        <ele>687</ele>
        <time>2019-03-29T13:56:29Z</time>
      </trkpt>
      <trkpt lat="44.4421" lon="5.70545">
        <ele>687</ele>
        <time>2019-03-29T13:56:30Z</time>
      </trkpt>
      <trkpt lat="44.44213" lon="5.70538">
        <ele>687</ele>
        <time>2019-03-29T13:56:31Z</time>
      </trkpt>
      <trkpt lat="44.44217" lon="5.70532">
        <ele>687</ele>
        <time>2019-03-29T13:56:32Z</time>
      </trkpt>
      <trkpt lat="44.44221" lon="5.70526">
        <ele>687</ele>
        <time>2019-03-29T13:56:33Z</time>
      </trkpt>
      <trkpt lat="44.44225" lon="5.7052">
        <ele>687</ele>
        <time>2019-03-29T13:56:34Z</time>
      </trkpt>
      <trkpt lat="44.4423" lon="5.70516">
        <ele>687</ele>
        <time>2019-03-29T13:56:35Z</time>
      </trkpt>
      <trkpt lat="44.44235" lon="5.70512">
        <ele>687</ele>
        <time>2019-03-29T13:56:36Z</time>
      </trkpt>
      <trkpt lat="44.4424" lon="5.70508">
        <ele>688</ele>
        <time>2019-03-29T13:56:37Z</time>
      </trkpt>
      <trkpt lat="44.44246" lon="5.70505">
        <ele>688</ele>
        <time>2019-03-29T13:56:38Z</time>
      </trkpt>
      <trkpt lat="44.44251" lon="5.70502">
        <ele>688</ele>
        <time>2019-03-29T13:56:39Z</time>
      </trkpt>
      <trkpt lat="44.44256" lon="5.70498">
        <ele>688</ele>
        <time>2019-03-29T13:56:40Z</time>
      </trkpt>
      <trkpt lat="44.44261" lon="5.70495">
        <ele>688</ele>
        <time>2019-03-29T13:56:41Z</time>
      </trkpt>
      <trkpt lat="44.44266" lon="5.70492">
        <ele>688</ele>
        <time>2019-03-29T13:56:42Z</time>
      </trkpt>
      <trkpt lat="44.44271" lon="5.70489">
        <ele>688</ele>
        <time>2019-03-29T13:56:43Z</time>
      </trkpt>
      <trkpt lat="44.44276" lon="5.70485">
        <ele>688</ele>
        <time>2019-03-29T13:56:44Z</time>
      </trkpt>
      <trkpt lat="44.44281" lon="5.70482">
        <ele>688</ele>
        <time>2019-03-29T13:56:45Z</time>
      </trkpt>
      <trkpt lat="44.44286" lon="5.70478">
        <ele>688</ele>
        <time>2019-03-29T13:56:46Z</time>
      </trkpt>
      <trkpt lat="44.44292" lon="5.70475">
        <ele>688</ele>
        <time>2019-03-29T13:56:47Z</time>
      </trkpt>
      <trkpt lat="44.44297" lon="5.70472">
        <ele>688</ele>
        <time>2019-03-29T13:56:48Z</time>
      </trkpt>
      <trkpt lat="44.44302" lon="5.70469">
        <ele>688</ele>
        <time>2019-03-29T13:56:49Z</time>
      </trkpt>
      <trkpt lat="44.44307" lon="5.70466">
        <ele>689</ele>
        <time>2019-03-29T13:56:50Z</time>
      </trkpt>
      <trkpt lat="44.44312" lon="5.70463">
        <ele>689</ele>
        <time>2019-03-29T13:56:51Z</time>
      </trkpt>
      <trkpt lat="44.44318" lon="5.70459">
        <ele>689</ele>
        <time>2019-03-29T13:56:52Z</time>
      </trkpt>
      <trkpt lat="44.44322" lon="5.70455">
        <ele>689</ele>
        <time>2019-03-29T13:56:53Z</time>
      </trkpt>
      <trkpt lat="44.44326" lon="5.7045">
        <ele>689</ele>
        <time>2019-03-29T13:56:54Z</time>
      </trkpt>
      <trkpt lat="44.4433" lon="5.70444">
        <ele>689</ele>
        <time>2019-03-29T13:56:55Z</time>
      </trkpt>
      <trkpt lat="44.44333" lon="5.70438">
        <ele>689</ele>
        <time>2019-03-29T13:56:56Z</time>
      </trkpt>
      <trkpt lat="44.44336" lon="5.70432">
        <ele>689</ele>
        <time>2019-03-29T13:56:57Z</time>
      </trkpt>
      <trkpt lat="44.44339" lon="5.70426">
        <ele>689</ele>
        <time>2019-03-29T13:56:58Z</time>
      </trkpt>
      <trkpt lat="44.44342" lon="5.7042">
        <ele>690</ele>
        <time>2019-03-29T13:56:59Z</time>
      </trkpt>
      <trkpt lat="44.44345" lon="5.70414">
        <ele>690</ele>
        <time>2019-03-29T13:57:00Z</time>
      </trkpt>
      <trkpt lat="44.44348" lon="5.70408">
        <ele>690</ele>
        <time>2019-03-29T13:57:01Z</time>
      </trkpt>
      <trkpt lat="44.44351" lon="5.70401">
        <ele>690</ele>
        <time>2019-03-29T13:57:02Z</time>
      </trkpt>
      <trkpt lat="44.44354" lon="5.70396">
        <ele>691</ele>
        <time>2019-03-29T13:57:03Z</time>
      </trkpt>
      <trkpt lat="44.44358" lon="5.7039">
        <ele>691</ele>
        <time>2019-03-29T13:57:04Z</time>
      </trkpt>
      <trkpt lat="44.44361" lon="5.70385">
        <ele>691</ele>
        <time>2019-03-29T13:57:05Z</time>
      </trkpt>
      <trkpt lat="44.44366" lon="5.70381">
        <ele>691</ele>
        <time>2019-03-29T13:57:06Z</time>
      </trkpt>
      <trkpt lat="44.44371" lon="5.70377">
        <ele>691</ele>
        <time>2019-03-29T13:57:07Z</time>
      </trkpt>
      <trkpt lat="44.44377" lon="5.70375">
        <ele>691</ele>
        <time>2019-03-29T13:57:08Z</time>
      </trkpt>
      <trkpt lat="44.44382" lon="5.70372">
        <ele>691</ele>
        <time>2019-03-29T13:57:09Z</time>
      </trkpt>
      <trkpt lat="44.44388" lon="5.70369">
        <ele>691</ele>
        <time>2019-03-29T13:57:10Z</time>
      </trkpt>
      <trkpt lat="44.44394" lon="5.70366">
        <ele>691</ele>
        <time>2019-03-29T13:57:11Z</time>
      </trkpt>
      <trkpt lat="44.44399" lon="5.70363">
        <ele>691</ele>
        <time>2019-03-29T13:57:12Z</time>
      </trkpt>
      <trkpt lat="44.44405" lon="5.7036">
        <ele>691</ele>
        <time>2019-03-29T13:57:13Z</time>
      </trkpt>
      <trkpt lat="44.4441" lon="5.70357">
        <ele>691</ele>
        <time>2019-03-29T13:57:14Z</time>
      </trkpt>
      <trkpt lat="44.44416" lon="5.70354">
        <ele>691</ele>
        <time>2019-03-29T13:57:15Z</time>
      </trkpt>
      <trkpt lat="44.44421" lon="5.70351">
        <ele>691</ele>
        <time>2019-03-29T13:57:16Z</time>
      </trkpt>
      <trkpt lat="44.44426" lon="5.70347">
        <ele>691</ele>
        <time>2019-03-29T13:57:17Z</time>
      </trkpt>
      <trkpt lat="44.44431" lon="5.70345">
        <ele>691</ele>
        <time>2019-03-29T13:57:18Z</time>
      </trkpt>
      <trkpt lat="44.44436" lon="5.70342">
        <ele>691</ele>
        <time>2019-03-29T13:57:19Z</time>
      </trkpt>
      <trkpt lat="44.4444" lon="5.7034">
        <ele>691</ele>
        <time>2019-03-29T13:57:20Z</time>
      </trkpt>
      <trkpt lat="44.44445" lon="5.70339">
        <ele>691</ele>
        <time>2019-03-29T13:57:21Z</time>
      </trkpt>
      <trkpt lat="44.44451" lon="5.70337">
        <ele>691</ele>
        <time>2019-03-29T13:57:22Z</time>
      </trkpt>
      <trkpt lat="44.44456" lon="5.70336">
        <ele>691</ele>
        <time>2019-03-29T13:57:23Z</time>
      </trkpt>
      <trkpt lat="44.44462" lon="5.70336">
        <ele>691</ele>
        <time>2019-03-29T13:57:24Z</time>
      </trkpt>
      <trkpt lat="44.44467" lon="5.70335">
        <ele>691</ele>
        <time>2019-03-29T13:57:25Z</time>
      </trkpt>
      <trkpt lat="44.44472" lon="5.70335">
        <ele>691</ele>
        <time>2019-03-29T13:57:26Z</time>
      </trkpt>
      <trkpt lat="44.44478" lon="5.70335">
        <ele>691</ele>
        <time>2019-03-29T13:57:27Z</time>
      </trkpt>
      <trkpt lat="44.44483" lon="5.70335">
        <ele>691</ele>
        <time>2019-03-29T13:57:28Z</time>
      </trkpt>
      <trkpt lat="44.44487" lon="5.70335">
        <ele>691</ele>
        <time>2019-03-29T13:57:29Z</time>
      </trkpt>
      <trkpt lat="44.44492" lon="5.70334">
        <ele>691</ele>
        <time>2019-03-29T13:57:30Z</time>
      </trkpt>
      <trkpt lat="44.44498" lon="5.70334">
        <ele>691</ele>
        <time>2019-03-29T13:57:31Z</time>
      </trkpt>
      <trkpt lat="44.44503" lon="5.70333">
        <ele>691</ele>
        <time>2019-03-29T13:57:32Z</time>
      </trkpt>
      <trkpt lat="44.44508" lon="5.70332">
        <ele>691</ele>
        <time>2019-03-29T13:57:33Z</time>
      </trkpt>
      <trkpt lat="44.44514" lon="5.70331">
        <ele>691</ele>
        <time>2019-03-29T13:57:34Z</time>
      </trkpt>
      <trkpt lat="44.44519" lon="5.70329">
        <ele>691</ele>
        <time>2019-03-29T13:57:35Z</time>
      </trkpt>
      <trkpt lat="44.44524" lon="5.70327">
        <ele>691</ele>
        <time>2019-03-29T13:57:36Z</time>
      </trkpt>
      <trkpt lat="44.44529" lon="5.70324">
        <ele>691</ele>
        <time>2019-03-29T13:57:37Z</time>
      </trkpt>
      <trkpt lat="44.44534" lon="5.70321">
        <ele>691</ele>
        <time>2019-03-29T13:57:38Z</time>
      </trkpt>
      <trkpt lat="44.44538" lon="5.70318">
        <ele>691</ele>
        <time>2019-03-29T13:57:39Z</time>
      </trkpt>
      <trkpt lat="44.44543" lon="5.70314">
        <ele>691</ele>
        <time>2019-03-29T13:57:40Z</time>
      </trkpt>
      <trkpt lat="44.44547" lon="5.7031">
        <ele>691</ele>
        <time>2019-03-29T13:57:41Z</time>
      </trkpt>
      <trkpt lat="44.44552" lon="5.70305">
        <ele>691</ele>
        <time>2019-03-29T13:57:42Z</time>
      </trkpt>
      <trkpt lat="44.44556" lon="5.70301">
        <ele>691</ele>
        <time>2019-03-29T13:57:43Z</time>
      </trkpt>
      <trkpt lat="44.4456" lon="5.70296">
        <ele>691</ele>
        <time>2019-03-29T13:57:44Z</time>
      </trkpt>
      <trkpt lat="44.44564" lon="5.70292">
        <ele>691</ele>
        <time>2019-03-29T13:57:45Z</time>
      </trkpt>
      <trkpt lat="44.44568" lon="5.70288">
        <ele>691</ele>
        <time>2019-03-29T13:57:46Z</time>
      </trkpt>
      <trkpt lat="44.44572" lon="5.70284">
        <ele>692</ele>
        <time>2019-03-29T13:57:47Z</time>
      </trkpt>
      <trkpt lat="44.44576" lon="5.7028">
        <ele>692</ele>
        <time>2019-03-29T13:57:48Z</time>
      </trkpt>
      <trkpt lat="44.44579" lon="5.70276">
        <ele>692</ele>
        <time>2019-03-29T13:57:49Z</time>
      </trkpt>
      <trkpt lat="44.44583" lon="5.70272">
        <ele>692</ele>
        <time>2019-03-29T13:57:50Z</time>
      </trkpt>
      <trkpt lat="44.44587" lon="5.70267">
        <ele>693</ele>
        <time>2019-03-29T13:57:51Z</time>
      </trkpt>
      <trkpt lat="44.44591" lon="5.70262">
        <ele>693</ele>
        <time>2019-03-29T13:57:52Z</time>
      </trkpt>
      <trkpt lat="44.44594" lon="5.70256">
        <ele>693</ele>
        <time>2019-03-29T13:57:53Z</time>
      </trkpt>
      <trkpt lat="44.44597" lon="5.7025">
        <ele>694</ele>
        <time>2019-03-29T13:57:54Z</time>
      </trkpt>
      <trkpt lat="44.446" lon="5.70244">
        <ele>694</ele>
        <time>2019-03-29T13:57:55Z</time>
      </trkpt>
      <trkpt lat="44.44603" lon="5.70238">
        <ele>694</ele>
        <time>2019-03-29T13:57:56Z</time>
      </trkpt>
      <trkpt lat="44.44605" lon="5.70231">
        <ele>694</ele>
        <time>2019-03-29T13:57:57Z</time>
      </trkpt>
      <trkpt lat="44.44607" lon="5.70225">
        <ele>694</ele>
        <time>2019-03-29T13:57:58Z</time>
      </trkpt>
      <trkpt lat="44.44609" lon="5.70218">
        <ele>694</ele>
        <time>2019-03-29T13:57:59Z</time>
      </trkpt>
      <trkpt lat="44.4461" lon="5.70211">
        <ele>694</ele>
        <time>2019-03-29T13:58:00Z</time>
      </trkpt>
      <trkpt lat="44.44611" lon="5.70204">
        <ele>694</ele>
        <time>2019-03-29T13:58:01Z</time>
      </trkpt>
      <trkpt lat="44.44612" lon="5.70197">
        <ele>695</ele>
        <time>2019-03-29T13:58:02Z</time>
      </trkpt>
      <trkpt lat="44.44614" lon="5.7019">
        <ele>695</ele>
        <time>2019-03-29T13:58:03Z</time>
      </trkpt>
      <trkpt lat="44.44615" lon="5.70183">
        <ele>695</ele>
        <time>2019-03-29T13:58:04Z</time>
      </trkpt>
      <trkpt lat="44.44616" lon="5.70176">
        <ele>695</ele>
        <time>2019-03-29T13:58:05Z</time>
      </trkpt>
      <trkpt lat="44.44617" lon="5.70169">
        <ele>695</ele>
        <time>2019-03-29T13:58:06Z</time>
      </trkpt>
      <trkpt lat="44.44617" lon="5.70162">
        <ele>696</ele>
        <time>2019-03-29T13:58:07Z</time>
      </trkpt>
      <trkpt lat="44.44617" lon="5.70155">
        <ele>696</ele>
        <time>2019-03-29T13:58:08Z</time>
      </trkpt>
      <trkpt lat="44.44617" lon="5.70149">
        <ele>696</ele>
        <time>2019-03-29T13:58:09Z</time>
      </trkpt>
      <trkpt lat="44.44617" lon="5.70142">
        <ele>696</ele>
        <time>2019-03-29T13:58:10Z</time>
      </trkpt>
      <trkpt lat="44.44617" lon="5.70135">
        <ele>696</ele>
        <time>2019-03-29T13:58:11Z</time>
      </trkpt>
      <trkpt lat="44.44618" lon="5.70128">
        <ele>697</ele>
        <time>2019-03-29T13:58:12Z</time>
      </trkpt>
      <trkpt lat="44.4462" lon="5.70122">
        <ele>697</ele>
        <time>2019-03-29T13:58:13Z</time>
      </trkpt>
      <trkpt lat="44.44622" lon="5.70116">
        <ele>697</ele>
        <time>2019-03-29T13:58:14Z</time>
      </trkpt>
      <trkpt lat="44.44624" lon="5.7011">
        <ele>697</ele>
        <time>2019-03-29T13:58:15Z</time>
      </trkpt>
      <trkpt lat="44.44627" lon="5.70104">
        <ele>697</ele>
        <time>2019-03-29T13:58:16Z</time>
      </trkpt>
      <trkpt lat="44.44629" lon="5.70098">
        <ele>697</ele>
        <time>2019-03-29T13:58:17Z</time>
      </trkpt>
      <trkpt lat="44.44632" lon="5.70092">
        <ele>697</ele>
        <time>2019-03-29T13:58:18Z</time>
      </trkpt>
      <trkpt lat="44.44634" lon="5.70085">
        <ele>697</ele>
        <time>2019-03-29T13:58:19Z</time>
      </trkpt>
      <trkpt lat="44.44637" lon="5.70079">
        <ele>697</ele>
        <time>2019-03-29T13:58:20Z</time>
      </trkpt>
      <trkpt lat="44.4464" lon="5.70074">
        <ele>698</ele>
        <time>2019-03-29T13:58:21Z</time>
      </trkpt>
      <trkpt lat="44.44644" lon="5.7007">
        <ele>699</ele>
        <time>2019-03-29T13:58:22Z</time>
      </trkpt>
      <trkpt lat="44.44648" lon="5.70065">
        <ele>700</ele>
        <time>2019-03-29T13:58:23Z</time>
      </trkpt>
      <trkpt lat="44.44651" lon="5.70061">
        <ele>700</ele>
        <time>2019-03-29T13:58:24Z</time>
      </trkpt>
      <trkpt lat="44.44655" lon="5.70057">
        <ele>701</ele>
        <time>2019-03-29T13:58:25Z</time>
      </trkpt>
      <trkpt lat="44.44659" lon="5.70053">
        <ele>701</ele>
        <time>2019-03-29T13:58:26Z</time>
      </trkpt>
      <trkpt lat="44.44663" lon="5.70049">
        <ele>701</ele>
        <time>2019-03-29T13:58:27Z</time>
      </trkpt>
      <trkpt lat="44.44667" lon="5.70045">
        <ele>701</ele>
        <time>2019-03-29T13:58:28Z</time>
      </trkpt>
      <trkpt lat="44.44672" lon="5.70042">
        <ele>701</ele>
        <time>2019-03-29T13:58:29Z</time>
      </trkpt>
      <trkpt lat="44.44677" lon="5.70038">
        <ele>701</ele>
        <time>2019-03-29T13:58:30Z</time>
      </trkpt>
      <trkpt lat="44.44681" lon="5.70034">
        <ele>701</ele>
        <time>2019-03-29T13:58:31Z</time>
      </trkpt>
      <trkpt lat="44.44686" lon="5.7003">
        <ele>701</ele>
        <time>2019-03-29T13:58:32Z</time>
      </trkpt>
      <trkpt lat="44.4469" lon="5.70026">
        <ele>701</ele>
        <time>2019-03-29T13:58:33Z</time>
      </trkpt>
      <trkpt lat="44.44694" lon="5.70022">
        <ele>701</ele>
        <time>2019-03-29T13:58:34Z</time>
      </trkpt>
      <trkpt lat="44.44699" lon="5.70019">
        <ele>701</ele>
        <time>2019-03-29T13:58:35Z</time>
      </trkpt>
      <trkpt lat="44.44703" lon="5.70014">
        <ele>701</ele>
        <time>2019-03-29T13:58:36Z</time>
      </trkpt>
      <trkpt lat="44.44708" lon="5.70011">
        <ele>701</ele>
        <time>2019-03-29T13:58:37Z</time>
      </trkpt>
      <trkpt lat="44.44712" lon="5.70007">
        <ele>701</ele>
        <time>2019-03-29T13:58:38Z</time>
      </trkpt>
      <trkpt lat="44.44716" lon="5.70003">
        <ele>701</ele>
        <time>2019-03-29T13:58:39Z</time>
      </trkpt>
      <trkpt lat="44.44721" lon="5.7">
        <ele>701</ele>
        <time>2019-03-29T13:58:40Z</time>
      </trkpt>
      <trkpt lat="44.44725" lon="5.69997">
        <ele>701</ele>
        <time>2019-03-29T13:58:41Z</time>
      </trkpt>
      <trkpt lat="44.4473" lon="5.69993">
        <ele>701</ele>
        <time>2019-03-29T13:58:42Z</time>
      </trkpt>
      <trkpt lat="44.44734" lon="5.69989">
        <ele>701</ele>
        <time>2019-03-29T13:58:43Z</time>
      </trkpt>
      <trkpt lat="44.44738" lon="5.69986">
        <ele>701</ele>
        <time>2019-03-29T13:58:44Z</time>
      </trkpt>
      <trkpt lat="44.44743" lon="5.69983">
        <ele>701</ele>
        <time>2019-03-29T13:58:45Z</time>
      </trkpt>
      <trkpt lat="44.44747" lon="5.69979">
        <ele>701</ele>
        <time>2019-03-29T13:58:46Z</time>
      </trkpt>
      <trkpt lat="44.44751" lon="5.69976">
        <ele>701</ele>
        <time>2019-03-29T13:58:47Z</time>
      </trkpt>
      <trkpt lat="44.44756" lon="5.69973">
        <ele>701</ele>
        <time>2019-03-29T13:58:48Z</time>
      </trkpt>
      <trkpt lat="44.44761" lon="5.6997">
        <ele>701</ele>
        <time>2019-03-29T13:58:49Z</time>
      </trkpt>
      <trkpt lat="44.44765" lon="5.69967">
        <ele>701</ele>
        <time>2019-03-29T13:58:50Z</time>
      </trkpt>
      <trkpt lat="44.4477" lon="5.69964">
        <ele>702</ele>
        <time>2019-03-29T13:58:51Z</time>
      </trkpt>
      <trkpt lat="44.44774" lon="5.69962">
        <ele>702</ele>
        <time>2019-03-29T13:58:52Z</time>
      </trkpt>
      <trkpt lat="44.44779" lon="5.69959">
        <ele>702</ele>
        <time>2019-03-29T13:58:53Z</time>
      </trkpt>
      <trkpt lat="44.44784" lon="5.69956">
        <ele>702</ele>
        <time>2019-03-29T13:58:54Z</time>
      </trkpt>
      <trkpt lat="44.44788" lon="5.69954">
        <ele>702</ele>
        <time>2019-03-29T13:58:55Z</time>
      </trkpt>
      <trkpt lat="44.44793" lon="5.69951">
        <ele>702</ele>
        <time>2019-03-29T13:58:56Z</time>
      </trkpt>
      <trkpt lat="44.44798" lon="5.69949">
        <ele>702</ele>
        <time>2019-03-29T13:58:57Z</time>
      </trkpt>
      <trkpt lat="44.44802" lon="5.69946">
        <ele>703</ele>
        <time>2019-03-29T13:58:58Z</time>
      </trkpt>
      <trkpt lat="44.44807" lon="5.69944">
        <ele>703</ele>
        <time>2019-03-29T13:58:59Z</time>
      </trkpt>
      <trkpt lat="44.44812" lon="5.69941">
        <ele>703</ele>
        <time>2019-03-29T13:59:00Z</time>
      </trkpt>
      <trkpt lat="44.44816" lon="5.69938">
        <ele>703</ele>
        <time>2019-03-29T13:59:01Z</time>
      </trkpt>
      <trkpt lat="44.4482" lon="5.69935">
        <ele>703</ele>
        <time>2019-03-29T13:59:02Z</time>
      </trkpt>
      <trkpt lat="44.44825" lon="5.69932">
        <ele>703</ele>
        <time>2019-03-29T13:59:03Z</time>
      </trkpt>
      <trkpt lat="44.44828" lon="5.69929">
        <ele>703</ele>
        <time>2019-03-29T13:59:04Z</time>
      </trkpt>
      <trkpt lat="44.44833" lon="5.69925">
        <ele>703</ele>
        <time>2019-03-29T13:59:05Z</time>
      </trkpt>
      <trkpt lat="44.44836" lon="5.69922">
        <ele>704</ele>
        <time>2019-03-29T13:59:06Z</time>
      </trkpt>
      <trkpt lat="44.44839" lon="5.69918">
        <ele>704</ele>
        <time>2019-03-29T13:59:07Z</time>
      </trkpt>
      <trkpt lat="44.44842" lon="5.69914">
        <ele>704</ele>
        <time>2019-03-29T13:59:08Z</time>
      </trkpt>
      <trkpt lat="44.44845" lon="5.69909">
        <ele>704</ele>
        <time>2019-03-29T13:59:09Z</time>
      </trkpt>
      <trkpt lat="44.44847" lon="5.69905">
        <ele>704</ele>
        <time>2019-03-29T13:59:10Z</time>
      </trkpt>
      <trkpt lat="44.44849" lon="5.699">
        <ele>704</ele>
        <time>2019-03-29T13:59:11Z</time>
      </trkpt>
      <trkpt lat="44.44853" lon="5.69896">
        <ele>704</ele>
        <time>2019-03-29T13:59:12Z</time>
      </trkpt>
      <trkpt lat="44.44855" lon="5.6989">
        <ele>704</ele>
        <time>2019-03-29T13:59:13Z</time>
      </trkpt>
      <trkpt lat="44.44857" lon="5.69884">
        <ele>704</ele>
        <time>2019-03-29T13:59:14Z</time>
      </trkpt>
      <trkpt lat="44.44859" lon="5.69878">
        <ele>704</ele>
        <time>2019-03-29T13:59:15Z</time>
      </trkpt>
      <trkpt lat="44.4486" lon="5.69872">
        <ele>704</ele>
        <time>2019-03-29T13:59:16Z</time>
      </trkpt>
      <trkpt lat="44.44861" lon="5.69865">
        <ele>704</ele>
        <time>2019-03-29T13:59:17Z</time>
      </trkpt>
      <trkpt lat="44.44861" lon="5.69858">
        <ele>704</ele>
        <time>2019-03-29T13:59:18Z</time>
      </trkpt>
      <trkpt lat="44.44862" lon="5.69851">
        <ele>704</ele>
        <time>2019-03-29T13:59:19Z</time>
      </trkpt>
      <trkpt lat="44.44862" lon="5.69844">
        <ele>704</ele>
        <time>2019-03-29T13:59:20Z</time>
      </trkpt>
      <trkpt lat="44.44863" lon="5.69837">
        <ele>704</ele>
        <time>2019-03-29T13:59:21Z</time>
      </trkpt>
      <trkpt lat="44.44864" lon="5.69831">
        <ele>704</ele>
        <time>2019-03-29T13:59:22Z</time>
      </trkpt>
      <trkpt lat="44.44866" lon="5.69824">
        <ele>704</ele>
        <time>2019-03-29T13:59:23Z</time>
      </trkpt>
      <trkpt lat="44.44868" lon="5.69817">
        <ele>704</ele>
        <time>2019-03-29T13:59:24Z</time>
      </trkpt>
      <trkpt lat="44.4487" lon="5.6981">
        <ele>704</ele>
        <time>2019-03-29T13:59:25Z</time>
      </trkpt>
      <trkpt lat="44.44873" lon="5.69804">
        <ele>704</ele>
        <time>2019-03-29T13:59:26Z</time>
      </trkpt>
      <trkpt lat="44.44875" lon="5.69799">
        <ele>704</ele>
        <time>2019-03-29T13:59:27Z</time>
      </trkpt>
      <trkpt lat="44.44878" lon="5.69793">
        <ele>704</ele>
        <time>2019-03-29T13:59:28Z</time>
      </trkpt>
      <trkpt lat="44.4488" lon="5.69788">
        <ele>704</ele>
        <time>2019-03-29T13:59:29Z</time>
      </trkpt>
      <trkpt lat="44.44882" lon="5.69783">
        <ele>704</ele>
        <time>2019-03-29T13:59:30Z</time>
      </trkpt>
      <trkpt lat="44.44885" lon="5.69778">
        <ele>704</ele>
        <time>2019-03-29T13:59:31Z</time>
      </trkpt>
      <trkpt lat="44.44888" lon="5.69773">
        <ele>704</ele>
        <time>2019-03-29T13:59:32Z</time>
      </trkpt>
      <trkpt lat="44.44891" lon="5.69768">
        <ele>704</ele>
        <time>2019-03-29T13:59:33Z</time>
      </trkpt>
      <trkpt lat="44.44893" lon="5.69761">
        <ele>704</ele>
        <time>2019-03-29T13:59:34Z</time>
      </trkpt>
      <trkpt lat="44.44896" lon="5.69755">
        <ele>704</ele>
        <time>2019-03-29T13:59:35Z</time>
      </trkpt>
      <trkpt lat="44.44898" lon="5.69749">
        <ele>704</ele>
        <time>2019-03-29T13:59:36Z</time>
      </trkpt>
      <trkpt lat="44.449" lon="5.69743">
        <ele>704</ele>
        <time>2019-03-29T13:59:37Z</time>
      </trkpt>
      <trkpt lat="44.44902" lon="5.69736">
        <ele>704</ele>
        <time>2019-03-29T13:59:38Z</time>
      </trkpt>
      <trkpt lat="44.44904" lon="5.6973">
        <ele>704</ele>
        <time>2019-03-29T13:59:39Z</time>
      </trkpt>
      <trkpt lat="44.44906" lon="5.69724">
        <ele>704</ele>
        <time>2019-03-29T13:59:40Z</time>
      </trkpt>
      <trkpt lat="44.44908" lon="5.69718">
        <ele>704</ele>
        <time>2019-03-29T13:59:41Z</time>
      </trkpt>
      <trkpt lat="44.4491" lon="5.69711">
        <ele>704</ele>
        <time>2019-03-29T13:59:42Z</time>
      </trkpt>
      <trkpt lat="44.44912" lon="5.69705">
        <ele>704</ele>
        <time>2019-03-29T13:59:43Z</time>
      </trkpt>
      <trkpt lat="44.44914" lon="5.69699">
        <ele>705</ele>
        <time>2019-03-29T13:59:44Z</time>
      </trkpt>
      <trkpt lat="44.44917" lon="5.69693">
        <ele>705</ele>
        <time>2019-03-29T13:59:45Z</time>
      </trkpt>
      <trkpt lat="44.44919" lon="5.69687">
        <ele>705</ele>
        <time>2019-03-29T13:59:46Z</time>
      </trkpt>
      <trkpt lat="44.44922" lon="5.69681">
        <ele>706</ele>
        <time>2019-03-29T13:59:47Z</time>
      </trkpt>
      <trkpt lat="44.44924" lon="5.69675">
        <ele>706</ele>
        <time>2019-03-29T13:59:48Z</time>
      </trkpt>
      <trkpt lat="44.44926" lon="5.6967">
        <ele>706</ele>
        <time>2019-03-29T13:59:49Z</time>
      </trkpt>
      <trkpt lat="44.44929" lon="5.69664">
        <ele>706</ele>
        <time>2019-03-29T13:59:50Z</time>
      </trkpt>
      <trkpt lat="44.44931" lon="5.69658">
        <ele>707</ele>
        <time>2019-03-29T13:59:51Z</time>
      </trkpt>
      <trkpt lat="44.44934" lon="5.69653">
        <ele>707</ele>
        <time>2019-03-29T13:59:52Z</time>
      </trkpt>
      <trkpt lat="44.44937" lon="5.69647">
        <ele>707</ele>
        <time>2019-03-29T13:59:53Z</time>
      </trkpt>
      <trkpt lat="44.44939" lon="5.69641">
        <ele>707</ele>
        <time>2019-03-29T13:59:54Z</time>
      </trkpt>
      <trkpt lat="44.44942" lon="5.69636">
        <ele>707</ele>
        <time>2019-03-29T13:59:55Z</time>
      </trkpt>
      <trkpt lat="44.44946" lon="5.6963">
        <ele>707</ele>
        <time>2019-03-29T13:59:56Z</time>
      </trkpt>
      <trkpt lat="44.44949" lon="5.69624">
        <ele>707</ele>
        <time>2019-03-29T13:59:57Z</time>
      </trkpt>
      <trkpt lat="44.44953" lon="5.69619">
        <ele>707</ele>
        <time>2019-03-29T13:59:58Z</time>
      </trkpt>
      <trkpt lat="44.44957" lon="5.69614">
        <ele>707</ele>
        <time>2019-03-29T13:59:59Z</time>
      </trkpt>
      <trkpt lat="44.44961" lon="5.69609">
        <ele>707</ele>
        <time>2019-03-29T14:00:00Z</time>
      </trkpt>
      <trkpt lat="44.44965" lon="5.69604">
        <ele>707</ele>
        <time>2019-03-29T14:00:01Z</time>
      </trkpt>
      <trkpt lat="44.44969" lon="5.696">
        <ele>707</ele>
        <time>2019-03-29T14:00:02Z</time>
      </trkpt>
      <trkpt lat="44.44974" lon="5.69595">
        <ele>707</ele>
        <time>2019-03-29T14:00:03Z</time>
      </trkpt>
      <trkpt lat="44.44978" lon="5.69591">
        <ele>707</ele>
        <time>2019-03-29T14:00:04Z</time>
      </trkpt>
      <trkpt lat="44.44982" lon="5.69586">
        <ele>708</ele>
        <time>2019-03-29T14:00:05Z</time>
      </trkpt>
      <trkpt lat="44.44987" lon="5.69582">
        <ele>708</ele>
        <time>2019-03-29T14:00:06Z</time>
      </trkpt>
      <trkpt lat="44.44991" lon="5.69578">
        <ele>708</ele>
        <time>2019-03-29T14:00:07Z</time>
      </trkpt>
      <trkpt lat="44.44995" lon="5.69574">
        <ele>708</ele>
        <time>2019-03-29T14:00:08Z</time>
      </trkpt>
      <trkpt lat="44.45" lon="5.6957">
        <ele>708</ele>
        <time>2019-03-29T14:00:09Z</time>
      </trkpt>
      <trkpt lat="44.45005" lon="5.69567">
        <ele>708</ele>
        <time>2019-03-29T14:00:10Z</time>
      </trkpt>
      <trkpt lat="44.4501" lon="5.69564">
        <ele>708</ele>
        <time>2019-03-29T14:00:11Z</time>
      </trkpt>
      <trkpt lat="44.45015" lon="5.6956">
        <ele>708</ele>
        <time>2019-03-29T14:00:12Z</time>
      </trkpt>
      <trkpt lat="44.45019" lon="5.69558">
        <ele>708</ele>
        <time>2019-03-29T14:00:13Z</time>
      </trkpt>
      <trkpt lat="44.45023" lon="5.69555">
        <ele>708</ele>
        <time>2019-03-29T14:00:14Z</time>
      </trkpt>
      <trkpt lat="44.45028" lon="5.69551">
        <ele>708</ele>
        <time>2019-03-29T14:00:15Z</time>
      </trkpt>
      <trkpt lat="44.45032" lon="5.69548">
        <ele>708</ele>
        <time>2019-03-29T14:00:16Z</time>
      </trkpt>
      <trkpt lat="44.45036" lon="5.69545">
        <ele>709</ele>
        <time>2019-03-29T14:00:17Z</time>
      </trkpt>
      <trkpt lat="44.45041" lon="5.69542">
        <ele>709</ele>
        <time>2019-03-29T14:00:18Z</time>
      </trkpt>
      <trkpt lat="44.45046" lon="5.69539">
        <ele>709</ele>
        <time>2019-03-29T14:00:19Z</time>
      </trkpt>
      <trkpt lat="44.4505" lon="5.69536">
        <ele>709</ele>
        <time>2019-03-29T14:00:20Z</time>
      </trkpt>
      <trkpt lat="44.45054" lon="5.69534">
        <ele>709</ele>
        <time>2019-03-29T14:00:21Z</time>
      </trkpt>
      <trkpt lat="44.45058" lon="5.6953">
        <ele>709</ele>
        <time>2019-03-29T14:00:22Z</time>
      </trkpt>
      <trkpt lat="44.45063" lon="5.69527">
        <ele>709</ele>
        <time>2019-03-29T14:00:23Z</time>
      </trkpt>
      <trkpt lat="44.45067" lon="5.69524">
        <ele>709</ele>
        <time>2019-03-29T14:00:24Z</time>
      </trkpt>
      <trkpt lat="44.45072" lon="5.6952">
        <ele>709</ele>
        <time>2019-03-29T14:00:25Z</time>
      </trkpt>
      <trkpt lat="44.45076" lon="5.69517">
        <ele>709</ele>
        <time>2019-03-29T14:00:26Z</time>
      </trkpt>
      <trkpt lat="44.4508" lon="5.69513">
        <ele>709</ele>
        <time>2019-03-29T14:00:27Z</time>
      </trkpt>
      <trkpt lat="44.45084" lon="5.69509">
        <ele>709</ele>
        <time>2019-03-29T14:00:28Z</time>
      </trkpt>
      <trkpt lat="44.45088" lon="5.69505">
        <ele>710</ele>
        <time>2019-03-29T14:00:29Z</time>
      </trkpt>
      <trkpt lat="44.45092" lon="5.69501">
        <ele>710</ele>
        <time>2019-03-29T14:00:30Z</time>
      </trkpt>
      <trkpt lat="44.45095" lon="5.69496">
        <ele>710</ele>
        <time>2019-03-29T14:00:31Z</time>
      </trkpt>
      <trkpt lat="44.45099" lon="5.69492">
        <ele>710</ele>
        <time>2019-03-29T14:00:32Z</time>
      </trkpt>
      <trkpt lat="44.45102" lon="5.69488">
        <ele>710</ele>
        <time>2019-03-29T14:00:33Z</time>
      </trkpt>
      <trkpt lat="44.45106" lon="5.69483">
        <ele>710</ele>
        <time>2019-03-29T14:00:34Z</time>
      </trkpt>
      <trkpt lat="44.45109" lon="5.69479">
        <ele>711</ele>
        <time>2019-03-29T14:00:35Z</time>
      </trkpt>
      <trkpt lat="44.45113" lon="5.69474">
        <ele>711</ele>
        <time>2019-03-29T14:00:36Z</time>
      </trkpt>
      <trkpt lat="44.45117" lon="5.6947">
        <ele>711</ele>
        <time>2019-03-29T14:00:37Z</time>
      </trkpt>
      <trkpt lat="44.45121" lon="5.69466">
        <ele>711</ele>
        <time>2019-03-29T14:00:38Z</time>
      </trkpt>
      <trkpt lat="44.45125" lon="5.69463">
        <ele>711</ele>
        <time>2019-03-29T14:00:39Z</time>
      </trkpt>
      <trkpt lat="44.45129" lon="5.69459">
        <ele>711</ele>
        <time>2019-03-29T14:00:40Z</time>
      </trkpt>
      <trkpt lat="44.45133" lon="5.69456">
        <ele>712</ele>
        <time>2019-03-29T14:00:41Z</time>
      </trkpt>
      <trkpt lat="44.45137" lon="5.69453">
        <ele>712</ele>
        <time>2019-03-29T14:00:42Z</time>
      </trkpt>
      <trkpt lat="44.45142" lon="5.6945">
        <ele>712</ele>
        <time>2019-03-29T14:00:43Z</time>
      </trkpt>
      <trkpt lat="44.45146" lon="5.69447">
        <ele>712</ele>
        <time>2019-03-29T14:00:44Z</time>
      </trkpt>
      <trkpt lat="44.45151" lon="5.69444">
        <ele>713</ele>
        <time>2019-03-29T14:00:45Z</time>
      </trkpt>
      <trkpt lat="44.45156" lon="5.69442">
        <ele>713</ele>
        <time>2019-03-29T14:00:46Z</time>
      </trkpt>
      <trkpt lat="44.45161" lon="5.69439">
        <ele>713</ele>
        <time>2019-03-29T14:00:47Z</time>
      </trkpt>
      <trkpt lat="44.45167" lon="5.69437">
        <ele>713</ele>
        <time>2019-03-29T14:00:48Z</time>
      </trkpt>
      <trkpt lat="44.45172" lon="5.69434">
        <ele>713</ele>
        <time>2019-03-29T14:00:49Z</time>
      </trkpt>
      <trkpt lat="44.45178" lon="5.69432">
        <ele>713</ele>
        <time>2019-03-29T14:00:50Z</time>
      </trkpt>
      <trkpt lat="44.45184" lon="5.6943">
        <ele>713</ele>
        <time>2019-03-29T14:00:51Z</time>
      </trkpt>
      <trkpt lat="44.45189" lon="5.69427">
        <ele>713</ele>
        <time>2019-03-29T14:00:52Z</time>
      </trkpt>
      <trkpt lat="44.45193" lon="5.69425">
        <ele>713</ele>
        <time>2019-03-29T14:00:53Z</time>
      </trkpt>
      <trkpt lat="44.45198" lon="5.69422">
        <ele>713</ele>
        <time>2019-03-29T14:00:54Z</time>
      </trkpt>
      <trkpt lat="44.45203" lon="5.69419">
        <ele>713</ele>
        <time>2019-03-29T14:00:55Z</time>
      </trkpt>
      <trkpt lat="44.45208" lon="5.69417">
        <ele>713</ele>
        <time>2019-03-29T14:00:56Z</time>
      </trkpt>
      <trkpt lat="44.45212" lon="5.69415">
        <ele>713</ele>
        <time>2019-03-29T14:00:57Z</time>
      </trkpt>
      <trkpt lat="44.45217" lon="5.69413">
        <ele>713</ele>
        <time>2019-03-29T14:00:58Z</time>
      </trkpt>
      <trkpt lat="44.45222" lon="5.6941">
        <ele>713</ele>
        <time>2019-03-29T14:00:59Z</time>
      </trkpt>
      <trkpt lat="44.45226" lon="5.69408">
        <ele>713</ele>
        <time>2019-03-29T14:01:00Z</time>
      </trkpt>
      <trkpt lat="44.4523" lon="5.69406">
        <ele>713</ele>
        <time>2019-03-29T14:01:01Z</time>
      </trkpt>
      <trkpt lat="44.45235" lon="5.69403">
        <ele>713</ele>
        <time>2019-03-29T14:01:02Z</time>
      </trkpt>
      <trkpt lat="44.45239" lon="5.694">
        <ele>713</ele>
        <time>2019-03-29T14:01:03Z</time>
      </trkpt>
      <trkpt lat="44.45243" lon="5.69397">
        <ele>713</ele>
        <time>2019-03-29T14:01:04Z</time>
      </trkpt>
      <trkpt lat="44.45247" lon="5.69393">
        <ele>714</ele>
        <time>2019-03-29T14:01:05Z</time>
      </trkpt>
      <trkpt lat="44.45252" lon="5.6939">
        <ele>714</ele>
        <time>2019-03-29T14:01:06Z</time>
      </trkpt>
      <trkpt lat="44.45256" lon="5.69386">
        <ele>714</ele>
        <time>2019-03-29T14:01:07Z</time>
      </trkpt>
      <trkpt lat="44.4526" lon="5.69382">
        <ele>714</ele>
        <time>2019-03-29T14:01:08Z</time>
      </trkpt>
      <trkpt lat="44.45264" lon="5.69377">
        <ele>714</ele>
        <time>2019-03-29T14:01:09Z</time>
      </trkpt>
      <trkpt lat="44.45268" lon="5.69372">
        <ele>715</ele>
        <time>2019-03-29T14:01:10Z</time>
      </trkpt>
      <trkpt lat="44.45272" lon="5.69367">
        <ele>715</ele>
        <time>2019-03-29T14:01:11Z</time>
      </trkpt>
      <trkpt lat="44.45275" lon="5.69361">
        <ele>715</ele>
        <time>2019-03-29T14:01:12Z</time>
      </trkpt>
      <trkpt lat="44.45279" lon="5.69356">
        <ele>715</ele>
        <time>2019-03-29T14:01:13Z</time>
      </trkpt>
      <trkpt lat="44.45283" lon="5.6935">
        <ele>715</ele>
        <time>2019-03-29T14:01:14Z</time>
      </trkpt>
      <trkpt lat="44.45286" lon="5.69345">
        <ele>715</ele>
        <time>2019-03-29T14:01:15Z</time>
      </trkpt>
      <trkpt lat="44.4529" lon="5.6934">
        <ele>716</ele>
        <time>2019-03-29T14:01:16Z</time>
      </trkpt>
      <trkpt lat="44.45295" lon="5.69335">
        <ele>716</ele>
        <time>2019-03-29T14:01:17Z</time>
      </trkpt>
      <trkpt lat="44.453" lon="5.69331">
        <ele>716</ele>
        <time>2019-03-29T14:01:18Z</time>
      </trkpt>
      <trkpt lat="44.45305" lon="5.69327">
        <ele>716</ele>
        <time>2019-03-29T14:01:19Z</time>
      </trkpt>
      <trkpt lat="44.4531" lon="5.69324">
        <ele>716</ele>
        <time>2019-03-29T14:01:20Z</time>
      </trkpt>
      <trkpt lat="44.45316" lon="5.69322">
        <ele>716</ele>
        <time>2019-03-29T14:01:21Z</time>
      </trkpt>
      <trkpt lat="44.4532" lon="5.69321">
        <ele>716</ele>
        <time>2019-03-29T14:01:22Z</time>
      </trkpt>
      <trkpt lat="44.45325" lon="5.69319">
        <ele>716</ele>
        <time>2019-03-29T14:01:23Z</time>
      </trkpt>
      <trkpt lat="44.45329" lon="5.69319">
        <ele>716</ele>
        <time>2019-03-29T14:01:24Z</time>
      </trkpt>
      <trkpt lat="44.45335" lon="5.69318">
        <ele>716</ele>
        <time>2019-03-29T14:01:25Z</time>
      </trkpt>
      <trkpt lat="44.4534" lon="5.69318">
        <ele>716</ele>
        <time>2019-03-29T14:01:26Z</time>
      </trkpt>
      <trkpt lat="44.45345" lon="5.69319">
        <ele>716</ele>
        <time>2019-03-29T14:01:27Z</time>
      </trkpt>
      <trkpt lat="44.45351" lon="5.69319">
        <ele>716</ele>
        <time>2019-03-29T14:01:28Z</time>
      </trkpt>
      <trkpt lat="44.45356" lon="5.6932">
        <ele>716</ele>
        <time>2019-03-29T14:01:29Z</time>
      </trkpt>
      <trkpt lat="44.45361" lon="5.69321">
        <ele>716</ele>
        <time>2019-03-29T14:01:30Z</time>
      </trkpt>
      <trkpt lat="44.45366" lon="5.69322">
        <ele>716</ele>
        <time>2019-03-29T14:01:31Z</time>
      </trkpt>
      <trkpt lat="44.4537" lon="5.69323">
        <ele>716</ele>
        <time>2019-03-29T14:01:32Z</time>
      </trkpt>
      <trkpt lat="44.45375" lon="5.69323">
        <ele>716</ele>
        <time>2019-03-29T14:01:33Z</time>
      </trkpt>
      <trkpt lat="44.4538" lon="5.69324">
        <ele>716</ele>
        <time>2019-03-29T14:01:34Z</time>
      </trkpt>
      <trkpt lat="44.45384" lon="5.69324">
        <ele>716</ele>
        <time>2019-03-29T14:01:35Z</time>
      </trkpt>
      <trkpt lat="44.45389" lon="5.69325">
        <ele>716</ele>
        <time>2019-03-29T14:01:36Z</time>
      </trkpt>
      <trkpt lat="44.45393" lon="5.69326">
        <ele>716</ele>
        <time>2019-03-29T14:01:37Z</time>
      </trkpt>
      <trkpt lat="44.45398" lon="5.69327">
        <ele>716</ele>
        <time>2019-03-29T14:01:38Z</time>
      </trkpt>
      <trkpt lat="44.45403" lon="5.69328">
        <ele>716</ele>
        <time>2019-03-29T14:01:39Z</time>
      </trkpt>
      <trkpt lat="44.45408" lon="5.69328">
        <ele>716</ele>
        <time>2019-03-29T14:01:40Z</time>
      </trkpt>
      <trkpt lat="44.45413" lon="5.69329">
        <ele>716</ele>
        <time>2019-03-29T14:01:41Z</time>
      </trkpt>
      <trkpt lat="44.45417" lon="5.6933">
        <ele>716</ele>
        <time>2019-03-29T14:01:42Z</time>
      </trkpt>
      <trkpt lat="44.45422" lon="5.69331">
        <ele>716</ele>
        <time>2019-03-29T14:01:43Z</time>
      </trkpt>
      <trkpt lat="44.45426" lon="5.69331">
        <ele>716</ele>
        <time>2019-03-29T14:01:44Z</time>
      </trkpt>
      <trkpt lat="44.4543" lon="5.69332">
        <ele>716</ele>
        <time>2019-03-29T14:01:45Z</time>
      </trkpt>
      <trkpt lat="44.45434" lon="5.69332">
        <ele>716</ele>
        <time>2019-03-29T14:01:46Z</time>
      </trkpt>
      <trkpt lat="44.45438" lon="5.69333">
        <ele>716</ele>
        <time>2019-03-29T14:01:47Z</time>
      </trkpt>
      <trkpt lat="44.45443" lon="5.69334">
        <ele>716</ele>
        <time>2019-03-29T14:01:48Z</time>
      </trkpt>
      <trkpt lat="44.45447" lon="5.69335">
        <ele>716</ele>
        <time>2019-03-29T14:01:49Z</time>
      </trkpt>
      <trkpt lat="44.45451" lon="5.69335">
        <ele>716</ele>
        <time>2019-03-29T14:01:50Z</time>
      </trkpt>
      <trkpt lat="44.45456" lon="5.69336">
        <ele>716</ele>
        <time>2019-03-29T14:01:51Z</time>
      </trkpt>
      <trkpt lat="44.45461" lon="5.69336">
        <ele>716</ele>
        <time>2019-03-29T14:01:52Z</time>
      </trkpt>
      <trkpt lat="44.45466" lon="5.69337">
        <ele>716</ele>
        <time>2019-03-29T14:01:53Z</time>
      </trkpt>
      <trkpt lat="44.4547" lon="5.69338">
        <ele>716</ele>
        <time>2019-03-29T14:01:54Z</time>
      </trkpt>
      <trkpt lat="44.45476" lon="5.69338">
        <ele>716</ele>
        <time>2019-03-29T14:01:55Z</time>
      </trkpt>
      <trkpt lat="44.45481" lon="5.69338">
        <ele>716</ele>
        <time>2019-03-29T14:01:56Z</time>
      </trkpt>
      <trkpt lat="44.45487" lon="5.69338">
        <ele>716</ele>
        <time>2019-03-29T14:01:57Z</time>
      </trkpt>
      <trkpt lat="44.45493" lon="5.69337">
        <ele>716</ele>
        <time>2019-03-29T14:01:58Z</time>
      </trkpt>
      <trkpt lat="44.45498" lon="5.69337">
        <ele>716</ele>
        <time>2019-03-29T14:01:59Z</time>
      </trkpt>
      <trkpt lat="44.45503" lon="5.69336">
        <ele>717</ele>
        <time>2019-03-29T14:02:00Z</time>
      </trkpt>
      <trkpt lat="44.45508" lon="5.69336">
        <ele>718</ele>
        <time>2019-03-29T14:02:01Z</time>
      </trkpt>
      <trkpt lat="44.45513" lon="5.69336">
        <ele>719</ele>
        <time>2019-03-29T14:02:02Z</time>
      </trkpt>
      <trkpt lat="44.45519" lon="5.69337">
        <ele>720</ele>
        <time>2019-03-29T14:02:03Z</time>
      </trkpt>
      <trkpt lat="44.45526" lon="5.69339">
        <ele>721</ele>
        <time>2019-03-29T14:02:04Z</time>
      </trkpt>
      <trkpt lat="44.45532" lon="5.69343">
        <ele>722</ele>
        <time>2019-03-29T14:02:05Z</time>
      </trkpt>
      <trkpt lat="44.45539" lon="5.69347">
        <ele>723</ele>
        <time>2019-03-29T14:02:06Z</time>
      </trkpt>
      <trkpt lat="44.45546" lon="5.69352">
        <ele>724</ele>
        <time>2019-03-29T14:02:07Z</time>
      </trkpt>
      <trkpt lat="44.45553" lon="5.69356">
        <ele>725</ele>
        <time>2019-03-29T14:02:08Z</time>
      </trkpt>
      <trkpt lat="44.4556" lon="5.6936">
        <ele>726</ele>
        <time>2019-03-29T14:02:09Z</time>
      </trkpt>
      <trkpt lat="44.45566" lon="5.69364">
        <ele>727</ele>
        <time>2019-03-29T14:02:10Z</time>
      </trkpt>
      <trkpt lat="44.45572" lon="5.69363">
        <ele>728</ele>
        <time>2019-03-29T14:02:11Z</time>
      </trkpt>
      <trkpt lat="44.45575" lon="5.69358">
        <ele>729</ele>
        <time>2019-03-29T14:02:12Z</time>
      </trkpt>
      <trkpt lat="44.45579" lon="5.69357">
        <ele>730</ele>
        <time>2019-03-29T14:02:13Z</time>
      </trkpt>
      <trkpt lat="44.45585" lon="5.69358">
        <ele>731</ele>
        <time>2019-03-29T14:02:14Z</time>
      </trkpt>
      <trkpt lat="44.45596" lon="5.69357">
        <ele>732</ele>
        <time>2019-03-29T14:02:16Z</time>
      </trkpt>
      <trkpt lat="44.45601" lon="5.69356">
        <ele>734</ele>
        <time>2019-03-29T14:02:17Z</time>
      </trkpt>
      <trkpt lat="44.45605" lon="5.69357">
        <ele>736</ele>
        <time>2019-03-29T14:02:18Z</time>
      </trkpt>
      <trkpt lat="44.45609" lon="5.6936">
        <ele>738</ele>
        <time>2019-03-29T14:02:19Z</time>
      </trkpt>
      <trkpt lat="44.45612" lon="5.69361">
        <ele>740</ele>
        <time>2019-03-29T14:02:20Z</time>
      </trkpt>
      <trkpt lat="44.45615" lon="5.69362">
        <ele>741</ele>
        <time>2019-03-29T14:02:21Z</time>
      </trkpt>
      <trkpt lat="44.45618" lon="5.69362">
        <ele>742</ele>
        <time>2019-03-29T14:02:22Z</time>
      </trkpt>
      <trkpt lat="44.45621" lon="5.69363">
        <ele>743</ele>
        <time>2019-03-29T14:02:23Z</time>
      </trkpt>
      <trkpt lat="44.45624" lon="5.69364">
        <ele>744</ele>
        <time>2019-03-29T14:02:24Z</time>
      </trkpt>
      <trkpt lat="44.45626" lon="5.69364">
        <ele>745</ele>
        <time>2019-03-29T14:02:25Z</time>
      </trkpt>
      <trkpt lat="44.45629" lon="5.69365">
        <ele>745</ele>
        <time>2019-03-29T14:02:26Z</time>
      </trkpt>
      <trkpt lat="44.45631" lon="5.69367">
        <ele>745</ele>
        <time>2019-03-29T14:02:27Z</time>
      </trkpt>
      <trkpt lat="44.45633" lon="5.69369">
        <ele>745</ele>
        <time>2019-03-29T14:02:28Z</time>
      </trkpt>
      <trkpt lat="44.45635" lon="5.69372">
        <ele>745</ele>
        <time>2019-03-29T14:02:29Z</time>
      </trkpt>
      <trkpt lat="44.45637" lon="5.69374">
        <ele>745</ele>
        <time>2019-03-29T14:02:30Z</time>
      </trkpt>
      <trkpt lat="44.4564" lon="5.69376">
        <ele>745</ele>
        <time>2019-03-29T14:02:31Z</time>
      </trkpt>
      <trkpt lat="44.45641" lon="5.69376">
        <ele>745</ele>
        <time>2019-03-29T14:02:32Z</time>
      </trkpt>
      <trkpt lat="44.45643" lon="5.69377">
        <ele>744</ele>
        <time>2019-03-29T14:02:33Z</time>
      </trkpt>
      <trkpt lat="44.45646" lon="5.69378">
        <ele>743</ele>
        <time>2019-03-29T14:02:34Z</time>
      </trkpt>
      <trkpt lat="44.45649" lon="5.69379">
        <ele>742</ele>
        <time>2019-03-29T14:02:35Z</time>
      </trkpt>
      <trkpt lat="44.45652" lon="5.69379">
        <ele>741</ele>
        <time>2019-03-29T14:02:36Z</time>
      </trkpt>
      <trkpt lat="44.45655" lon="5.69379">
        <ele>740</ele>
        <time>2019-03-29T14:02:37Z</time>
      </trkpt>
      <trkpt lat="44.45658" lon="5.69379">
        <ele>739</ele>
        <time>2019-03-29T14:02:38Z</time>
      </trkpt>
      <trkpt lat="44.45661" lon="5.69379">
        <ele>738</ele>
        <time>2019-03-29T14:02:39Z</time>
      </trkpt>
      <trkpt lat="44.45664" lon="5.69379">
        <ele>738</ele>
        <time>2019-03-29T14:02:40Z</time>
      </trkpt>
      <trkpt lat="44.45667" lon="5.69379">
        <ele>737</ele>
        <time>2019-03-29T14:02:41Z</time>
      </trkpt>
      <trkpt lat="44.4567" lon="5.69379">
        <ele>737</ele>
        <time>2019-03-29T14:02:42Z</time>
      </trkpt>
      <trkpt lat="44.45673" lon="5.69379">
        <ele>737</ele>
        <time>2019-03-29T14:02:43Z</time>
      </trkpt>
      <trkpt lat="44.45677" lon="5.6938">
        <ele>737</ele>
        <time>2019-03-29T14:02:44Z</time>
      </trkpt>
      <trkpt lat="44.4568" lon="5.6938">
        <ele>737</ele>
        <time>2019-03-29T14:02:45Z</time>
      </trkpt>
      <trkpt lat="44.45683" lon="5.69381">
        <ele>737</ele>
        <time>2019-03-29T14:02:46Z</time>
      </trkpt>
      <trkpt lat="44.45686" lon="5.69382">
        <ele>737</ele>
        <time>2019-03-29T14:02:47Z</time>
      </trkpt>
      <trkpt lat="44.45689" lon="5.69384">
        <ele>737</ele>
        <time>2019-03-29T14:02:48Z</time>
      </trkpt>
      <trkpt lat="44.45692" lon="5.69386">
        <ele>737</ele>
        <time>2019-03-29T14:02:49Z</time>
      </trkpt>
      <trkpt lat="44.45694" lon="5.69388">
        <ele>737</ele>
        <time>2019-03-29T14:02:50Z</time>
      </trkpt>
      <trkpt lat="44.45697" lon="5.69391">
        <ele>737</ele>
        <time>2019-03-29T14:02:51Z</time>
      </trkpt>
      <trkpt lat="44.45699" lon="5.69395">
        <ele>737</ele>
        <time>2019-03-29T14:02:52Z</time>
      </trkpt>
      <trkpt lat="44.45701" lon="5.69399">
        <ele>737</ele>
        <time>2019-03-29T14:02:53Z</time>
      </trkpt>
      <trkpt lat="44.45703" lon="5.69403">
        <ele>737</ele>
        <time>2019-03-29T14:02:54Z</time>
      </trkpt>
      <trkpt lat="44.45704" lon="5.69407">
        <ele>737</ele>
        <time>2019-03-29T14:02:55Z</time>
      </trkpt>
      <trkpt lat="44.45705" lon="5.69411">
        <ele>737</ele>
        <time>2019-03-29T14:02:56Z</time>
      </trkpt>
      <trkpt lat="44.45707" lon="5.69415">
        <ele>737</ele>
        <time>2019-03-29T14:02:57Z</time>
      </trkpt>
      <trkpt lat="44.45708" lon="5.69419">
        <ele>737</ele>
        <time>2019-03-29T14:02:58Z</time>
      </trkpt>
      <trkpt lat="44.4571" lon="5.69423">
        <ele>737</ele>
        <time>2019-03-29T14:02:59Z</time>
      </trkpt>
      <trkpt lat="44.45711" lon="5.69427">
        <ele>737</ele>
        <time>2019-03-29T14:03:00Z</time>
      </trkpt>
      <trkpt lat="44.45713" lon="5.6943">
        <ele>737</ele>
        <time>2019-03-29T14:03:01Z</time>
      </trkpt>
      <trkpt lat="44.45715" lon="5.69433">
        <ele>737</ele>
        <time>2019-03-29T14:03:02Z</time>
      </trkpt>
      <trkpt lat="44.45717" lon="5.69437">
        <ele>737</ele>
        <time>2019-03-29T14:03:03Z</time>
      </trkpt>
      <trkpt lat="44.4572" lon="5.69441">
        <ele>737</ele>
        <time>2019-03-29T14:03:04Z</time>
      </trkpt>
      <trkpt lat="44.45722" lon="5.69445">
        <ele>737</ele>
        <time>2019-03-29T14:03:05Z</time>
      </trkpt>
      <trkpt lat="44.45725" lon="5.69448">
        <ele>737</ele>
        <time>2019-03-29T14:03:06Z</time>
      </trkpt>
      <trkpt lat="44.45728" lon="5.6945">
        <ele>737</ele>
        <time>2019-03-29T14:03:07Z</time>
      </trkpt>
      <trkpt lat="44.45731" lon="5.69452">
        <ele>737</ele>
        <time>2019-03-29T14:03:08Z</time>
      </trkpt>
      <trkpt lat="44.45734" lon="5.69454">
        <ele>737</ele>
        <time>2019-03-29T14:03:09Z</time>
      </trkpt>
      <trkpt lat="44.45738" lon="5.69455">
        <ele>737</ele>
        <time>2019-03-29T14:03:10Z</time>
      </trkpt>
      <trkpt lat="44.45742" lon="5.69456">
        <ele>737</ele>
        <time>2019-03-29T14:03:11Z</time>
      </trkpt>
      <trkpt lat="44.45746" lon="5.69456">
        <ele>737</ele>
        <time>2019-03-29T14:03:12Z</time>
      </trkpt>
      <trkpt lat="44.4575" lon="5.69456">
        <ele>737</ele>
        <time>2019-03-29T14:03:13Z</time>
      </trkpt>
      <trkpt lat="44.45754" lon="5.69454">
        <ele>737</ele>
        <time>2019-03-29T14:03:14Z</time>
      </trkpt>
      <trkpt lat="44.45758" lon="5.69451">
        <ele>737</ele>
        <time>2019-03-29T14:03:15Z</time>
      </trkpt>
      <trkpt lat="44.45761" lon="5.69448">
        <ele>737</ele>
        <time>2019-03-29T14:03:16Z</time>
      </trkpt>
      <trkpt lat="44.45765" lon="5.69445">
        <ele>737</ele>
        <time>2019-03-29T14:03:17Z</time>
      </trkpt>
      <trkpt lat="44.45768" lon="5.69441">
        <ele>737</ele>
        <time>2019-03-29T14:03:18Z</time>
      </trkpt>
      <trkpt lat="44.45771" lon="5.69437">
        <ele>737</ele>
        <time>2019-03-29T14:03:19Z</time>
      </trkpt>
      <trkpt lat="44.45773" lon="5.69432">
        <ele>737</ele>
        <time>2019-03-29T14:03:20Z</time>
      </trkpt>
      <trkpt lat="44.45776" lon="5.69427">
        <ele>737</ele>
        <time>2019-03-29T14:03:21Z</time>
      </trkpt>
      <trkpt lat="44.45778" lon="5.69422">
        <ele>737</ele>
        <time>2019-03-29T14:03:22Z</time>
      </trkpt>
      <trkpt lat="44.45781" lon="5.69418">
        <ele>737</ele>
        <time>2019-03-29T14:03:23Z</time>
      </trkpt>
      <trkpt lat="44.45783" lon="5.69414">
        <ele>737</ele>
        <time>2019-03-29T14:03:24Z</time>
      </trkpt>
      <trkpt lat="44.45785" lon="5.69409">
        <ele>737</ele>
        <time>2019-03-29T14:03:25Z</time>
      </trkpt>
      <trkpt lat="44.45788" lon="5.69405">
        <ele>737</ele>
        <time>2019-03-29T14:03:26Z</time>
      </trkpt>
      <trkpt lat="44.45791" lon="5.69401">
        <ele>737</ele>
        <time>2019-03-29T14:03:27Z</time>
      </trkpt>
      <trkpt lat="44.45794" lon="5.69398">
        <ele>737</ele>
        <time>2019-03-29T14:03:28Z</time>
      </trkpt>
      <trkpt lat="44.45797" lon="5.69395">
        <ele>737</ele>
        <time>2019-03-29T14:03:29Z</time>
      </trkpt>
      <trkpt lat="44.458" lon="5.69394">
        <ele>737</ele>
        <time>2019-03-29T14:03:30Z</time>
      </trkpt>
      <trkpt lat="44.45804" lon="5.69393">
        <ele>737</ele>
        <time>2019-03-29T14:03:31Z</time>
      </trkpt>
      <trkpt lat="44.45808" lon="5.69393">
        <ele>737</ele>
        <time>2019-03-29T14:03:32Z</time>
      </trkpt>
      <trkpt lat="44.45812" lon="5.69393">
        <ele>737</ele>
        <time>2019-03-29T14:03:33Z</time>
      </trkpt>
      <trkpt lat="44.45816" lon="5.69394">
        <ele>737</ele>
        <time>2019-03-29T14:03:34Z</time>
      </trkpt>
      <trkpt lat="44.4582" lon="5.69395">
        <ele>737</ele>
        <time>2019-03-29T14:03:35Z</time>
      </trkpt>
      <trkpt lat="44.45824" lon="5.69397">
        <ele>737</ele>
        <time>2019-03-29T14:03:36Z</time>
      </trkpt>
      <trkpt lat="44.45828" lon="5.69399">
        <ele>737</ele>
        <time>2019-03-29T14:03:37Z</time>
      </trkpt>
      <trkpt lat="44.45833" lon="5.69401">
        <ele>737</ele>
        <time>2019-03-29T14:03:38Z</time>
      </trkpt>
      <trkpt lat="44.45837" lon="5.69404">
        <ele>737</ele>
        <time>2019-03-29T14:03:39Z</time>
      </trkpt>
      <trkpt lat="44.45841" lon="5.69406">
        <ele>737</ele>
        <time>2019-03-29T14:03:40Z</time>
      </trkpt>
      <trkpt lat="44.45845" lon="5.69409">
        <ele>737</ele>
        <time>2019-03-29T14:03:41Z</time>
      </trkpt>
      <trkpt lat="44.4585" lon="5.69411">
        <ele>737</ele>
        <time>2019-03-29T14:03:42Z</time>
      </trkpt>
      <trkpt lat="44.45854" lon="5.69413">
        <ele>737</ele>
        <time>2019-03-29T14:03:43Z</time>
      </trkpt>
      <trkpt lat="44.45858" lon="5.69414">
        <ele>737</ele>
        <time>2019-03-29T14:03:44Z</time>
      </trkpt>
      <trkpt lat="44.45863" lon="5.69416">
        <ele>737</ele>
        <time>2019-03-29T14:03:45Z</time>
      </trkpt>
      <trkpt lat="44.45867" lon="5.69417">
        <ele>737</ele>
        <time>2019-03-29T14:03:46Z</time>
      </trkpt>
      <trkpt lat="44.45872" lon="5.69418">
        <ele>737</ele>
        <time>2019-03-29T14:03:47Z</time>
      </trkpt>
      <trkpt lat="44.45876" lon="5.69419">
        <ele>737</ele>
        <time>2019-03-29T14:03:48Z</time>
      </trkpt>
      <trkpt lat="44.45881" lon="5.6942">
        <ele>737</ele>
        <time>2019-03-29T14:03:49Z</time>
      </trkpt>
      <trkpt lat="44.45885" lon="5.6942">
        <ele>737</ele>
        <time>2019-03-29T14:03:50Z</time>
      </trkpt>
      <trkpt lat="44.4589" lon="5.69421">
        <ele>737</ele>
        <time>2019-03-29T14:03:51Z</time>
      </trkpt>
      <trkpt lat="44.45894" lon="5.69422">
        <ele>737</ele>
        <time>2019-03-29T14:03:52Z</time>
      </trkpt>
      <trkpt lat="44.45898" lon="5.69422">
        <ele>737</ele>
        <time>2019-03-29T14:03:53Z</time>
      </trkpt>
      <trkpt lat="44.45903" lon="5.69423">
        <ele>737</ele>
        <time>2019-03-29T14:03:54Z</time>
      </trkpt>
      <trkpt lat="44.45907" lon="5.69423">
        <ele>737</ele>
        <time>2019-03-29T14:03:55Z</time>
      </trkpt>
      <trkpt lat="44.45912" lon="5.69424">
        <ele>737</ele>
        <time>2019-03-29T14:03:56Z</time>
      </trkpt>
      <trkpt lat="44.45916" lon="5.69424">
        <ele>737</ele>
        <time>2019-03-29T14:03:57Z</time>
      </trkpt>
      <trkpt lat="44.45921" lon="5.69423">
        <ele>737</ele>
        <time>2019-03-29T14:03:58Z</time>
      </trkpt>
      <trkpt lat="44.45926" lon="5.69423">
        <ele>737</ele>
        <time>2019-03-29T14:03:59Z</time>
      </trkpt>
      <trkpt lat="44.4593" lon="5.69422">
        <ele>737</ele>
        <time>2019-03-29T14:04:00Z</time>
      </trkpt>
      <trkpt lat="44.45935" lon="5.6942">
        <ele>738</ele>
        <time>2019-03-29T14:04:01Z</time>
      </trkpt>
      <trkpt lat="44.45939" lon="5.69419">
        <ele>738</ele>
        <time>2019-03-29T14:04:02Z</time>
      </trkpt>
      <trkpt lat="44.45943" lon="5.69418">
        <ele>738</ele>
        <time>2019-03-29T14:04:03Z</time>
      </trkpt>
      <trkpt lat="44.45948" lon="5.69417">
        <ele>738</ele>
        <time>2019-03-29T14:04:04Z</time>
      </trkpt>
      <trkpt lat="44.45952" lon="5.69416">
        <ele>739</ele>
        <time>2019-03-29T14:04:05Z</time>
      </trkpt>
      <trkpt lat="44.45956" lon="5.69416">
        <ele>739</ele>
        <time>2019-03-29T14:04:06Z</time>
      </trkpt>
      <trkpt lat="44.4596" lon="5.69417">
        <ele>739</ele>
        <time>2019-03-29T14:04:07Z</time>
      </trkpt>
      <trkpt lat="44.45964" lon="5.6942">
        <ele>739</ele>
        <time>2019-03-29T14:04:08Z</time>
      </trkpt>
      <trkpt lat="44.45967" lon="5.69423">
        <ele>739</ele>
        <time>2019-03-29T14:04:09Z</time>
      </trkpt>
      <trkpt lat="44.4597" lon="5.69428">
        <ele>739</ele>
        <time>2019-03-29T14:04:10Z</time>
      </trkpt>
      <trkpt lat="44.45972" lon="5.69432">
        <ele>739</ele>
        <time>2019-03-29T14:04:11Z</time>
      </trkpt>
      <trkpt lat="44.45975" lon="5.69437">
        <ele>739</ele>
        <time>2019-03-29T14:04:12Z</time>
      </trkpt>
      <trkpt lat="44.45977" lon="5.69442">
        <ele>739</ele>
        <time>2019-03-29T14:04:13Z</time>
      </trkpt>
      <trkpt lat="44.4598" lon="5.69447">
        <ele>740</ele>
        <time>2019-03-29T14:04:14Z</time>
      </trkpt>
      <trkpt lat="44.45982" lon="5.69452">
        <ele>740</ele>
        <time>2019-03-29T14:04:15Z</time>
      </trkpt>
      <trkpt lat="44.45985" lon="5.69457">
        <ele>740</ele>
        <time>2019-03-29T14:04:16Z</time>
      </trkpt>
      <trkpt lat="44.45988" lon="5.69462">
        <ele>740</ele>
        <time>2019-03-29T14:04:17Z</time>
      </trkpt>
      <trkpt lat="44.45991" lon="5.69466">
        <ele>740</ele>
        <time>2019-03-29T14:04:18Z</time>
      </trkpt>
      <trkpt lat="44.45995" lon="5.6947">
        <ele>740</ele>
        <time>2019-03-29T14:04:19Z</time>
      </trkpt>
      <trkpt lat="44.45998" lon="5.69474">
        <ele>740</ele>
        <time>2019-03-29T14:04:20Z</time>
      </trkpt>
      <trkpt lat="44.46003" lon="5.69477">
        <ele>741</ele>
        <time>2019-03-29T14:04:21Z</time>
      </trkpt>
      <trkpt lat="44.46006" lon="5.6948">
        <ele>741</ele>
        <time>2019-03-29T14:04:22Z</time>
      </trkpt>
      <trkpt lat="44.46011" lon="5.69483">
        <ele>741</ele>
        <time>2019-03-29T14:04:23Z</time>
      </trkpt>
      <trkpt lat="44.46015" lon="5.69486">
        <ele>741</ele>
        <time>2019-03-29T14:04:24Z</time>
      </trkpt>
      <trkpt lat="44.46019" lon="5.69489">
        <ele>741</ele>
        <time>2019-03-29T14:04:25Z</time>
      </trkpt>
      <trkpt lat="44.46022" lon="5.69493">
        <ele>741</ele>
        <time>2019-03-29T14:04:26Z</time>
      </trkpt>
      <trkpt lat="44.46026" lon="5.69496">
        <ele>742</ele>
        <time>2019-03-29T14:04:27Z</time>
      </trkpt>
      <trkpt lat="44.4603" lon="5.69499">
        <ele>742</ele>
        <time>2019-03-29T14:04:28Z</time>
      </trkpt>
      <trkpt lat="44.46033" lon="5.69502">
        <ele>742</ele>
        <time>2019-03-29T14:04:29Z</time>
      </trkpt>
      <trkpt lat="44.46037" lon="5.69506">
        <ele>742</ele>
        <time>2019-03-29T14:04:30Z</time>
      </trkpt>
      <trkpt lat="44.4604" lon="5.6951">
        <ele>742</ele>
        <time>2019-03-29T14:04:31Z</time>
      </trkpt>
      <trkpt lat="44.46043" lon="5.69514">
        <ele>742</ele>
        <time>2019-03-29T14:04:32Z</time>
      </trkpt>
      <trkpt lat="44.46046" lon="5.69518">
        <ele>743</ele>
        <time>2019-03-29T14:04:33Z</time>
      </trkpt>
      <trkpt lat="44.46049" lon="5.69522">
        <ele>743</ele>
        <time>2019-03-29T14:04:34Z</time>
      </trkpt>
      <trkpt lat="44.46052" lon="5.69525">
        <ele>743</ele>
        <time>2019-03-29T14:04:35Z</time>
      </trkpt>
      <trkpt lat="44.46056" lon="5.69529">
        <ele>743</ele>
        <time>2019-03-29T14:04:36Z</time>
      </trkpt>
      <trkpt lat="44.46059" lon="5.69533">
        <ele>743</ele>
        <time>2019-03-29T14:04:37Z</time>
      </trkpt>
      <trkpt lat="44.46062" lon="5.69536">
        <ele>744</ele>
        <time>2019-03-29T14:04:38Z</time>
      </trkpt>
      <trkpt lat="44.46065" lon="5.6954">
        <ele>744</ele>
        <time>2019-03-29T14:04:39Z</time>
      </trkpt>
      <trkpt lat="44.46068" lon="5.69544">
        <ele>744</ele>
        <time>2019-03-29T14:04:40Z</time>
      </trkpt>
      <trkpt lat="44.46071" lon="5.69548">
        <ele>745</ele>
        <time>2019-03-29T14:04:41Z</time>
      </trkpt>
      <trkpt lat="44.46074" lon="5.69552">
        <ele>745</ele>
        <time>2019-03-29T14:04:42Z</time>
      </trkpt>
      <trkpt lat="44.46077" lon="5.69556">
        <ele>745</ele>
        <time>2019-03-29T14:04:43Z</time>
      </trkpt>
      <trkpt lat="44.46079" lon="5.6956">
        <ele>746</ele>
        <time>2019-03-29T14:04:44Z</time>
      </trkpt>
      <trkpt lat="44.46081" lon="5.69564">
        <ele>746</ele>
        <time>2019-03-29T14:04:45Z</time>
      </trkpt>
      <trkpt lat="44.46083" lon="5.69568">
        <ele>746</ele>
        <time>2019-03-29T14:04:46Z</time>
      </trkpt>
      <trkpt lat="44.46085" lon="5.69572">
        <ele>747</ele>
        <time>2019-03-29T14:04:47Z</time>
      </trkpt>
      <trkpt lat="44.46087" lon="5.69576">
        <ele>747</ele>
        <time>2019-03-29T14:04:48Z</time>
      </trkpt>
      <trkpt lat="44.46088" lon="5.6958">
        <ele>747</ele>
        <time>2019-03-29T14:04:49Z</time>
      </trkpt>
      <trkpt lat="44.4609" lon="5.69585">
        <ele>748</ele>
        <time>2019-03-29T14:04:50Z</time>
      </trkpt>
      <trkpt lat="44.46092" lon="5.69589">
        <ele>748</ele>
        <time>2019-03-29T14:04:51Z</time>
      </trkpt>
      <trkpt lat="44.46094" lon="5.69593">
        <ele>748</ele>
        <time>2019-03-29T14:04:52Z</time>
      </trkpt>
      <trkpt lat="44.46095" lon="5.69598">
        <ele>748</ele>
        <time>2019-03-29T14:04:53Z</time>
      </trkpt>
      <trkpt lat="44.46097" lon="5.69602">
        <ele>749</ele>
        <time>2019-03-29T14:04:54Z</time>
      </trkpt>
      <trkpt lat="44.46099" lon="5.69607">
        <ele>749</ele>
        <time>2019-03-29T14:04:55Z</time>
      </trkpt>
      <trkpt lat="44.46101" lon="5.69611">
        <ele>749</ele>
        <time>2019-03-29T14:04:56Z</time>
      </trkpt>
      <trkpt lat="44.46103" lon="5.69616">
        <ele>749</ele>
        <time>2019-03-29T14:04:57Z</time>
      </trkpt>
      <trkpt lat="44.46104" lon="5.6962">
        <ele>750</ele>
        <time>2019-03-29T14:04:58Z</time>
      </trkpt>
      <trkpt lat="44.46106" lon="5.69625">
        <ele>750</ele>
        <time>2019-03-29T14:04:59Z</time>
      </trkpt>
      <trkpt lat="44.46107" lon="5.69629">
        <ele>750</ele>
        <time>2019-03-29T14:05:00Z</time>
      </trkpt>
      <trkpt lat="44.46109" lon="5.69634">
        <ele>750</ele>
        <time>2019-03-29T14:05:01Z</time>
      </trkpt>
      <trkpt lat="44.4611" lon="5.69639">
        <ele>750</ele>
        <time>2019-03-29T14:05:02Z</time>
      </trkpt>
      <trkpt lat="44.46111" lon="5.69643">
        <ele>750</ele>
        <time>2019-03-29T14:05:03Z</time>
      </trkpt>
      <trkpt lat="44.46112" lon="5.69648">
        <ele>750</ele>
        <time>2019-03-29T14:05:04Z</time>
      </trkpt>
      <trkpt lat="44.46113" lon="5.69652">
        <ele>750</ele>
        <time>2019-03-29T14:05:05Z</time>
      </trkpt>
      <trkpt lat="44.46114" lon="5.69656">
        <ele>750</ele>
        <time>2019-03-29T14:05:06Z</time>
      </trkpt>
      <trkpt lat="44.46114" lon="5.6966">
        <ele>750</ele>
        <time>2019-03-29T14:05:07Z</time>
      </trkpt>
      <trkpt lat="44.46115" lon="5.69664">
        <ele>751</ele>
        <time>2019-03-29T14:05:08Z</time>
      </trkpt>
      <trkpt lat="44.46116" lon="5.69668">
        <ele>751</ele>
        <time>2019-03-29T14:05:09Z</time>
      </trkpt>
      <trkpt lat="44.46116" lon="5.69672">
        <ele>751</ele>
        <time>2019-03-29T14:05:10Z</time>
      </trkpt>
      <trkpt lat="44.46117" lon="5.69675">
        <ele>751</ele>
        <time>2019-03-29T14:05:11Z</time>
      </trkpt>
      <trkpt lat="44.46117" lon="5.69679">
        <ele>751</ele>
        <time>2019-03-29T14:05:12Z</time>
      </trkpt>
      <trkpt lat="44.46118" lon="5.69682">
        <ele>751</ele>
        <time>2019-03-29T14:05:13Z</time>
      </trkpt>
      <trkpt lat="44.46118" lon="5.69686">
        <ele>752</ele>
        <time>2019-03-29T14:05:14Z</time>
      </trkpt>
      <trkpt lat="44.46118" lon="5.69689">
        <ele>752</ele>
        <time>2019-03-29T14:05:15Z</time>
      </trkpt>
      <trkpt lat="44.46119" lon="5.69693">
        <ele>752</ele>
        <time>2019-03-29T14:05:16Z</time>
      </trkpt>
      <trkpt lat="44.46119" lon="5.69696">
        <ele>752</ele>
        <time>2019-03-29T14:05:17Z</time>
      </trkpt>
      <trkpt lat="44.4612" lon="5.69699">
        <ele>753</ele>
        <time>2019-03-29T14:05:18Z</time>
      </trkpt>
      <trkpt lat="44.4612" lon="5.69703">
        <ele>753</ele>
        <time>2019-03-29T14:05:19Z</time>
      </trkpt>
      <trkpt lat="44.46119" lon="5.69706">
        <ele>753</ele>
        <time>2019-03-29T14:05:20Z</time>
      </trkpt>
      <trkpt lat="44.46119" lon="5.69709">
        <ele>753</ele>
        <time>2019-03-29T14:05:21Z</time>
      </trkpt>
      <trkpt lat="44.46119" lon="5.69712">
        <ele>754</ele>
        <time>2019-03-29T14:05:22Z</time>
      </trkpt>
      <trkpt lat="44.46119" lon="5.69716">
        <ele>754</ele>
        <time>2019-03-29T14:05:23Z</time>
      </trkpt>
      <trkpt lat="44.46119" lon="5.6972">
        <ele>754</ele>
        <time>2019-03-29T14:05:24Z</time>
      </trkpt>
      <trkpt lat="44.46119" lon="5.69723">
        <ele>754</ele>
        <time>2019-03-29T14:05:25Z</time>
      </trkpt>
      <trkpt lat="44.46119" lon="5.69726">
        <ele>754</ele>
        <time>2019-03-29T14:05:26Z</time>
      </trkpt>
      <trkpt lat="44.46119" lon="5.6973">
        <ele>755</ele>
        <time>2019-03-29T14:05:27Z</time>
      </trkpt>
      <trkpt lat="44.4612" lon="5.69733">
        <ele>755</ele>
        <time>2019-03-29T14:05:28Z</time>
      </trkpt>
      <trkpt lat="44.4612" lon="5.69736">
        <ele>755</ele>
        <time>2019-03-29T14:05:29Z</time>
      </trkpt>
      <trkpt lat="44.4612" lon="5.6974">
        <ele>755</ele>
        <time>2019-03-29T14:05:30Z</time>
      </trkpt>
      <trkpt lat="44.4612" lon="5.69743">
        <ele>756</ele>
        <time>2019-03-29T14:05:31Z</time>
      </trkpt>
      <trkpt lat="44.46121" lon="5.69747">
        <ele>756</ele>
        <time>2019-03-29T14:05:32Z</time>
      </trkpt>
      <trkpt lat="44.46121" lon="5.6975">
        <ele>756</ele>
        <time>2019-03-29T14:05:33Z</time>
      </trkpt>
      <trkpt lat="44.46122" lon="5.69754">
        <ele>756</ele>
        <time>2019-03-29T14:05:34Z</time>
      </trkpt>
      <trkpt lat="44.46122" lon="5.69758">
        <ele>756</ele>
        <time>2019-03-29T14:05:35Z</time>
      </trkpt>
      <trkpt lat="44.46123" lon="5.69761">
        <ele>757</ele>
        <time>2019-03-29T14:05:36Z</time>
      </trkpt>
      <trkpt lat="44.46124" lon="5.69764">
        <ele>757</ele>
        <time>2019-03-29T14:05:37Z</time>
      </trkpt>
      <trkpt lat="44.46124" lon="5.69767">
        <ele>757</ele>
        <time>2019-03-29T14:05:38Z</time>
      </trkpt>
      <trkpt lat="44.46125" lon="5.6977">
        <ele>757</ele>
        <time>2019-03-29T14:05:39Z</time>
      </trkpt>
      <trkpt lat="44.46125" lon="5.69774">
        <ele>757</ele>
        <time>2019-03-29T14:05:40Z</time>
      </trkpt>
      <trkpt lat="44.46126" lon="5.69777">
        <ele>757</ele>
        <time>2019-03-29T14:05:41Z</time>
      </trkpt>
      <trkpt lat="44.46127" lon="5.69781">
        <ele>757</ele>
        <time>2019-03-29T14:05:42Z</time>
      </trkpt>
      <trkpt lat="44.46128" lon="5.69784">
        <ele>758</ele>
        <time>2019-03-29T14:05:43Z</time>
      </trkpt>
      <trkpt lat="44.46128" lon="5.69788">
        <ele>758</ele>
        <time>2019-03-29T14:05:44Z</time>
      </trkpt>
      <trkpt lat="44.46129" lon="5.69792">
        <ele>758</ele>
        <time>2019-03-29T14:05:45Z</time>
      </trkpt>
      <trkpt lat="44.4613" lon="5.69796">
        <ele>758</ele>
        <time>2019-03-29T14:05:46Z</time>
      </trkpt>
      <trkpt lat="44.46131" lon="5.69801">
        <ele>758</ele>
        <time>2019-03-29T14:05:47Z</time>
      </trkpt>
      <trkpt lat="44.46132" lon="5.69805">
        <ele>758</ele>
        <time>2019-03-29T14:05:48Z</time>
      </trkpt>
      <trkpt lat="44.46133" lon="5.69808">
        <ele>758</ele>
        <time>2019-03-29T14:05:49Z</time>
      </trkpt>
      <trkpt lat="44.46134" lon="5.69812">
        <ele>759</ele>
        <time>2019-03-29T14:05:50Z</time>
      </trkpt>
      <trkpt lat="44.46135" lon="5.69816">
        <ele>759</ele>
        <time>2019-03-29T14:05:51Z</time>
      </trkpt>
      <trkpt lat="44.46136" lon="5.6982">
        <ele>759</ele>
        <time>2019-03-29T14:05:52Z</time>
      </trkpt>
      <trkpt lat="44.46137" lon="5.69825">
        <ele>759</ele>
        <time>2019-03-29T14:05:53Z</time>
      </trkpt>
      <trkpt lat="44.46138" lon="5.69829">
        <ele>759</ele>
        <time>2019-03-29T14:05:54Z</time>
      </trkpt>
      <trkpt lat="44.46139" lon="5.69833">
        <ele>759</ele>
        <time>2019-03-29T14:05:55Z</time>
      </trkpt>
      <trkpt lat="44.4614" lon="5.69837">
        <ele>760</ele>
        <time>2019-03-29T14:05:56Z</time>
      </trkpt>
      <trkpt lat="44.46141" lon="5.69841">
        <ele>760</ele>
        <time>2019-03-29T14:05:57Z</time>
      </trkpt>
      <trkpt lat="44.46142" lon="5.69845">
        <ele>760</ele>
        <time>2019-03-29T14:05:58Z</time>
      </trkpt>
      <trkpt lat="44.46142" lon="5.69849">
        <ele>760</ele>
        <time>2019-03-29T14:05:59Z</time>
      </trkpt>
      <trkpt lat="44.46143" lon="5.69853">
        <ele>760</ele>
        <time>2019-03-29T14:06:00Z</time>
      </trkpt>
      <trkpt lat="44.46144" lon="5.69857">
        <ele>760</ele>
        <time>2019-03-29T14:06:01Z</time>
      </trkpt>
      <trkpt lat="44.46144" lon="5.69861">
        <ele>760</ele>
        <time>2019-03-29T14:06:02Z</time>
      </trkpt>
      <trkpt lat="44.46145" lon="5.69865">
        <ele>761</ele>
        <time>2019-03-29T14:06:03Z</time>
      </trkpt>
      <trkpt lat="44.46146" lon="5.69869">
        <ele>761</ele>
        <time>2019-03-29T14:06:04Z</time>
      </trkpt>
      <trkpt lat="44.46146" lon="5.69873">
        <ele>761</ele>
        <time>2019-03-29T14:06:05Z</time>
      </trkpt>
      <trkpt lat="44.46147" lon="5.69877">
        <ele>761</ele>
        <time>2019-03-29T14:06:06Z</time>
      </trkpt>
      <trkpt lat="44.46148" lon="5.69881">
        <ele>761</ele>
        <time>2019-03-29T14:06:07Z</time>
      </trkpt>
      <trkpt lat="44.46148" lon="5.69885">
        <ele>762</ele>
        <time>2019-03-29T14:06:08Z</time>
      </trkpt>
      <trkpt lat="44.46149" lon="5.69889">
        <ele>762</ele>
        <time>2019-03-29T14:06:09Z</time>
      </trkpt>
      <trkpt lat="44.46149" lon="5.69893">
        <ele>762</ele>
        <time>2019-03-29T14:06:10Z</time>
      </trkpt>
      <trkpt lat="44.4615" lon="5.69897">
        <ele>763</ele>
        <time>2019-03-29T14:06:11Z</time>
      </trkpt>
      <trkpt lat="44.46151" lon="5.69901">
        <ele>763</ele>
        <time>2019-03-29T14:06:12Z</time>
      </trkpt>
      <trkpt lat="44.46151" lon="5.69904">
        <ele>763</ele>
        <time>2019-03-29T14:06:13Z</time>
      </trkpt>
      <trkpt lat="44.46151" lon="5.69908">
        <ele>763</ele>
        <time>2019-03-29T14:06:14Z</time>
      </trkpt>
      <trkpt lat="44.46152" lon="5.69911">
        <ele>764</ele>
        <time>2019-03-29T14:06:15Z</time>
      </trkpt>
      <trkpt lat="44.46153" lon="5.69915">
        <ele>764</ele>
        <time>2019-03-29T14:06:16Z</time>
      </trkpt>
      <trkpt lat="44.46154" lon="5.69918">
        <ele>764</ele>
        <time>2019-03-29T14:06:17Z</time>
      </trkpt>
      <trkpt lat="44.46155" lon="5.69921">
        <ele>764</ele>
        <time>2019-03-29T14:06:18Z</time>
      </trkpt>
      <trkpt lat="44.46156" lon="5.69923">
        <ele>764</ele>
        <time>2019-03-29T14:06:19Z</time>
      </trkpt>
      <trkpt lat="44.46157" lon="5.69926">
        <ele>765</ele>
        <time>2019-03-29T14:06:20Z</time>
      </trkpt>
      <trkpt lat="44.46159" lon="5.69928">
        <ele>765</ele>
        <time>2019-03-29T14:06:21Z</time>
      </trkpt>
      <trkpt lat="44.46161" lon="5.69931">
        <ele>765</ele>
        <time>2019-03-29T14:06:22Z</time>
      </trkpt>
      <trkpt lat="44.46163" lon="5.69932">
        <ele>765</ele>
        <time>2019-03-29T14:06:23Z</time>
      </trkpt>
      <trkpt lat="44.46166" lon="5.69933">
        <ele>765</ele>
        <time>2019-03-29T14:06:24Z</time>
      </trkpt>
      <trkpt lat="44.46169" lon="5.69934">
        <ele>766</ele>
        <time>2019-03-29T14:06:25Z</time>
      </trkpt>
      <trkpt lat="44.46171" lon="5.69934">
        <ele>766</ele>
        <time>2019-03-29T14:06:26Z</time>
      </trkpt>
      <trkpt lat="44.46174" lon="5.69934">
        <ele>766</ele>
        <time>2019-03-29T14:06:27Z</time>
      </trkpt>
      <trkpt lat="44.46177" lon="5.69933">
        <ele>766</ele>
        <time>2019-03-29T14:06:28Z</time>
      </trkpt>
      <trkpt lat="44.4618" lon="5.69932">
        <ele>767</ele>
        <time>2019-03-29T14:06:29Z</time>
      </trkpt>
      <trkpt lat="44.46183" lon="5.6993">
        <ele>767</ele>
        <time>2019-03-29T14:06:30Z</time>
      </trkpt>
      <trkpt lat="44.46186" lon="5.69928">
        <ele>767</ele>
        <time>2019-03-29T14:06:31Z</time>
      </trkpt>
      <trkpt lat="44.46189" lon="5.69926">
        <ele>767</ele>
        <time>2019-03-29T14:06:32Z</time>
      </trkpt>
      <trkpt lat="44.46191" lon="5.69923">
        <ele>767</ele>
        <time>2019-03-29T14:06:33Z</time>
      </trkpt>
      <trkpt lat="44.46194" lon="5.6992">
        <ele>768</ele>
        <time>2019-03-29T14:06:34Z</time>
      </trkpt>
      <trkpt lat="44.46196" lon="5.69917">
        <ele>768</ele>
        <time>2019-03-29T14:06:35Z</time>
      </trkpt>
      <trkpt lat="44.46199" lon="5.69915">
        <ele>768</ele>
        <time>2019-03-29T14:06:36Z</time>
      </trkpt>
      <trkpt lat="44.46201" lon="5.69912">
        <ele>768</ele>
        <time>2019-03-29T14:06:37Z</time>
      </trkpt>
      <trkpt lat="44.46204" lon="5.69909">
        <ele>768</ele>
        <time>2019-03-29T14:06:38Z</time>
      </trkpt>
      <trkpt lat="44.46206" lon="5.69906">
        <ele>768</ele>
        <time>2019-03-29T14:06:39Z</time>
      </trkpt>
      <trkpt lat="44.46209" lon="5.69903">
        <ele>768</ele>
        <time>2019-03-29T14:06:40Z</time>
      </trkpt>
      <trkpt lat="44.46211" lon="5.69899">
        <ele>769</ele>
        <time>2019-03-29T14:06:41Z</time>
      </trkpt>
      <trkpt lat="44.46214" lon="5.69896">
        <ele>769</ele>
        <time>2019-03-29T14:06:42Z</time>
      </trkpt>
      <trkpt lat="44.46216" lon="5.69893">
        <ele>769</ele>
        <time>2019-03-29T14:06:43Z</time>
      </trkpt>
      <trkpt lat="44.46219" lon="5.6989">
        <ele>769</ele>
        <time>2019-03-29T14:06:44Z</time>
      </trkpt>
      <trkpt lat="44.46222" lon="5.69887">
        <ele>769</ele>
        <time>2019-03-29T14:06:45Z</time>
      </trkpt>
      <trkpt lat="44.46225" lon="5.69884">
        <ele>769</ele>
        <time>2019-03-29T14:06:46Z</time>
      </trkpt>
      <trkpt lat="44.46228" lon="5.69882">
        <ele>769</ele>
        <time>2019-03-29T14:06:47Z</time>
      </trkpt>
      <trkpt lat="44.46231" lon="5.69879">
        <ele>769</ele>
        <time>2019-03-29T14:06:48Z</time>
      </trkpt>
      <trkpt lat="44.46234" lon="5.69878">
        <ele>769</ele>
        <time>2019-03-29T14:06:49Z</time>
      </trkpt>
      <trkpt lat="44.46237" lon="5.69877">
        <ele>769</ele>
        <time>2019-03-29T14:06:50Z</time>
      </trkpt>
      <trkpt lat="44.46241" lon="5.69876">
        <ele>769</ele>
        <time>2019-03-29T14:06:51Z</time>
      </trkpt>
      <trkpt lat="44.46244" lon="5.69876">
        <ele>769</ele>
        <time>2019-03-29T14:06:52Z</time>
      </trkpt>
      <trkpt lat="44.46247" lon="5.69875">
        <ele>770</ele>
        <time>2019-03-29T14:06:53Z</time>
      </trkpt>
      <trkpt lat="44.4625" lon="5.69875">
        <ele>770</ele>
        <time>2019-03-29T14:06:54Z</time>
      </trkpt>
      <trkpt lat="44.46254" lon="5.69875">
        <ele>770</ele>
        <time>2019-03-29T14:06:55Z</time>
      </trkpt>
      <trkpt lat="44.46257" lon="5.69874">
        <ele>770</ele>
        <time>2019-03-29T14:06:56Z</time>
      </trkpt>
      <trkpt lat="44.4626" lon="5.69874">
        <ele>770</ele>
        <time>2019-03-29T14:06:57Z</time>
      </trkpt>
      <trkpt lat="44.46264" lon="5.69872">
        <ele>771</ele>
        <time>2019-03-29T14:06:58Z</time>
      </trkpt>
      <trkpt lat="44.46267" lon="5.69871">
        <ele>771</ele>
        <time>2019-03-29T14:06:59Z</time>
      </trkpt>
      <trkpt lat="44.4627" lon="5.69869">
        <ele>771</ele>
        <time>2019-03-29T14:07:00Z</time>
      </trkpt>
      <trkpt lat="44.46273" lon="5.69867">
        <ele>771</ele>
        <time>2019-03-29T14:07:01Z</time>
      </trkpt>
      <trkpt lat="44.46276" lon="5.69865">
        <ele>771</ele>
        <time>2019-03-29T14:07:02Z</time>
      </trkpt>
      <trkpt lat="44.4628" lon="5.69863">
        <ele>772</ele>
        <time>2019-03-29T14:07:03Z</time>
      </trkpt>
      <trkpt lat="44.46283" lon="5.6986">
        <ele>772</ele>
        <time>2019-03-29T14:07:04Z</time>
      </trkpt>
      <trkpt lat="44.46286" lon="5.69858">
        <ele>772</ele>
        <time>2019-03-29T14:07:05Z</time>
      </trkpt>
      <trkpt lat="44.46289" lon="5.69855">
        <ele>772</ele>
        <time>2019-03-29T14:07:06Z</time>
      </trkpt>
      <trkpt lat="44.46292" lon="5.69853">
        <ele>773</ele>
        <time>2019-03-29T14:07:07Z</time>
      </trkpt>
      <trkpt lat="44.46295" lon="5.6985">
        <ele>773</ele>
        <time>2019-03-29T14:07:08Z</time>
      </trkpt>
      <trkpt lat="44.46298" lon="5.69847">
        <ele>773</ele>
        <time>2019-03-29T14:07:09Z</time>
      </trkpt>
      <trkpt lat="44.46301" lon="5.69844">
        <ele>773</ele>
        <time>2019-03-29T14:07:10Z</time>
      </trkpt>
      <trkpt lat="44.46304" lon="5.69841">
        <ele>773</ele>
        <time>2019-03-29T14:07:11Z</time>
      </trkpt>
      <trkpt lat="44.46307" lon="5.69838">
        <ele>773</ele>
        <time>2019-03-29T14:07:12Z</time>
      </trkpt>
      <trkpt lat="44.46309" lon="5.69835">
        <ele>774</ele>
        <time>2019-03-29T14:07:13Z</time>
      </trkpt>
      <trkpt lat="44.46312" lon="5.69831">
        <ele>774</ele>
        <time>2019-03-29T14:07:14Z</time>
      </trkpt>
      <trkpt lat="44.46314" lon="5.69828">
        <ele>774</ele>
        <time>2019-03-29T14:07:15Z</time>
      </trkpt>
      <trkpt lat="44.46317" lon="5.69824">
        <ele>774</ele>
        <time>2019-03-29T14:07:16Z</time>
      </trkpt>
      <trkpt lat="44.46319" lon="5.6982">
        <ele>774</ele>
        <time>2019-03-29T14:07:17Z</time>
      </trkpt>
      <trkpt lat="44.46321" lon="5.69817">
        <ele>774</ele>
        <time>2019-03-29T14:07:18Z</time>
      </trkpt>
      <trkpt lat="44.46324" lon="5.69813">
        <ele>774</ele>
        <time>2019-03-29T14:07:19Z</time>
      </trkpt>
      <trkpt lat="44.46326" lon="5.69809">
        <ele>774</ele>
        <time>2019-03-29T14:07:20Z</time>
      </trkpt>
      <trkpt lat="44.46328" lon="5.69805">
        <ele>774</ele>
        <time>2019-03-29T14:07:21Z</time>
      </trkpt>
      <trkpt lat="44.4633" lon="5.69802">
        <ele>774</ele>
        <time>2019-03-29T14:07:22Z</time>
      </trkpt>
      <trkpt lat="44.46333" lon="5.69799">
        <ele>775</ele>
        <time>2019-03-29T14:07:23Z</time>
      </trkpt>
      <trkpt lat="44.46335" lon="5.69795">
        <ele>775</ele>
        <time>2019-03-29T14:07:24Z</time>
      </trkpt>
      <trkpt lat="44.46338" lon="5.69792">
        <ele>775</ele>
        <time>2019-03-29T14:07:25Z</time>
      </trkpt>
      <trkpt lat="44.4634" lon="5.69788">
        <ele>775</ele>
        <time>2019-03-29T14:07:26Z</time>
      </trkpt>
      <trkpt lat="44.46342" lon="5.69785">
        <ele>775</ele>
        <time>2019-03-29T14:07:27Z</time>
      </trkpt>
      <trkpt lat="44.46345" lon="5.69782">
        <ele>775</ele>
        <time>2019-03-29T14:07:28Z</time>
      </trkpt>
      <trkpt lat="44.46347" lon="5.69779">
        <ele>776</ele>
        <time>2019-03-29T14:07:29Z</time>
      </trkpt>
      <trkpt lat="44.46349" lon="5.69776">
        <ele>776</ele>
        <time>2019-03-29T14:07:30Z</time>
      </trkpt>
      <trkpt lat="44.46352" lon="5.69773">
        <ele>776</ele>
        <time>2019-03-29T14:07:31Z</time>
      </trkpt>
      <trkpt lat="44.46355" lon="5.69769">
        <ele>776</ele>
        <time>2019-03-29T14:07:32Z</time>
      </trkpt>
      <trkpt lat="44.46357" lon="5.69766">
        <ele>776</ele>
        <time>2019-03-29T14:07:33Z</time>
      </trkpt>
      <trkpt lat="44.4636" lon="5.69763">
        <ele>776</ele>
        <time>2019-03-29T14:07:34Z</time>
      </trkpt>
      <trkpt lat="44.46362" lon="5.6976">
        <ele>777</ele>
        <time>2019-03-29T14:07:35Z</time>
      </trkpt>
      <trkpt lat="44.46365" lon="5.69757">
        <ele>777</ele>
        <time>2019-03-29T14:07:36Z</time>
      </trkpt>
      <trkpt lat="44.46368" lon="5.69754">
        <ele>777</ele>
        <time>2019-03-29T14:07:37Z</time>
      </trkpt>
      <trkpt lat="44.46371" lon="5.69752">
        <ele>777</ele>
        <time>2019-03-29T14:07:38Z</time>
      </trkpt>
      <trkpt lat="44.46373" lon="5.69749">
        <ele>778</ele>
        <time>2019-03-29T14:07:39Z</time>
      </trkpt>
      <trkpt lat="44.46376" lon="5.69747">
        <ele>778</ele>
        <time>2019-03-29T14:07:40Z</time>
      </trkpt>
      <trkpt lat="44.46379" lon="5.69744">
        <ele>778</ele>
        <time>2019-03-29T14:07:41Z</time>
      </trkpt>
      <trkpt lat="44.46381" lon="5.69742">
        <ele>778</ele>
        <time>2019-03-29T14:07:42Z</time>
      </trkpt>
      <trkpt lat="44.46384" lon="5.6974">
        <ele>778</ele>
        <time>2019-03-29T14:07:43Z</time>
      </trkpt>
      <trkpt lat="44.46386" lon="5.69738">
        <ele>778</ele>
        <time>2019-03-29T14:07:44Z</time>
      </trkpt>
      <trkpt lat="44.46388" lon="5.69737">
        <ele>778</ele>
        <time>2019-03-29T14:07:45Z</time>
      </trkpt>
      <trkpt lat="44.4639" lon="5.69736">
        <ele>778</ele>
        <time>2019-03-29T14:07:46Z</time>
      </trkpt>
      <trkpt lat="44.46392" lon="5.69735">
        <ele>779</ele>
        <time>2019-03-29T14:07:47Z</time>
      </trkpt>
      <trkpt lat="44.46394" lon="5.69734">
        <ele>779</ele>
        <time>2019-03-29T14:07:48Z</time>
      </trkpt>
      <trkpt lat="44.46395" lon="5.69733">
        <ele>779</ele>
        <time>2019-03-29T14:07:49Z</time>
      </trkpt>
      <trkpt lat="44.46396" lon="5.69732">
        <ele>779</ele>
        <time>2019-03-29T14:07:50Z</time>
      </trkpt>
      <trkpt lat="44.46398" lon="5.69731">
        <ele>779</ele>
        <time>2019-03-29T14:07:51Z</time>
      </trkpt>
      <trkpt lat="44.46399" lon="5.6973">
        <ele>779</ele>
        <time>2019-03-29T14:07:52Z</time>
      </trkpt>
      <trkpt lat="44.46398" lon="5.6973">
        <ele>783</ele>
        <time>2019-03-29T14:08:44Z</time>
      </trkpt>
      <trkpt lat="44.46399" lon="5.69729">
        <ele>783</ele>
        <time>2019-03-29T14:09:12Z</time>
      </trkpt>
      <trkpt lat="44.46402" lon="5.69726">
        <ele>783</ele>
        <time>2019-03-29T14:09:14Z</time>
      </trkpt>
      <trkpt lat="44.46403" lon="5.69725">
        <ele>783</ele>
        <time>2019-03-29T14:09:15Z</time>
      </trkpt>
      <trkpt lat="44.46404" lon="5.69724">
        <ele>783</ele>
        <time>2019-03-29T14:09:16Z</time>
      </trkpt>
      <trkpt lat="44.46406" lon="5.69722">
        <ele>783</ele>
        <time>2019-03-29T14:09:17Z</time>
      </trkpt>
      <trkpt lat="44.46408" lon="5.69719">
        <ele>783</ele>
        <time>2019-03-29T14:09:18Z</time>
      </trkpt>
      <trkpt lat="44.46412" lon="5.69716">
        <ele>783</ele>
        <time>2019-03-29T14:09:19Z</time>
      </trkpt>
      <trkpt lat="44.46415" lon="5.69714">
        <ele>783</ele>
        <time>2019-03-29T14:09:20Z</time>
      </trkpt>
      <trkpt lat="44.4642" lon="5.69711">
        <ele>783</ele>
        <time>2019-03-29T14:09:21Z</time>
      </trkpt>
      <trkpt lat="44.46424" lon="5.69709">
        <ele>783</ele>
        <time>2019-03-29T14:09:22Z</time>
      </trkpt>
      <trkpt lat="44.4643" lon="5.69707">
        <ele>783</ele>
        <time>2019-03-29T14:09:23Z</time>
      </trkpt>
      <trkpt lat="44.46435" lon="5.69706">
        <ele>783</ele>
        <time>2019-03-29T14:09:24Z</time>
      </trkpt>
      <trkpt lat="44.46441" lon="5.69706">
        <ele>783</ele>
        <time>2019-03-29T14:09:25Z</time>
      </trkpt>
      <trkpt lat="44.46447" lon="5.69707">
        <ele>783</ele>
        <time>2019-03-29T14:09:26Z</time>
      </trkpt>
      <trkpt lat="44.46453" lon="5.69708">
        <ele>783</ele>
        <time>2019-03-29T14:09:27Z</time>
      </trkpt>
      <trkpt lat="44.46459" lon="5.69709">
        <ele>783</ele>
        <time>2019-03-29T14:09:28Z</time>
      </trkpt>
      <trkpt lat="44.46465" lon="5.69711">
        <ele>783</ele>
        <time>2019-03-29T14:09:29Z</time>
      </trkpt>
      <trkpt lat="44.46472" lon="5.69713">
        <ele>783</ele>
        <time>2019-03-29T14:09:30Z</time>
      </trkpt>
      <trkpt lat="44.46479" lon="5.69715">
        <ele>783</ele>
        <time>2019-03-29T14:09:31Z</time>
      </trkpt>
      <trkpt lat="44.46485" lon="5.69718">
        <ele>783</ele>
        <time>2019-03-29T14:09:32Z</time>
      </trkpt>
      <trkpt lat="44.46492" lon="5.69722">
        <ele>783</ele>
        <time>2019-03-29T14:09:33Z</time>
      </trkpt>
      <trkpt lat="44.46499" lon="5.69727">
        <ele>783</ele>
        <time>2019-03-29T14:09:34Z</time>
      </trkpt>
      <trkpt lat="44.46505" lon="5.69733">
        <ele>783</ele>
        <time>2019-03-29T14:09:35Z</time>
      </trkpt>
      <trkpt lat="44.4651" lon="5.6974">
        <ele>783</ele>
        <time>2019-03-29T14:09:36Z</time>
      </trkpt>
      <trkpt lat="44.46516" lon="5.69746">
        <ele>783</ele>
        <time>2019-03-29T14:09:37Z</time>
      </trkpt>
      <trkpt lat="44.46522" lon="5.69751">
        <ele>783</ele>
        <time>2019-03-29T14:09:38Z</time>
      </trkpt>
      <trkpt lat="44.46529" lon="5.69756">
        <ele>783</ele>
        <time>2019-03-29T14:09:39Z</time>
      </trkpt>
      <trkpt lat="44.46536" lon="5.69761">
        <ele>783</ele>
        <time>2019-03-29T14:09:40Z</time>
      </trkpt>
      <trkpt lat="44.46542" lon="5.69767">
        <ele>783</ele>
        <time>2019-03-29T14:09:41Z</time>
      </trkpt>
      <trkpt lat="44.46548" lon="5.69775">
        <ele>783</ele>
        <time>2019-03-29T14:09:42Z</time>
      </trkpt>
      <trkpt lat="44.46553" lon="5.69784">
        <ele>783</ele>
        <time>2019-03-29T14:09:43Z</time>
      </trkpt>
      <trkpt lat="44.46558" lon="5.69793">
        <ele>783</ele>
        <time>2019-03-29T14:09:44Z</time>
      </trkpt>
      <trkpt lat="44.46563" lon="5.69801">
        <ele>782</ele>
        <time>2019-03-29T14:09:45Z</time>
      </trkpt>
      <trkpt lat="44.46568" lon="5.69809">
        <ele>782</ele>
        <time>2019-03-29T14:09:46Z</time>
      </trkpt>
      <trkpt lat="44.46575" lon="5.69817">
        <ele>781</ele>
        <time>2019-03-29T14:09:47Z</time>
      </trkpt>
      <trkpt lat="44.46582" lon="5.69825">
        <ele>781</ele>
        <time>2019-03-29T14:09:48Z</time>
      </trkpt>
      <trkpt lat="44.46589" lon="5.69832">
        <ele>781</ele>
        <time>2019-03-29T14:09:49Z</time>
      </trkpt>
      <trkpt lat="44.46597" lon="5.69838">
        <ele>780</ele>
        <time>2019-03-29T14:09:50Z</time>
      </trkpt>
      <trkpt lat="44.46605" lon="5.69842">
        <ele>780</ele>
        <time>2019-03-29T14:09:51Z</time>
      </trkpt>
      <trkpt lat="44.46613" lon="5.69846">
        <ele>780</ele>
        <time>2019-03-29T14:09:52Z</time>
      </trkpt>
      <trkpt lat="44.46622" lon="5.69848">
        <ele>779</ele>
        <time>2019-03-29T14:09:53Z</time>
      </trkpt>
      <trkpt lat="44.46631" lon="5.69849">
        <ele>779</ele>
        <time>2019-03-29T14:09:54Z</time>
      </trkpt>
      <trkpt lat="44.46639" lon="5.6985">
        <ele>779</ele>
        <time>2019-03-29T14:09:55Z</time>
      </trkpt>
      <trkpt lat="44.46648" lon="5.6985">
        <ele>779</ele>
        <time>2019-03-29T14:09:56Z</time>
      </trkpt>
      <trkpt lat="44.46656" lon="5.69849">
        <ele>779</ele>
        <time>2019-03-29T14:09:57Z</time>
      </trkpt>
      <trkpt lat="44.46664" lon="5.69847">
        <ele>779</ele>
        <time>2019-03-29T14:09:58Z</time>
      </trkpt>
      <trkpt lat="44.46673" lon="5.69846">
        <ele>779</ele>
        <time>2019-03-29T14:09:59Z</time>
      </trkpt>
      <trkpt lat="44.46681" lon="5.69844">
        <ele>778</ele>
        <time>2019-03-29T14:10:00Z</time>
      </trkpt>
      <trkpt lat="44.46689" lon="5.69843">
        <ele>778</ele>
        <time>2019-03-29T14:10:01Z</time>
      </trkpt>
      <trkpt lat="44.46697" lon="5.69841">
        <ele>778</ele>
        <time>2019-03-29T14:10:02Z</time>
      </trkpt>
      <trkpt lat="44.46706" lon="5.69839">
        <ele>778</ele>
        <time>2019-03-29T14:10:03Z</time>
      </trkpt>
      <trkpt lat="44.46714" lon="5.69837">
        <ele>778</ele>
        <time>2019-03-29T14:10:04Z</time>
      </trkpt>
      <trkpt lat="44.46721" lon="5.69837">
        <ele>778</ele>
        <time>2019-03-29T14:10:05Z</time>
      </trkpt>
      <trkpt lat="44.46729" lon="5.69841">
        <ele>777</ele>
        <time>2019-03-29T14:10:06Z</time>
      </trkpt>
      <trkpt lat="44.46734" lon="5.69848">
        <ele>777</ele>
        <time>2019-03-29T14:10:07Z</time>
      </trkpt>
      <trkpt lat="44.46738" lon="5.69858">
        <ele>777</ele>
        <time>2019-03-29T14:10:08Z</time>
      </trkpt>
      <trkpt lat="44.4674" lon="5.69867">
        <ele>777</ele>
        <time>2019-03-29T14:10:09Z</time>
      </trkpt>
      <trkpt lat="44.46743" lon="5.69877">
        <ele>777</ele>
        <time>2019-03-29T14:10:10Z</time>
      </trkpt>
      <trkpt lat="44.46747" lon="5.69886">
        <ele>777</ele>
        <time>2019-03-29T14:10:11Z</time>
      </trkpt>
      <trkpt lat="44.46753" lon="5.69892">
        <ele>776</ele>
        <time>2019-03-29T14:10:12Z</time>
      </trkpt>
      <trkpt lat="44.46761" lon="5.69896">
        <ele>776</ele>
        <time>2019-03-29T14:10:13Z</time>
      </trkpt>
      <trkpt lat="44.46768" lon="5.69898">
        <ele>776</ele>
        <time>2019-03-29T14:10:14Z</time>
      </trkpt>
      <trkpt lat="44.46776" lon="5.69898">
        <ele>776</ele>
        <time>2019-03-29T14:10:15Z</time>
      </trkpt>
      <trkpt lat="44.46784" lon="5.69897">
        <ele>776</ele>
        <time>2019-03-29T14:10:16Z</time>
      </trkpt>
      <trkpt lat="44.46793" lon="5.69895">
        <ele>775</ele>
        <time>2019-03-29T14:10:17Z</time>
      </trkpt>
      <trkpt lat="44.46801" lon="5.69893">
        <ele>775</ele>
        <time>2019-03-29T14:10:18Z</time>
      </trkpt>
      <trkpt lat="44.46809" lon="5.69891">
        <ele>775</ele>
        <time>2019-03-29T14:10:19Z</time>
      </trkpt>
      <trkpt lat="44.46818" lon="5.69888">
        <ele>775</ele>
        <time>2019-03-29T14:10:20Z</time>
      </trkpt>
      <trkpt lat="44.46826" lon="5.69884">
        <ele>774</ele>
        <time>2019-03-29T14:10:21Z</time>
      </trkpt>
      <trkpt lat="44.46834" lon="5.69878">
        <ele>774</ele>
        <time>2019-03-29T14:10:22Z</time>
      </trkpt>
      <trkpt lat="44.4684" lon="5.6987">
        <ele>774</ele>
        <time>2019-03-29T14:10:23Z</time>
      </trkpt>
      <trkpt lat="44.46845" lon="5.69859">
        <ele>774</ele>
        <time>2019-03-29T14:10:24Z</time>
      </trkpt>
      <trkpt lat="44.4685" lon="5.69849">
        <ele>773</ele>
        <time>2019-03-29T14:10:25Z</time>
      </trkpt>
      <trkpt lat="44.46855" lon="5.69838">
        <ele>773</ele>
        <time>2019-03-29T14:10:26Z</time>
      </trkpt>
      <trkpt lat="44.46859" lon="5.69828">
        <ele>772</ele>
        <time>2019-03-29T14:10:27Z</time>
      </trkpt>
      <trkpt lat="44.46862" lon="5.69816">
        <ele>772</ele>
        <time>2019-03-29T14:10:28Z</time>
      </trkpt>
      <trkpt lat="44.46863" lon="5.69804">
        <ele>772</ele>
        <time>2019-03-29T14:10:29Z</time>
      </trkpt>
      <trkpt lat="44.46864" lon="5.69793">
        <ele>771</ele>
        <time>2019-03-29T14:10:30Z</time>
      </trkpt>
      <trkpt lat="44.46865" lon="5.69783">
        <ele>771</ele>
        <time>2019-03-29T14:10:31Z</time>
      </trkpt>
      <trkpt lat="44.46869" lon="5.69776">
        <ele>771</ele>
        <time>2019-03-29T14:10:32Z</time>
      </trkpt>
      <trkpt lat="44.46874" lon="5.69772">
        <ele>770</ele>
        <time>2019-03-29T14:10:33Z</time>
      </trkpt>
      <trkpt lat="44.4688" lon="5.69771">
        <ele>770</ele>
        <time>2019-03-29T14:10:34Z</time>
      </trkpt>
      <trkpt lat="44.46885" lon="5.69773">
        <ele>770</ele>
        <time>2019-03-29T14:10:35Z</time>
      </trkpt>
      <trkpt lat="44.4689" lon="5.69777">
        <ele>770</ele>
        <time>2019-03-29T14:10:36Z</time>
      </trkpt>
      <trkpt lat="44.46895" lon="5.69782">
        <ele>770</ele>
        <time>2019-03-29T14:10:37Z</time>
      </trkpt>
      <trkpt lat="44.46899" lon="5.69788">
        <ele>770</ele>
        <time>2019-03-29T14:10:38Z</time>
      </trkpt>
      <trkpt lat="44.46902" lon="5.69794">
        <ele>770</ele>
        <time>2019-03-29T14:10:39Z</time>
      </trkpt>
      <trkpt lat="44.46906" lon="5.698">
        <ele>770</ele>
        <time>2019-03-29T14:10:40Z</time>
      </trkpt>
      <trkpt lat="44.46909" lon="5.69805">
        <ele>770</ele>
        <time>2019-03-29T14:10:41Z</time>
      </trkpt>
      <trkpt lat="44.46912" lon="5.69811">
        <ele>770</ele>
        <time>2019-03-29T14:10:42Z</time>
      </trkpt>
      <trkpt lat="44.46915" lon="5.69816">
        <ele>770</ele>
        <time>2019-03-29T14:10:43Z</time>
      </trkpt>
      <trkpt lat="44.46918" lon="5.69822">
        <ele>770</ele>
        <time>2019-03-29T14:10:44Z</time>
      </trkpt>
      <trkpt lat="44.46921" lon="5.69827">
        <ele>770</ele>
        <time>2019-03-29T14:10:45Z</time>
      </trkpt>
      <trkpt lat="44.46925" lon="5.69832">
        <ele>770</ele>
        <time>2019-03-29T14:10:46Z</time>
      </trkpt>
      <trkpt lat="44.46928" lon="5.69837">
        <ele>770</ele>
        <time>2019-03-29T14:10:47Z</time>
      </trkpt>
      <trkpt lat="44.46932" lon="5.6984">
        <ele>770</ele>
        <time>2019-03-29T14:10:48Z</time>
      </trkpt>
      <trkpt lat="44.46937" lon="5.69844">
        <ele>770</ele>
        <time>2019-03-29T14:10:49Z</time>
      </trkpt>
      <trkpt lat="44.46941" lon="5.69846">
        <ele>770</ele>
        <time>2019-03-29T14:10:50Z</time>
      </trkpt>
      <trkpt lat="44.46946" lon="5.69848">
        <ele>770</ele>
        <time>2019-03-29T14:10:51Z</time>
      </trkpt>
      <trkpt lat="44.46952" lon="5.69849">
        <ele>770</ele>
        <time>2019-03-29T14:10:52Z</time>
      </trkpt>
      <trkpt lat="44.46957" lon="5.6985">
        <ele>770</ele>
        <time>2019-03-29T14:10:53Z</time>
      </trkpt>
      <trkpt lat="44.46962" lon="5.69851">
        <ele>770</ele>
        <time>2019-03-29T14:10:54Z</time>
      </trkpt>
      <trkpt lat="44.46968" lon="5.69852">
        <ele>770</ele>
        <time>2019-03-29T14:10:55Z</time>
      </trkpt>
      <trkpt lat="44.46973" lon="5.69853">
        <ele>771</ele>
        <time>2019-03-29T14:10:56Z</time>
      </trkpt>
      <trkpt lat="44.46979" lon="5.69854">
        <ele>771</ele>
        <time>2019-03-29T14:10:57Z</time>
      </trkpt>
      <trkpt lat="44.46985" lon="5.69855">
        <ele>771</ele>
        <time>2019-03-29T14:10:58Z</time>
      </trkpt>
      <trkpt lat="44.46991" lon="5.69856">
        <ele>771</ele>
        <time>2019-03-29T14:10:59Z</time>
      </trkpt>
      <trkpt lat="44.46996" lon="5.69858">
        <ele>771</ele>
        <time>2019-03-29T14:11:00Z</time>
      </trkpt>
      <trkpt lat="44.47002" lon="5.69859">
        <ele>771</ele>
        <time>2019-03-29T14:11:01Z</time>
      </trkpt>
      <trkpt lat="44.47008" lon="5.6986">
        <ele>771</ele>
        <time>2019-03-29T14:11:02Z</time>
      </trkpt>
      <trkpt lat="44.47014" lon="5.69861">
        <ele>771</ele>
        <time>2019-03-29T14:11:03Z</time>
      </trkpt>
      <trkpt lat="44.4702" lon="5.69862">
        <ele>771</ele>
        <time>2019-03-29T14:11:04Z</time>
      </trkpt>
      <trkpt lat="44.47027" lon="5.69862">
        <ele>771</ele>
        <time>2019-03-29T14:11:05Z</time>
      </trkpt>
      <trkpt lat="44.47033" lon="5.69863">
        <ele>771</ele>
        <time>2019-03-29T14:11:06Z</time>
      </trkpt>
      <trkpt lat="44.4704" lon="5.69863">
        <ele>771</ele>
        <time>2019-03-29T14:11:07Z</time>
      </trkpt>
      <trkpt lat="44.47046" lon="5.69864">
        <ele>771</ele>
        <time>2019-03-29T14:11:08Z</time>
      </trkpt>
      <trkpt lat="44.47053" lon="5.69865">
        <ele>771</ele>
        <time>2019-03-29T14:11:09Z</time>
      </trkpt>
      <trkpt lat="44.47059" lon="5.69865">
        <ele>771</ele>
        <time>2019-03-29T14:11:10Z</time>
      </trkpt>
      <trkpt lat="44.47065" lon="5.69866">
        <ele>771</ele>
        <time>2019-03-29T14:11:11Z</time>
      </trkpt>
      <trkpt lat="44.47072" lon="5.69868">
        <ele>771</ele>
        <time>2019-03-29T14:11:12Z</time>
      </trkpt>
      <trkpt lat="44.47078" lon="5.69869">
        <ele>771</ele>
        <time>2019-03-29T14:11:13Z</time>
      </trkpt>
      <trkpt lat="44.47084" lon="5.69871">
        <ele>771</ele>
        <time>2019-03-29T14:11:14Z</time>
      </trkpt>
      <trkpt lat="44.47091" lon="5.69873">
        <ele>771</ele>
        <time>2019-03-29T14:11:15Z</time>
      </trkpt>
      <trkpt lat="44.47097" lon="5.69875">
        <ele>771</ele>
        <time>2019-03-29T14:11:16Z</time>
      </trkpt>
      <trkpt lat="44.47103" lon="5.69878">
        <ele>772</ele>
        <time>2019-03-29T14:11:17Z</time>
      </trkpt>
      <trkpt lat="44.47109" lon="5.6988">
        <ele>772</ele>
        <time>2019-03-29T14:11:18Z</time>
      </trkpt>
      <trkpt lat="44.47115" lon="5.69882">
        <ele>772</ele>
        <time>2019-03-29T14:11:19Z</time>
      </trkpt>
      <trkpt lat="44.47122" lon="5.69884">
        <ele>772</ele>
        <time>2019-03-29T14:11:20Z</time>
      </trkpt>
      <trkpt lat="44.47128" lon="5.69887">
        <ele>772</ele>
        <time>2019-03-29T14:11:21Z</time>
      </trkpt>
      <trkpt lat="44.47134" lon="5.69889">
        <ele>772</ele>
        <time>2019-03-29T14:11:22Z</time>
      </trkpt>
      <trkpt lat="44.4714" lon="5.69892">
        <ele>772</ele>
        <time>2019-03-29T14:11:23Z</time>
      </trkpt>
      <trkpt lat="44.47147" lon="5.69895">
        <ele>772</ele>
        <time>2019-03-29T14:11:24Z</time>
      </trkpt>
      <trkpt lat="44.47153" lon="5.69898">
        <ele>772</ele>
        <time>2019-03-29T14:11:25Z</time>
      </trkpt>
      <trkpt lat="44.47159" lon="5.69901">
        <ele>772</ele>
        <time>2019-03-29T14:11:26Z</time>
      </trkpt>
      <trkpt lat="44.47165" lon="5.69905">
        <ele>772</ele>
        <time>2019-03-29T14:11:27Z</time>
      </trkpt>
      <trkpt lat="44.47171" lon="5.69908">
        <ele>772</ele>
        <time>2019-03-29T14:11:28Z</time>
      </trkpt>
      <trkpt lat="44.47178" lon="5.69912">
        <ele>772</ele>
        <time>2019-03-29T14:11:29Z</time>
      </trkpt>
      <trkpt lat="44.47185" lon="5.69916">
        <ele>772</ele>
        <time>2019-03-29T14:11:30Z</time>
      </trkpt>
      <trkpt lat="44.47193" lon="5.69921">
        <ele>772</ele>
        <time>2019-03-29T14:11:31Z</time>
      </trkpt>
      <trkpt lat="44.47201" lon="5.69926">
        <ele>772</ele>
        <time>2019-03-29T14:11:32Z</time>
      </trkpt>
      <trkpt lat="44.47209" lon="5.69931">
        <ele>772</ele>
        <time>2019-03-29T14:11:33Z</time>
      </trkpt>
      <trkpt lat="44.47218" lon="5.69936">
        <ele>772</ele>
        <time>2019-03-29T14:11:34Z</time>
      </trkpt>
      <trkpt lat="44.47227" lon="5.69941">
        <ele>772</ele>
        <time>2019-03-29T14:11:35Z</time>
      </trkpt>
      <trkpt lat="44.47236" lon="5.69946">
        <ele>772</ele>
        <time>2019-03-29T14:11:36Z</time>
      </trkpt>
      <trkpt lat="44.47245" lon="5.69952">
        <ele>772</ele>
        <time>2019-03-29T14:11:37Z</time>
      </trkpt>
      <trkpt lat="44.47253" lon="5.69957">
        <ele>772</ele>
        <time>2019-03-29T14:11:38Z</time>
      </trkpt>
      <trkpt lat="44.47261" lon="5.69963">
        <ele>772</ele>
        <time>2019-03-29T14:11:39Z</time>
      </trkpt>
      <trkpt lat="44.47268" lon="5.69969">
        <ele>772</ele>
        <time>2019-03-29T14:11:40Z</time>
      </trkpt>
      <trkpt lat="44.47274" lon="5.69975">
        <ele>772</ele>
        <time>2019-03-29T14:11:41Z</time>
      </trkpt>
      <trkpt lat="44.4728" lon="5.69981">
        <ele>772</ele>
        <time>2019-03-29T14:11:42Z</time>
      </trkpt>
      <trkpt lat="44.47286" lon="5.69987">
        <ele>772</ele>
        <time>2019-03-29T14:11:43Z</time>
      </trkpt>
      <trkpt lat="44.47291" lon="5.69993">
        <ele>772</ele>
        <time>2019-03-29T14:11:44Z</time>
      </trkpt>
      <trkpt lat="44.47297" lon="5.69999">
        <ele>772</ele>
        <time>2019-03-29T14:11:45Z</time>
      </trkpt>
      <trkpt lat="44.47302" lon="5.70006">
        <ele>772</ele>
        <time>2019-03-29T14:11:46Z</time>
      </trkpt>
      <trkpt lat="44.47308" lon="5.70012">
        <ele>772</ele>
        <time>2019-03-29T14:11:47Z</time>
      </trkpt>
      <trkpt lat="44.47314" lon="5.70018">
        <ele>772</ele>
        <time>2019-03-29T14:11:48Z</time>
      </trkpt>
      <trkpt lat="44.4732" lon="5.70024">
        <ele>772</ele>
        <time>2019-03-29T14:11:49Z</time>
      </trkpt>
      <trkpt lat="44.47326" lon="5.7003">
        <ele>772</ele>
        <time>2019-03-29T14:11:50Z</time>
      </trkpt>
      <trkpt lat="44.47333" lon="5.70035">
        <ele>772</ele>
        <time>2019-03-29T14:11:51Z</time>
      </trkpt>
      <trkpt lat="44.4734" lon="5.70041">
        <ele>772</ele>
        <time>2019-03-29T14:11:52Z</time>
      </trkpt>
      <trkpt lat="44.47348" lon="5.70046">
        <ele>772</ele>
        <time>2019-03-29T14:11:53Z</time>
      </trkpt>
      <trkpt lat="44.47355" lon="5.70051">
        <ele>772</ele>
        <time>2019-03-29T14:11:54Z</time>
      </trkpt>
      <trkpt lat="44.47362" lon="5.70057">
        <ele>772</ele>
        <time>2019-03-29T14:11:55Z</time>
      </trkpt>
      <trkpt lat="44.4737" lon="5.70062">
        <ele>772</ele>
        <time>2019-03-29T14:11:56Z</time>
      </trkpt>
      <trkpt lat="44.47377" lon="5.70067">
        <ele>772</ele>
        <time>2019-03-29T14:11:57Z</time>
      </trkpt>
      <trkpt lat="44.47385" lon="5.70073">
        <ele>772</ele>
        <time>2019-03-29T14:11:58Z</time>
      </trkpt>
      <trkpt lat="44.47392" lon="5.70079">
        <ele>772</ele>
        <time>2019-03-29T14:11:59Z</time>
      </trkpt>
      <trkpt lat="44.474" lon="5.70085">
        <ele>772</ele>
        <time>2019-03-29T14:12:00Z</time>
      </trkpt>
      <trkpt lat="44.47408" lon="5.70091">
        <ele>772</ele>
        <time>2019-03-29T14:12:01Z</time>
      </trkpt>
      <trkpt lat="44.47416" lon="5.70097">
        <ele>771</ele>
        <time>2019-03-29T14:12:02Z</time>
      </trkpt>
      <trkpt lat="44.47425" lon="5.70102">
        <ele>771</ele>
        <time>2019-03-29T14:12:03Z</time>
      </trkpt>
      <trkpt lat="44.47434" lon="5.70106">
        <ele>770</ele>
        <time>2019-03-29T14:12:04Z</time>
      </trkpt>
      <trkpt lat="44.47442" lon="5.70111">
        <ele>770</ele>
        <time>2019-03-29T14:12:05Z</time>
      </trkpt>
      <trkpt lat="44.4745" lon="5.70116">
        <ele>769</ele>
        <time>2019-03-29T14:12:06Z</time>
      </trkpt>
      <trkpt lat="44.47457" lon="5.70122">
        <ele>768</ele>
        <time>2019-03-29T14:12:07Z</time>
      </trkpt>
      <trkpt lat="44.47464" lon="5.70131">
        <ele>768</ele>
        <time>2019-03-29T14:12:08Z</time>
      </trkpt>
      <trkpt lat="44.47468" lon="5.7014">
        <ele>767</ele>
        <time>2019-03-29T14:12:09Z</time>
      </trkpt>
      <trkpt lat="44.47471" lon="5.70151">
        <ele>766</ele>
        <time>2019-03-29T14:12:10Z</time>
      </trkpt>
      <trkpt lat="44.47472" lon="5.70162">
        <ele>766</ele>
        <time>2019-03-29T14:12:11Z</time>
      </trkpt>
      <trkpt lat="44.47472" lon="5.70174">
        <ele>765</ele>
        <time>2019-03-29T14:12:12Z</time>
      </trkpt>
      <trkpt lat="44.47472" lon="5.70185">
        <ele>765</ele>
        <time>2019-03-29T14:12:13Z</time>
      </trkpt>
      <trkpt lat="44.47471" lon="5.70197">
        <ele>764</ele>
        <time>2019-03-29T14:12:14Z</time>
      </trkpt>
      <trkpt lat="44.4747" lon="5.7021">
        <ele>763</ele>
        <time>2019-03-29T14:12:15Z</time>
      </trkpt>
      <trkpt lat="44.47471" lon="5.70223">
        <ele>763</ele>
        <time>2019-03-29T14:12:16Z</time>
      </trkpt>
      <trkpt lat="44.47473" lon="5.70236">
        <ele>762</ele>
        <time>2019-03-29T14:12:17Z</time>
      </trkpt>
      <trkpt lat="44.47476" lon="5.70248">
        <ele>761</ele>
        <time>2019-03-29T14:12:18Z</time>
      </trkpt>
      <trkpt lat="44.4748" lon="5.7026">
        <ele>761</ele>
        <time>2019-03-29T14:12:19Z</time>
      </trkpt>
      <trkpt lat="44.47484" lon="5.70272">
        <ele>760</ele>
        <time>2019-03-29T14:12:20Z</time>
      </trkpt>
      <trkpt lat="44.47488" lon="5.70285">
        <ele>759</ele>
        <time>2019-03-29T14:12:21Z</time>
      </trkpt>
      <trkpt lat="44.47493" lon="5.70297">
        <ele>758</ele>
        <time>2019-03-29T14:12:22Z</time>
      </trkpt>
      <trkpt lat="44.47498" lon="5.70311">
        <ele>758</ele>
        <time>2019-03-29T14:12:23Z</time>
      </trkpt>
      <trkpt lat="44.47503" lon="5.70324">
        <ele>757</ele>
        <time>2019-03-29T14:12:24Z</time>
      </trkpt>
      <trkpt lat="44.47508" lon="5.70338">
        <ele>756</ele>
        <time>2019-03-29T14:12:25Z</time>
      </trkpt>
      <trkpt lat="44.47513" lon="5.70352">
        <ele>755</ele>
        <time>2019-03-29T14:12:26Z</time>
      </trkpt>
      <trkpt lat="44.47519" lon="5.70367">
        <ele>754</ele>
        <time>2019-03-29T14:12:27Z</time>
      </trkpt>
      <trkpt lat="44.47525" lon="5.70381">
        <ele>753</ele>
        <time>2019-03-29T14:12:28Z</time>
      </trkpt>
      <trkpt lat="44.4753" lon="5.70395">
        <ele>752</ele>
        <time>2019-03-29T14:12:29Z</time>
      </trkpt>
      <trkpt lat="44.47536" lon="5.7041">
        <ele>751</ele>
        <time>2019-03-29T14:12:30Z</time>
      </trkpt>
      <trkpt lat="44.47542" lon="5.70424">
        <ele>750</ele>
        <time>2019-03-29T14:12:31Z</time>
      </trkpt>
      <trkpt lat="44.47547" lon="5.70438">
        <ele>750</ele>
        <time>2019-03-29T14:12:32Z</time>
      </trkpt>
      <trkpt lat="44.47551" lon="5.70453">
        <ele>749</ele>
        <time>2019-03-29T14:12:33Z</time>
      </trkpt>
      <trkpt lat="44.47556" lon="5.70468">
        <ele>748</ele>
        <time>2019-03-29T14:12:34Z</time>
      </trkpt>
      <trkpt lat="44.4756" lon="5.70483">
        <ele>748</ele>
        <time>2019-03-29T14:12:35Z</time>
      </trkpt>
      <trkpt lat="44.47564" lon="5.70498">
        <ele>747</ele>
        <time>2019-03-29T14:12:36Z</time>
      </trkpt>
      <trkpt lat="44.47569" lon="5.70513">
        <ele>746</ele>
        <time>2019-03-29T14:12:37Z</time>
      </trkpt>
      <trkpt lat="44.47573" lon="5.70528">
        <ele>746</ele>
        <time>2019-03-29T14:12:38Z</time>
      </trkpt>
      <trkpt lat="44.47577" lon="5.70543">
        <ele>745</ele>
        <time>2019-03-29T14:12:39Z</time>
      </trkpt>
      <trkpt lat="44.47582" lon="5.70559">
        <ele>744</ele>
        <time>2019-03-29T14:12:40Z</time>
      </trkpt>
      <trkpt lat="44.47586" lon="5.70575">
        <ele>743</ele>
        <time>2019-03-29T14:12:41Z</time>
      </trkpt>
      <trkpt lat="44.47591" lon="5.70592">
        <ele>743</ele>
        <time>2019-03-29T14:12:42Z</time>
      </trkpt>
      <trkpt lat="44.47595" lon="5.70608">
        <ele>742</ele>
        <time>2019-03-29T14:12:43Z</time>
      </trkpt>
      <trkpt lat="44.47599" lon="5.70625">
        <ele>741</ele>
        <time>2019-03-29T14:12:44Z</time>
      </trkpt>
      <trkpt lat="44.47603" lon="5.70642">
        <ele>740</ele>
        <time>2019-03-29T14:12:45Z</time>
      </trkpt>
      <trkpt lat="44.47607" lon="5.70658">
        <ele>739</ele>
        <time>2019-03-29T14:12:46Z</time>
      </trkpt>
      <trkpt lat="44.47611" lon="5.70676">
        <ele>738</ele>
        <time>2019-03-29T14:12:47Z</time>
      </trkpt>
      <trkpt lat="44.47614" lon="5.70693">
        <ele>737</ele>
        <time>2019-03-29T14:12:48Z</time>
      </trkpt>
      <trkpt lat="44.47618" lon="5.7071">
        <ele>736</ele>
        <time>2019-03-29T14:12:49Z</time>
      </trkpt>
      <trkpt lat="44.47622" lon="5.70727">
        <ele>735</ele>
        <time>2019-03-29T14:12:50Z</time>
      </trkpt>
      <trkpt lat="44.47625" lon="5.70744">
        <ele>734</ele>
        <time>2019-03-29T14:12:51Z</time>
      </trkpt>
      <trkpt lat="44.47629" lon="5.70761">
        <ele>734</ele>
        <time>2019-03-29T14:12:52Z</time>
      </trkpt>
      <trkpt lat="44.47633" lon="5.70778">
        <ele>733</ele>
        <time>2019-03-29T14:12:53Z</time>
      </trkpt>
      <trkpt lat="44.47636" lon="5.70794">
        <ele>732</ele>
        <time>2019-03-29T14:12:54Z</time>
      </trkpt>
      <trkpt lat="44.4764" lon="5.70811">
        <ele>731</ele>
        <time>2019-03-29T14:12:55Z</time>
      </trkpt>
      <trkpt lat="44.47643" lon="5.70828">
        <ele>731</ele>
        <time>2019-03-29T14:12:56Z</time>
      </trkpt>
      <trkpt lat="44.47647" lon="5.70844">
        <ele>730</ele>
        <time>2019-03-29T14:12:57Z</time>
      </trkpt>
      <trkpt lat="44.4765" lon="5.70861">
        <ele>729</ele>
        <time>2019-03-29T14:12:58Z</time>
      </trkpt>
      <trkpt lat="44.47654" lon="5.70877">
        <ele>729</ele>
        <time>2019-03-29T14:12:59Z</time>
      </trkpt>
      <trkpt lat="44.47659" lon="5.70892">
        <ele>728</ele>
        <time>2019-03-29T14:13:00Z</time>
      </trkpt>
      <trkpt lat="44.47663" lon="5.70907">
        <ele>727</ele>
        <time>2019-03-29T14:13:01Z</time>
      </trkpt>
      <trkpt lat="44.47669" lon="5.70922">
        <ele>726</ele>
        <time>2019-03-29T14:13:02Z</time>
      </trkpt>
      <trkpt lat="44.47675" lon="5.70936">
        <ele>726</ele>
        <time>2019-03-29T14:13:03Z</time>
      </trkpt>
      <trkpt lat="44.47681" lon="5.7095">
        <ele>725</ele>
        <time>2019-03-29T14:13:04Z</time>
      </trkpt>
      <trkpt lat="44.47688" lon="5.70963">
        <ele>724</ele>
        <time>2019-03-29T14:13:05Z</time>
      </trkpt>
      <trkpt lat="44.47694" lon="5.70977">
        <ele>723</ele>
        <time>2019-03-29T14:13:06Z</time>
      </trkpt>
      <trkpt lat="44.477" lon="5.70992">
        <ele>723</ele>
        <time>2019-03-29T14:13:07Z</time>
      </trkpt>
      <trkpt lat="44.47706" lon="5.71006">
        <ele>722</ele>
        <time>2019-03-29T14:13:08Z</time>
      </trkpt>
      <trkpt lat="44.47712" lon="5.71021">
        <ele>721</ele>
        <time>2019-03-29T14:13:09Z</time>
      </trkpt>
      <trkpt lat="44.47718" lon="5.71035">
        <ele>720</ele>
        <time>2019-03-29T14:13:10Z</time>
      </trkpt>
      <trkpt lat="44.47724" lon="5.71049">
        <ele>720</ele>
        <time>2019-03-29T14:13:11Z</time>
      </trkpt>
      <trkpt lat="44.4773" lon="5.71063">
        <ele>719</ele>
        <time>2019-03-29T14:13:12Z</time>
      </trkpt>
      <trkpt lat="44.47736" lon="5.71077">
        <ele>718</ele>
        <time>2019-03-29T14:13:13Z</time>
      </trkpt>
      <trkpt lat="44.47741" lon="5.71091">
        <ele>718</ele>
        <time>2019-03-29T14:13:14Z</time>
      </trkpt>
      <trkpt lat="44.47747" lon="5.71105">
        <ele>717</ele>
        <time>2019-03-29T14:13:15Z</time>
      </trkpt>
      <trkpt lat="44.47752" lon="5.71119">
        <ele>717</ele>
        <time>2019-03-29T14:13:16Z</time>
      </trkpt>
      <trkpt lat="44.47757" lon="5.71134">
        <ele>716</ele>
        <time>2019-03-29T14:13:17Z</time>
      </trkpt>
      <trkpt lat="44.47761" lon="5.71148">
        <ele>716</ele>
        <time>2019-03-29T14:13:18Z</time>
      </trkpt>
      <trkpt lat="44.47765" lon="5.71162">
        <ele>716</ele>
        <time>2019-03-29T14:13:19Z</time>
      </trkpt>
      <trkpt lat="44.47768" lon="5.71176">
        <ele>715</ele>
        <time>2019-03-29T14:13:20Z</time>
      </trkpt>
      <trkpt lat="44.47772" lon="5.71189">
        <ele>715</ele>
        <time>2019-03-29T14:13:21Z</time>
      </trkpt>
      <trkpt lat="44.47775" lon="5.71202">
        <ele>715</ele>
        <time>2019-03-29T14:13:22Z</time>
      </trkpt>
      <trkpt lat="44.47778" lon="5.71215">
        <ele>715</ele>
        <time>2019-03-29T14:13:23Z</time>
      </trkpt>
      <trkpt lat="44.47781" lon="5.71227">
        <ele>715</ele>
        <time>2019-03-29T14:13:24Z</time>
      </trkpt>
      <trkpt lat="44.47784" lon="5.7124">
        <ele>715</ele>
        <time>2019-03-29T14:13:25Z</time>
      </trkpt>
      <trkpt lat="44.47787" lon="5.71252">
        <ele>715</ele>
        <time>2019-03-29T14:13:26Z</time>
      </trkpt>
      <trkpt lat="44.4779" lon="5.71264">
        <ele>715</ele>
        <time>2019-03-29T14:13:27Z</time>
      </trkpt>
      <trkpt lat="44.47793" lon="5.71276">
        <ele>715</ele>
        <time>2019-03-29T14:13:28Z</time>
      </trkpt>
      <trkpt lat="44.47795" lon="5.71286">
        <ele>715</ele>
        <time>2019-03-29T14:13:29Z</time>
      </trkpt>
      <trkpt lat="44.47798" lon="5.71297">
        <ele>715</ele>
        <time>2019-03-29T14:13:30Z</time>
      </trkpt>
      <trkpt lat="44.47801" lon="5.71308">
        <ele>715</ele>
        <time>2019-03-29T14:13:31Z</time>
      </trkpt>
      <trkpt lat="44.47804" lon="5.71318">
        <ele>715</ele>
        <time>2019-03-29T14:13:32Z</time>
      </trkpt>
      <trkpt lat="44.47808" lon="5.71329">
        <ele>715</ele>
        <time>2019-03-29T14:13:33Z</time>
      </trkpt>
      <trkpt lat="44.47812" lon="5.7134">
        <ele>715</ele>
        <time>2019-03-29T14:13:34Z</time>
      </trkpt>
      <trkpt lat="44.47816" lon="5.71351">
        <ele>715</ele>
        <time>2019-03-29T14:13:35Z</time>
      </trkpt>
      <trkpt lat="44.47822" lon="5.71361">
        <ele>715</ele>
        <time>2019-03-29T14:13:36Z</time>
      </trkpt>
      <trkpt lat="44.47827" lon="5.71372">
        <ele>715</ele>
        <time>2019-03-29T14:13:37Z</time>
      </trkpt>
      <trkpt lat="44.47833" lon="5.71382">
        <ele>714</ele>
        <time>2019-03-29T14:13:38Z</time>
      </trkpt>
      <trkpt lat="44.47839" lon="5.71393">
        <ele>714</ele>
        <time>2019-03-29T14:13:39Z</time>
      </trkpt>
      <trkpt lat="44.47845" lon="5.71403">
        <ele>714</ele>
        <time>2019-03-29T14:13:40Z</time>
      </trkpt>
      <trkpt lat="44.47851" lon="5.71413">
        <ele>713</ele>
        <time>2019-03-29T14:13:41Z</time>
      </trkpt>
      <trkpt lat="44.47857" lon="5.71422">
        <ele>713</ele>
        <time>2019-03-29T14:13:42Z</time>
      </trkpt>
      <trkpt lat="44.47863" lon="5.71432">
        <ele>713</ele>
        <time>2019-03-29T14:13:43Z</time>
      </trkpt>
      <trkpt lat="44.47868" lon="5.71441">
        <ele>713</ele>
        <time>2019-03-29T14:13:44Z</time>
      </trkpt>
      <trkpt lat="44.47874" lon="5.7145">
        <ele>713</ele>
        <time>2019-03-29T14:13:45Z</time>
      </trkpt>
      <trkpt lat="44.47881" lon="5.71458">
        <ele>713</ele>
        <time>2019-03-29T14:13:46Z</time>
      </trkpt>
      <trkpt lat="44.47887" lon="5.71466">
        <ele>712</ele>
        <time>2019-03-29T14:13:47Z</time>
      </trkpt>
      <trkpt lat="44.47895" lon="5.71473">
        <ele>712</ele>
        <time>2019-03-29T14:13:48Z</time>
      </trkpt>
      <trkpt lat="44.47903" lon="5.71478">
        <ele>712</ele>
        <time>2019-03-29T14:13:49Z</time>
      </trkpt>
      <trkpt lat="44.47911" lon="5.71483">
        <ele>712</ele>
        <time>2019-03-29T14:13:50Z</time>
      </trkpt>
      <trkpt lat="44.4792" lon="5.71488">
        <ele>711</ele>
        <time>2019-03-29T14:13:51Z</time>
      </trkpt>
      <trkpt lat="44.47929" lon="5.71493">
        <ele>711</ele>
        <time>2019-03-29T14:13:52Z</time>
      </trkpt>
      <trkpt lat="44.47937" lon="5.71499">
        <ele>711</ele>
        <time>2019-03-29T14:13:53Z</time>
      </trkpt>
      <trkpt lat="44.47945" lon="5.71505">
        <ele>710</ele>
        <time>2019-03-29T14:13:54Z</time>
      </trkpt>
      <trkpt lat="44.47953" lon="5.71512">
        <ele>710</ele>
        <time>2019-03-29T14:13:55Z</time>
      </trkpt>
      <trkpt lat="44.47961" lon="5.7152">
        <ele>710</ele>
        <time>2019-03-29T14:13:56Z</time>
      </trkpt>
      <trkpt lat="44.47968" lon="5.71527">
        <ele>709</ele>
        <time>2019-03-29T14:13:57Z</time>
      </trkpt>
      <trkpt lat="44.47976" lon="5.71535">
        <ele>709</ele>
        <time>2019-03-29T14:13:58Z</time>
      </trkpt>
      <trkpt lat="44.47984" lon="5.71542">
        <ele>709</ele>
        <time>2019-03-29T14:13:59Z</time>
      </trkpt>
      <trkpt lat="44.47992" lon="5.7155">
        <ele>709</ele>
        <time>2019-03-29T14:14:00Z</time>
      </trkpt>
      <trkpt lat="44.47999" lon="5.71557">
        <ele>708</ele>
        <time>2019-03-29T14:14:01Z</time>
      </trkpt>
      <trkpt lat="44.48008" lon="5.71564">
        <ele>708</ele>
        <time>2019-03-29T14:14:02Z</time>
      </trkpt>
      <trkpt lat="44.48016" lon="5.7157">
        <ele>708</ele>
        <time>2019-03-29T14:14:03Z</time>
      </trkpt>
      <trkpt lat="44.48024" lon="5.71575">
        <ele>708</ele>
        <time>2019-03-29T14:14:04Z</time>
      </trkpt>
      <trkpt lat="44.48034" lon="5.71579">
        <ele>707</ele>
        <time>2019-03-29T14:14:05Z</time>
      </trkpt>
      <trkpt lat="44.48042" lon="5.71583">
        <ele>707</ele>
        <time>2019-03-29T14:14:06Z</time>
      </trkpt>
      <trkpt lat="44.48051" lon="5.71588">
        <ele>707</ele>
        <time>2019-03-29T14:14:07Z</time>
      </trkpt>
      <trkpt lat="44.48059" lon="5.71595">
        <ele>707</ele>
        <time>2019-03-29T14:14:08Z</time>
      </trkpt>
      <trkpt lat="44.48066" lon="5.71603">
        <ele>706</ele>
        <time>2019-03-29T14:14:09Z</time>
      </trkpt>
      <trkpt lat="44.4807" lon="5.71613">
        <ele>706</ele>
        <time>2019-03-29T14:14:10Z</time>
      </trkpt>
      <trkpt lat="44.48072" lon="5.71624">
        <ele>706</ele>
        <time>2019-03-29T14:14:11Z</time>
      </trkpt>
      <trkpt lat="44.48073" lon="5.71635">
        <ele>706</ele>
        <time>2019-03-29T14:14:12Z</time>
      </trkpt>
      <trkpt lat="44.48072" lon="5.71645">
        <ele>706</ele>
        <time>2019-03-29T14:14:13Z</time>
      </trkpt>
      <trkpt lat="44.48071" lon="5.71656">
        <ele>705</ele>
        <time>2019-03-29T14:14:14Z</time>
      </trkpt>
      <trkpt lat="44.48069" lon="5.71667">
        <ele>705</ele>
        <time>2019-03-29T14:14:15Z</time>
      </trkpt>
      <trkpt lat="44.48068" lon="5.71677">
        <ele>705</ele>
        <time>2019-03-29T14:14:16Z</time>
      </trkpt>
      <trkpt lat="44.48069" lon="5.71688">
        <ele>705</ele>
        <time>2019-03-29T14:14:17Z</time>
      </trkpt>
      <trkpt lat="44.48071" lon="5.71697">
        <ele>705</ele>
        <time>2019-03-29T14:14:18Z</time>
      </trkpt>
      <trkpt lat="44.48074" lon="5.71706">
        <ele>705</ele>
        <time>2019-03-29T14:14:19Z</time>
      </trkpt>
      <trkpt lat="44.48079" lon="5.71714">
        <ele>705</ele>
        <time>2019-03-29T14:14:20Z</time>
      </trkpt>
      <trkpt lat="44.48084" lon="5.71721">
        <ele>705</ele>
        <time>2019-03-29T14:14:21Z</time>
      </trkpt>
      <trkpt lat="44.48089" lon="5.71729">
        <ele>705</ele>
        <time>2019-03-29T14:14:22Z</time>
      </trkpt>
      <trkpt lat="44.48094" lon="5.71737">
        <ele>705</ele>
        <time>2019-03-29T14:14:23Z</time>
      </trkpt>
      <trkpt lat="44.48098" lon="5.71746">
        <ele>705</ele>
        <time>2019-03-29T14:14:24Z</time>
      </trkpt>
      <trkpt lat="44.48102" lon="5.71755">
        <ele>705</ele>
        <time>2019-03-29T14:14:25Z</time>
      </trkpt>
      <trkpt lat="44.48106" lon="5.71765">
        <ele>705</ele>
        <time>2019-03-29T14:14:26Z</time>
      </trkpt>
      <trkpt lat="44.48109" lon="5.71775">
        <ele>705</ele>
        <time>2019-03-29T14:14:27Z</time>
      </trkpt>
      <trkpt lat="44.48112" lon="5.71785">
        <ele>705</ele>
        <time>2019-03-29T14:14:28Z</time>
      </trkpt>
      <trkpt lat="44.48115" lon="5.71795">
        <ele>705</ele>
        <time>2019-03-29T14:14:29Z</time>
      </trkpt>
      <trkpt lat="44.48119" lon="5.71804">
        <ele>705</ele>
        <time>2019-03-29T14:14:30Z</time>
      </trkpt>
      <trkpt lat="44.48124" lon="5.71813">
        <ele>705</ele>
        <time>2019-03-29T14:14:31Z</time>
      </trkpt>
      <trkpt lat="44.48129" lon="5.71821">
        <ele>705</ele>
        <time>2019-03-29T14:14:32Z</time>
      </trkpt>
      <trkpt lat="44.48135" lon="5.71827">
        <ele>705</ele>
        <time>2019-03-29T14:14:33Z</time>
      </trkpt>
      <trkpt lat="44.48142" lon="5.71832">
        <ele>705</ele>
        <time>2019-03-29T14:14:34Z</time>
      </trkpt>
      <trkpt lat="44.48149" lon="5.71836">
        <ele>705</ele>
        <time>2019-03-29T14:14:35Z</time>
      </trkpt>
      <trkpt lat="44.48156" lon="5.7184">
        <ele>705</ele>
        <time>2019-03-29T14:14:36Z</time>
      </trkpt>
      <trkpt lat="44.48162" lon="5.71844">
        <ele>705</ele>
        <time>2019-03-29T14:14:37Z</time>
      </trkpt>
      <trkpt lat="44.48169" lon="5.71847">
        <ele>705</ele>
        <time>2019-03-29T14:14:38Z</time>
      </trkpt>
      <trkpt lat="44.48176" lon="5.7185">
        <ele>705</ele>
        <time>2019-03-29T14:14:39Z</time>
      </trkpt>
      <trkpt lat="44.48183" lon="5.71853">
        <ele>705</ele>
        <time>2019-03-29T14:14:40Z</time>
      </trkpt>
      <trkpt lat="44.4819" lon="5.71855">
        <ele>705</ele>
        <time>2019-03-29T14:14:41Z</time>
      </trkpt>
      <trkpt lat="44.48197" lon="5.71858">
        <ele>705</ele>
        <time>2019-03-29T14:14:42Z</time>
      </trkpt>
      <trkpt lat="44.48204" lon="5.71861">
        <ele>705</ele>
        <time>2019-03-29T14:14:43Z</time>
      </trkpt>
      <trkpt lat="44.48211" lon="5.71864">
        <ele>705</ele>
        <time>2019-03-29T14:14:44Z</time>
      </trkpt>
      <trkpt lat="44.48217" lon="5.71866">
        <ele>705</ele>
        <time>2019-03-29T14:14:45Z</time>
      </trkpt>
      <trkpt lat="44.48224" lon="5.71869">
        <ele>705</ele>
        <time>2019-03-29T14:14:46Z</time>
      </trkpt>
      <trkpt lat="44.48231" lon="5.71872">
        <ele>705</ele>
        <time>2019-03-29T14:14:47Z</time>
      </trkpt>
      <trkpt lat="44.48238" lon="5.71874">
        <ele>705</ele>
        <time>2019-03-29T14:14:48Z</time>
      </trkpt>
      <trkpt lat="44.48244" lon="5.71877">
        <ele>705</ele>
        <time>2019-03-29T14:14:49Z</time>
      </trkpt>
      <trkpt lat="44.4825" lon="5.71881">
        <ele>705</ele>
        <time>2019-03-29T14:14:50Z</time>
      </trkpt>
      <trkpt lat="44.48255" lon="5.71886">
        <ele>705</ele>
        <time>2019-03-29T14:14:51Z</time>
      </trkpt>
      <trkpt lat="44.4826" lon="5.71892">
        <ele>705</ele>
        <time>2019-03-29T14:14:52Z</time>
      </trkpt>
      <trkpt lat="44.48264" lon="5.719">
        <ele>705</ele>
        <time>2019-03-29T14:14:53Z</time>
      </trkpt>
      <trkpt lat="44.48266" lon="5.71908">
        <ele>705</ele>
        <time>2019-03-29T14:14:54Z</time>
      </trkpt>
      <trkpt lat="44.48268" lon="5.71916">
        <ele>705</ele>
        <time>2019-03-29T14:14:55Z</time>
      </trkpt>
      <trkpt lat="44.48269" lon="5.71924">
        <ele>705</ele>
        <time>2019-03-29T14:14:56Z</time>
      </trkpt>
      <trkpt lat="44.48271" lon="5.71933">
        <ele>705</ele>
        <time>2019-03-29T14:14:57Z</time>
      </trkpt>
      <trkpt lat="44.48272" lon="5.71942">
        <ele>705</ele>
        <time>2019-03-29T14:14:58Z</time>
      </trkpt>
      <trkpt lat="44.48273" lon="5.7195">
        <ele>705</ele>
        <time>2019-03-29T14:14:59Z</time>
      </trkpt>
      <trkpt lat="44.48275" lon="5.71959">
        <ele>705</ele>
        <time>2019-03-29T14:15:00Z</time>
      </trkpt>
      <trkpt lat="44.48276" lon="5.71968">
        <ele>705</ele>
        <time>2019-03-29T14:15:01Z</time>
      </trkpt>
      <trkpt lat="44.48278" lon="5.71976">
        <ele>705</ele>
        <time>2019-03-29T14:15:02Z</time>
      </trkpt>
      <trkpt lat="44.4828" lon="5.71985">
        <ele>705</ele>
        <time>2019-03-29T14:15:03Z</time>
      </trkpt>
      <trkpt lat="44.48281" lon="5.71994">
        <ele>705</ele>
        <time>2019-03-29T14:15:04Z</time>
      </trkpt>
      <trkpt lat="44.48283" lon="5.72003">
        <ele>705</ele>
        <time>2019-03-29T14:15:05Z</time>
      </trkpt>
      <trkpt lat="44.48285" lon="5.72012">
        <ele>705</ele>
        <time>2019-03-29T14:15:06Z</time>
      </trkpt>
      <trkpt lat="44.48286" lon="5.72021">
        <ele>705</ele>
        <time>2019-03-29T14:15:07Z</time>
      </trkpt>
      <trkpt lat="44.48288" lon="5.7203">
        <ele>705</ele>
        <time>2019-03-29T14:15:08Z</time>
      </trkpt>
      <trkpt lat="44.4829" lon="5.72039">
        <ele>705</ele>
        <time>2019-03-29T14:15:09Z</time>
      </trkpt>
      <trkpt lat="44.48291" lon="5.72048">
        <ele>705</ele>
        <time>2019-03-29T14:15:10Z</time>
      </trkpt>
      <trkpt lat="44.48293" lon="5.72056">
        <ele>705</ele>
        <time>2019-03-29T14:15:11Z</time>
      </trkpt>
      <trkpt lat="44.48294" lon="5.72065">
        <ele>705</ele>
        <time>2019-03-29T14:15:12Z</time>
      </trkpt>
      <trkpt lat="44.48297" lon="5.72073">
        <ele>705</ele>
        <time>2019-03-29T14:15:13Z</time>
      </trkpt>
      <trkpt lat="44.48301" lon="5.7208">
        <ele>705</ele>
        <time>2019-03-29T14:15:14Z</time>
      </trkpt>
      <trkpt lat="44.48305" lon="5.72086">
        <ele>705</ele>
        <time>2019-03-29T14:15:15Z</time>
      </trkpt>
      <trkpt lat="44.4831" lon="5.72091">
        <ele>705</ele>
        <time>2019-03-29T14:15:16Z</time>
      </trkpt>
      <trkpt lat="44.48315" lon="5.72094">
        <ele>705</ele>
        <time>2019-03-29T14:15:17Z</time>
      </trkpt>
      <trkpt lat="44.48321" lon="5.72098">
        <ele>705</ele>
        <time>2019-03-29T14:15:18Z</time>
      </trkpt>
      <trkpt lat="44.48327" lon="5.72101">
        <ele>705</ele>
        <time>2019-03-29T14:15:19Z</time>
      </trkpt>
      <trkpt lat="44.48333" lon="5.72104">
        <ele>705</ele>
        <time>2019-03-29T14:15:20Z</time>
      </trkpt>
      <trkpt lat="44.48339" lon="5.72107">
        <ele>705</ele>
        <time>2019-03-29T14:15:21Z</time>
      </trkpt>
      <trkpt lat="44.48344" lon="5.72109">
        <ele>705</ele>
        <time>2019-03-29T14:15:22Z</time>
      </trkpt>
      <trkpt lat="44.4835" lon="5.72112">
        <ele>705</ele>
        <time>2019-03-29T14:15:23Z</time>
      </trkpt>
      <trkpt lat="44.48356" lon="5.72115">
        <ele>705</ele>
        <time>2019-03-29T14:15:24Z</time>
      </trkpt>
      <trkpt lat="44.48362" lon="5.72118">
        <ele>705</ele>
        <time>2019-03-29T14:15:25Z</time>
      </trkpt>
      <trkpt lat="44.48367" lon="5.72121">
        <ele>705</ele>
        <time>2019-03-29T14:15:26Z</time>
      </trkpt>
      <trkpt lat="44.48373" lon="5.72123">
        <ele>705</ele>
        <time>2019-03-29T14:15:27Z</time>
      </trkpt>
      <trkpt lat="44.48379" lon="5.72126">
        <ele>705</ele>
        <time>2019-03-29T14:15:28Z</time>
      </trkpt>
      <trkpt lat="44.48385" lon="5.72129">
        <ele>705</ele>
        <time>2019-03-29T14:15:29Z</time>
      </trkpt>
      <trkpt lat="44.48391" lon="5.72132">
        <ele>705</ele>
        <time>2019-03-29T14:15:30Z</time>
      </trkpt>
      <trkpt lat="44.48396" lon="5.72135">
        <ele>705</ele>
        <time>2019-03-29T14:15:31Z</time>
      </trkpt>
      <trkpt lat="44.48402" lon="5.72138">
        <ele>705</ele>
        <time>2019-03-29T14:15:32Z</time>
      </trkpt>
      <trkpt lat="44.48408" lon="5.72141">
        <ele>705</ele>
        <time>2019-03-29T14:15:33Z</time>
      </trkpt>
      <trkpt lat="44.48413" lon="5.72144">
        <ele>705</ele>
        <time>2019-03-29T14:15:34Z</time>
      </trkpt>
      <trkpt lat="44.48419" lon="5.72147">
        <ele>705</ele>
        <time>2019-03-29T14:15:35Z</time>
      </trkpt>
      <trkpt lat="44.48425" lon="5.7215">
        <ele>705</ele>
        <time>2019-03-29T14:15:36Z</time>
      </trkpt>
      <trkpt lat="44.48431" lon="5.72153">
        <ele>705</ele>
        <time>2019-03-29T14:15:37Z</time>
      </trkpt>
      <trkpt lat="44.48436" lon="5.72156">
        <ele>705</ele>
        <time>2019-03-29T14:15:38Z</time>
      </trkpt>
      <trkpt lat="44.48441" lon="5.72158">
        <ele>705</ele>
        <time>2019-03-29T14:15:39Z</time>
      </trkpt>
      <trkpt lat="44.48447" lon="5.72161">
        <ele>705</ele>
        <time>2019-03-29T14:15:40Z</time>
      </trkpt>
      <trkpt lat="44.48452" lon="5.72164">
        <ele>705</ele>
        <time>2019-03-29T14:15:41Z</time>
      </trkpt>
      <trkpt lat="44.48458" lon="5.72167">
        <ele>705</ele>
        <time>2019-03-29T14:15:42Z</time>
      </trkpt>
      <trkpt lat="44.48463" lon="5.7217">
        <ele>705</ele>
        <time>2019-03-29T14:15:43Z</time>
      </trkpt>
      <trkpt lat="44.48469" lon="5.72172">
        <ele>705</ele>
        <time>2019-03-29T14:15:44Z</time>
      </trkpt>
      <trkpt lat="44.48475" lon="5.72175">
        <ele>705</ele>
        <time>2019-03-29T14:15:45Z</time>
      </trkpt>
      <trkpt lat="44.4848" lon="5.72178">
        <ele>705</ele>
        <time>2019-03-29T14:15:46Z</time>
      </trkpt>
      <trkpt lat="44.48485" lon="5.7218">
        <ele>705</ele>
        <time>2019-03-29T14:15:47Z</time>
      </trkpt>
      <trkpt lat="44.4849" lon="5.72183">
        <ele>705</ele>
        <time>2019-03-29T14:15:48Z</time>
      </trkpt>
      <trkpt lat="44.48495" lon="5.72186">
        <ele>705</ele>
        <time>2019-03-29T14:15:49Z</time>
      </trkpt>
      <trkpt lat="44.485" lon="5.72188">
        <ele>705</ele>
        <time>2019-03-29T14:15:50Z</time>
      </trkpt>
      <trkpt lat="44.48506" lon="5.72191">
        <ele>705</ele>
        <time>2019-03-29T14:15:51Z</time>
      </trkpt>
      <trkpt lat="44.48511" lon="5.72194">
        <ele>705</ele>
        <time>2019-03-29T14:15:52Z</time>
      </trkpt>
      <trkpt lat="44.48517" lon="5.72197">
        <ele>705</ele>
        <time>2019-03-29T14:15:53Z</time>
      </trkpt>
      <trkpt lat="44.48522" lon="5.722">
        <ele>705</ele>
        <time>2019-03-29T14:15:54Z</time>
      </trkpt>
      <trkpt lat="44.48528" lon="5.72202">
        <ele>705</ele>
        <time>2019-03-29T14:15:55Z</time>
      </trkpt>
      <trkpt lat="44.48533" lon="5.72205">
        <ele>705</ele>
        <time>2019-03-29T14:15:56Z</time>
      </trkpt>
      <trkpt lat="44.48539" lon="5.72207">
        <ele>705</ele>
        <time>2019-03-29T14:15:57Z</time>
      </trkpt>
      <trkpt lat="44.48544" lon="5.7221">
        <ele>705</ele>
        <time>2019-03-29T14:15:58Z</time>
      </trkpt>
      <trkpt lat="44.48549" lon="5.72213">
        <ele>705</ele>
        <time>2019-03-29T14:15:59Z</time>
      </trkpt>
      <trkpt lat="44.48555" lon="5.72216">
        <ele>705</ele>
        <time>2019-03-29T14:16:00Z</time>
      </trkpt>
      <trkpt lat="44.4856" lon="5.72218">
        <ele>705</ele>
        <time>2019-03-29T14:16:01Z</time>
      </trkpt>
      <trkpt lat="44.48566" lon="5.72221">
        <ele>705</ele>
        <time>2019-03-29T14:16:02Z</time>
      </trkpt>
      <trkpt lat="44.48571" lon="5.72224">
        <ele>705</ele>
        <time>2019-03-29T14:16:03Z</time>
      </trkpt>
      <trkpt lat="44.48576" lon="5.72226">
        <ele>705</ele>
        <time>2019-03-29T14:16:04Z</time>
      </trkpt>
      <trkpt lat="44.48582" lon="5.72228">
        <ele>705</ele>
        <time>2019-03-29T14:16:05Z</time>
      </trkpt>
      <trkpt lat="44.48587" lon="5.72231">
        <ele>705</ele>
        <time>2019-03-29T14:16:06Z</time>
      </trkpt>
      <trkpt lat="44.48593" lon="5.72234">
        <ele>705</ele>
        <time>2019-03-29T14:16:07Z</time>
      </trkpt>
      <trkpt lat="44.48598" lon="5.72237">
        <ele>705</ele>
        <time>2019-03-29T14:16:08Z</time>
      </trkpt>
      <trkpt lat="44.48604" lon="5.72239">
        <ele>705</ele>
        <time>2019-03-29T14:16:09Z</time>
      </trkpt>
      <trkpt lat="44.4861" lon="5.72242">
        <ele>706</ele>
        <time>2019-03-29T14:16:10Z</time>
      </trkpt>
      <trkpt lat="44.48616" lon="5.72244">
        <ele>706</ele>
        <time>2019-03-29T14:16:11Z</time>
      </trkpt>
      <trkpt lat="44.48622" lon="5.72245">
        <ele>706</ele>
        <time>2019-03-29T14:16:12Z</time>
      </trkpt>
      <trkpt lat="44.48628" lon="5.72246">
        <ele>706</ele>
        <time>2019-03-29T14:16:13Z</time>
      </trkpt>
      <trkpt lat="44.48634" lon="5.72247">
        <ele>706</ele>
        <time>2019-03-29T14:16:14Z</time>
      </trkpt>
      <trkpt lat="44.4864" lon="5.72247">
        <ele>706</ele>
        <time>2019-03-29T14:16:15Z</time>
      </trkpt>
      <trkpt lat="44.48646" lon="5.72247">
        <ele>706</ele>
        <time>2019-03-29T14:16:16Z</time>
      </trkpt>
      <trkpt lat="44.48652" lon="5.72247">
        <ele>706</ele>
        <time>2019-03-29T14:16:17Z</time>
      </trkpt>
      <trkpt lat="44.48658" lon="5.72246">
        <ele>706</ele>
        <time>2019-03-29T14:16:18Z</time>
      </trkpt>
      <trkpt lat="44.48664" lon="5.72245">
        <ele>706</ele>
        <time>2019-03-29T14:16:19Z</time>
      </trkpt>
      <trkpt lat="44.4867" lon="5.72244">
        <ele>706</ele>
        <time>2019-03-29T14:16:20Z</time>
      </trkpt>
      <trkpt lat="44.48677" lon="5.72244">
        <ele>706</ele>
        <time>2019-03-29T14:16:21Z</time>
      </trkpt>
      <trkpt lat="44.48682" lon="5.72243">
        <ele>706</ele>
        <time>2019-03-29T14:16:22Z</time>
      </trkpt>
      <trkpt lat="44.48688" lon="5.72242">
        <ele>706</ele>
        <time>2019-03-29T14:16:23Z</time>
      </trkpt>
      <trkpt lat="44.48694" lon="5.72242">
        <ele>706</ele>
        <time>2019-03-29T14:16:24Z</time>
      </trkpt>
      <trkpt lat="44.487" lon="5.72242">
        <ele>706</ele>
        <time>2019-03-29T14:16:25Z</time>
      </trkpt>
      <trkpt lat="44.48705" lon="5.72241">
        <ele>706</ele>
        <time>2019-03-29T14:16:26Z</time>
      </trkpt>
      <trkpt lat="44.48711" lon="5.7224">
        <ele>706</ele>
        <time>2019-03-29T14:16:27Z</time>
      </trkpt>
      <trkpt lat="44.48715" lon="5.7224">
        <ele>706</ele>
        <time>2019-03-29T14:16:28Z</time>
      </trkpt>
      <trkpt lat="44.4872" lon="5.72242">
        <ele>706</ele>
        <time>2019-03-29T14:16:29Z</time>
      </trkpt>
      <trkpt lat="44.48723" lon="5.72246">
        <ele>707</ele>
        <time>2019-03-29T14:16:30Z</time>
      </trkpt>
      <trkpt lat="44.48726" lon="5.72251">
        <ele>707</ele>
        <time>2019-03-29T14:16:31Z</time>
      </trkpt>
      <trkpt lat="44.48727" lon="5.72256">
        <ele>708</ele>
        <time>2019-03-29T14:16:32Z</time>
      </trkpt>
      <trkpt lat="44.48729" lon="5.72262">
        <ele>708</ele>
        <time>2019-03-29T14:16:33Z</time>
      </trkpt>
      <trkpt lat="44.48731" lon="5.72267">
        <ele>708</ele>
        <time>2019-03-29T14:16:34Z</time>
      </trkpt>
      <trkpt lat="44.48733" lon="5.72273">
        <ele>708</ele>
        <time>2019-03-29T14:16:35Z</time>
      </trkpt>
      <trkpt lat="44.48734" lon="5.72279">
        <ele>708</ele>
        <time>2019-03-29T14:16:36Z</time>
      </trkpt>
      <trkpt lat="44.48734" lon="5.72285">
        <ele>708</ele>
        <time>2019-03-29T14:16:37Z</time>
      </trkpt>
      <trkpt lat="44.48735" lon="5.72292">
        <ele>708</ele>
        <time>2019-03-29T14:16:38Z</time>
      </trkpt>
      <trkpt lat="44.48736" lon="5.72298">
        <ele>708</ele>
        <time>2019-03-29T14:16:39Z</time>
      </trkpt>
      <trkpt lat="44.48736" lon="5.72306">
        <ele>708</ele>
        <time>2019-03-29T14:16:40Z</time>
      </trkpt>
      <trkpt lat="44.48735" lon="5.72313">
        <ele>708</ele>
        <time>2019-03-29T14:16:41Z</time>
      </trkpt>
      <trkpt lat="44.48735" lon="5.72321">
        <ele>708</ele>
        <time>2019-03-29T14:16:42Z</time>
      </trkpt>
      <trkpt lat="44.48735" lon="5.72328">
        <ele>708</ele>
        <time>2019-03-29T14:16:43Z</time>
      </trkpt>
      <trkpt lat="44.48735" lon="5.72336">
        <ele>708</ele>
        <time>2019-03-29T14:16:44Z</time>
      </trkpt>
      <trkpt lat="44.48735" lon="5.72343">
        <ele>708</ele>
        <time>2019-03-29T14:16:45Z</time>
      </trkpt>
      <trkpt lat="44.48736" lon="5.72351">
        <ele>709</ele>
        <time>2019-03-29T14:16:46Z</time>
      </trkpt>
      <trkpt lat="44.48736" lon="5.72358">
        <ele>709</ele>
        <time>2019-03-29T14:16:47Z</time>
      </trkpt>
      <trkpt lat="44.48736" lon="5.72366">
        <ele>709</ele>
        <time>2019-03-29T14:16:48Z</time>
      </trkpt>
      <trkpt lat="44.48736" lon="5.72373">
        <ele>709</ele>
        <time>2019-03-29T14:16:49Z</time>
      </trkpt>
      <trkpt lat="44.48737" lon="5.72381">
        <ele>709</ele>
        <time>2019-03-29T14:16:50Z</time>
      </trkpt>
      <trkpt lat="44.48737" lon="5.72388">
        <ele>709</ele>
        <time>2019-03-29T14:16:51Z</time>
      </trkpt>
      <trkpt lat="44.48738" lon="5.72395">
        <ele>709</ele>
        <time>2019-03-29T14:16:52Z</time>
      </trkpt>
      <trkpt lat="44.4874" lon="5.72402">
        <ele>709</ele>
        <time>2019-03-29T14:16:53Z</time>
      </trkpt>
      <trkpt lat="44.48743" lon="5.72408">
        <ele>709</ele>
        <time>2019-03-29T14:16:54Z</time>
      </trkpt>
      <trkpt lat="44.48745" lon="5.72415">
        <ele>709</ele>
        <time>2019-03-29T14:16:55Z</time>
      </trkpt>
      <trkpt lat="44.48748" lon="5.7242">
        <ele>710</ele>
        <time>2019-03-29T14:16:56Z</time>
      </trkpt>
      <trkpt lat="44.48752" lon="5.72425">
        <ele>710</ele>
        <time>2019-03-29T14:16:57Z</time>
      </trkpt>
      <trkpt lat="44.48756" lon="5.7243">
        <ele>711</ele>
        <time>2019-03-29T14:16:58Z</time>
      </trkpt>
      <trkpt lat="44.4876" lon="5.72434">
        <ele>711</ele>
        <time>2019-03-29T14:16:59Z</time>
      </trkpt>
      <trkpt lat="44.48765" lon="5.72438">
        <ele>711</ele>
        <time>2019-03-29T14:17:00Z</time>
      </trkpt>
      <trkpt lat="44.4877" lon="5.72442">
        <ele>712</ele>
        <time>2019-03-29T14:17:01Z</time>
      </trkpt>
      <trkpt lat="44.48775" lon="5.72445">
        <ele>712</ele>
        <time>2019-03-29T14:17:02Z</time>
      </trkpt>
      <trkpt lat="44.48781" lon="5.72448">
        <ele>712</ele>
        <time>2019-03-29T14:17:03Z</time>
      </trkpt>
      <trkpt lat="44.48786" lon="5.7245">
        <ele>712</ele>
        <time>2019-03-29T14:17:04Z</time>
      </trkpt>
      <trkpt lat="44.48791" lon="5.72453">
        <ele>713</ele>
        <time>2019-03-29T14:17:05Z</time>
      </trkpt>
      <trkpt lat="44.48796" lon="5.72455">
        <ele>713</ele>
        <time>2019-03-29T14:17:06Z</time>
      </trkpt>
      <trkpt lat="44.48802" lon="5.72457">
        <ele>713</ele>
        <time>2019-03-29T14:17:07Z</time>
      </trkpt>
      <trkpt lat="44.48808" lon="5.72459">
        <ele>714</ele>
        <time>2019-03-29T14:17:08Z</time>
      </trkpt>
      <trkpt lat="44.48813" lon="5.72461">
        <ele>714</ele>
        <time>2019-03-29T14:17:09Z</time>
      </trkpt>
      <trkpt lat="44.48819" lon="5.72463">
        <ele>715</ele>
        <time>2019-03-29T14:17:10Z</time>
      </trkpt>
      <trkpt lat="44.48824" lon="5.72465">
        <ele>715</ele>
        <time>2019-03-29T14:17:11Z</time>
      </trkpt>
      <trkpt lat="44.48829" lon="5.72467">
        <ele>715</ele>
        <time>2019-03-29T14:17:12Z</time>
      </trkpt>
      <trkpt lat="44.48835" lon="5.72468">
        <ele>715</ele>
        <time>2019-03-29T14:17:13Z</time>
      </trkpt>
      <trkpt lat="44.4884" lon="5.7247">
        <ele>716</ele>
        <time>2019-03-29T14:17:14Z</time>
      </trkpt>
      <trkpt lat="44.48845" lon="5.72472">
        <ele>716</ele>
        <time>2019-03-29T14:17:15Z</time>
      </trkpt>
      <trkpt lat="44.48851" lon="5.72474">
        <ele>716</ele>
        <time>2019-03-29T14:17:16Z</time>
      </trkpt>
      <trkpt lat="44.48856" lon="5.72476">
        <ele>717</ele>
        <time>2019-03-29T14:17:17Z</time>
      </trkpt>
      <trkpt lat="44.48862" lon="5.72478">
        <ele>717</ele>
        <time>2019-03-29T14:17:18Z</time>
      </trkpt>
      <trkpt lat="44.48867" lon="5.72481">
        <ele>717</ele>
        <time>2019-03-29T14:17:19Z</time>
      </trkpt>
      <trkpt lat="44.48872" lon="5.72482">
        <ele>717</ele>
        <time>2019-03-29T14:17:20Z</time>
      </trkpt>
      <trkpt lat="44.48878" lon="5.72484">
        <ele>717</ele>
        <time>2019-03-29T14:17:21Z</time>
      </trkpt>
      <trkpt lat="44.48883" lon="5.72486">
        <ele>718</ele>
        <time>2019-03-29T14:17:22Z</time>
      </trkpt>
      <trkpt lat="44.48889" lon="5.72488">
        <ele>718</ele>
        <time>2019-03-29T14:17:23Z</time>
      </trkpt>
      <trkpt lat="44.48895" lon="5.72491">
        <ele>718</ele>
        <time>2019-03-29T14:17:24Z</time>
      </trkpt>
      <trkpt lat="44.489" lon="5.72494">
        <ele>719</ele>
        <time>2019-03-29T14:17:25Z</time>
      </trkpt>
      <trkpt lat="44.48906" lon="5.72496">
        <ele>719</ele>
        <time>2019-03-29T14:17:26Z</time>
      </trkpt>
      <trkpt lat="44.48911" lon="5.72498">
        <ele>719</ele>
        <time>2019-03-29T14:17:27Z</time>
      </trkpt>
      <trkpt lat="44.48917" lon="5.725">
        <ele>719</ele>
        <time>2019-03-29T14:17:28Z</time>
      </trkpt>
      <trkpt lat="44.48922" lon="5.72503">
        <ele>719</ele>
        <time>2019-03-29T14:17:29Z</time>
      </trkpt>
      <trkpt lat="44.48927" lon="5.72505">
        <ele>720</ele>
        <time>2019-03-29T14:17:30Z</time>
      </trkpt>
      <trkpt lat="44.48932" lon="5.72508">
        <ele>720</ele>
        <time>2019-03-29T14:17:31Z</time>
      </trkpt>
      <trkpt lat="44.48937" lon="5.72511">
        <ele>720</ele>
        <time>2019-03-29T14:17:32Z</time>
      </trkpt>
      <trkpt lat="44.48942" lon="5.72514">
        <ele>720</ele>
        <time>2019-03-29T14:17:33Z</time>
      </trkpt>
      <trkpt lat="44.48947" lon="5.72517">
        <ele>721</ele>
        <time>2019-03-29T14:17:34Z</time>
      </trkpt>
      <trkpt lat="44.48952" lon="5.72521">
        <ele>721</ele>
        <time>2019-03-29T14:17:35Z</time>
      </trkpt>
      <trkpt lat="44.48956" lon="5.72525">
        <ele>721</ele>
        <time>2019-03-29T14:17:36Z</time>
      </trkpt>
      <trkpt lat="44.48961" lon="5.72528">
        <ele>721</ele>
        <time>2019-03-29T14:17:37Z</time>
      </trkpt>
      <trkpt lat="44.48966" lon="5.72532">
        <ele>722</ele>
        <time>2019-03-29T14:17:38Z</time>
      </trkpt>
      <trkpt lat="44.4897" lon="5.72536">
        <ele>722</ele>
        <time>2019-03-29T14:17:39Z</time>
      </trkpt>
      <trkpt lat="44.48975" lon="5.7254">
        <ele>722</ele>
        <time>2019-03-29T14:17:40Z</time>
      </trkpt>
      <trkpt lat="44.4898" lon="5.72544">
        <ele>722</ele>
        <time>2019-03-29T14:17:41Z</time>
      </trkpt>
      <trkpt lat="44.48984" lon="5.72548">
        <ele>722</ele>
        <time>2019-03-29T14:17:42Z</time>
      </trkpt>
      <trkpt lat="44.48988" lon="5.72553">
        <ele>722</ele>
        <time>2019-03-29T14:17:43Z</time>
      </trkpt>
      <trkpt lat="44.48993" lon="5.72558">
        <ele>722</ele>
        <time>2019-03-29T14:17:44Z</time>
      </trkpt>
      <trkpt lat="44.48997" lon="5.72563">
        <ele>722</ele>
        <time>2019-03-29T14:17:45Z</time>
      </trkpt>
      <trkpt lat="44.49001" lon="5.72568">
        <ele>722</ele>
        <time>2019-03-29T14:17:46Z</time>
      </trkpt>
      <trkpt lat="44.49006" lon="5.72573">
        <ele>722</ele>
        <time>2019-03-29T14:17:47Z</time>
      </trkpt>
      <trkpt lat="44.4901" lon="5.72577">
        <ele>722</ele>
        <time>2019-03-29T14:17:48Z</time>
      </trkpt>
      <trkpt lat="44.49015" lon="5.72582">
        <ele>723</ele>
        <time>2019-03-29T14:17:49Z</time>
      </trkpt>
      <trkpt lat="44.4902" lon="5.72587">
        <ele>723</ele>
        <time>2019-03-29T14:17:50Z</time>
      </trkpt>
      <trkpt lat="44.49024" lon="5.72592">
        <ele>723</ele>
        <time>2019-03-29T14:17:51Z</time>
      </trkpt>
      <trkpt lat="44.4903" lon="5.72597">
        <ele>723</ele>
        <time>2019-03-29T14:17:52Z</time>
      </trkpt>
      <trkpt lat="44.49035" lon="5.72603">
        <ele>723</ele>
        <time>2019-03-29T14:17:53Z</time>
      </trkpt>
      <trkpt lat="44.49039" lon="5.7261">
        <ele>724</ele>
        <time>2019-03-29T14:17:54Z</time>
      </trkpt>
      <trkpt lat="44.49044" lon="5.72616">
        <ele>724</ele>
        <time>2019-03-29T14:17:55Z</time>
      </trkpt>
      <trkpt lat="44.49049" lon="5.72623">
        <ele>724</ele>
        <time>2019-03-29T14:17:56Z</time>
      </trkpt>
      <trkpt lat="44.49054" lon="5.7263">
        <ele>724</ele>
        <time>2019-03-29T14:17:57Z</time>
      </trkpt>
      <trkpt lat="44.49059" lon="5.72637">
        <ele>724</ele>
        <time>2019-03-29T14:17:58Z</time>
      </trkpt>
      <trkpt lat="44.49063" lon="5.72643">
        <ele>724</ele>
        <time>2019-03-29T14:17:59Z</time>
      </trkpt>
      <trkpt lat="44.49068" lon="5.72649">
        <ele>724</ele>
        <time>2019-03-29T14:18:00Z</time>
      </trkpt>
      <trkpt lat="44.49073" lon="5.72655">
        <ele>724</ele>
        <time>2019-03-29T14:18:01Z</time>
      </trkpt>
      <trkpt lat="44.49078" lon="5.72661">
        <ele>724</ele>
        <time>2019-03-29T14:18:02Z</time>
      </trkpt>
      <trkpt lat="44.49083" lon="5.72667">
        <ele>724</ele>
        <time>2019-03-29T14:18:03Z</time>
      </trkpt>
      <trkpt lat="44.49088" lon="5.72673">
        <ele>724</ele>
        <time>2019-03-29T14:18:04Z</time>
      </trkpt>
      <trkpt lat="44.49093" lon="5.72679">
        <ele>724</ele>
        <time>2019-03-29T14:18:05Z</time>
      </trkpt>
      <trkpt lat="44.49097" lon="5.72686">
        <ele>724</ele>
        <time>2019-03-29T14:18:06Z</time>
      </trkpt>
      <trkpt lat="44.49101" lon="5.72692">
        <ele>724</ele>
        <time>2019-03-29T14:18:07Z</time>
      </trkpt>
      <trkpt lat="44.49105" lon="5.727">
        <ele>724</ele>
        <time>2019-03-29T14:18:08Z</time>
      </trkpt>
      <trkpt lat="44.49109" lon="5.72707">
        <ele>724</ele>
        <time>2019-03-29T14:18:09Z</time>
      </trkpt>
      <trkpt lat="44.49113" lon="5.72714">
        <ele>724</ele>
        <time>2019-03-29T14:18:10Z</time>
      </trkpt>
      <trkpt lat="44.49116" lon="5.72721">
        <ele>724</ele>
        <time>2019-03-29T14:18:11Z</time>
      </trkpt>
      <trkpt lat="44.4912" lon="5.72728">
        <ele>724</ele>
        <time>2019-03-29T14:18:12Z</time>
      </trkpt>
      <trkpt lat="44.49124" lon="5.72736">
        <ele>724</ele>
        <time>2019-03-29T14:18:13Z</time>
      </trkpt>
      <trkpt lat="44.49127" lon="5.72743">
        <ele>724</ele>
        <time>2019-03-29T14:18:14Z</time>
      </trkpt>
      <trkpt lat="44.49131" lon="5.7275">
        <ele>724</ele>
        <time>2019-03-29T14:18:15Z</time>
      </trkpt>
      <trkpt lat="44.49134" lon="5.72756">
        <ele>724</ele>
        <time>2019-03-29T14:18:16Z</time>
      </trkpt>
      <trkpt lat="44.49137" lon="5.72763">
        <ele>724</ele>
        <time>2019-03-29T14:18:17Z</time>
      </trkpt>
      <trkpt lat="44.4914" lon="5.72769">
        <ele>724</ele>
        <time>2019-03-29T14:18:18Z</time>
      </trkpt>
      <trkpt lat="44.49143" lon="5.72775">
        <ele>724</ele>
        <time>2019-03-29T14:18:19Z</time>
      </trkpt>
      <trkpt lat="44.49145" lon="5.7278">
        <ele>724</ele>
        <time>2019-03-29T14:18:20Z</time>
      </trkpt>
      <trkpt lat="44.49148" lon="5.72785">
        <ele>724</ele>
        <time>2019-03-29T14:18:21Z</time>
      </trkpt>
      <trkpt lat="44.49152" lon="5.72788">
        <ele>724</ele>
        <time>2019-03-29T14:18:22Z</time>
      </trkpt>
      <trkpt lat="44.49156" lon="5.7279">
        <ele>723</ele>
        <time>2019-03-29T14:18:23Z</time>
      </trkpt>
      <trkpt lat="44.4916" lon="5.72791">
        <ele>723</ele>
        <time>2019-03-29T14:18:24Z</time>
      </trkpt>
      <trkpt lat="44.49164" lon="5.72791">
        <ele>723</ele>
        <time>2019-03-29T14:18:25Z</time>
      </trkpt>
      <trkpt lat="44.49168" lon="5.72791">
        <ele>723</ele>
        <time>2019-03-29T14:18:26Z</time>
      </trkpt>
      <trkpt lat="44.49172" lon="5.72791">
        <ele>723</ele>
        <time>2019-03-29T14:18:27Z</time>
      </trkpt>
      <trkpt lat="44.49176" lon="5.72792">
        <ele>723</ele>
        <time>2019-03-29T14:18:28Z</time>
      </trkpt>
      <trkpt lat="44.49179" lon="5.72793">
        <ele>723</ele>
        <time>2019-03-29T14:18:29Z</time>
      </trkpt>
      <trkpt lat="44.49183" lon="5.72795">
        <ele>723</ele>
        <time>2019-03-29T14:18:30Z</time>
      </trkpt>
      <trkpt lat="44.49186" lon="5.72796">
        <ele>723</ele>
        <time>2019-03-29T14:18:31Z</time>
      </trkpt>
      <trkpt lat="44.49188" lon="5.72798">
        <ele>723</ele>
        <time>2019-03-29T14:18:32Z</time>
      </trkpt>
      <trkpt lat="44.4919" lon="5.72799">
        <ele>723</ele>
        <time>2019-03-29T14:18:33Z</time>
      </trkpt>
      <trkpt lat="44.49192" lon="5.72798">
        <ele>723</ele>
        <time>2019-03-29T14:18:35Z</time>
      </trkpt>
      <trkpt lat="44.49193" lon="5.72798">
        <ele>722</ele>
        <time>2019-03-29T14:18:39Z</time>
      </trkpt>
      <trkpt lat="44.49194" lon="5.72797">
        <ele>722</ele>
        <time>2019-03-29T14:18:42Z</time>
      </trkpt>
      <trkpt lat="44.49196" lon="5.72797">
        <ele>722</ele>
        <time>2019-03-29T14:18:43Z</time>
      </trkpt>
      <trkpt lat="44.49194" lon="5.72796">
        <ele>722</ele>
        <time>2019-03-29T14:19:04Z</time>
      </trkpt>
      <trkpt lat="44.49195" lon="5.72797">
        <ele>722</ele>
        <time>2019-03-29T14:19:17Z</time>
      </trkpt>
      <trkpt lat="44.49197" lon="5.72796">
        <ele>722</ele>
        <time>2019-03-29T14:19:19Z</time>
      </trkpt>
      <trkpt lat="44.49199" lon="5.72794">
        <ele>722</ele>
        <time>2019-03-29T14:19:21Z</time>
      </trkpt>
      <trkpt lat="44.492" lon="5.72792">
        <ele>722</ele>
        <time>2019-03-29T14:19:24Z</time>
      </trkpt>
      <trkpt lat="44.492" lon="5.72791">
        <ele>721</ele>
        <time>2019-03-29T14:19:28Z</time>
      </trkpt>
      <trkpt lat="44.49201" lon="5.72791">
        <ele>721</ele>
        <time>2019-03-29T14:19:46Z</time>
      </trkpt>
      <trkpt lat="44.49202" lon="5.72792">
        <ele>721</ele>
        <time>2019-03-29T14:19:58Z</time>
      </trkpt>
      <trkpt lat="44.49202" lon="5.72794">
        <ele>721</ele>
        <time>2019-03-29T14:20:03Z</time>
      </trkpt>
      <trkpt lat="44.492" lon="5.72795">
        <ele>720</ele>
        <time>2019-03-29T14:20:06Z</time>
      </trkpt>
      <trkpt lat="44.49198" lon="5.72797">
        <ele>720</ele>
        <time>2019-03-29T14:20:08Z</time>
      </trkpt>
      <trkpt lat="44.49196" lon="5.72799">
        <ele>720</ele>
        <time>2019-03-29T14:20:10Z</time>
      </trkpt>
      <trkpt lat="44.49195" lon="5.728">
        <ele>719</ele>
        <time>2019-03-29T14:20:17Z</time>
      </trkpt>
      <trkpt lat="44.49194" lon="5.72802">
        <ele>719</ele>
        <time>2019-03-29T14:20:21Z</time>
      </trkpt>
      <trkpt lat="44.49194" lon="5.72805">
        <ele>719</ele>
        <time>2019-03-29T14:20:23Z</time>
      </trkpt>
      <trkpt lat="44.49194" lon="5.72807">
        <ele>719</ele>
        <time>2019-03-29T14:20:24Z</time>
      </trkpt>
      <trkpt lat="44.49193" lon="5.7281">
        <ele>719</ele>
        <time>2019-03-29T14:20:25Z</time>
      </trkpt>
      <trkpt lat="44.49192" lon="5.72812">
        <ele>719</ele>
        <time>2019-03-29T14:20:26Z</time>
      </trkpt>
      <trkpt lat="44.4919" lon="5.72814">
        <ele>719</ele>
        <time>2019-03-29T14:20:27Z</time>
      </trkpt>
      <trkpt lat="44.49188" lon="5.72816">
        <ele>719</ele>
        <time>2019-03-29T14:20:28Z</time>
      </trkpt>
      <trkpt lat="44.49186" lon="5.72817">
        <ele>719</ele>
        <time>2019-03-29T14:20:29Z</time>
      </trkpt>
      <trkpt lat="44.49183" lon="5.72819">
        <ele>719</ele>
        <time>2019-03-29T14:20:30Z</time>
      </trkpt>
      <trkpt lat="44.4918" lon="5.7282">
        <ele>719</ele>
        <time>2019-03-29T14:20:31Z</time>
      </trkpt>
      <trkpt lat="44.49176" lon="5.72821">
        <ele>719</ele>
        <time>2019-03-29T14:20:32Z</time>
      </trkpt>
      <trkpt lat="44.49172" lon="5.72823">
        <ele>719</ele>
        <time>2019-03-29T14:20:33Z</time>
      </trkpt>
      <trkpt lat="44.49168" lon="5.72825">
        <ele>719</ele>
        <time>2019-03-29T14:20:34Z</time>
      </trkpt>
      <trkpt lat="44.49163" lon="5.72827">
        <ele>719</ele>
        <time>2019-03-29T14:20:35Z</time>
      </trkpt>
      <trkpt lat="44.49159" lon="5.72829">
        <ele>719</ele>
        <time>2019-03-29T14:20:36Z</time>
      </trkpt>
      <trkpt lat="44.49154" lon="5.72831">
        <ele>719</ele>
        <time>2019-03-29T14:20:37Z</time>
      </trkpt>
      <trkpt lat="44.49149" lon="5.72834">
        <ele>719</ele>
        <time>2019-03-29T14:20:38Z</time>
      </trkpt>
      <trkpt lat="44.49145" lon="5.72836">
        <ele>719</ele>
        <time>2019-03-29T14:20:39Z</time>
      </trkpt>
      <trkpt lat="44.4914" lon="5.72838">
        <ele>718</ele>
        <time>2019-03-29T14:20:40Z</time>
      </trkpt>
      <trkpt lat="44.49135" lon="5.7284">
        <ele>718</ele>
        <time>2019-03-29T14:20:41Z</time>
      </trkpt>
      <trkpt lat="44.49131" lon="5.72841">
        <ele>718</ele>
        <time>2019-03-29T14:20:42Z</time>
      </trkpt>
      <trkpt lat="44.49126" lon="5.72843">
        <ele>718</ele>
        <time>2019-03-29T14:20:43Z</time>
      </trkpt>
      <trkpt lat="44.49121" lon="5.72845">
        <ele>718</ele>
        <time>2019-03-29T14:20:44Z</time>
      </trkpt>
      <trkpt lat="44.49117" lon="5.72846">
        <ele>718</ele>
        <time>2019-03-29T14:20:45Z</time>
      </trkpt>
      <trkpt lat="44.49112" lon="5.72848">
        <ele>718</ele>
        <time>2019-03-29T14:20:46Z</time>
      </trkpt>
      <trkpt lat="44.49108" lon="5.72851">
        <ele>718</ele>
        <time>2019-03-29T14:20:47Z</time>
      </trkpt>
      <trkpt lat="44.49105" lon="5.72856">
        <ele>718</ele>
        <time>2019-03-29T14:20:48Z</time>
      </trkpt>
      <trkpt lat="44.49104" lon="5.72861">
        <ele>718</ele>
        <time>2019-03-29T14:20:49Z</time>
      </trkpt>
      <trkpt lat="44.49105" lon="5.72868">
        <ele>718</ele>
        <time>2019-03-29T14:20:50Z</time>
      </trkpt>
      <trkpt lat="44.49107" lon="5.72874">
        <ele>717</ele>
        <time>2019-03-29T14:20:51Z</time>
      </trkpt>
      <trkpt lat="44.49109" lon="5.72881">
        <ele>717</ele>
        <time>2019-03-29T14:20:52Z</time>
      </trkpt>
      <trkpt lat="44.49112" lon="5.72887">
        <ele>717</ele>
        <time>2019-03-29T14:20:53Z</time>
      </trkpt>
      <trkpt lat="44.49114" lon="5.72894">
        <ele>717</ele>
        <time>2019-03-29T14:20:54Z</time>
      </trkpt>
      <trkpt lat="44.49117" lon="5.72901">
        <ele>717</ele>
        <time>2019-03-29T14:20:55Z</time>
      </trkpt>
      <trkpt lat="44.49119" lon="5.72908">
        <ele>717</ele>
        <time>2019-03-29T14:20:56Z</time>
      </trkpt>
      <trkpt lat="44.49121" lon="5.72915">
        <ele>717</ele>
        <time>2019-03-29T14:20:57Z</time>
      </trkpt>
      <trkpt lat="44.49123" lon="5.72923">
        <ele>717</ele>
        <time>2019-03-29T14:20:58Z</time>
      </trkpt>
      <trkpt lat="44.49124" lon="5.72931">
        <ele>717</ele>
        <time>2019-03-29T14:20:59Z</time>
      </trkpt>
      <trkpt lat="44.49124" lon="5.7294">
        <ele>717</ele>
        <time>2019-03-29T14:21:00Z</time>
      </trkpt>
      <trkpt lat="44.49124" lon="5.72949">
        <ele>717</ele>
        <time>2019-03-29T14:21:01Z</time>
      </trkpt>
      <trkpt lat="44.49124" lon="5.72957">
        <ele>717</ele>
        <time>2019-03-29T14:21:02Z</time>
      </trkpt>
      <trkpt lat="44.49123" lon="5.72966">
        <ele>717</ele>
        <time>2019-03-29T14:21:03Z</time>
      </trkpt>
      <trkpt lat="44.49123" lon="5.72974">
        <ele>717</ele>
        <time>2019-03-29T14:21:04Z</time>
      </trkpt>
      <trkpt lat="44.49123" lon="5.72983">
        <ele>717</ele>
        <time>2019-03-29T14:21:05Z</time>
      </trkpt>
      <trkpt lat="44.49122" lon="5.72992">
        <ele>717</ele>
        <time>2019-03-29T14:21:06Z</time>
      </trkpt>
      <trkpt lat="44.49121" lon="5.73">
        <ele>717</ele>
        <time>2019-03-29T14:21:07Z</time>
      </trkpt>
      <trkpt lat="44.49121" lon="5.73008">
        <ele>717</ele>
        <time>2019-03-29T14:21:08Z</time>
      </trkpt>
      <trkpt lat="44.4912" lon="5.73017">
        <ele>717</ele>
        <time>2019-03-29T14:21:09Z</time>
      </trkpt>
      <trkpt lat="44.4912" lon="5.73025">
        <ele>717</ele>
        <time>2019-03-29T14:21:10Z</time>
      </trkpt>
      <trkpt lat="44.4912" lon="5.73033">
        <ele>716</ele>
        <time>2019-03-29T14:21:11Z</time>
      </trkpt>
      <trkpt lat="44.49119" lon="5.7304">
        <ele>716</ele>
        <time>2019-03-29T14:21:12Z</time>
      </trkpt>
      <trkpt lat="44.49119" lon="5.73048">
        <ele>716</ele>
        <time>2019-03-29T14:21:13Z</time>
      </trkpt>
      <trkpt lat="44.49118" lon="5.73056">
        <ele>716</ele>
        <time>2019-03-29T14:21:14Z</time>
      </trkpt>
      <trkpt lat="44.49118" lon="5.73064">
        <ele>716</ele>
        <time>2019-03-29T14:21:15Z</time>
      </trkpt>
      <trkpt lat="44.49118" lon="5.73072">
        <ele>716</ele>
        <time>2019-03-29T14:21:16Z</time>
      </trkpt>
      <trkpt lat="44.49117" lon="5.7308">
        <ele>716</ele>
        <time>2019-03-29T14:21:17Z</time>
      </trkpt>
      <trkpt lat="44.49116" lon="5.73088">
        <ele>716</ele>
        <time>2019-03-29T14:21:18Z</time>
      </trkpt>
      <trkpt lat="44.49115" lon="5.73096">
        <ele>716</ele>
        <time>2019-03-29T14:21:19Z</time>
      </trkpt>
      <trkpt lat="44.49115" lon="5.73103">
        <ele>716</ele>
        <time>2019-03-29T14:21:20Z</time>
      </trkpt>
      <trkpt lat="44.49115" lon="5.73109">
        <ele>716</ele>
        <time>2019-03-29T14:21:21Z</time>
      </trkpt>
      <trkpt lat="44.49114" lon="5.73115">
        <ele>716</ele>
        <time>2019-03-29T14:21:22Z</time>
      </trkpt>
      <trkpt lat="44.49114" lon="5.73122">
        <ele>716</ele>
        <time>2019-03-29T14:21:23Z</time>
      </trkpt>
      <trkpt lat="44.49114" lon="5.73129">
        <ele>716</ele>
        <time>2019-03-29T14:21:24Z</time>
      </trkpt>
      <trkpt lat="44.49114" lon="5.73137">
        <ele>716</ele>
        <time>2019-03-29T14:21:25Z</time>
      </trkpt>
      <trkpt lat="44.49114" lon="5.73144">
        <ele>716</ele>
        <time>2019-03-29T14:21:26Z</time>
      </trkpt>
      <trkpt lat="44.49114" lon="5.73152">
        <ele>716</ele>
        <time>2019-03-29T14:21:27Z</time>
      </trkpt>
      <trkpt lat="44.49114" lon="5.73159">
        <ele>716</ele>
        <time>2019-03-29T14:21:28Z</time>
      </trkpt>
      <trkpt lat="44.49114" lon="5.73167">
        <ele>716</ele>
        <time>2019-03-29T14:21:29Z</time>
      </trkpt>
      <trkpt lat="44.49115" lon="5.73174">
        <ele>716</ele>
        <time>2019-03-29T14:21:30Z</time>
      </trkpt>
      <trkpt lat="44.49115" lon="5.73182">
        <ele>716</ele>
        <time>2019-03-29T14:21:31Z</time>
      </trkpt>
      <trkpt lat="44.49116" lon="5.73189">
        <ele>716</ele>
        <time>2019-03-29T14:21:32Z</time>
      </trkpt>
      <trkpt lat="44.49117" lon="5.73196">
        <ele>716</ele>
        <time>2019-03-29T14:21:33Z</time>
      </trkpt>
      <trkpt lat="44.49117" lon="5.73203">
        <ele>716</ele>
        <time>2019-03-29T14:21:34Z</time>
      </trkpt>
      <trkpt lat="44.49117" lon="5.73209">
        <ele>716</ele>
        <time>2019-03-29T14:21:35Z</time>
      </trkpt>
      <trkpt lat="44.49116" lon="5.73216">
        <ele>716</ele>
        <time>2019-03-29T14:21:36Z</time>
      </trkpt>
      <trkpt lat="44.49116" lon="5.73223">
        <ele>716</ele>
        <time>2019-03-29T14:21:37Z</time>
      </trkpt>
      <trkpt lat="44.49116" lon="5.73229">
        <ele>716</ele>
        <time>2019-03-29T14:21:38Z</time>
      </trkpt>
      <trkpt lat="44.49116" lon="5.73236">
        <ele>716</ele>
        <time>2019-03-29T14:21:39Z</time>
      </trkpt>
      <trkpt lat="44.49116" lon="5.73244">
        <ele>716</ele>
        <time>2019-03-29T14:21:40Z</time>
      </trkpt>
      <trkpt lat="44.49116" lon="5.73251">
        <ele>716</ele>
        <time>2019-03-29T14:21:41Z</time>
      </trkpt>
      <trkpt lat="44.49117" lon="5.73258">
        <ele>716</ele>
        <time>2019-03-29T14:21:42Z</time>
      </trkpt>
      <trkpt lat="44.49117" lon="5.73266">
        <ele>716</ele>
        <time>2019-03-29T14:21:43Z</time>
      </trkpt>
      <trkpt lat="44.49118" lon="5.73273">
        <ele>716</ele>
        <time>2019-03-29T14:21:44Z</time>
      </trkpt>
      <trkpt lat="44.49119" lon="5.73281">
        <ele>716</ele>
        <time>2019-03-29T14:21:45Z</time>
      </trkpt>
      <trkpt lat="44.4912" lon="5.73288">
        <ele>716</ele>
        <time>2019-03-29T14:21:46Z</time>
      </trkpt>
      <trkpt lat="44.49121" lon="5.73296">
        <ele>716</ele>
        <time>2019-03-29T14:21:47Z</time>
      </trkpt>
      <trkpt lat="44.49123" lon="5.73303">
        <ele>716</ele>
        <time>2019-03-29T14:21:48Z</time>
      </trkpt>
      <trkpt lat="44.49124" lon="5.7331">
        <ele>716</ele>
        <time>2019-03-29T14:21:49Z</time>
      </trkpt>
      <trkpt lat="44.49125" lon="5.73318">
        <ele>716</ele>
        <time>2019-03-29T14:21:50Z</time>
      </trkpt>
      <trkpt lat="44.49126" lon="5.73325">
        <ele>716</ele>
        <time>2019-03-29T14:21:51Z</time>
      </trkpt>
      <trkpt lat="44.49128" lon="5.73333">
        <ele>716</ele>
        <time>2019-03-29T14:21:52Z</time>
      </trkpt>
      <trkpt lat="44.49129" lon="5.7334">
        <ele>716</ele>
        <time>2019-03-29T14:21:53Z</time>
      </trkpt>
      <trkpt lat="44.4913" lon="5.73348">
        <ele>716</ele>
        <time>2019-03-29T14:21:54Z</time>
      </trkpt>
      <trkpt lat="44.49131" lon="5.73355">
        <ele>716</ele>
        <time>2019-03-29T14:21:55Z</time>
      </trkpt>
      <trkpt lat="44.49133" lon="5.73362">
        <ele>716</ele>
        <time>2019-03-29T14:21:56Z</time>
      </trkpt>
      <trkpt lat="44.49134" lon="5.7337">
        <ele>717</ele>
        <time>2019-03-29T14:21:57Z</time>
      </trkpt>
      <trkpt lat="44.49135" lon="5.73378">
        <ele>717</ele>
        <time>2019-03-29T14:21:58Z</time>
      </trkpt>
      <trkpt lat="44.49137" lon="5.73385">
        <ele>717</ele>
        <time>2019-03-29T14:21:59Z</time>
      </trkpt>
      <trkpt lat="44.49138" lon="5.73392">
        <ele>717</ele>
        <time>2019-03-29T14:22:00Z</time>
      </trkpt>
      <trkpt lat="44.49139" lon="5.734">
        <ele>717</ele>
        <time>2019-03-29T14:22:01Z</time>
      </trkpt>
      <trkpt lat="44.4914" lon="5.73407">
        <ele>717</ele>
        <time>2019-03-29T14:22:02Z</time>
      </trkpt>
      <trkpt lat="44.49142" lon="5.73414">
        <ele>717</ele>
        <time>2019-03-29T14:22:03Z</time>
      </trkpt>
      <trkpt lat="44.49143" lon="5.73421">
        <ele>717</ele>
        <time>2019-03-29T14:22:04Z</time>
      </trkpt>
      <trkpt lat="44.49144" lon="5.73429">
        <ele>717</ele>
        <time>2019-03-29T14:22:05Z</time>
      </trkpt>
      <trkpt lat="44.49146" lon="5.73436">
        <ele>717</ele>
        <time>2019-03-29T14:22:06Z</time>
      </trkpt>
      <trkpt lat="44.49147" lon="5.73443">
        <ele>717</ele>
        <time>2019-03-29T14:22:07Z</time>
      </trkpt>
      <trkpt lat="44.49149" lon="5.7345">
        <ele>717</ele>
        <time>2019-03-29T14:22:08Z</time>
      </trkpt>
      <trkpt lat="44.4915" lon="5.73456">
        <ele>717</ele>
        <time>2019-03-29T14:22:09Z</time>
      </trkpt>
      <trkpt lat="44.49151" lon="5.73463">
        <ele>717</ele>
        <time>2019-03-29T14:22:10Z</time>
      </trkpt>
      <trkpt lat="44.49152" lon="5.7347">
        <ele>718</ele>
        <time>2019-03-29T14:22:11Z</time>
      </trkpt>
      <trkpt lat="44.49153" lon="5.73477">
        <ele>718</ele>
        <time>2019-03-29T14:22:12Z</time>
      </trkpt>
      <trkpt lat="44.49154" lon="5.73484">
        <ele>718</ele>
        <time>2019-03-29T14:22:13Z</time>
      </trkpt>
      <trkpt lat="44.49154" lon="5.73491">
        <ele>718</ele>
        <time>2019-03-29T14:22:14Z</time>
      </trkpt>
      <trkpt lat="44.49155" lon="5.73498">
        <ele>718</ele>
        <time>2019-03-29T14:22:15Z</time>
      </trkpt>
      <trkpt lat="44.49155" lon="5.73505">
        <ele>718</ele>
        <time>2019-03-29T14:22:16Z</time>
      </trkpt>
      <trkpt lat="44.49155" lon="5.73512">
        <ele>718</ele>
        <time>2019-03-29T14:22:17Z</time>
      </trkpt>
      <trkpt lat="44.49156" lon="5.73518">
        <ele>718</ele>
        <time>2019-03-29T14:22:18Z</time>
      </trkpt>
      <trkpt lat="44.49156" lon="5.73525">
        <ele>718</ele>
        <time>2019-03-29T14:22:19Z</time>
      </trkpt>
      <trkpt lat="44.49156" lon="5.73532">
        <ele>719</ele>
        <time>2019-03-29T14:22:20Z</time>
      </trkpt>
      <trkpt lat="44.49157" lon="5.73539">
        <ele>719</ele>
        <time>2019-03-29T14:22:21Z</time>
      </trkpt>
      <trkpt lat="44.49157" lon="5.73546">
        <ele>719</ele>
        <time>2019-03-29T14:22:22Z</time>
      </trkpt>
      <trkpt lat="44.49157" lon="5.73552">
        <ele>719</ele>
        <time>2019-03-29T14:22:23Z</time>
      </trkpt>
      <trkpt lat="44.49157" lon="5.73559">
        <ele>719</ele>
        <time>2019-03-29T14:22:24Z</time>
      </trkpt>
      <trkpt lat="44.49158" lon="5.73565">
        <ele>719</ele>
        <time>2019-03-29T14:22:25Z</time>
      </trkpt>
      <trkpt lat="44.49158" lon="5.73571">
        <ele>719</ele>
        <time>2019-03-29T14:22:26Z</time>
      </trkpt>
      <trkpt lat="44.49159" lon="5.73578">
        <ele>720</ele>
        <time>2019-03-29T14:22:27Z</time>
      </trkpt>
      <trkpt lat="44.49159" lon="5.73585">
        <ele>720</ele>
        <time>2019-03-29T14:22:28Z</time>
      </trkpt>
      <trkpt lat="44.4916" lon="5.73591">
        <ele>720</ele>
        <time>2019-03-29T14:22:29Z</time>
      </trkpt>
      <trkpt lat="44.4916" lon="5.73597">
        <ele>720</ele>
        <time>2019-03-29T14:22:30Z</time>
      </trkpt>
      <trkpt lat="44.49161" lon="5.73603">
        <ele>720</ele>
        <time>2019-03-29T14:22:31Z</time>
      </trkpt>
      <trkpt lat="44.49162" lon="5.7361">
        <ele>720</ele>
        <time>2019-03-29T14:22:32Z</time>
      </trkpt>
      <trkpt lat="44.49162" lon="5.73616">
        <ele>721</ele>
        <time>2019-03-29T14:22:33Z</time>
      </trkpt>
      <trkpt lat="44.49163" lon="5.73622">
        <ele>721</ele>
        <time>2019-03-29T14:22:34Z</time>
      </trkpt>
      <trkpt lat="44.49163" lon="5.73628">
        <ele>721</ele>
        <time>2019-03-29T14:22:35Z</time>
      </trkpt>
      <trkpt lat="44.49163" lon="5.73634">
        <ele>721</ele>
        <time>2019-03-29T14:22:36Z</time>
      </trkpt>
      <trkpt lat="44.49164" lon="5.7364">
        <ele>722</ele>
        <time>2019-03-29T14:22:37Z</time>
      </trkpt>
      <trkpt lat="44.49164" lon="5.73646">
        <ele>722</ele>
        <time>2019-03-29T14:22:38Z</time>
      </trkpt>
      <trkpt lat="44.49165" lon="5.73653">
        <ele>722</ele>
        <time>2019-03-29T14:22:39Z</time>
      </trkpt>
      <trkpt lat="44.49165" lon="5.73659">
        <ele>722</ele>
        <time>2019-03-29T14:22:40Z</time>
      </trkpt>
      <trkpt lat="44.49166" lon="5.73665">
        <ele>722</ele>
        <time>2019-03-29T14:22:41Z</time>
      </trkpt>
      <trkpt lat="44.49166" lon="5.73671">
        <ele>722</ele>
        <time>2019-03-29T14:22:42Z</time>
      </trkpt>
      <trkpt lat="44.49167" lon="5.73678">
        <ele>722</ele>
        <time>2019-03-29T14:22:43Z</time>
      </trkpt>
      <trkpt lat="44.49167" lon="5.73685">
        <ele>722</ele>
        <time>2019-03-29T14:22:44Z</time>
      </trkpt>
      <trkpt lat="44.49168" lon="5.73692">
        <ele>722</ele>
        <time>2019-03-29T14:22:45Z</time>
      </trkpt>
      <trkpt lat="44.49168" lon="5.73699">
        <ele>722</ele>
        <time>2019-03-29T14:22:46Z</time>
      </trkpt>
      <trkpt lat="44.49169" lon="5.73706">
        <ele>722</ele>
        <time>2019-03-29T14:22:47Z</time>
      </trkpt>
      <trkpt lat="44.49169" lon="5.73713">
        <ele>722</ele>
        <time>2019-03-29T14:22:48Z</time>
      </trkpt>
      <trkpt lat="44.4917" lon="5.73721">
        <ele>722</ele>
        <time>2019-03-29T14:22:49Z</time>
      </trkpt>
      <trkpt lat="44.4917" lon="5.73729">
        <ele>722</ele>
        <time>2019-03-29T14:22:50Z</time>
      </trkpt>
      <trkpt lat="44.49171" lon="5.73736">
        <ele>722</ele>
        <time>2019-03-29T14:22:51Z</time>
      </trkpt>
      <trkpt lat="44.49171" lon="5.73744">
        <ele>722</ele>
        <time>2019-03-29T14:22:52Z</time>
      </trkpt>
      <trkpt lat="44.49172" lon="5.73751">
        <ele>722</ele>
        <time>2019-03-29T14:22:53Z</time>
      </trkpt>
      <trkpt lat="44.49173" lon="5.73759">
        <ele>722</ele>
        <time>2019-03-29T14:22:54Z</time>
      </trkpt>
      <trkpt lat="44.49173" lon="5.73767">
        <ele>722</ele>
        <time>2019-03-29T14:22:55Z</time>
      </trkpt>
      <trkpt lat="44.49174" lon="5.73775">
        <ele>722</ele>
        <time>2019-03-29T14:22:56Z</time>
      </trkpt>
      <trkpt lat="44.49174" lon="5.73783">
        <ele>722</ele>
        <time>2019-03-29T14:22:57Z</time>
      </trkpt>
      <trkpt lat="44.49175" lon="5.73791">
        <ele>722</ele>
        <time>2019-03-29T14:22:58Z</time>
      </trkpt>
      <trkpt lat="44.49176" lon="5.73799">
        <ele>722</ele>
        <time>2019-03-29T14:22:59Z</time>
      </trkpt>
      <trkpt lat="44.49176" lon="5.73806">
        <ele>722</ele>
        <time>2019-03-29T14:23:00Z</time>
      </trkpt>
      <trkpt lat="44.49177" lon="5.73815">
        <ele>722</ele>
        <time>2019-03-29T14:23:01Z</time>
      </trkpt>
      <trkpt lat="44.49178" lon="5.73823">
        <ele>722</ele>
        <time>2019-03-29T14:23:02Z</time>
      </trkpt>
      <trkpt lat="44.49178" lon="5.73831">
        <ele>722</ele>
        <time>2019-03-29T14:23:03Z</time>
      </trkpt>
      <trkpt lat="44.49179" lon="5.73839">
        <ele>722</ele>
        <time>2019-03-29T14:23:04Z</time>
      </trkpt>
      <trkpt lat="44.49179" lon="5.73847">
        <ele>722</ele>
        <time>2019-03-29T14:23:05Z</time>
      </trkpt>
      <trkpt lat="44.4918" lon="5.73855">
        <ele>722</ele>
        <time>2019-03-29T14:23:06Z</time>
      </trkpt>
      <trkpt lat="44.49181" lon="5.73864">
        <ele>722</ele>
        <time>2019-03-29T14:23:07Z</time>
      </trkpt>
      <trkpt lat="44.49181" lon="5.73872">
        <ele>722</ele>
        <time>2019-03-29T14:23:08Z</time>
      </trkpt>
      <trkpt lat="44.49182" lon="5.7388">
        <ele>723</ele>
        <time>2019-03-29T14:23:09Z</time>
      </trkpt>
      <trkpt lat="44.49183" lon="5.73888">
        <ele>723</ele>
        <time>2019-03-29T14:23:10Z</time>
      </trkpt>
      <trkpt lat="44.49184" lon="5.73896">
        <ele>723</ele>
        <time>2019-03-29T14:23:11Z</time>
      </trkpt>
      <trkpt lat="44.49184" lon="5.73904">
        <ele>723</ele>
        <time>2019-03-29T14:23:12Z</time>
      </trkpt>
      <trkpt lat="44.49184" lon="5.73912">
        <ele>723</ele>
        <time>2019-03-29T14:23:13Z</time>
      </trkpt>
      <trkpt lat="44.49185" lon="5.73921">
        <ele>723</ele>
        <time>2019-03-29T14:23:14Z</time>
      </trkpt>
      <trkpt lat="44.49185" lon="5.73929">
        <ele>723</ele>
        <time>2019-03-29T14:23:15Z</time>
      </trkpt>
      <trkpt lat="44.49186" lon="5.73937">
        <ele>723</ele>
        <time>2019-03-29T14:23:16Z</time>
      </trkpt>
      <trkpt lat="44.49186" lon="5.73944">
        <ele>723</ele>
        <time>2019-03-29T14:23:17Z</time>
      </trkpt>
      <trkpt lat="44.49187" lon="5.73952">
        <ele>723</ele>
        <time>2019-03-29T14:23:18Z</time>
      </trkpt>
      <trkpt lat="44.49187" lon="5.73959">
        <ele>723</ele>
        <time>2019-03-29T14:23:19Z</time>
      </trkpt>
      <trkpt lat="44.49188" lon="5.73967">
        <ele>723</ele>
        <time>2019-03-29T14:23:20Z</time>
      </trkpt>
      <trkpt lat="44.49189" lon="5.73974">
        <ele>723</ele>
        <time>2019-03-29T14:23:21Z</time>
      </trkpt>
      <trkpt lat="44.49189" lon="5.73981">
        <ele>723</ele>
        <time>2019-03-29T14:23:22Z</time>
      </trkpt>
      <trkpt lat="44.4919" lon="5.73988">
        <ele>723</ele>
        <time>2019-03-29T14:23:23Z</time>
      </trkpt>
      <trkpt lat="44.49191" lon="5.73995">
        <ele>723</ele>
        <time>2019-03-29T14:23:24Z</time>
      </trkpt>
      <trkpt lat="44.49192" lon="5.74002">
        <ele>723</ele>
        <time>2019-03-29T14:23:25Z</time>
      </trkpt>
      <trkpt lat="44.49192" lon="5.74009">
        <ele>723</ele>
        <time>2019-03-29T14:23:26Z</time>
      </trkpt>
      <trkpt lat="44.49194" lon="5.74016">
        <ele>723</ele>
        <time>2019-03-29T14:23:27Z</time>
      </trkpt>
      <trkpt lat="44.49194" lon="5.74023">
        <ele>723</ele>
        <time>2019-03-29T14:23:28Z</time>
      </trkpt>
      <trkpt lat="44.49195" lon="5.7403">
        <ele>723</ele>
        <time>2019-03-29T14:23:29Z</time>
      </trkpt>
      <trkpt lat="44.49196" lon="5.74037">
        <ele>723</ele>
        <time>2019-03-29T14:23:30Z</time>
      </trkpt>
      <trkpt lat="44.49197" lon="5.74044">
        <ele>723</ele>
        <time>2019-03-29T14:23:31Z</time>
      </trkpt>
      <trkpt lat="44.49198" lon="5.74051">
        <ele>724</ele>
        <time>2019-03-29T14:23:32Z</time>
      </trkpt>
      <trkpt lat="44.49199" lon="5.74058">
        <ele>724</ele>
        <time>2019-03-29T14:23:33Z</time>
      </trkpt>
      <trkpt lat="44.49199" lon="5.74065">
        <ele>724</ele>
        <time>2019-03-29T14:23:34Z</time>
      </trkpt>
      <trkpt lat="44.492" lon="5.74072">
        <ele>724</ele>
        <time>2019-03-29T14:23:35Z</time>
      </trkpt>
      <trkpt lat="44.492" lon="5.74079">
        <ele>724</ele>
        <time>2019-03-29T14:23:36Z</time>
      </trkpt>
      <trkpt lat="44.49201" lon="5.74086">
        <ele>724</ele>
        <time>2019-03-29T14:23:37Z</time>
      </trkpt>
      <trkpt lat="44.49202" lon="5.74093">
        <ele>724</ele>
        <time>2019-03-29T14:23:38Z</time>
      </trkpt>
      <trkpt lat="44.49202" lon="5.741">
        <ele>724</ele>
        <time>2019-03-29T14:23:39Z</time>
      </trkpt>
      <trkpt lat="44.49203" lon="5.74107">
        <ele>724</ele>
        <time>2019-03-29T14:23:40Z</time>
      </trkpt>
      <trkpt lat="44.49203" lon="5.74114">
        <ele>724</ele>
        <time>2019-03-29T14:23:41Z</time>
      </trkpt>
      <trkpt lat="44.49204" lon="5.74121">
        <ele>724</ele>
        <time>2019-03-29T14:23:42Z</time>
      </trkpt>
      <trkpt lat="44.49205" lon="5.74129">
        <ele>724</ele>
        <time>2019-03-29T14:23:43Z</time>
      </trkpt>
      <trkpt lat="44.49205" lon="5.74136">
        <ele>725</ele>
        <time>2019-03-29T14:23:44Z</time>
      </trkpt>
      <trkpt lat="44.49205" lon="5.74143">
        <ele>725</ele>
        <time>2019-03-29T14:23:45Z</time>
      </trkpt>
      <trkpt lat="44.49205" lon="5.74151">
        <ele>725</ele>
        <time>2019-03-29T14:23:46Z</time>
      </trkpt>
      <trkpt lat="44.49205" lon="5.74158">
        <ele>725</ele>
        <time>2019-03-29T14:23:47Z</time>
      </trkpt>
      <trkpt lat="44.49205" lon="5.74165">
        <ele>725</ele>
        <time>2019-03-29T14:23:48Z</time>
      </trkpt>
      <trkpt lat="44.49204" lon="5.74172">
        <ele>725</ele>
        <time>2019-03-29T14:23:49Z</time>
      </trkpt>
      <trkpt lat="44.49203" lon="5.74179">
        <ele>725</ele>
        <time>2019-03-29T14:23:50Z</time>
      </trkpt>
      <trkpt lat="44.49202" lon="5.74186">
        <ele>725</ele>
        <time>2019-03-29T14:23:51Z</time>
      </trkpt>
      <trkpt lat="44.49201" lon="5.74193">
        <ele>725</ele>
        <time>2019-03-29T14:23:52Z</time>
      </trkpt>
      <trkpt lat="44.492" lon="5.742">
        <ele>725</ele>
        <time>2019-03-29T14:23:53Z</time>
      </trkpt>
      <trkpt lat="44.49199" lon="5.74207">
        <ele>725</ele>
        <time>2019-03-29T14:23:54Z</time>
      </trkpt>
      <trkpt lat="44.49198" lon="5.74214">
        <ele>726</ele>
        <time>2019-03-29T14:23:55Z</time>
      </trkpt>
      <trkpt lat="44.49196" lon="5.74221">
        <ele>726</ele>
        <time>2019-03-29T14:23:56Z</time>
      </trkpt>
      <trkpt lat="44.49194" lon="5.74228">
        <ele>726</ele>
        <time>2019-03-29T14:23:57Z</time>
      </trkpt>
      <trkpt lat="44.49193" lon="5.74234">
        <ele>726</ele>
        <time>2019-03-29T14:23:58Z</time>
      </trkpt>
      <trkpt lat="44.49191" lon="5.74241">
        <ele>726</ele>
        <time>2019-03-29T14:23:59Z</time>
      </trkpt>
      <trkpt lat="44.49189" lon="5.74248">
        <ele>726</ele>
        <time>2019-03-29T14:24:00Z</time>
      </trkpt>
      <trkpt lat="44.49187" lon="5.74254">
        <ele>726</ele>
        <time>2019-03-29T14:24:01Z</time>
      </trkpt>
      <trkpt lat="44.49184" lon="5.74261">
        <ele>726</ele>
        <time>2019-03-29T14:24:02Z</time>
      </trkpt>
      <trkpt lat="44.49182" lon="5.74267">
        <ele>726</ele>
        <time>2019-03-29T14:24:03Z</time>
      </trkpt>
      <trkpt lat="44.49179" lon="5.74273">
        <ele>726</ele>
        <time>2019-03-29T14:24:04Z</time>
      </trkpt>
      <trkpt lat="44.49177" lon="5.7428">
        <ele>726</ele>
        <time>2019-03-29T14:24:05Z</time>
      </trkpt>
      <trkpt lat="44.49174" lon="5.74287">
        <ele>726</ele>
        <time>2019-03-29T14:24:06Z</time>
      </trkpt>
      <trkpt lat="44.49171" lon="5.74294">
        <ele>726</ele>
        <time>2019-03-29T14:24:07Z</time>
      </trkpt>
      <trkpt lat="44.49168" lon="5.743">
        <ele>727</ele>
        <time>2019-03-29T14:24:08Z</time>
      </trkpt>
      <trkpt lat="44.49165" lon="5.74307">
        <ele>727</ele>
        <time>2019-03-29T14:24:09Z</time>
      </trkpt>
      <trkpt lat="44.49163" lon="5.74313">
        <ele>727</ele>
        <time>2019-03-29T14:24:10Z</time>
      </trkpt>
      <trkpt lat="44.4916" lon="5.7432">
        <ele>727</ele>
        <time>2019-03-29T14:24:11Z</time>
      </trkpt>
      <trkpt lat="44.49157" lon="5.74327">
        <ele>727</ele>
        <time>2019-03-29T14:24:12Z</time>
      </trkpt>
      <trkpt lat="44.49154" lon="5.74333">
        <ele>727</ele>
        <time>2019-03-29T14:24:13Z</time>
      </trkpt>
      <trkpt lat="44.4915" lon="5.7434">
        <ele>727</ele>
        <time>2019-03-29T14:24:14Z</time>
      </trkpt>
      <trkpt lat="44.49147" lon="5.74346">
        <ele>727</ele>
        <time>2019-03-29T14:24:15Z</time>
      </trkpt>
      <trkpt lat="44.49144" lon="5.74353">
        <ele>727</ele>
        <time>2019-03-29T14:24:16Z</time>
      </trkpt>
      <trkpt lat="44.49141" lon="5.74361">
        <ele>727</ele>
        <time>2019-03-29T14:24:17Z</time>
      </trkpt>
      <trkpt lat="44.49138" lon="5.74368">
        <ele>727</ele>
        <time>2019-03-29T14:24:18Z</time>
      </trkpt>
      <trkpt lat="44.49135" lon="5.74375">
        <ele>727</ele>
        <time>2019-03-29T14:24:19Z</time>
      </trkpt>
      <trkpt lat="44.49132" lon="5.74382">
        <ele>727</ele>
        <time>2019-03-29T14:24:20Z</time>
      </trkpt>
      <trkpt lat="44.49129" lon="5.74389">
        <ele>727</ele>
        <time>2019-03-29T14:24:21Z</time>
      </trkpt>
      <trkpt lat="44.49126" lon="5.74396">
        <ele>727</ele>
        <time>2019-03-29T14:24:22Z</time>
      </trkpt>
      <trkpt lat="44.49123" lon="5.74403">
        <ele>727</ele>
        <time>2019-03-29T14:24:23Z</time>
      </trkpt>
      <trkpt lat="44.4912" lon="5.7441">
        <ele>727</ele>
        <time>2019-03-29T14:24:24Z</time>
      </trkpt>
      <trkpt lat="44.49116" lon="5.74417">
        <ele>727</ele>
        <time>2019-03-29T14:24:25Z</time>
      </trkpt>
      <trkpt lat="44.49113" lon="5.74424">
        <ele>727</ele>
        <time>2019-03-29T14:24:26Z</time>
      </trkpt>
      <trkpt lat="44.4911" lon="5.74431">
        <ele>727</ele>
        <time>2019-03-29T14:24:27Z</time>
      </trkpt>
      <trkpt lat="44.49106" lon="5.74438">
        <ele>727</ele>
        <time>2019-03-29T14:24:28Z</time>
      </trkpt>
      <trkpt lat="44.49103" lon="5.74445">
        <ele>727</ele>
        <time>2019-03-29T14:24:29Z</time>
      </trkpt>
      <trkpt lat="44.491" lon="5.74452">
        <ele>727</ele>
        <time>2019-03-29T14:24:30Z</time>
      </trkpt>
      <trkpt lat="44.49097" lon="5.74459">
        <ele>727</ele>
        <time>2019-03-29T14:24:31Z</time>
      </trkpt>
      <trkpt lat="44.49094" lon="5.74466">
        <ele>727</ele>
        <time>2019-03-29T14:24:32Z</time>
      </trkpt>
      <trkpt lat="44.49091" lon="5.74472">
        <ele>727</ele>
        <time>2019-03-29T14:24:33Z</time>
      </trkpt>
      <trkpt lat="44.49088" lon="5.74479">
        <ele>727</ele>
        <time>2019-03-29T14:24:34Z</time>
      </trkpt>
      <trkpt lat="44.49085" lon="5.74485">
        <ele>727</ele>
        <time>2019-03-29T14:24:35Z</time>
      </trkpt>
      <trkpt lat="44.49082" lon="5.74492">
        <ele>727</ele>
        <time>2019-03-29T14:24:36Z</time>
      </trkpt>
      <trkpt lat="44.49078" lon="5.74498">
        <ele>727</ele>
        <time>2019-03-29T14:24:37Z</time>
      </trkpt>
      <trkpt lat="44.49075" lon="5.74504">
        <ele>727</ele>
        <time>2019-03-29T14:24:38Z</time>
      </trkpt>
      <trkpt lat="44.49073" lon="5.7451">
        <ele>727</ele>
        <time>2019-03-29T14:24:39Z</time>
      </trkpt>
      <trkpt lat="44.4907" lon="5.74517">
        <ele>727</ele>
        <time>2019-03-29T14:24:40Z</time>
      </trkpt>
      <trkpt lat="44.49067" lon="5.74523">
        <ele>727</ele>
        <time>2019-03-29T14:24:41Z</time>
      </trkpt>
      <trkpt lat="44.49064" lon="5.74529">
        <ele>727</ele>
        <time>2019-03-29T14:24:42Z</time>
      </trkpt>
      <trkpt lat="44.49061" lon="5.74535">
        <ele>727</ele>
        <time>2019-03-29T14:24:43Z</time>
      </trkpt>
      <trkpt lat="44.49058" lon="5.74541">
        <ele>727</ele>
        <time>2019-03-29T14:24:44Z</time>
      </trkpt>
      <trkpt lat="44.49055" lon="5.74547">
        <ele>727</ele>
        <time>2019-03-29T14:24:45Z</time>
      </trkpt>
      <trkpt lat="44.49053" lon="5.74553">
        <ele>727</ele>
        <time>2019-03-29T14:24:46Z</time>
      </trkpt>
      <trkpt lat="44.4905" lon="5.74559">
        <ele>727</ele>
        <time>2019-03-29T14:24:47Z</time>
      </trkpt>
      <trkpt lat="44.49047" lon="5.74565">
        <ele>727</ele>
        <time>2019-03-29T14:24:48Z</time>
      </trkpt>
      <trkpt lat="44.49044" lon="5.74571">
        <ele>727</ele>
        <time>2019-03-29T14:24:49Z</time>
      </trkpt>
      <trkpt lat="44.49041" lon="5.74577">
        <ele>727</ele>
        <time>2019-03-29T14:24:50Z</time>
      </trkpt>
      <trkpt lat="44.49038" lon="5.74582">
        <ele>727</ele>
        <time>2019-03-29T14:24:51Z</time>
      </trkpt>
      <trkpt lat="44.49036" lon="5.74588">
        <ele>727</ele>
        <time>2019-03-29T14:24:52Z</time>
      </trkpt>
      <trkpt lat="44.49033" lon="5.74594">
        <ele>727</ele>
        <time>2019-03-29T14:24:53Z</time>
      </trkpt>
      <trkpt lat="44.4903" lon="5.746">
        <ele>727</ele>
        <time>2019-03-29T14:24:54Z</time>
      </trkpt>
      <trkpt lat="44.49027" lon="5.74605">
        <ele>727</ele>
        <time>2019-03-29T14:24:55Z</time>
      </trkpt>
      <trkpt lat="44.49024" lon="5.74611">
        <ele>727</ele>
        <time>2019-03-29T14:24:56Z</time>
      </trkpt>
      <trkpt lat="44.4902" lon="5.74616">
        <ele>727</ele>
        <time>2019-03-29T14:24:57Z</time>
      </trkpt>
      <trkpt lat="44.49017" lon="5.74621">
        <ele>727</ele>
        <time>2019-03-29T14:24:58Z</time>
      </trkpt>
      <trkpt lat="44.49014" lon="5.74627">
        <ele>727</ele>
        <time>2019-03-29T14:24:59Z</time>
      </trkpt>
      <trkpt lat="44.4901" lon="5.74632">
        <ele>727</ele>
        <time>2019-03-29T14:25:00Z</time>
      </trkpt>
      <trkpt lat="44.49007" lon="5.74637">
        <ele>727</ele>
        <time>2019-03-29T14:25:01Z</time>
      </trkpt>
      <trkpt lat="44.49003" lon="5.74643">
        <ele>727</ele>
        <time>2019-03-29T14:25:02Z</time>
      </trkpt>
      <trkpt lat="44.48999" lon="5.74648">
        <ele>728</ele>
        <time>2019-03-29T14:25:03Z</time>
      </trkpt>
      <trkpt lat="44.48996" lon="5.74653">
        <ele>728</ele>
        <time>2019-03-29T14:25:04Z</time>
      </trkpt>
      <trkpt lat="44.48992" lon="5.74659">
        <ele>728</ele>
        <time>2019-03-29T14:25:05Z</time>
      </trkpt>
      <trkpt lat="44.48988" lon="5.74664">
        <ele>728</ele>
        <time>2019-03-29T14:25:06Z</time>
      </trkpt>
      <trkpt lat="44.48984" lon="5.74669">
        <ele>729</ele>
        <time>2019-03-29T14:25:07Z</time>
      </trkpt>
      <trkpt lat="44.4898" lon="5.74674">
        <ele>729</ele>
        <time>2019-03-29T14:25:08Z</time>
      </trkpt>
      <trkpt lat="44.48976" lon="5.74679">
        <ele>729</ele>
        <time>2019-03-29T14:25:09Z</time>
      </trkpt>
      <trkpt lat="44.48972" lon="5.74684">
        <ele>729</ele>
        <time>2019-03-29T14:25:10Z</time>
      </trkpt>
      <trkpt lat="44.48968" lon="5.74689">
        <ele>730</ele>
        <time>2019-03-29T14:25:11Z</time>
      </trkpt>
      <trkpt lat="44.48964" lon="5.74695">
        <ele>730</ele>
        <time>2019-03-29T14:25:12Z</time>
      </trkpt>
      <trkpt lat="44.48959" lon="5.747">
        <ele>730</ele>
        <time>2019-03-29T14:25:13Z</time>
      </trkpt>
      <trkpt lat="44.48955" lon="5.74706">
        <ele>730</ele>
        <time>2019-03-29T14:25:14Z</time>
      </trkpt>
      <trkpt lat="44.48951" lon="5.74712">
        <ele>730</ele>
        <time>2019-03-29T14:25:15Z</time>
      </trkpt>
      <trkpt lat="44.48947" lon="5.74717">
        <ele>730</ele>
        <time>2019-03-29T14:25:16Z</time>
      </trkpt>
      <trkpt lat="44.48942" lon="5.74722">
        <ele>730</ele>
        <time>2019-03-29T14:25:17Z</time>
      </trkpt>
      <trkpt lat="44.48938" lon="5.74728">
        <ele>730</ele>
        <time>2019-03-29T14:25:18Z</time>
      </trkpt>
      <trkpt lat="44.48933" lon="5.74733">
        <ele>730</ele>
        <time>2019-03-29T14:25:19Z</time>
      </trkpt>
      <trkpt lat="44.48928" lon="5.74739">
        <ele>730</ele>
        <time>2019-03-29T14:25:20Z</time>
      </trkpt>
      <trkpt lat="44.48923" lon="5.74744">
        <ele>730</ele>
        <time>2019-03-29T14:25:21Z</time>
      </trkpt>
      <trkpt lat="44.48919" lon="5.7475">
        <ele>730</ele>
        <time>2019-03-29T14:25:22Z</time>
      </trkpt>
      <trkpt lat="44.48914" lon="5.74755">
        <ele>730</ele>
        <time>2019-03-29T14:25:23Z</time>
      </trkpt>
      <trkpt lat="44.48909" lon="5.74761">
        <ele>730</ele>
        <time>2019-03-29T14:25:24Z</time>
      </trkpt>
      <trkpt lat="44.48905" lon="5.74766">
        <ele>730</ele>
        <time>2019-03-29T14:25:25Z</time>
      </trkpt>
      <trkpt lat="44.489" lon="5.74772">
        <ele>730</ele>
        <time>2019-03-29T14:25:26Z</time>
      </trkpt>
      <trkpt lat="44.48896" lon="5.74778">
        <ele>730</ele>
        <time>2019-03-29T14:25:27Z</time>
      </trkpt>
      <trkpt lat="44.48891" lon="5.74783">
        <ele>730</ele>
        <time>2019-03-29T14:25:28Z</time>
      </trkpt>
      <trkpt lat="44.48886" lon="5.74789">
        <ele>730</ele>
        <time>2019-03-29T14:25:29Z</time>
      </trkpt>
      <trkpt lat="44.48882" lon="5.74794">
        <ele>730</ele>
        <time>2019-03-29T14:25:30Z</time>
      </trkpt>
      <trkpt lat="44.48878" lon="5.74799">
        <ele>730</ele>
        <time>2019-03-29T14:25:31Z</time>
      </trkpt>
      <trkpt lat="44.48874" lon="5.74804">
        <ele>730</ele>
        <time>2019-03-29T14:25:32Z</time>
      </trkpt>
      <trkpt lat="44.48869" lon="5.7481">
        <ele>730</ele>
        <time>2019-03-29T14:25:33Z</time>
      </trkpt>
      <trkpt lat="44.48865" lon="5.74815">
        <ele>730</ele>
        <time>2019-03-29T14:25:34Z</time>
      </trkpt>
      <trkpt lat="44.48861" lon="5.74821">
        <ele>730</ele>
        <time>2019-03-29T14:25:35Z</time>
      </trkpt>
      <trkpt lat="44.48856" lon="5.74826">
        <ele>730</ele>
        <time>2019-03-29T14:25:36Z</time>
      </trkpt>
      <trkpt lat="44.48852" lon="5.74832">
        <ele>731</ele>
        <time>2019-03-29T14:25:37Z</time>
      </trkpt>
      <trkpt lat="44.48848" lon="5.74837">
        <ele>731</ele>
        <time>2019-03-29T14:25:38Z</time>
      </trkpt>
      <trkpt lat="44.48844" lon="5.74842">
        <ele>731</ele>
        <time>2019-03-29T14:25:39Z</time>
      </trkpt>
      <trkpt lat="44.48839" lon="5.74847">
        <ele>731</ele>
        <time>2019-03-29T14:25:40Z</time>
      </trkpt>
      <trkpt lat="44.48835" lon="5.74852">
        <ele>731</ele>
        <time>2019-03-29T14:25:41Z</time>
      </trkpt>
      <trkpt lat="44.48831" lon="5.74857">
        <ele>731</ele>
        <time>2019-03-29T14:25:42Z</time>
      </trkpt>
      <trkpt lat="44.48827" lon="5.74862">
        <ele>731</ele>
        <time>2019-03-29T14:25:43Z</time>
      </trkpt>
      <trkpt lat="44.48822" lon="5.74868">
        <ele>731</ele>
        <time>2019-03-29T14:25:44Z</time>
      </trkpt>
      <trkpt lat="44.48818" lon="5.74873">
        <ele>731</ele>
        <time>2019-03-29T14:25:45Z</time>
      </trkpt>
      <trkpt lat="44.48814" lon="5.74879">
        <ele>731</ele>
        <time>2019-03-29T14:25:46Z</time>
      </trkpt>
      <trkpt lat="44.4881" lon="5.74884">
        <ele>731</ele>
        <time>2019-03-29T14:25:47Z</time>
      </trkpt>
      <trkpt lat="44.48806" lon="5.74889">
        <ele>731</ele>
        <time>2019-03-29T14:25:48Z</time>
      </trkpt>
      <trkpt lat="44.48802" lon="5.74894">
        <ele>731</ele>
        <time>2019-03-29T14:25:49Z</time>
      </trkpt>
      <trkpt lat="44.48798" lon="5.749">
        <ele>731</ele>
        <time>2019-03-29T14:25:50Z</time>
      </trkpt>
      <trkpt lat="44.48794" lon="5.74905">
        <ele>731</ele>
        <time>2019-03-29T14:25:51Z</time>
      </trkpt>
      <trkpt lat="44.4879" lon="5.74909">
        <ele>731</ele>
        <time>2019-03-29T14:25:52Z</time>
      </trkpt>
      <trkpt lat="44.48786" lon="5.74915">
        <ele>731</ele>
        <time>2019-03-29T14:25:53Z</time>
      </trkpt>
      <trkpt lat="44.48782" lon="5.7492">
        <ele>732</ele>
        <time>2019-03-29T14:25:54Z</time>
      </trkpt>
      <trkpt lat="44.48778" lon="5.74925">
        <ele>732</ele>
        <time>2019-03-29T14:25:55Z</time>
      </trkpt>
      <trkpt lat="44.48774" lon="5.74929">
        <ele>732</ele>
        <time>2019-03-29T14:25:56Z</time>
      </trkpt>
      <trkpt lat="44.4877" lon="5.74934">
        <ele>732</ele>
        <time>2019-03-29T14:25:57Z</time>
      </trkpt>
      <trkpt lat="44.48766" lon="5.74939">
        <ele>733</ele>
        <time>2019-03-29T14:25:58Z</time>
      </trkpt>
      <trkpt lat="44.48762" lon="5.74944">
        <ele>733</ele>
        <time>2019-03-29T14:25:59Z</time>
      </trkpt>
      <trkpt lat="44.48758" lon="5.74949">
        <ele>733</ele>
        <time>2019-03-29T14:26:00Z</time>
      </trkpt>
      <trkpt lat="44.48754" lon="5.74953">
        <ele>733</ele>
        <time>2019-03-29T14:26:01Z</time>
      </trkpt>
      <trkpt lat="44.4875" lon="5.74958">
        <ele>733</ele>
        <time>2019-03-29T14:26:02Z</time>
      </trkpt>
      <trkpt lat="44.48745" lon="5.74963">
        <ele>733</ele>
        <time>2019-03-29T14:26:03Z</time>
      </trkpt>
      <trkpt lat="44.48742" lon="5.74968">
        <ele>734</ele>
        <time>2019-03-29T14:26:04Z</time>
      </trkpt>
      <trkpt lat="44.48738" lon="5.74974">
        <ele>734</ele>
        <time>2019-03-29T14:26:05Z</time>
      </trkpt>
      <trkpt lat="44.48734" lon="5.74979">
        <ele>734</ele>
        <time>2019-03-29T14:26:06Z</time>
      </trkpt>
      <trkpt lat="44.4873" lon="5.74984">
        <ele>734</ele>
        <time>2019-03-29T14:26:07Z</time>
      </trkpt>
      <trkpt lat="44.48726" lon="5.74988">
        <ele>734</ele>
        <time>2019-03-29T14:26:08Z</time>
      </trkpt>
      <trkpt lat="44.48722" lon="5.74993">
        <ele>734</ele>
        <time>2019-03-29T14:26:09Z</time>
      </trkpt>
      <trkpt lat="44.48719" lon="5.74998">
        <ele>734</ele>
        <time>2019-03-29T14:26:10Z</time>
      </trkpt>
      <trkpt lat="44.48715" lon="5.75003">
        <ele>734</ele>
        <time>2019-03-29T14:26:11Z</time>
      </trkpt>
      <trkpt lat="44.48712" lon="5.75008">
        <ele>734</ele>
        <time>2019-03-29T14:26:12Z</time>
      </trkpt>
      <trkpt lat="44.48709" lon="5.75013">
        <ele>734</ele>
        <time>2019-03-29T14:26:13Z</time>
      </trkpt>
      <trkpt lat="44.48706" lon="5.75018">
        <ele>734</ele>
        <time>2019-03-29T14:26:14Z</time>
      </trkpt>
      <trkpt lat="44.48703" lon="5.75022">
        <ele>734</ele>
        <time>2019-03-29T14:26:15Z</time>
      </trkpt>
      <trkpt lat="44.48699" lon="5.75027">
        <ele>734</ele>
        <time>2019-03-29T14:26:16Z</time>
      </trkpt>
      <trkpt lat="44.48696" lon="5.75032">
        <ele>734</ele>
        <time>2019-03-29T14:26:17Z</time>
      </trkpt>
      <trkpt lat="44.48693" lon="5.75036">
        <ele>734</ele>
        <time>2019-03-29T14:26:18Z</time>
      </trkpt>
      <trkpt lat="44.4869" lon="5.75041">
        <ele>734</ele>
        <time>2019-03-29T14:26:19Z</time>
      </trkpt>
      <trkpt lat="44.48687" lon="5.75046">
        <ele>734</ele>
        <time>2019-03-29T14:26:20Z</time>
      </trkpt>
      <trkpt lat="44.48684" lon="5.75051">
        <ele>734</ele>
        <time>2019-03-29T14:26:21Z</time>
      </trkpt>
      <trkpt lat="44.48681" lon="5.75056">
        <ele>734</ele>
        <time>2019-03-29T14:26:22Z</time>
      </trkpt>
      <trkpt lat="44.48678" lon="5.75061">
        <ele>734</ele>
        <time>2019-03-29T14:26:23Z</time>
      </trkpt>
      <trkpt lat="44.48675" lon="5.75067">
        <ele>734</ele>
        <time>2019-03-29T14:26:24Z</time>
      </trkpt>
      <trkpt lat="44.48671" lon="5.75072">
        <ele>734</ele>
        <time>2019-03-29T14:26:25Z</time>
      </trkpt>
      <trkpt lat="44.48668" lon="5.75078">
        <ele>734</ele>
        <time>2019-03-29T14:26:26Z</time>
      </trkpt>
      <trkpt lat="44.48665" lon="5.75082">
        <ele>734</ele>
        <time>2019-03-29T14:26:27Z</time>
      </trkpt>
      <trkpt lat="44.48662" lon="5.75087">
        <ele>734</ele>
        <time>2019-03-29T14:26:28Z</time>
      </trkpt>
      <trkpt lat="44.48659" lon="5.75092">
        <ele>734</ele>
        <time>2019-03-29T14:26:29Z</time>
      </trkpt>
      <trkpt lat="44.48656" lon="5.75097">
        <ele>734</ele>
        <time>2019-03-29T14:26:30Z</time>
      </trkpt>
      <trkpt lat="44.48653" lon="5.75102">
        <ele>734</ele>
        <time>2019-03-29T14:26:31Z</time>
      </trkpt>
      <trkpt lat="44.4865" lon="5.75106">
        <ele>734</ele>
        <time>2019-03-29T14:26:32Z</time>
      </trkpt>
      <trkpt lat="44.48647" lon="5.75111">
        <ele>734</ele>
        <time>2019-03-29T14:26:33Z</time>
      </trkpt>
      <trkpt lat="44.48644" lon="5.75115">
        <ele>734</ele>
        <time>2019-03-29T14:26:34Z</time>
      </trkpt>
      <trkpt lat="44.48641" lon="5.7512">
        <ele>734</ele>
        <time>2019-03-29T14:26:35Z</time>
      </trkpt>
      <trkpt lat="44.48639" lon="5.75125">
        <ele>734</ele>
        <time>2019-03-29T14:26:36Z</time>
      </trkpt>
      <trkpt lat="44.48636" lon="5.7513">
        <ele>734</ele>
        <time>2019-03-29T14:26:37Z</time>
      </trkpt>
      <trkpt lat="44.48633" lon="5.75135">
        <ele>734</ele>
        <time>2019-03-29T14:26:38Z</time>
      </trkpt>
      <trkpt lat="44.4863" lon="5.75139">
        <ele>734</ele>
        <time>2019-03-29T14:26:39Z</time>
      </trkpt>
      <trkpt lat="44.48627" lon="5.75144">
        <ele>734</ele>
        <time>2019-03-29T14:26:40Z</time>
      </trkpt>
      <trkpt lat="44.48624" lon="5.75148">
        <ele>735</ele>
        <time>2019-03-29T14:26:41Z</time>
      </trkpt>
      <trkpt lat="44.48621" lon="5.75153">
        <ele>735</ele>
        <time>2019-03-29T14:26:42Z</time>
      </trkpt>
      <trkpt lat="44.48618" lon="5.75158">
        <ele>735</ele>
        <time>2019-03-29T14:26:43Z</time>
      </trkpt>
      <trkpt lat="44.48615" lon="5.75163">
        <ele>736</ele>
        <time>2019-03-29T14:26:44Z</time>
      </trkpt>
      <trkpt lat="44.48612" lon="5.75168">
        <ele>736</ele>
        <time>2019-03-29T14:26:45Z</time>
      </trkpt>
      <trkpt lat="44.48609" lon="5.75174">
        <ele>736</ele>
        <time>2019-03-29T14:26:46Z</time>
      </trkpt>
      <trkpt lat="44.48606" lon="5.75179">
        <ele>737</ele>
        <time>2019-03-29T14:26:47Z</time>
      </trkpt>
      <trkpt lat="44.48603" lon="5.75184">
        <ele>737</ele>
        <time>2019-03-29T14:26:48Z</time>
      </trkpt>
      <trkpt lat="44.48599" lon="5.7519">
        <ele>737</ele>
        <time>2019-03-29T14:26:49Z</time>
      </trkpt>
      <trkpt lat="44.48596" lon="5.75195">
        <ele>737</ele>
        <time>2019-03-29T14:26:50Z</time>
      </trkpt>
      <trkpt lat="44.48592" lon="5.752">
        <ele>738</ele>
        <time>2019-03-29T14:26:51Z</time>
      </trkpt>
      <trkpt lat="44.48588" lon="5.75206">
        <ele>738</ele>
        <time>2019-03-29T14:26:52Z</time>
      </trkpt>
      <trkpt lat="44.48585" lon="5.75211">
        <ele>739</ele>
        <time>2019-03-29T14:26:53Z</time>
      </trkpt>
      <trkpt lat="44.48581" lon="5.75216">
        <ele>739</ele>
        <time>2019-03-29T14:26:54Z</time>
      </trkpt>
      <trkpt lat="44.48577" lon="5.7522">
        <ele>740</ele>
        <time>2019-03-29T14:26:55Z</time>
      </trkpt>
      <trkpt lat="44.48572" lon="5.75224">
        <ele>740</ele>
        <time>2019-03-29T14:26:56Z</time>
      </trkpt>
      <trkpt lat="44.48568" lon="5.75228">
        <ele>740</ele>
        <time>2019-03-29T14:26:57Z</time>
      </trkpt>
      <trkpt lat="44.48563" lon="5.75232">
        <ele>741</ele>
        <time>2019-03-29T14:26:58Z</time>
      </trkpt>
      <trkpt lat="44.48559" lon="5.75235">
        <ele>741</ele>
        <time>2019-03-29T14:26:59Z</time>
      </trkpt>
      <trkpt lat="44.48554" lon="5.75239">
        <ele>741</ele>
        <time>2019-03-29T14:27:00Z</time>
      </trkpt>
      <trkpt lat="44.4855" lon="5.75242">
        <ele>742</ele>
        <time>2019-03-29T14:27:01Z</time>
      </trkpt>
      <trkpt lat="44.48545" lon="5.75246">
        <ele>742</ele>
        <time>2019-03-29T14:27:02Z</time>
      </trkpt>
      <trkpt lat="44.4854" lon="5.75249">
        <ele>742</ele>
        <time>2019-03-29T14:27:03Z</time>
      </trkpt>
      <trkpt lat="44.48536" lon="5.75252">
        <ele>742</ele>
        <time>2019-03-29T14:27:04Z</time>
      </trkpt>
      <trkpt lat="44.48531" lon="5.75255">
        <ele>743</ele>
        <time>2019-03-29T14:27:05Z</time>
      </trkpt>
      <trkpt lat="44.48525" lon="5.75258">
        <ele>743</ele>
        <time>2019-03-29T14:27:06Z</time>
      </trkpt>
      <trkpt lat="44.4852" lon="5.75261">
        <ele>743</ele>
        <time>2019-03-29T14:27:07Z</time>
      </trkpt>
      <trkpt lat="44.48515" lon="5.75265">
        <ele>743</ele>
        <time>2019-03-29T14:27:08Z</time>
      </trkpt>
      <trkpt lat="44.4851" lon="5.75267">
        <ele>743</ele>
        <time>2019-03-29T14:27:09Z</time>
      </trkpt>
      <trkpt lat="44.48504" lon="5.7527">
        <ele>744</ele>
        <time>2019-03-29T14:27:10Z</time>
      </trkpt>
      <trkpt lat="44.48499" lon="5.75273">
        <ele>744</ele>
        <time>2019-03-29T14:27:11Z</time>
      </trkpt>
      <trkpt lat="44.48493" lon="5.75275">
        <ele>744</ele>
        <time>2019-03-29T14:27:12Z</time>
      </trkpt>
      <trkpt lat="44.48488" lon="5.75277">
        <ele>744</ele>
        <time>2019-03-29T14:27:13Z</time>
      </trkpt>
      <trkpt lat="44.48482" lon="5.75279">
        <ele>744</ele>
        <time>2019-03-29T14:27:14Z</time>
      </trkpt>
      <trkpt lat="44.48477" lon="5.75281">
        <ele>744</ele>
        <time>2019-03-29T14:27:15Z</time>
      </trkpt>
      <trkpt lat="44.48472" lon="5.75282">
        <ele>744</ele>
        <time>2019-03-29T14:27:16Z</time>
      </trkpt>
      <trkpt lat="44.48466" lon="5.75284">
        <ele>744</ele>
        <time>2019-03-29T14:27:17Z</time>
      </trkpt>
      <trkpt lat="44.48462" lon="5.75286">
        <ele>744</ele>
        <time>2019-03-29T14:27:18Z</time>
      </trkpt>
      <trkpt lat="44.48457" lon="5.75289">
        <ele>744</ele>
        <time>2019-03-29T14:27:19Z</time>
      </trkpt>
      <trkpt lat="44.48452" lon="5.75292">
        <ele>744</ele>
        <time>2019-03-29T14:27:20Z</time>
      </trkpt>
      <trkpt lat="44.48448" lon="5.75295">
        <ele>745</ele>
        <time>2019-03-29T14:27:21Z</time>
      </trkpt>
      <trkpt lat="44.48443" lon="5.75299">
        <ele>745</ele>
        <time>2019-03-29T14:27:22Z</time>
      </trkpt>
      <trkpt lat="44.48439" lon="5.75303">
        <ele>745</ele>
        <time>2019-03-29T14:27:23Z</time>
      </trkpt>
      <trkpt lat="44.48434" lon="5.75308">
        <ele>745</ele>
        <time>2019-03-29T14:27:24Z</time>
      </trkpt>
      <trkpt lat="44.48429" lon="5.75312">
        <ele>745</ele>
        <time>2019-03-29T14:27:25Z</time>
      </trkpt>
      <trkpt lat="44.48424" lon="5.75317">
        <ele>745</ele>
        <time>2019-03-29T14:27:26Z</time>
      </trkpt>
      <trkpt lat="44.4842" lon="5.75321">
        <ele>745</ele>
        <time>2019-03-29T14:27:27Z</time>
      </trkpt>
      <trkpt lat="44.48416" lon="5.75326">
        <ele>745</ele>
        <time>2019-03-29T14:27:28Z</time>
      </trkpt>
      <trkpt lat="44.48412" lon="5.75331">
        <ele>745</ele>
        <time>2019-03-29T14:27:29Z</time>
      </trkpt>
      <trkpt lat="44.48407" lon="5.75336">
        <ele>746</ele>
        <time>2019-03-29T14:27:30Z</time>
      </trkpt>
      <trkpt lat="44.48404" lon="5.75341">
        <ele>746</ele>
        <time>2019-03-29T14:27:31Z</time>
      </trkpt>
      <trkpt lat="44.484" lon="5.75346">
        <ele>746</ele>
        <time>2019-03-29T14:27:32Z</time>
      </trkpt>
      <trkpt lat="44.48397" lon="5.75352">
        <ele>746</ele>
        <time>2019-03-29T14:27:33Z</time>
      </trkpt>
      <trkpt lat="44.48393" lon="5.75357">
        <ele>746</ele>
        <time>2019-03-29T14:27:34Z</time>
      </trkpt>
      <trkpt lat="44.4839" lon="5.75363">
        <ele>747</ele>
        <time>2019-03-29T14:27:35Z</time>
      </trkpt>
      <trkpt lat="44.48387" lon="5.75368">
        <ele>747</ele>
        <time>2019-03-29T14:27:36Z</time>
      </trkpt>
      <trkpt lat="44.48384" lon="5.75374">
        <ele>747</ele>
        <time>2019-03-29T14:27:37Z</time>
      </trkpt>
      <trkpt lat="44.48381" lon="5.75379">
        <ele>747</ele>
        <time>2019-03-29T14:27:38Z</time>
      </trkpt>
      <trkpt lat="44.48378" lon="5.75385">
        <ele>748</ele>
        <time>2019-03-29T14:27:39Z</time>
      </trkpt>
      <trkpt lat="44.48376" lon="5.7539">
        <ele>748</ele>
        <time>2019-03-29T14:27:40Z</time>
      </trkpt>
      <trkpt lat="44.48373" lon="5.75396">
        <ele>748</ele>
        <time>2019-03-29T14:27:41Z</time>
      </trkpt>
      <trkpt lat="44.4837" lon="5.75402">
        <ele>748</ele>
        <time>2019-03-29T14:27:42Z</time>
      </trkpt>
      <trkpt lat="44.48368" lon="5.75408">
        <ele>749</ele>
        <time>2019-03-29T14:27:43Z</time>
      </trkpt>
      <trkpt lat="44.48365" lon="5.75413">
        <ele>749</ele>
        <time>2019-03-29T14:27:44Z</time>
      </trkpt>
      <trkpt lat="44.48363" lon="5.75419">
        <ele>749</ele>
        <time>2019-03-29T14:27:45Z</time>
      </trkpt>
      <trkpt lat="44.4836" lon="5.75424">
        <ele>749</ele>
        <time>2019-03-29T14:27:46Z</time>
      </trkpt>
      <trkpt lat="44.48358" lon="5.7543">
        <ele>750</ele>
        <time>2019-03-29T14:27:47Z</time>
      </trkpt>
      <trkpt lat="44.48355" lon="5.75435">
        <ele>750</ele>
        <time>2019-03-29T14:27:48Z</time>
      </trkpt>
      <trkpt lat="44.48353" lon="5.7544">
        <ele>750</ele>
        <time>2019-03-29T14:27:49Z</time>
      </trkpt>
      <trkpt lat="44.48351" lon="5.75445">
        <ele>750</ele>
        <time>2019-03-29T14:27:50Z</time>
      </trkpt>
      <trkpt lat="44.48349" lon="5.7545">
        <ele>750</ele>
        <time>2019-03-29T14:27:51Z</time>
      </trkpt>
      <trkpt lat="44.48347" lon="5.75455">
        <ele>751</ele>
        <time>2019-03-29T14:27:52Z</time>
      </trkpt>
      <trkpt lat="44.48345" lon="5.7546">
        <ele>751</ele>
        <time>2019-03-29T14:27:53Z</time>
      </trkpt>
      <trkpt lat="44.48343" lon="5.75464">
        <ele>751</ele>
        <time>2019-03-29T14:27:54Z</time>
      </trkpt>
      <trkpt lat="44.4834" lon="5.75469">
        <ele>751</ele>
        <time>2019-03-29T14:27:55Z</time>
      </trkpt>
      <trkpt lat="44.48338" lon="5.75473">
        <ele>751</ele>
        <time>2019-03-29T14:27:56Z</time>
      </trkpt>
      <trkpt lat="44.48336" lon="5.75478">
        <ele>751</ele>
        <time>2019-03-29T14:27:57Z</time>
      </trkpt>
      <trkpt lat="44.48333" lon="5.75483">
        <ele>751</ele>
        <time>2019-03-29T14:27:58Z</time>
      </trkpt>
      <trkpt lat="44.48331" lon="5.75487">
        <ele>752</ele>
        <time>2019-03-29T14:27:59Z</time>
      </trkpt>
      <trkpt lat="44.48328" lon="5.75491">
        <ele>752</ele>
        <time>2019-03-29T14:28:00Z</time>
      </trkpt>
      <trkpt lat="44.48324" lon="5.75495">
        <ele>752</ele>
        <time>2019-03-29T14:28:01Z</time>
      </trkpt>
      <trkpt lat="44.48321" lon="5.75498">
        <ele>752</ele>
        <time>2019-03-29T14:28:02Z</time>
      </trkpt>
      <trkpt lat="44.48317" lon="5.75502">
        <ele>752</ele>
        <time>2019-03-29T14:28:04Z</time>
      </trkpt>
      <trkpt lat="44.48314" lon="5.75505">
        <ele>752</ele>
        <time>2019-03-29T14:28:04Z</time>
      </trkpt>
      <trkpt lat="44.4831" lon="5.75507">
        <ele>753</ele>
        <time>2019-03-29T14:28:05Z</time>
      </trkpt>
      <trkpt lat="44.48307" lon="5.75509">
        <ele>753</ele>
        <time>2019-03-29T14:28:06Z</time>
      </trkpt>
      <trkpt lat="44.48303" lon="5.75511">
        <ele>753</ele>
        <time>2019-03-29T14:28:07Z</time>
      </trkpt>
      <trkpt lat="44.483" lon="5.75514">
        <ele>753</ele>
        <time>2019-03-29T14:28:08Z</time>
      </trkpt>
      <trkpt lat="44.48296" lon="5.75517">
        <ele>753</ele>
        <time>2019-03-29T14:28:09Z</time>
      </trkpt>
      <trkpt lat="44.48292" lon="5.75519">
        <ele>753</ele>
        <time>2019-03-29T14:28:10Z</time>
      </trkpt>
      <trkpt lat="44.48288" lon="5.75521">
        <ele>753</ele>
        <time>2019-03-29T14:28:11Z</time>
      </trkpt>
      <trkpt lat="44.48284" lon="5.75523">
        <ele>753</ele>
        <time>2019-03-29T14:28:12Z</time>
      </trkpt>
      <trkpt lat="44.4828" lon="5.75526">
        <ele>753</ele>
        <time>2019-03-29T14:28:13Z</time>
      </trkpt>
      <trkpt lat="44.48275" lon="5.75528">
        <ele>753</ele>
        <time>2019-03-29T14:28:14Z</time>
      </trkpt>
      <trkpt lat="44.48271" lon="5.75531">
        <ele>753</ele>
        <time>2019-03-29T14:28:15Z</time>
      </trkpt>
      <trkpt lat="44.48267" lon="5.75534">
        <ele>753</ele>
        <time>2019-03-29T14:28:16Z</time>
      </trkpt>
      <trkpt lat="44.48262" lon="5.75536">
        <ele>753</ele>
        <time>2019-03-29T14:28:17Z</time>
      </trkpt>
      <trkpt lat="44.48257" lon="5.75539">
        <ele>753</ele>
        <time>2019-03-29T14:28:18Z</time>
      </trkpt>
      <trkpt lat="44.48252" lon="5.75542">
        <ele>753</ele>
        <time>2019-03-29T14:28:19Z</time>
      </trkpt>
      <trkpt lat="44.48248" lon="5.75545">
        <ele>753</ele>
        <time>2019-03-29T14:28:20Z</time>
      </trkpt>
      <trkpt lat="44.48243" lon="5.75548">
        <ele>753</ele>
        <time>2019-03-29T14:28:21Z</time>
      </trkpt>
      <trkpt lat="44.48238" lon="5.75552">
        <ele>753</ele>
        <time>2019-03-29T14:28:22Z</time>
      </trkpt>
      <trkpt lat="44.48233" lon="5.75555">
        <ele>753</ele>
        <time>2019-03-29T14:28:23Z</time>
      </trkpt>
      <trkpt lat="44.48227" lon="5.75558">
        <ele>753</ele>
        <time>2019-03-29T14:28:24Z</time>
      </trkpt>
      <trkpt lat="44.48222" lon="5.75561">
        <ele>753</ele>
        <time>2019-03-29T14:28:25Z</time>
      </trkpt>
      <trkpt lat="44.48217" lon="5.75564">
        <ele>753</ele>
        <time>2019-03-29T14:28:26Z</time>
      </trkpt>
      <trkpt lat="44.48212" lon="5.75567">
        <ele>753</ele>
        <time>2019-03-29T14:28:27Z</time>
      </trkpt>
      <trkpt lat="44.48206" lon="5.7557">
        <ele>753</ele>
        <time>2019-03-29T14:28:28Z</time>
      </trkpt>
      <trkpt lat="44.48201" lon="5.75574">
        <ele>753</ele>
        <time>2019-03-29T14:28:29Z</time>
      </trkpt>
      <trkpt lat="44.48195" lon="5.75578">
        <ele>753</ele>
        <time>2019-03-29T14:28:30Z</time>
      </trkpt>
      <trkpt lat="44.48188" lon="5.75582">
        <ele>753</ele>
        <time>2019-03-29T14:28:31Z</time>
      </trkpt>
      <trkpt lat="44.48182" lon="5.75586">
        <ele>753</ele>
        <time>2019-03-29T14:28:32Z</time>
      </trkpt>
      <trkpt lat="44.48176" lon="5.75592">
        <ele>753</ele>
        <time>2019-03-29T14:28:33Z</time>
      </trkpt>
      <trkpt lat="44.4817" lon="5.75597">
        <ele>753</ele>
        <time>2019-03-29T14:28:34Z</time>
      </trkpt>
      <trkpt lat="44.48164" lon="5.75604">
        <ele>753</ele>
        <time>2019-03-29T14:28:35Z</time>
      </trkpt>
      <trkpt lat="44.48158" lon="5.75612">
        <ele>753</ele>
        <time>2019-03-29T14:28:36Z</time>
      </trkpt>
      <trkpt lat="44.48152" lon="5.75621">
        <ele>753</ele>
        <time>2019-03-29T14:28:37Z</time>
      </trkpt>
      <trkpt lat="44.48146" lon="5.75631">
        <ele>753</ele>
        <time>2019-03-29T14:28:38Z</time>
      </trkpt>
      <trkpt lat="44.48142" lon="5.75641">
        <ele>753</ele>
        <time>2019-03-29T14:28:39Z</time>
      </trkpt>
      <trkpt lat="44.48138" lon="5.75652">
        <ele>753</ele>
        <time>2019-03-29T14:28:40Z</time>
      </trkpt>
      <trkpt lat="44.48135" lon="5.75664">
        <ele>752</ele>
        <time>2019-03-29T14:28:41Z</time>
      </trkpt>
      <trkpt lat="44.48132" lon="5.75677">
        <ele>752</ele>
        <time>2019-03-29T14:28:42Z</time>
      </trkpt>
      <trkpt lat="44.4813" lon="5.75689">
        <ele>751</ele>
        <time>2019-03-29T14:28:43Z</time>
      </trkpt>
      <trkpt lat="44.4813" lon="5.75702">
        <ele>750</ele>
        <time>2019-03-29T14:28:44Z</time>
      </trkpt>
      <trkpt lat="44.48129" lon="5.75715">
        <ele>750</ele>
        <time>2019-03-29T14:28:45Z</time>
      </trkpt>
      <trkpt lat="44.4813" lon="5.75728">
        <ele>749</ele>
        <time>2019-03-29T14:28:46Z</time>
      </trkpt>
      <trkpt lat="44.4813" lon="5.75742">
        <ele>749</ele>
        <time>2019-03-29T14:28:47Z</time>
      </trkpt>
      <trkpt lat="44.4813" lon="5.75756">
        <ele>748</ele>
        <time>2019-03-29T14:28:48Z</time>
      </trkpt>
      <trkpt lat="44.4813" lon="5.7577">
        <ele>748</ele>
        <time>2019-03-29T14:28:49Z</time>
      </trkpt>
      <trkpt lat="44.4813" lon="5.75784">
        <ele>747</ele>
        <time>2019-03-29T14:28:50Z</time>
      </trkpt>
      <trkpt lat="44.4813" lon="5.75798">
        <ele>747</ele>
        <time>2019-03-29T14:28:51Z</time>
      </trkpt>
      <trkpt lat="44.4813" lon="5.75812">
        <ele>746</ele>
        <time>2019-03-29T14:28:52Z</time>
      </trkpt>
      <trkpt lat="44.4813" lon="5.75826">
        <ele>746</ele>
        <time>2019-03-29T14:28:53Z</time>
      </trkpt>
      <trkpt lat="44.4813" lon="5.7584">
        <ele>745</ele>
        <time>2019-03-29T14:28:54Z</time>
      </trkpt>
      <trkpt lat="44.4813" lon="5.75853">
        <ele>744</ele>
        <time>2019-03-29T14:28:55Z</time>
      </trkpt>
      <trkpt lat="44.4813" lon="5.75867">
        <ele>744</ele>
        <time>2019-03-29T14:28:56Z</time>
      </trkpt>
      <trkpt lat="44.4813" lon="5.75881">
        <ele>744</ele>
        <time>2019-03-29T14:28:57Z</time>
      </trkpt>
      <trkpt lat="44.4813" lon="5.75895">
        <ele>743</ele>
        <time>2019-03-29T14:28:58Z</time>
      </trkpt>
      <trkpt lat="44.4813" lon="5.75908">
        <ele>743</ele>
        <time>2019-03-29T14:28:59Z</time>
      </trkpt>
      <trkpt lat="44.4813" lon="5.75921">
        <ele>742</ele>
        <time>2019-03-29T14:29:00Z</time>
      </trkpt>
      <trkpt lat="44.48132" lon="5.75934">
        <ele>742</ele>
        <time>2019-03-29T14:29:01Z</time>
      </trkpt>
      <trkpt lat="44.48136" lon="5.75946">
        <ele>741</ele>
        <time>2019-03-29T14:29:02Z</time>
      </trkpt>
      <trkpt lat="44.48141" lon="5.75957">
        <ele>741</ele>
        <time>2019-03-29T14:29:03Z</time>
      </trkpt>
      <trkpt lat="44.48147" lon="5.75967">
        <ele>740</ele>
        <time>2019-03-29T14:29:04Z</time>
      </trkpt>
      <trkpt lat="44.48155" lon="5.75974">
        <ele>739</ele>
        <time>2019-03-29T14:29:05Z</time>
      </trkpt>
      <trkpt lat="44.48163" lon="5.75982">
        <ele>739</ele>
        <time>2019-03-29T14:29:06Z</time>
      </trkpt>
      <trkpt lat="44.48171" lon="5.75989">
        <ele>738</ele>
        <time>2019-03-29T14:29:07Z</time>
      </trkpt>
      <trkpt lat="44.48179" lon="5.75996">
        <ele>738</ele>
        <time>2019-03-29T14:29:08Z</time>
      </trkpt>
      <trkpt lat="44.48186" lon="5.76002">
        <ele>738</ele>
        <time>2019-03-29T14:29:09Z</time>
      </trkpt>
      <trkpt lat="44.48193" lon="5.76008">
        <ele>737</ele>
        <time>2019-03-29T14:29:10Z</time>
      </trkpt>
      <trkpt lat="44.48198" lon="5.76015">
        <ele>737</ele>
        <time>2019-03-29T14:29:11Z</time>
      </trkpt>
      <trkpt lat="44.48201" lon="5.76022">
        <ele>737</ele>
        <time>2019-03-29T14:29:12Z</time>
      </trkpt>
      <trkpt lat="44.48202" lon="5.7603">
        <ele>736</ele>
        <time>2019-03-29T14:29:13Z</time>
      </trkpt>
      <trkpt lat="44.48201" lon="5.76037">
        <ele>736</ele>
        <time>2019-03-29T14:29:14Z</time>
      </trkpt>
      <trkpt lat="44.48198" lon="5.76044">
        <ele>736</ele>
        <time>2019-03-29T14:29:15Z</time>
      </trkpt>
      <trkpt lat="44.48195" lon="5.7605">
        <ele>735</ele>
        <time>2019-03-29T14:29:16Z</time>
      </trkpt>
      <trkpt lat="44.48192" lon="5.76056">
        <ele>735</ele>
        <time>2019-03-29T14:29:17Z</time>
      </trkpt>
      <trkpt lat="44.48189" lon="5.76063">
        <ele>735</ele>
        <time>2019-03-29T14:29:18Z</time>
      </trkpt>
      <trkpt lat="44.48186" lon="5.76071">
        <ele>734</ele>
        <time>2019-03-29T14:29:19Z</time>
      </trkpt>
      <trkpt lat="44.48184" lon="5.7608">
        <ele>734</ele>
        <time>2019-03-29T14:29:20Z</time>
      </trkpt>
      <trkpt lat="44.48183" lon="5.76088">
        <ele>733</ele>
        <time>2019-03-29T14:29:21Z</time>
      </trkpt>
      <trkpt lat="44.48183" lon="5.76097">
        <ele>733</ele>
        <time>2019-03-29T14:29:22Z</time>
      </trkpt>
      <trkpt lat="44.48183" lon="5.76107">
        <ele>733</ele>
        <time>2019-03-29T14:29:23Z</time>
      </trkpt>
      <trkpt lat="44.48183" lon="5.76116">
        <ele>733</ele>
        <time>2019-03-29T14:29:24Z</time>
      </trkpt>
      <trkpt lat="44.48184" lon="5.76125">
        <ele>733</ele>
        <time>2019-03-29T14:29:25Z</time>
      </trkpt>
      <trkpt lat="44.48185" lon="5.76134">
        <ele>732</ele>
        <time>2019-03-29T14:29:26Z</time>
      </trkpt>
      <trkpt lat="44.48185" lon="5.76143">
        <ele>732</ele>
        <time>2019-03-29T14:29:27Z</time>
      </trkpt>
      <trkpt lat="44.48185" lon="5.76152">
        <ele>732</ele>
        <time>2019-03-29T14:29:28Z</time>
      </trkpt>
      <trkpt lat="44.48185" lon="5.76161">
        <ele>732</ele>
        <time>2019-03-29T14:29:29Z</time>
      </trkpt>
      <trkpt lat="44.48186" lon="5.76168">
        <ele>731</ele>
        <time>2019-03-29T14:29:30Z</time>
      </trkpt>
      <trkpt lat="44.48186" lon="5.76176">
        <ele>731</ele>
        <time>2019-03-29T14:29:31Z</time>
      </trkpt>
      <trkpt lat="44.48186" lon="5.76184">
        <ele>731</ele>
        <time>2019-03-29T14:29:32Z</time>
      </trkpt>
      <trkpt lat="44.48186" lon="5.76192">
        <ele>731</ele>
        <time>2019-03-29T14:29:33Z</time>
      </trkpt>
      <trkpt lat="44.48187" lon="5.76199">
        <ele>731</ele>
        <time>2019-03-29T14:29:34Z</time>
      </trkpt>
      <trkpt lat="44.48187" lon="5.76207">
        <ele>730</ele>
        <time>2019-03-29T14:29:35Z</time>
      </trkpt>
      <trkpt lat="44.48187" lon="5.76215">
        <ele>730</ele>
        <time>2019-03-29T14:29:36Z</time>
      </trkpt>
      <trkpt lat="44.48187" lon="5.76222">
        <ele>730</ele>
        <time>2019-03-29T14:29:37Z</time>
      </trkpt>
      <trkpt lat="44.48188" lon="5.76229">
        <ele>730</ele>
        <time>2019-03-29T14:29:38Z</time>
      </trkpt>
      <trkpt lat="44.48188" lon="5.76237">
        <ele>730</ele>
        <time>2019-03-29T14:29:39Z</time>
      </trkpt>
      <trkpt lat="44.48188" lon="5.76245">
        <ele>730</ele>
        <time>2019-03-29T14:29:40Z</time>
      </trkpt>
      <trkpt lat="44.48189" lon="5.76252">
        <ele>730</ele>
        <time>2019-03-29T14:29:41Z</time>
      </trkpt>
      <trkpt lat="44.48189" lon="5.76258">
        <ele>730</ele>
        <time>2019-03-29T14:29:42Z</time>
      </trkpt>
      <trkpt lat="44.48189" lon="5.76264">
        <ele>730</ele>
        <time>2019-03-29T14:29:43Z</time>
      </trkpt>
      <trkpt lat="44.48189" lon="5.76269">
        <ele>730</ele>
        <time>2019-03-29T14:29:44Z</time>
      </trkpt>
      <trkpt lat="44.48189" lon="5.76274">
        <ele>730</ele>
        <time>2019-03-29T14:29:45Z</time>
      </trkpt>
      <trkpt lat="44.4819" lon="5.76278">
        <ele>730</ele>
        <time>2019-03-29T14:29:46Z</time>
      </trkpt>
      <trkpt lat="44.48191" lon="5.76281">
        <ele>730</ele>
        <time>2019-03-29T14:29:47Z</time>
      </trkpt>
      <trkpt lat="44.48193" lon="5.76284">
        <ele>730</ele>
        <time>2019-03-29T14:29:48Z</time>
      </trkpt>
      <trkpt lat="44.48194" lon="5.76286">
        <ele>730</ele>
        <time>2019-03-29T14:29:49Z</time>
      </trkpt>
      <trkpt lat="44.48196" lon="5.76287">
        <ele>729</ele>
        <time>2019-03-29T14:29:50Z</time>
      </trkpt>
      <trkpt lat="44.48197" lon="5.76289">
        <ele>729</ele>
        <time>2019-03-29T14:29:51Z</time>
      </trkpt>
      <trkpt lat="44.48199" lon="5.76291">
        <ele>729</ele>
        <time>2019-03-29T14:29:52Z</time>
      </trkpt>
      <trkpt lat="44.48201" lon="5.76293">
        <ele>729</ele>
        <time>2019-03-29T14:29:53Z</time>
      </trkpt>
      <trkpt lat="44.48202" lon="5.76295">
        <ele>729</ele>
        <time>2019-03-29T14:29:54Z</time>
      </trkpt>
      <trkpt lat="44.48204" lon="5.76297">
        <ele>729</ele>
        <time>2019-03-29T14:29:55Z</time>
      </trkpt>
      <trkpt lat="44.48206" lon="5.76299">
        <ele>729</ele>
        <time>2019-03-29T14:29:56Z</time>
      </trkpt>
      <trkpt lat="44.48207" lon="5.76303">
        <ele>729</ele>
        <time>2019-03-29T14:29:57Z</time>
      </trkpt>
      <trkpt lat="44.48208" lon="5.76307">
        <ele>729</ele>
        <time>2019-03-29T14:29:58Z</time>
      </trkpt>
      <trkpt lat="44.48209" lon="5.76311">
        <ele>729</ele>
        <time>2019-03-29T14:29:59Z</time>
      </trkpt>
      <trkpt lat="44.48211" lon="5.76315">
        <ele>729</ele>
        <time>2019-03-29T14:30:00Z</time>
      </trkpt>
      <trkpt lat="44.48214" lon="5.76319">
        <ele>729</ele>
        <time>2019-03-29T14:30:01Z</time>
      </trkpt>
      <trkpt lat="44.48217" lon="5.76324">
        <ele>729</ele>
        <time>2019-03-29T14:30:02Z</time>
      </trkpt>
      <trkpt lat="44.4822" lon="5.76329">
        <ele>729</ele>
        <time>2019-03-29T14:30:03Z</time>
      </trkpt>
      <trkpt lat="44.48223" lon="5.76334">
        <ele>729</ele>
        <time>2019-03-29T14:30:04Z</time>
      </trkpt>
      <trkpt lat="44.48227" lon="5.76339">
        <ele>729</ele>
        <time>2019-03-29T14:30:05Z</time>
      </trkpt>
      <trkpt lat="44.4823" lon="5.76344">
        <ele>729</ele>
        <time>2019-03-29T14:30:06Z</time>
      </trkpt>
      <trkpt lat="44.48234" lon="5.76348">
        <ele>729</ele>
        <time>2019-03-29T14:30:07Z</time>
      </trkpt>
      <trkpt lat="44.48237" lon="5.76354">
        <ele>729</ele>
        <time>2019-03-29T14:30:08Z</time>
      </trkpt>
      <trkpt lat="44.48241" lon="5.76359">
        <ele>729</ele>
        <time>2019-03-29T14:30:09Z</time>
      </trkpt>
      <trkpt lat="44.48244" lon="5.76363">
        <ele>729</ele>
        <time>2019-03-29T14:30:10Z</time>
      </trkpt>
      <trkpt lat="44.48247" lon="5.76368">
        <ele>729</ele>
        <time>2019-03-29T14:30:11Z</time>
      </trkpt>
      <trkpt lat="44.4825" lon="5.76373">
        <ele>729</ele>
        <time>2019-03-29T14:30:12Z</time>
      </trkpt>
      <trkpt lat="44.48252" lon="5.76379">
        <ele>729</ele>
        <time>2019-03-29T14:30:13Z</time>
      </trkpt>
      <trkpt lat="44.48252" lon="5.76385">
        <ele>729</ele>
        <time>2019-03-29T14:30:14Z</time>
      </trkpt>
      <trkpt lat="44.48251" lon="5.76391">
        <ele>729</ele>
        <time>2019-03-29T14:30:15Z</time>
      </trkpt>
      <trkpt lat="44.48248" lon="5.76395">
        <ele>729</ele>
        <time>2019-03-29T14:30:16Z</time>
      </trkpt>
      <trkpt lat="44.48246" lon="5.76399">
        <ele>729</ele>
        <time>2019-03-29T14:30:17Z</time>
      </trkpt>
      <trkpt lat="44.48243" lon="5.76403">
        <ele>729</ele>
        <time>2019-03-29T14:30:18Z</time>
      </trkpt>
      <trkpt lat="44.48241" lon="5.76406">
        <ele>729</ele>
        <time>2019-03-29T14:30:19Z</time>
      </trkpt>
      <trkpt lat="44.48238" lon="5.7641">
        <ele>729</ele>
        <time>2019-03-29T14:30:20Z</time>
      </trkpt>
      <trkpt lat="44.48234" lon="5.76414">
        <ele>729</ele>
        <time>2019-03-29T14:30:21Z</time>
      </trkpt>
      <trkpt lat="44.48231" lon="5.76418">
        <ele>729</ele>
        <time>2019-03-29T14:30:22Z</time>
      </trkpt>
      <trkpt lat="44.48227" lon="5.76423">
        <ele>729</ele>
        <time>2019-03-29T14:30:23Z</time>
      </trkpt>
      <trkpt lat="44.48223" lon="5.76428">
        <ele>729</ele>
        <time>2019-03-29T14:30:24Z</time>
      </trkpt>
      <trkpt lat="44.48219" lon="5.76433">
        <ele>729</ele>
        <time>2019-03-29T14:30:25Z</time>
      </trkpt>
      <trkpt lat="44.48214" lon="5.76439">
        <ele>729</ele>
        <time>2019-03-29T14:30:26Z</time>
      </trkpt>
      <trkpt lat="44.48211" lon="5.76444">
        <ele>729</ele>
        <time>2019-03-29T14:30:27Z</time>
      </trkpt>
      <trkpt lat="44.48207" lon="5.76448">
        <ele>729</ele>
        <time>2019-03-29T14:30:28Z</time>
      </trkpt>
      <trkpt lat="44.48203" lon="5.76454">
        <ele>729</ele>
        <time>2019-03-29T14:30:29Z</time>
      </trkpt>
      <trkpt lat="44.48198" lon="5.76459">
        <ele>729</ele>
        <time>2019-03-29T14:30:30Z</time>
      </trkpt>
      <trkpt lat="44.48195" lon="5.76464">
        <ele>729</ele>
        <time>2019-03-29T14:30:31Z</time>
      </trkpt>
      <trkpt lat="44.48191" lon="5.76469">
        <ele>729</ele>
        <time>2019-03-29T14:30:32Z</time>
      </trkpt>
      <trkpt lat="44.48187" lon="5.76474">
        <ele>729</ele>
        <time>2019-03-29T14:30:33Z</time>
      </trkpt>
      <trkpt lat="44.48184" lon="5.76478">
        <ele>729</ele>
        <time>2019-03-29T14:30:34Z</time>
      </trkpt>
      <trkpt lat="44.4818" lon="5.76484">
        <ele>729</ele>
        <time>2019-03-29T14:30:35Z</time>
      </trkpt>
      <trkpt lat="44.48177" lon="5.76489">
        <ele>729</ele>
        <time>2019-03-29T14:30:36Z</time>
      </trkpt>
      <trkpt lat="44.48174" lon="5.76494">
        <ele>729</ele>
        <time>2019-03-29T14:30:37Z</time>
      </trkpt>
      <trkpt lat="44.48171" lon="5.76499">
        <ele>729</ele>
        <time>2019-03-29T14:30:38Z</time>
      </trkpt>
      <trkpt lat="44.48167" lon="5.76504">
        <ele>729</ele>
        <time>2019-03-29T14:30:39Z</time>
      </trkpt>
      <trkpt lat="44.48164" lon="5.76509">
        <ele>729</ele>
        <time>2019-03-29T14:30:40Z</time>
      </trkpt>
      <trkpt lat="44.48161" lon="5.76515">
        <ele>729</ele>
        <time>2019-03-29T14:30:41Z</time>
      </trkpt>
      <trkpt lat="44.48158" lon="5.76521">
        <ele>729</ele>
        <time>2019-03-29T14:30:42Z</time>
      </trkpt>
      <trkpt lat="44.48155" lon="5.76527">
        <ele>729</ele>
        <time>2019-03-29T14:30:43Z</time>
      </trkpt>
      <trkpt lat="44.48152" lon="5.76533">
        <ele>729</ele>
        <time>2019-03-29T14:30:44Z</time>
      </trkpt>
      <trkpt lat="44.48149" lon="5.76539">
        <ele>729</ele>
        <time>2019-03-29T14:30:45Z</time>
      </trkpt>
      <trkpt lat="44.48146" lon="5.76545">
        <ele>729</ele>
        <time>2019-03-29T14:30:46Z</time>
      </trkpt>
      <trkpt lat="44.48144" lon="5.76551">
        <ele>729</ele>
        <time>2019-03-29T14:30:47Z</time>
      </trkpt>
      <trkpt lat="44.48141" lon="5.76557">
        <ele>729</ele>
        <time>2019-03-29T14:30:48Z</time>
      </trkpt>
      <trkpt lat="44.48139" lon="5.76563">
        <ele>729</ele>
        <time>2019-03-29T14:30:49Z</time>
      </trkpt>
      <trkpt lat="44.48136" lon="5.76569">
        <ele>729</ele>
        <time>2019-03-29T14:30:50Z</time>
      </trkpt>
      <trkpt lat="44.48134" lon="5.76575">
        <ele>729</ele>
        <time>2019-03-29T14:30:51Z</time>
      </trkpt>
      <trkpt lat="44.48131" lon="5.76581">
        <ele>729</ele>
        <time>2019-03-29T14:30:52Z</time>
      </trkpt>
      <trkpt lat="44.48129" lon="5.76587">
        <ele>729</ele>
        <time>2019-03-29T14:30:53Z</time>
      </trkpt>
      <trkpt lat="44.48127" lon="5.76594">
        <ele>729</ele>
        <time>2019-03-29T14:30:54Z</time>
      </trkpt>
      <trkpt lat="44.48124" lon="5.76601">
        <ele>729</ele>
        <time>2019-03-29T14:30:55Z</time>
      </trkpt>
      <trkpt lat="44.48122" lon="5.76607">
        <ele>729</ele>
        <time>2019-03-29T14:30:56Z</time>
      </trkpt>
      <trkpt lat="44.4812" lon="5.76614">
        <ele>729</ele>
        <time>2019-03-29T14:30:57Z</time>
      </trkpt>
      <trkpt lat="44.48119" lon="5.7662">
        <ele>729</ele>
        <time>2019-03-29T14:30:58Z</time>
      </trkpt>
      <trkpt lat="44.48117" lon="5.76627">
        <ele>729</ele>
        <time>2019-03-29T14:30:59Z</time>
      </trkpt>
      <trkpt lat="44.48115" lon="5.76633">
        <ele>729</ele>
        <time>2019-03-29T14:31:00Z</time>
      </trkpt>
      <trkpt lat="44.48113" lon="5.7664">
        <ele>729</ele>
        <time>2019-03-29T14:31:01Z</time>
      </trkpt>
      <trkpt lat="44.48111" lon="5.76647">
        <ele>729</ele>
        <time>2019-03-29T14:31:02Z</time>
      </trkpt>
      <trkpt lat="44.48109" lon="5.76653">
        <ele>729</ele>
        <time>2019-03-29T14:31:03Z</time>
      </trkpt>
      <trkpt lat="44.48107" lon="5.7666">
        <ele>729</ele>
        <time>2019-03-29T14:31:04Z</time>
      </trkpt>
      <trkpt lat="44.48104" lon="5.76666">
        <ele>729</ele>
        <time>2019-03-29T14:31:05Z</time>
      </trkpt>
      <trkpt lat="44.48102" lon="5.76673">
        <ele>729</ele>
        <time>2019-03-29T14:31:06Z</time>
      </trkpt>
      <trkpt lat="44.48099" lon="5.76679">
        <ele>729</ele>
        <time>2019-03-29T14:31:07Z</time>
      </trkpt>
      <trkpt lat="44.48097" lon="5.76685">
        <ele>729</ele>
        <time>2019-03-29T14:31:08Z</time>
      </trkpt>
      <trkpt lat="44.48094" lon="5.76691">
        <ele>729</ele>
        <time>2019-03-29T14:31:09Z</time>
      </trkpt>
      <trkpt lat="44.48091" lon="5.76697">
        <ele>729</ele>
        <time>2019-03-29T14:31:10Z</time>
      </trkpt>
      <trkpt lat="44.48088" lon="5.76703">
        <ele>729</ele>
        <time>2019-03-29T14:31:11Z</time>
      </trkpt>
      <trkpt lat="44.48086" lon="5.76709">
        <ele>729</ele>
        <time>2019-03-29T14:31:12Z</time>
      </trkpt>
      <trkpt lat="44.48083" lon="5.76716">
        <ele>729</ele>
        <time>2019-03-29T14:31:13Z</time>
      </trkpt>
      <trkpt lat="44.4808" lon="5.76721">
        <ele>729</ele>
        <time>2019-03-29T14:31:14Z</time>
      </trkpt>
      <trkpt lat="44.48078" lon="5.76728">
        <ele>729</ele>
        <time>2019-03-29T14:31:15Z</time>
      </trkpt>
      <trkpt lat="44.48076" lon="5.76734">
        <ele>729</ele>
        <time>2019-03-29T14:31:16Z</time>
      </trkpt>
      <trkpt lat="44.48074" lon="5.76741">
        <ele>729</ele>
        <time>2019-03-29T14:31:17Z</time>
      </trkpt>
      <trkpt lat="44.48072" lon="5.76748">
        <ele>729</ele>
        <time>2019-03-29T14:31:18Z</time>
      </trkpt>
      <trkpt lat="44.4807" lon="5.76755">
        <ele>729</ele>
        <time>2019-03-29T14:31:19Z</time>
      </trkpt>
      <trkpt lat="44.48068" lon="5.76762">
        <ele>729</ele>
        <time>2019-03-29T14:31:20Z</time>
      </trkpt>
      <trkpt lat="44.48067" lon="5.76768">
        <ele>729</ele>
        <time>2019-03-29T14:31:21Z</time>
      </trkpt>
      <trkpt lat="44.48066" lon="5.76775">
        <ele>729</ele>
        <time>2019-03-29T14:31:22Z</time>
      </trkpt>
      <trkpt lat="44.48066" lon="5.76782">
        <ele>730</ele>
        <time>2019-03-29T14:31:23Z</time>
      </trkpt>
      <trkpt lat="44.48064" lon="5.76788">
        <ele>730</ele>
        <time>2019-03-29T14:31:24Z</time>
      </trkpt>
      <trkpt lat="44.48064" lon="5.76794">
        <ele>730</ele>
        <time>2019-03-29T14:31:25Z</time>
      </trkpt>
      <trkpt lat="44.48063" lon="5.768">
        <ele>730</ele>
        <time>2019-03-29T14:31:26Z</time>
      </trkpt>
      <trkpt lat="44.48062" lon="5.76806">
        <ele>731</ele>
        <time>2019-03-29T14:31:27Z</time>
      </trkpt>
      <trkpt lat="44.48061" lon="5.76812">
        <ele>731</ele>
        <time>2019-03-29T14:31:28Z</time>
      </trkpt>
      <trkpt lat="44.48061" lon="5.76818">
        <ele>731</ele>
        <time>2019-03-29T14:31:29Z</time>
      </trkpt>
      <trkpt lat="44.48061" lon="5.76824">
        <ele>731</ele>
        <time>2019-03-29T14:31:30Z</time>
      </trkpt>
      <trkpt lat="44.4806" lon="5.76829">
        <ele>731</ele>
        <time>2019-03-29T14:31:31Z</time>
      </trkpt>
      <trkpt lat="44.48059" lon="5.76835">
        <ele>731</ele>
        <time>2019-03-29T14:31:32Z</time>
      </trkpt>
      <trkpt lat="44.48058" lon="5.7684">
        <ele>732</ele>
        <time>2019-03-29T14:31:33Z</time>
      </trkpt>
      <trkpt lat="44.48058" lon="5.76846">
        <ele>732</ele>
        <time>2019-03-29T14:31:34Z</time>
      </trkpt>
      <trkpt lat="44.48058" lon="5.76852">
        <ele>732</ele>
        <time>2019-03-29T14:31:35Z</time>
      </trkpt>
      <trkpt lat="44.48057" lon="5.76858">
        <ele>732</ele>
        <time>2019-03-29T14:31:36Z</time>
      </trkpt>
      <trkpt lat="44.48057" lon="5.76864">
        <ele>733</ele>
        <time>2019-03-29T14:31:37Z</time>
      </trkpt>
      <trkpt lat="44.48057" lon="5.7687">
        <ele>733</ele>
        <time>2019-03-29T14:31:38Z</time>
      </trkpt>
      <trkpt lat="44.48056" lon="5.76876">
        <ele>733</ele>
        <time>2019-03-29T14:31:39Z</time>
      </trkpt>
      <trkpt lat="44.48056" lon="5.76882">
        <ele>734</ele>
        <time>2019-03-29T14:31:40Z</time>
      </trkpt>
      <trkpt lat="44.48055" lon="5.76888">
        <ele>734</ele>
        <time>2019-03-29T14:31:41Z</time>
      </trkpt>
      <trkpt lat="44.48054" lon="5.76893">
        <ele>734</ele>
        <time>2019-03-29T14:31:42Z</time>
      </trkpt>
      <trkpt lat="44.48053" lon="5.76899">
        <ele>734</ele>
        <time>2019-03-29T14:31:43Z</time>
      </trkpt>
      <trkpt lat="44.48053" lon="5.76905">
        <ele>735</ele>
        <time>2019-03-29T14:31:44Z</time>
      </trkpt>
      <trkpt lat="44.48052" lon="5.76911">
        <ele>735</ele>
        <time>2019-03-29T14:31:45Z</time>
      </trkpt>
      <trkpt lat="44.48051" lon="5.76917">
        <ele>735</ele>
        <time>2019-03-29T14:31:46Z</time>
      </trkpt>
      <trkpt lat="44.48051" lon="5.76923">
        <ele>735</ele>
        <time>2019-03-29T14:31:47Z</time>
      </trkpt>
      <trkpt lat="44.4805" lon="5.7693">
        <ele>735</ele>
        <time>2019-03-29T14:31:48Z</time>
      </trkpt>
      <trkpt lat="44.48049" lon="5.76936">
        <ele>735</ele>
        <time>2019-03-29T14:31:49Z</time>
      </trkpt>
      <trkpt lat="44.48049" lon="5.76942">
        <ele>735</ele>
        <time>2019-03-29T14:31:50Z</time>
      </trkpt>
      <trkpt lat="44.48048" lon="5.76949">
        <ele>735</ele>
        <time>2019-03-29T14:31:51Z</time>
      </trkpt>
      <trkpt lat="44.48047" lon="5.76956">
        <ele>735</ele>
        <time>2019-03-29T14:31:52Z</time>
      </trkpt>
      <trkpt lat="44.48046" lon="5.76962">
        <ele>735</ele>
        <time>2019-03-29T14:31:53Z</time>
      </trkpt>
      <trkpt lat="44.48045" lon="5.76969">
        <ele>735</ele>
        <time>2019-03-29T14:31:54Z</time>
      </trkpt>
      <trkpt lat="44.48045" lon="5.76976">
        <ele>735</ele>
        <time>2019-03-29T14:31:55Z</time>
      </trkpt>
      <trkpt lat="44.48043" lon="5.76983">
        <ele>735</ele>
        <time>2019-03-29T14:31:56Z</time>
      </trkpt>
      <trkpt lat="44.48042" lon="5.7699">
        <ele>735</ele>
        <time>2019-03-29T14:31:57Z</time>
      </trkpt>
      <trkpt lat="44.48039" lon="5.76997">
        <ele>735</ele>
        <time>2019-03-29T14:31:58Z</time>
      </trkpt>
      <trkpt lat="44.48036" lon="5.77004">
        <ele>735</ele>
        <time>2019-03-29T14:31:59Z</time>
      </trkpt>
      <trkpt lat="44.48033" lon="5.7701">
        <ele>735</ele>
        <time>2019-03-29T14:32:00Z</time>
      </trkpt>
      <trkpt lat="44.48029" lon="5.77015">
        <ele>735</ele>
        <time>2019-03-29T14:32:01Z</time>
      </trkpt>
      <trkpt lat="44.48024" lon="5.7702">
        <ele>735</ele>
        <time>2019-03-29T14:32:02Z</time>
      </trkpt>
      <trkpt lat="44.4802" lon="5.77024">
        <ele>735</ele>
        <time>2019-03-29T14:32:03Z</time>
      </trkpt>
      <trkpt lat="44.48015" lon="5.77028">
        <ele>735</ele>
        <time>2019-03-29T14:32:04Z</time>
      </trkpt>
      <trkpt lat="44.4801" lon="5.77032">
        <ele>735</ele>
        <time>2019-03-29T14:32:05Z</time>
      </trkpt>
      <trkpt lat="44.48005" lon="5.77035">
        <ele>735</ele>
        <time>2019-03-29T14:32:06Z</time>
      </trkpt>
      <trkpt lat="44.48" lon="5.77038">
        <ele>735</ele>
        <time>2019-03-29T14:32:07Z</time>
      </trkpt>
      <trkpt lat="44.47995" lon="5.77041">
        <ele>735</ele>
        <time>2019-03-29T14:32:08Z</time>
      </trkpt>
      <trkpt lat="44.47989" lon="5.77044">
        <ele>735</ele>
        <time>2019-03-29T14:32:09Z</time>
      </trkpt>
      <trkpt lat="44.47984" lon="5.77047">
        <ele>735</ele>
        <time>2019-03-29T14:32:10Z</time>
      </trkpt>
      <trkpt lat="44.47979" lon="5.77051">
        <ele>735</ele>
        <time>2019-03-29T14:32:11Z</time>
      </trkpt>
      <trkpt lat="44.47974" lon="5.77055">
        <ele>735</ele>
        <time>2019-03-29T14:32:12Z</time>
      </trkpt>
      <trkpt lat="44.47969" lon="5.77058">
        <ele>735</ele>
        <time>2019-03-29T14:32:13Z</time>
      </trkpt>
      <trkpt lat="44.47964" lon="5.77061">
        <ele>735</ele>
        <time>2019-03-29T14:32:14Z</time>
      </trkpt>
      <trkpt lat="44.47959" lon="5.77064">
        <ele>735</ele>
        <time>2019-03-29T14:32:15Z</time>
      </trkpt>
      <trkpt lat="44.47955" lon="5.77068">
        <ele>735</ele>
        <time>2019-03-29T14:32:16Z</time>
      </trkpt>
      <trkpt lat="44.4795" lon="5.77072">
        <ele>735</ele>
        <time>2019-03-29T14:32:17Z</time>
      </trkpt>
      <trkpt lat="44.47945" lon="5.77076">
        <ele>735</ele>
        <time>2019-03-29T14:32:18Z</time>
      </trkpt>
      <trkpt lat="44.47942" lon="5.7708">
        <ele>735</ele>
        <time>2019-03-29T14:32:19Z</time>
      </trkpt>
      <trkpt lat="44.47938" lon="5.77085">
        <ele>735</ele>
        <time>2019-03-29T14:32:20Z</time>
      </trkpt>
      <trkpt lat="44.47934" lon="5.7709">
        <ele>736</ele>
        <time>2019-03-29T14:32:21Z</time>
      </trkpt>
      <trkpt lat="44.47931" lon="5.77096">
        <ele>736</ele>
        <time>2019-03-29T14:32:22Z</time>
      </trkpt>
      <trkpt lat="44.47927" lon="5.77101">
        <ele>736</ele>
        <time>2019-03-29T14:32:23Z</time>
      </trkpt>
      <trkpt lat="44.47924" lon="5.77107">
        <ele>736</ele>
        <time>2019-03-29T14:32:24Z</time>
      </trkpt>
      <trkpt lat="44.47921" lon="5.77112">
        <ele>736</ele>
        <time>2019-03-29T14:32:25Z</time>
      </trkpt>
      <trkpt lat="44.47918" lon="5.77118">
        <ele>737</ele>
        <time>2019-03-29T14:32:26Z</time>
      </trkpt>
      <trkpt lat="44.47914" lon="5.77124">
        <ele>737</ele>
        <time>2019-03-29T14:32:27Z</time>
      </trkpt>
      <trkpt lat="44.47911" lon="5.77129">
        <ele>737</ele>
        <time>2019-03-29T14:32:28Z</time>
      </trkpt>
      <trkpt lat="44.47907" lon="5.77135">
        <ele>737</ele>
        <time>2019-03-29T14:32:29Z</time>
      </trkpt>
      <trkpt lat="44.47904" lon="5.77141">
        <ele>737</ele>
        <time>2019-03-29T14:32:30Z</time>
      </trkpt>
      <trkpt lat="44.479" lon="5.77147">
        <ele>738</ele>
        <time>2019-03-29T14:32:31Z</time>
      </trkpt>
      <trkpt lat="44.47897" lon="5.77153">
        <ele>738</ele>
        <time>2019-03-29T14:32:32Z</time>
      </trkpt>
      <trkpt lat="44.47894" lon="5.77159">
        <ele>738</ele>
        <time>2019-03-29T14:32:33Z</time>
      </trkpt>
      <trkpt lat="44.4789" lon="5.77165">
        <ele>738</ele>
        <time>2019-03-29T14:32:34Z</time>
      </trkpt>
      <trkpt lat="44.47887" lon="5.77171">
        <ele>738</ele>
        <time>2019-03-29T14:32:35Z</time>
      </trkpt>
      <trkpt lat="44.47883" lon="5.77177">
        <ele>738</ele>
        <time>2019-03-29T14:32:36Z</time>
      </trkpt>
      <trkpt lat="44.47879" lon="5.77182">
        <ele>739</ele>
        <time>2019-03-29T14:32:37Z</time>
      </trkpt>
      <trkpt lat="44.47876" lon="5.77188">
        <ele>739</ele>
        <time>2019-03-29T14:32:38Z</time>
      </trkpt>
      <trkpt lat="44.47872" lon="5.77194">
        <ele>739</ele>
        <time>2019-03-29T14:32:39Z</time>
      </trkpt>
      <trkpt lat="44.47868" lon="5.77201">
        <ele>739</ele>
        <time>2019-03-29T14:32:40Z</time>
      </trkpt>
      <trkpt lat="44.47865" lon="5.77207">
        <ele>739</ele>
        <time>2019-03-29T14:32:41Z</time>
      </trkpt>
      <trkpt lat="44.47861" lon="5.77213">
        <ele>739</ele>
        <time>2019-03-29T14:32:42Z</time>
      </trkpt>
      <trkpt lat="44.47857" lon="5.77219">
        <ele>739</ele>
        <time>2019-03-29T14:32:43Z</time>
      </trkpt>
      <trkpt lat="44.47854" lon="5.77226">
        <ele>739</ele>
        <time>2019-03-29T14:32:44Z</time>
      </trkpt>
      <trkpt lat="44.4785" lon="5.77232">
        <ele>739</ele>
        <time>2019-03-29T14:32:45Z</time>
      </trkpt>
      <trkpt lat="44.47847" lon="5.77239">
        <ele>739</ele>
        <time>2019-03-29T14:32:46Z</time>
      </trkpt>
      <trkpt lat="44.47842" lon="5.77245">
        <ele>739</ele>
        <time>2019-03-29T14:32:47Z</time>
      </trkpt>
      <trkpt lat="44.47839" lon="5.77251">
        <ele>740</ele>
        <time>2019-03-29T14:32:48Z</time>
      </trkpt>
      <trkpt lat="44.47834" lon="5.77257">
        <ele>740</ele>
        <time>2019-03-29T14:32:49Z</time>
      </trkpt>
      <trkpt lat="44.47831" lon="5.77264">
        <ele>740</ele>
        <time>2019-03-29T14:32:50Z</time>
      </trkpt>
      <trkpt lat="44.47826" lon="5.77271">
        <ele>740</ele>
        <time>2019-03-29T14:32:51Z</time>
      </trkpt>
      <trkpt lat="44.47823" lon="5.77278">
        <ele>740</ele>
        <time>2019-03-29T14:32:52Z</time>
      </trkpt>
      <trkpt lat="44.47818" lon="5.77284">
        <ele>740</ele>
        <time>2019-03-29T14:32:53Z</time>
      </trkpt>
      <trkpt lat="44.47814" lon="5.77291">
        <ele>740</ele>
        <time>2019-03-29T14:32:54Z</time>
      </trkpt>
      <trkpt lat="44.4781" lon="5.77297">
        <ele>740</ele>
        <time>2019-03-29T14:32:55Z</time>
      </trkpt>
      <trkpt lat="44.47807" lon="5.77304">
        <ele>740</ele>
        <time>2019-03-29T14:32:56Z</time>
      </trkpt>
      <trkpt lat="44.47803" lon="5.77311">
        <ele>741</ele>
        <time>2019-03-29T14:32:57Z</time>
      </trkpt>
      <trkpt lat="44.47799" lon="5.77317">
        <ele>741</ele>
        <time>2019-03-29T14:32:58Z</time>
      </trkpt>
      <trkpt lat="44.47795" lon="5.77323">
        <ele>741</ele>
        <time>2019-03-29T14:32:59Z</time>
      </trkpt>
      <trkpt lat="44.47791" lon="5.7733">
        <ele>741</ele>
        <time>2019-03-29T14:33:00Z</time>
      </trkpt>
      <trkpt lat="44.47787" lon="5.77336">
        <ele>741</ele>
        <time>2019-03-29T14:33:01Z</time>
      </trkpt>
      <trkpt lat="44.47783" lon="5.77343">
        <ele>741</ele>
        <time>2019-03-29T14:33:02Z</time>
      </trkpt>
      <trkpt lat="44.47779" lon="5.7735">
        <ele>741</ele>
        <time>2019-03-29T14:33:03Z</time>
      </trkpt>
      <trkpt lat="44.47775" lon="5.77356">
        <ele>741</ele>
        <time>2019-03-29T14:33:04Z</time>
      </trkpt>
      <trkpt lat="44.47771" lon="5.77363">
        <ele>742</ele>
        <time>2019-03-29T14:33:05Z</time>
      </trkpt>
      <trkpt lat="44.47767" lon="5.77369">
        <ele>742</ele>
        <time>2019-03-29T14:33:06Z</time>
      </trkpt>
      <trkpt lat="44.47763" lon="5.77376">
        <ele>742</ele>
        <time>2019-03-29T14:33:07Z</time>
      </trkpt>
      <trkpt lat="44.4776" lon="5.77382">
        <ele>742</ele>
        <time>2019-03-29T14:33:08Z</time>
      </trkpt>
      <trkpt lat="44.47756" lon="5.77388">
        <ele>742</ele>
        <time>2019-03-29T14:33:09Z</time>
      </trkpt>
      <trkpt lat="44.47753" lon="5.77393">
        <ele>742</ele>
        <time>2019-03-29T14:33:10Z</time>
      </trkpt>
      <trkpt lat="44.47749" lon="5.77399">
        <ele>742</ele>
        <time>2019-03-29T14:33:11Z</time>
      </trkpt>
      <trkpt lat="44.47746" lon="5.77405">
        <ele>742</ele>
        <time>2019-03-29T14:33:12Z</time>
      </trkpt>
      <trkpt lat="44.47742" lon="5.77411">
        <ele>742</ele>
        <time>2019-03-29T14:33:13Z</time>
      </trkpt>
      <trkpt lat="44.47738" lon="5.77417">
        <ele>742</ele>
        <time>2019-03-29T14:33:14Z</time>
      </trkpt>
      <trkpt lat="44.47735" lon="5.77423">
        <ele>742</ele>
        <time>2019-03-29T14:33:15Z</time>
      </trkpt>
      <trkpt lat="44.47731" lon="5.77428">
        <ele>742</ele>
        <time>2019-03-29T14:33:16Z</time>
      </trkpt>
      <trkpt lat="44.47728" lon="5.77435">
        <ele>742</ele>
        <time>2019-03-29T14:33:17Z</time>
      </trkpt>
      <trkpt lat="44.47724" lon="5.77441">
        <ele>742</ele>
        <time>2019-03-29T14:33:18Z</time>
      </trkpt>
      <trkpt lat="44.47721" lon="5.77447">
        <ele>743</ele>
        <time>2019-03-29T14:33:19Z</time>
      </trkpt>
      <trkpt lat="44.47717" lon="5.77452">
        <ele>743</ele>
        <time>2019-03-29T14:33:20Z</time>
      </trkpt>
      <trkpt lat="44.47714" lon="5.77458">
        <ele>743</ele>
        <time>2019-03-29T14:33:21Z</time>
      </trkpt>
      <trkpt lat="44.4771" lon="5.77464">
        <ele>743</ele>
        <time>2019-03-29T14:33:22Z</time>
      </trkpt>
      <trkpt lat="44.47707" lon="5.77469">
        <ele>743</ele>
        <time>2019-03-29T14:33:23Z</time>
      </trkpt>
      <trkpt lat="44.47703" lon="5.77476">
        <ele>744</ele>
        <time>2019-03-29T14:33:24Z</time>
      </trkpt>
      <trkpt lat="44.47699" lon="5.77482">
        <ele>744</ele>
        <time>2019-03-29T14:33:25Z</time>
      </trkpt>
      <trkpt lat="44.47696" lon="5.77489">
        <ele>744</ele>
        <time>2019-03-29T14:33:26Z</time>
      </trkpt>
      <trkpt lat="44.47692" lon="5.77495">
        <ele>744</ele>
        <time>2019-03-29T14:33:27Z</time>
      </trkpt>
      <trkpt lat="44.47688" lon="5.77502">
        <ele>744</ele>
        <time>2019-03-29T14:33:28Z</time>
      </trkpt>
      <trkpt lat="44.47683" lon="5.77508">
        <ele>744</ele>
        <time>2019-03-29T14:33:29Z</time>
      </trkpt>
      <trkpt lat="44.47679" lon="5.77516">
        <ele>744</ele>
        <time>2019-03-29T14:33:30Z</time>
      </trkpt>
      <trkpt lat="44.47675" lon="5.77523">
        <ele>744</ele>
        <time>2019-03-29T14:33:31Z</time>
      </trkpt>
      <trkpt lat="44.47671" lon="5.77529">
        <ele>744</ele>
        <time>2019-03-29T14:33:32Z</time>
      </trkpt>
      <trkpt lat="44.47667" lon="5.77536">
        <ele>744</ele>
        <time>2019-03-29T14:33:33Z</time>
      </trkpt>
      <trkpt lat="44.47663" lon="5.77543">
        <ele>744</ele>
        <time>2019-03-29T14:33:34Z</time>
      </trkpt>
      <trkpt lat="44.47659" lon="5.7755">
        <ele>744</ele>
        <time>2019-03-29T14:33:35Z</time>
      </trkpt>
      <trkpt lat="44.47655" lon="5.77557">
        <ele>744</ele>
        <time>2019-03-29T14:33:36Z</time>
      </trkpt>
      <trkpt lat="44.47651" lon="5.77564">
        <ele>744</ele>
        <time>2019-03-29T14:33:37Z</time>
      </trkpt>
      <trkpt lat="44.47646" lon="5.77571">
        <ele>744</ele>
        <time>2019-03-29T14:33:38Z</time>
      </trkpt>
      <trkpt lat="44.47642" lon="5.77578">
        <ele>744</ele>
        <time>2019-03-29T14:33:39Z</time>
      </trkpt>
      <trkpt lat="44.47638" lon="5.77585">
        <ele>744</ele>
        <time>2019-03-29T14:33:40Z</time>
      </trkpt>
      <trkpt lat="44.47633" lon="5.77592">
        <ele>744</ele>
        <time>2019-03-29T14:33:41Z</time>
      </trkpt>
      <trkpt lat="44.47629" lon="5.77598">
        <ele>744</ele>
        <time>2019-03-29T14:33:42Z</time>
      </trkpt>
      <trkpt lat="44.47625" lon="5.77605">
        <ele>744</ele>
        <time>2019-03-29T14:33:43Z</time>
      </trkpt>
      <trkpt lat="44.4762" lon="5.77612">
        <ele>744</ele>
        <time>2019-03-29T14:33:44Z</time>
      </trkpt>
      <trkpt lat="44.47617" lon="5.77619">
        <ele>744</ele>
        <time>2019-03-29T14:33:45Z</time>
      </trkpt>
      <trkpt lat="44.47613" lon="5.77626">
        <ele>744</ele>
        <time>2019-03-29T14:33:46Z</time>
      </trkpt>
      <trkpt lat="44.47609" lon="5.77632">
        <ele>744</ele>
        <time>2019-03-29T14:33:47Z</time>
      </trkpt>
      <trkpt lat="44.47606" lon="5.77639">
        <ele>744</ele>
        <time>2019-03-29T14:33:48Z</time>
      </trkpt>
      <trkpt lat="44.47602" lon="5.77645">
        <ele>744</ele>
        <time>2019-03-29T14:33:49Z</time>
      </trkpt>
      <trkpt lat="44.47598" lon="5.77651">
        <ele>744</ele>
        <time>2019-03-29T14:33:50Z</time>
      </trkpt>
      <trkpt lat="44.47594" lon="5.77658">
        <ele>744</ele>
        <time>2019-03-29T14:33:51Z</time>
      </trkpt>
      <trkpt lat="44.4759" lon="5.77664">
        <ele>744</ele>
        <time>2019-03-29T14:33:52Z</time>
      </trkpt>
      <trkpt lat="44.47586" lon="5.7767">
        <ele>744</ele>
        <time>2019-03-29T14:33:53Z</time>
      </trkpt>
      <trkpt lat="44.47583" lon="5.77676">
        <ele>744</ele>
        <time>2019-03-29T14:33:54Z</time>
      </trkpt>
      <trkpt lat="44.47579" lon="5.77682">
        <ele>744</ele>
        <time>2019-03-29T14:33:55Z</time>
      </trkpt>
      <trkpt lat="44.47575" lon="5.77688">
        <ele>744</ele>
        <time>2019-03-29T14:33:56Z</time>
      </trkpt>
      <trkpt lat="44.47572" lon="5.77694">
        <ele>744</ele>
        <time>2019-03-29T14:33:57Z</time>
      </trkpt>
      <trkpt lat="44.47568" lon="5.777">
        <ele>744</ele>
        <time>2019-03-29T14:33:58Z</time>
      </trkpt>
      <trkpt lat="44.47565" lon="5.77706">
        <ele>744</ele>
        <time>2019-03-29T14:33:59Z</time>
      </trkpt>
      <trkpt lat="44.47561" lon="5.77712">
        <ele>744</ele>
        <time>2019-03-29T14:34:00Z</time>
      </trkpt>
      <trkpt lat="44.47557" lon="5.77719">
        <ele>744</ele>
        <time>2019-03-29T14:34:01Z</time>
      </trkpt>
      <trkpt lat="44.47554" lon="5.77725">
        <ele>744</ele>
        <time>2019-03-29T14:34:02Z</time>
      </trkpt>
      <trkpt lat="44.4755" lon="5.77731">
        <ele>745</ele>
        <time>2019-03-29T14:34:03Z</time>
      </trkpt>
      <trkpt lat="44.47547" lon="5.77737">
        <ele>745</ele>
        <time>2019-03-29T14:34:04Z</time>
      </trkpt>
      <trkpt lat="44.47543" lon="5.77742">
        <ele>745</ele>
        <time>2019-03-29T14:34:05Z</time>
      </trkpt>
      <trkpt lat="44.47539" lon="5.77748">
        <ele>745</ele>
        <time>2019-03-29T14:34:06Z</time>
      </trkpt>
      <trkpt lat="44.47535" lon="5.77754">
        <ele>745</ele>
        <time>2019-03-29T14:34:07Z</time>
      </trkpt>
      <trkpt lat="44.47532" lon="5.7776">
        <ele>745</ele>
        <time>2019-03-29T14:34:08Z</time>
      </trkpt>
      <trkpt lat="44.47529" lon="5.77766">
        <ele>745</ele>
        <time>2019-03-29T14:34:09Z</time>
      </trkpt>
      <trkpt lat="44.47526" lon="5.77772">
        <ele>746</ele>
        <time>2019-03-29T14:34:10Z</time>
      </trkpt>
      <trkpt lat="44.47523" lon="5.77778">
        <ele>746</ele>
        <time>2019-03-29T14:34:11Z</time>
      </trkpt>
      <trkpt lat="44.4752" lon="5.77785">
        <ele>746</ele>
        <time>2019-03-29T14:34:12Z</time>
      </trkpt>
      <trkpt lat="44.47518" lon="5.77791">
        <ele>746</ele>
        <time>2019-03-29T14:34:13Z</time>
      </trkpt>
      <trkpt lat="44.47516" lon="5.77798">
        <ele>746</ele>
        <time>2019-03-29T14:34:14Z</time>
      </trkpt>
      <trkpt lat="44.47514" lon="5.77804">
        <ele>746</ele>
        <time>2019-03-29T14:34:15Z</time>
      </trkpt>
      <trkpt lat="44.47512" lon="5.77811">
        <ele>747</ele>
        <time>2019-03-29T14:34:16Z</time>
      </trkpt>
      <trkpt lat="44.47511" lon="5.77818">
        <ele>747</ele>
        <time>2019-03-29T14:34:17Z</time>
      </trkpt>
      <trkpt lat="44.47509" lon="5.77825">
        <ele>747</ele>
        <time>2019-03-29T14:34:18Z</time>
      </trkpt>
      <trkpt lat="44.47508" lon="5.77833">
        <ele>747</ele>
        <time>2019-03-29T14:34:19Z</time>
      </trkpt>
      <trkpt lat="44.47507" lon="5.7784">
        <ele>747</ele>
        <time>2019-03-29T14:34:20Z</time>
      </trkpt>
      <trkpt lat="44.47506" lon="5.77847">
        <ele>748</ele>
        <time>2019-03-29T14:34:21Z</time>
      </trkpt>
      <trkpt lat="44.47505" lon="5.77854">
        <ele>748</ele>
        <time>2019-03-29T14:34:22Z</time>
      </trkpt>
      <trkpt lat="44.47504" lon="5.77861">
        <ele>748</ele>
        <time>2019-03-29T14:34:23Z</time>
      </trkpt>
      <trkpt lat="44.47503" lon="5.77868">
        <ele>748</ele>
        <time>2019-03-29T14:34:24Z</time>
      </trkpt>
      <trkpt lat="44.47502" lon="5.77875">
        <ele>749</ele>
        <time>2019-03-29T14:34:25Z</time>
      </trkpt>
      <trkpt lat="44.47501" lon="5.77881">
        <ele>749</ele>
        <time>2019-03-29T14:34:26Z</time>
      </trkpt>
      <trkpt lat="44.475" lon="5.77888">
        <ele>749</ele>
        <time>2019-03-29T14:34:27Z</time>
      </trkpt>
      <trkpt lat="44.47499" lon="5.77895">
        <ele>749</ele>
        <time>2019-03-29T14:34:28Z</time>
      </trkpt>
      <trkpt lat="44.47498" lon="5.77901">
        <ele>749</ele>
        <time>2019-03-29T14:34:29Z</time>
      </trkpt>
      <trkpt lat="44.47498" lon="5.77908">
        <ele>749</ele>
        <time>2019-03-29T14:34:30Z</time>
      </trkpt>
      <trkpt lat="44.47497" lon="5.77915">
        <ele>750</ele>
        <time>2019-03-29T14:34:31Z</time>
      </trkpt>
      <trkpt lat="44.47496" lon="5.77921">
        <ele>750</ele>
        <time>2019-03-29T14:34:32Z</time>
      </trkpt>
      <trkpt lat="44.47495" lon="5.77927">
        <ele>750</ele>
        <time>2019-03-29T14:34:33Z</time>
      </trkpt>
      <trkpt lat="44.47494" lon="5.77933">
        <ele>751</ele>
        <time>2019-03-29T14:34:34Z</time>
      </trkpt>
      <trkpt lat="44.47493" lon="5.77939">
        <ele>751</ele>
        <time>2019-03-29T14:34:35Z</time>
      </trkpt>
      <trkpt lat="44.47492" lon="5.77945">
        <ele>751</ele>
        <time>2019-03-29T14:34:36Z</time>
      </trkpt>
      <trkpt lat="44.47491" lon="5.77949">
        <ele>752</ele>
        <time>2019-03-29T14:34:37Z</time>
      </trkpt>
      <trkpt lat="44.4749" lon="5.77954">
        <ele>752</ele>
        <time>2019-03-29T14:34:38Z</time>
      </trkpt>
      <trkpt lat="44.47489" lon="5.77959">
        <ele>752</ele>
        <time>2019-03-29T14:34:39Z</time>
      </trkpt>
      <trkpt lat="44.47488" lon="5.77963">
        <ele>753</ele>
        <time>2019-03-29T14:34:40Z</time>
      </trkpt>
      <trkpt lat="44.47486" lon="5.77968">
        <ele>753</ele>
        <time>2019-03-29T14:34:41Z</time>
      </trkpt>
      <trkpt lat="44.47485" lon="5.77972">
        <ele>753</ele>
        <time>2019-03-29T14:34:42Z</time>
      </trkpt>
      <trkpt lat="44.47484" lon="5.77977">
        <ele>753</ele>
        <time>2019-03-29T14:34:43Z</time>
      </trkpt>
      <trkpt lat="44.47483" lon="5.77981">
        <ele>754</ele>
        <time>2019-03-29T14:34:44Z</time>
      </trkpt>
      <trkpt lat="44.4748" lon="5.77985">
        <ele>754</ele>
        <time>2019-03-29T14:34:45Z</time>
      </trkpt>
      <trkpt lat="44.47479" lon="5.77989">
        <ele>754</ele>
        <time>2019-03-29T14:34:46Z</time>
      </trkpt>
      <trkpt lat="44.47477" lon="5.77993">
        <ele>754</ele>
        <time>2019-03-29T14:34:47Z</time>
      </trkpt>
      <trkpt lat="44.47475" lon="5.77997">
        <ele>755</ele>
        <time>2019-03-29T14:34:48Z</time>
      </trkpt>
      <trkpt lat="44.47472" lon="5.78001">
        <ele>755</ele>
        <time>2019-03-29T14:34:49Z</time>
      </trkpt>
      <trkpt lat="44.4747" lon="5.78005">
        <ele>755</ele>
        <time>2019-03-29T14:34:50Z</time>
      </trkpt>
      <trkpt lat="44.47468" lon="5.78009">
        <ele>755</ele>
        <time>2019-03-29T14:34:51Z</time>
      </trkpt>
      <trkpt lat="44.47466" lon="5.78013">
        <ele>755</ele>
        <time>2019-03-29T14:34:52Z</time>
      </trkpt>
      <trkpt lat="44.47464" lon="5.78017">
        <ele>755</ele>
        <time>2019-03-29T14:34:53Z</time>
      </trkpt>
      <trkpt lat="44.47462" lon="5.78021">
        <ele>755</ele>
        <time>2019-03-29T14:34:54Z</time>
      </trkpt>
      <trkpt lat="44.4746" lon="5.78025">
        <ele>756</ele>
        <time>2019-03-29T14:34:55Z</time>
      </trkpt>
      <trkpt lat="44.47458" lon="5.78029">
        <ele>756</ele>
        <time>2019-03-29T14:34:56Z</time>
      </trkpt>
      <trkpt lat="44.47456" lon="5.78034">
        <ele>756</ele>
        <time>2019-03-29T14:34:57Z</time>
      </trkpt>
      <trkpt lat="44.47454" lon="5.78038">
        <ele>756</ele>
        <time>2019-03-29T14:34:58Z</time>
      </trkpt>
      <trkpt lat="44.47453" lon="5.78042">
        <ele>756</ele>
        <time>2019-03-29T14:34:59Z</time>
      </trkpt>
      <trkpt lat="44.47451" lon="5.78046">
        <ele>757</ele>
        <time>2019-03-29T14:35:00Z</time>
      </trkpt>
      <trkpt lat="44.47449" lon="5.78051">
        <ele>757</ele>
        <time>2019-03-29T14:35:01Z</time>
      </trkpt>
      <trkpt lat="44.47448" lon="5.78055">
        <ele>757</ele>
        <time>2019-03-29T14:35:02Z</time>
      </trkpt>
      <trkpt lat="44.47446" lon="5.78058">
        <ele>757</ele>
        <time>2019-03-29T14:35:03Z</time>
      </trkpt>
      <trkpt lat="44.47444" lon="5.78062">
        <ele>757</ele>
        <time>2019-03-29T14:35:04Z</time>
      </trkpt>
      <trkpt lat="44.47442" lon="5.78066">
        <ele>757</ele>
        <time>2019-03-29T14:35:05Z</time>
      </trkpt>
      <trkpt lat="44.47439" lon="5.78069">
        <ele>757</ele>
        <time>2019-03-29T14:35:06Z</time>
      </trkpt>
      <trkpt lat="44.47437" lon="5.78073">
        <ele>757</ele>
        <time>2019-03-29T14:35:07Z</time>
      </trkpt>
      <trkpt lat="44.47435" lon="5.78077">
        <ele>757</ele>
        <time>2019-03-29T14:35:08Z</time>
      </trkpt>
      <trkpt lat="44.47432" lon="5.78081">
        <ele>757</ele>
        <time>2019-03-29T14:35:09Z</time>
      </trkpt>
      <trkpt lat="44.4743" lon="5.78084">
        <ele>757</ele>
        <time>2019-03-29T14:35:10Z</time>
      </trkpt>
      <trkpt lat="44.47427" lon="5.78087">
        <ele>757</ele>
        <time>2019-03-29T14:35:11Z</time>
      </trkpt>
      <trkpt lat="44.47424" lon="5.78091">
        <ele>757</ele>
        <time>2019-03-29T14:35:12Z</time>
      </trkpt>
      <trkpt lat="44.47422" lon="5.78094">
        <ele>758</ele>
        <time>2019-03-29T14:35:13Z</time>
      </trkpt>
      <trkpt lat="44.47419" lon="5.78098">
        <ele>758</ele>
        <time>2019-03-29T14:35:14Z</time>
      </trkpt>
      <trkpt lat="44.47416" lon="5.78101">
        <ele>758</ele>
        <time>2019-03-29T14:35:15Z</time>
      </trkpt>
      <trkpt lat="44.47412" lon="5.78105">
        <ele>758</ele>
        <time>2019-03-29T14:35:16Z</time>
      </trkpt>
      <trkpt lat="44.47409" lon="5.78109">
        <ele>758</ele>
        <time>2019-03-29T14:35:17Z</time>
      </trkpt>
      <trkpt lat="44.47406" lon="5.78113">
        <ele>758</ele>
        <time>2019-03-29T14:35:18Z</time>
      </trkpt>
      <trkpt lat="44.47403" lon="5.78118">
        <ele>759</ele>
        <time>2019-03-29T14:35:19Z</time>
      </trkpt>
      <trkpt lat="44.47399" lon="5.78122">
        <ele>759</ele>
        <time>2019-03-29T14:35:20Z</time>
      </trkpt>
      <trkpt lat="44.47396" lon="5.78127">
        <ele>759</ele>
        <time>2019-03-29T14:35:21Z</time>
      </trkpt>
      <trkpt lat="44.47392" lon="5.78133">
        <ele>759</ele>
        <time>2019-03-29T14:35:22Z</time>
      </trkpt>
      <trkpt lat="44.47389" lon="5.78139">
        <ele>759</ele>
        <time>2019-03-29T14:35:23Z</time>
      </trkpt>
      <trkpt lat="44.47385" lon="5.78145">
        <ele>759</ele>
        <time>2019-03-29T14:35:24Z</time>
      </trkpt>
      <trkpt lat="44.47382" lon="5.78152">
        <ele>759</ele>
        <time>2019-03-29T14:35:25Z</time>
      </trkpt>
      <trkpt lat="44.47378" lon="5.78158">
        <ele>759</ele>
        <time>2019-03-29T14:35:26Z</time>
      </trkpt>
      <trkpt lat="44.47374" lon="5.78164">
        <ele>759</ele>
        <time>2019-03-29T14:35:27Z</time>
      </trkpt>
      <trkpt lat="44.4737" lon="5.78171">
        <ele>759</ele>
        <time>2019-03-29T14:35:28Z</time>
      </trkpt>
      <trkpt lat="44.47366" lon="5.78178">
        <ele>759</ele>
        <time>2019-03-29T14:35:29Z</time>
      </trkpt>
      <trkpt lat="44.47362" lon="5.78185">
        <ele>759</ele>
        <time>2019-03-29T14:35:30Z</time>
      </trkpt>
      <trkpt lat="44.47358" lon="5.78192">
        <ele>759</ele>
        <time>2019-03-29T14:35:31Z</time>
      </trkpt>
      <trkpt lat="44.47354" lon="5.78199">
        <ele>759</ele>
        <time>2019-03-29T14:35:32Z</time>
      </trkpt>
      <trkpt lat="44.4735" lon="5.78206">
        <ele>759</ele>
        <time>2019-03-29T14:35:33Z</time>
      </trkpt>
      <trkpt lat="44.47346" lon="5.78213">
        <ele>759</ele>
        <time>2019-03-29T14:35:34Z</time>
      </trkpt>
      <trkpt lat="44.47342" lon="5.78221">
        <ele>759</ele>
        <time>2019-03-29T14:35:35Z</time>
      </trkpt>
      <trkpt lat="44.47338" lon="5.78228">
        <ele>759</ele>
        <time>2019-03-29T14:35:36Z</time>
      </trkpt>
      <trkpt lat="44.47334" lon="5.78235">
        <ele>759</ele>
        <time>2019-03-29T14:35:37Z</time>
      </trkpt>
      <trkpt lat="44.4733" lon="5.78243">
        <ele>759</ele>
        <time>2019-03-29T14:35:38Z</time>
      </trkpt>
      <trkpt lat="44.47325" lon="5.7825">
        <ele>759</ele>
        <time>2019-03-29T14:35:39Z</time>
      </trkpt>
      <trkpt lat="44.47321" lon="5.78257">
        <ele>759</ele>
        <time>2019-03-29T14:35:40Z</time>
      </trkpt>
      <trkpt lat="44.47317" lon="5.78265">
        <ele>759</ele>
        <time>2019-03-29T14:35:41Z</time>
      </trkpt>
      <trkpt lat="44.47313" lon="5.78272">
        <ele>759</ele>
        <time>2019-03-29T14:35:42Z</time>
      </trkpt>
      <trkpt lat="44.47308" lon="5.7828">
        <ele>759</ele>
        <time>2019-03-29T14:35:43Z</time>
      </trkpt>
      <trkpt lat="44.47304" lon="5.78287">
        <ele>759</ele>
        <time>2019-03-29T14:35:44Z</time>
      </trkpt>
      <trkpt lat="44.473" lon="5.78295">
        <ele>759</ele>
        <time>2019-03-29T14:35:45Z</time>
      </trkpt>
      <trkpt lat="44.47295" lon="5.78302">
        <ele>759</ele>
        <time>2019-03-29T14:35:46Z</time>
      </trkpt>
      <trkpt lat="44.47291" lon="5.7831">
        <ele>759</ele>
        <time>2019-03-29T14:35:47Z</time>
      </trkpt>
      <trkpt lat="44.47287" lon="5.78317">
        <ele>759</ele>
        <time>2019-03-29T14:35:48Z</time>
      </trkpt>
      <trkpt lat="44.47282" lon="5.78324">
        <ele>759</ele>
        <time>2019-03-29T14:35:49Z</time>
      </trkpt>
      <trkpt lat="44.47278" lon="5.78332">
        <ele>759</ele>
        <time>2019-03-29T14:35:50Z</time>
      </trkpt>
      <trkpt lat="44.47274" lon="5.78339">
        <ele>759</ele>
        <time>2019-03-29T14:35:51Z</time>
      </trkpt>
      <trkpt lat="44.4727" lon="5.78346">
        <ele>759</ele>
        <time>2019-03-29T14:35:52Z</time>
      </trkpt>
      <trkpt lat="44.47266" lon="5.78354">
        <ele>759</ele>
        <time>2019-03-29T14:35:53Z</time>
      </trkpt>
      <trkpt lat="44.47262" lon="5.78361">
        <ele>759</ele>
        <time>2019-03-29T14:35:54Z</time>
      </trkpt>
      <trkpt lat="44.47258" lon="5.78368">
        <ele>759</ele>
        <time>2019-03-29T14:35:55Z</time>
      </trkpt>
      <trkpt lat="44.47254" lon="5.78374">
        <ele>759</ele>
        <time>2019-03-29T14:35:56Z</time>
      </trkpt>
      <trkpt lat="44.4725" lon="5.78381">
        <ele>759</ele>
        <time>2019-03-29T14:35:57Z</time>
      </trkpt>
      <trkpt lat="44.47246" lon="5.78388">
        <ele>759</ele>
        <time>2019-03-29T14:35:58Z</time>
      </trkpt>
      <trkpt lat="44.47242" lon="5.78395">
        <ele>759</ele>
        <time>2019-03-29T14:35:59Z</time>
      </trkpt>
      <trkpt lat="44.47238" lon="5.78402">
        <ele>759</ele>
        <time>2019-03-29T14:36:00Z</time>
      </trkpt>
      <trkpt lat="44.47234" lon="5.78409">
        <ele>759</ele>
        <time>2019-03-29T14:36:01Z</time>
      </trkpt>
      <trkpt lat="44.4723" lon="5.78415">
        <ele>759</ele>
        <time>2019-03-29T14:36:02Z</time>
      </trkpt>
      <trkpt lat="44.47226" lon="5.78422">
        <ele>759</ele>
        <time>2019-03-29T14:36:03Z</time>
      </trkpt>
      <trkpt lat="44.47223" lon="5.78429">
        <ele>759</ele>
        <time>2019-03-29T14:36:04Z</time>
      </trkpt>
      <trkpt lat="44.47219" lon="5.78435">
        <ele>759</ele>
        <time>2019-03-29T14:36:05Z</time>
      </trkpt>
      <trkpt lat="44.47215" lon="5.78441">
        <ele>759</ele>
        <time>2019-03-29T14:36:06Z</time>
      </trkpt>
      <trkpt lat="44.47211" lon="5.78448">
        <ele>759</ele>
        <time>2019-03-29T14:36:07Z</time>
      </trkpt>
      <trkpt lat="44.47208" lon="5.78454">
        <ele>759</ele>
        <time>2019-03-29T14:36:08Z</time>
      </trkpt>
      <trkpt lat="44.47204" lon="5.78461">
        <ele>759</ele>
        <time>2019-03-29T14:36:09Z</time>
      </trkpt>
      <trkpt lat="44.472" lon="5.78467">
        <ele>759</ele>
        <time>2019-03-29T14:36:10Z</time>
      </trkpt>
      <trkpt lat="44.47196" lon="5.78474">
        <ele>759</ele>
        <time>2019-03-29T14:36:11Z</time>
      </trkpt>
      <trkpt lat="44.47193" lon="5.7848">
        <ele>759</ele>
        <time>2019-03-29T14:36:12Z</time>
      </trkpt>
      <trkpt lat="44.47189" lon="5.78486">
        <ele>759</ele>
        <time>2019-03-29T14:36:13Z</time>
      </trkpt>
      <trkpt lat="44.47186" lon="5.78492">
        <ele>759</ele>
        <time>2019-03-29T14:36:14Z</time>
      </trkpt>
      <trkpt lat="44.47182" lon="5.78498">
        <ele>759</ele>
        <time>2019-03-29T14:36:15Z</time>
      </trkpt>
      <trkpt lat="44.47179" lon="5.78505">
        <ele>759</ele>
        <time>2019-03-29T14:36:16Z</time>
      </trkpt>
      <trkpt lat="44.47175" lon="5.78511">
        <ele>759</ele>
        <time>2019-03-29T14:36:17Z</time>
      </trkpt>
      <trkpt lat="44.47172" lon="5.78517">
        <ele>759</ele>
        <time>2019-03-29T14:36:18Z</time>
      </trkpt>
      <trkpt lat="44.47169" lon="5.78524">
        <ele>759</ele>
        <time>2019-03-29T14:36:19Z</time>
      </trkpt>
      <trkpt lat="44.47165" lon="5.78532">
        <ele>759</ele>
        <time>2019-03-29T14:36:20Z</time>
      </trkpt>
      <trkpt lat="44.4716" lon="5.78539">
        <ele>759</ele>
        <time>2019-03-29T14:36:21Z</time>
      </trkpt>
      <trkpt lat="44.47156" lon="5.78547">
        <ele>759</ele>
        <time>2019-03-29T14:36:22Z</time>
      </trkpt>
      <trkpt lat="44.47151" lon="5.78555">
        <ele>759</ele>
        <time>2019-03-29T14:36:23Z</time>
      </trkpt>
      <trkpt lat="44.47146" lon="5.78562">
        <ele>759</ele>
        <time>2019-03-29T14:36:24Z</time>
      </trkpt>
      <trkpt lat="44.47141" lon="5.7857">
        <ele>759</ele>
        <time>2019-03-29T14:36:25Z</time>
      </trkpt>
      <trkpt lat="44.47136" lon="5.78577">
        <ele>759</ele>
        <time>2019-03-29T14:36:26Z</time>
      </trkpt>
      <trkpt lat="44.47132" lon="5.78584">
        <ele>759</ele>
        <time>2019-03-29T14:36:27Z</time>
      </trkpt>
      <trkpt lat="44.47128" lon="5.78591">
        <ele>759</ele>
        <time>2019-03-29T14:36:28Z</time>
      </trkpt>
      <trkpt lat="44.47124" lon="5.78598">
        <ele>759</ele>
        <time>2019-03-29T14:36:29Z</time>
      </trkpt>
      <trkpt lat="44.4712" lon="5.78605">
        <ele>759</ele>
        <time>2019-03-29T14:36:30Z</time>
      </trkpt>
      <trkpt lat="44.47116" lon="5.78611">
        <ele>759</ele>
        <time>2019-03-29T14:36:31Z</time>
      </trkpt>
      <trkpt lat="44.47113" lon="5.78617">
        <ele>759</ele>
        <time>2019-03-29T14:36:32Z</time>
      </trkpt>
      <trkpt lat="44.47109" lon="5.78624">
        <ele>759</ele>
        <time>2019-03-29T14:36:33Z</time>
      </trkpt>
      <trkpt lat="44.47105" lon="5.78631">
        <ele>759</ele>
        <time>2019-03-29T14:36:34Z</time>
      </trkpt>
      <trkpt lat="44.47101" lon="5.78638">
        <ele>759</ele>
        <time>2019-03-29T14:36:35Z</time>
      </trkpt>
      <trkpt lat="44.47097" lon="5.78645">
        <ele>759</ele>
        <time>2019-03-29T14:36:36Z</time>
      </trkpt>
      <trkpt lat="44.47094" lon="5.78652">
        <ele>759</ele>
        <time>2019-03-29T14:36:37Z</time>
      </trkpt>
      <trkpt lat="44.4709" lon="5.78658">
        <ele>759</ele>
        <time>2019-03-29T14:36:38Z</time>
      </trkpt>
      <trkpt lat="44.47086" lon="5.78665">
        <ele>759</ele>
        <time>2019-03-29T14:36:39Z</time>
      </trkpt>
      <trkpt lat="44.47081" lon="5.78672">
        <ele>759</ele>
        <time>2019-03-29T14:36:40Z</time>
      </trkpt>
      <trkpt lat="44.47077" lon="5.78679">
        <ele>759</ele>
        <time>2019-03-29T14:36:41Z</time>
      </trkpt>
      <trkpt lat="44.47073" lon="5.78686">
        <ele>759</ele>
        <time>2019-03-29T14:36:42Z</time>
      </trkpt>
      <trkpt lat="44.47069" lon="5.78694">
        <ele>759</ele>
        <time>2019-03-29T14:36:43Z</time>
      </trkpt>
      <trkpt lat="44.47065" lon="5.78701">
        <ele>759</ele>
        <time>2019-03-29T14:36:44Z</time>
      </trkpt>
      <trkpt lat="44.4706" lon="5.78709">
        <ele>759</ele>
        <time>2019-03-29T14:36:45Z</time>
      </trkpt>
      <trkpt lat="44.47056" lon="5.78716">
        <ele>758</ele>
        <time>2019-03-29T14:36:46Z</time>
      </trkpt>
      <trkpt lat="44.47052" lon="5.78723">
        <ele>758</ele>
        <time>2019-03-29T14:36:47Z</time>
      </trkpt>
      <trkpt lat="44.47048" lon="5.7873">
        <ele>758</ele>
        <time>2019-03-29T14:36:48Z</time>
      </trkpt>
      <trkpt lat="44.47043" lon="5.78737">
        <ele>758</ele>
        <time>2019-03-29T14:36:49Z</time>
      </trkpt>
      <trkpt lat="44.47038" lon="5.78744">
        <ele>758</ele>
        <time>2019-03-29T14:36:50Z</time>
      </trkpt>
      <trkpt lat="44.47033" lon="5.7875">
        <ele>758</ele>
        <time>2019-03-29T14:36:51Z</time>
      </trkpt>
      <trkpt lat="44.47027" lon="5.78754">
        <ele>758</ele>
        <time>2019-03-29T14:36:52Z</time>
      </trkpt>
      <trkpt lat="44.4702" lon="5.78756">
        <ele>757</ele>
        <time>2019-03-29T14:36:53Z</time>
      </trkpt>
      <trkpt lat="44.47013" lon="5.78756">
        <ele>757</ele>
        <time>2019-03-29T14:36:54Z</time>
      </trkpt>
      <trkpt lat="44.47007" lon="5.78755">
        <ele>757</ele>
        <time>2019-03-29T14:36:55Z</time>
      </trkpt>
      <trkpt lat="44.47" lon="5.78753">
        <ele>757</ele>
        <time>2019-03-29T14:36:56Z</time>
      </trkpt>
      <trkpt lat="44.46994" lon="5.78751">
        <ele>757</ele>
        <time>2019-03-29T14:36:57Z</time>
      </trkpt>
      <trkpt lat="44.46988" lon="5.78748">
        <ele>757</ele>
        <time>2019-03-29T14:36:58Z</time>
      </trkpt>
      <trkpt lat="44.46982" lon="5.78743">
        <ele>757</ele>
        <time>2019-03-29T14:36:59Z</time>
      </trkpt>
      <trkpt lat="44.46976" lon="5.78739">
        <ele>757</ele>
        <time>2019-03-29T14:37:00Z</time>
      </trkpt>
      <trkpt lat="44.4697" lon="5.78733">
        <ele>757</ele>
        <time>2019-03-29T14:37:01Z</time>
      </trkpt>
      <trkpt lat="44.46965" lon="5.78727">
        <ele>757</ele>
        <time>2019-03-29T14:37:02Z</time>
      </trkpt>
      <trkpt lat="44.4696" lon="5.78721">
        <ele>757</ele>
        <time>2019-03-29T14:37:03Z</time>
      </trkpt>
      <trkpt lat="44.46956" lon="5.78714">
        <ele>757</ele>
        <time>2019-03-29T14:37:04Z</time>
      </trkpt>
      <trkpt lat="44.46952" lon="5.78706">
        <ele>757</ele>
        <time>2019-03-29T14:37:05Z</time>
      </trkpt>
      <trkpt lat="44.46949" lon="5.78699">
        <ele>757</ele>
        <time>2019-03-29T14:37:06Z</time>
      </trkpt>
      <trkpt lat="44.46945" lon="5.78693">
        <ele>757</ele>
        <time>2019-03-29T14:37:07Z</time>
      </trkpt>
      <trkpt lat="44.46941" lon="5.78687">
        <ele>757</ele>
        <time>2019-03-29T14:37:08Z</time>
      </trkpt>
      <trkpt lat="44.46937" lon="5.78681">
        <ele>757</ele>
        <time>2019-03-29T14:37:09Z</time>
      </trkpt>
      <trkpt lat="44.46932" lon="5.78676">
        <ele>757</ele>
        <time>2019-03-29T14:37:10Z</time>
      </trkpt>
      <trkpt lat="44.46927" lon="5.78672">
        <ele>757</ele>
        <time>2019-03-29T14:37:11Z</time>
      </trkpt>
      <trkpt lat="44.46922" lon="5.78668">
        <ele>757</ele>
        <time>2019-03-29T14:37:12Z</time>
      </trkpt>
      <trkpt lat="44.46917" lon="5.78665">
        <ele>757</ele>
        <time>2019-03-29T14:37:13Z</time>
      </trkpt>
      <trkpt lat="44.46911" lon="5.78661">
        <ele>757</ele>
        <time>2019-03-29T14:37:14Z</time>
      </trkpt>
      <trkpt lat="44.46905" lon="5.78658">
        <ele>757</ele>
        <time>2019-03-29T14:37:15Z</time>
      </trkpt>
      <trkpt lat="44.46899" lon="5.78655">
        <ele>757</ele>
        <time>2019-03-29T14:37:16Z</time>
      </trkpt>
      <trkpt lat="44.46893" lon="5.78652">
        <ele>757</ele>
        <time>2019-03-29T14:37:17Z</time>
      </trkpt>
      <trkpt lat="44.46887" lon="5.78649">
        <ele>757</ele>
        <time>2019-03-29T14:37:18Z</time>
      </trkpt>
      <trkpt lat="44.46881" lon="5.78644">
        <ele>757</ele>
        <time>2019-03-29T14:37:19Z</time>
      </trkpt>
      <trkpt lat="44.46875" lon="5.7864">
        <ele>757</ele>
        <time>2019-03-29T14:37:20Z</time>
      </trkpt>
      <trkpt lat="44.46868" lon="5.78635">
        <ele>757</ele>
        <time>2019-03-29T14:37:21Z</time>
      </trkpt>
      <trkpt lat="44.46862" lon="5.7863">
        <ele>757</ele>
        <time>2019-03-29T14:37:22Z</time>
      </trkpt>
      <trkpt lat="44.46856" lon="5.78624">
        <ele>757</ele>
        <time>2019-03-29T14:37:23Z</time>
      </trkpt>
      <trkpt lat="44.4685" lon="5.78619">
        <ele>757</ele>
        <time>2019-03-29T14:37:24Z</time>
      </trkpt>
      <trkpt lat="44.46844" lon="5.78614">
        <ele>757</ele>
        <time>2019-03-29T14:37:25Z</time>
      </trkpt>
      <trkpt lat="44.46838" lon="5.78609">
        <ele>757</ele>
        <time>2019-03-29T14:37:26Z</time>
      </trkpt>
      <trkpt lat="44.46833" lon="5.78604">
        <ele>757</ele>
        <time>2019-03-29T14:37:27Z</time>
      </trkpt>
      <trkpt lat="44.46827" lon="5.78599">
        <ele>757</ele>
        <time>2019-03-29T14:37:28Z</time>
      </trkpt>
      <trkpt lat="44.46822" lon="5.78594">
        <ele>757</ele>
        <time>2019-03-29T14:37:29Z</time>
      </trkpt>
      <trkpt lat="44.46816" lon="5.78589">
        <ele>757</ele>
        <time>2019-03-29T14:37:30Z</time>
      </trkpt>
      <trkpt lat="44.46811" lon="5.78584">
        <ele>757</ele>
        <time>2019-03-29T14:37:31Z</time>
      </trkpt>
      <trkpt lat="44.46806" lon="5.78579">
        <ele>757</ele>
        <time>2019-03-29T14:37:32Z</time>
      </trkpt>
      <trkpt lat="44.46801" lon="5.78574">
        <ele>757</ele>
        <time>2019-03-29T14:37:33Z</time>
      </trkpt>
      <trkpt lat="44.46795" lon="5.78569">
        <ele>757</ele>
        <time>2019-03-29T14:37:34Z</time>
      </trkpt>
      <trkpt lat="44.4679" lon="5.78564">
        <ele>757</ele>
        <time>2019-03-29T14:37:35Z</time>
      </trkpt>
      <trkpt lat="44.46785" lon="5.78559">
        <ele>757</ele>
        <time>2019-03-29T14:37:36Z</time>
      </trkpt>
      <trkpt lat="44.4678" lon="5.78554">
        <ele>757</ele>
        <time>2019-03-29T14:37:37Z</time>
      </trkpt>
      <trkpt lat="44.46775" lon="5.7855">
        <ele>757</ele>
        <time>2019-03-29T14:37:38Z</time>
      </trkpt>
      <trkpt lat="44.4677" lon="5.78546">
        <ele>757</ele>
        <time>2019-03-29T14:37:39Z</time>
      </trkpt>
      <trkpt lat="44.46765" lon="5.78541">
        <ele>757</ele>
        <time>2019-03-29T14:37:40Z</time>
      </trkpt>
      <trkpt lat="44.4676" lon="5.78537">
        <ele>757</ele>
        <time>2019-03-29T14:37:41Z</time>
      </trkpt>
      <trkpt lat="44.46755" lon="5.78532">
        <ele>757</ele>
        <time>2019-03-29T14:37:42Z</time>
      </trkpt>
      <trkpt lat="44.4675" lon="5.78528">
        <ele>757</ele>
        <time>2019-03-29T14:37:43Z</time>
      </trkpt>
      <trkpt lat="44.46745" lon="5.78524">
        <ele>757</ele>
        <time>2019-03-29T14:37:44Z</time>
      </trkpt>
      <trkpt lat="44.4674" lon="5.7852">
        <ele>757</ele>
        <time>2019-03-29T14:37:45Z</time>
      </trkpt>
      <trkpt lat="44.46735" lon="5.78516">
        <ele>757</ele>
        <time>2019-03-29T14:37:46Z</time>
      </trkpt>
      <trkpt lat="44.46731" lon="5.78512">
        <ele>757</ele>
        <time>2019-03-29T14:37:47Z</time>
      </trkpt>
      <trkpt lat="44.46726" lon="5.78507">
        <ele>757</ele>
        <time>2019-03-29T14:37:48Z</time>
      </trkpt>
      <trkpt lat="44.46721" lon="5.78503">
        <ele>757</ele>
        <time>2019-03-29T14:37:49Z</time>
      </trkpt>
      <trkpt lat="44.46716" lon="5.78498">
        <ele>757</ele>
        <time>2019-03-29T14:37:50Z</time>
      </trkpt>
      <trkpt lat="44.46711" lon="5.78494">
        <ele>757</ele>
        <time>2019-03-29T14:37:51Z</time>
      </trkpt>
      <trkpt lat="44.46706" lon="5.78489">
        <ele>758</ele>
        <time>2019-03-29T14:37:52Z</time>
      </trkpt>
      <trkpt lat="44.46702" lon="5.78484">
        <ele>758</ele>
        <time>2019-03-29T14:37:53Z</time>
      </trkpt>
      <trkpt lat="44.46698" lon="5.78478">
        <ele>758</ele>
        <time>2019-03-29T14:37:54Z</time>
      </trkpt>
      <trkpt lat="44.46694" lon="5.78472">
        <ele>758</ele>
        <time>2019-03-29T14:37:55Z</time>
      </trkpt>
      <trkpt lat="44.4669" lon="5.78466">
        <ele>758</ele>
        <time>2019-03-29T14:37:56Z</time>
      </trkpt>
      <trkpt lat="44.46687" lon="5.78459">
        <ele>758</ele>
        <time>2019-03-29T14:37:57Z</time>
      </trkpt>
      <trkpt lat="44.46684" lon="5.78452">
        <ele>758</ele>
        <time>2019-03-29T14:37:58Z</time>
      </trkpt>
      <trkpt lat="44.46681" lon="5.78445">
        <ele>758</ele>
        <time>2019-03-29T14:37:59Z</time>
      </trkpt>
      <trkpt lat="44.46679" lon="5.78438">
        <ele>758</ele>
        <time>2019-03-29T14:38:00Z</time>
      </trkpt>
      <trkpt lat="44.46676" lon="5.7843">
        <ele>758</ele>
        <time>2019-03-29T14:38:01Z</time>
      </trkpt>
      <trkpt lat="44.46674" lon="5.78423">
        <ele>758</ele>
        <time>2019-03-29T14:38:02Z</time>
      </trkpt>
      <trkpt lat="44.46671" lon="5.78417">
        <ele>758</ele>
        <time>2019-03-29T14:38:03Z</time>
      </trkpt>
      <trkpt lat="44.46667" lon="5.7841">
        <ele>758</ele>
        <time>2019-03-29T14:38:04Z</time>
      </trkpt>
      <trkpt lat="44.46664" lon="5.78405">
        <ele>758</ele>
        <time>2019-03-29T14:38:05Z</time>
      </trkpt>
      <trkpt lat="44.4666" lon="5.78399">
        <ele>758</ele>
        <time>2019-03-29T14:38:06Z</time>
      </trkpt>
      <trkpt lat="44.46656" lon="5.78394">
        <ele>758</ele>
        <time>2019-03-29T14:38:07Z</time>
      </trkpt>
      <trkpt lat="44.46651" lon="5.7839">
        <ele>758</ele>
        <time>2019-03-29T14:38:08Z</time>
      </trkpt>
      <trkpt lat="44.46646" lon="5.78385">
        <ele>758</ele>
        <time>2019-03-29T14:38:09Z</time>
      </trkpt>
      <trkpt lat="44.46641" lon="5.78382">
        <ele>758</ele>
        <time>2019-03-29T14:38:10Z</time>
      </trkpt>
      <trkpt lat="44.46636" lon="5.78378">
        <ele>758</ele>
        <time>2019-03-29T14:38:11Z</time>
      </trkpt>
      <trkpt lat="44.46631" lon="5.78375">
        <ele>758</ele>
        <time>2019-03-29T14:38:12Z</time>
      </trkpt>
      <trkpt lat="44.46626" lon="5.78372">
        <ele>758</ele>
        <time>2019-03-29T14:38:13Z</time>
      </trkpt>
      <trkpt lat="44.46621" lon="5.78369">
        <ele>758</ele>
        <time>2019-03-29T14:38:14Z</time>
      </trkpt>
      <trkpt lat="44.46616" lon="5.78366">
        <ele>759</ele>
        <time>2019-03-29T14:38:15Z</time>
      </trkpt>
      <trkpt lat="44.46611" lon="5.78363">
        <ele>759</ele>
        <time>2019-03-29T14:38:16Z</time>
      </trkpt>
      <trkpt lat="44.46606" lon="5.7836">
        <ele>760</ele>
        <time>2019-03-29T14:38:17Z</time>
      </trkpt>
      <trkpt lat="44.46601" lon="5.78357">
        <ele>760</ele>
        <time>2019-03-29T14:38:18Z</time>
      </trkpt>
      <trkpt lat="44.46596" lon="5.78353">
        <ele>761</ele>
        <time>2019-03-29T14:38:19Z</time>
      </trkpt>
      <trkpt lat="44.46591" lon="5.7835">
        <ele>761</ele>
        <time>2019-03-29T14:38:20Z</time>
      </trkpt>
      <trkpt lat="44.46586" lon="5.78347">
        <ele>761</ele>
        <time>2019-03-29T14:38:21Z</time>
      </trkpt>
      <trkpt lat="44.46581" lon="5.78344">
        <ele>761</ele>
        <time>2019-03-29T14:38:22Z</time>
      </trkpt>
      <trkpt lat="44.46576" lon="5.78341">
        <ele>761</ele>
        <time>2019-03-29T14:38:23Z</time>
      </trkpt>
      <trkpt lat="44.46571" lon="5.78337">
        <ele>762</ele>
        <time>2019-03-29T14:38:24Z</time>
      </trkpt>
      <trkpt lat="44.46566" lon="5.78334">
        <ele>762</ele>
        <time>2019-03-29T14:38:25Z</time>
      </trkpt>
      <trkpt lat="44.46561" lon="5.78331">
        <ele>762</ele>
        <time>2019-03-29T14:38:26Z</time>
      </trkpt>
      <trkpt lat="44.46556" lon="5.78329">
        <ele>762</ele>
        <time>2019-03-29T14:38:27Z</time>
      </trkpt>
      <trkpt lat="44.46551" lon="5.78327">
        <ele>762</ele>
        <time>2019-03-29T14:38:28Z</time>
      </trkpt>
      <trkpt lat="44.46545" lon="5.78325">
        <ele>762</ele>
        <time>2019-03-29T14:38:29Z</time>
      </trkpt>
      <trkpt lat="44.46539" lon="5.78323">
        <ele>762</ele>
        <time>2019-03-29T14:38:30Z</time>
      </trkpt>
      <trkpt lat="44.46533" lon="5.78321">
        <ele>762</ele>
        <time>2019-03-29T14:38:31Z</time>
      </trkpt>
      <trkpt lat="44.46527" lon="5.78319">
        <ele>762</ele>
        <time>2019-03-29T14:38:32Z</time>
      </trkpt>
      <trkpt lat="44.46522" lon="5.78317">
        <ele>762</ele>
        <time>2019-03-29T14:38:33Z</time>
      </trkpt>
      <trkpt lat="44.46516" lon="5.78315">
        <ele>762</ele>
        <time>2019-03-29T14:38:34Z</time>
      </trkpt>
      <trkpt lat="44.4651" lon="5.78313">
        <ele>762</ele>
        <time>2019-03-29T14:38:35Z</time>
      </trkpt>
      <trkpt lat="44.46504" lon="5.78312">
        <ele>762</ele>
        <time>2019-03-29T14:38:36Z</time>
      </trkpt>
      <trkpt lat="44.46498" lon="5.7831">
        <ele>762</ele>
        <time>2019-03-29T14:38:37Z</time>
      </trkpt>
      <trkpt lat="44.46492" lon="5.78308">
        <ele>762</ele>
        <time>2019-03-29T14:38:38Z</time>
      </trkpt>
      <trkpt lat="44.46487" lon="5.78306">
        <ele>762</ele>
        <time>2019-03-29T14:38:39Z</time>
      </trkpt>
      <trkpt lat="44.46481" lon="5.78303">
        <ele>762</ele>
        <time>2019-03-29T14:38:40Z</time>
      </trkpt>
      <trkpt lat="44.46475" lon="5.78302">
        <ele>762</ele>
        <time>2019-03-29T14:38:41Z</time>
      </trkpt>
      <trkpt lat="44.46469" lon="5.78301">
        <ele>762</ele>
        <time>2019-03-29T14:38:42Z</time>
      </trkpt>
      <trkpt lat="44.46463" lon="5.783">
        <ele>762</ele>
        <time>2019-03-29T14:38:43Z</time>
      </trkpt>
      <trkpt lat="44.46457" lon="5.783">
        <ele>762</ele>
        <time>2019-03-29T14:38:44Z</time>
      </trkpt>
      <trkpt lat="44.46452" lon="5.78301">
        <ele>762</ele>
        <time>2019-03-29T14:38:45Z</time>
      </trkpt>
      <trkpt lat="44.46446" lon="5.78303">
        <ele>762</ele>
        <time>2019-03-29T14:38:46Z</time>
      </trkpt>
      <trkpt lat="44.4644" lon="5.78306">
        <ele>762</ele>
        <time>2019-03-29T14:38:47Z</time>
      </trkpt>
      <trkpt lat="44.46434" lon="5.78309">
        <ele>762</ele>
        <time>2019-03-29T14:38:48Z</time>
      </trkpt>
      <trkpt lat="44.46429" lon="5.78312">
        <ele>762</ele>
        <time>2019-03-29T14:38:49Z</time>
      </trkpt>
      <trkpt lat="44.46423" lon="5.78315">
        <ele>762</ele>
        <time>2019-03-29T14:38:50Z</time>
      </trkpt>
      <trkpt lat="44.46418" lon="5.78319">
        <ele>762</ele>
        <time>2019-03-29T14:38:51Z</time>
      </trkpt>
      <trkpt lat="44.46412" lon="5.78321">
        <ele>762</ele>
        <time>2019-03-29T14:38:52Z</time>
      </trkpt>
      <trkpt lat="44.46406" lon="5.78324">
        <ele>762</ele>
        <time>2019-03-29T14:38:53Z</time>
      </trkpt>
      <trkpt lat="44.464" lon="5.78325">
        <ele>762</ele>
        <time>2019-03-29T14:38:54Z</time>
      </trkpt>
      <trkpt lat="44.46394" lon="5.78325">
        <ele>762</ele>
        <time>2019-03-29T14:38:55Z</time>
      </trkpt>
      <trkpt lat="44.46388" lon="5.78324">
        <ele>762</ele>
        <time>2019-03-29T14:38:56Z</time>
      </trkpt>
      <trkpt lat="44.46382" lon="5.78323">
        <ele>762</ele>
        <time>2019-03-29T14:38:57Z</time>
      </trkpt>
      <trkpt lat="44.46376" lon="5.78322">
        <ele>762</ele>
        <time>2019-03-29T14:38:58Z</time>
      </trkpt>
      <trkpt lat="44.4637" lon="5.78321">
        <ele>762</ele>
        <time>2019-03-29T14:38:59Z</time>
      </trkpt>
      <trkpt lat="44.46364" lon="5.7832">
        <ele>762</ele>
        <time>2019-03-29T14:39:00Z</time>
      </trkpt>
      <trkpt lat="44.46358" lon="5.78319">
        <ele>762</ele>
        <time>2019-03-29T14:39:01Z</time>
      </trkpt>
      <trkpt lat="44.46352" lon="5.78319">
        <ele>762</ele>
        <time>2019-03-29T14:39:02Z</time>
      </trkpt>
      <trkpt lat="44.46346" lon="5.78318">
        <ele>762</ele>
        <time>2019-03-29T14:39:03Z</time>
      </trkpt>
      <trkpt lat="44.4634" lon="5.78318">
        <ele>762</ele>
        <time>2019-03-29T14:39:04Z</time>
      </trkpt>
      <trkpt lat="44.46333" lon="5.78318">
        <ele>762</ele>
        <time>2019-03-29T14:39:05Z</time>
      </trkpt>
      <trkpt lat="44.46327" lon="5.78318">
        <ele>762</ele>
        <time>2019-03-29T14:39:06Z</time>
      </trkpt>
      <trkpt lat="44.46321" lon="5.78319">
        <ele>762</ele>
        <time>2019-03-29T14:39:07Z</time>
      </trkpt>
      <trkpt lat="44.46314" lon="5.78318">
        <ele>762</ele>
        <time>2019-03-29T14:39:08Z</time>
      </trkpt>
      <trkpt lat="44.46308" lon="5.78317">
        <ele>762</ele>
        <time>2019-03-29T14:39:09Z</time>
      </trkpt>
      <trkpt lat="44.46301" lon="5.78316">
        <ele>762</ele>
        <time>2019-03-29T14:39:10Z</time>
      </trkpt>
      <trkpt lat="44.46295" lon="5.78313">
        <ele>762</ele>
        <time>2019-03-29T14:39:11Z</time>
      </trkpt>
      <trkpt lat="44.46289" lon="5.7831">
        <ele>762</ele>
        <time>2019-03-29T14:39:12Z</time>
      </trkpt>
      <trkpt lat="44.46283" lon="5.78306">
        <ele>762</ele>
        <time>2019-03-29T14:39:13Z</time>
      </trkpt>
      <trkpt lat="44.46277" lon="5.78302">
        <ele>762</ele>
        <time>2019-03-29T14:39:14Z</time>
      </trkpt>
      <trkpt lat="44.46272" lon="5.78298">
        <ele>762</ele>
        <time>2019-03-29T14:39:15Z</time>
      </trkpt>
      <trkpt lat="44.46266" lon="5.78293">
        <ele>762</ele>
        <time>2019-03-29T14:39:16Z</time>
      </trkpt>
      <trkpt lat="44.46261" lon="5.78289">
        <ele>762</ele>
        <time>2019-03-29T14:39:17Z</time>
      </trkpt>
      <trkpt lat="44.46255" lon="5.78286">
        <ele>763</ele>
        <time>2019-03-29T14:39:18Z</time>
      </trkpt>
      <trkpt lat="44.4625" lon="5.78282">
        <ele>763</ele>
        <time>2019-03-29T14:39:19Z</time>
      </trkpt>
      <trkpt lat="44.46245" lon="5.78278">
        <ele>763</ele>
        <time>2019-03-29T14:39:20Z</time>
      </trkpt>
      <trkpt lat="44.4624" lon="5.78275">
        <ele>763</ele>
        <time>2019-03-29T14:39:21Z</time>
      </trkpt>
      <trkpt lat="44.46235" lon="5.78271">
        <ele>764</ele>
        <time>2019-03-29T14:39:22Z</time>
      </trkpt>
      <trkpt lat="44.4623" lon="5.78267">
        <ele>764</ele>
        <time>2019-03-29T14:39:23Z</time>
      </trkpt>
      <trkpt lat="44.46225" lon="5.78264">
        <ele>764</ele>
        <time>2019-03-29T14:39:24Z</time>
      </trkpt>
      <trkpt lat="44.4622" lon="5.7826">
        <ele>764</ele>
        <time>2019-03-29T14:39:25Z</time>
      </trkpt>
      <trkpt lat="44.46215" lon="5.78257">
        <ele>764</ele>
        <time>2019-03-29T14:39:26Z</time>
      </trkpt>
      <trkpt lat="44.4621" lon="5.78255">
        <ele>764</ele>
        <time>2019-03-29T14:39:27Z</time>
      </trkpt>
      <trkpt lat="44.46205" lon="5.78253">
        <ele>765</ele>
        <time>2019-03-29T14:39:28Z</time>
      </trkpt>
      <trkpt lat="44.46199" lon="5.78251">
        <ele>765</ele>
        <time>2019-03-29T14:39:29Z</time>
      </trkpt>
      <trkpt lat="44.46194" lon="5.7825">
        <ele>765</ele>
        <time>2019-03-29T14:39:30Z</time>
      </trkpt>
      <trkpt lat="44.46189" lon="5.78249">
        <ele>765</ele>
        <time>2019-03-29T14:39:31Z</time>
      </trkpt>
      <trkpt lat="44.46183" lon="5.78249">
        <ele>766</ele>
        <time>2019-03-29T14:39:32Z</time>
      </trkpt>
      <trkpt lat="44.46178" lon="5.78248">
        <ele>766</ele>
        <time>2019-03-29T14:39:33Z</time>
      </trkpt>
      <trkpt lat="44.46173" lon="5.78248">
        <ele>766</ele>
        <time>2019-03-29T14:39:34Z</time>
      </trkpt>
      <trkpt lat="44.46167" lon="5.78249">
        <ele>766</ele>
        <time>2019-03-29T14:39:35Z</time>
      </trkpt>
      <trkpt lat="44.46162" lon="5.78249">
        <ele>766</ele>
        <time>2019-03-29T14:39:36Z</time>
      </trkpt>
      <trkpt lat="44.46157" lon="5.7825">
        <ele>767</ele>
        <time>2019-03-29T14:39:37Z</time>
      </trkpt>
      <trkpt lat="44.46152" lon="5.7825">
        <ele>767</ele>
        <time>2019-03-29T14:39:38Z</time>
      </trkpt>
      <trkpt lat="44.46147" lon="5.78251">
        <ele>767</ele>
        <time>2019-03-29T14:39:39Z</time>
      </trkpt>
      <trkpt lat="44.46141" lon="5.78251">
        <ele>767</ele>
        <time>2019-03-29T14:39:40Z</time>
      </trkpt>
      <trkpt lat="44.46136" lon="5.78251">
        <ele>767</ele>
        <time>2019-03-29T14:39:41Z</time>
      </trkpt>
      <trkpt lat="44.46131" lon="5.78252">
        <ele>768</ele>
        <time>2019-03-29T14:39:42Z</time>
      </trkpt>
      <trkpt lat="44.46126" lon="5.78252">
        <ele>768</ele>
        <time>2019-03-29T14:39:43Z</time>
      </trkpt>
      <trkpt lat="44.46121" lon="5.78253">
        <ele>768</ele>
        <time>2019-03-29T14:39:44Z</time>
      </trkpt>
      <trkpt lat="44.46116" lon="5.78253">
        <ele>768</ele>
        <time>2019-03-29T14:39:45Z</time>
      </trkpt>
      <trkpt lat="44.46112" lon="5.78255">
        <ele>768</ele>
        <time>2019-03-29T14:39:46Z</time>
      </trkpt>
      <trkpt lat="44.46107" lon="5.78256">
        <ele>768</ele>
        <time>2019-03-29T14:39:47Z</time>
      </trkpt>
      <trkpt lat="44.46102" lon="5.78258">
        <ele>768</ele>
        <time>2019-03-29T14:39:48Z</time>
      </trkpt>
      <trkpt lat="44.46097" lon="5.78261">
        <ele>769</ele>
        <time>2019-03-29T14:39:49Z</time>
      </trkpt>
      <trkpt lat="44.46093" lon="5.78265">
        <ele>769</ele>
        <time>2019-03-29T14:39:50Z</time>
      </trkpt>
      <trkpt lat="44.46088" lon="5.78269">
        <ele>769</ele>
        <time>2019-03-29T14:39:51Z</time>
      </trkpt>
      <trkpt lat="44.46084" lon="5.78274">
        <ele>769</ele>
        <time>2019-03-29T14:39:52Z</time>
      </trkpt>
      <trkpt lat="44.4608" lon="5.78279">
        <ele>769</ele>
        <time>2019-03-29T14:39:53Z</time>
      </trkpt>
      <trkpt lat="44.46076" lon="5.78285">
        <ele>770</ele>
        <time>2019-03-29T14:39:54Z</time>
      </trkpt>
      <trkpt lat="44.46072" lon="5.7829">
        <ele>770</ele>
        <time>2019-03-29T14:39:55Z</time>
      </trkpt>
      <trkpt lat="44.46068" lon="5.78296">
        <ele>770</ele>
        <time>2019-03-29T14:39:56Z</time>
      </trkpt>
      <trkpt lat="44.46064" lon="5.78302">
        <ele>770</ele>
        <time>2019-03-29T14:39:57Z</time>
      </trkpt>
      <trkpt lat="44.46059" lon="5.78308">
        <ele>770</ele>
        <time>2019-03-29T14:39:58Z</time>
      </trkpt>
      <trkpt lat="44.46054" lon="5.78313">
        <ele>770</ele>
        <time>2019-03-29T14:39:59Z</time>
      </trkpt>
      <trkpt lat="44.46049" lon="5.78318">
        <ele>770</ele>
        <time>2019-03-29T14:40:00Z</time>
      </trkpt>
      <trkpt lat="44.46043" lon="5.78322">
        <ele>770</ele>
        <time>2019-03-29T14:40:01Z</time>
      </trkpt>
      <trkpt lat="44.46037" lon="5.78325">
        <ele>770</ele>
        <time>2019-03-29T14:40:02Z</time>
      </trkpt>
      <trkpt lat="44.46031" lon="5.78328">
        <ele>770</ele>
        <time>2019-03-29T14:40:03Z</time>
      </trkpt>
      <trkpt lat="44.46024" lon="5.78329">
        <ele>770</ele>
        <time>2019-03-29T14:40:04Z</time>
      </trkpt>
      <trkpt lat="44.46018" lon="5.7833">
        <ele>770</ele>
        <time>2019-03-29T14:40:05Z</time>
      </trkpt>
      <trkpt lat="44.46011" lon="5.7833">
        <ele>770</ele>
        <time>2019-03-29T14:40:06Z</time>
      </trkpt>
      <trkpt lat="44.46005" lon="5.7833">
        <ele>770</ele>
        <time>2019-03-29T14:40:07Z</time>
      </trkpt>
      <trkpt lat="44.45998" lon="5.7833">
        <ele>770</ele>
        <time>2019-03-29T14:40:08Z</time>
      </trkpt>
      <trkpt lat="44.45992" lon="5.78329">
        <ele>770</ele>
        <time>2019-03-29T14:40:09Z</time>
      </trkpt>
      <trkpt lat="44.45986" lon="5.78329">
        <ele>770</ele>
        <time>2019-03-29T14:40:10Z</time>
      </trkpt>
      <trkpt lat="44.4598" lon="5.78328">
        <ele>770</ele>
        <time>2019-03-29T14:40:11Z</time>
      </trkpt>
      <trkpt lat="44.45974" lon="5.78328">
        <ele>770</ele>
        <time>2019-03-29T14:40:12Z</time>
      </trkpt>
      <trkpt lat="44.45968" lon="5.78327">
        <ele>770</ele>
        <time>2019-03-29T14:40:13Z</time>
      </trkpt>
      <trkpt lat="44.45962" lon="5.78325">
        <ele>770</ele>
        <time>2019-03-29T14:40:14Z</time>
      </trkpt>
      <trkpt lat="44.45957" lon="5.78321">
        <ele>770</ele>
        <time>2019-03-29T14:40:15Z</time>
      </trkpt>
      <trkpt lat="44.45953" lon="5.78316">
        <ele>770</ele>
        <time>2019-03-29T14:40:16Z</time>
      </trkpt>
      <trkpt lat="44.45949" lon="5.78311">
        <ele>770</ele>
        <time>2019-03-29T14:40:17Z</time>
      </trkpt>
      <trkpt lat="44.45946" lon="5.78305">
        <ele>770</ele>
        <time>2019-03-29T14:40:18Z</time>
      </trkpt>
      <trkpt lat="44.45943" lon="5.78299">
        <ele>770</ele>
        <time>2019-03-29T14:40:19Z</time>
      </trkpt>
      <trkpt lat="44.45941" lon="5.78294">
        <ele>770</ele>
        <time>2019-03-29T14:40:20Z</time>
      </trkpt>
      <trkpt lat="44.45938" lon="5.7829">
        <ele>770</ele>
        <time>2019-03-29T14:40:21Z</time>
      </trkpt>
      <trkpt lat="44.45934" lon="5.78286">
        <ele>770</ele>
        <time>2019-03-29T14:40:22Z</time>
      </trkpt>
      <trkpt lat="44.4593" lon="5.78283">
        <ele>771</ele>
        <time>2019-03-29T14:40:23Z</time>
      </trkpt>
      <trkpt lat="44.45926" lon="5.78281">
        <ele>771</ele>
        <time>2019-03-29T14:40:24Z</time>
      </trkpt>
      <trkpt lat="44.45922" lon="5.7828">
        <ele>771</ele>
        <time>2019-03-29T14:40:25Z</time>
      </trkpt>
      <trkpt lat="44.45918" lon="5.78279">
        <ele>771</ele>
        <time>2019-03-29T14:40:26Z</time>
      </trkpt>
      <trkpt lat="44.45913" lon="5.78279">
        <ele>771</ele>
        <time>2019-03-29T14:40:27Z</time>
      </trkpt>
      <trkpt lat="44.45909" lon="5.78278">
        <ele>771</ele>
        <time>2019-03-29T14:40:28Z</time>
      </trkpt>
      <trkpt lat="44.45905" lon="5.78278">
        <ele>771</ele>
        <time>2019-03-29T14:40:29Z</time>
      </trkpt>
      <trkpt lat="44.459" lon="5.78278">
        <ele>771</ele>
        <time>2019-03-29T14:40:30Z</time>
      </trkpt>
      <trkpt lat="44.45896" lon="5.78278">
        <ele>771</ele>
        <time>2019-03-29T14:40:31Z</time>
      </trkpt>
      <trkpt lat="44.45892" lon="5.78278">
        <ele>772</ele>
        <time>2019-03-29T14:40:32Z</time>
      </trkpt>
      <trkpt lat="44.45888" lon="5.78278">
        <ele>772</ele>
        <time>2019-03-29T14:40:33Z</time>
      </trkpt>
      <trkpt lat="44.45884" lon="5.78279">
        <ele>772</ele>
        <time>2019-03-29T14:40:34Z</time>
      </trkpt>
      <trkpt lat="44.4588" lon="5.7828">
        <ele>772</ele>
        <time>2019-03-29T14:40:35Z</time>
      </trkpt>
      <trkpt lat="44.45876" lon="5.78281">
        <ele>772</ele>
        <time>2019-03-29T14:40:36Z</time>
      </trkpt>
      <trkpt lat="44.45872" lon="5.78283">
        <ele>772</ele>
        <time>2019-03-29T14:40:37Z</time>
      </trkpt>
      <trkpt lat="44.45868" lon="5.78284">
        <ele>772</ele>
        <time>2019-03-29T14:40:38Z</time>
      </trkpt>
      <trkpt lat="44.45864" lon="5.78286">
        <ele>773</ele>
        <time>2019-03-29T14:40:39Z</time>
      </trkpt>
      <trkpt lat="44.45861" lon="5.78288">
        <ele>773</ele>
        <time>2019-03-29T14:40:40Z</time>
      </trkpt>
      <trkpt lat="44.45857" lon="5.78291">
        <ele>773</ele>
        <time>2019-03-29T14:40:41Z</time>
      </trkpt>
      <trkpt lat="44.45854" lon="5.78293">
        <ele>773</ele>
        <time>2019-03-29T14:40:42Z</time>
      </trkpt>
      <trkpt lat="44.45851" lon="5.78296">
        <ele>774</ele>
        <time>2019-03-29T14:40:43Z</time>
      </trkpt>
      <trkpt lat="44.45847" lon="5.78299">
        <ele>774</ele>
        <time>2019-03-29T14:40:44Z</time>
      </trkpt>
      <trkpt lat="44.45844" lon="5.78302">
        <ele>774</ele>
        <time>2019-03-29T14:40:45Z</time>
      </trkpt>
      <trkpt lat="44.45841" lon="5.78305">
        <ele>774</ele>
        <time>2019-03-29T14:40:46Z</time>
      </trkpt>
      <trkpt lat="44.45838" lon="5.78308">
        <ele>774</ele>
        <time>2019-03-29T14:40:47Z</time>
      </trkpt>
      <trkpt lat="44.45835" lon="5.78311">
        <ele>774</ele>
        <time>2019-03-29T14:40:48Z</time>
      </trkpt>
      <trkpt lat="44.45832" lon="5.78314">
        <ele>774</ele>
        <time>2019-03-29T14:40:49Z</time>
      </trkpt>
      <trkpt lat="44.4583" lon="5.78318">
        <ele>774</ele>
        <time>2019-03-29T14:40:50Z</time>
      </trkpt>
      <trkpt lat="44.45827" lon="5.78321">
        <ele>774</ele>
        <time>2019-03-29T14:40:51Z</time>
      </trkpt>
      <trkpt lat="44.45824" lon="5.78325">
        <ele>774</ele>
        <time>2019-03-29T14:40:52Z</time>
      </trkpt>
      <trkpt lat="44.45821" lon="5.78328">
        <ele>774</ele>
        <time>2019-03-29T14:40:53Z</time>
      </trkpt>
      <trkpt lat="44.45818" lon="5.78331">
        <ele>774</ele>
        <time>2019-03-29T14:40:54Z</time>
      </trkpt>
      <trkpt lat="44.45815" lon="5.78335">
        <ele>774</ele>
        <time>2019-03-29T14:40:55Z</time>
      </trkpt>
      <trkpt lat="44.45812" lon="5.78338">
        <ele>774</ele>
        <time>2019-03-29T14:40:56Z</time>
      </trkpt>
      <trkpt lat="44.45809" lon="5.78342">
        <ele>774</ele>
        <time>2019-03-29T14:40:57Z</time>
      </trkpt>
      <trkpt lat="44.45807" lon="5.78345">
        <ele>774</ele>
        <time>2019-03-29T14:40:58Z</time>
      </trkpt>
      <trkpt lat="44.45804" lon="5.78348">
        <ele>774</ele>
        <time>2019-03-29T14:40:59Z</time>
      </trkpt>
      <trkpt lat="44.45802" lon="5.78351">
        <ele>774</ele>
        <time>2019-03-29T14:41:00Z</time>
      </trkpt>
      <trkpt lat="44.45799" lon="5.78354">
        <ele>774</ele>
        <time>2019-03-29T14:41:01Z</time>
      </trkpt>
      <trkpt lat="44.45796" lon="5.78358">
        <ele>775</ele>
        <time>2019-03-29T14:41:02Z</time>
      </trkpt>
      <trkpt lat="44.45794" lon="5.78361">
        <ele>775</ele>
        <time>2019-03-29T14:41:03Z</time>
      </trkpt>
      <trkpt lat="44.45791" lon="5.78364">
        <ele>775</ele>
        <time>2019-03-29T14:41:04Z</time>
      </trkpt>
      <trkpt lat="44.45788" lon="5.78367">
        <ele>775</ele>
        <time>2019-03-29T14:41:05Z</time>
      </trkpt>
      <trkpt lat="44.45786" lon="5.78371">
        <ele>776</ele>
        <time>2019-03-29T14:41:06Z</time>
      </trkpt>
      <trkpt lat="44.45783" lon="5.78374">
        <ele>776</ele>
        <time>2019-03-29T14:41:07Z</time>
      </trkpt>
      <trkpt lat="44.4578" lon="5.78377">
        <ele>776</ele>
        <time>2019-03-29T14:41:08Z</time>
      </trkpt>
      <trkpt lat="44.45778" lon="5.78381">
        <ele>776</ele>
        <time>2019-03-29T14:41:09Z</time>
      </trkpt>
      <trkpt lat="44.45775" lon="5.78384">
        <ele>776</ele>
        <time>2019-03-29T14:41:10Z</time>
      </trkpt>
      <trkpt lat="44.45772" lon="5.78387">
        <ele>776</ele>
        <time>2019-03-29T14:41:11Z</time>
      </trkpt>
      <trkpt lat="44.45768" lon="5.78391">
        <ele>777</ele>
        <time>2019-03-29T14:41:12Z</time>
      </trkpt>
      <trkpt lat="44.45765" lon="5.78394">
        <ele>777</ele>
        <time>2019-03-29T14:41:13Z</time>
      </trkpt>
      <trkpt lat="44.45762" lon="5.78397">
        <ele>777</ele>
        <time>2019-03-29T14:41:14Z</time>
      </trkpt>
      <trkpt lat="44.45758" lon="5.784">
        <ele>777</ele>
        <time>2019-03-29T14:41:15Z</time>
      </trkpt>
      <trkpt lat="44.45754" lon="5.78403">
        <ele>777</ele>
        <time>2019-03-29T14:41:16Z</time>
      </trkpt>
      <trkpt lat="44.4575" lon="5.78405">
        <ele>777</ele>
        <time>2019-03-29T14:41:17Z</time>
      </trkpt>
      <trkpt lat="44.45745" lon="5.78406">
        <ele>777</ele>
        <time>2019-03-29T14:41:18Z</time>
      </trkpt>
      <trkpt lat="44.4574" lon="5.78407">
        <ele>777</ele>
        <time>2019-03-29T14:41:19Z</time>
      </trkpt>
      <trkpt lat="44.45735" lon="5.78407">
        <ele>777</ele>
        <time>2019-03-29T14:41:20Z</time>
      </trkpt>
      <trkpt lat="44.4573" lon="5.78406">
        <ele>777</ele>
        <time>2019-03-29T14:41:21Z</time>
      </trkpt>
      <trkpt lat="44.45725" lon="5.78405">
        <ele>777</ele>
        <time>2019-03-29T14:41:22Z</time>
      </trkpt>
      <trkpt lat="44.4572" lon="5.78404">
        <ele>777</ele>
        <time>2019-03-29T14:41:23Z</time>
      </trkpt>
      <trkpt lat="44.45715" lon="5.78402">
        <ele>777</ele>
        <time>2019-03-29T14:41:24Z</time>
      </trkpt>
      <trkpt lat="44.4571" lon="5.78401">
        <ele>777</ele>
        <time>2019-03-29T14:41:25Z</time>
      </trkpt>
      <trkpt lat="44.45705" lon="5.78399">
        <ele>777</ele>
        <time>2019-03-29T14:41:26Z</time>
      </trkpt>
      <trkpt lat="44.457" lon="5.78397">
        <ele>778</ele>
        <time>2019-03-29T14:41:27Z</time>
      </trkpt>
      <trkpt lat="44.45696" lon="5.78394">
        <ele>778</ele>
        <time>2019-03-29T14:41:28Z</time>
      </trkpt>
      <trkpt lat="44.45692" lon="5.7839">
        <ele>778</ele>
        <time>2019-03-29T14:41:29Z</time>
      </trkpt>
      <trkpt lat="44.45689" lon="5.78385">
        <ele>779</ele>
        <time>2019-03-29T14:41:30Z</time>
      </trkpt>
      <trkpt lat="44.45686" lon="5.7838">
        <ele>779</ele>
        <time>2019-03-29T14:41:31Z</time>
      </trkpt>
      <trkpt lat="44.45684" lon="5.78375">
        <ele>780</ele>
        <time>2019-03-29T14:41:32Z</time>
      </trkpt>
      <trkpt lat="44.45682" lon="5.7837">
        <ele>780</ele>
        <time>2019-03-29T14:41:33Z</time>
      </trkpt>
      <trkpt lat="44.4568" lon="5.78365">
        <ele>780</ele>
        <time>2019-03-29T14:41:34Z</time>
      </trkpt>
      <trkpt lat="44.45678" lon="5.7836">
        <ele>780</ele>
        <time>2019-03-29T14:41:35Z</time>
      </trkpt>
      <trkpt lat="44.45677" lon="5.78354">
        <ele>781</ele>
        <time>2019-03-29T14:41:36Z</time>
      </trkpt>
      <trkpt lat="44.45675" lon="5.78349">
        <ele>781</ele>
        <time>2019-03-29T14:41:37Z</time>
      </trkpt>
      <trkpt lat="44.45673" lon="5.78344">
        <ele>781</ele>
        <time>2019-03-29T14:41:38Z</time>
      </trkpt>
      <trkpt lat="44.45672" lon="5.78339">
        <ele>781</ele>
        <time>2019-03-29T14:41:39Z</time>
      </trkpt>
      <trkpt lat="44.4567" lon="5.78334">
        <ele>781</ele>
        <time>2019-03-29T14:41:40Z</time>
      </trkpt>
      <trkpt lat="44.45669" lon="5.78329">
        <ele>782</ele>
        <time>2019-03-29T14:41:41Z</time>
      </trkpt>
      <trkpt lat="44.45667" lon="5.78323">
        <ele>782</ele>
        <time>2019-03-29T14:41:42Z</time>
      </trkpt>
      <trkpt lat="44.45665" lon="5.78319">
        <ele>783</ele>
        <time>2019-03-29T14:41:43Z</time>
      </trkpt>
      <trkpt lat="44.45664" lon="5.78313">
        <ele>783</ele>
        <time>2019-03-29T14:41:44Z</time>
      </trkpt>
      <trkpt lat="44.45662" lon="5.78309">
        <ele>783</ele>
        <time>2019-03-29T14:41:45Z</time>
      </trkpt>
      <trkpt lat="44.45661" lon="5.78304">
        <ele>784</ele>
        <time>2019-03-29T14:41:46Z</time>
      </trkpt>
      <trkpt lat="44.45659" lon="5.78299">
        <ele>784</ele>
        <time>2019-03-29T14:41:47Z</time>
      </trkpt>
      <trkpt lat="44.45658" lon="5.78294">
        <ele>784</ele>
        <time>2019-03-29T14:41:48Z</time>
      </trkpt>
      <trkpt lat="44.45656" lon="5.78289">
        <ele>785</ele>
        <time>2019-03-29T14:41:49Z</time>
      </trkpt>
      <trkpt lat="44.45655" lon="5.78285">
        <ele>785</ele>
        <time>2019-03-29T14:41:50Z</time>
      </trkpt>
      <trkpt lat="44.45653" lon="5.7828">
        <ele>785</ele>
        <time>2019-03-29T14:41:51Z</time>
      </trkpt>
      <trkpt lat="44.45651" lon="5.78276">
        <ele>786</ele>
        <time>2019-03-29T14:41:52Z</time>
      </trkpt>
      <trkpt lat="44.45649" lon="5.78272">
        <ele>786</ele>
        <time>2019-03-29T14:41:53Z</time>
      </trkpt>
      <trkpt lat="44.45646" lon="5.78269">
        <ele>786</ele>
        <time>2019-03-29T14:41:54Z</time>
      </trkpt>
      <trkpt lat="44.45644" lon="5.78266">
        <ele>786</ele>
        <time>2019-03-29T14:41:55Z</time>
      </trkpt>
      <trkpt lat="44.45641" lon="5.78263">
        <ele>787</ele>
        <time>2019-03-29T14:41:56Z</time>
      </trkpt>
      <trkpt lat="44.45639" lon="5.78261">
        <ele>787</ele>
        <time>2019-03-29T14:41:57Z</time>
      </trkpt>
      <trkpt lat="44.45636" lon="5.78259">
        <ele>787</ele>
        <time>2019-03-29T14:41:58Z</time>
      </trkpt>
      <trkpt lat="44.45633" lon="5.78258">
        <ele>787</ele>
        <time>2019-03-29T14:41:59Z</time>
      </trkpt>
      <trkpt lat="44.45629" lon="5.78258">
        <ele>788</ele>
        <time>2019-03-29T14:42:00Z</time>
      </trkpt>
      <trkpt lat="44.45626" lon="5.78258">
        <ele>788</ele>
        <time>2019-03-29T14:42:01Z</time>
      </trkpt>
      <trkpt lat="44.45623" lon="5.78258">
        <ele>788</ele>
        <time>2019-03-29T14:42:02Z</time>
      </trkpt>
      <trkpt lat="44.45619" lon="5.7826">
        <ele>789</ele>
        <time>2019-03-29T14:42:03Z</time>
      </trkpt>
      <trkpt lat="44.45616" lon="5.78262">
        <ele>789</ele>
        <time>2019-03-29T14:42:04Z</time>
      </trkpt>
      <trkpt lat="44.45613" lon="5.78264">
        <ele>789</ele>
        <time>2019-03-29T14:42:05Z</time>
      </trkpt>
      <trkpt lat="44.4561" lon="5.78267">
        <ele>790</ele>
        <time>2019-03-29T14:42:06Z</time>
      </trkpt>
      <trkpt lat="44.45608" lon="5.78271">
        <ele>790</ele>
        <time>2019-03-29T14:42:07Z</time>
      </trkpt>
      <trkpt lat="44.45605" lon="5.78274">
        <ele>790</ele>
        <time>2019-03-29T14:42:08Z</time>
      </trkpt>
      <trkpt lat="44.45603" lon="5.78277">
        <ele>790</ele>
        <time>2019-03-29T14:42:09Z</time>
      </trkpt>
      <trkpt lat="44.45601" lon="5.7828">
        <ele>791</ele>
        <time>2019-03-29T14:42:10Z</time>
      </trkpt>
      <trkpt lat="44.45598" lon="5.78284">
        <ele>791</ele>
        <time>2019-03-29T14:42:11Z</time>
      </trkpt>
      <trkpt lat="44.45596" lon="5.78288">
        <ele>791</ele>
        <time>2019-03-29T14:42:12Z</time>
      </trkpt>
      <trkpt lat="44.45594" lon="5.78292">
        <ele>791</ele>
        <time>2019-03-29T14:42:13Z</time>
      </trkpt>
      <trkpt lat="44.45591" lon="5.78295">
        <ele>791</ele>
        <time>2019-03-29T14:42:14Z</time>
      </trkpt>
      <trkpt lat="44.45589" lon="5.78298">
        <ele>791</ele>
        <time>2019-03-29T14:42:15Z</time>
      </trkpt>
      <trkpt lat="44.45586" lon="5.78301">
        <ele>791</ele>
        <time>2019-03-29T14:42:16Z</time>
      </trkpt>
      <trkpt lat="44.45583" lon="5.78305">
        <ele>791</ele>
        <time>2019-03-29T14:42:17Z</time>
      </trkpt>
      <trkpt lat="44.4558" lon="5.78307">
        <ele>792</ele>
        <time>2019-03-29T14:42:18Z</time>
      </trkpt>
      <trkpt lat="44.45577" lon="5.7831">
        <ele>792</ele>
        <time>2019-03-29T14:42:19Z</time>
      </trkpt>
      <trkpt lat="44.45574" lon="5.78312">
        <ele>792</ele>
        <time>2019-03-29T14:42:20Z</time>
      </trkpt>
      <trkpt lat="44.4557" lon="5.78314">
        <ele>792</ele>
        <time>2019-03-29T14:42:21Z</time>
      </trkpt>
      <trkpt lat="44.45567" lon="5.78315">
        <ele>792</ele>
        <time>2019-03-29T14:42:22Z</time>
      </trkpt>
      <trkpt lat="44.45563" lon="5.78316">
        <ele>792</ele>
        <time>2019-03-29T14:42:23Z</time>
      </trkpt>
      <trkpt lat="44.4556" lon="5.78317">
        <ele>792</ele>
        <time>2019-03-29T14:42:24Z</time>
      </trkpt>
      <trkpt lat="44.45556" lon="5.78318">
        <ele>792</ele>
        <time>2019-03-29T14:42:25Z</time>
      </trkpt>
      <trkpt lat="44.45553" lon="5.78318">
        <ele>792</ele>
        <time>2019-03-29T14:42:26Z</time>
      </trkpt>
      <trkpt lat="44.45549" lon="5.78318">
        <ele>792</ele>
        <time>2019-03-29T14:42:27Z</time>
      </trkpt>
      <trkpt lat="44.45546" lon="5.78318">
        <ele>793</ele>
        <time>2019-03-29T14:42:28Z</time>
      </trkpt>
      <trkpt lat="44.45542" lon="5.78318">
        <ele>793</ele>
        <time>2019-03-29T14:42:29Z</time>
      </trkpt>
      <trkpt lat="44.45539" lon="5.78317">
        <ele>793</ele>
        <time>2019-03-29T14:42:30Z</time>
      </trkpt>
      <trkpt lat="44.45535" lon="5.78317">
        <ele>793</ele>
        <time>2019-03-29T14:42:31Z</time>
      </trkpt>
      <trkpt lat="44.45531" lon="5.78317">
        <ele>794</ele>
        <time>2019-03-29T14:42:32Z</time>
      </trkpt>
      <trkpt lat="44.45528" lon="5.78316">
        <ele>794</ele>
        <time>2019-03-29T14:42:33Z</time>
      </trkpt>
      <trkpt lat="44.45524" lon="5.78316">
        <ele>794</ele>
        <time>2019-03-29T14:42:34Z</time>
      </trkpt>
      <trkpt lat="44.4552" lon="5.78316">
        <ele>794</ele>
        <time>2019-03-29T14:42:35Z</time>
      </trkpt>
      <trkpt lat="44.45517" lon="5.78316">
        <ele>794</ele>
        <time>2019-03-29T14:42:36Z</time>
      </trkpt>
      <trkpt lat="44.45513" lon="5.78315">
        <ele>794</ele>
        <time>2019-03-29T14:42:37Z</time>
      </trkpt>
      <trkpt lat="44.45509" lon="5.78315">
        <ele>795</ele>
        <time>2019-03-29T14:42:38Z</time>
      </trkpt>
      <trkpt lat="44.45506" lon="5.78315">
        <ele>795</ele>
        <time>2019-03-29T14:42:39Z</time>
      </trkpt>
      <trkpt lat="44.45502" lon="5.78315">
        <ele>795</ele>
        <time>2019-03-29T14:42:40Z</time>
      </trkpt>
      <trkpt lat="44.45499" lon="5.78314">
        <ele>795</ele>
        <time>2019-03-29T14:42:41Z</time>
      </trkpt>
      <trkpt lat="44.45495" lon="5.78314">
        <ele>795</ele>
        <time>2019-03-29T14:42:42Z</time>
      </trkpt>
      <trkpt lat="44.45491" lon="5.78314">
        <ele>795</ele>
        <time>2019-03-29T14:42:43Z</time>
      </trkpt>
      <trkpt lat="44.45488" lon="5.78314">
        <ele>795</ele>
        <time>2019-03-29T14:42:44Z</time>
      </trkpt>
      <trkpt lat="44.45484" lon="5.78313">
        <ele>795</ele>
        <time>2019-03-29T14:42:45Z</time>
      </trkpt>
      <trkpt lat="44.4548" lon="5.78313">
        <ele>796</ele>
        <time>2019-03-29T14:42:46Z</time>
      </trkpt>
      <trkpt lat="44.45476" lon="5.78313">
        <ele>796</ele>
        <time>2019-03-29T14:42:47Z</time>
      </trkpt>
      <trkpt lat="44.45473" lon="5.78313">
        <ele>796</ele>
        <time>2019-03-29T14:42:48Z</time>
      </trkpt>
      <trkpt lat="44.45469" lon="5.78313">
        <ele>796</ele>
        <time>2019-03-29T14:42:49Z</time>
      </trkpt>
      <trkpt lat="44.45465" lon="5.78313">
        <ele>797</ele>
        <time>2019-03-29T14:42:50Z</time>
      </trkpt>
      <trkpt lat="44.45462" lon="5.78313">
        <ele>797</ele>
        <time>2019-03-29T14:42:51Z</time>
      </trkpt>
      <trkpt lat="44.45458" lon="5.78313">
        <ele>797</ele>
        <time>2019-03-29T14:42:52Z</time>
      </trkpt>
      <trkpt lat="44.45454" lon="5.78313">
        <ele>797</ele>
        <time>2019-03-29T14:42:53Z</time>
      </trkpt>
      <trkpt lat="44.45451" lon="5.78314">
        <ele>797</ele>
        <time>2019-03-29T14:42:54Z</time>
      </trkpt>
      <trkpt lat="44.45447" lon="5.78314">
        <ele>797</ele>
        <time>2019-03-29T14:42:55Z</time>
      </trkpt>
      <trkpt lat="44.45444" lon="5.78315">
        <ele>798</ele>
        <time>2019-03-29T14:42:56Z</time>
      </trkpt>
      <trkpt lat="44.4544" lon="5.78317">
        <ele>798</ele>
        <time>2019-03-29T14:42:57Z</time>
      </trkpt>
      <trkpt lat="44.45437" lon="5.78318">
        <ele>798</ele>
        <time>2019-03-29T14:42:58Z</time>
      </trkpt>
      <trkpt lat="44.45433" lon="5.7832">
        <ele>798</ele>
        <time>2019-03-29T14:42:59Z</time>
      </trkpt>
      <trkpt lat="44.4543" lon="5.78323">
        <ele>798</ele>
        <time>2019-03-29T14:43:00Z</time>
      </trkpt>
      <trkpt lat="44.45426" lon="5.78326">
        <ele>798</ele>
        <time>2019-03-29T14:43:01Z</time>
      </trkpt>
      <trkpt lat="44.45422" lon="5.78329">
        <ele>798</ele>
        <time>2019-03-29T14:43:02Z</time>
      </trkpt>
      <trkpt lat="44.45418" lon="5.78333">
        <ele>798</ele>
        <time>2019-03-29T14:43:03Z</time>
      </trkpt>
      <trkpt lat="44.45414" lon="5.78337">
        <ele>798</ele>
        <time>2019-03-29T14:43:04Z</time>
      </trkpt>
      <trkpt lat="44.4541" lon="5.78343">
        <ele>798</ele>
        <time>2019-03-29T14:43:05Z</time>
      </trkpt>
      <trkpt lat="44.45406" lon="5.78349">
        <ele>798</ele>
        <time>2019-03-29T14:43:06Z</time>
      </trkpt>
      <trkpt lat="44.45401" lon="5.78355">
        <ele>798</ele>
        <time>2019-03-29T14:43:07Z</time>
      </trkpt>
      <trkpt lat="44.45396" lon="5.78361">
        <ele>798</ele>
        <time>2019-03-29T14:43:08Z</time>
      </trkpt>
      <trkpt lat="44.4539" lon="5.78368">
        <ele>798</ele>
        <time>2019-03-29T14:43:09Z</time>
      </trkpt>
      <trkpt lat="44.45385" lon="5.78375">
        <ele>798</ele>
        <time>2019-03-29T14:43:10Z</time>
      </trkpt>
      <trkpt lat="44.45379" lon="5.78382">
        <ele>798</ele>
        <time>2019-03-29T14:43:11Z</time>
      </trkpt>
      <trkpt lat="44.45373" lon="5.7839">
        <ele>798</ele>
        <time>2019-03-29T14:43:12Z</time>
      </trkpt>
      <trkpt lat="44.45367" lon="5.78398">
        <ele>798</ele>
        <time>2019-03-29T14:43:13Z</time>
      </trkpt>
      <trkpt lat="44.4536" lon="5.78406">
        <ele>798</ele>
        <time>2019-03-29T14:43:14Z</time>
      </trkpt>
      <trkpt lat="44.45354" lon="5.78415">
        <ele>798</ele>
        <time>2019-03-29T14:43:15Z</time>
      </trkpt>
      <trkpt lat="44.45347" lon="5.78424">
        <ele>798</ele>
        <time>2019-03-29T14:43:16Z</time>
      </trkpt>
      <trkpt lat="44.45341" lon="5.78432">
        <ele>798</ele>
        <time>2019-03-29T14:43:17Z</time>
      </trkpt>
      <trkpt lat="44.45334" lon="5.78441">
        <ele>798</ele>
        <time>2019-03-29T14:43:18Z</time>
      </trkpt>
      <trkpt lat="44.45327" lon="5.7845">
        <ele>797</ele>
        <time>2019-03-29T14:43:19Z</time>
      </trkpt>
      <trkpt lat="44.4532" lon="5.78459">
        <ele>797</ele>
        <time>2019-03-29T14:43:20Z</time>
      </trkpt>
      <trkpt lat="44.45313" lon="5.78468">
        <ele>796</ele>
        <time>2019-03-29T14:43:21Z</time>
      </trkpt>
      <trkpt lat="44.45306" lon="5.78477">
        <ele>796</ele>
        <time>2019-03-29T14:43:22Z</time>
      </trkpt>
      <trkpt lat="44.453" lon="5.78485">
        <ele>795</ele>
        <time>2019-03-29T14:43:23Z</time>
      </trkpt>
      <trkpt lat="44.45293" lon="5.78493">
        <ele>795</ele>
        <time>2019-03-29T14:43:24Z</time>
      </trkpt>
      <trkpt lat="44.45285" lon="5.785">
        <ele>794</ele>
        <time>2019-03-29T14:43:25Z</time>
      </trkpt>
      <trkpt lat="44.45277" lon="5.78504">
        <ele>794</ele>
        <time>2019-03-29T14:43:26Z</time>
      </trkpt>
      <trkpt lat="44.45267" lon="5.78505">
        <ele>793</ele>
        <time>2019-03-29T14:43:27Z</time>
      </trkpt>
      <trkpt lat="44.45258" lon="5.78503">
        <ele>792</ele>
        <time>2019-03-29T14:43:28Z</time>
      </trkpt>
      <trkpt lat="44.4525" lon="5.78498">
        <ele>792</ele>
        <time>2019-03-29T14:43:29Z</time>
      </trkpt>
      <trkpt lat="44.45244" lon="5.78489">
        <ele>792</ele>
        <time>2019-03-29T14:43:30Z</time>
      </trkpt>
      <trkpt lat="44.45238" lon="5.78481">
        <ele>791</ele>
        <time>2019-03-29T14:43:31Z</time>
      </trkpt>
      <trkpt lat="44.45233" lon="5.78474">
        <ele>791</ele>
        <time>2019-03-29T14:43:32Z</time>
      </trkpt>
      <trkpt lat="44.45227" lon="5.78466">
        <ele>791</ele>
        <time>2019-03-29T14:43:33Z</time>
      </trkpt>
      <trkpt lat="44.45222" lon="5.7846">
        <ele>790</ele>
        <time>2019-03-29T14:43:34Z</time>
      </trkpt>
      <trkpt lat="44.45216" lon="5.78453">
        <ele>790</ele>
        <time>2019-03-29T14:43:35Z</time>
      </trkpt>
      <trkpt lat="44.45211" lon="5.78447">
        <ele>790</ele>
        <time>2019-03-29T14:43:36Z</time>
      </trkpt>
      <trkpt lat="44.45206" lon="5.7844">
        <ele>790</ele>
        <time>2019-03-29T14:43:37Z</time>
      </trkpt>
      <trkpt lat="44.45201" lon="5.78434">
        <ele>790</ele>
        <time>2019-03-29T14:43:38Z</time>
      </trkpt>
      <trkpt lat="44.45196" lon="5.78428">
        <ele>790</ele>
        <time>2019-03-29T14:43:39Z</time>
      </trkpt>
      <trkpt lat="44.45191" lon="5.78423">
        <ele>790</ele>
        <time>2019-03-29T14:43:40Z</time>
      </trkpt>
      <trkpt lat="44.45185" lon="5.78419">
        <ele>790</ele>
        <time>2019-03-29T14:43:41Z</time>
      </trkpt>
      <trkpt lat="44.45179" lon="5.78416">
        <ele>790</ele>
        <time>2019-03-29T14:43:42Z</time>
      </trkpt>
      <trkpt lat="44.45173" lon="5.78415">
        <ele>790</ele>
        <time>2019-03-29T14:43:43Z</time>
      </trkpt>
      <trkpt lat="44.45167" lon="5.78416">
        <ele>790</ele>
        <time>2019-03-29T14:43:44Z</time>
      </trkpt>
      <trkpt lat="44.45161" lon="5.78419">
        <ele>790</ele>
        <time>2019-03-29T14:43:45Z</time>
      </trkpt>
      <trkpt lat="44.45156" lon="5.78423">
        <ele>790</ele>
        <time>2019-03-29T14:43:46Z</time>
      </trkpt>
      <trkpt lat="44.45151" lon="5.78428">
        <ele>790</ele>
        <time>2019-03-29T14:43:47Z</time>
      </trkpt>
      <trkpt lat="44.45146" lon="5.78434">
        <ele>790</ele>
        <time>2019-03-29T14:43:48Z</time>
      </trkpt>
      <trkpt lat="44.45141" lon="5.78439">
        <ele>790</ele>
        <time>2019-03-29T14:43:49Z</time>
      </trkpt>
      <trkpt lat="44.45136" lon="5.78444">
        <ele>790</ele>
        <time>2019-03-29T14:43:50Z</time>
      </trkpt>
      <trkpt lat="44.4513" lon="5.78448">
        <ele>790</ele>
        <time>2019-03-29T14:43:51Z</time>
      </trkpt>
      <trkpt lat="44.45124" lon="5.78449">
        <ele>790</ele>
        <time>2019-03-29T14:43:52Z</time>
      </trkpt>
      <trkpt lat="44.45118" lon="5.78449">
        <ele>790</ele>
        <time>2019-03-29T14:43:53Z</time>
      </trkpt>
      <trkpt lat="44.45112" lon="5.78446">
        <ele>790</ele>
        <time>2019-03-29T14:43:54Z</time>
      </trkpt>
      <trkpt lat="44.45107" lon="5.78441">
        <ele>790</ele>
        <time>2019-03-29T14:43:55Z</time>
      </trkpt>
      <trkpt lat="44.45102" lon="5.78436">
        <ele>790</ele>
        <time>2019-03-29T14:43:56Z</time>
      </trkpt>
      <trkpt lat="44.45097" lon="5.7843">
        <ele>790</ele>
        <time>2019-03-29T14:43:57Z</time>
      </trkpt>
      <trkpt lat="44.45092" lon="5.78426">
        <ele>790</ele>
        <time>2019-03-29T14:43:58Z</time>
      </trkpt>
      <trkpt lat="44.45086" lon="5.78423">
        <ele>790</ele>
        <time>2019-03-29T14:43:59Z</time>
      </trkpt>
      <trkpt lat="44.4508" lon="5.78422">
        <ele>790</ele>
        <time>2019-03-29T14:44:00Z</time>
      </trkpt>
      <trkpt lat="44.45074" lon="5.78423">
        <ele>790</ele>
        <time>2019-03-29T14:44:01Z</time>
      </trkpt>
      <trkpt lat="44.45068" lon="5.78426">
        <ele>790</ele>
        <time>2019-03-29T14:44:02Z</time>
      </trkpt>
      <trkpt lat="44.45063" lon="5.78429">
        <ele>790</ele>
        <time>2019-03-29T14:44:03Z</time>
      </trkpt>
      <trkpt lat="44.45057" lon="5.78434">
        <ele>790</ele>
        <time>2019-03-29T14:44:04Z</time>
      </trkpt>
      <trkpt lat="44.45052" lon="5.78438">
        <ele>790</ele>
        <time>2019-03-29T14:44:05Z</time>
      </trkpt>
      <trkpt lat="44.45046" lon="5.78442">
        <ele>790</ele>
        <time>2019-03-29T14:44:06Z</time>
      </trkpt>
      <trkpt lat="44.45041" lon="5.78446">
        <ele>790</ele>
        <time>2019-03-29T14:44:07Z</time>
      </trkpt>
      <trkpt lat="44.45034" lon="5.78448">
        <ele>790</ele>
        <time>2019-03-29T14:44:08Z</time>
      </trkpt>
      <trkpt lat="44.45028" lon="5.78449">
        <ele>790</ele>
        <time>2019-03-29T14:44:09Z</time>
      </trkpt>
      <trkpt lat="44.45022" lon="5.78447">
        <ele>790</ele>
        <time>2019-03-29T14:44:10Z</time>
      </trkpt>
      <trkpt lat="44.45016" lon="5.78442">
        <ele>790</ele>
        <time>2019-03-29T14:44:11Z</time>
      </trkpt>
      <trkpt lat="44.45013" lon="5.78435">
        <ele>790</ele>
        <time>2019-03-29T14:44:12Z</time>
      </trkpt>
      <trkpt lat="44.45011" lon="5.78427">
        <ele>790</ele>
        <time>2019-03-29T14:44:13Z</time>
      </trkpt>
      <trkpt lat="44.45011" lon="5.78417">
        <ele>790</ele>
        <time>2019-03-29T14:44:14Z</time>
      </trkpt>
      <trkpt lat="44.45012" lon="5.78408">
        <ele>790</ele>
        <time>2019-03-29T14:44:15Z</time>
      </trkpt>
      <trkpt lat="44.45014" lon="5.78399">
        <ele>790</ele>
        <time>2019-03-29T14:44:16Z</time>
      </trkpt>
      <trkpt lat="44.45017" lon="5.78391">
        <ele>790</ele>
        <time>2019-03-29T14:44:17Z</time>
      </trkpt>
      <trkpt lat="44.4502" lon="5.78382">
        <ele>790</ele>
        <time>2019-03-29T14:44:18Z</time>
      </trkpt>
      <trkpt lat="44.45022" lon="5.78374">
        <ele>790</ele>
        <time>2019-03-29T14:44:19Z</time>
      </trkpt>
      <trkpt lat="44.45024" lon="5.78365">
        <ele>790</ele>
        <time>2019-03-29T14:44:20Z</time>
      </trkpt>
      <trkpt lat="44.45026" lon="5.78356">
        <ele>790</ele>
        <time>2019-03-29T14:44:21Z</time>
      </trkpt>
      <trkpt lat="44.45026" lon="5.78347">
        <ele>790</ele>
        <time>2019-03-29T14:44:22Z</time>
      </trkpt>
      <trkpt lat="44.45025" lon="5.78339">
        <ele>790</ele>
        <time>2019-03-29T14:44:23Z</time>
      </trkpt>
      <trkpt lat="44.45023" lon="5.78331">
        <ele>790</ele>
        <time>2019-03-29T14:44:24Z</time>
      </trkpt>
      <trkpt lat="44.45019" lon="5.78324">
        <ele>790</ele>
        <time>2019-03-29T14:44:25Z</time>
      </trkpt>
      <trkpt lat="44.45015" lon="5.78318">
        <ele>790</ele>
        <time>2019-03-29T14:44:26Z</time>
      </trkpt>
      <trkpt lat="44.4501" lon="5.78313">
        <ele>790</ele>
        <time>2019-03-29T14:44:27Z</time>
      </trkpt>
      <trkpt lat="44.45005" lon="5.78308">
        <ele>790</ele>
        <time>2019-03-29T14:44:28Z</time>
      </trkpt>
      <trkpt lat="44.45" lon="5.78304">
        <ele>790</ele>
        <time>2019-03-29T14:44:29Z</time>
      </trkpt>
      <trkpt lat="44.44996" lon="5.78299">
        <ele>790</ele>
        <time>2019-03-29T14:44:30Z</time>
      </trkpt>
      <trkpt lat="44.44991" lon="5.78295">
        <ele>790</ele>
        <time>2019-03-29T14:44:31Z</time>
      </trkpt>
      <trkpt lat="44.44986" lon="5.7829">
        <ele>790</ele>
        <time>2019-03-29T14:44:32Z</time>
      </trkpt>
      <trkpt lat="44.44981" lon="5.78286">
        <ele>790</ele>
        <time>2019-03-29T14:44:33Z</time>
      </trkpt>
      <trkpt lat="44.44975" lon="5.78281">
        <ele>790</ele>
        <time>2019-03-29T14:44:34Z</time>
      </trkpt>
      <trkpt lat="44.4497" lon="5.78276">
        <ele>790</ele>
        <time>2019-03-29T14:44:35Z</time>
      </trkpt>
      <trkpt lat="44.44965" lon="5.78272">
        <ele>790</ele>
        <time>2019-03-29T14:44:36Z</time>
      </trkpt>
      <trkpt lat="44.4496" lon="5.78267">
        <ele>790</ele>
        <time>2019-03-29T14:44:37Z</time>
      </trkpt>
      <trkpt lat="44.44955" lon="5.78262">
        <ele>790</ele>
        <time>2019-03-29T14:44:38Z</time>
      </trkpt>
      <trkpt lat="44.44949" lon="5.78257">
        <ele>790</ele>
        <time>2019-03-29T14:44:39Z</time>
      </trkpt>
      <trkpt lat="44.44944" lon="5.78251">
        <ele>790</ele>
        <time>2019-03-29T14:44:40Z</time>
      </trkpt>
      <trkpt lat="44.44938" lon="5.78246">
        <ele>790</ele>
        <time>2019-03-29T14:44:41Z</time>
      </trkpt>
      <trkpt lat="44.44933" lon="5.78241">
        <ele>790</ele>
        <time>2019-03-29T14:44:42Z</time>
      </trkpt>
      <trkpt lat="44.44927" lon="5.78235">
        <ele>790</ele>
        <time>2019-03-29T14:44:43Z</time>
      </trkpt>
      <trkpt lat="44.44921" lon="5.7823">
        <ele>790</ele>
        <time>2019-03-29T14:44:44Z</time>
      </trkpt>
      <trkpt lat="44.44915" lon="5.78225">
        <ele>790</ele>
        <time>2019-03-29T14:44:45Z</time>
      </trkpt>
      <trkpt lat="44.44909" lon="5.78219">
        <ele>790</ele>
        <time>2019-03-29T14:44:46Z</time>
      </trkpt>
      <trkpt lat="44.44902" lon="5.78214">
        <ele>790</ele>
        <time>2019-03-29T14:44:47Z</time>
      </trkpt>
      <trkpt lat="44.44895" lon="5.78209">
        <ele>790</ele>
        <time>2019-03-29T14:44:48Z</time>
      </trkpt>
      <trkpt lat="44.44887" lon="5.78206">
        <ele>790</ele>
        <time>2019-03-29T14:44:49Z</time>
      </trkpt>
      <trkpt lat="44.4488" lon="5.78202">
        <ele>790</ele>
        <time>2019-03-29T14:44:50Z</time>
      </trkpt>
      <trkpt lat="44.44872" lon="5.782">
        <ele>790</ele>
        <time>2019-03-29T14:44:51Z</time>
      </trkpt>
      <trkpt lat="44.44864" lon="5.78199">
        <ele>790</ele>
        <time>2019-03-29T14:44:52Z</time>
      </trkpt>
      <trkpt lat="44.44857" lon="5.78197">
        <ele>790</ele>
        <time>2019-03-29T14:44:53Z</time>
      </trkpt>
      <trkpt lat="44.44849" lon="5.78196">
        <ele>790</ele>
        <time>2019-03-29T14:44:54Z</time>
      </trkpt>
      <trkpt lat="44.44841" lon="5.78195">
        <ele>790</ele>
        <time>2019-03-29T14:44:55Z</time>
      </trkpt>
      <trkpt lat="44.44834" lon="5.78194">
        <ele>789</ele>
        <time>2019-03-29T14:44:56Z</time>
      </trkpt>
      <trkpt lat="44.44827" lon="5.78193">
        <ele>789</ele>
        <time>2019-03-29T14:44:57Z</time>
      </trkpt>
      <trkpt lat="44.4482" lon="5.78192">
        <ele>789</ele>
        <time>2019-03-29T14:44:58Z</time>
      </trkpt>
      <trkpt lat="44.44813" lon="5.78191">
        <ele>789</ele>
        <time>2019-03-29T14:44:59Z</time>
      </trkpt>
      <trkpt lat="44.44806" lon="5.7819">
        <ele>789</ele>
        <time>2019-03-29T14:45:00Z</time>
      </trkpt>
      <trkpt lat="44.44799" lon="5.7819">
        <ele>789</ele>
        <time>2019-03-29T14:45:01Z</time>
      </trkpt>
      <trkpt lat="44.44792" lon="5.7819">
        <ele>789</ele>
        <time>2019-03-29T14:45:02Z</time>
      </trkpt>
      <trkpt lat="44.44785" lon="5.7819">
        <ele>789</ele>
        <time>2019-03-29T14:45:03Z</time>
      </trkpt>
      <trkpt lat="44.44778" lon="5.78191">
        <ele>788</ele>
        <time>2019-03-29T14:45:04Z</time>
      </trkpt>
      <trkpt lat="44.44772" lon="5.78193">
        <ele>788</ele>
        <time>2019-03-29T14:45:05Z</time>
      </trkpt>
      <trkpt lat="44.44765" lon="5.78196">
        <ele>788</ele>
        <time>2019-03-29T14:45:06Z</time>
      </trkpt>
      <trkpt lat="44.44758" lon="5.78199">
        <ele>788</ele>
        <time>2019-03-29T14:45:07Z</time>
      </trkpt>
      <trkpt lat="44.44751" lon="5.78203">
        <ele>788</ele>
        <time>2019-03-29T14:45:08Z</time>
      </trkpt>
      <trkpt lat="44.44745" lon="5.78208">
        <ele>788</ele>
        <time>2019-03-29T14:45:09Z</time>
      </trkpt>
      <trkpt lat="44.44738" lon="5.78213">
        <ele>788</ele>
        <time>2019-03-29T14:45:10Z</time>
      </trkpt>
      <trkpt lat="44.44732" lon="5.78219">
        <ele>788</ele>
        <time>2019-03-29T14:45:11Z</time>
      </trkpt>
      <trkpt lat="44.44726" lon="5.78225">
        <ele>787</ele>
        <time>2019-03-29T14:45:12Z</time>
      </trkpt>
      <trkpt lat="44.4472" lon="5.78231">
        <ele>787</ele>
        <time>2019-03-29T14:45:13Z</time>
      </trkpt>
      <trkpt lat="44.44714" lon="5.78238">
        <ele>787</ele>
        <time>2019-03-29T14:45:14Z</time>
      </trkpt>
      <trkpt lat="44.44707" lon="5.78244">
        <ele>787</ele>
        <time>2019-03-29T14:45:15Z</time>
      </trkpt>
      <trkpt lat="44.447" lon="5.78251">
        <ele>786</ele>
        <time>2019-03-29T14:45:16Z</time>
      </trkpt>
      <trkpt lat="44.44694" lon="5.78257">
        <ele>786</ele>
        <time>2019-03-29T14:45:17Z</time>
      </trkpt>
      <trkpt lat="44.44687" lon="5.78263">
        <ele>786</ele>
        <time>2019-03-29T14:45:18Z</time>
      </trkpt>
      <trkpt lat="44.4468" lon="5.78269">
        <ele>785</ele>
        <time>2019-03-29T14:45:19Z</time>
      </trkpt>
      <trkpt lat="44.44674" lon="5.78276">
        <ele>785</ele>
        <time>2019-03-29T14:45:20Z</time>
      </trkpt>
      <trkpt lat="44.44667" lon="5.78281">
        <ele>785</ele>
        <time>2019-03-29T14:45:21Z</time>
      </trkpt>
      <trkpt lat="44.44661" lon="5.78287">
        <ele>785</ele>
        <time>2019-03-29T14:45:22Z</time>
      </trkpt>
      <trkpt lat="44.44655" lon="5.78293">
        <ele>785</ele>
        <time>2019-03-29T14:45:23Z</time>
      </trkpt>
      <trkpt lat="44.4465" lon="5.78298">
        <ele>785</ele>
        <time>2019-03-29T14:45:24Z</time>
      </trkpt>
      <trkpt lat="44.44644" lon="5.78303">
        <ele>785</ele>
        <time>2019-03-29T14:45:25Z</time>
      </trkpt>
      <trkpt lat="44.44639" lon="5.78308">
        <ele>785</ele>
        <time>2019-03-29T14:45:26Z</time>
      </trkpt>
      <trkpt lat="44.44634" lon="5.78314">
        <ele>785</ele>
        <time>2019-03-29T14:45:27Z</time>
      </trkpt>
      <trkpt lat="44.44628" lon="5.78319">
        <ele>784</ele>
        <time>2019-03-29T14:45:28Z</time>
      </trkpt>
      <trkpt lat="44.44622" lon="5.78324">
        <ele>784</ele>
        <time>2019-03-29T14:45:29Z</time>
      </trkpt>
      <trkpt lat="44.44616" lon="5.78328">
        <ele>784</ele>
        <time>2019-03-29T14:45:30Z</time>
      </trkpt>
      <trkpt lat="44.44609" lon="5.78332">
        <ele>784</ele>
        <time>2019-03-29T14:45:31Z</time>
      </trkpt>
      <trkpt lat="44.44602" lon="5.78334">
        <ele>783</ele>
        <time>2019-03-29T14:45:32Z</time>
      </trkpt>
      <trkpt lat="44.44594" lon="5.78334">
        <ele>783</ele>
        <time>2019-03-29T14:45:33Z</time>
      </trkpt>
      <trkpt lat="44.44586" lon="5.78331">
        <ele>783</ele>
        <time>2019-03-29T14:45:34Z</time>
      </trkpt>
      <trkpt lat="44.44578" lon="5.78327">
        <ele>782</ele>
        <time>2019-03-29T14:45:35Z</time>
      </trkpt>
      <trkpt lat="44.44571" lon="5.78321">
        <ele>782</ele>
        <time>2019-03-29T14:45:36Z</time>
      </trkpt>
      <trkpt lat="44.44565" lon="5.78316">
        <ele>782</ele>
        <time>2019-03-29T14:45:37Z</time>
      </trkpt>
      <trkpt lat="44.44558" lon="5.78311">
        <ele>782</ele>
        <time>2019-03-29T14:45:38Z</time>
      </trkpt>
      <trkpt lat="44.44552" lon="5.78307">
        <ele>782</ele>
        <time>2019-03-29T14:45:39Z</time>
      </trkpt>
      <trkpt lat="44.44546" lon="5.78305">
        <ele>782</ele>
        <time>2019-03-29T14:45:40Z</time>
      </trkpt>
      <trkpt lat="44.4454" lon="5.78305">
        <ele>782</ele>
        <time>2019-03-29T14:45:41Z</time>
      </trkpt>
      <trkpt lat="44.44534" lon="5.78307">
        <ele>782</ele>
        <time>2019-03-29T14:45:42Z</time>
      </trkpt>
      <trkpt lat="44.44529" lon="5.7831">
        <ele>782</ele>
        <time>2019-03-29T14:45:43Z</time>
      </trkpt>
      <trkpt lat="44.44525" lon="5.78314">
        <ele>782</ele>
        <time>2019-03-29T14:45:44Z</time>
      </trkpt>
      <trkpt lat="44.44522" lon="5.78319">
        <ele>782</ele>
        <time>2019-03-29T14:45:45Z</time>
      </trkpt>
      <trkpt lat="44.44519" lon="5.78323">
        <ele>782</ele>
        <time>2019-03-29T14:45:46Z</time>
      </trkpt>
      <trkpt lat="44.44516" lon="5.78328">
        <ele>782</ele>
        <time>2019-03-29T14:45:47Z</time>
      </trkpt>
      <trkpt lat="44.44513" lon="5.78333">
        <ele>782</ele>
        <time>2019-03-29T14:45:48Z</time>
      </trkpt>
      <trkpt lat="44.44511" lon="5.78337">
        <ele>782</ele>
        <time>2019-03-29T14:45:49Z</time>
      </trkpt>
      <trkpt lat="44.44508" lon="5.78342">
        <ele>782</ele>
        <time>2019-03-29T14:45:50Z</time>
      </trkpt>
      <trkpt lat="44.44505" lon="5.78348">
        <ele>782</ele>
        <time>2019-03-29T14:45:51Z</time>
      </trkpt>
      <trkpt lat="44.44503" lon="5.78353">
        <ele>782</ele>
        <time>2019-03-29T14:45:52Z</time>
      </trkpt>
      <trkpt lat="44.44501" lon="5.78358">
        <ele>782</ele>
        <time>2019-03-29T14:45:53Z</time>
      </trkpt>
      <trkpt lat="44.44499" lon="5.78363">
        <ele>782</ele>
        <time>2019-03-29T14:45:54Z</time>
      </trkpt>
      <trkpt lat="44.44497" lon="5.78369">
        <ele>782</ele>
        <time>2019-03-29T14:45:55Z</time>
      </trkpt>
      <trkpt lat="44.44495" lon="5.78374">
        <ele>782</ele>
        <time>2019-03-29T14:45:56Z</time>
      </trkpt>
      <trkpt lat="44.44492" lon="5.7838">
        <ele>782</ele>
        <time>2019-03-29T14:45:57Z</time>
      </trkpt>
      <trkpt lat="44.4449" lon="5.78385">
        <ele>783</ele>
        <time>2019-03-29T14:45:58Z</time>
      </trkpt>
      <trkpt lat="44.44488" lon="5.78391">
        <ele>783</ele>
        <time>2019-03-29T14:45:59Z</time>
      </trkpt>
      <trkpt lat="44.44486" lon="5.78396">
        <ele>783</ele>
        <time>2019-03-29T14:46:00Z</time>
      </trkpt>
      <trkpt lat="44.44484" lon="5.78401">
        <ele>783</ele>
        <time>2019-03-29T14:46:01Z</time>
      </trkpt>
      <trkpt lat="44.44482" lon="5.78407">
        <ele>784</ele>
        <time>2019-03-29T14:46:02Z</time>
      </trkpt>
      <trkpt lat="44.4448" lon="5.78412">
        <ele>784</ele>
        <time>2019-03-29T14:46:03Z</time>
      </trkpt>
      <trkpt lat="44.44477" lon="5.78417">
        <ele>784</ele>
        <time>2019-03-29T14:46:04Z</time>
      </trkpt>
      <trkpt lat="44.44475" lon="5.78422">
        <ele>784</ele>
        <time>2019-03-29T14:46:05Z</time>
      </trkpt>
      <trkpt lat="44.44473" lon="5.78428">
        <ele>785</ele>
        <time>2019-03-29T14:46:06Z</time>
      </trkpt>
      <trkpt lat="44.44471" lon="5.78433">
        <ele>785</ele>
        <time>2019-03-29T14:46:07Z</time>
      </trkpt>
      <trkpt lat="44.44469" lon="5.78438">
        <ele>785</ele>
        <time>2019-03-29T14:46:08Z</time>
      </trkpt>
      <trkpt lat="44.44468" lon="5.78443">
        <ele>785</ele>
        <time>2019-03-29T14:46:09Z</time>
      </trkpt>
      <trkpt lat="44.44466" lon="5.78448">
        <ele>785</ele>
        <time>2019-03-29T14:46:10Z</time>
      </trkpt>
      <trkpt lat="44.44463" lon="5.78453">
        <ele>785</ele>
        <time>2019-03-29T14:46:11Z</time>
      </trkpt>
      <trkpt lat="44.44461" lon="5.78457">
        <ele>785</ele>
        <time>2019-03-29T14:46:12Z</time>
      </trkpt>
      <trkpt lat="44.44459" lon="5.78462">
        <ele>785</ele>
        <time>2019-03-29T14:46:13Z</time>
      </trkpt>
      <trkpt lat="44.44457" lon="5.78467">
        <ele>785</ele>
        <time>2019-03-29T14:46:14Z</time>
      </trkpt>
      <trkpt lat="44.44455" lon="5.78471">
        <ele>785</ele>
        <time>2019-03-29T14:46:15Z</time>
      </trkpt>
      <trkpt lat="44.44454" lon="5.78475">
        <ele>785</ele>
        <time>2019-03-29T14:46:16Z</time>
      </trkpt>
      <trkpt lat="44.44452" lon="5.7848">
        <ele>785</ele>
        <time>2019-03-29T14:46:17Z</time>
      </trkpt>
      <trkpt lat="44.44451" lon="5.78484">
        <ele>785</ele>
        <time>2019-03-29T14:46:18Z</time>
      </trkpt>
      <trkpt lat="44.4445" lon="5.78489">
        <ele>785</ele>
        <time>2019-03-29T14:46:19Z</time>
      </trkpt>
      <trkpt lat="44.44448" lon="5.78493">
        <ele>785</ele>
        <time>2019-03-29T14:46:20Z</time>
      </trkpt>
      <trkpt lat="44.44447" lon="5.78497">
        <ele>785</ele>
        <time>2019-03-29T14:46:21Z</time>
      </trkpt>
      <trkpt lat="44.44445" lon="5.78501">
        <ele>785</ele>
        <time>2019-03-29T14:46:22Z</time>
      </trkpt>
      <trkpt lat="44.44443" lon="5.78504">
        <ele>785</ele>
        <time>2019-03-29T14:46:23Z</time>
      </trkpt>
      <trkpt lat="44.44441" lon="5.78508">
        <ele>785</ele>
        <time>2019-03-29T14:46:24Z</time>
      </trkpt>
      <trkpt lat="44.4444" lon="5.78512">
        <ele>785</ele>
        <time>2019-03-29T14:46:25Z</time>
      </trkpt>
      <trkpt lat="44.44438" lon="5.78515">
        <ele>785</ele>
        <time>2019-03-29T14:46:26Z</time>
      </trkpt>
      <trkpt lat="44.44437" lon="5.78519">
        <ele>785</ele>
        <time>2019-03-29T14:46:27Z</time>
      </trkpt>
      <trkpt lat="44.44435" lon="5.78523">
        <ele>785</ele>
        <time>2019-03-29T14:46:28Z</time>
      </trkpt>
      <trkpt lat="44.44434" lon="5.78527">
        <ele>785</ele>
        <time>2019-03-29T14:46:29Z</time>
      </trkpt>
      <trkpt lat="44.44433" lon="5.78532">
        <ele>785</ele>
        <time>2019-03-29T14:46:30Z</time>
      </trkpt>
      <trkpt lat="44.44432" lon="5.78536">
        <ele>785</ele>
        <time>2019-03-29T14:46:31Z</time>
      </trkpt>
      <trkpt lat="44.44431" lon="5.78541">
        <ele>786</ele>
        <time>2019-03-29T14:46:32Z</time>
      </trkpt>
      <trkpt lat="44.44429" lon="5.78545">
        <ele>786</ele>
        <time>2019-03-29T14:46:33Z</time>
      </trkpt>
      <trkpt lat="44.44429" lon="5.7855">
        <ele>786</ele>
        <time>2019-03-29T14:46:34Z</time>
      </trkpt>
      <trkpt lat="44.44429" lon="5.78554">
        <ele>787</ele>
        <time>2019-03-29T14:46:35Z</time>
      </trkpt>
      <trkpt lat="44.44429" lon="5.78559">
        <ele>787</ele>
        <time>2019-03-29T14:46:36Z</time>
      </trkpt>
      <trkpt lat="44.44428" lon="5.78563">
        <ele>787</ele>
        <time>2019-03-29T14:46:37Z</time>
      </trkpt>
      <trkpt lat="44.44428" lon="5.78568">
        <ele>788</ele>
        <time>2019-03-29T14:46:38Z</time>
      </trkpt>
      <trkpt lat="44.44427" lon="5.78572">
        <ele>788</ele>
        <time>2019-03-29T14:46:39Z</time>
      </trkpt>
      <trkpt lat="44.44427" lon="5.78576">
        <ele>788</ele>
        <time>2019-03-29T14:46:40Z</time>
      </trkpt>
      <trkpt lat="44.44426" lon="5.78581">
        <ele>788</ele>
        <time>2019-03-29T14:46:41Z</time>
      </trkpt>
      <trkpt lat="44.44426" lon="5.78585">
        <ele>789</ele>
        <time>2019-03-29T14:46:42Z</time>
      </trkpt>
      <trkpt lat="44.44426" lon="5.78589">
        <ele>789</ele>
        <time>2019-03-29T14:46:43Z</time>
      </trkpt>
      <trkpt lat="44.44425" lon="5.78592">
        <ele>789</ele>
        <time>2019-03-29T14:46:44Z</time>
      </trkpt>
      <trkpt lat="44.44424" lon="5.78596">
        <ele>789</ele>
        <time>2019-03-29T14:46:45Z</time>
      </trkpt>
      <trkpt lat="44.44424" lon="5.786">
        <ele>790</ele>
        <time>2019-03-29T14:46:46Z</time>
      </trkpt>
      <trkpt lat="44.44423" lon="5.78604">
        <ele>790</ele>
        <time>2019-03-29T14:46:47Z</time>
      </trkpt>
      <trkpt lat="44.44422" lon="5.78608">
        <ele>790</ele>
        <time>2019-03-29T14:46:48Z</time>
      </trkpt>
      <trkpt lat="44.44422" lon="5.78612">
        <ele>790</ele>
        <time>2019-03-29T14:46:49Z</time>
      </trkpt>
      <trkpt lat="44.44421" lon="5.78616">
        <ele>791</ele>
        <time>2019-03-29T14:46:50Z</time>
      </trkpt>
      <trkpt lat="44.4442" lon="5.7862">
        <ele>791</ele>
        <time>2019-03-29T14:46:51Z</time>
      </trkpt>
      <trkpt lat="44.44418" lon="5.78624">
        <ele>791</ele>
        <time>2019-03-29T14:46:52Z</time>
      </trkpt>
      <trkpt lat="44.44417" lon="5.78627">
        <ele>791</ele>
        <time>2019-03-29T14:46:53Z</time>
      </trkpt>
      <trkpt lat="44.44416" lon="5.78631">
        <ele>792</ele>
        <time>2019-03-29T14:46:54Z</time>
      </trkpt>
      <trkpt lat="44.44415" lon="5.78634">
        <ele>792</ele>
        <time>2019-03-29T14:46:55Z</time>
      </trkpt>
      <trkpt lat="44.44413" lon="5.78637">
        <ele>792</ele>
        <time>2019-03-29T14:46:56Z</time>
      </trkpt>
      <trkpt lat="44.44412" lon="5.78641">
        <ele>792</ele>
        <time>2019-03-29T14:46:57Z</time>
      </trkpt>
      <trkpt lat="44.44411" lon="5.78644">
        <ele>793</ele>
        <time>2019-03-29T14:46:58Z</time>
      </trkpt>
      <trkpt lat="44.44409" lon="5.78648">
        <ele>793</ele>
        <time>2019-03-29T14:46:59Z</time>
      </trkpt>
      <trkpt lat="44.44408" lon="5.78651">
        <ele>793</ele>
        <time>2019-03-29T14:47:00Z</time>
      </trkpt>
      <trkpt lat="44.44407" lon="5.78654">
        <ele>793</ele>
        <time>2019-03-29T14:47:01Z</time>
      </trkpt>
      <trkpt lat="44.44405" lon="5.78658">
        <ele>793</ele>
        <time>2019-03-29T14:47:02Z</time>
      </trkpt>
      <trkpt lat="44.44404" lon="5.78661">
        <ele>793</ele>
        <time>2019-03-29T14:47:03Z</time>
      </trkpt>
      <trkpt lat="44.44403" lon="5.78664">
        <ele>793</ele>
        <time>2019-03-29T14:47:04Z</time>
      </trkpt>
      <trkpt lat="44.44402" lon="5.78668">
        <ele>793</ele>
        <time>2019-03-29T14:47:05Z</time>
      </trkpt>
      <trkpt lat="44.44401" lon="5.78671">
        <ele>793</ele>
        <time>2019-03-29T14:47:06Z</time>
      </trkpt>
      <trkpt lat="44.444" lon="5.78675">
        <ele>794</ele>
        <time>2019-03-29T14:47:07Z</time>
      </trkpt>
      <trkpt lat="44.444" lon="5.78678">
        <ele>794</ele>
        <time>2019-03-29T14:47:08Z</time>
      </trkpt>
      <trkpt lat="44.44399" lon="5.78681">
        <ele>794</ele>
        <time>2019-03-29T14:47:09Z</time>
      </trkpt>
      <trkpt lat="44.44398" lon="5.78684">
        <ele>794</ele>
        <time>2019-03-29T14:47:10Z</time>
      </trkpt>
      <trkpt lat="44.44398" lon="5.78687">
        <ele>794</ele>
        <time>2019-03-29T14:47:11Z</time>
      </trkpt>
      <trkpt lat="44.44397" lon="5.7869">
        <ele>794</ele>
        <time>2019-03-29T14:47:12Z</time>
      </trkpt>
      <trkpt lat="44.44397" lon="5.78692">
        <ele>795</ele>
        <time>2019-03-29T14:47:13Z</time>
      </trkpt>
      <trkpt lat="44.44396" lon="5.78695">
        <ele>795</ele>
        <time>2019-03-29T14:47:14Z</time>
      </trkpt>
      <trkpt lat="44.44395" lon="5.78698">
        <ele>795</ele>
        <time>2019-03-29T14:47:15Z</time>
      </trkpt>
      <trkpt lat="44.44395" lon="5.78701">
        <ele>795</ele>
        <time>2019-03-29T14:47:16Z</time>
      </trkpt>
      <trkpt lat="44.44394" lon="5.78704">
        <ele>796</ele>
        <time>2019-03-29T14:47:17Z</time>
      </trkpt>
      <trkpt lat="44.44393" lon="5.78707">
        <ele>796</ele>
        <time>2019-03-29T14:47:18Z</time>
      </trkpt>
      <trkpt lat="44.44393" lon="5.7871">
        <ele>796</ele>
        <time>2019-03-29T14:47:19Z</time>
      </trkpt>
      <trkpt lat="44.44392" lon="5.78713">
        <ele>796</ele>
        <time>2019-03-29T14:47:20Z</time>
      </trkpt>
      <trkpt lat="44.44392" lon="5.78716">
        <ele>797</ele>
        <time>2019-03-29T14:47:21Z</time>
      </trkpt>
      <trkpt lat="44.44391" lon="5.78719">
        <ele>797</ele>
        <time>2019-03-29T14:47:22Z</time>
      </trkpt>
      <trkpt lat="44.4439" lon="5.78722">
        <ele>797</ele>
        <time>2019-03-29T14:47:23Z</time>
      </trkpt>
      <trkpt lat="44.4439" lon="5.78724">
        <ele>797</ele>
        <time>2019-03-29T14:47:24Z</time>
      </trkpt>
      <trkpt lat="44.4439" lon="5.78727">
        <ele>797</ele>
        <time>2019-03-29T14:47:25Z</time>
      </trkpt>
      <trkpt lat="44.44389" lon="5.7873">
        <ele>798</ele>
        <time>2019-03-29T14:47:26Z</time>
      </trkpt>
      <trkpt lat="44.44389" lon="5.78733">
        <ele>798</ele>
        <time>2019-03-29T14:47:27Z</time>
      </trkpt>
      <trkpt lat="44.44388" lon="5.78736">
        <ele>798</ele>
        <time>2019-03-29T14:47:28Z</time>
      </trkpt>
      <trkpt lat="44.44388" lon="5.78739">
        <ele>798</ele>
        <time>2019-03-29T14:47:29Z</time>
      </trkpt>
      <trkpt lat="44.44387" lon="5.78742">
        <ele>799</ele>
        <time>2019-03-29T14:47:30Z</time>
      </trkpt>
      <trkpt lat="44.44387" lon="5.78745">
        <ele>799</ele>
        <time>2019-03-29T14:47:31Z</time>
      </trkpt>
      <trkpt lat="44.44387" lon="5.78747">
        <ele>799</ele>
        <time>2019-03-29T14:47:32Z</time>
      </trkpt>
      <trkpt lat="44.44386" lon="5.7875">
        <ele>799</ele>
        <time>2019-03-29T14:47:33Z</time>
      </trkpt>
      <trkpt lat="44.44386" lon="5.78753">
        <ele>800</ele>
        <time>2019-03-29T14:47:34Z</time>
      </trkpt>
      <trkpt lat="44.44385" lon="5.78756">
        <ele>800</ele>
        <time>2019-03-29T14:47:35Z</time>
      </trkpt>
      <trkpt lat="44.44384" lon="5.78759">
        <ele>800</ele>
        <time>2019-03-29T14:47:36Z</time>
      </trkpt>
      <trkpt lat="44.44384" lon="5.78763">
        <ele>800</ele>
        <time>2019-03-29T14:47:37Z</time>
      </trkpt>
      <trkpt lat="44.44383" lon="5.78766">
        <ele>801</ele>
        <time>2019-03-29T14:47:38Z</time>
      </trkpt>
      <trkpt lat="44.44383" lon="5.78769">
        <ele>801</ele>
        <time>2019-03-29T14:47:39Z</time>
      </trkpt>
      <trkpt lat="44.44383" lon="5.78772">
        <ele>801</ele>
        <time>2019-03-29T14:47:40Z</time>
      </trkpt>
      <trkpt lat="44.44382" lon="5.78776">
        <ele>801</ele>
        <time>2019-03-29T14:47:41Z</time>
      </trkpt>
      <trkpt lat="44.44382" lon="5.7878">
        <ele>801</ele>
        <time>2019-03-29T14:47:42Z</time>
      </trkpt>
      <trkpt lat="44.44381" lon="5.78783">
        <ele>801</ele>
        <time>2019-03-29T14:47:43Z</time>
      </trkpt>
      <trkpt lat="44.44381" lon="5.78786">
        <ele>802</ele>
        <time>2019-03-29T14:47:44Z</time>
      </trkpt>
      <trkpt lat="44.4438" lon="5.7879">
        <ele>802</ele>
        <time>2019-03-29T14:47:45Z</time>
      </trkpt>
      <trkpt lat="44.4438" lon="5.78793">
        <ele>802</ele>
        <time>2019-03-29T14:47:46Z</time>
      </trkpt>
      <trkpt lat="44.44379" lon="5.78796">
        <ele>802</ele>
        <time>2019-03-29T14:47:47Z</time>
      </trkpt>
      <trkpt lat="44.44379" lon="5.78799">
        <ele>802</ele>
        <time>2019-03-29T14:47:48Z</time>
      </trkpt>
      <trkpt lat="44.44378" lon="5.78803">
        <ele>803</ele>
        <time>2019-03-29T14:47:49Z</time>
      </trkpt>
      <trkpt lat="44.44378" lon="5.78806">
        <ele>803</ele>
        <time>2019-03-29T14:47:50Z</time>
      </trkpt>
      <trkpt lat="44.44377" lon="5.78809">
        <ele>803</ele>
        <time>2019-03-29T14:47:51Z</time>
      </trkpt>
      <trkpt lat="44.44377" lon="5.78813">
        <ele>803</ele>
        <time>2019-03-29T14:47:52Z</time>
      </trkpt>
      <trkpt lat="44.44376" lon="5.78816">
        <ele>803</ele>
        <time>2019-03-29T14:47:53Z</time>
      </trkpt>
      <trkpt lat="44.44375" lon="5.78819">
        <ele>804</ele>
        <time>2019-03-29T14:47:54Z</time>
      </trkpt>
      <trkpt lat="44.44374" lon="5.78822">
        <ele>804</ele>
        <time>2019-03-29T14:47:55Z</time>
      </trkpt>
      <trkpt lat="44.44374" lon="5.78826">
        <ele>804</ele>
        <time>2019-03-29T14:47:56Z</time>
      </trkpt>
      <trkpt lat="44.44373" lon="5.78828">
        <ele>804</ele>
        <time>2019-03-29T14:47:57Z</time>
      </trkpt>
      <trkpt lat="44.44372" lon="5.78831">
        <ele>805</ele>
        <time>2019-03-29T14:47:58Z</time>
      </trkpt>
      <trkpt lat="44.44372" lon="5.78834">
        <ele>805</ele>
        <time>2019-03-29T14:47:59Z</time>
      </trkpt>
      <trkpt lat="44.44371" lon="5.78837">
        <ele>805</ele>
        <time>2019-03-29T14:48:00Z</time>
      </trkpt>
      <trkpt lat="44.44371" lon="5.7884">
        <ele>805</ele>
        <time>2019-03-29T14:48:01Z</time>
      </trkpt>
      <trkpt lat="44.4437" lon="5.78843">
        <ele>806</ele>
        <time>2019-03-29T14:48:02Z</time>
      </trkpt>
      <trkpt lat="44.44368" lon="5.78846">
        <ele>806</ele>
        <time>2019-03-29T14:48:03Z</time>
      </trkpt>
      <trkpt lat="44.44368" lon="5.78849">
        <ele>806</ele>
        <time>2019-03-29T14:48:04Z</time>
      </trkpt>
      <trkpt lat="44.44367" lon="5.78851">
        <ele>806</ele>
        <time>2019-03-29T14:48:05Z</time>
      </trkpt>
      <trkpt lat="44.44366" lon="5.78854">
        <ele>806</ele>
        <time>2019-03-29T14:48:06Z</time>
      </trkpt>
      <trkpt lat="44.44366" lon="5.78857">
        <ele>806</ele>
        <time>2019-03-29T14:48:07Z</time>
      </trkpt>
      <trkpt lat="44.44365" lon="5.78859">
        <ele>806</ele>
        <time>2019-03-29T14:48:08Z</time>
      </trkpt>
      <trkpt lat="44.44364" lon="5.78862">
        <ele>806</ele>
        <time>2019-03-29T14:48:09Z</time>
      </trkpt>
      <trkpt lat="44.44363" lon="5.78863">
        <ele>807</ele>
        <time>2019-03-29T14:48:10Z</time>
      </trkpt>
      <trkpt lat="44.44362" lon="5.78866">
        <ele>807</ele>
        <time>2019-03-29T14:48:11Z</time>
      </trkpt>
      <trkpt lat="44.4436" lon="5.78868">
        <ele>807</ele>
        <time>2019-03-29T14:48:12Z</time>
      </trkpt>
      <trkpt lat="44.44359" lon="5.7887">
        <ele>807</ele>
        <time>2019-03-29T14:48:13Z</time>
      </trkpt>
      <trkpt lat="44.44357" lon="5.78872">
        <ele>807</ele>
        <time>2019-03-29T14:48:14Z</time>
      </trkpt>
      <trkpt lat="44.44356" lon="5.78874">
        <ele>807</ele>
        <time>2019-03-29T14:48:15Z</time>
      </trkpt>
      <trkpt lat="44.44354" lon="5.78876">
        <ele>807</ele>
        <time>2019-03-29T14:48:16Z</time>
      </trkpt>
      <trkpt lat="44.44353" lon="5.78879">
        <ele>807</ele>
        <time>2019-03-29T14:48:17Z</time>
      </trkpt>
      <trkpt lat="44.44352" lon="5.78881">
        <ele>807</ele>
        <time>2019-03-29T14:48:18Z</time>
      </trkpt>
      <trkpt lat="44.4435" lon="5.78882">
        <ele>807</ele>
        <time>2019-03-29T14:48:19Z</time>
      </trkpt>
      <trkpt lat="44.44348" lon="5.78884">
        <ele>807</ele>
        <time>2019-03-29T14:48:20Z</time>
      </trkpt>
      <trkpt lat="44.44346" lon="5.78886">
        <ele>807</ele>
        <time>2019-03-29T14:48:21Z</time>
      </trkpt>
      <trkpt lat="44.44344" lon="5.78888">
        <ele>807</ele>
        <time>2019-03-29T14:48:22Z</time>
      </trkpt>
      <trkpt lat="44.44342" lon="5.7889">
        <ele>807</ele>
        <time>2019-03-29T14:48:23Z</time>
      </trkpt>
      <trkpt lat="44.44341" lon="5.78892">
        <ele>807</ele>
        <time>2019-03-29T14:48:24Z</time>
      </trkpt>
      <trkpt lat="44.44339" lon="5.78894">
        <ele>807</ele>
        <time>2019-03-29T14:48:25Z</time>
      </trkpt>
      <trkpt lat="44.44336" lon="5.78896">
        <ele>807</ele>
        <time>2019-03-29T14:48:26Z</time>
      </trkpt>
      <trkpt lat="44.44335" lon="5.78897">
        <ele>807</ele>
        <time>2019-03-29T14:48:27Z</time>
      </trkpt>
      <trkpt lat="44.44333" lon="5.78899">
        <ele>807</ele>
        <time>2019-03-29T14:48:28Z</time>
      </trkpt>
      <trkpt lat="44.44331" lon="5.789">
        <ele>808</ele>
        <time>2019-03-29T14:48:29Z</time>
      </trkpt>
      <trkpt lat="44.44329" lon="5.78902">
        <ele>808</ele>
        <time>2019-03-29T14:48:30Z</time>
      </trkpt>
      <trkpt lat="44.44326" lon="5.78903">
        <ele>808</ele>
        <time>2019-03-29T14:48:31Z</time>
      </trkpt>
      <trkpt lat="44.44324" lon="5.78905">
        <ele>809</ele>
        <time>2019-03-29T14:48:32Z</time>
      </trkpt>
      <trkpt lat="44.44323" lon="5.78906">
        <ele>809</ele>
        <time>2019-03-29T14:48:33Z</time>
      </trkpt>
      <trkpt lat="44.44321" lon="5.78908">
        <ele>809</ele>
        <time>2019-03-29T14:48:34Z</time>
      </trkpt>
      <trkpt lat="44.44319" lon="5.78909">
        <ele>810</ele>
        <time>2019-03-29T14:48:35Z</time>
      </trkpt>
      <trkpt lat="44.44317" lon="5.7891">
        <ele>810</ele>
        <time>2019-03-29T14:48:36Z</time>
      </trkpt>
      <trkpt lat="44.44315" lon="5.78911">
        <ele>810</ele>
        <time>2019-03-29T14:48:37Z</time>
      </trkpt>
      <trkpt lat="44.44313" lon="5.78913">
        <ele>810</ele>
        <time>2019-03-29T14:48:38Z</time>
      </trkpt>
      <trkpt lat="44.44311" lon="5.78914">
        <ele>811</ele>
        <time>2019-03-29T14:48:39Z</time>
      </trkpt>
      <trkpt lat="44.44309" lon="5.78915">
        <ele>811</ele>
        <time>2019-03-29T14:48:40Z</time>
      </trkpt>
      <trkpt lat="44.44307" lon="5.78917">
        <ele>811</ele>
        <time>2019-03-29T14:48:41Z</time>
      </trkpt>
      <trkpt lat="44.44305" lon="5.78918">
        <ele>811</ele>
        <time>2019-03-29T14:48:42Z</time>
      </trkpt>
      <trkpt lat="44.44303" lon="5.78919">
        <ele>811</ele>
        <time>2019-03-29T14:48:43Z</time>
      </trkpt>
      <trkpt lat="44.443" lon="5.7892">
        <ele>811</ele>
        <time>2019-03-29T14:48:44Z</time>
      </trkpt>
      <trkpt lat="44.44298" lon="5.78922">
        <ele>811</ele>
        <time>2019-03-29T14:48:45Z</time>
      </trkpt>
      <trkpt lat="44.44296" lon="5.78923">
        <ele>812</ele>
        <time>2019-03-29T14:48:46Z</time>
      </trkpt>
      <trkpt lat="44.44294" lon="5.78925">
        <ele>812</ele>
        <time>2019-03-29T14:48:47Z</time>
      </trkpt>
      <trkpt lat="44.44292" lon="5.78926">
        <ele>812</ele>
        <time>2019-03-29T14:48:48Z</time>
      </trkpt>
      <trkpt lat="44.4429" lon="5.78928">
        <ele>812</ele>
        <time>2019-03-29T14:48:49Z</time>
      </trkpt>
      <trkpt lat="44.44288" lon="5.78929">
        <ele>812</ele>
        <time>2019-03-29T14:48:50Z</time>
      </trkpt>
      <trkpt lat="44.44286" lon="5.7893">
        <ele>812</ele>
        <time>2019-03-29T14:48:51Z</time>
      </trkpt>
      <trkpt lat="44.44284" lon="5.78932">
        <ele>812</ele>
        <time>2019-03-29T14:48:52Z</time>
      </trkpt>
      <trkpt lat="44.44282" lon="5.78933">
        <ele>813</ele>
        <time>2019-03-29T14:48:53Z</time>
      </trkpt>
      <trkpt lat="44.4428" lon="5.78934">
        <ele>813</ele>
        <time>2019-03-29T14:48:54Z</time>
      </trkpt>
      <trkpt lat="44.44278" lon="5.78936">
        <ele>813</ele>
        <time>2019-03-29T14:48:55Z</time>
      </trkpt>
      <trkpt lat="44.44275" lon="5.78937">
        <ele>813</ele>
        <time>2019-03-29T14:48:56Z</time>
      </trkpt>
      <trkpt lat="44.44273" lon="5.78939">
        <ele>813</ele>
        <time>2019-03-29T14:48:57Z</time>
      </trkpt>
      <trkpt lat="44.44271" lon="5.7894">
        <ele>813</ele>
        <time>2019-03-29T14:48:58Z</time>
      </trkpt>
      <trkpt lat="44.44269" lon="5.78942">
        <ele>813</ele>
        <time>2019-03-29T14:48:59Z</time>
      </trkpt>
      <trkpt lat="44.44267" lon="5.78943">
        <ele>813</ele>
        <time>2019-03-29T14:49:00Z</time>
      </trkpt>
      <trkpt lat="44.44264" lon="5.78945">
        <ele>813</ele>
        <time>2019-03-29T14:49:01Z</time>
      </trkpt>
      <trkpt lat="44.44262" lon="5.78946">
        <ele>813</ele>
        <time>2019-03-29T14:49:02Z</time>
      </trkpt>
      <trkpt lat="44.44259" lon="5.78948">
        <ele>813</ele>
        <time>2019-03-29T14:49:03Z</time>
      </trkpt>
      <trkpt lat="44.44257" lon="5.78949">
        <ele>814</ele>
        <time>2019-03-29T14:49:04Z</time>
      </trkpt>
      <trkpt lat="44.44255" lon="5.7895">
        <ele>814</ele>
        <time>2019-03-29T14:49:05Z</time>
      </trkpt>
      <trkpt lat="44.44252" lon="5.78952">
        <ele>814</ele>
        <time>2019-03-29T14:49:06Z</time>
      </trkpt>
      <trkpt lat="44.4425" lon="5.78953">
        <ele>814</ele>
        <time>2019-03-29T14:49:07Z</time>
      </trkpt>
      <trkpt lat="44.44247" lon="5.78954">
        <ele>814</ele>
        <time>2019-03-29T14:49:08Z</time>
      </trkpt>
      <trkpt lat="44.44245" lon="5.78956">
        <ele>814</ele>
        <time>2019-03-29T14:49:09Z</time>
      </trkpt>
      <trkpt lat="44.44242" lon="5.78957">
        <ele>814</ele>
        <time>2019-03-29T14:49:10Z</time>
      </trkpt>
      <trkpt lat="44.4424" lon="5.78958">
        <ele>815</ele>
        <time>2019-03-29T14:49:11Z</time>
      </trkpt>
      <trkpt lat="44.44237" lon="5.78958">
        <ele>815</ele>
        <time>2019-03-29T14:49:12Z</time>
      </trkpt>
      <trkpt lat="44.44235" lon="5.78959">
        <ele>815</ele>
        <time>2019-03-29T14:49:13Z</time>
      </trkpt>
      <trkpt lat="44.44232" lon="5.7896">
        <ele>815</ele>
        <time>2019-03-29T14:49:14Z</time>
      </trkpt>
      <trkpt lat="44.4423" lon="5.78961">
        <ele>815</ele>
        <time>2019-03-29T14:49:15Z</time>
      </trkpt>
      <trkpt lat="44.44227" lon="5.78962">
        <ele>815</ele>
        <time>2019-03-29T14:49:16Z</time>
      </trkpt>
      <trkpt lat="44.44225" lon="5.78962">
        <ele>815</ele>
        <time>2019-03-29T14:49:17Z</time>
      </trkpt>
      <trkpt lat="44.44222" lon="5.78963">
        <ele>816</ele>
        <time>2019-03-29T14:49:18Z</time>
      </trkpt>
      <trkpt lat="44.4422" lon="5.78965">
        <ele>816</ele>
        <time>2019-03-29T14:49:19Z</time>
      </trkpt>
      <trkpt lat="44.44217" lon="5.78966">
        <ele>816</ele>
        <time>2019-03-29T14:49:20Z</time>
      </trkpt>
      <trkpt lat="44.44215" lon="5.78967">
        <ele>816</ele>
        <time>2019-03-29T14:49:21Z</time>
      </trkpt>
      <trkpt lat="44.44212" lon="5.78968">
        <ele>816</ele>
        <time>2019-03-29T14:49:22Z</time>
      </trkpt>
      <trkpt lat="44.4421" lon="5.78969">
        <ele>817</ele>
        <time>2019-03-29T14:49:23Z</time>
      </trkpt>
      <trkpt lat="44.44208" lon="5.78971">
        <ele>817</ele>
        <time>2019-03-29T14:49:24Z</time>
      </trkpt>
      <trkpt lat="44.44205" lon="5.78973">
        <ele>817</ele>
        <time>2019-03-29T14:49:25Z</time>
      </trkpt>
      <trkpt lat="44.44203" lon="5.78975">
        <ele>817</ele>
        <time>2019-03-29T14:49:26Z</time>
      </trkpt>
      <trkpt lat="44.44201" lon="5.78977">
        <ele>818</ele>
        <time>2019-03-29T14:49:27Z</time>
      </trkpt>
      <trkpt lat="44.44199" lon="5.78979">
        <ele>818</ele>
        <time>2019-03-29T14:49:28Z</time>
      </trkpt>
      <trkpt lat="44.44197" lon="5.78982">
        <ele>818</ele>
        <time>2019-03-29T14:49:29Z</time>
      </trkpt>
      <trkpt lat="44.44195" lon="5.78984">
        <ele>818</ele>
        <time>2019-03-29T14:49:30Z</time>
      </trkpt>
      <trkpt lat="44.44193" lon="5.78986">
        <ele>818</ele>
        <time>2019-03-29T14:49:31Z</time>
      </trkpt>
      <trkpt lat="44.44191" lon="5.78989">
        <ele>818</ele>
        <time>2019-03-29T14:49:32Z</time>
      </trkpt>
      <trkpt lat="44.44189" lon="5.78991">
        <ele>818</ele>
        <time>2019-03-29T14:49:33Z</time>
      </trkpt>
      <trkpt lat="44.44188" lon="5.78994">
        <ele>818</ele>
        <time>2019-03-29T14:49:34Z</time>
      </trkpt>
      <trkpt lat="44.44186" lon="5.78997">
        <ele>818</ele>
        <time>2019-03-29T14:49:35Z</time>
      </trkpt>
      <trkpt lat="44.44185" lon="5.79001">
        <ele>818</ele>
        <time>2019-03-29T14:49:36Z</time>
      </trkpt>
      <trkpt lat="44.44183" lon="5.79004">
        <ele>819</ele>
        <time>2019-03-29T14:49:37Z</time>
      </trkpt>
      <trkpt lat="44.44181" lon="5.79007">
        <ele>819</ele>
        <time>2019-03-29T14:49:38Z</time>
      </trkpt>
      <trkpt lat="44.4418" lon="5.7901">
        <ele>819</ele>
        <time>2019-03-29T14:49:39Z</time>
      </trkpt>
      <trkpt lat="44.44178" lon="5.79014">
        <ele>819</ele>
        <time>2019-03-29T14:49:40Z</time>
      </trkpt>
      <trkpt lat="44.44177" lon="5.79017">
        <ele>819</ele>
        <time>2019-03-29T14:49:41Z</time>
      </trkpt>
      <trkpt lat="44.44175" lon="5.79021">
        <ele>819</ele>
        <time>2019-03-29T14:49:42Z</time>
      </trkpt>
      <trkpt lat="44.44174" lon="5.79025">
        <ele>819</ele>
        <time>2019-03-29T14:49:43Z</time>
      </trkpt>
      <trkpt lat="44.44172" lon="5.79029">
        <ele>819</ele>
        <time>2019-03-29T14:49:44Z</time>
      </trkpt>
      <trkpt lat="44.44171" lon="5.79033">
        <ele>819</ele>
        <time>2019-03-29T14:49:45Z</time>
      </trkpt>
      <trkpt lat="44.44169" lon="5.79037">
        <ele>819</ele>
        <time>2019-03-29T14:49:46Z</time>
      </trkpt>
      <trkpt lat="44.44168" lon="5.7904">
        <ele>820</ele>
        <time>2019-03-29T14:49:47Z</time>
      </trkpt>
      <trkpt lat="44.44166" lon="5.79044">
        <ele>820</ele>
        <time>2019-03-29T14:49:48Z</time>
      </trkpt>
      <trkpt lat="44.44164" lon="5.79048">
        <ele>820</ele>
        <time>2019-03-29T14:49:49Z</time>
      </trkpt>
      <trkpt lat="44.44162" lon="5.79052">
        <ele>820</ele>
        <time>2019-03-29T14:49:50Z</time>
      </trkpt>
      <trkpt lat="44.44161" lon="5.79056">
        <ele>821</ele>
        <time>2019-03-29T14:49:51Z</time>
      </trkpt>
      <trkpt lat="44.44159" lon="5.79059">
        <ele>821</ele>
        <time>2019-03-29T14:49:52Z</time>
      </trkpt>
      <trkpt lat="44.44158" lon="5.79063">
        <ele>821</ele>
        <time>2019-03-29T14:49:53Z</time>
      </trkpt>
      <trkpt lat="44.44156" lon="5.79067">
        <ele>821</ele>
        <time>2019-03-29T14:49:54Z</time>
      </trkpt>
      <trkpt lat="44.44154" lon="5.7907">
        <ele>822</ele>
        <time>2019-03-29T14:49:55Z</time>
      </trkpt>
      <trkpt lat="44.44152" lon="5.79074">
        <ele>822</ele>
        <time>2019-03-29T14:49:56Z</time>
      </trkpt>
      <trkpt lat="44.44151" lon="5.79078">
        <ele>822</ele>
        <time>2019-03-29T14:49:57Z</time>
      </trkpt>
      <trkpt lat="44.4415" lon="5.79081">
        <ele>822</ele>
        <time>2019-03-29T14:49:58Z</time>
      </trkpt>
      <trkpt lat="44.44149" lon="5.79085">
        <ele>822</ele>
        <time>2019-03-29T14:49:59Z</time>
      </trkpt>
      <trkpt lat="44.44147" lon="5.79089">
        <ele>822</ele>
        <time>2019-03-29T14:50:00Z</time>
      </trkpt>
      <trkpt lat="44.44145" lon="5.79093">
        <ele>822</ele>
        <time>2019-03-29T14:50:01Z</time>
      </trkpt>
      <trkpt lat="44.44144" lon="5.79096">
        <ele>822</ele>
        <time>2019-03-29T14:50:02Z</time>
      </trkpt>
      <trkpt lat="44.44142" lon="5.791">
        <ele>822</ele>
        <time>2019-03-29T14:50:03Z</time>
      </trkpt>
      <trkpt lat="44.44141" lon="5.79104">
        <ele>822</ele>
        <time>2019-03-29T14:50:04Z</time>
      </trkpt>
      <trkpt lat="44.44139" lon="5.79108">
        <ele>822</ele>
        <time>2019-03-29T14:50:05Z</time>
      </trkpt>
      <trkpt lat="44.44137" lon="5.79113">
        <ele>822</ele>
        <time>2019-03-29T14:50:06Z</time>
      </trkpt>
      <trkpt lat="44.44135" lon="5.79118">
        <ele>822</ele>
        <time>2019-03-29T14:50:07Z</time>
      </trkpt>
      <trkpt lat="44.44132" lon="5.79122">
        <ele>823</ele>
        <time>2019-03-29T14:50:08Z</time>
      </trkpt>
      <trkpt lat="44.4413" lon="5.79127">
        <ele>823</ele>
        <time>2019-03-29T14:50:09Z</time>
      </trkpt>
      <trkpt lat="44.44128" lon="5.79132">
        <ele>823</ele>
        <time>2019-03-29T14:50:10Z</time>
      </trkpt>
      <trkpt lat="44.44125" lon="5.79137">
        <ele>824</ele>
        <time>2019-03-29T14:50:11Z</time>
      </trkpt>
      <trkpt lat="44.44123" lon="5.79141">
        <ele>824</ele>
        <time>2019-03-29T14:50:12Z</time>
      </trkpt>
      <trkpt lat="44.4412" lon="5.79146">
        <ele>824</ele>
        <time>2019-03-29T14:50:13Z</time>
      </trkpt>
      <trkpt lat="44.44117" lon="5.79151">
        <ele>824</ele>
        <time>2019-03-29T14:50:14Z</time>
      </trkpt>
      <trkpt lat="44.44115" lon="5.79156">
        <ele>824</ele>
        <time>2019-03-29T14:50:15Z</time>
      </trkpt>
      <trkpt lat="44.44112" lon="5.79161">
        <ele>824</ele>
        <time>2019-03-29T14:50:16Z</time>
      </trkpt>
      <trkpt lat="44.44109" lon="5.79166">
        <ele>824</ele>
        <time>2019-03-29T14:50:17Z</time>
      </trkpt>
      <trkpt lat="44.44106" lon="5.79171">
        <ele>824</ele>
        <time>2019-03-29T14:50:18Z</time>
      </trkpt>
      <trkpt lat="44.44103" lon="5.79176">
        <ele>824</ele>
        <time>2019-03-29T14:50:19Z</time>
      </trkpt>
      <trkpt lat="44.441" lon="5.79181">
        <ele>824</ele>
        <time>2019-03-29T14:50:20Z</time>
      </trkpt>
      <trkpt lat="44.44097" lon="5.79186">
        <ele>824</ele>
        <time>2019-03-29T14:50:21Z</time>
      </trkpt>
      <trkpt lat="44.44094" lon="5.79191">
        <ele>824</ele>
        <time>2019-03-29T14:50:22Z</time>
      </trkpt>
      <trkpt lat="44.44091" lon="5.79197">
        <ele>824</ele>
        <time>2019-03-29T14:50:23Z</time>
      </trkpt>
      <trkpt lat="44.44088" lon="5.79202">
        <ele>824</ele>
        <time>2019-03-29T14:50:24Z</time>
      </trkpt>
      <trkpt lat="44.44085" lon="5.79207">
        <ele>824</ele>
        <time>2019-03-29T14:50:25Z</time>
      </trkpt>
      <trkpt lat="44.44083" lon="5.79212">
        <ele>824</ele>
        <time>2019-03-29T14:50:26Z</time>
      </trkpt>
      <trkpt lat="44.4408" lon="5.79216">
        <ele>824</ele>
        <time>2019-03-29T14:50:27Z</time>
      </trkpt>
      <trkpt lat="44.44078" lon="5.79221">
        <ele>824</ele>
        <time>2019-03-29T14:50:28Z</time>
      </trkpt>
      <trkpt lat="44.44075" lon="5.79225">
        <ele>824</ele>
        <time>2019-03-29T14:50:29Z</time>
      </trkpt>
      <trkpt lat="44.44072" lon="5.79229">
        <ele>825</ele>
        <time>2019-03-29T14:50:30Z</time>
      </trkpt>
      <trkpt lat="44.4407" lon="5.79233">
        <ele>825</ele>
        <time>2019-03-29T14:50:31Z</time>
      </trkpt>
      <trkpt lat="44.44067" lon="5.79236">
        <ele>825</ele>
        <time>2019-03-29T14:50:32Z</time>
      </trkpt>
      <trkpt lat="44.44063" lon="5.7924">
        <ele>825</ele>
        <time>2019-03-29T14:50:33Z</time>
      </trkpt>
      <trkpt lat="44.4406" lon="5.79243">
        <ele>825</ele>
        <time>2019-03-29T14:50:34Z</time>
      </trkpt>
      <trkpt lat="44.44057" lon="5.79246">
        <ele>825</ele>
        <time>2019-03-29T14:50:35Z</time>
      </trkpt>
      <trkpt lat="44.44053" lon="5.79249">
        <ele>826</ele>
        <time>2019-03-29T14:50:36Z</time>
      </trkpt>
      <trkpt lat="44.44049" lon="5.79251">
        <ele>826</ele>
        <time>2019-03-29T14:50:37Z</time>
      </trkpt>
      <trkpt lat="44.44046" lon="5.79254">
        <ele>826</ele>
        <time>2019-03-29T14:50:38Z</time>
      </trkpt>
      <trkpt lat="44.44042" lon="5.79256">
        <ele>826</ele>
        <time>2019-03-29T14:50:39Z</time>
      </trkpt>
      <trkpt lat="44.44038" lon="5.79259">
        <ele>826</ele>
        <time>2019-03-29T14:50:40Z</time>
      </trkpt>
      <trkpt lat="44.44035" lon="5.79262">
        <ele>826</ele>
        <time>2019-03-29T14:50:41Z</time>
      </trkpt>
      <trkpt lat="44.44031" lon="5.79264">
        <ele>826</ele>
        <time>2019-03-29T14:50:42Z</time>
      </trkpt>
      <trkpt lat="44.44028" lon="5.79267">
        <ele>826</ele>
        <time>2019-03-29T14:50:43Z</time>
      </trkpt>
      <trkpt lat="44.44024" lon="5.79269">
        <ele>826</ele>
        <time>2019-03-29T14:50:44Z</time>
      </trkpt>
      <trkpt lat="44.4402" lon="5.7927">
        <ele>827</ele>
        <time>2019-03-29T14:50:45Z</time>
      </trkpt>
      <trkpt lat="44.44017" lon="5.79272">
        <ele>827</ele>
        <time>2019-03-29T14:50:46Z</time>
      </trkpt>
      <trkpt lat="44.44014" lon="5.79274">
        <ele>828</ele>
        <time>2019-03-29T14:50:47Z</time>
      </trkpt>
      <trkpt lat="44.4401" lon="5.79275">
        <ele>828</ele>
        <time>2019-03-29T14:50:48Z</time>
      </trkpt>
      <trkpt lat="44.44007" lon="5.79277">
        <ele>828</ele>
        <time>2019-03-29T14:50:49Z</time>
      </trkpt>
      <trkpt lat="44.44004" lon="5.79278">
        <ele>828</ele>
        <time>2019-03-29T14:50:50Z</time>
      </trkpt>
      <trkpt lat="44.44" lon="5.7928">
        <ele>829</ele>
        <time>2019-03-29T14:50:51Z</time>
      </trkpt>
      <trkpt lat="44.43996" lon="5.79282">
        <ele>829</ele>
        <time>2019-03-29T14:50:52Z</time>
      </trkpt>
      <trkpt lat="44.43993" lon="5.79284">
        <ele>829</ele>
        <time>2019-03-29T14:50:53Z</time>
      </trkpt>
      <trkpt lat="44.43989" lon="5.79286">
        <ele>829</ele>
        <time>2019-03-29T14:50:54Z</time>
      </trkpt>
      <trkpt lat="44.43985" lon="5.79287">
        <ele>829</ele>
        <time>2019-03-29T14:50:55Z</time>
      </trkpt>
      <trkpt lat="44.4398" lon="5.79289">
        <ele>830</ele>
        <time>2019-03-29T14:50:56Z</time>
      </trkpt>
      <trkpt lat="44.43976" lon="5.7929">
        <ele>830</ele>
        <time>2019-03-29T14:50:57Z</time>
      </trkpt>
      <trkpt lat="44.43972" lon="5.79292">
        <ele>830</ele>
        <time>2019-03-29T14:50:58Z</time>
      </trkpt>
      <trkpt lat="44.43967" lon="5.79293">
        <ele>830</ele>
        <time>2019-03-29T14:50:59Z</time>
      </trkpt>
      <trkpt lat="44.43962" lon="5.79294">
        <ele>830</ele>
        <time>2019-03-29T14:51:00Z</time>
      </trkpt>
      <trkpt lat="44.43957" lon="5.79296">
        <ele>830</ele>
        <time>2019-03-29T14:51:01Z</time>
      </trkpt>
      <trkpt lat="44.43952" lon="5.79297">
        <ele>831</ele>
        <time>2019-03-29T14:51:02Z</time>
      </trkpt>
      <trkpt lat="44.43947" lon="5.79298">
        <ele>831</ele>
        <time>2019-03-29T14:51:03Z</time>
      </trkpt>
      <trkpt lat="44.43942" lon="5.79298">
        <ele>831</ele>
        <time>2019-03-29T14:51:04Z</time>
      </trkpt>
      <trkpt lat="44.43937" lon="5.79299">
        <ele>831</ele>
        <time>2019-03-29T14:51:05Z</time>
      </trkpt>
      <trkpt lat="44.43932" lon="5.79299">
        <ele>831</ele>
        <time>2019-03-29T14:51:06Z</time>
      </trkpt>
      <trkpt lat="44.43926" lon="5.793">
        <ele>831</ele>
        <time>2019-03-29T14:51:07Z</time>
      </trkpt>
      <trkpt lat="44.43921" lon="5.79301">
        <ele>831</ele>
        <time>2019-03-29T14:51:08Z</time>
      </trkpt>
      <trkpt lat="44.43915" lon="5.79301">
        <ele>831</ele>
        <time>2019-03-29T14:51:09Z</time>
      </trkpt>
      <trkpt lat="44.43909" lon="5.79302">
        <ele>831</ele>
        <time>2019-03-29T14:51:10Z</time>
      </trkpt>
      <trkpt lat="44.43903" lon="5.79303">
        <ele>831</ele>
        <time>2019-03-29T14:51:11Z</time>
      </trkpt>
      <trkpt lat="44.43898" lon="5.79305">
        <ele>831</ele>
        <time>2019-03-29T14:51:12Z</time>
      </trkpt>
      <trkpt lat="44.43892" lon="5.79306">
        <ele>831</ele>
        <time>2019-03-29T14:51:13Z</time>
      </trkpt>
      <trkpt lat="44.43886" lon="5.79308">
        <ele>831</ele>
        <time>2019-03-29T14:51:14Z</time>
      </trkpt>
      <trkpt lat="44.4388" lon="5.7931">
        <ele>831</ele>
        <time>2019-03-29T14:51:15Z</time>
      </trkpt>
      <trkpt lat="44.43874" lon="5.79313">
        <ele>831</ele>
        <time>2019-03-29T14:51:16Z</time>
      </trkpt>
      <trkpt lat="44.43868" lon="5.79315">
        <ele>831</ele>
        <time>2019-03-29T14:51:17Z</time>
      </trkpt>
      <trkpt lat="44.43863" lon="5.79318">
        <ele>831</ele>
        <time>2019-03-29T14:51:18Z</time>
      </trkpt>
      <trkpt lat="44.43857" lon="5.7932">
        <ele>831</ele>
        <time>2019-03-29T14:51:19Z</time>
      </trkpt>
      <trkpt lat="44.43851" lon="5.79322">
        <ele>831</ele>
        <time>2019-03-29T14:51:20Z</time>
      </trkpt>
      <trkpt lat="44.43845" lon="5.79324">
        <ele>831</ele>
        <time>2019-03-29T14:51:21Z</time>
      </trkpt>
      <trkpt lat="44.43839" lon="5.79326">
        <ele>831</ele>
        <time>2019-03-29T14:51:22Z</time>
      </trkpt>
      <trkpt lat="44.43833" lon="5.79328">
        <ele>832</ele>
        <time>2019-03-29T14:51:23Z</time>
      </trkpt>
      <trkpt lat="44.43827" lon="5.7933">
        <ele>832</ele>
        <time>2019-03-29T14:51:24Z</time>
      </trkpt>
      <trkpt lat="44.43822" lon="5.79333">
        <ele>832</ele>
        <time>2019-03-29T14:51:25Z</time>
      </trkpt>
      <trkpt lat="44.43816" lon="5.79336">
        <ele>832</ele>
        <time>2019-03-29T14:51:26Z</time>
      </trkpt>
      <trkpt lat="44.4381" lon="5.79339">
        <ele>832</ele>
        <time>2019-03-29T14:51:27Z</time>
      </trkpt>
      <trkpt lat="44.43805" lon="5.79342">
        <ele>832</ele>
        <time>2019-03-29T14:51:28Z</time>
      </trkpt>
      <trkpt lat="44.43799" lon="5.79345">
        <ele>832</ele>
        <time>2019-03-29T14:51:29Z</time>
      </trkpt>
      <trkpt lat="44.43793" lon="5.79348">
        <ele>832</ele>
        <time>2019-03-29T14:51:30Z</time>
      </trkpt>
      <trkpt lat="44.43787" lon="5.79351">
        <ele>832</ele>
        <time>2019-03-29T14:51:31Z</time>
      </trkpt>
      <trkpt lat="44.43782" lon="5.79353">
        <ele>833</ele>
        <time>2019-03-29T14:51:32Z</time>
      </trkpt>
      <trkpt lat="44.43776" lon="5.79356">
        <ele>833</ele>
        <time>2019-03-29T14:51:33Z</time>
      </trkpt>
      <trkpt lat="44.43771" lon="5.79359">
        <ele>833</ele>
        <time>2019-03-29T14:51:34Z</time>
      </trkpt>
      <trkpt lat="44.43766" lon="5.79362">
        <ele>833</ele>
        <time>2019-03-29T14:51:35Z</time>
      </trkpt>
      <trkpt lat="44.4376" lon="5.79365">
        <ele>833</ele>
        <time>2019-03-29T14:51:36Z</time>
      </trkpt>
      <trkpt lat="44.43755" lon="5.79368">
        <ele>833</ele>
        <time>2019-03-29T14:51:37Z</time>
      </trkpt>
      <trkpt lat="44.43749" lon="5.7937">
        <ele>834</ele>
        <time>2019-03-29T14:51:38Z</time>
      </trkpt>
      <trkpt lat="44.43744" lon="5.79373">
        <ele>834</ele>
        <time>2019-03-29T14:51:39Z</time>
      </trkpt>
      <trkpt lat="44.43738" lon="5.79376">
        <ele>834</ele>
        <time>2019-03-29T14:51:40Z</time>
      </trkpt>
      <trkpt lat="44.43733" lon="5.79378">
        <ele>834</ele>
        <time>2019-03-29T14:51:41Z</time>
      </trkpt>
      <trkpt lat="44.43728" lon="5.79381">
        <ele>834</ele>
        <time>2019-03-29T14:51:42Z</time>
      </trkpt>
      <trkpt lat="44.43723" lon="5.79384">
        <ele>834</ele>
        <time>2019-03-29T14:51:43Z</time>
      </trkpt>
      <trkpt lat="44.43718" lon="5.79386">
        <ele>835</ele>
        <time>2019-03-29T14:51:44Z</time>
      </trkpt>
      <trkpt lat="44.43713" lon="5.79388">
        <ele>835</ele>
        <time>2019-03-29T14:51:45Z</time>
      </trkpt>
      <trkpt lat="44.43708" lon="5.7939">
        <ele>835</ele>
        <time>2019-03-29T14:51:46Z</time>
      </trkpt>
      <trkpt lat="44.43702" lon="5.79391">
        <ele>835</ele>
        <time>2019-03-29T14:51:47Z</time>
      </trkpt>
      <trkpt lat="44.43697" lon="5.79393">
        <ele>835</ele>
        <time>2019-03-29T14:51:48Z</time>
      </trkpt>
      <trkpt lat="44.43691" lon="5.79395">
        <ele>835</ele>
        <time>2019-03-29T14:51:49Z</time>
      </trkpt>
      <trkpt lat="44.43685" lon="5.79397">
        <ele>835</ele>
        <time>2019-03-29T14:51:50Z</time>
      </trkpt>
      <trkpt lat="44.43679" lon="5.79398">
        <ele>835</ele>
        <time>2019-03-29T14:51:51Z</time>
      </trkpt>
      <trkpt lat="44.43673" lon="5.794">
        <ele>835</ele>
        <time>2019-03-29T14:51:52Z</time>
      </trkpt>
      <trkpt lat="44.43666" lon="5.79401">
        <ele>835</ele>
        <time>2019-03-29T14:51:53Z</time>
      </trkpt>
      <trkpt lat="44.4366" lon="5.79403">
        <ele>835</ele>
        <time>2019-03-29T14:51:54Z</time>
      </trkpt>
      <trkpt lat="44.43653" lon="5.79405">
        <ele>835</ele>
        <time>2019-03-29T14:51:55Z</time>
      </trkpt>
      <trkpt lat="44.43646" lon="5.79406">
        <ele>835</ele>
        <time>2019-03-29T14:51:56Z</time>
      </trkpt>
      <trkpt lat="44.43639" lon="5.79408">
        <ele>835</ele>
        <time>2019-03-29T14:51:57Z</time>
      </trkpt>
      <trkpt lat="44.43631" lon="5.7941">
        <ele>835</ele>
        <time>2019-03-29T14:51:58Z</time>
      </trkpt>
      <trkpt lat="44.43624" lon="5.79411">
        <ele>835</ele>
        <time>2019-03-29T14:51:59Z</time>
      </trkpt>
      <trkpt lat="44.43616" lon="5.79413">
        <ele>835</ele>
        <time>2019-03-29T14:52:00Z</time>
      </trkpt>
      <trkpt lat="44.43608" lon="5.79415">
        <ele>835</ele>
        <time>2019-03-29T14:52:01Z</time>
      </trkpt>
      <trkpt lat="44.43601" lon="5.79416">
        <ele>835</ele>
        <time>2019-03-29T14:52:02Z</time>
      </trkpt>
      <trkpt lat="44.43594" lon="5.79418">
        <ele>835</ele>
        <time>2019-03-29T14:52:03Z</time>
      </trkpt>
      <trkpt lat="44.43586" lon="5.7942">
        <ele>835</ele>
        <time>2019-03-29T14:52:04Z</time>
      </trkpt>
      <trkpt lat="44.43579" lon="5.79422">
        <ele>835</ele>
        <time>2019-03-29T14:52:05Z</time>
      </trkpt>
      <trkpt lat="44.43571" lon="5.79424">
        <ele>835</ele>
        <time>2019-03-29T14:52:06Z</time>
      </trkpt>
      <trkpt lat="44.43564" lon="5.79427">
        <ele>835</ele>
        <time>2019-03-29T14:52:07Z</time>
      </trkpt>
      <trkpt lat="44.43557" lon="5.7943">
        <ele>835</ele>
        <time>2019-03-29T14:52:08Z</time>
      </trkpt>
      <trkpt lat="44.4355" lon="5.79433">
        <ele>835</ele>
        <time>2019-03-29T14:52:09Z</time>
      </trkpt>
      <trkpt lat="44.43543" lon="5.79437">
        <ele>835</ele>
        <time>2019-03-29T14:52:10Z</time>
      </trkpt>
      <trkpt lat="44.43536" lon="5.79441">
        <ele>835</ele>
        <time>2019-03-29T14:52:11Z</time>
      </trkpt>
      <trkpt lat="44.43529" lon="5.79444">
        <ele>835</ele>
        <time>2019-03-29T14:52:12Z</time>
      </trkpt>
      <trkpt lat="44.43522" lon="5.79446">
        <ele>835</ele>
        <time>2019-03-29T14:52:13Z</time>
      </trkpt>
      <trkpt lat="44.43515" lon="5.79447">
        <ele>835</ele>
        <time>2019-03-29T14:52:14Z</time>
      </trkpt>
      <trkpt lat="44.43507" lon="5.79446">
        <ele>835</ele>
        <time>2019-03-29T14:52:15Z</time>
      </trkpt>
      <trkpt lat="44.435" lon="5.79444">
        <ele>835</ele>
        <time>2019-03-29T14:52:16Z</time>
      </trkpt>
      <trkpt lat="44.43493" lon="5.79439">
        <ele>834</ele>
        <time>2019-03-29T14:52:17Z</time>
      </trkpt>
      <trkpt lat="44.43486" lon="5.79435">
        <ele>834</ele>
        <time>2019-03-29T14:52:18Z</time>
      </trkpt>
      <trkpt lat="44.43478" lon="5.79429">
        <ele>834</ele>
        <time>2019-03-29T14:52:19Z</time>
      </trkpt>
      <trkpt lat="44.43471" lon="5.79424">
        <ele>834</ele>
        <time>2019-03-29T14:52:20Z</time>
      </trkpt>
      <trkpt lat="44.43463" lon="5.79418">
        <ele>833</ele>
        <time>2019-03-29T14:52:21Z</time>
      </trkpt>
      <trkpt lat="44.43455" lon="5.79412">
        <ele>833</ele>
        <time>2019-03-29T14:52:22Z</time>
      </trkpt>
      <trkpt lat="44.43446" lon="5.79407">
        <ele>832</ele>
        <time>2019-03-29T14:52:23Z</time>
      </trkpt>
      <trkpt lat="44.43438" lon="5.79401">
        <ele>832</ele>
        <time>2019-03-29T14:52:24Z</time>
      </trkpt>
      <trkpt lat="44.43429" lon="5.79395">
        <ele>831</ele>
        <time>2019-03-29T14:52:25Z</time>
      </trkpt>
      <trkpt lat="44.4342" lon="5.79389">
        <ele>830</ele>
        <time>2019-03-29T14:52:26Z</time>
      </trkpt>
      <trkpt lat="44.43412" lon="5.79383">
        <ele>830</ele>
        <time>2019-03-29T14:52:27Z</time>
      </trkpt>
      <trkpt lat="44.43404" lon="5.79377">
        <ele>830</ele>
        <time>2019-03-29T14:52:28Z</time>
      </trkpt>
      <trkpt lat="44.43396" lon="5.79371">
        <ele>830</ele>
        <time>2019-03-29T14:52:29Z</time>
      </trkpt>
      <trkpt lat="44.43389" lon="5.79365">
        <ele>830</ele>
        <time>2019-03-29T14:52:30Z</time>
      </trkpt>
      <trkpt lat="44.43383" lon="5.7936">
        <ele>830</ele>
        <time>2019-03-29T14:52:31Z</time>
      </trkpt>
      <trkpt lat="44.43377" lon="5.79356">
        <ele>830</ele>
        <time>2019-03-29T14:52:32Z</time>
      </trkpt>
      <trkpt lat="44.43371" lon="5.79352">
        <ele>830</ele>
        <time>2019-03-29T14:52:33Z</time>
      </trkpt>
      <trkpt lat="44.43366" lon="5.79348">
        <ele>830</ele>
        <time>2019-03-29T14:52:34Z</time>
      </trkpt>
      <trkpt lat="44.43361" lon="5.79344">
        <ele>830</ele>
        <time>2019-03-29T14:52:35Z</time>
      </trkpt>
      <trkpt lat="44.43356" lon="5.79341">
        <ele>830</ele>
        <time>2019-03-29T14:52:36Z</time>
      </trkpt>
      <trkpt lat="44.43352" lon="5.79338">
        <ele>830</ele>
        <time>2019-03-29T14:52:37Z</time>
      </trkpt>
      <trkpt lat="44.43348" lon="5.79335">
        <ele>830</ele>
        <time>2019-03-29T14:52:38Z</time>
      </trkpt>
      <trkpt lat="44.43344" lon="5.79332">
        <ele>830</ele>
        <time>2019-03-29T14:52:39Z</time>
      </trkpt>
      <trkpt lat="44.4334" lon="5.79329">
        <ele>830</ele>
        <time>2019-03-29T14:52:40Z</time>
      </trkpt>
      <trkpt lat="44.43336" lon="5.79326">
        <ele>830</ele>
        <time>2019-03-29T14:52:41Z</time>
      </trkpt>
      <trkpt lat="44.43332" lon="5.79324">
        <ele>830</ele>
        <time>2019-03-29T14:52:42Z</time>
      </trkpt>
      <trkpt lat="44.43328" lon="5.79321">
        <ele>830</ele>
        <time>2019-03-29T14:52:43Z</time>
      </trkpt>
      <trkpt lat="44.43325" lon="5.79319">
        <ele>830</ele>
        <time>2019-03-29T14:52:44Z</time>
      </trkpt>
      <trkpt lat="44.43322" lon="5.79318">
        <ele>830</ele>
        <time>2019-03-29T14:52:45Z</time>
      </trkpt>
      <trkpt lat="44.4332" lon="5.79317">
        <ele>830</ele>
        <time>2019-03-29T14:52:46Z</time>
      </trkpt>
      <trkpt lat="44.43319" lon="5.79316">
        <ele>830</ele>
        <time>2019-03-29T14:52:47Z</time>
      </trkpt>
      <trkpt lat="44.43318" lon="5.79314">
        <ele>832</ele>
        <time>2019-03-29T14:53:21Z</time>
      </trkpt>
      <trkpt lat="44.43317" lon="5.79315">
        <ele>832</ele>
        <time>2019-03-29T14:53:33Z</time>
      </trkpt>
      <trkpt lat="44.43318" lon="5.79316">
        <ele>832</ele>
        <time>2019-03-29T14:53:54Z</time>
      </trkpt>
      <trkpt lat="44.43317" lon="5.79315">
        <ele>832</ele>
        <time>2019-03-29T14:54:45Z</time>
      </trkpt>
      <trkpt lat="44.43317" lon="5.79314">
        <ele>832</ele>
        <time>2019-03-29T14:55:12Z</time>
      </trkpt>
      <trkpt lat="44.43318" lon="5.79313">
        <ele>832</ele>
        <time>2019-03-29T14:55:18Z</time>
      </trkpt>
      <trkpt lat="44.43318" lon="5.79315">
        <ele>833</ele>
        <time>2019-03-29T14:56:08Z</time>
      </trkpt>
      <trkpt lat="44.43319" lon="5.79315">
        <ele>833</ele>
        <time>2019-03-29T14:56:20Z</time>
      </trkpt>
      <trkpt lat="44.43318" lon="5.79315">
        <ele>833</ele>
        <time>2019-03-29T14:56:40Z</time>
      </trkpt>
      <trkpt lat="44.43317" lon="5.79316">
        <ele>833</ele>
        <time>2019-03-29T14:56:49Z</time>
      </trkpt>
      <trkpt lat="44.43317" lon="5.79317">
        <ele>833</ele>
        <time>2019-03-29T14:57:39Z</time>
      </trkpt>
      <trkpt lat="44.43317" lon="5.79316">
        <ele>833</ele>
        <time>2019-03-29T14:57:58Z</time>
      </trkpt>
      <trkpt lat="44.43318" lon="5.79314">
        <ele>833</ele>
        <time>2019-03-29T14:58:07Z</time>
      </trkpt>
      <trkpt lat="44.43316" lon="5.79315">
        <ele>833</ele>
        <time>2019-03-29T14:58:14Z</time>
      </trkpt>
      <trkpt lat="44.43315" lon="5.79316">
        <ele>833</ele>
        <time>2019-03-29T14:58:15Z</time>
      </trkpt>
      <trkpt lat="44.43314" lon="5.79316">
        <ele>833</ele>
        <time>2019-03-29T14:58:16Z</time>
      </trkpt>
      <trkpt lat="44.43312" lon="5.79317">
        <ele>833</ele>
        <time>2019-03-29T14:58:17Z</time>
      </trkpt>
      <trkpt lat="44.43311" lon="5.79317">
        <ele>833</ele>
        <time>2019-03-29T14:58:18Z</time>
      </trkpt>
      <trkpt lat="44.43309" lon="5.79317">
        <ele>833</ele>
        <time>2019-03-29T14:58:19Z</time>
      </trkpt>
      <trkpt lat="44.43307" lon="5.79317">
        <ele>833</ele>
        <time>2019-03-29T14:58:20Z</time>
      </trkpt>
      <trkpt lat="44.43305" lon="5.79317">
        <ele>833</ele>
        <time>2019-03-29T14:58:21Z</time>
      </trkpt>
      <trkpt lat="44.43303" lon="5.79317">
        <ele>833</ele>
        <time>2019-03-29T14:58:22Z</time>
      </trkpt>
      <trkpt lat="44.43301" lon="5.79317">
        <ele>833</ele>
        <time>2019-03-29T14:58:23Z</time>
      </trkpt>
      <trkpt lat="44.43298" lon="5.79318">
        <ele>833</ele>
        <time>2019-03-29T14:58:24Z</time>
      </trkpt>
      <trkpt lat="44.43296" lon="5.79319">
        <ele>833</ele>
        <time>2019-03-29T14:58:25Z</time>
      </trkpt>
      <trkpt lat="44.43293" lon="5.7932">
        <ele>833</ele>
        <time>2019-03-29T14:58:26Z</time>
      </trkpt>
      <trkpt lat="44.4329" lon="5.79322">
        <ele>833</ele>
        <time>2019-03-29T14:58:27Z</time>
      </trkpt>
      <trkpt lat="44.43287" lon="5.79324">
        <ele>833</ele>
        <time>2019-03-29T14:58:28Z</time>
      </trkpt>
      <trkpt lat="44.43284" lon="5.79327">
        <ele>833</ele>
        <time>2019-03-29T14:58:29Z</time>
      </trkpt>
      <trkpt lat="44.4328" lon="5.79329">
        <ele>833</ele>
        <time>2019-03-29T14:58:30Z</time>
      </trkpt>
      <trkpt lat="44.43277" lon="5.79332">
        <ele>832</ele>
        <time>2019-03-29T14:58:31Z</time>
      </trkpt>
      <trkpt lat="44.43273" lon="5.79335">
        <ele>832</ele>
        <time>2019-03-29T14:58:32Z</time>
      </trkpt>
      <trkpt lat="44.4327" lon="5.79339">
        <ele>832</ele>
        <time>2019-03-29T14:58:33Z</time>
      </trkpt>
      <trkpt lat="44.43267" lon="5.79343">
        <ele>832</ele>
        <time>2019-03-29T14:58:34Z</time>
      </trkpt>
      <trkpt lat="44.43264" lon="5.79347">
        <ele>831</ele>
        <time>2019-03-29T14:58:35Z</time>
      </trkpt>
      <trkpt lat="44.43261" lon="5.79352">
        <ele>831</ele>
        <time>2019-03-29T14:58:36Z</time>
      </trkpt>
      <trkpt lat="44.43257" lon="5.79357">
        <ele>831</ele>
        <time>2019-03-29T14:58:37Z</time>
      </trkpt>
      <trkpt lat="44.43253" lon="5.79363">
        <ele>830</ele>
        <time>2019-03-29T14:58:38Z</time>
      </trkpt>
      <trkpt lat="44.4325" lon="5.79369">
        <ele>830</ele>
        <time>2019-03-29T14:58:39Z</time>
      </trkpt>
      <trkpt lat="44.43245" lon="5.79376">
        <ele>829</ele>
        <time>2019-03-29T14:58:40Z</time>
      </trkpt>
      <trkpt lat="44.4324" lon="5.79381">
        <ele>829</ele>
        <time>2019-03-29T14:58:41Z</time>
      </trkpt>
      <trkpt lat="44.43234" lon="5.79387">
        <ele>828</ele>
        <time>2019-03-29T14:58:42Z</time>
      </trkpt>
      <trkpt lat="44.43228" lon="5.79392">
        <ele>828</ele>
        <time>2019-03-29T14:58:43Z</time>
      </trkpt>
      <trkpt lat="44.43221" lon="5.79397">
        <ele>827</ele>
        <time>2019-03-29T14:58:44Z</time>
      </trkpt>
      <trkpt lat="44.43215" lon="5.79404">
        <ele>826</ele>
        <time>2019-03-29T14:58:45Z</time>
      </trkpt>
      <trkpt lat="44.43211" lon="5.79413">
        <ele>826</ele>
        <time>2019-03-29T14:58:46Z</time>
      </trkpt>
      <trkpt lat="44.43208" lon="5.79424">
        <ele>825</ele>
        <time>2019-03-29T14:58:47Z</time>
      </trkpt>
      <trkpt lat="44.43204" lon="5.79434">
        <ele>824</ele>
        <time>2019-03-29T14:58:48Z</time>
      </trkpt>
      <trkpt lat="44.43199" lon="5.79442">
        <ele>824</ele>
        <time>2019-03-29T14:58:49Z</time>
      </trkpt>
      <trkpt lat="44.43192" lon="5.79447">
        <ele>823</ele>
        <time>2019-03-29T14:58:50Z</time>
      </trkpt>
      <trkpt lat="44.43184" lon="5.79449">
        <ele>822</ele>
        <time>2019-03-29T14:58:51Z</time>
      </trkpt>
      <trkpt lat="44.43176" lon="5.7945">
        <ele>822</ele>
        <time>2019-03-29T14:58:52Z</time>
      </trkpt>
      <trkpt lat="44.43169" lon="5.79452">
        <ele>821</ele>
        <time>2019-03-29T14:58:53Z</time>
      </trkpt>
      <trkpt lat="44.43163" lon="5.79458">
        <ele>820</ele>
        <time>2019-03-29T14:58:54Z</time>
      </trkpt>
      <trkpt lat="44.43158" lon="5.79465">
        <ele>820</ele>
        <time>2019-03-29T14:58:55Z</time>
      </trkpt>
      <trkpt lat="44.43154" lon="5.79475">
        <ele>819</ele>
        <time>2019-03-29T14:58:56Z</time>
      </trkpt>
      <trkpt lat="44.43153" lon="5.79485">
        <ele>819</ele>
        <time>2019-03-29T14:58:57Z</time>
      </trkpt>
      <trkpt lat="44.43153" lon="5.79494">
        <ele>818</ele>
        <time>2019-03-29T14:58:58Z</time>
      </trkpt>
      <trkpt lat="44.43154" lon="5.79502">
        <ele>817</ele>
        <time>2019-03-29T14:58:59Z</time>
      </trkpt>
      <trkpt lat="44.43153" lon="5.79509">
        <ele>817</ele>
        <time>2019-03-29T14:59:00Z</time>
      </trkpt>
      <trkpt lat="44.4315" lon="5.79514">
        <ele>816</ele>
        <time>2019-03-29T14:59:01Z</time>
      </trkpt>
      <trkpt lat="44.43144" lon="5.79513">
        <ele>816</ele>
        <time>2019-03-29T14:59:02Z</time>
      </trkpt>
      <trkpt lat="44.4314" lon="5.79508">
        <ele>815</ele>
        <time>2019-03-29T14:59:03Z</time>
      </trkpt>
      <trkpt lat="44.43137" lon="5.79499">
        <ele>814</ele>
        <time>2019-03-29T14:59:04Z</time>
      </trkpt>
      <trkpt lat="44.43137" lon="5.79488">
        <ele>814</ele>
        <time>2019-03-29T14:59:05Z</time>
      </trkpt>
      <trkpt lat="44.43138" lon="5.79477">
        <ele>813</ele>
        <time>2019-03-29T14:59:06Z</time>
      </trkpt>
      <trkpt lat="44.43141" lon="5.79466">
        <ele>812</ele>
        <time>2019-03-29T14:59:07Z</time>
      </trkpt>
      <trkpt lat="44.43144" lon="5.79455">
        <ele>811</ele>
        <time>2019-03-29T14:59:08Z</time>
      </trkpt>
      <trkpt lat="44.43146" lon="5.79443">
        <ele>810</ele>
        <time>2019-03-29T14:59:09Z</time>
      </trkpt>
      <trkpt lat="44.43148" lon="5.79432">
        <ele>809</ele>
        <time>2019-03-29T14:59:10Z</time>
      </trkpt>
      <trkpt lat="44.43149" lon="5.79421">
        <ele>808</ele>
        <time>2019-03-29T14:59:11Z</time>
      </trkpt>
      <trkpt lat="44.43148" lon="5.79411">
        <ele>808</ele>
        <time>2019-03-29T14:59:12Z</time>
      </trkpt>
      <trkpt lat="44.43145" lon="5.794">
        <ele>807</ele>
        <time>2019-03-29T14:59:13Z</time>
      </trkpt>
      <trkpt lat="44.43141" lon="5.79391">
        <ele>807</ele>
        <time>2019-03-29T14:59:14Z</time>
      </trkpt>
      <trkpt lat="44.43136" lon="5.79383">
        <ele>806</ele>
        <time>2019-03-29T14:59:15Z</time>
      </trkpt>
      <trkpt lat="44.4313" lon="5.79375">
        <ele>806</ele>
        <time>2019-03-29T14:59:16Z</time>
      </trkpt>
      <trkpt lat="44.43124" lon="5.79367">
        <ele>805</ele>
        <time>2019-03-29T14:59:17Z</time>
      </trkpt>
      <trkpt lat="44.43117" lon="5.7936">
        <ele>804</ele>
        <time>2019-03-29T14:59:18Z</time>
      </trkpt>
      <trkpt lat="44.43111" lon="5.79352">
        <ele>804</ele>
        <time>2019-03-29T14:59:19Z</time>
      </trkpt>
      <trkpt lat="44.43103" lon="5.79344">
        <ele>803</ele>
        <time>2019-03-29T14:59:20Z</time>
      </trkpt>
      <trkpt lat="44.43095" lon="5.79336">
        <ele>802</ele>
        <time>2019-03-29T14:59:21Z</time>
      </trkpt>
      <trkpt lat="44.43087" lon="5.79329">
        <ele>801</ele>
        <time>2019-03-29T14:59:22Z</time>
      </trkpt>
      <trkpt lat="44.43079" lon="5.79323">
        <ele>800</ele>
        <time>2019-03-29T14:59:23Z</time>
      </trkpt>
      <trkpt lat="44.4307" lon="5.79318">
        <ele>799</ele>
        <time>2019-03-29T14:59:24Z</time>
      </trkpt>
      <trkpt lat="44.43061" lon="5.79314">
        <ele>798</ele>
        <time>2019-03-29T14:59:25Z</time>
      </trkpt>
      <trkpt lat="44.43053" lon="5.79312">
        <ele>797</ele>
        <time>2019-03-29T14:59:26Z</time>
      </trkpt>
      <trkpt lat="44.43045" lon="5.79311">
        <ele>796</ele>
        <time>2019-03-29T14:59:27Z</time>
      </trkpt>
      <trkpt lat="44.43038" lon="5.79313">
        <ele>796</ele>
        <time>2019-03-29T14:59:28Z</time>
      </trkpt>
      <trkpt lat="44.43032" lon="5.79316">
        <ele>795</ele>
        <time>2019-03-29T14:59:29Z</time>
      </trkpt>
      <trkpt lat="44.43026" lon="5.79321">
        <ele>795</ele>
        <time>2019-03-29T14:59:30Z</time>
      </trkpt>
      <trkpt lat="44.43023" lon="5.79328">
        <ele>794</ele>
        <time>2019-03-29T14:59:31Z</time>
      </trkpt>
      <trkpt lat="44.43022" lon="5.79337">
        <ele>794</ele>
        <time>2019-03-29T14:59:32Z</time>
      </trkpt>
      <trkpt lat="44.43023" lon="5.79346">
        <ele>794</ele>
        <time>2019-03-29T14:59:33Z</time>
      </trkpt>
      <trkpt lat="44.4303" lon="5.79352">
        <ele>793</ele>
        <time>2019-03-29T14:59:34Z</time>
      </trkpt>
      <trkpt lat="44.43037" lon="5.79357">
        <ele>793</ele>
        <time>2019-03-29T14:59:35Z</time>
      </trkpt>
      <trkpt lat="44.43043" lon="5.79362">
        <ele>793</ele>
        <time>2019-03-29T14:59:36Z</time>
      </trkpt>
      <trkpt lat="44.43048" lon="5.7937">
        <ele>792</ele>
        <time>2019-03-29T14:59:37Z</time>
      </trkpt>
      <trkpt lat="44.4305" lon="5.79379">
        <ele>791</ele>
        <time>2019-03-29T14:59:38Z</time>
      </trkpt>
      <trkpt lat="44.43048" lon="5.79389">
        <ele>791</ele>
        <time>2019-03-29T14:59:39Z</time>
      </trkpt>
      <trkpt lat="44.43044" lon="5.79397">
        <ele>790</ele>
        <time>2019-03-29T14:59:40Z</time>
      </trkpt>
      <trkpt lat="44.43038" lon="5.79405">
        <ele>789</ele>
        <time>2019-03-29T14:59:41Z</time>
      </trkpt>
      <trkpt lat="44.43031" lon="5.79411">
        <ele>788</ele>
        <time>2019-03-29T14:59:42Z</time>
      </trkpt>
      <trkpt lat="44.43024" lon="5.79415">
        <ele>787</ele>
        <time>2019-03-29T14:59:43Z</time>
      </trkpt>
      <trkpt lat="44.43017" lon="5.7942">
        <ele>787</ele>
        <time>2019-03-29T14:59:44Z</time>
      </trkpt>
      <trkpt lat="44.4301" lon="5.79426">
        <ele>786</ele>
        <time>2019-03-29T14:59:45Z</time>
      </trkpt>
      <trkpt lat="44.43006" lon="5.79434">
        <ele>785</ele>
        <time>2019-03-29T14:59:46Z</time>
      </trkpt>
      <trkpt lat="44.43004" lon="5.79444">
        <ele>784</ele>
        <time>2019-03-29T14:59:47Z</time>
      </trkpt>
      <trkpt lat="44.43002" lon="5.79455">
        <ele>784</ele>
        <time>2019-03-29T14:59:48Z</time>
      </trkpt>
      <trkpt lat="44.42999" lon="5.79466">
        <ele>783</ele>
        <time>2019-03-29T14:59:49Z</time>
      </trkpt>
      <trkpt lat="44.42994" lon="5.79477">
        <ele>782</ele>
        <time>2019-03-29T14:59:50Z</time>
      </trkpt>
      <trkpt lat="44.42989" lon="5.79486">
        <ele>781</ele>
        <time>2019-03-29T14:59:51Z</time>
      </trkpt>
      <trkpt lat="44.42983" lon="5.79495">
        <ele>780</ele>
        <time>2019-03-29T14:59:52Z</time>
      </trkpt>
      <trkpt lat="44.42976" lon="5.79504">
        <ele>780</ele>
        <time>2019-03-29T14:59:53Z</time>
      </trkpt>
      <trkpt lat="44.4297" lon="5.79514">
        <ele>779</ele>
        <time>2019-03-29T14:59:54Z</time>
      </trkpt>
      <trkpt lat="44.42964" lon="5.79523">
        <ele>778</ele>
        <time>2019-03-29T14:59:55Z</time>
      </trkpt>
      <trkpt lat="44.42958" lon="5.79529">
        <ele>777</ele>
        <time>2019-03-29T14:59:56Z</time>
      </trkpt>
      <trkpt lat="44.42952" lon="5.79532">
        <ele>777</ele>
        <time>2019-03-29T14:59:57Z</time>
      </trkpt>
      <trkpt lat="44.42946" lon="5.79529">
        <ele>776</ele>
        <time>2019-03-29T14:59:58Z</time>
      </trkpt>
      <trkpt lat="44.42941" lon="5.79522">
        <ele>775</ele>
        <time>2019-03-29T14:59:59Z</time>
      </trkpt>
      <trkpt lat="44.42937" lon="5.79512">
        <ele>774</ele>
        <time>2019-03-29T15:00:00Z</time>
      </trkpt>
      <trkpt lat="44.42932" lon="5.79502">
        <ele>773</ele>
        <time>2019-03-29T15:00:01Z</time>
      </trkpt>
      <trkpt lat="44.42926" lon="5.79494">
        <ele>772</ele>
        <time>2019-03-29T15:00:02Z</time>
      </trkpt>
      <trkpt lat="44.42917" lon="5.79488">
        <ele>771</ele>
        <time>2019-03-29T15:00:03Z</time>
      </trkpt>
      <trkpt lat="44.42908" lon="5.79483">
        <ele>770</ele>
        <time>2019-03-29T15:00:04Z</time>
      </trkpt>
      <trkpt lat="44.42899" lon="5.79476">
        <ele>769</ele>
        <time>2019-03-29T15:00:05Z</time>
      </trkpt>
      <trkpt lat="44.42891" lon="5.79469">
        <ele>768</ele>
        <time>2019-03-29T15:00:06Z</time>
      </trkpt>
      <trkpt lat="44.42883" lon="5.79463">
        <ele>767</ele>
        <time>2019-03-29T15:00:07Z</time>
      </trkpt>
      <trkpt lat="44.42875" lon="5.79459">
        <ele>767</ele>
        <time>2019-03-29T15:00:08Z</time>
      </trkpt>
      <trkpt lat="44.42867" lon="5.79458">
        <ele>766</ele>
        <time>2019-03-29T15:00:09Z</time>
      </trkpt>
      <trkpt lat="44.42857" lon="5.79461">
        <ele>765</ele>
        <time>2019-03-29T15:00:10Z</time>
      </trkpt>
      <trkpt lat="44.42849" lon="5.79466">
        <ele>765</ele>
        <time>2019-03-29T15:00:11Z</time>
      </trkpt>
      <trkpt lat="44.4284" lon="5.79473">
        <ele>764</ele>
        <time>2019-03-29T15:00:12Z</time>
      </trkpt>
      <trkpt lat="44.42832" lon="5.79481">
        <ele>764</ele>
        <time>2019-03-29T15:00:13Z</time>
      </trkpt>
      <trkpt lat="44.42824" lon="5.79488">
        <ele>763</ele>
        <time>2019-03-29T15:00:14Z</time>
      </trkpt>
      <trkpt lat="44.42815" lon="5.79493">
        <ele>762</ele>
        <time>2019-03-29T15:00:15Z</time>
      </trkpt>
      <trkpt lat="44.42806" lon="5.79495">
        <ele>762</ele>
        <time>2019-03-29T15:00:16Z</time>
      </trkpt>
      <trkpt lat="44.42797" lon="5.79495">
        <ele>761</ele>
        <time>2019-03-29T15:00:17Z</time>
      </trkpt>
      <trkpt lat="44.42788" lon="5.79493">
        <ele>760</ele>
        <time>2019-03-29T15:00:18Z</time>
      </trkpt>
      <trkpt lat="44.42778" lon="5.79492">
        <ele>760</ele>
        <time>2019-03-29T15:00:19Z</time>
      </trkpt>
      <trkpt lat="44.42768" lon="5.79492">
        <ele>759</ele>
        <time>2019-03-29T15:00:20Z</time>
      </trkpt>
      <trkpt lat="44.42758" lon="5.79493">
        <ele>758</ele>
        <time>2019-03-29T15:00:21Z</time>
      </trkpt>
      <trkpt lat="44.42749" lon="5.79496">
        <ele>758</ele>
        <time>2019-03-29T15:00:22Z</time>
      </trkpt>
      <trkpt lat="44.4274" lon="5.79501">
        <ele>757</ele>
        <time>2019-03-29T15:00:23Z</time>
      </trkpt>
      <trkpt lat="44.42733" lon="5.79508">
        <ele>756</ele>
        <time>2019-03-29T15:00:24Z</time>
      </trkpt>
      <trkpt lat="44.42726" lon="5.79517">
        <ele>756</ele>
        <time>2019-03-29T15:00:25Z</time>
      </trkpt>
      <trkpt lat="44.42721" lon="5.79528">
        <ele>756</ele>
        <time>2019-03-29T15:00:26Z</time>
      </trkpt>
      <trkpt lat="44.42717" lon="5.79539">
        <ele>756</ele>
        <time>2019-03-29T15:00:27Z</time>
      </trkpt>
      <trkpt lat="44.42713" lon="5.7955">
        <ele>755</ele>
        <time>2019-03-29T15:00:28Z</time>
      </trkpt>
      <trkpt lat="44.42709" lon="5.7956">
        <ele>755</ele>
        <time>2019-03-29T15:00:29Z</time>
      </trkpt>
      <trkpt lat="44.42705" lon="5.79569">
        <ele>755</ele>
        <time>2019-03-29T15:00:30Z</time>
      </trkpt>
      <trkpt lat="44.42699" lon="5.79577">
        <ele>754</ele>
        <time>2019-03-29T15:00:31Z</time>
      </trkpt>
      <trkpt lat="44.42691" lon="5.79584">
        <ele>754</ele>
        <time>2019-03-29T15:00:32Z</time>
      </trkpt>
      <trkpt lat="44.42684" lon="5.7959">
        <ele>754</ele>
        <time>2019-03-29T15:00:33Z</time>
      </trkpt>
      <trkpt lat="44.42677" lon="5.79596">
        <ele>753</ele>
        <time>2019-03-29T15:00:34Z</time>
      </trkpt>
      <trkpt lat="44.42669" lon="5.796">
        <ele>753</ele>
        <time>2019-03-29T15:00:35Z</time>
      </trkpt>
      <trkpt lat="44.42661" lon="5.79604">
        <ele>753</ele>
        <time>2019-03-29T15:00:36Z</time>
      </trkpt>
      <trkpt lat="44.42653" lon="5.79607">
        <ele>752</ele>
        <time>2019-03-29T15:00:37Z</time>
      </trkpt>
      <trkpt lat="44.42644" lon="5.79608">
        <ele>752</ele>
        <time>2019-03-29T15:00:38Z</time>
      </trkpt>
      <trkpt lat="44.42635" lon="5.79608">
        <ele>752</ele>
        <time>2019-03-29T15:00:39Z</time>
      </trkpt>
      <trkpt lat="44.42626" lon="5.79607">
        <ele>751</ele>
        <time>2019-03-29T15:00:40Z</time>
      </trkpt>
      <trkpt lat="44.42617" lon="5.79606">
        <ele>751</ele>
        <time>2019-03-29T15:00:41Z</time>
      </trkpt>
      <trkpt lat="44.42608" lon="5.79605">
        <ele>750</ele>
        <time>2019-03-29T15:00:42Z</time>
      </trkpt>
      <trkpt lat="44.42598" lon="5.79603">
        <ele>750</ele>
        <time>2019-03-29T15:00:43Z</time>
      </trkpt>
      <trkpt lat="44.42588" lon="5.79602">
        <ele>750</ele>
        <time>2019-03-29T15:00:44Z</time>
      </trkpt>
      <trkpt lat="44.42578" lon="5.796">
        <ele>749</ele>
        <time>2019-03-29T15:00:45Z</time>
      </trkpt>
      <trkpt lat="44.42568" lon="5.79597">
        <ele>749</ele>
        <time>2019-03-29T15:00:46Z</time>
      </trkpt>
      <trkpt lat="44.42559" lon="5.79592">
        <ele>749</ele>
        <time>2019-03-29T15:00:47Z</time>
      </trkpt>
      <trkpt lat="44.42549" lon="5.79587">
        <ele>748</ele>
        <time>2019-03-29T15:00:48Z</time>
      </trkpt>
      <trkpt lat="44.4254" lon="5.79581">
        <ele>748</ele>
        <time>2019-03-29T15:00:49Z</time>
      </trkpt>
      <trkpt lat="44.42531" lon="5.79574">
        <ele>748</ele>
        <time>2019-03-29T15:00:50Z</time>
      </trkpt>
      <trkpt lat="44.42521" lon="5.79568">
        <ele>747</ele>
        <time>2019-03-29T15:00:51Z</time>
      </trkpt>
      <trkpt lat="44.42512" lon="5.79561">
        <ele>747</ele>
        <time>2019-03-29T15:00:52Z</time>
      </trkpt>
      <trkpt lat="44.42503" lon="5.79555">
        <ele>746</ele>
        <time>2019-03-29T15:00:53Z</time>
      </trkpt>
      <trkpt lat="44.42493" lon="5.79548">
        <ele>745</ele>
        <time>2019-03-29T15:00:54Z</time>
      </trkpt>
      <trkpt lat="44.42485" lon="5.79542">
        <ele>745</ele>
        <time>2019-03-29T15:00:55Z</time>
      </trkpt>
      <trkpt lat="44.42476" lon="5.79536">
        <ele>745</ele>
        <time>2019-03-29T15:00:56Z</time>
      </trkpt>
      <trkpt lat="44.42468" lon="5.79531">
        <ele>744</ele>
        <time>2019-03-29T15:00:57Z</time>
      </trkpt>
      <trkpt lat="44.42459" lon="5.79526">
        <ele>744</ele>
        <time>2019-03-29T15:00:58Z</time>
      </trkpt>
      <trkpt lat="44.42451" lon="5.79521">
        <ele>744</ele>
        <time>2019-03-29T15:00:59Z</time>
      </trkpt>
      <trkpt lat="44.42443" lon="5.79517">
        <ele>744</ele>
        <time>2019-03-29T15:01:00Z</time>
      </trkpt>
      <trkpt lat="44.42436" lon="5.79512">
        <ele>744</ele>
        <time>2019-03-29T15:01:01Z</time>
      </trkpt>
      <trkpt lat="44.42428" lon="5.79508">
        <ele>743</ele>
        <time>2019-03-29T15:01:02Z</time>
      </trkpt>
      <trkpt lat="44.4242" lon="5.79504">
        <ele>743</ele>
        <time>2019-03-29T15:01:03Z</time>
      </trkpt>
      <trkpt lat="44.42412" lon="5.795">
        <ele>743</ele>
        <time>2019-03-29T15:01:04Z</time>
      </trkpt>
      <trkpt lat="44.42404" lon="5.79497">
        <ele>743</ele>
        <time>2019-03-29T15:01:05Z</time>
      </trkpt>
      <trkpt lat="44.42396" lon="5.79494">
        <ele>743</ele>
        <time>2019-03-29T15:01:06Z</time>
      </trkpt>
      <trkpt lat="44.42388" lon="5.79491">
        <ele>743</ele>
        <time>2019-03-29T15:01:07Z</time>
      </trkpt>
      <trkpt lat="44.42379" lon="5.79489">
        <ele>742</ele>
        <time>2019-03-29T15:01:08Z</time>
      </trkpt>
      <trkpt lat="44.42371" lon="5.79486">
        <ele>742</ele>
        <time>2019-03-29T15:01:09Z</time>
      </trkpt>
      <trkpt lat="44.42362" lon="5.79484">
        <ele>742</ele>
        <time>2019-03-29T15:01:10Z</time>
      </trkpt>
      <trkpt lat="44.42353" lon="5.79481">
        <ele>742</ele>
        <time>2019-03-29T15:01:11Z</time>
      </trkpt>
      <trkpt lat="44.42344" lon="5.79479">
        <ele>741</ele>
        <time>2019-03-29T15:01:12Z</time>
      </trkpt>
      <trkpt lat="44.42336" lon="5.79476">
        <ele>741</ele>
        <time>2019-03-29T15:01:13Z</time>
      </trkpt>
      <trkpt lat="44.42326" lon="5.79474">
        <ele>741</ele>
        <time>2019-03-29T15:01:14Z</time>
      </trkpt>
      <trkpt lat="44.42317" lon="5.79472">
        <ele>741</ele>
        <time>2019-03-29T15:01:15Z</time>
      </trkpt>
      <trkpt lat="44.42308" lon="5.7947">
        <ele>740</ele>
        <time>2019-03-29T15:01:16Z</time>
      </trkpt>
      <trkpt lat="44.42298" lon="5.79469">
        <ele>740</ele>
        <time>2019-03-29T15:01:17Z</time>
      </trkpt>
      <trkpt lat="44.42289" lon="5.79468">
        <ele>739</ele>
        <time>2019-03-29T15:01:18Z</time>
      </trkpt>
      <trkpt lat="44.4228" lon="5.79468">
        <ele>739</ele>
        <time>2019-03-29T15:01:19Z</time>
      </trkpt>
      <trkpt lat="44.42272" lon="5.79468">
        <ele>739</ele>
        <time>2019-03-29T15:01:20Z</time>
      </trkpt>
      <trkpt lat="44.42265" lon="5.79469">
        <ele>738</ele>
        <time>2019-03-29T15:01:21Z</time>
      </trkpt>
      <trkpt lat="44.42257" lon="5.7947">
        <ele>738</ele>
        <time>2019-03-29T15:01:22Z</time>
      </trkpt>
      <trkpt lat="44.4225" lon="5.79471">
        <ele>737</ele>
        <time>2019-03-29T15:01:23Z</time>
      </trkpt>
      <trkpt lat="44.42242" lon="5.79472">
        <ele>737</ele>
        <time>2019-03-29T15:01:24Z</time>
      </trkpt>
      <trkpt lat="44.42235" lon="5.79473">
        <ele>736</ele>
        <time>2019-03-29T15:01:25Z</time>
      </trkpt>
      <trkpt lat="44.42228" lon="5.79473">
        <ele>736</ele>
        <time>2019-03-29T15:01:26Z</time>
      </trkpt>
      <trkpt lat="44.42221" lon="5.79473">
        <ele>736</ele>
        <time>2019-03-29T15:01:27Z</time>
      </trkpt>
      <trkpt lat="44.42215" lon="5.79473">
        <ele>735</ele>
        <time>2019-03-29T15:01:28Z</time>
      </trkpt>
      <trkpt lat="44.4221" lon="5.79472">
        <ele>735</ele>
        <time>2019-03-29T15:01:29Z</time>
      </trkpt>
      <trkpt lat="44.42205" lon="5.79471">
        <ele>735</ele>
        <time>2019-03-29T15:01:30Z</time>
      </trkpt>
      <trkpt lat="44.42201" lon="5.79469">
        <ele>735</ele>
        <time>2019-03-29T15:01:31Z</time>
      </trkpt>
      <trkpt lat="44.42198" lon="5.79468">
        <ele>735</ele>
        <time>2019-03-29T15:01:32Z</time>
      </trkpt>
      <trkpt lat="44.42195" lon="5.79468">
        <ele>735</ele>
        <time>2019-03-29T15:01:33Z</time>
      </trkpt>
      <trkpt lat="44.42191" lon="5.7947">
        <ele>735</ele>
        <time>2019-03-29T15:01:34Z</time>
      </trkpt>
      <trkpt lat="44.42188" lon="5.79474">
        <ele>734</ele>
        <time>2019-03-29T15:01:35Z</time>
      </trkpt>
      <trkpt lat="44.42185" lon="5.7948">
        <ele>734</ele>
        <time>2019-03-29T15:01:36Z</time>
      </trkpt>
      <trkpt lat="44.42181" lon="5.79487">
        <ele>734</ele>
        <time>2019-03-29T15:01:37Z</time>
      </trkpt>
      <trkpt lat="44.42178" lon="5.79493">
        <ele>733</ele>
        <time>2019-03-29T15:01:38Z</time>
      </trkpt>
      <trkpt lat="44.42175" lon="5.79501">
        <ele>733</ele>
        <time>2019-03-29T15:01:39Z</time>
      </trkpt>
      <trkpt lat="44.42171" lon="5.79508">
        <ele>732</ele>
        <time>2019-03-29T15:01:40Z</time>
      </trkpt>
      <trkpt lat="44.42167" lon="5.79515">
        <ele>732</ele>
        <time>2019-03-29T15:01:41Z</time>
      </trkpt>
      <trkpt lat="44.42163" lon="5.79521">
        <ele>732</ele>
        <time>2019-03-29T15:01:42Z</time>
      </trkpt>
      <trkpt lat="44.42159" lon="5.79528">
        <ele>732</ele>
        <time>2019-03-29T15:01:43Z</time>
      </trkpt>
      <trkpt lat="44.42155" lon="5.79534">
        <ele>732</ele>
        <time>2019-03-29T15:01:44Z</time>
      </trkpt>
      <trkpt lat="44.42151" lon="5.79541">
        <ele>732</ele>
        <time>2019-03-29T15:01:45Z</time>
      </trkpt>
      <trkpt lat="44.42148" lon="5.79546">
        <ele>732</ele>
        <time>2019-03-29T15:01:46Z</time>
      </trkpt>
      <trkpt lat="44.42144" lon="5.79552">
        <ele>732</ele>
        <time>2019-03-29T15:01:47Z</time>
      </trkpt>
      <trkpt lat="44.42141" lon="5.79558">
        <ele>732</ele>
        <time>2019-03-29T15:01:48Z</time>
      </trkpt>
      <trkpt lat="44.42139" lon="5.79564">
        <ele>732</ele>
        <time>2019-03-29T15:01:49Z</time>
      </trkpt>
      <trkpt lat="44.42136" lon="5.79569">
        <ele>732</ele>
        <time>2019-03-29T15:01:50Z</time>
      </trkpt>
      <trkpt lat="44.42134" lon="5.79574">
        <ele>732</ele>
        <time>2019-03-29T15:01:51Z</time>
      </trkpt>
      <trkpt lat="44.42132" lon="5.7958">
        <ele>732</ele>
        <time>2019-03-29T15:01:52Z</time>
      </trkpt>
      <trkpt lat="44.42129" lon="5.79586">
        <ele>732</ele>
        <time>2019-03-29T15:01:53Z</time>
      </trkpt>
      <trkpt lat="44.42127" lon="5.79591">
        <ele>732</ele>
        <time>2019-03-29T15:01:54Z</time>
      </trkpt>
      <trkpt lat="44.42124" lon="5.79597">
        <ele>732</ele>
        <time>2019-03-29T15:01:55Z</time>
      </trkpt>
      <trkpt lat="44.42122" lon="5.79602">
        <ele>732</ele>
        <time>2019-03-29T15:01:56Z</time>
      </trkpt>
      <trkpt lat="44.4212" lon="5.79607">
        <ele>732</ele>
        <time>2019-03-29T15:01:57Z</time>
      </trkpt>
      <trkpt lat="44.42118" lon="5.79612">
        <ele>732</ele>
        <time>2019-03-29T15:01:58Z</time>
      </trkpt>
      <trkpt lat="44.42116" lon="5.79617">
        <ele>732</ele>
        <time>2019-03-29T15:01:59Z</time>
      </trkpt>
      <trkpt lat="44.42113" lon="5.79622">
        <ele>732</ele>
        <time>2019-03-29T15:02:00Z</time>
      </trkpt>
      <trkpt lat="44.42111" lon="5.79627">
        <ele>732</ele>
        <time>2019-03-29T15:02:01Z</time>
      </trkpt>
      <trkpt lat="44.42109" lon="5.79632">
        <ele>732</ele>
        <time>2019-03-29T15:02:02Z</time>
      </trkpt>
      <trkpt lat="44.42107" lon="5.79636">
        <ele>732</ele>
        <time>2019-03-29T15:02:03Z</time>
      </trkpt>
      <trkpt lat="44.42106" lon="5.79641">
        <ele>732</ele>
        <time>2019-03-29T15:02:04Z</time>
      </trkpt>
      <trkpt lat="44.42104" lon="5.79646">
        <ele>732</ele>
        <time>2019-03-29T15:02:05Z</time>
      </trkpt>
      <trkpt lat="44.42102" lon="5.79651">
        <ele>732</ele>
        <time>2019-03-29T15:02:06Z</time>
      </trkpt>
      <trkpt lat="44.421" lon="5.79656">
        <ele>732</ele>
        <time>2019-03-29T15:02:07Z</time>
      </trkpt>
      <trkpt lat="44.42097" lon="5.79661">
        <ele>732</ele>
        <time>2019-03-29T15:02:08Z</time>
      </trkpt>
      <trkpt lat="44.42095" lon="5.79666">
        <ele>732</ele>
        <time>2019-03-29T15:02:09Z</time>
      </trkpt>
      <trkpt lat="44.42093" lon="5.79672">
        <ele>732</ele>
        <time>2019-03-29T15:02:10Z</time>
      </trkpt>
      <trkpt lat="44.42091" lon="5.79677">
        <ele>732</ele>
        <time>2019-03-29T15:02:11Z</time>
      </trkpt>
      <trkpt lat="44.42088" lon="5.79682">
        <ele>732</ele>
        <time>2019-03-29T15:02:12Z</time>
      </trkpt>
      <trkpt lat="44.42086" lon="5.79688">
        <ele>732</ele>
        <time>2019-03-29T15:02:13Z</time>
      </trkpt>
      <trkpt lat="44.42083" lon="5.79693">
        <ele>732</ele>
        <time>2019-03-29T15:02:14Z</time>
      </trkpt>
      <trkpt lat="44.42081" lon="5.79698">
        <ele>732</ele>
        <time>2019-03-29T15:02:15Z</time>
      </trkpt>
      <trkpt lat="44.42078" lon="5.79704">
        <ele>732</ele>
        <time>2019-03-29T15:02:16Z</time>
      </trkpt>
      <trkpt lat="44.42075" lon="5.79709">
        <ele>732</ele>
        <time>2019-03-29T15:02:17Z</time>
      </trkpt>
      <trkpt lat="44.42072" lon="5.79714">
        <ele>732</ele>
        <time>2019-03-29T15:02:18Z</time>
      </trkpt>
      <trkpt lat="44.42069" lon="5.79719">
        <ele>732</ele>
        <time>2019-03-29T15:02:19Z</time>
      </trkpt>
      <trkpt lat="44.42066" lon="5.79724">
        <ele>732</ele>
        <time>2019-03-29T15:02:20Z</time>
      </trkpt>
      <trkpt lat="44.42062" lon="5.79729">
        <ele>732</ele>
        <time>2019-03-29T15:02:21Z</time>
      </trkpt>
      <trkpt lat="44.42059" lon="5.79734">
        <ele>732</ele>
        <time>2019-03-29T15:02:22Z</time>
      </trkpt>
      <trkpt lat="44.42056" lon="5.79739">
        <ele>733</ele>
        <time>2019-03-29T15:02:23Z</time>
      </trkpt>
      <trkpt lat="44.42052" lon="5.79744">
        <ele>733</ele>
        <time>2019-03-29T15:02:24Z</time>
      </trkpt>
      <trkpt lat="44.42049" lon="5.7975">
        <ele>733</ele>
        <time>2019-03-29T15:02:25Z</time>
      </trkpt>
      <trkpt lat="44.42046" lon="5.79755">
        <ele>733</ele>
        <time>2019-03-29T15:02:26Z</time>
      </trkpt>
      <trkpt lat="44.42043" lon="5.79762">
        <ele>733</ele>
        <time>2019-03-29T15:02:27Z</time>
      </trkpt>
      <trkpt lat="44.4204" lon="5.79768">
        <ele>733</ele>
        <time>2019-03-29T15:02:28Z</time>
      </trkpt>
      <trkpt lat="44.42038" lon="5.79775">
        <ele>733</ele>
        <time>2019-03-29T15:02:29Z</time>
      </trkpt>
      <trkpt lat="44.42036" lon="5.79781">
        <ele>733</ele>
        <time>2019-03-29T15:02:30Z</time>
      </trkpt>
      <trkpt lat="44.42034" lon="5.79788">
        <ele>733</ele>
        <time>2019-03-29T15:02:31Z</time>
      </trkpt>
      <trkpt lat="44.42033" lon="5.79795">
        <ele>733</ele>
        <time>2019-03-29T15:02:32Z</time>
      </trkpt>
      <trkpt lat="44.42031" lon="5.79803">
        <ele>733</ele>
        <time>2019-03-29T15:02:33Z</time>
      </trkpt>
      <trkpt lat="44.4203" lon="5.7981">
        <ele>733</ele>
        <time>2019-03-29T15:02:34Z</time>
      </trkpt>
      <trkpt lat="44.4203" lon="5.79817">
        <ele>733</ele>
        <time>2019-03-29T15:02:35Z</time>
      </trkpt>
      <trkpt lat="44.42029" lon="5.79824">
        <ele>733</ele>
        <time>2019-03-29T15:02:36Z</time>
      </trkpt>
      <trkpt lat="44.42028" lon="5.79831">
        <ele>733</ele>
        <time>2019-03-29T15:02:37Z</time>
      </trkpt>
      <trkpt lat="44.42027" lon="5.79839">
        <ele>733</ele>
        <time>2019-03-29T15:02:38Z</time>
      </trkpt>
      <trkpt lat="44.42026" lon="5.79846">
        <ele>733</ele>
        <time>2019-03-29T15:02:39Z</time>
      </trkpt>
      <trkpt lat="44.42024" lon="5.79852">
        <ele>733</ele>
        <time>2019-03-29T15:02:40Z</time>
      </trkpt>
      <trkpt lat="44.4202" lon="5.79858">
        <ele>733</ele>
        <time>2019-03-29T15:02:41Z</time>
      </trkpt>
      <trkpt lat="44.42016" lon="5.79862">
        <ele>733</ele>
        <time>2019-03-29T15:02:42Z</time>
      </trkpt>
      <trkpt lat="44.42011" lon="5.79866">
        <ele>733</ele>
        <time>2019-03-29T15:02:43Z</time>
      </trkpt>
      <trkpt lat="44.42005" lon="5.79868">
        <ele>733</ele>
        <time>2019-03-29T15:02:44Z</time>
      </trkpt>
      <trkpt lat="44.41999" lon="5.79869">
        <ele>733</ele>
        <time>2019-03-29T15:02:45Z</time>
      </trkpt>
      <trkpt lat="44.41993" lon="5.79869">
        <ele>733</ele>
        <time>2019-03-29T15:02:46Z</time>
      </trkpt>
      <trkpt lat="44.41987" lon="5.7987">
        <ele>733</ele>
        <time>2019-03-29T15:02:47Z</time>
      </trkpt>
      <trkpt lat="44.4198" lon="5.7987">
        <ele>733</ele>
        <time>2019-03-29T15:02:48Z</time>
      </trkpt>
      <trkpt lat="44.41974" lon="5.79871">
        <ele>733</ele>
        <time>2019-03-29T15:02:49Z</time>
      </trkpt>
      <trkpt lat="44.41968" lon="5.79872">
        <ele>733</ele>
        <time>2019-03-29T15:02:50Z</time>
      </trkpt>
      <trkpt lat="44.41962" lon="5.79874">
        <ele>733</ele>
        <time>2019-03-29T15:02:51Z</time>
      </trkpt>
      <trkpt lat="44.41956" lon="5.79877">
        <ele>733</ele>
        <time>2019-03-29T15:02:52Z</time>
      </trkpt>
      <trkpt lat="44.4195" lon="5.79881">
        <ele>733</ele>
        <time>2019-03-29T15:02:53Z</time>
      </trkpt>
      <trkpt lat="44.41945" lon="5.79886">
        <ele>733</ele>
        <time>2019-03-29T15:02:54Z</time>
      </trkpt>
      <trkpt lat="44.4194" lon="5.79891">
        <ele>733</ele>
        <time>2019-03-29T15:02:55Z</time>
      </trkpt>
      <trkpt lat="44.41935" lon="5.79897">
        <ele>733</ele>
        <time>2019-03-29T15:02:56Z</time>
      </trkpt>
      <trkpt lat="44.4193" lon="5.79903">
        <ele>733</ele>
        <time>2019-03-29T15:02:57Z</time>
      </trkpt>
      <trkpt lat="44.41925" lon="5.79909">
        <ele>733</ele>
        <time>2019-03-29T15:02:58Z</time>
      </trkpt>
      <trkpt lat="44.41921" lon="5.79915">
        <ele>733</ele>
        <time>2019-03-29T15:02:59Z</time>
      </trkpt>
      <trkpt lat="44.41916" lon="5.7992">
        <ele>733</ele>
        <time>2019-03-29T15:03:00Z</time>
      </trkpt>
      <trkpt lat="44.41911" lon="5.79925">
        <ele>733</ele>
        <time>2019-03-29T15:03:01Z</time>
      </trkpt>
      <trkpt lat="44.41906" lon="5.7993">
        <ele>733</ele>
        <time>2019-03-29T15:03:02Z</time>
      </trkpt>
      <trkpt lat="44.41901" lon="5.79935">
        <ele>733</ele>
        <time>2019-03-29T15:03:03Z</time>
      </trkpt>
      <trkpt lat="44.41896" lon="5.7994">
        <ele>733</ele>
        <time>2019-03-29T15:03:04Z</time>
      </trkpt>
      <trkpt lat="44.41891" lon="5.79945">
        <ele>733</ele>
        <time>2019-03-29T15:03:05Z</time>
      </trkpt>
      <trkpt lat="44.41887" lon="5.7995">
        <ele>733</ele>
        <time>2019-03-29T15:03:06Z</time>
      </trkpt>
      <trkpt lat="44.41882" lon="5.79956">
        <ele>733</ele>
        <time>2019-03-29T15:03:07Z</time>
      </trkpt>
      <trkpt lat="44.41879" lon="5.79962">
        <ele>733</ele>
        <time>2019-03-29T15:03:08Z</time>
      </trkpt>
      <trkpt lat="44.41875" lon="5.79969">
        <ele>733</ele>
        <time>2019-03-29T15:03:09Z</time>
      </trkpt>
      <trkpt lat="44.41871" lon="5.79976">
        <ele>733</ele>
        <time>2019-03-29T15:03:10Z</time>
      </trkpt>
      <trkpt lat="44.41868" lon="5.79982">
        <ele>733</ele>
        <time>2019-03-29T15:03:11Z</time>
      </trkpt>
      <trkpt lat="44.41864" lon="5.79989">
        <ele>733</ele>
        <time>2019-03-29T15:03:12Z</time>
      </trkpt>
      <trkpt lat="44.41861" lon="5.79996">
        <ele>733</ele>
        <time>2019-03-29T15:03:13Z</time>
      </trkpt>
      <trkpt lat="44.41858" lon="5.80003">
        <ele>733</ele>
        <time>2019-03-29T15:03:14Z</time>
      </trkpt>
      <trkpt lat="44.41855" lon="5.8001">
        <ele>733</ele>
        <time>2019-03-29T15:03:15Z</time>
      </trkpt>
      <trkpt lat="44.41851" lon="5.80017">
        <ele>733</ele>
        <time>2019-03-29T15:03:16Z</time>
      </trkpt>
      <trkpt lat="44.41847" lon="5.80023">
        <ele>733</ele>
        <time>2019-03-29T15:03:17Z</time>
      </trkpt>
      <trkpt lat="44.41843" lon="5.8003">
        <ele>733</ele>
        <time>2019-03-29T15:03:18Z</time>
      </trkpt>
      <trkpt lat="44.4184" lon="5.80036">
        <ele>733</ele>
        <time>2019-03-29T15:03:19Z</time>
      </trkpt>
      <trkpt lat="44.41836" lon="5.80042">
        <ele>733</ele>
        <time>2019-03-29T15:03:20Z</time>
      </trkpt>
      <trkpt lat="44.41832" lon="5.80047">
        <ele>733</ele>
        <time>2019-03-29T15:03:21Z</time>
      </trkpt>
      <trkpt lat="44.41828" lon="5.80052">
        <ele>733</ele>
        <time>2019-03-29T15:03:22Z</time>
      </trkpt>
      <trkpt lat="44.41824" lon="5.80057">
        <ele>733</ele>
        <time>2019-03-29T15:03:23Z</time>
      </trkpt>
      <trkpt lat="44.41821" lon="5.80063">
        <ele>733</ele>
        <time>2019-03-29T15:03:24Z</time>
      </trkpt>
      <trkpt lat="44.41817" lon="5.80068">
        <ele>733</ele>
        <time>2019-03-29T15:03:25Z</time>
      </trkpt>
      <trkpt lat="44.41814" lon="5.80074">
        <ele>733</ele>
        <time>2019-03-29T15:03:26Z</time>
      </trkpt>
      <trkpt lat="44.4181" lon="5.80079">
        <ele>733</ele>
        <time>2019-03-29T15:03:27Z</time>
      </trkpt>
      <trkpt lat="44.41806" lon="5.80085">
        <ele>733</ele>
        <time>2019-03-29T15:03:28Z</time>
      </trkpt>
      <trkpt lat="44.41802" lon="5.80091">
        <ele>733</ele>
        <time>2019-03-29T15:03:29Z</time>
      </trkpt>
      <trkpt lat="44.41798" lon="5.80096">
        <ele>733</ele>
        <time>2019-03-29T15:03:30Z</time>
      </trkpt>
      <trkpt lat="44.41794" lon="5.80101">
        <ele>733</ele>
        <time>2019-03-29T15:03:31Z</time>
      </trkpt>
      <trkpt lat="44.4179" lon="5.80107">
        <ele>733</ele>
        <time>2019-03-29T15:03:32Z</time>
      </trkpt>
      <trkpt lat="44.41786" lon="5.80112">
        <ele>733</ele>
        <time>2019-03-29T15:03:33Z</time>
      </trkpt>
      <trkpt lat="44.41782" lon="5.80118">
        <ele>733</ele>
        <time>2019-03-29T15:03:34Z</time>
      </trkpt>
      <trkpt lat="44.41778" lon="5.80123">
        <ele>733</ele>
        <time>2019-03-29T15:03:35Z</time>
      </trkpt>
      <trkpt lat="44.41774" lon="5.80127">
        <ele>733</ele>
        <time>2019-03-29T15:03:36Z</time>
      </trkpt>
      <trkpt lat="44.41769" lon="5.80132">
        <ele>733</ele>
        <time>2019-03-29T15:03:37Z</time>
      </trkpt>
      <trkpt lat="44.41764" lon="5.80137">
        <ele>733</ele>
        <time>2019-03-29T15:03:38Z</time>
      </trkpt>
      <trkpt lat="44.41758" lon="5.80141">
        <ele>733</ele>
        <time>2019-03-29T15:03:39Z</time>
      </trkpt>
      <trkpt lat="44.41753" lon="5.80146">
        <ele>733</ele>
        <time>2019-03-29T15:03:40Z</time>
      </trkpt>
      <trkpt lat="44.41747" lon="5.8015">
        <ele>733</ele>
        <time>2019-03-29T15:03:41Z</time>
      </trkpt>
      <trkpt lat="44.41742" lon="5.80154">
        <ele>733</ele>
        <time>2019-03-29T15:03:42Z</time>
      </trkpt>
      <trkpt lat="44.41736" lon="5.80158">
        <ele>733</ele>
        <time>2019-03-29T15:03:43Z</time>
      </trkpt>
      <trkpt lat="44.41731" lon="5.80162">
        <ele>733</ele>
        <time>2019-03-29T15:03:44Z</time>
      </trkpt>
      <trkpt lat="44.41726" lon="5.80167">
        <ele>733</ele>
        <time>2019-03-29T15:03:45Z</time>
      </trkpt>
      <trkpt lat="44.41721" lon="5.80172">
        <ele>733</ele>
        <time>2019-03-29T15:03:46Z</time>
      </trkpt>
      <trkpt lat="44.41717" lon="5.80178">
        <ele>733</ele>
        <time>2019-03-29T15:03:47Z</time>
      </trkpt>
      <trkpt lat="44.41713" lon="5.80185">
        <ele>733</ele>
        <time>2019-03-29T15:03:48Z</time>
      </trkpt>
      <trkpt lat="44.4171" lon="5.80192">
        <ele>733</ele>
        <time>2019-03-29T15:03:49Z</time>
      </trkpt>
      <trkpt lat="44.41708" lon="5.802">
        <ele>733</ele>
        <time>2019-03-29T15:03:50Z</time>
      </trkpt>
      <trkpt lat="44.41706" lon="5.80208">
        <ele>733</ele>
        <time>2019-03-29T15:03:51Z</time>
      </trkpt>
      <trkpt lat="44.41705" lon="5.80216">
        <ele>733</ele>
        <time>2019-03-29T15:03:52Z</time>
      </trkpt>
      <trkpt lat="44.41704" lon="5.80224">
        <ele>733</ele>
        <time>2019-03-29T15:03:53Z</time>
      </trkpt>
      <trkpt lat="44.41702" lon="5.80232">
        <ele>733</ele>
        <time>2019-03-29T15:03:54Z</time>
      </trkpt>
      <trkpt lat="44.41701" lon="5.8024">
        <ele>733</ele>
        <time>2019-03-29T15:03:55Z</time>
      </trkpt>
      <trkpt lat="44.41699" lon="5.80247">
        <ele>733</ele>
        <time>2019-03-29T15:03:56Z</time>
      </trkpt>
      <trkpt lat="44.41697" lon="5.80254">
        <ele>733</ele>
        <time>2019-03-29T15:03:57Z</time>
      </trkpt>
      <trkpt lat="44.41694" lon="5.80261">
        <ele>733</ele>
        <time>2019-03-29T15:03:58Z</time>
      </trkpt>
      <trkpt lat="44.4169" lon="5.80267">
        <ele>733</ele>
        <time>2019-03-29T15:03:59Z</time>
      </trkpt>
      <trkpt lat="44.41687" lon="5.80273">
        <ele>733</ele>
        <time>2019-03-29T15:04:00Z</time>
      </trkpt>
      <trkpt lat="44.41683" lon="5.80278">
        <ele>733</ele>
        <time>2019-03-29T15:04:01Z</time>
      </trkpt>
      <trkpt lat="44.41679" lon="5.80283">
        <ele>733</ele>
        <time>2019-03-29T15:04:02Z</time>
      </trkpt>
      <trkpt lat="44.41674" lon="5.80288">
        <ele>733</ele>
        <time>2019-03-29T15:04:03Z</time>
      </trkpt>
      <trkpt lat="44.4167" lon="5.80293">
        <ele>733</ele>
        <time>2019-03-29T15:04:04Z</time>
      </trkpt>
      <trkpt lat="44.41665" lon="5.80298">
        <ele>733</ele>
        <time>2019-03-29T15:04:05Z</time>
      </trkpt>
      <trkpt lat="44.41661" lon="5.80303">
        <ele>733</ele>
        <time>2019-03-29T15:04:06Z</time>
      </trkpt>
      <trkpt lat="44.41657" lon="5.80307">
        <ele>733</ele>
        <time>2019-03-29T15:04:07Z</time>
      </trkpt>
      <trkpt lat="44.41652" lon="5.80312">
        <ele>733</ele>
        <time>2019-03-29T15:04:08Z</time>
      </trkpt>
      <trkpt lat="44.41648" lon="5.80317">
        <ele>733</ele>
        <time>2019-03-29T15:04:09Z</time>
      </trkpt>
      <trkpt lat="44.41644" lon="5.80322">
        <ele>733</ele>
        <time>2019-03-29T15:04:10Z</time>
      </trkpt>
      <trkpt lat="44.4164" lon="5.80327">
        <ele>733</ele>
        <time>2019-03-29T15:04:11Z</time>
      </trkpt>
      <trkpt lat="44.41636" lon="5.80331">
        <ele>733</ele>
        <time>2019-03-29T15:04:12Z</time>
      </trkpt>
      <trkpt lat="44.41631" lon="5.80336">
        <ele>733</ele>
        <time>2019-03-29T15:04:13Z</time>
      </trkpt>
      <trkpt lat="44.41627" lon="5.80342">
        <ele>733</ele>
        <time>2019-03-29T15:04:14Z</time>
      </trkpt>
      <trkpt lat="44.41622" lon="5.80347">
        <ele>733</ele>
        <time>2019-03-29T15:04:15Z</time>
      </trkpt>
      <trkpt lat="44.41618" lon="5.80352">
        <ele>733</ele>
        <time>2019-03-29T15:04:16Z</time>
      </trkpt>
      <trkpt lat="44.41613" lon="5.80358">
        <ele>733</ele>
        <time>2019-03-29T15:04:17Z</time>
      </trkpt>
      <trkpt lat="44.41609" lon="5.80364">
        <ele>733</ele>
        <time>2019-03-29T15:04:18Z</time>
      </trkpt>
      <trkpt lat="44.41605" lon="5.8037">
        <ele>733</ele>
        <time>2019-03-29T15:04:19Z</time>
      </trkpt>
      <trkpt lat="44.41601" lon="5.80376">
        <ele>733</ele>
        <time>2019-03-29T15:04:20Z</time>
      </trkpt>
      <trkpt lat="44.41597" lon="5.80382">
        <ele>733</ele>
        <time>2019-03-29T15:04:21Z</time>
      </trkpt>
      <trkpt lat="44.41592" lon="5.80388">
        <ele>733</ele>
        <time>2019-03-29T15:04:22Z</time>
      </trkpt>
      <trkpt lat="44.41588" lon="5.80395">
        <ele>733</ele>
        <time>2019-03-29T15:04:23Z</time>
      </trkpt>
      <trkpt lat="44.41584" lon="5.80401">
        <ele>733</ele>
        <time>2019-03-29T15:04:24Z</time>
      </trkpt>
      <trkpt lat="44.4158" lon="5.80408">
        <ele>733</ele>
        <time>2019-03-29T15:04:25Z</time>
      </trkpt>
      <trkpt lat="44.41576" lon="5.80414">
        <ele>733</ele>
        <time>2019-03-29T15:04:26Z</time>
      </trkpt>
      <trkpt lat="44.41571" lon="5.8042">
        <ele>733</ele>
        <time>2019-03-29T15:04:27Z</time>
      </trkpt>
      <trkpt lat="44.41566" lon="5.80427">
        <ele>733</ele>
        <time>2019-03-29T15:04:28Z</time>
      </trkpt>
      <trkpt lat="44.41562" lon="5.80433">
        <ele>733</ele>
        <time>2019-03-29T15:04:29Z</time>
      </trkpt>
      <trkpt lat="44.41558" lon="5.8044">
        <ele>733</ele>
        <time>2019-03-29T15:04:30Z</time>
      </trkpt>
      <trkpt lat="44.41553" lon="5.80446">
        <ele>733</ele>
        <time>2019-03-29T15:04:31Z</time>
      </trkpt>
      <trkpt lat="44.41549" lon="5.80452">
        <ele>733</ele>
        <time>2019-03-29T15:04:32Z</time>
      </trkpt>
      <trkpt lat="44.41544" lon="5.80459">
        <ele>733</ele>
        <time>2019-03-29T15:04:33Z</time>
      </trkpt>
      <trkpt lat="44.41539" lon="5.80465">
        <ele>733</ele>
        <time>2019-03-29T15:04:34Z</time>
      </trkpt>
      <trkpt lat="44.41535" lon="5.80471">
        <ele>733</ele>
        <time>2019-03-29T15:04:35Z</time>
      </trkpt>
      <trkpt lat="44.4153" lon="5.80477">
        <ele>733</ele>
        <time>2019-03-29T15:04:36Z</time>
      </trkpt>
      <trkpt lat="44.41526" lon="5.80483">
        <ele>733</ele>
        <time>2019-03-29T15:04:37Z</time>
      </trkpt>
      <trkpt lat="44.41521" lon="5.80489">
        <ele>733</ele>
        <time>2019-03-29T15:04:38Z</time>
      </trkpt>
      <trkpt lat="44.41517" lon="5.80495">
        <ele>733</ele>
        <time>2019-03-29T15:04:39Z</time>
      </trkpt>
      <trkpt lat="44.41512" lon="5.80501">
        <ele>733</ele>
        <time>2019-03-29T15:04:40Z</time>
      </trkpt>
      <trkpt lat="44.41507" lon="5.80507">
        <ele>733</ele>
        <time>2019-03-29T15:04:41Z</time>
      </trkpt>
      <trkpt lat="44.41503" lon="5.80513">
        <ele>733</ele>
        <time>2019-03-29T15:04:42Z</time>
      </trkpt>
      <trkpt lat="44.41498" lon="5.8052">
        <ele>733</ele>
        <time>2019-03-29T15:04:43Z</time>
      </trkpt>
      <trkpt lat="44.41494" lon="5.80527">
        <ele>733</ele>
        <time>2019-03-29T15:04:44Z</time>
      </trkpt>
      <trkpt lat="44.4149" lon="5.80533">
        <ele>733</ele>
        <time>2019-03-29T15:04:45Z</time>
      </trkpt>
      <trkpt lat="44.41486" lon="5.8054">
        <ele>733</ele>
        <time>2019-03-29T15:04:46Z</time>
      </trkpt>
      <trkpt lat="44.41483" lon="5.80548">
        <ele>733</ele>
        <time>2019-03-29T15:04:47Z</time>
      </trkpt>
      <trkpt lat="44.41481" lon="5.80555">
        <ele>733</ele>
        <time>2019-03-29T15:04:48Z</time>
      </trkpt>
      <trkpt lat="44.41478" lon="5.80562">
        <ele>733</ele>
        <time>2019-03-29T15:04:49Z</time>
      </trkpt>
      <trkpt lat="44.41476" lon="5.80569">
        <ele>733</ele>
        <time>2019-03-29T15:04:50Z</time>
      </trkpt>
      <trkpt lat="44.41475" lon="5.80576">
        <ele>733</ele>
        <time>2019-03-29T15:04:51Z</time>
      </trkpt>
      <trkpt lat="44.41474" lon="5.80583">
        <ele>733</ele>
        <time>2019-03-29T15:04:52Z</time>
      </trkpt>
      <trkpt lat="44.41473" lon="5.80589">
        <ele>733</ele>
        <time>2019-03-29T15:04:53Z</time>
      </trkpt>
      <trkpt lat="44.41472" lon="5.80595">
        <ele>733</ele>
        <time>2019-03-29T15:04:54Z</time>
      </trkpt>
      <trkpt lat="44.41472" lon="5.80601">
        <ele>733</ele>
        <time>2019-03-29T15:04:55Z</time>
      </trkpt>
      <trkpt lat="44.41473" lon="5.80607">
        <ele>733</ele>
        <time>2019-03-29T15:04:56Z</time>
      </trkpt>
      <trkpt lat="44.41473" lon="5.80612">
        <ele>733</ele>
        <time>2019-03-29T15:04:57Z</time>
      </trkpt>
      <trkpt lat="44.41475" lon="5.80618">
        <ele>734</ele>
        <time>2019-03-29T15:04:58Z</time>
      </trkpt>
      <trkpt lat="44.41476" lon="5.80624">
        <ele>734</ele>
        <time>2019-03-29T15:04:59Z</time>
      </trkpt>
      <trkpt lat="44.41478" lon="5.8063">
        <ele>735</ele>
        <time>2019-03-29T15:05:00Z</time>
      </trkpt>
      <trkpt lat="44.41479" lon="5.80637">
        <ele>735</ele>
        <time>2019-03-29T15:05:01Z</time>
      </trkpt>
      <trkpt lat="44.41481" lon="5.80642">
        <ele>735</ele>
        <time>2019-03-29T15:05:02Z</time>
      </trkpt>
      <trkpt lat="44.41483" lon="5.80647">
        <ele>736</ele>
        <time>2019-03-29T15:05:03Z</time>
      </trkpt>
      <trkpt lat="44.41485" lon="5.80653">
        <ele>736</ele>
        <time>2019-03-29T15:05:04Z</time>
      </trkpt>
      <trkpt lat="44.41487" lon="5.80658">
        <ele>736</ele>
        <time>2019-03-29T15:05:05Z</time>
      </trkpt>
      <trkpt lat="44.41489" lon="5.80664">
        <ele>737</ele>
        <time>2019-03-29T15:05:06Z</time>
      </trkpt>
      <trkpt lat="44.41491" lon="5.8067">
        <ele>737</ele>
        <time>2019-03-29T15:05:07Z</time>
      </trkpt>
      <trkpt lat="44.41492" lon="5.80676">
        <ele>737</ele>
        <time>2019-03-29T15:05:08Z</time>
      </trkpt>
      <trkpt lat="44.41494" lon="5.80682">
        <ele>737</ele>
        <time>2019-03-29T15:05:09Z</time>
      </trkpt>
      <trkpt lat="44.41495" lon="5.80688">
        <ele>738</ele>
        <time>2019-03-29T15:05:10Z</time>
      </trkpt>
      <trkpt lat="44.41497" lon="5.80694">
        <ele>738</ele>
        <time>2019-03-29T15:05:11Z</time>
      </trkpt>
      <trkpt lat="44.41498" lon="5.807">
        <ele>738</ele>
        <time>2019-03-29T15:05:12Z</time>
      </trkpt>
      <trkpt lat="44.41499" lon="5.80706">
        <ele>738</ele>
        <time>2019-03-29T15:05:13Z</time>
      </trkpt>
      <trkpt lat="44.41501" lon="5.80712">
        <ele>738</ele>
        <time>2019-03-29T15:05:14Z</time>
      </trkpt>
      <trkpt lat="44.41502" lon="5.80718">
        <ele>739</ele>
        <time>2019-03-29T15:05:15Z</time>
      </trkpt>
      <trkpt lat="44.41503" lon="5.80724">
        <ele>739</ele>
        <time>2019-03-29T15:05:16Z</time>
      </trkpt>
      <trkpt lat="44.41503" lon="5.80731">
        <ele>739</ele>
        <time>2019-03-29T15:05:17Z</time>
      </trkpt>
      <trkpt lat="44.41503" lon="5.80737">
        <ele>739</ele>
        <time>2019-03-29T15:05:18Z</time>
      </trkpt>
      <trkpt lat="44.41504" lon="5.80743">
        <ele>739</ele>
        <time>2019-03-29T15:05:19Z</time>
      </trkpt>
      <trkpt lat="44.41503" lon="5.80749">
        <ele>739</ele>
        <time>2019-03-29T15:05:20Z</time>
      </trkpt>
      <trkpt lat="44.41503" lon="5.80755">
        <ele>740</ele>
        <time>2019-03-29T15:05:21Z</time>
      </trkpt>
      <trkpt lat="44.41503" lon="5.80761">
        <ele>740</ele>
        <time>2019-03-29T15:05:22Z</time>
      </trkpt>
      <trkpt lat="44.41502" lon="5.80767">
        <ele>740</ele>
        <time>2019-03-29T15:05:23Z</time>
      </trkpt>
      <trkpt lat="44.41502" lon="5.80773">
        <ele>740</ele>
        <time>2019-03-29T15:05:24Z</time>
      </trkpt>
      <trkpt lat="44.41502" lon="5.80779">
        <ele>740</ele>
        <time>2019-03-29T15:05:25Z</time>
      </trkpt>
      <trkpt lat="44.41501" lon="5.80785">
        <ele>740</ele>
        <time>2019-03-29T15:05:26Z</time>
      </trkpt>
      <trkpt lat="44.41501" lon="5.80791">
        <ele>741</ele>
        <time>2019-03-29T15:05:27Z</time>
      </trkpt>
      <trkpt lat="44.41501" lon="5.80797">
        <ele>741</ele>
        <time>2019-03-29T15:05:28Z</time>
      </trkpt>
      <trkpt lat="44.41501" lon="5.80804">
        <ele>741</ele>
        <time>2019-03-29T15:05:29Z</time>
      </trkpt>
      <trkpt lat="44.415" lon="5.8081">
        <ele>741</ele>
        <time>2019-03-29T15:05:30Z</time>
      </trkpt>
      <trkpt lat="44.415" lon="5.80817">
        <ele>741</ele>
        <time>2019-03-29T15:05:31Z</time>
      </trkpt>
      <trkpt lat="44.415" lon="5.80823">
        <ele>741</ele>
        <time>2019-03-29T15:05:32Z</time>
      </trkpt>
      <trkpt lat="44.415" lon="5.80829">
        <ele>741</ele>
        <time>2019-03-29T15:05:33Z</time>
      </trkpt>
      <trkpt lat="44.415" lon="5.80835">
        <ele>742</ele>
        <time>2019-03-29T15:05:34Z</time>
      </trkpt>
      <trkpt lat="44.415" lon="5.80841">
        <ele>742</ele>
        <time>2019-03-29T15:05:35Z</time>
      </trkpt>
      <trkpt lat="44.415" lon="5.80848">
        <ele>742</ele>
        <time>2019-03-29T15:05:36Z</time>
      </trkpt>
      <trkpt lat="44.415" lon="5.80854">
        <ele>742</ele>
        <time>2019-03-29T15:05:37Z</time>
      </trkpt>
      <trkpt lat="44.415" lon="5.8086">
        <ele>742</ele>
        <time>2019-03-29T15:05:38Z</time>
      </trkpt>
      <trkpt lat="44.415" lon="5.80867">
        <ele>742</ele>
        <time>2019-03-29T15:05:39Z</time>
      </trkpt>
      <trkpt lat="44.415" lon="5.80873">
        <ele>743</ele>
        <time>2019-03-29T15:05:40Z</time>
      </trkpt>
      <trkpt lat="44.415" lon="5.8088">
        <ele>743</ele>
        <time>2019-03-29T15:05:41Z</time>
      </trkpt>
      <trkpt lat="44.415" lon="5.80886">
        <ele>743</ele>
        <time>2019-03-29T15:05:42Z</time>
      </trkpt>
      <trkpt lat="44.415" lon="5.80893">
        <ele>743</ele>
        <time>2019-03-29T15:05:43Z</time>
      </trkpt>
      <trkpt lat="44.415" lon="5.80899">
        <ele>744</ele>
        <time>2019-03-29T15:05:44Z</time>
      </trkpt>
      <trkpt lat="44.41499" lon="5.80906">
        <ele>744</ele>
        <time>2019-03-29T15:05:45Z</time>
      </trkpt>
      <trkpt lat="44.41499" lon="5.80913">
        <ele>744</ele>
        <time>2019-03-29T15:05:46Z</time>
      </trkpt>
      <trkpt lat="44.41499" lon="5.8092">
        <ele>744</ele>
        <time>2019-03-29T15:05:47Z</time>
      </trkpt>
      <trkpt lat="44.41499" lon="5.80926">
        <ele>744</ele>
        <time>2019-03-29T15:05:48Z</time>
      </trkpt>
      <trkpt lat="44.41499" lon="5.80933">
        <ele>744</ele>
        <time>2019-03-29T15:05:49Z</time>
      </trkpt>
      <trkpt lat="44.41499" lon="5.8094">
        <ele>745</ele>
        <time>2019-03-29T15:05:50Z</time>
      </trkpt>
      <trkpt lat="44.41499" lon="5.80946">
        <ele>745</ele>
        <time>2019-03-29T15:05:51Z</time>
      </trkpt>
      <trkpt lat="44.41499" lon="5.80953">
        <ele>745</ele>
        <time>2019-03-29T15:05:52Z</time>
      </trkpt>
      <trkpt lat="44.41498" lon="5.8096">
        <ele>745</ele>
        <time>2019-03-29T15:05:53Z</time>
      </trkpt>
      <trkpt lat="44.41498" lon="5.80966">
        <ele>745</ele>
        <time>2019-03-29T15:05:54Z</time>
      </trkpt>
      <trkpt lat="44.41498" lon="5.80973">
        <ele>745</ele>
        <time>2019-03-29T15:05:55Z</time>
      </trkpt>
      <trkpt lat="44.41497" lon="5.80979">
        <ele>745</ele>
        <time>2019-03-29T15:05:56Z</time>
      </trkpt>
      <trkpt lat="44.41497" lon="5.80986">
        <ele>746</ele>
        <time>2019-03-29T15:05:57Z</time>
      </trkpt>
      <trkpt lat="44.41496" lon="5.80992">
        <ele>746</ele>
        <time>2019-03-29T15:05:58Z</time>
      </trkpt>
      <trkpt lat="44.41495" lon="5.80998">
        <ele>746</ele>
        <time>2019-03-29T15:05:59Z</time>
      </trkpt>
      <trkpt lat="44.41494" lon="5.81004">
        <ele>746</ele>
        <time>2019-03-29T15:06:00Z</time>
      </trkpt>
      <trkpt lat="44.41494" lon="5.8101">
        <ele>746</ele>
        <time>2019-03-29T15:06:01Z</time>
      </trkpt>
      <trkpt lat="44.41493" lon="5.81017">
        <ele>746</ele>
        <time>2019-03-29T15:06:02Z</time>
      </trkpt>
      <trkpt lat="44.41492" lon="5.81023">
        <ele>746</ele>
        <time>2019-03-29T15:06:03Z</time>
      </trkpt>
      <trkpt lat="44.41492" lon="5.81029">
        <ele>746</ele>
        <time>2019-03-29T15:06:04Z</time>
      </trkpt>
      <trkpt lat="44.41491" lon="5.81035">
        <ele>747</ele>
        <time>2019-03-29T15:06:05Z</time>
      </trkpt>
      <trkpt lat="44.4149" lon="5.81041">
        <ele>747</ele>
        <time>2019-03-29T15:06:06Z</time>
      </trkpt>
      <trkpt lat="44.41489" lon="5.81048">
        <ele>747</ele>
        <time>2019-03-29T15:06:07Z</time>
      </trkpt>
      <trkpt lat="44.41489" lon="5.81054">
        <ele>747</ele>
        <time>2019-03-29T15:06:08Z</time>
      </trkpt>
      <trkpt lat="44.41488" lon="5.8106">
        <ele>747</ele>
        <time>2019-03-29T15:06:09Z</time>
      </trkpt>
      <trkpt lat="44.41487" lon="5.81066">
        <ele>748</ele>
        <time>2019-03-29T15:06:10Z</time>
      </trkpt>
      <trkpt lat="44.41486" lon="5.81073">
        <ele>748</ele>
        <time>2019-03-29T15:06:11Z</time>
      </trkpt>
      <trkpt lat="44.41486" lon="5.81079">
        <ele>748</ele>
        <time>2019-03-29T15:06:12Z</time>
      </trkpt>
      <trkpt lat="44.41485" lon="5.81085">
        <ele>748</ele>
        <time>2019-03-29T15:06:13Z</time>
      </trkpt>
      <trkpt lat="44.41484" lon="5.81091">
        <ele>748</ele>
        <time>2019-03-29T15:06:14Z</time>
      </trkpt>
      <trkpt lat="44.41483" lon="5.81098">
        <ele>748</ele>
        <time>2019-03-29T15:06:15Z</time>
      </trkpt>
      <trkpt lat="44.41483" lon="5.81104">
        <ele>749</ele>
        <time>2019-03-29T15:06:16Z</time>
      </trkpt>
      <trkpt lat="44.41482" lon="5.8111">
        <ele>749</ele>
        <time>2019-03-29T15:06:17Z</time>
      </trkpt>
      <trkpt lat="44.41481" lon="5.81116">
        <ele>749</ele>
        <time>2019-03-29T15:06:18Z</time>
      </trkpt>
      <trkpt lat="44.41481" lon="5.81122">
        <ele>749</ele>
        <time>2019-03-29T15:06:19Z</time>
      </trkpt>
      <trkpt lat="44.4148" lon="5.81128">
        <ele>749</ele>
        <time>2019-03-29T15:06:20Z</time>
      </trkpt>
      <trkpt lat="44.41479" lon="5.81133">
        <ele>749</ele>
        <time>2019-03-29T15:06:21Z</time>
      </trkpt>
      <trkpt lat="44.41478" lon="5.81139">
        <ele>749</ele>
        <time>2019-03-29T15:06:22Z</time>
      </trkpt>
      <trkpt lat="44.41478" lon="5.81145">
        <ele>750</ele>
        <time>2019-03-29T15:06:23Z</time>
      </trkpt>
      <trkpt lat="44.41478" lon="5.8115">
        <ele>750</ele>
        <time>2019-03-29T15:06:24Z</time>
      </trkpt>
      <trkpt lat="44.41477" lon="5.81156">
        <ele>750</ele>
        <time>2019-03-29T15:06:25Z</time>
      </trkpt>
      <trkpt lat="44.41477" lon="5.81162">
        <ele>750</ele>
        <time>2019-03-29T15:06:26Z</time>
      </trkpt>
      <trkpt lat="44.41477" lon="5.81168">
        <ele>750</ele>
        <time>2019-03-29T15:06:27Z</time>
      </trkpt>
      <trkpt lat="44.41477" lon="5.81174">
        <ele>751</ele>
        <time>2019-03-29T15:06:28Z</time>
      </trkpt>
      <trkpt lat="44.41477" lon="5.8118">
        <ele>751</ele>
        <time>2019-03-29T15:06:29Z</time>
      </trkpt>
      <trkpt lat="44.41477" lon="5.81186">
        <ele>751</ele>
        <time>2019-03-29T15:06:30Z</time>
      </trkpt>
      <trkpt lat="44.41476" lon="5.81192">
        <ele>751</ele>
        <time>2019-03-29T15:06:31Z</time>
      </trkpt>
      <trkpt lat="44.41476" lon="5.81199">
        <ele>751</ele>
        <time>2019-03-29T15:06:32Z</time>
      </trkpt>
      <trkpt lat="44.41475" lon="5.81206">
        <ele>751</ele>
        <time>2019-03-29T15:06:33Z</time>
      </trkpt>
      <trkpt lat="44.41475" lon="5.81212">
        <ele>751</ele>
        <time>2019-03-29T15:06:34Z</time>
      </trkpt>
      <trkpt lat="44.41474" lon="5.81218">
        <ele>751</ele>
        <time>2019-03-29T15:06:35Z</time>
      </trkpt>
      <trkpt lat="44.41473" lon="5.81225">
        <ele>752</ele>
        <time>2019-03-29T15:06:36Z</time>
      </trkpt>
      <trkpt lat="44.41471" lon="5.81232">
        <ele>752</ele>
        <time>2019-03-29T15:06:37Z</time>
      </trkpt>
      <trkpt lat="44.4147" lon="5.81238">
        <ele>752</ele>
        <time>2019-03-29T15:06:38Z</time>
      </trkpt>
      <trkpt lat="44.41468" lon="5.81245">
        <ele>752</ele>
        <time>2019-03-29T15:06:39Z</time>
      </trkpt>
      <trkpt lat="44.41467" lon="5.81251">
        <ele>752</ele>
        <time>2019-03-29T15:06:40Z</time>
      </trkpt>
      <trkpt lat="44.41466" lon="5.81257">
        <ele>752</ele>
        <time>2019-03-29T15:06:41Z</time>
      </trkpt>
      <trkpt lat="44.41464" lon="5.81263">
        <ele>752</ele>
        <time>2019-03-29T15:06:42Z</time>
      </trkpt>
      <trkpt lat="44.41463" lon="5.8127">
        <ele>752</ele>
        <time>2019-03-29T15:06:43Z</time>
      </trkpt>
      <trkpt lat="44.41461" lon="5.81276">
        <ele>752</ele>
        <time>2019-03-29T15:06:44Z</time>
      </trkpt>
      <trkpt lat="44.41459" lon="5.81282">
        <ele>752</ele>
        <time>2019-03-29T15:06:45Z</time>
      </trkpt>
      <trkpt lat="44.41457" lon="5.81288">
        <ele>752</ele>
        <time>2019-03-29T15:06:46Z</time>
      </trkpt>
      <trkpt lat="44.41455" lon="5.81294">
        <ele>752</ele>
        <time>2019-03-29T15:06:47Z</time>
      </trkpt>
      <trkpt lat="44.41454" lon="5.81299">
        <ele>752</ele>
        <time>2019-03-29T15:06:48Z</time>
      </trkpt>
      <trkpt lat="44.41452" lon="5.81305">
        <ele>753</ele>
        <time>2019-03-29T15:06:49Z</time>
      </trkpt>
      <trkpt lat="44.4145" lon="5.81311">
        <ele>753</ele>
        <time>2019-03-29T15:06:50Z</time>
      </trkpt>
      <trkpt lat="44.41448" lon="5.81316">
        <ele>753</ele>
        <time>2019-03-29T15:06:51Z</time>
      </trkpt>
      <trkpt lat="44.41446" lon="5.81322">
        <ele>753</ele>
        <time>2019-03-29T15:06:52Z</time>
      </trkpt>
      <trkpt lat="44.41444" lon="5.81327">
        <ele>753</ele>
        <time>2019-03-29T15:06:53Z</time>
      </trkpt>
      <trkpt lat="44.41442" lon="5.81332">
        <ele>753</ele>
        <time>2019-03-29T15:06:54Z</time>
      </trkpt>
      <trkpt lat="44.4144" lon="5.81337">
        <ele>754</ele>
        <time>2019-03-29T15:06:55Z</time>
      </trkpt>
      <trkpt lat="44.41438" lon="5.81342">
        <ele>754</ele>
        <time>2019-03-29T15:06:56Z</time>
      </trkpt>
      <trkpt lat="44.41436" lon="5.81347">
        <ele>754</ele>
        <time>2019-03-29T15:06:57Z</time>
      </trkpt>
      <trkpt lat="44.41434" lon="5.81352">
        <ele>754</ele>
        <time>2019-03-29T15:06:58Z</time>
      </trkpt>
      <trkpt lat="44.41432" lon="5.81357">
        <ele>754</ele>
        <time>2019-03-29T15:06:59Z</time>
      </trkpt>
      <trkpt lat="44.4143" lon="5.81362">
        <ele>755</ele>
        <time>2019-03-29T15:07:00Z</time>
      </trkpt>
      <trkpt lat="44.41428" lon="5.81367">
        <ele>755</ele>
        <time>2019-03-29T15:07:01Z</time>
      </trkpt>
      <trkpt lat="44.41427" lon="5.81372">
        <ele>755</ele>
        <time>2019-03-29T15:07:02Z</time>
      </trkpt>
      <trkpt lat="44.41425" lon="5.81377">
        <ele>755</ele>
        <time>2019-03-29T15:07:03Z</time>
      </trkpt>
      <trkpt lat="44.41423" lon="5.81382">
        <ele>755</ele>
        <time>2019-03-29T15:07:04Z</time>
      </trkpt>
      <trkpt lat="44.41421" lon="5.81387">
        <ele>756</ele>
        <time>2019-03-29T15:07:05Z</time>
      </trkpt>
      <trkpt lat="44.4142" lon="5.81392">
        <ele>756</ele>
        <time>2019-03-29T15:07:06Z</time>
      </trkpt>
      <trkpt lat="44.41418" lon="5.81396">
        <ele>756</ele>
        <time>2019-03-29T15:07:07Z</time>
      </trkpt>
      <trkpt lat="44.41416" lon="5.81401">
        <ele>756</ele>
        <time>2019-03-29T15:07:08Z</time>
      </trkpt>
      <trkpt lat="44.41414" lon="5.81406">
        <ele>756</ele>
        <time>2019-03-29T15:07:09Z</time>
      </trkpt>
      <trkpt lat="44.41412" lon="5.81411">
        <ele>757</ele>
        <time>2019-03-29T15:07:10Z</time>
      </trkpt>
      <trkpt lat="44.4141" lon="5.81415">
        <ele>757</ele>
        <time>2019-03-29T15:07:11Z</time>
      </trkpt>
      <trkpt lat="44.41409" lon="5.8142">
        <ele>757</ele>
        <time>2019-03-29T15:07:12Z</time>
      </trkpt>
      <trkpt lat="44.41407" lon="5.81424">
        <ele>757</ele>
        <time>2019-03-29T15:07:13Z</time>
      </trkpt>
      <trkpt lat="44.41405" lon="5.81429">
        <ele>757</ele>
        <time>2019-03-29T15:07:14Z</time>
      </trkpt>
      <trkpt lat="44.41404" lon="5.81433">
        <ele>758</ele>
        <time>2019-03-29T15:07:15Z</time>
      </trkpt>
      <trkpt lat="44.41402" lon="5.81438">
        <ele>758</ele>
        <time>2019-03-29T15:07:16Z</time>
      </trkpt>
      <trkpt lat="44.41401" lon="5.81442">
        <ele>758</ele>
        <time>2019-03-29T15:07:17Z</time>
      </trkpt>
      <trkpt lat="44.41399" lon="5.81447">
        <ele>758</ele>
        <time>2019-03-29T15:07:18Z</time>
      </trkpt>
      <trkpt lat="44.41397" lon="5.81451">
        <ele>758</ele>
        <time>2019-03-29T15:07:19Z</time>
      </trkpt>
      <trkpt lat="44.41395" lon="5.81455">
        <ele>758</ele>
        <time>2019-03-29T15:07:20Z</time>
      </trkpt>
      <trkpt lat="44.41394" lon="5.8146">
        <ele>758</ele>
        <time>2019-03-29T15:07:21Z</time>
      </trkpt>
      <trkpt lat="44.41392" lon="5.81464">
        <ele>758</ele>
        <time>2019-03-29T15:07:22Z</time>
      </trkpt>
      <trkpt lat="44.4139" lon="5.81469">
        <ele>758</ele>
        <time>2019-03-29T15:07:23Z</time>
      </trkpt>
      <trkpt lat="44.41389" lon="5.81473">
        <ele>758</ele>
        <time>2019-03-29T15:07:24Z</time>
      </trkpt>
      <trkpt lat="44.41387" lon="5.81478">
        <ele>759</ele>
        <time>2019-03-29T15:07:25Z</time>
      </trkpt>
      <trkpt lat="44.41385" lon="5.81483">
        <ele>759</ele>
        <time>2019-03-29T15:07:26Z</time>
      </trkpt>
      <trkpt lat="44.41383" lon="5.81487">
        <ele>759</ele>
        <time>2019-03-29T15:07:27Z</time>
      </trkpt>
      <trkpt lat="44.41382" lon="5.81492">
        <ele>759</ele>
        <time>2019-03-29T15:07:28Z</time>
      </trkpt>
      <trkpt lat="44.4138" lon="5.81496">
        <ele>759</ele>
        <time>2019-03-29T15:07:29Z</time>
      </trkpt>
      <trkpt lat="44.41378" lon="5.81501">
        <ele>759</ele>
        <time>2019-03-29T15:07:30Z</time>
      </trkpt>
      <trkpt lat="44.41377" lon="5.81505">
        <ele>759</ele>
        <time>2019-03-29T15:07:31Z</time>
      </trkpt>
      <trkpt lat="44.41375" lon="5.8151">
        <ele>759</ele>
        <time>2019-03-29T15:07:32Z</time>
      </trkpt>
      <trkpt lat="44.41373" lon="5.81514">
        <ele>759</ele>
        <time>2019-03-29T15:07:33Z</time>
      </trkpt>
      <trkpt lat="44.41371" lon="5.81519">
        <ele>760</ele>
        <time>2019-03-29T15:07:34Z</time>
      </trkpt>
      <trkpt lat="44.4137" lon="5.81523">
        <ele>760</ele>
        <time>2019-03-29T15:07:35Z</time>
      </trkpt>
      <trkpt lat="44.41368" lon="5.81528">
        <ele>760</ele>
        <time>2019-03-29T15:07:36Z</time>
      </trkpt>
      <trkpt lat="44.41366" lon="5.81533">
        <ele>760</ele>
        <time>2019-03-29T15:07:37Z</time>
      </trkpt>
      <trkpt lat="44.41365" lon="5.81538">
        <ele>760</ele>
        <time>2019-03-29T15:07:38Z</time>
      </trkpt>
      <trkpt lat="44.41363" lon="5.81543">
        <ele>760</ele>
        <time>2019-03-29T15:07:39Z</time>
      </trkpt>
      <trkpt lat="44.41361" lon="5.81548">
        <ele>760</ele>
        <time>2019-03-29T15:07:40Z</time>
      </trkpt>
      <trkpt lat="44.4136" lon="5.81554">
        <ele>760</ele>
        <time>2019-03-29T15:07:41Z</time>
      </trkpt>
      <trkpt lat="44.41358" lon="5.81558">
        <ele>760</ele>
        <time>2019-03-29T15:07:42Z</time>
      </trkpt>
      <trkpt lat="44.41356" lon="5.81563">
        <ele>760</ele>
        <time>2019-03-29T15:07:43Z</time>
      </trkpt>
      <trkpt lat="44.41355" lon="5.81568">
        <ele>760</ele>
        <time>2019-03-29T15:07:44Z</time>
      </trkpt>
      <trkpt lat="44.41353" lon="5.81573">
        <ele>760</ele>
        <time>2019-03-29T15:07:45Z</time>
      </trkpt>
      <trkpt lat="44.41352" lon="5.81578">
        <ele>760</ele>
        <time>2019-03-29T15:07:46Z</time>
      </trkpt>
      <trkpt lat="44.4135" lon="5.81583">
        <ele>760</ele>
        <time>2019-03-29T15:07:47Z</time>
      </trkpt>
      <trkpt lat="44.41349" lon="5.81588">
        <ele>760</ele>
        <time>2019-03-29T15:07:48Z</time>
      </trkpt>
      <trkpt lat="44.41347" lon="5.81593">
        <ele>760</ele>
        <time>2019-03-29T15:07:49Z</time>
      </trkpt>
      <trkpt lat="44.41346" lon="5.81597">
        <ele>760</ele>
        <time>2019-03-29T15:07:50Z</time>
      </trkpt>
      <trkpt lat="44.41345" lon="5.81602">
        <ele>760</ele>
        <time>2019-03-29T15:07:51Z</time>
      </trkpt>
      <trkpt lat="44.41344" lon="5.81607">
        <ele>760</ele>
        <time>2019-03-29T15:07:52Z</time>
      </trkpt>
      <trkpt lat="44.41342" lon="5.81612">
        <ele>761</ele>
        <time>2019-03-29T15:07:53Z</time>
      </trkpt>
      <trkpt lat="44.41341" lon="5.81617">
        <ele>761</ele>
        <time>2019-03-29T15:07:54Z</time>
      </trkpt>
      <trkpt lat="44.41339" lon="5.81622">
        <ele>761</ele>
        <time>2019-03-29T15:07:55Z</time>
      </trkpt>
      <trkpt lat="44.41338" lon="5.81626">
        <ele>761</ele>
        <time>2019-03-29T15:07:56Z</time>
      </trkpt>
      <trkpt lat="44.41336" lon="5.81631">
        <ele>761</ele>
        <time>2019-03-29T15:07:57Z</time>
      </trkpt>
      <trkpt lat="44.41335" lon="5.81636">
        <ele>761</ele>
        <time>2019-03-29T15:07:58Z</time>
      </trkpt>
      <trkpt lat="44.41333" lon="5.81641">
        <ele>761</ele>
        <time>2019-03-29T15:07:59Z</time>
      </trkpt>
      <trkpt lat="44.41332" lon="5.81645">
        <ele>762</ele>
        <time>2019-03-29T15:08:00Z</time>
      </trkpt>
      <trkpt lat="44.4133" lon="5.81649">
        <ele>762</ele>
        <time>2019-03-29T15:08:01Z</time>
      </trkpt>
      <trkpt lat="44.41329" lon="5.81653">
        <ele>762</ele>
        <time>2019-03-29T15:08:02Z</time>
      </trkpt>
      <trkpt lat="44.41328" lon="5.81658">
        <ele>763</ele>
        <time>2019-03-29T15:08:03Z</time>
      </trkpt>
      <trkpt lat="44.41327" lon="5.81662">
        <ele>763</ele>
        <time>2019-03-29T15:08:04Z</time>
      </trkpt>
      <trkpt lat="44.41326" lon="5.81666">
        <ele>763</ele>
        <time>2019-03-29T15:08:05Z</time>
      </trkpt>
      <trkpt lat="44.41324" lon="5.8167">
        <ele>763</ele>
        <time>2019-03-29T15:08:06Z</time>
      </trkpt>
      <trkpt lat="44.41323" lon="5.81674">
        <ele>764</ele>
        <time>2019-03-29T15:08:07Z</time>
      </trkpt>
      <trkpt lat="44.41322" lon="5.81679">
        <ele>764</ele>
        <time>2019-03-29T15:08:08Z</time>
      </trkpt>
      <trkpt lat="44.41321" lon="5.81683">
        <ele>764</ele>
        <time>2019-03-29T15:08:09Z</time>
      </trkpt>
      <trkpt lat="44.41319" lon="5.81686">
        <ele>764</ele>
        <time>2019-03-29T15:08:10Z</time>
      </trkpt>
      <trkpt lat="44.41318" lon="5.8169">
        <ele>765</ele>
        <time>2019-03-29T15:08:11Z</time>
      </trkpt>
      <trkpt lat="44.41317" lon="5.81694">
        <ele>765</ele>
        <time>2019-03-29T15:08:12Z</time>
      </trkpt>
      <trkpt lat="44.41316" lon="5.81698">
        <ele>765</ele>
        <time>2019-03-29T15:08:13Z</time>
      </trkpt>
      <trkpt lat="44.41315" lon="5.81702">
        <ele>765</ele>
        <time>2019-03-29T15:08:14Z</time>
      </trkpt>
      <trkpt lat="44.41315" lon="5.81706">
        <ele>766</ele>
        <time>2019-03-29T15:08:15Z</time>
      </trkpt>
      <trkpt lat="44.41314" lon="5.8171">
        <ele>766</ele>
        <time>2019-03-29T15:08:16Z</time>
      </trkpt>
      <trkpt lat="44.41313" lon="5.81714">
        <ele>766</ele>
        <time>2019-03-29T15:08:17Z</time>
      </trkpt>
      <trkpt lat="44.41312" lon="5.81718">
        <ele>766</ele>
        <time>2019-03-29T15:08:18Z</time>
      </trkpt>
      <trkpt lat="44.4131" lon="5.81721">
        <ele>766</ele>
        <time>2019-03-29T15:08:19Z</time>
      </trkpt>
      <trkpt lat="44.41309" lon="5.81725">
        <ele>766</ele>
        <time>2019-03-29T15:08:20Z</time>
      </trkpt>
      <trkpt lat="44.41307" lon="5.81728">
        <ele>766</ele>
        <time>2019-03-29T15:08:21Z</time>
      </trkpt>
      <trkpt lat="44.41306" lon="5.81732">
        <ele>766</ele>
        <time>2019-03-29T15:08:22Z</time>
      </trkpt>
      <trkpt lat="44.41305" lon="5.81735">
        <ele>766</ele>
        <time>2019-03-29T15:08:23Z</time>
      </trkpt>
      <trkpt lat="44.41304" lon="5.81738">
        <ele>766</ele>
        <time>2019-03-29T15:08:24Z</time>
      </trkpt>
      <trkpt lat="44.41304" lon="5.81741">
        <ele>766</ele>
        <time>2019-03-29T15:08:25Z</time>
      </trkpt>
      <trkpt lat="44.41303" lon="5.81744">
        <ele>767</ele>
        <time>2019-03-29T15:08:26Z</time>
      </trkpt>
      <trkpt lat="44.41302" lon="5.81748">
        <ele>767</ele>
        <time>2019-03-29T15:08:27Z</time>
      </trkpt>
      <trkpt lat="44.41301" lon="5.81751">
        <ele>767</ele>
        <time>2019-03-29T15:08:28Z</time>
      </trkpt>
      <trkpt lat="44.413" lon="5.81754">
        <ele>767</ele>
        <time>2019-03-29T15:08:29Z</time>
      </trkpt>
      <trkpt lat="44.41299" lon="5.81757">
        <ele>767</ele>
        <time>2019-03-29T15:08:30Z</time>
      </trkpt>
      <trkpt lat="44.41298" lon="5.8176">
        <ele>767</ele>
        <time>2019-03-29T15:08:31Z</time>
      </trkpt>
      <trkpt lat="44.41297" lon="5.81762">
        <ele>767</ele>
        <time>2019-03-29T15:08:32Z</time>
      </trkpt>
      <trkpt lat="44.41296" lon="5.81766">
        <ele>768</ele>
        <time>2019-03-29T15:08:33Z</time>
      </trkpt>
      <trkpt lat="44.41295" lon="5.81769">
        <ele>768</ele>
        <time>2019-03-29T15:08:34Z</time>
      </trkpt>
      <trkpt lat="44.41294" lon="5.81772">
        <ele>768</ele>
        <time>2019-03-29T15:08:35Z</time>
      </trkpt>
      <trkpt lat="44.41293" lon="5.81775">
        <ele>768</ele>
        <time>2019-03-29T15:08:36Z</time>
      </trkpt>
      <trkpt lat="44.41292" lon="5.81778">
        <ele>768</ele>
        <time>2019-03-29T15:08:37Z</time>
      </trkpt>
      <trkpt lat="44.41291" lon="5.81781">
        <ele>769</ele>
        <time>2019-03-29T15:08:38Z</time>
      </trkpt>
      <trkpt lat="44.4129" lon="5.81785">
        <ele>769</ele>
        <time>2019-03-29T15:08:39Z</time>
      </trkpt>
      <trkpt lat="44.41289" lon="5.81789">
        <ele>769</ele>
        <time>2019-03-29T15:08:40Z</time>
      </trkpt>
      <trkpt lat="44.41288" lon="5.81792">
        <ele>769</ele>
        <time>2019-03-29T15:08:41Z</time>
      </trkpt>
      <trkpt lat="44.41288" lon="5.81796">
        <ele>770</ele>
        <time>2019-03-29T15:08:42Z</time>
      </trkpt>
      <trkpt lat="44.41288" lon="5.818">
        <ele>770</ele>
        <time>2019-03-29T15:08:43Z</time>
      </trkpt>
      <trkpt lat="44.41287" lon="5.81804">
        <ele>770</ele>
        <time>2019-03-29T15:08:44Z</time>
      </trkpt>
      <trkpt lat="44.41286" lon="5.81808">
        <ele>770</ele>
        <time>2019-03-29T15:08:45Z</time>
      </trkpt>
      <trkpt lat="44.41285" lon="5.81812">
        <ele>771</ele>
        <time>2019-03-29T15:08:46Z</time>
      </trkpt>
      <trkpt lat="44.41285" lon="5.81816">
        <ele>771</ele>
        <time>2019-03-29T15:08:47Z</time>
      </trkpt>
      <trkpt lat="44.41284" lon="5.8182">
        <ele>771</ele>
        <time>2019-03-29T15:08:48Z</time>
      </trkpt>
      <trkpt lat="44.41283" lon="5.81824">
        <ele>772</ele>
        <time>2019-03-29T15:08:49Z</time>
      </trkpt>
      <trkpt lat="44.41282" lon="5.81828">
        <ele>772</ele>
        <time>2019-03-29T15:08:50Z</time>
      </trkpt>
      <trkpt lat="44.41282" lon="5.81832">
        <ele>772</ele>
        <time>2019-03-29T15:08:51Z</time>
      </trkpt>
      <trkpt lat="44.41281" lon="5.81836">
        <ele>772</ele>
        <time>2019-03-29T15:08:52Z</time>
      </trkpt>
      <trkpt lat="44.41281" lon="5.8184">
        <ele>773</ele>
        <time>2019-03-29T15:08:53Z</time>
      </trkpt>
      <trkpt lat="44.4128" lon="5.81844">
        <ele>773</ele>
        <time>2019-03-29T15:08:54Z</time>
      </trkpt>
      <trkpt lat="44.4128" lon="5.81848">
        <ele>773</ele>
        <time>2019-03-29T15:08:55Z</time>
      </trkpt>
      <trkpt lat="44.41279" lon="5.81853">
        <ele>773</ele>
        <time>2019-03-29T15:08:56Z</time>
      </trkpt>
      <trkpt lat="44.41278" lon="5.81857">
        <ele>773</ele>
        <time>2019-03-29T15:08:57Z</time>
      </trkpt>
      <trkpt lat="44.41278" lon="5.81861">
        <ele>774</ele>
        <time>2019-03-29T15:08:58Z</time>
      </trkpt>
      <trkpt lat="44.41278" lon="5.81866">
        <ele>774</ele>
        <time>2019-03-29T15:08:59Z</time>
      </trkpt>
      <trkpt lat="44.41277" lon="5.8187">
        <ele>774</ele>
        <time>2019-03-29T15:09:00Z</time>
      </trkpt>
      <trkpt lat="44.41276" lon="5.81875">
        <ele>774</ele>
        <time>2019-03-29T15:09:01Z</time>
      </trkpt>
      <trkpt lat="44.41276" lon="5.81879">
        <ele>775</ele>
        <time>2019-03-29T15:09:02Z</time>
      </trkpt>
      <trkpt lat="44.41275" lon="5.81883">
        <ele>775</ele>
        <time>2019-03-29T15:09:03Z</time>
      </trkpt>
      <trkpt lat="44.41275" lon="5.81888">
        <ele>775</ele>
        <time>2019-03-29T15:09:04Z</time>
      </trkpt>
      <trkpt lat="44.41274" lon="5.81892">
        <ele>775</ele>
        <time>2019-03-29T15:09:05Z</time>
      </trkpt>
      <trkpt lat="44.41273" lon="5.81897">
        <ele>775</ele>
        <time>2019-03-29T15:09:06Z</time>
      </trkpt>
      <trkpt lat="44.41272" lon="5.81901">
        <ele>776</ele>
        <time>2019-03-29T15:09:07Z</time>
      </trkpt>
      <trkpt lat="44.41271" lon="5.81906">
        <ele>776</ele>
        <time>2019-03-29T15:09:08Z</time>
      </trkpt>
      <trkpt lat="44.41271" lon="5.8191">
        <ele>776</ele>
        <time>2019-03-29T15:09:09Z</time>
      </trkpt>
      <trkpt lat="44.4127" lon="5.81915">
        <ele>776</ele>
        <time>2019-03-29T15:09:10Z</time>
      </trkpt>
      <trkpt lat="44.4127" lon="5.81919">
        <ele>776</ele>
        <time>2019-03-29T15:09:11Z</time>
      </trkpt>
      <trkpt lat="44.41269" lon="5.81924">
        <ele>777</ele>
        <time>2019-03-29T15:09:12Z</time>
      </trkpt>
      <trkpt lat="44.41268" lon="5.81929">
        <ele>777</ele>
        <time>2019-03-29T15:09:13Z</time>
      </trkpt>
      <trkpt lat="44.41268" lon="5.81933">
        <ele>777</ele>
        <time>2019-03-29T15:09:14Z</time>
      </trkpt>
      <trkpt lat="44.41267" lon="5.81938">
        <ele>777</ele>
        <time>2019-03-29T15:09:15Z</time>
      </trkpt>
      <trkpt lat="44.41266" lon="5.81943">
        <ele>777</ele>
        <time>2019-03-29T15:09:16Z</time>
      </trkpt>
      <trkpt lat="44.41265" lon="5.81947">
        <ele>777</ele>
        <time>2019-03-29T15:09:17Z</time>
      </trkpt>
      <trkpt lat="44.41265" lon="5.81952">
        <ele>778</ele>
        <time>2019-03-29T15:09:18Z</time>
      </trkpt>
      <trkpt lat="44.41265" lon="5.81957">
        <ele>778</ele>
        <time>2019-03-29T15:09:19Z</time>
      </trkpt>
      <trkpt lat="44.41265" lon="5.81961">
        <ele>778</ele>
        <time>2019-03-29T15:09:20Z</time>
      </trkpt>
      <trkpt lat="44.41265" lon="5.81966">
        <ele>778</ele>
        <time>2019-03-29T15:09:21Z</time>
      </trkpt>
      <trkpt lat="44.41266" lon="5.81971">
        <ele>778</ele>
        <time>2019-03-29T15:09:22Z</time>
      </trkpt>
      <trkpt lat="44.41266" lon="5.81975">
        <ele>779</ele>
        <time>2019-03-29T15:09:23Z</time>
      </trkpt>
      <trkpt lat="44.41267" lon="5.8198">
        <ele>779</ele>
        <time>2019-03-29T15:09:24Z</time>
      </trkpt>
      <trkpt lat="44.41268" lon="5.81984">
        <ele>779</ele>
        <time>2019-03-29T15:09:25Z</time>
      </trkpt>
      <trkpt lat="44.41269" lon="5.81988">
        <ele>779</ele>
        <time>2019-03-29T15:09:26Z</time>
      </trkpt>
      <trkpt lat="44.41271" lon="5.81992">
        <ele>780</ele>
        <time>2019-03-29T15:09:27Z</time>
      </trkpt>
      <trkpt lat="44.41272" lon="5.81996">
        <ele>780</ele>
        <time>2019-03-29T15:09:28Z</time>
      </trkpt>
      <trkpt lat="44.41274" lon="5.82">
        <ele>780</ele>
        <time>2019-03-29T15:09:29Z</time>
      </trkpt>
      <trkpt lat="44.41275" lon="5.82004">
        <ele>780</ele>
        <time>2019-03-29T15:09:30Z</time>
      </trkpt>
      <trkpt lat="44.41277" lon="5.82008">
        <ele>780</ele>
        <time>2019-03-29T15:09:31Z</time>
      </trkpt>
      <trkpt lat="44.41279" lon="5.82011">
        <ele>781</ele>
        <time>2019-03-29T15:09:32Z</time>
      </trkpt>
      <trkpt lat="44.4128" lon="5.82014">
        <ele>781</ele>
        <time>2019-03-29T15:09:33Z</time>
      </trkpt>
      <trkpt lat="44.41282" lon="5.82018">
        <ele>781</ele>
        <time>2019-03-29T15:09:34Z</time>
      </trkpt>
      <trkpt lat="44.41284" lon="5.82021">
        <ele>781</ele>
        <time>2019-03-29T15:09:35Z</time>
      </trkpt>
      <trkpt lat="44.41286" lon="5.82024">
        <ele>781</ele>
        <time>2019-03-29T15:09:36Z</time>
      </trkpt>
      <trkpt lat="44.41287" lon="5.82027">
        <ele>781</ele>
        <time>2019-03-29T15:09:37Z</time>
      </trkpt>
      <trkpt lat="44.41289" lon="5.8203">
        <ele>781</ele>
        <time>2019-03-29T15:09:38Z</time>
      </trkpt>
      <trkpt lat="44.41291" lon="5.82033">
        <ele>782</ele>
        <time>2019-03-29T15:09:39Z</time>
      </trkpt>
      <trkpt lat="44.41292" lon="5.82037">
        <ele>782</ele>
        <time>2019-03-29T15:09:40Z</time>
      </trkpt>
      <trkpt lat="44.41294" lon="5.8204">
        <ele>782</ele>
        <time>2019-03-29T15:09:41Z</time>
      </trkpt>
      <trkpt lat="44.41296" lon="5.82043">
        <ele>782</ele>
        <time>2019-03-29T15:09:42Z</time>
      </trkpt>
      <trkpt lat="44.41297" lon="5.82046">
        <ele>782</ele>
        <time>2019-03-29T15:09:43Z</time>
      </trkpt>
      <trkpt lat="44.41299" lon="5.82049">
        <ele>782</ele>
        <time>2019-03-29T15:09:44Z</time>
      </trkpt>
      <trkpt lat="44.41301" lon="5.82052">
        <ele>782</ele>
        <time>2019-03-29T15:09:45Z</time>
      </trkpt>
      <trkpt lat="44.41302" lon="5.82055">
        <ele>783</ele>
        <time>2019-03-29T15:09:46Z</time>
      </trkpt>
      <trkpt lat="44.41304" lon="5.82058">
        <ele>783</ele>
        <time>2019-03-29T15:09:47Z</time>
      </trkpt>
      <trkpt lat="44.41305" lon="5.82061">
        <ele>783</ele>
        <time>2019-03-29T15:09:48Z</time>
      </trkpt>
      <trkpt lat="44.41307" lon="5.82064">
        <ele>783</ele>
        <time>2019-03-29T15:09:49Z</time>
      </trkpt>
      <trkpt lat="44.41309" lon="5.82067">
        <ele>783</ele>
        <time>2019-03-29T15:09:50Z</time>
      </trkpt>
      <trkpt lat="44.41311" lon="5.8207">
        <ele>783</ele>
        <time>2019-03-29T15:09:51Z</time>
      </trkpt>
      <trkpt lat="44.41312" lon="5.82073">
        <ele>783</ele>
        <time>2019-03-29T15:09:52Z</time>
      </trkpt>
      <trkpt lat="44.41314" lon="5.82077">
        <ele>783</ele>
        <time>2019-03-29T15:09:53Z</time>
      </trkpt>
      <trkpt lat="44.41315" lon="5.8208">
        <ele>784</ele>
        <time>2019-03-29T15:09:54Z</time>
      </trkpt>
      <trkpt lat="44.41317" lon="5.82083">
        <ele>784</ele>
        <time>2019-03-29T15:09:55Z</time>
      </trkpt>
      <trkpt lat="44.41319" lon="5.82086">
        <ele>784</ele>
        <time>2019-03-29T15:09:56Z</time>
      </trkpt>
      <trkpt lat="44.4132" lon="5.82089">
        <ele>784</ele>
        <time>2019-03-29T15:09:57Z</time>
      </trkpt>
      <trkpt lat="44.41322" lon="5.82093">
        <ele>784</ele>
        <time>2019-03-29T15:09:58Z</time>
      </trkpt>
      <trkpt lat="44.41323" lon="5.82096">
        <ele>784</ele>
        <time>2019-03-29T15:09:59Z</time>
      </trkpt>
      <trkpt lat="44.41325" lon="5.82099">
        <ele>784</ele>
        <time>2019-03-29T15:10:00Z</time>
      </trkpt>
      <trkpt lat="44.41327" lon="5.82102">
        <ele>784</ele>
        <time>2019-03-29T15:10:01Z</time>
      </trkpt>
      <trkpt lat="44.41329" lon="5.82105">
        <ele>784</ele>
        <time>2019-03-29T15:10:02Z</time>
      </trkpt>
      <trkpt lat="44.4133" lon="5.82108">
        <ele>784</ele>
        <time>2019-03-29T15:10:03Z</time>
      </trkpt>
      <trkpt lat="44.41332" lon="5.82112">
        <ele>784</ele>
        <time>2019-03-29T15:10:04Z</time>
      </trkpt>
      <trkpt lat="44.41334" lon="5.82115">
        <ele>785</ele>
        <time>2019-03-29T15:10:05Z</time>
      </trkpt>
      <trkpt lat="44.41335" lon="5.82119">
        <ele>785</ele>
        <time>2019-03-29T15:10:06Z</time>
      </trkpt>
      <trkpt lat="44.41337" lon="5.82122">
        <ele>785</ele>
        <time>2019-03-29T15:10:07Z</time>
      </trkpt>
      <trkpt lat="44.41339" lon="5.82125">
        <ele>785</ele>
        <time>2019-03-29T15:10:08Z</time>
      </trkpt>
      <trkpt lat="44.41341" lon="5.82129">
        <ele>785</ele>
        <time>2019-03-29T15:10:09Z</time>
      </trkpt>
      <trkpt lat="44.41343" lon="5.82132">
        <ele>786</ele>
        <time>2019-03-29T15:10:10Z</time>
      </trkpt>
      <trkpt lat="44.41344" lon="5.82136">
        <ele>786</ele>
        <time>2019-03-29T15:10:11Z</time>
      </trkpt>
      <trkpt lat="44.41346" lon="5.82139">
        <ele>786</ele>
        <time>2019-03-29T15:10:12Z</time>
      </trkpt>
      <trkpt lat="44.41348" lon="5.82143">
        <ele>786</ele>
        <time>2019-03-29T15:10:13Z</time>
      </trkpt>
      <trkpt lat="44.4135" lon="5.82146">
        <ele>786</ele>
        <time>2019-03-29T15:10:14Z</time>
      </trkpt>
      <trkpt lat="44.41352" lon="5.8215">
        <ele>786</ele>
        <time>2019-03-29T15:10:15Z</time>
      </trkpt>
      <trkpt lat="44.41354" lon="5.82153">
        <ele>786</ele>
        <time>2019-03-29T15:10:16Z</time>
      </trkpt>
      <trkpt lat="44.41356" lon="5.82157">
        <ele>787</ele>
        <time>2019-03-29T15:10:17Z</time>
      </trkpt>
      <trkpt lat="44.41358" lon="5.8216">
        <ele>787</ele>
        <time>2019-03-29T15:10:18Z</time>
      </trkpt>
      <trkpt lat="44.41359" lon="5.82164">
        <ele>787</ele>
        <time>2019-03-29T15:10:19Z</time>
      </trkpt>
      <trkpt lat="44.41361" lon="5.82168">
        <ele>787</ele>
        <time>2019-03-29T15:10:20Z</time>
      </trkpt>
      <trkpt lat="44.41363" lon="5.82171">
        <ele>787</ele>
        <time>2019-03-29T15:10:21Z</time>
      </trkpt>
      <trkpt lat="44.41365" lon="5.82175">
        <ele>788</ele>
        <time>2019-03-29T15:10:22Z</time>
      </trkpt>
      <trkpt lat="44.41367" lon="5.82179">
        <ele>788</ele>
        <time>2019-03-29T15:10:23Z</time>
      </trkpt>
      <trkpt lat="44.41368" lon="5.82182">
        <ele>788</ele>
        <time>2019-03-29T15:10:24Z</time>
      </trkpt>
      <trkpt lat="44.4137" lon="5.82186">
        <ele>788</ele>
        <time>2019-03-29T15:10:25Z</time>
      </trkpt>
      <trkpt lat="44.41372" lon="5.82189">
        <ele>788</ele>
        <time>2019-03-29T15:10:26Z</time>
      </trkpt>
      <trkpt lat="44.41374" lon="5.82192">
        <ele>788</ele>
        <time>2019-03-29T15:10:27Z</time>
      </trkpt>
      <trkpt lat="44.41376" lon="5.82196">
        <ele>789</ele>
        <time>2019-03-29T15:10:28Z</time>
      </trkpt>
      <trkpt lat="44.41378" lon="5.82199">
        <ele>789</ele>
        <time>2019-03-29T15:10:29Z</time>
      </trkpt>
      <trkpt lat="44.41379" lon="5.82202">
        <ele>789</ele>
        <time>2019-03-29T15:10:30Z</time>
      </trkpt>
      <trkpt lat="44.4138" lon="5.82205">
        <ele>789</ele>
        <time>2019-03-29T15:10:31Z</time>
      </trkpt>
      <trkpt lat="44.41382" lon="5.82208">
        <ele>790</ele>
        <time>2019-03-29T15:10:32Z</time>
      </trkpt>
      <trkpt lat="44.41384" lon="5.82211">
        <ele>790</ele>
        <time>2019-03-29T15:10:33Z</time>
      </trkpt>
      <trkpt lat="44.41385" lon="5.82214">
        <ele>790</ele>
        <time>2019-03-29T15:10:34Z</time>
      </trkpt>
      <trkpt lat="44.41387" lon="5.82218">
        <ele>790</ele>
        <time>2019-03-29T15:10:35Z</time>
      </trkpt>
      <trkpt lat="44.41389" lon="5.82222">
        <ele>790</ele>
        <time>2019-03-29T15:10:36Z</time>
      </trkpt>
      <trkpt lat="44.41391" lon="5.82226">
        <ele>791</ele>
        <time>2019-03-29T15:10:37Z</time>
      </trkpt>
      <trkpt lat="44.41394" lon="5.8223">
        <ele>791</ele>
        <time>2019-03-29T15:10:38Z</time>
      </trkpt>
      <trkpt lat="44.41396" lon="5.82234">
        <ele>791</ele>
        <time>2019-03-29T15:10:39Z</time>
      </trkpt>
      <trkpt lat="44.41398" lon="5.82238">
        <ele>791</ele>
        <time>2019-03-29T15:10:40Z</time>
      </trkpt>
      <trkpt lat="44.414" lon="5.82242">
        <ele>791</ele>
        <time>2019-03-29T15:10:41Z</time>
      </trkpt>
      <trkpt lat="44.41402" lon="5.82245">
        <ele>791</ele>
        <time>2019-03-29T15:10:42Z</time>
      </trkpt>
      <trkpt lat="44.41404" lon="5.82248">
        <ele>791</ele>
        <time>2019-03-29T15:10:43Z</time>
      </trkpt>
      <trkpt lat="44.41406" lon="5.82252">
        <ele>791</ele>
        <time>2019-03-29T15:10:44Z</time>
      </trkpt>
      <trkpt lat="44.41408" lon="5.82255">
        <ele>791</ele>
        <time>2019-03-29T15:10:45Z</time>
      </trkpt>
      <trkpt lat="44.4141" lon="5.82258">
        <ele>792</ele>
        <time>2019-03-29T15:10:46Z</time>
      </trkpt>
      <trkpt lat="44.41411" lon="5.82262">
        <ele>792</ele>
        <time>2019-03-29T15:10:47Z</time>
      </trkpt>
      <trkpt lat="44.41413" lon="5.82266">
        <ele>792</ele>
        <time>2019-03-29T15:10:48Z</time>
      </trkpt>
      <trkpt lat="44.41415" lon="5.8227">
        <ele>792</ele>
        <time>2019-03-29T15:10:49Z</time>
      </trkpt>
      <trkpt lat="44.41417" lon="5.82274">
        <ele>792</ele>
        <time>2019-03-29T15:10:50Z</time>
      </trkpt>
      <trkpt lat="44.41419" lon="5.82278">
        <ele>793</ele>
        <time>2019-03-29T15:10:51Z</time>
      </trkpt>
      <trkpt lat="44.41421" lon="5.82282">
        <ele>793</ele>
        <time>2019-03-29T15:10:52Z</time>
      </trkpt>
      <trkpt lat="44.41423" lon="5.82287">
        <ele>793</ele>
        <time>2019-03-29T15:10:53Z</time>
      </trkpt>
      <trkpt lat="44.41425" lon="5.82292">
        <ele>793</ele>
        <time>2019-03-29T15:10:54Z</time>
      </trkpt>
      <trkpt lat="44.41427" lon="5.82297">
        <ele>793</ele>
        <time>2019-03-29T15:10:55Z</time>
      </trkpt>
      <trkpt lat="44.41429" lon="5.82303">
        <ele>793</ele>
        <time>2019-03-29T15:10:56Z</time>
      </trkpt>
      <trkpt lat="44.41431" lon="5.82308">
        <ele>793</ele>
        <time>2019-03-29T15:10:57Z</time>
      </trkpt>
      <trkpt lat="44.41433" lon="5.82314">
        <ele>793</ele>
        <time>2019-03-29T15:10:58Z</time>
      </trkpt>
      <trkpt lat="44.41435" lon="5.82321">
        <ele>793</ele>
        <time>2019-03-29T15:10:59Z</time>
      </trkpt>
      <trkpt lat="44.41437" lon="5.82327">
        <ele>793</ele>
        <time>2019-03-29T15:11:00Z</time>
      </trkpt>
      <trkpt lat="44.41439" lon="5.82334">
        <ele>793</ele>
        <time>2019-03-29T15:11:01Z</time>
      </trkpt>
      <trkpt lat="44.41441" lon="5.82342">
        <ele>793</ele>
        <time>2019-03-29T15:11:02Z</time>
      </trkpt>
      <trkpt lat="44.41443" lon="5.82349">
        <ele>793</ele>
        <time>2019-03-29T15:11:03Z</time>
      </trkpt>
      <trkpt lat="44.41444" lon="5.82357">
        <ele>793</ele>
        <time>2019-03-29T15:11:04Z</time>
      </trkpt>
      <trkpt lat="44.41446" lon="5.82365">
        <ele>793</ele>
        <time>2019-03-29T15:11:05Z</time>
      </trkpt>
      <trkpt lat="44.41447" lon="5.82372">
        <ele>793</ele>
        <time>2019-03-29T15:11:06Z</time>
      </trkpt>
      <trkpt lat="44.41449" lon="5.82379">
        <ele>793</ele>
        <time>2019-03-29T15:11:07Z</time>
      </trkpt>
      <trkpt lat="44.4145" lon="5.82386">
        <ele>793</ele>
        <time>2019-03-29T15:11:08Z</time>
      </trkpt>
      <trkpt lat="44.41452" lon="5.82393">
        <ele>793</ele>
        <time>2019-03-29T15:11:09Z</time>
      </trkpt>
      <trkpt lat="44.41453" lon="5.82399">
        <ele>793</ele>
        <time>2019-03-29T15:11:10Z</time>
      </trkpt>
      <trkpt lat="44.41454" lon="5.82406">
        <ele>793</ele>
        <time>2019-03-29T15:11:11Z</time>
      </trkpt>
      <trkpt lat="44.41455" lon="5.82412">
        <ele>793</ele>
        <time>2019-03-29T15:11:12Z</time>
      </trkpt>
      <trkpt lat="44.41457" lon="5.82419">
        <ele>793</ele>
        <time>2019-03-29T15:11:13Z</time>
      </trkpt>
      <trkpt lat="44.41458" lon="5.82425">
        <ele>793</ele>
        <time>2019-03-29T15:11:14Z</time>
      </trkpt>
      <trkpt lat="44.41459" lon="5.82431">
        <ele>793</ele>
        <time>2019-03-29T15:11:15Z</time>
      </trkpt>
      <trkpt lat="44.4146" lon="5.82438">
        <ele>793</ele>
        <time>2019-03-29T15:11:16Z</time>
      </trkpt>
      <trkpt lat="44.41461" lon="5.82444">
        <ele>793</ele>
        <time>2019-03-29T15:11:17Z</time>
      </trkpt>
      <trkpt lat="44.41462" lon="5.82449">
        <ele>794</ele>
        <time>2019-03-29T15:11:18Z</time>
      </trkpt>
      <trkpt lat="44.41463" lon="5.82455">
        <ele>794</ele>
        <time>2019-03-29T15:11:19Z</time>
      </trkpt>
      <trkpt lat="44.41464" lon="5.82461">
        <ele>794</ele>
        <time>2019-03-29T15:11:20Z</time>
      </trkpt>
      <trkpt lat="44.41465" lon="5.82467">
        <ele>794</ele>
        <time>2019-03-29T15:11:21Z</time>
      </trkpt>
      <trkpt lat="44.41466" lon="5.82473">
        <ele>795</ele>
        <time>2019-03-29T15:11:22Z</time>
      </trkpt>
      <trkpt lat="44.41467" lon="5.82478">
        <ele>795</ele>
        <time>2019-03-29T15:11:23Z</time>
      </trkpt>
      <trkpt lat="44.41468" lon="5.82484">
        <ele>795</ele>
        <time>2019-03-29T15:11:24Z</time>
      </trkpt>
      <trkpt lat="44.4147" lon="5.82489">
        <ele>795</ele>
        <time>2019-03-29T15:11:25Z</time>
      </trkpt>
      <trkpt lat="44.4147" lon="5.82494">
        <ele>796</ele>
        <time>2019-03-29T15:11:26Z</time>
      </trkpt>
      <trkpt lat="44.41471" lon="5.82499">
        <ele>796</ele>
        <time>2019-03-29T15:11:27Z</time>
      </trkpt>
      <trkpt lat="44.41472" lon="5.82504">
        <ele>796</ele>
        <time>2019-03-29T15:11:28Z</time>
      </trkpt>
      <trkpt lat="44.41473" lon="5.82509">
        <ele>797</ele>
        <time>2019-03-29T15:11:29Z</time>
      </trkpt>
      <trkpt lat="44.41474" lon="5.82513">
        <ele>797</ele>
        <time>2019-03-29T15:11:30Z</time>
      </trkpt>
      <trkpt lat="44.41475" lon="5.82518">
        <ele>797</ele>
        <time>2019-03-29T15:11:31Z</time>
      </trkpt>
      <trkpt lat="44.41476" lon="5.82522">
        <ele>798</ele>
        <time>2019-03-29T15:11:32Z</time>
      </trkpt>
      <trkpt lat="44.41476" lon="5.82526">
        <ele>798</ele>
        <time>2019-03-29T15:11:33Z</time>
      </trkpt>
      <trkpt lat="44.41477" lon="5.8253">
        <ele>798</ele>
        <time>2019-03-29T15:11:34Z</time>
      </trkpt>
      <trkpt lat="44.41478" lon="5.82534">
        <ele>799</ele>
        <time>2019-03-29T15:11:35Z</time>
      </trkpt>
      <trkpt lat="44.41479" lon="5.82537">
        <ele>799</ele>
        <time>2019-03-29T15:11:36Z</time>
      </trkpt>
      <trkpt lat="44.4148" lon="5.82541">
        <ele>799</ele>
        <time>2019-03-29T15:11:37Z</time>
      </trkpt>
      <trkpt lat="44.4148" lon="5.82544">
        <ele>800</ele>
        <time>2019-03-29T15:11:38Z</time>
      </trkpt>
      <trkpt lat="44.41481" lon="5.82548">
        <ele>800</ele>
        <time>2019-03-29T15:11:39Z</time>
      </trkpt>
      <trkpt lat="44.41481" lon="5.82551">
        <ele>800</ele>
        <time>2019-03-29T15:11:40Z</time>
      </trkpt>
      <trkpt lat="44.41482" lon="5.82554">
        <ele>800</ele>
        <time>2019-03-29T15:11:41Z</time>
      </trkpt>
      <trkpt lat="44.41482" lon="5.82557">
        <ele>801</ele>
        <time>2019-03-29T15:11:42Z</time>
      </trkpt>
      <trkpt lat="44.41483" lon="5.8256">
        <ele>801</ele>
        <time>2019-03-29T15:11:43Z</time>
      </trkpt>
      <trkpt lat="44.41483" lon="5.82564">
        <ele>801</ele>
        <time>2019-03-29T15:11:44Z</time>
      </trkpt>
      <trkpt lat="44.41484" lon="5.82567">
        <ele>801</ele>
        <time>2019-03-29T15:11:45Z</time>
      </trkpt>
      <trkpt lat="44.41484" lon="5.8257">
        <ele>802</ele>
        <time>2019-03-29T15:11:46Z</time>
      </trkpt>
      <trkpt lat="44.41485" lon="5.82573">
        <ele>802</ele>
        <time>2019-03-29T15:11:47Z</time>
      </trkpt>
      <trkpt lat="44.41486" lon="5.82577">
        <ele>802</ele>
        <time>2019-03-29T15:11:48Z</time>
      </trkpt>
      <trkpt lat="44.41486" lon="5.8258">
        <ele>802</ele>
        <time>2019-03-29T15:11:49Z</time>
      </trkpt>
      <trkpt lat="44.41487" lon="5.82583">
        <ele>802</ele>
        <time>2019-03-29T15:11:50Z</time>
      </trkpt>
      <trkpt lat="44.41487" lon="5.82587">
        <ele>802</ele>
        <time>2019-03-29T15:11:51Z</time>
      </trkpt>
      <trkpt lat="44.41488" lon="5.8259">
        <ele>803</ele>
        <time>2019-03-29T15:11:52Z</time>
      </trkpt>
      <trkpt lat="44.41489" lon="5.82593">
        <ele>803</ele>
        <time>2019-03-29T15:11:53Z</time>
      </trkpt>
      <trkpt lat="44.41489" lon="5.82596">
        <ele>803</ele>
        <time>2019-03-29T15:11:54Z</time>
      </trkpt>
      <trkpt lat="44.41489" lon="5.82599">
        <ele>803</ele>
        <time>2019-03-29T15:11:55Z</time>
      </trkpt>
      <trkpt lat="44.4149" lon="5.82603">
        <ele>803</ele>
        <time>2019-03-29T15:11:56Z</time>
      </trkpt>
      <trkpt lat="44.4149" lon="5.82606">
        <ele>803</ele>
        <time>2019-03-29T15:11:57Z</time>
      </trkpt>
      <trkpt lat="44.41491" lon="5.8261">
        <ele>804</ele>
        <time>2019-03-29T15:11:58Z</time>
      </trkpt>
      <trkpt lat="44.41491" lon="5.82613">
        <ele>804</ele>
        <time>2019-03-29T15:11:59Z</time>
      </trkpt>
      <trkpt lat="44.41492" lon="5.82616">
        <ele>804</ele>
        <time>2019-03-29T15:12:00Z</time>
      </trkpt>
      <trkpt lat="44.41492" lon="5.8262">
        <ele>804</ele>
        <time>2019-03-29T15:12:01Z</time>
      </trkpt>
      <trkpt lat="44.41493" lon="5.82623">
        <ele>804</ele>
        <time>2019-03-29T15:12:02Z</time>
      </trkpt>
      <trkpt lat="44.41494" lon="5.82627">
        <ele>804</ele>
        <time>2019-03-29T15:12:03Z</time>
      </trkpt>
      <trkpt lat="44.41494" lon="5.8263">
        <ele>805</ele>
        <time>2019-03-29T15:12:04Z</time>
      </trkpt>
      <trkpt lat="44.41495" lon="5.82634">
        <ele>805</ele>
        <time>2019-03-29T15:12:05Z</time>
      </trkpt>
      <trkpt lat="44.41496" lon="5.82637">
        <ele>805</ele>
        <time>2019-03-29T15:12:06Z</time>
      </trkpt>
      <trkpt lat="44.41496" lon="5.82641">
        <ele>805</ele>
        <time>2019-03-29T15:12:07Z</time>
      </trkpt>
      <trkpt lat="44.41496" lon="5.82644">
        <ele>805</ele>
        <time>2019-03-29T15:12:08Z</time>
      </trkpt>
      <trkpt lat="44.41497" lon="5.82647">
        <ele>805</ele>
        <time>2019-03-29T15:12:09Z</time>
      </trkpt>
      <trkpt lat="44.41497" lon="5.82651">
        <ele>806</ele>
        <time>2019-03-29T15:12:10Z</time>
      </trkpt>
      <trkpt lat="44.41498" lon="5.82654">
        <ele>806</ele>
        <time>2019-03-29T15:12:11Z</time>
      </trkpt>
      <trkpt lat="44.41499" lon="5.82657">
        <ele>806</ele>
        <time>2019-03-29T15:12:12Z</time>
      </trkpt>
      <trkpt lat="44.41499" lon="5.82661">
        <ele>806</ele>
        <time>2019-03-29T15:12:13Z</time>
      </trkpt>
      <trkpt lat="44.415" lon="5.82664">
        <ele>806</ele>
        <time>2019-03-29T15:12:14Z</time>
      </trkpt>
      <trkpt lat="44.41501" lon="5.82668">
        <ele>807</ele>
        <time>2019-03-29T15:12:15Z</time>
      </trkpt>
      <trkpt lat="44.41502" lon="5.82671">
        <ele>807</ele>
        <time>2019-03-29T15:12:16Z</time>
      </trkpt>
      <trkpt lat="44.41502" lon="5.82675">
        <ele>807</ele>
        <time>2019-03-29T15:12:17Z</time>
      </trkpt>
      <trkpt lat="44.41503" lon="5.82679">
        <ele>807</ele>
        <time>2019-03-29T15:12:18Z</time>
      </trkpt>
      <trkpt lat="44.41504" lon="5.82682">
        <ele>807</ele>
        <time>2019-03-29T15:12:19Z</time>
      </trkpt>
      <trkpt lat="44.41504" lon="5.82686">
        <ele>807</ele>
        <time>2019-03-29T15:12:20Z</time>
      </trkpt>
      <trkpt lat="44.41505" lon="5.82689">
        <ele>808</ele>
        <time>2019-03-29T15:12:21Z</time>
      </trkpt>
      <trkpt lat="44.41505" lon="5.82692">
        <ele>808</ele>
        <time>2019-03-29T15:12:22Z</time>
      </trkpt>
      <trkpt lat="44.41506" lon="5.82696">
        <ele>808</ele>
        <time>2019-03-29T15:12:23Z</time>
      </trkpt>
      <trkpt lat="44.41506" lon="5.82699">
        <ele>808</ele>
        <time>2019-03-29T15:12:24Z</time>
      </trkpt>
      <trkpt lat="44.41507" lon="5.82703">
        <ele>808</ele>
        <time>2019-03-29T15:12:25Z</time>
      </trkpt>
      <trkpt lat="44.41507" lon="5.82707">
        <ele>808</ele>
        <time>2019-03-29T15:12:26Z</time>
      </trkpt>
      <trkpt lat="44.41508" lon="5.8271">
        <ele>809</ele>
        <time>2019-03-29T15:12:27Z</time>
      </trkpt>
      <trkpt lat="44.41509" lon="5.82714">
        <ele>809</ele>
        <time>2019-03-29T15:12:28Z</time>
      </trkpt>
      <trkpt lat="44.41509" lon="5.82717">
        <ele>809</ele>
        <time>2019-03-29T15:12:29Z</time>
      </trkpt>
      <trkpt lat="44.4151" lon="5.82721">
        <ele>809</ele>
        <time>2019-03-29T15:12:30Z</time>
      </trkpt>
      <trkpt lat="44.41511" lon="5.82724">
        <ele>809</ele>
        <time>2019-03-29T15:12:31Z</time>
      </trkpt>
      <trkpt lat="44.41511" lon="5.82728">
        <ele>809</ele>
        <time>2019-03-29T15:12:32Z</time>
      </trkpt>
      <trkpt lat="44.41512" lon="5.82731">
        <ele>810</ele>
        <time>2019-03-29T15:12:33Z</time>
      </trkpt>
      <trkpt lat="44.41513" lon="5.82735">
        <ele>810</ele>
        <time>2019-03-29T15:12:34Z</time>
      </trkpt>
      <trkpt lat="44.41513" lon="5.82738">
        <ele>810</ele>
        <time>2019-03-29T15:12:35Z</time>
      </trkpt>
      <trkpt lat="44.41514" lon="5.82741">
        <ele>810</ele>
        <time>2019-03-29T15:12:36Z</time>
      </trkpt>
      <trkpt lat="44.41515" lon="5.82745">
        <ele>810</ele>
        <time>2019-03-29T15:12:37Z</time>
      </trkpt>
      <trkpt lat="44.41515" lon="5.82748">
        <ele>811</ele>
        <time>2019-03-29T15:12:38Z</time>
      </trkpt>
      <trkpt lat="44.41516" lon="5.82752">
        <ele>811</ele>
        <time>2019-03-29T15:12:39Z</time>
      </trkpt>
      <trkpt lat="44.41517" lon="5.82755">
        <ele>811</ele>
        <time>2019-03-29T15:12:40Z</time>
      </trkpt>
      <trkpt lat="44.41517" lon="5.82759">
        <ele>811</ele>
        <time>2019-03-29T15:12:41Z</time>
      </trkpt>
      <trkpt lat="44.41518" lon="5.82762">
        <ele>811</ele>
        <time>2019-03-29T15:12:42Z</time>
      </trkpt>
      <trkpt lat="44.41519" lon="5.82766">
        <ele>811</ele>
        <time>2019-03-29T15:12:43Z</time>
      </trkpt>
      <trkpt lat="44.41519" lon="5.82769">
        <ele>811</ele>
        <time>2019-03-29T15:12:44Z</time>
      </trkpt>
      <trkpt lat="44.41519" lon="5.82773">
        <ele>812</ele>
        <time>2019-03-29T15:12:45Z</time>
      </trkpt>
      <trkpt lat="44.4152" lon="5.82776">
        <ele>812</ele>
        <time>2019-03-29T15:12:46Z</time>
      </trkpt>
      <trkpt lat="44.41521" lon="5.8278">
        <ele>812</ele>
        <time>2019-03-29T15:12:47Z</time>
      </trkpt>
      <trkpt lat="44.41522" lon="5.82784">
        <ele>812</ele>
        <time>2019-03-29T15:12:48Z</time>
      </trkpt>
      <trkpt lat="44.41523" lon="5.82787">
        <ele>812</ele>
        <time>2019-03-29T15:12:49Z</time>
      </trkpt>
      <trkpt lat="44.41523" lon="5.82791">
        <ele>812</ele>
        <time>2019-03-29T15:12:50Z</time>
      </trkpt>
      <trkpt lat="44.41523" lon="5.82795">
        <ele>813</ele>
        <time>2019-03-29T15:12:51Z</time>
      </trkpt>
      <trkpt lat="44.41525" lon="5.82798">
        <ele>813</ele>
        <time>2019-03-29T15:12:52Z</time>
      </trkpt>
      <trkpt lat="44.41526" lon="5.82801">
        <ele>813</ele>
        <time>2019-03-29T15:12:53Z</time>
      </trkpt>
      <trkpt lat="44.41526" lon="5.82805">
        <ele>813</ele>
        <time>2019-03-29T15:12:54Z</time>
      </trkpt>
      <trkpt lat="44.41527" lon="5.82809">
        <ele>813</ele>
        <time>2019-03-29T15:12:55Z</time>
      </trkpt>
      <trkpt lat="44.41527" lon="5.82813">
        <ele>813</ele>
        <time>2019-03-29T15:12:56Z</time>
      </trkpt>
      <trkpt lat="44.41528" lon="5.82816">
        <ele>814</ele>
        <time>2019-03-29T15:12:57Z</time>
      </trkpt>
      <trkpt lat="44.41529" lon="5.8282">
        <ele>814</ele>
        <time>2019-03-29T15:12:58Z</time>
      </trkpt>
      <trkpt lat="44.4153" lon="5.82824">
        <ele>814</ele>
        <time>2019-03-29T15:12:59Z</time>
      </trkpt>
      <trkpt lat="44.41531" lon="5.82828">
        <ele>814</ele>
        <time>2019-03-29T15:13:00Z</time>
      </trkpt>
      <trkpt lat="44.41532" lon="5.82831">
        <ele>814</ele>
        <time>2019-03-29T15:13:01Z</time>
      </trkpt>
      <trkpt lat="44.41532" lon="5.82836">
        <ele>814</ele>
        <time>2019-03-29T15:13:02Z</time>
      </trkpt>
      <trkpt lat="44.41533" lon="5.8284">
        <ele>814</ele>
        <time>2019-03-29T15:13:03Z</time>
      </trkpt>
      <trkpt lat="44.41533" lon="5.82844">
        <ele>815</ele>
        <time>2019-03-29T15:13:04Z</time>
      </trkpt>
      <trkpt lat="44.41534" lon="5.82849">
        <ele>815</ele>
        <time>2019-03-29T15:13:05Z</time>
      </trkpt>
      <trkpt lat="44.41535" lon="5.82853">
        <ele>815</ele>
        <time>2019-03-29T15:13:06Z</time>
      </trkpt>
      <trkpt lat="44.41536" lon="5.82857">
        <ele>815</ele>
        <time>2019-03-29T15:13:07Z</time>
      </trkpt>
      <trkpt lat="44.41537" lon="5.82862">
        <ele>815</ele>
        <time>2019-03-29T15:13:08Z</time>
      </trkpt>
      <trkpt lat="44.41538" lon="5.82866">
        <ele>815</ele>
        <time>2019-03-29T15:13:09Z</time>
      </trkpt>
      <trkpt lat="44.41538" lon="5.82871">
        <ele>815</ele>
        <time>2019-03-29T15:13:10Z</time>
      </trkpt>
      <trkpt lat="44.41539" lon="5.82875">
        <ele>816</ele>
        <time>2019-03-29T15:13:11Z</time>
      </trkpt>
      <trkpt lat="44.4154" lon="5.82879">
        <ele>816</ele>
        <time>2019-03-29T15:13:12Z</time>
      </trkpt>
      <trkpt lat="44.41541" lon="5.82884">
        <ele>816</ele>
        <time>2019-03-29T15:13:13Z</time>
      </trkpt>
      <trkpt lat="44.41541" lon="5.82889">
        <ele>816</ele>
        <time>2019-03-29T15:13:14Z</time>
      </trkpt>
      <trkpt lat="44.41542" lon="5.82893">
        <ele>816</ele>
        <time>2019-03-29T15:13:15Z</time>
      </trkpt>
      <trkpt lat="44.41543" lon="5.82897">
        <ele>816</ele>
        <time>2019-03-29T15:13:16Z</time>
      </trkpt>
      <trkpt lat="44.41544" lon="5.82902">
        <ele>816</ele>
        <time>2019-03-29T15:13:17Z</time>
      </trkpt>
      <trkpt lat="44.41545" lon="5.82906">
        <ele>816</ele>
        <time>2019-03-29T15:13:18Z</time>
      </trkpt>
      <trkpt lat="44.41546" lon="5.8291">
        <ele>817</ele>
        <time>2019-03-29T15:13:19Z</time>
      </trkpt>
      <trkpt lat="44.41546" lon="5.82915">
        <ele>817</ele>
        <time>2019-03-29T15:13:20Z</time>
      </trkpt>
      <trkpt lat="44.41547" lon="5.82919">
        <ele>817</ele>
        <time>2019-03-29T15:13:21Z</time>
      </trkpt>
      <trkpt lat="44.41548" lon="5.82924">
        <ele>817</ele>
        <time>2019-03-29T15:13:22Z</time>
      </trkpt>
      <trkpt lat="44.41549" lon="5.82928">
        <ele>817</ele>
        <time>2019-03-29T15:13:23Z</time>
      </trkpt>
      <trkpt lat="44.4155" lon="5.82932">
        <ele>817</ele>
        <time>2019-03-29T15:13:24Z</time>
      </trkpt>
      <trkpt lat="44.4155" lon="5.82936">
        <ele>817</ele>
        <time>2019-03-29T15:13:25Z</time>
      </trkpt>
      <trkpt lat="44.41551" lon="5.82941">
        <ele>818</ele>
        <time>2019-03-29T15:13:26Z</time>
      </trkpt>
      <trkpt lat="44.41552" lon="5.82946">
        <ele>818</ele>
        <time>2019-03-29T15:13:27Z</time>
      </trkpt>
      <trkpt lat="44.41552" lon="5.8295">
        <ele>818</ele>
        <time>2019-03-29T15:13:28Z</time>
      </trkpt>
      <trkpt lat="44.41553" lon="5.82955">
        <ele>818</ele>
        <time>2019-03-29T15:13:29Z</time>
      </trkpt>
      <trkpt lat="44.41555" lon="5.8296">
        <ele>818</ele>
        <time>2019-03-29T15:13:30Z</time>
      </trkpt>
      <trkpt lat="44.41556" lon="5.82965">
        <ele>818</ele>
        <time>2019-03-29T15:13:31Z</time>
      </trkpt>
      <trkpt lat="44.41557" lon="5.8297">
        <ele>818</ele>
        <time>2019-03-29T15:13:32Z</time>
      </trkpt>
      <trkpt lat="44.41558" lon="5.82974">
        <ele>818</ele>
        <time>2019-03-29T15:13:33Z</time>
      </trkpt>
      <trkpt lat="44.41558" lon="5.82979">
        <ele>818</ele>
        <time>2019-03-29T15:13:34Z</time>
      </trkpt>
      <trkpt lat="44.4156" lon="5.82984">
        <ele>818</ele>
        <time>2019-03-29T15:13:35Z</time>
      </trkpt>
      <trkpt lat="44.4156" lon="5.82989">
        <ele>819</ele>
        <time>2019-03-29T15:13:36Z</time>
      </trkpt>
      <trkpt lat="44.41561" lon="5.82993">
        <ele>819</ele>
        <time>2019-03-29T15:13:37Z</time>
      </trkpt>
      <trkpt lat="44.41562" lon="5.82998">
        <ele>819</ele>
        <time>2019-03-29T15:13:38Z</time>
      </trkpt>
      <trkpt lat="44.41563" lon="5.83003">
        <ele>819</ele>
        <time>2019-03-29T15:13:39Z</time>
      </trkpt>
      <trkpt lat="44.41563" lon="5.83008">
        <ele>819</ele>
        <time>2019-03-29T15:13:40Z</time>
      </trkpt>
      <trkpt lat="44.41564" lon="5.83013">
        <ele>820</ele>
        <time>2019-03-29T15:13:41Z</time>
      </trkpt>
      <trkpt lat="44.41565" lon="5.83018">
        <ele>820</ele>
        <time>2019-03-29T15:13:42Z</time>
      </trkpt>
      <trkpt lat="44.41566" lon="5.83023">
        <ele>820</ele>
        <time>2019-03-29T15:13:43Z</time>
      </trkpt>
      <trkpt lat="44.41567" lon="5.83028">
        <ele>820</ele>
        <time>2019-03-29T15:13:44Z</time>
      </trkpt>
      <trkpt lat="44.41568" lon="5.83033">
        <ele>820</ele>
        <time>2019-03-29T15:13:45Z</time>
      </trkpt>
      <trkpt lat="44.41568" lon="5.83038">
        <ele>820</ele>
        <time>2019-03-29T15:13:46Z</time>
      </trkpt>
      <trkpt lat="44.41569" lon="5.83042">
        <ele>820</ele>
        <time>2019-03-29T15:13:47Z</time>
      </trkpt>
      <trkpt lat="44.4157" lon="5.83048">
        <ele>821</ele>
        <time>2019-03-29T15:13:48Z</time>
      </trkpt>
      <trkpt lat="44.41571" lon="5.83053">
        <ele>821</ele>
        <time>2019-03-29T15:13:49Z</time>
      </trkpt>
      <trkpt lat="44.41571" lon="5.83058">
        <ele>821</ele>
        <time>2019-03-29T15:13:50Z</time>
      </trkpt>
      <trkpt lat="44.41572" lon="5.83064">
        <ele>821</ele>
        <time>2019-03-29T15:13:51Z</time>
      </trkpt>
      <trkpt lat="44.41572" lon="5.83069">
        <ele>821</ele>
        <time>2019-03-29T15:13:52Z</time>
      </trkpt>
      <trkpt lat="44.41571" lon="5.83075">
        <ele>821</ele>
        <time>2019-03-29T15:13:53Z</time>
      </trkpt>
      <trkpt lat="44.41571" lon="5.83079">
        <ele>821</ele>
        <time>2019-03-29T15:13:54Z</time>
      </trkpt>
      <trkpt lat="44.4157" lon="5.83084">
        <ele>821</ele>
        <time>2019-03-29T15:13:55Z</time>
      </trkpt>
      <trkpt lat="44.41569" lon="5.83089">
        <ele>821</ele>
        <time>2019-03-29T15:13:56Z</time>
      </trkpt>
      <trkpt lat="44.41568" lon="5.83093">
        <ele>821</ele>
        <time>2019-03-29T15:13:57Z</time>
      </trkpt>
      <trkpt lat="44.41566" lon="5.83097">
        <ele>821</ele>
        <time>2019-03-29T15:13:58Z</time>
      </trkpt>
      <trkpt lat="44.41564" lon="5.831">
        <ele>821</ele>
        <time>2019-03-29T15:13:59Z</time>
      </trkpt>
      <trkpt lat="44.41562" lon="5.83103">
        <ele>821</ele>
        <time>2019-03-29T15:14:00Z</time>
      </trkpt>
      <trkpt lat="44.4156" lon="5.83106">
        <ele>821</ele>
        <time>2019-03-29T15:14:01Z</time>
      </trkpt>
      <trkpt lat="44.41558" lon="5.83108">
        <ele>822</ele>
        <time>2019-03-29T15:14:02Z</time>
      </trkpt>
      <trkpt lat="44.41556" lon="5.83111">
        <ele>822</ele>
        <time>2019-03-29T15:14:03Z</time>
      </trkpt>
      <trkpt lat="44.41554" lon="5.83113">
        <ele>822</ele>
        <time>2019-03-29T15:14:04Z</time>
      </trkpt>
      <trkpt lat="44.41551" lon="5.83114">
        <ele>822</ele>
        <time>2019-03-29T15:14:05Z</time>
      </trkpt>
      <trkpt lat="44.41549" lon="5.83116">
        <ele>822</ele>
        <time>2019-03-29T15:14:06Z</time>
      </trkpt>
      <trkpt lat="44.41547" lon="5.83117">
        <ele>823</ele>
        <time>2019-03-29T15:14:07Z</time>
      </trkpt>
      <trkpt lat="44.41544" lon="5.83119">
        <ele>823</ele>
        <time>2019-03-29T15:14:08Z</time>
      </trkpt>
      <trkpt lat="44.41542" lon="5.83121">
        <ele>823</ele>
        <time>2019-03-29T15:14:09Z</time>
      </trkpt>
      <trkpt lat="44.4154" lon="5.83122">
        <ele>823</ele>
        <time>2019-03-29T15:14:10Z</time>
      </trkpt>
      <trkpt lat="44.41538" lon="5.83124">
        <ele>823</ele>
        <time>2019-03-29T15:14:11Z</time>
      </trkpt>
      <trkpt lat="44.41536" lon="5.83126">
        <ele>824</ele>
        <time>2019-03-29T15:14:12Z</time>
      </trkpt>
      <trkpt lat="44.41534" lon="5.83128">
        <ele>824</ele>
        <time>2019-03-29T15:14:13Z</time>
      </trkpt>
      <trkpt lat="44.41532" lon="5.8313">
        <ele>824</ele>
        <time>2019-03-29T15:14:14Z</time>
      </trkpt>
      <trkpt lat="44.41531" lon="5.83131">
        <ele>824</ele>
        <time>2019-03-29T15:14:15Z</time>
      </trkpt>
      <trkpt lat="44.41529" lon="5.83133">
        <ele>825</ele>
        <time>2019-03-29T15:14:16Z</time>
      </trkpt>
      <trkpt lat="44.41527" lon="5.83135">
        <ele>825</ele>
        <time>2019-03-29T15:14:17Z</time>
      </trkpt>
      <trkpt lat="44.41526" lon="5.83138">
        <ele>825</ele>
        <time>2019-03-29T15:14:18Z</time>
      </trkpt>
      <trkpt lat="44.41524" lon="5.8314">
        <ele>825</ele>
        <time>2019-03-29T15:14:19Z</time>
      </trkpt>
      <trkpt lat="44.41522" lon="5.83142">
        <ele>825</ele>
        <time>2019-03-29T15:14:20Z</time>
      </trkpt>
      <trkpt lat="44.4152" lon="5.83144">
        <ele>825</ele>
        <time>2019-03-29T15:14:21Z</time>
      </trkpt>
      <trkpt lat="44.41518" lon="5.83147">
        <ele>825</ele>
        <time>2019-03-29T15:14:22Z</time>
      </trkpt>
      <trkpt lat="44.41517" lon="5.83149">
        <ele>825</ele>
        <time>2019-03-29T15:14:23Z</time>
      </trkpt>
      <trkpt lat="44.41515" lon="5.83151">
        <ele>825</ele>
        <time>2019-03-29T15:14:24Z</time>
      </trkpt>
      <trkpt lat="44.41513" lon="5.83154">
        <ele>825</ele>
        <time>2019-03-29T15:14:25Z</time>
      </trkpt>
      <trkpt lat="44.41512" lon="5.83157">
        <ele>825</ele>
        <time>2019-03-29T15:14:26Z</time>
      </trkpt>
      <trkpt lat="44.4151" lon="5.83159">
        <ele>825</ele>
        <time>2019-03-29T15:14:27Z</time>
      </trkpt>
      <trkpt lat="44.41508" lon="5.83162">
        <ele>825</ele>
        <time>2019-03-29T15:14:28Z</time>
      </trkpt>
      <trkpt lat="44.41507" lon="5.83165">
        <ele>825</ele>
        <time>2019-03-29T15:14:29Z</time>
      </trkpt>
      <trkpt lat="44.41505" lon="5.83167">
        <ele>825</ele>
        <time>2019-03-29T15:14:30Z</time>
      </trkpt>
      <trkpt lat="44.41503" lon="5.8317">
        <ele>825</ele>
        <time>2019-03-29T15:14:31Z</time>
      </trkpt>
      <trkpt lat="44.41501" lon="5.83172">
        <ele>825</ele>
        <time>2019-03-29T15:14:32Z</time>
      </trkpt>
      <trkpt lat="44.415" lon="5.83174">
        <ele>825</ele>
        <time>2019-03-29T15:14:33Z</time>
      </trkpt>
      <trkpt lat="44.41498" lon="5.83176">
        <ele>825</ele>
        <time>2019-03-29T15:14:34Z</time>
      </trkpt>
      <trkpt lat="44.41497" lon="5.83178">
        <ele>825</ele>
        <time>2019-03-29T15:14:35Z</time>
      </trkpt>
      <trkpt lat="44.41496" lon="5.83181">
        <ele>825</ele>
        <time>2019-03-29T15:14:36Z</time>
      </trkpt>
      <trkpt lat="44.41495" lon="5.83183">
        <ele>826</ele>
        <time>2019-03-29T15:14:37Z</time>
      </trkpt>
      <trkpt lat="44.41494" lon="5.83185">
        <ele>826</ele>
        <time>2019-03-29T15:14:38Z</time>
      </trkpt>
      <trkpt lat="44.41493" lon="5.83187">
        <ele>826</ele>
        <time>2019-03-29T15:14:39Z</time>
      </trkpt>
      <trkpt lat="44.41492" lon="5.83189">
        <ele>826</ele>
        <time>2019-03-29T15:14:40Z</time>
      </trkpt>
      <trkpt lat="44.41491" lon="5.83191">
        <ele>827</ele>
        <time>2019-03-29T15:14:41Z</time>
      </trkpt>
      <trkpt lat="44.41489" lon="5.83194">
        <ele>827</ele>
        <time>2019-03-29T15:14:42Z</time>
      </trkpt>
      <trkpt lat="44.41488" lon="5.83196">
        <ele>827</ele>
        <time>2019-03-29T15:14:43Z</time>
      </trkpt>
      <trkpt lat="44.41487" lon="5.83198">
        <ele>827</ele>
        <time>2019-03-29T15:14:44Z</time>
      </trkpt>
      <trkpt lat="44.41486" lon="5.83201">
        <ele>827</ele>
        <time>2019-03-29T15:14:45Z</time>
      </trkpt>
      <trkpt lat="44.41485" lon="5.83204">
        <ele>827</ele>
        <time>2019-03-29T15:14:46Z</time>
      </trkpt>
      <trkpt lat="44.41484" lon="5.83207">
        <ele>827</ele>
        <time>2019-03-29T15:14:47Z</time>
      </trkpt>
      <trkpt lat="44.41484" lon="5.83209">
        <ele>828</ele>
        <time>2019-03-29T15:14:48Z</time>
      </trkpt>
      <trkpt lat="44.41483" lon="5.83211">
        <ele>828</ele>
        <time>2019-03-29T15:14:49Z</time>
      </trkpt>
      <trkpt lat="44.41482" lon="5.83213">
        <ele>829</ele>
        <time>2019-03-29T15:14:50Z</time>
      </trkpt>
      <trkpt lat="44.41481" lon="5.83215">
        <ele>829</ele>
        <time>2019-03-29T15:14:51Z</time>
      </trkpt>
      <trkpt lat="44.41481" lon="5.83218">
        <ele>829</ele>
        <time>2019-03-29T15:14:52Z</time>
      </trkpt>
      <trkpt lat="44.41481" lon="5.8322">
        <ele>830</ele>
        <time>2019-03-29T15:14:53Z</time>
      </trkpt>
      <trkpt lat="44.4148" lon="5.83223">
        <ele>830</ele>
        <time>2019-03-29T15:14:54Z</time>
      </trkpt>
      <trkpt lat="44.41479" lon="5.83225">
        <ele>830</ele>
        <time>2019-03-29T15:14:55Z</time>
      </trkpt>
      <trkpt lat="44.41478" lon="5.83227">
        <ele>830</ele>
        <time>2019-03-29T15:14:56Z</time>
      </trkpt>
      <trkpt lat="44.41478" lon="5.8323">
        <ele>830</ele>
        <time>2019-03-29T15:14:57Z</time>
      </trkpt>
      <trkpt lat="44.41478" lon="5.83233">
        <ele>830</ele>
        <time>2019-03-29T15:14:58Z</time>
      </trkpt>
      <trkpt lat="44.41478" lon="5.83236">
        <ele>830</ele>
        <time>2019-03-29T15:14:59Z</time>
      </trkpt>
      <trkpt lat="44.41478" lon="5.8324">
        <ele>830</ele>
        <time>2019-03-29T15:15:00Z</time>
      </trkpt>
      <trkpt lat="44.41478" lon="5.83243">
        <ele>830</ele>
        <time>2019-03-29T15:15:01Z</time>
      </trkpt>
      <trkpt lat="44.41478" lon="5.83246">
        <ele>830</ele>
        <time>2019-03-29T15:15:02Z</time>
      </trkpt>
      <trkpt lat="44.41478" lon="5.83249">
        <ele>830</ele>
        <time>2019-03-29T15:15:03Z</time>
      </trkpt>
      <trkpt lat="44.41477" lon="5.83253">
        <ele>830</ele>
        <time>2019-03-29T15:15:04Z</time>
      </trkpt>
      <trkpt lat="44.41477" lon="5.83256">
        <ele>830</ele>
        <time>2019-03-29T15:15:05Z</time>
      </trkpt>
      <trkpt lat="44.41477" lon="5.83259">
        <ele>830</ele>
        <time>2019-03-29T15:15:06Z</time>
      </trkpt>
      <trkpt lat="44.41477" lon="5.83262">
        <ele>830</ele>
        <time>2019-03-29T15:15:07Z</time>
      </trkpt>
      <trkpt lat="44.41476" lon="5.83265">
        <ele>830</ele>
        <time>2019-03-29T15:15:08Z</time>
      </trkpt>
      <trkpt lat="44.41476" lon="5.83268">
        <ele>830</ele>
        <time>2019-03-29T15:15:09Z</time>
      </trkpt>
      <trkpt lat="44.41476" lon="5.83271">
        <ele>830</ele>
        <time>2019-03-29T15:15:10Z</time>
      </trkpt>
      <trkpt lat="44.41476" lon="5.83274">
        <ele>830</ele>
        <time>2019-03-29T15:15:11Z</time>
      </trkpt>
      <trkpt lat="44.41475" lon="5.83277">
        <ele>830</ele>
        <time>2019-03-29T15:15:12Z</time>
      </trkpt>
      <trkpt lat="44.41475" lon="5.8328">
        <ele>830</ele>
        <time>2019-03-29T15:15:13Z</time>
      </trkpt>
      <trkpt lat="44.41475" lon="5.83284">
        <ele>830</ele>
        <time>2019-03-29T15:15:14Z</time>
      </trkpt>
      <trkpt lat="44.41475" lon="5.83287">
        <ele>830</ele>
        <time>2019-03-29T15:15:15Z</time>
      </trkpt>
      <trkpt lat="44.41475" lon="5.8329">
        <ele>830</ele>
        <time>2019-03-29T15:15:16Z</time>
      </trkpt>
      <trkpt lat="44.41474" lon="5.83293">
        <ele>830</ele>
        <time>2019-03-29T15:15:17Z</time>
      </trkpt>
      <trkpt lat="44.41474" lon="5.83296">
        <ele>830</ele>
        <time>2019-03-29T15:15:18Z</time>
      </trkpt>
      <trkpt lat="44.41474" lon="5.83299">
        <ele>830</ele>
        <time>2019-03-29T15:15:19Z</time>
      </trkpt>
      <trkpt lat="44.41474" lon="5.83302">
        <ele>831</ele>
        <time>2019-03-29T15:15:20Z</time>
      </trkpt>
      <trkpt lat="44.41475" lon="5.83305">
        <ele>831</ele>
        <time>2019-03-29T15:15:21Z</time>
      </trkpt>
      <trkpt lat="44.41475" lon="5.83308">
        <ele>831</ele>
        <time>2019-03-29T15:15:22Z</time>
      </trkpt>
      <trkpt lat="44.41476" lon="5.83311">
        <ele>831</ele>
        <time>2019-03-29T15:15:23Z</time>
      </trkpt>
      <trkpt lat="44.41476" lon="5.83314">
        <ele>831</ele>
        <time>2019-03-29T15:15:24Z</time>
      </trkpt>
      <trkpt lat="44.41477" lon="5.83317">
        <ele>832</ele>
        <time>2019-03-29T15:15:25Z</time>
      </trkpt>
      <trkpt lat="44.41478" lon="5.83321">
        <ele>832</ele>
        <time>2019-03-29T15:15:26Z</time>
      </trkpt>
      <trkpt lat="44.41479" lon="5.83323">
        <ele>832</ele>
        <time>2019-03-29T15:15:27Z</time>
      </trkpt>
      <trkpt lat="44.4148" lon="5.83326">
        <ele>832</ele>
        <time>2019-03-29T15:15:28Z</time>
      </trkpt>
      <trkpt lat="44.41481" lon="5.83329">
        <ele>832</ele>
        <time>2019-03-29T15:15:29Z</time>
      </trkpt>
      <trkpt lat="44.41483" lon="5.83332">
        <ele>833</ele>
        <time>2019-03-29T15:15:30Z</time>
      </trkpt>
      <trkpt lat="44.41484" lon="5.83334">
        <ele>833</ele>
        <time>2019-03-29T15:15:31Z</time>
      </trkpt>
      <trkpt lat="44.41486" lon="5.83337">
        <ele>833</ele>
        <time>2019-03-29T15:15:32Z</time>
      </trkpt>
      <trkpt lat="44.41487" lon="5.8334">
        <ele>833</ele>
        <time>2019-03-29T15:15:33Z</time>
      </trkpt>
      <trkpt lat="44.41489" lon="5.83343">
        <ele>833</ele>
        <time>2019-03-29T15:15:34Z</time>
      </trkpt>
      <trkpt lat="44.4149" lon="5.83345">
        <ele>833</ele>
        <time>2019-03-29T15:15:35Z</time>
      </trkpt>
      <trkpt lat="44.41492" lon="5.83348">
        <ele>833</ele>
        <time>2019-03-29T15:15:36Z</time>
      </trkpt>
      <trkpt lat="44.41494" lon="5.8335">
        <ele>833</ele>
        <time>2019-03-29T15:15:37Z</time>
      </trkpt>
      <trkpt lat="44.41496" lon="5.83353">
        <ele>834</ele>
        <time>2019-03-29T15:15:38Z</time>
      </trkpt>
      <trkpt lat="44.41497" lon="5.83356">
        <ele>834</ele>
        <time>2019-03-29T15:15:39Z</time>
      </trkpt>
      <trkpt lat="44.41499" lon="5.83358">
        <ele>834</ele>
        <time>2019-03-29T15:15:40Z</time>
      </trkpt>
      <trkpt lat="44.415" lon="5.8336">
        <ele>834</ele>
        <time>2019-03-29T15:15:41Z</time>
      </trkpt>
      <trkpt lat="44.41502" lon="5.83363">
        <ele>834</ele>
        <time>2019-03-29T15:15:42Z</time>
      </trkpt>
      <trkpt lat="44.41504" lon="5.83365">
        <ele>835</ele>
        <time>2019-03-29T15:15:43Z</time>
      </trkpt>
      <trkpt lat="44.41505" lon="5.83368">
        <ele>835</ele>
        <time>2019-03-29T15:15:44Z</time>
      </trkpt>
      <trkpt lat="44.41506" lon="5.83371">
        <ele>835</ele>
        <time>2019-03-29T15:15:45Z</time>
      </trkpt>
      <trkpt lat="44.41508" lon="5.83374">
        <ele>835</ele>
        <time>2019-03-29T15:15:46Z</time>
      </trkpt>
      <trkpt lat="44.41509" lon="5.83376">
        <ele>835</ele>
        <time>2019-03-29T15:15:47Z</time>
      </trkpt>
      <trkpt lat="44.41511" lon="5.83379">
        <ele>835</ele>
        <time>2019-03-29T15:15:48Z</time>
      </trkpt>
      <trkpt lat="44.41513" lon="5.83382">
        <ele>836</ele>
        <time>2019-03-29T15:15:49Z</time>
      </trkpt>
      <trkpt lat="44.41515" lon="5.83384">
        <ele>836</ele>
        <time>2019-03-29T15:15:50Z</time>
      </trkpt>
      <trkpt lat="44.41516" lon="5.83387">
        <ele>836</ele>
        <time>2019-03-29T15:15:51Z</time>
      </trkpt>
      <trkpt lat="44.41518" lon="5.83391">
        <ele>836</ele>
        <time>2019-03-29T15:15:52Z</time>
      </trkpt>
      <trkpt lat="44.41519" lon="5.83394">
        <ele>836</ele>
        <time>2019-03-29T15:15:53Z</time>
      </trkpt>
      <trkpt lat="44.41521" lon="5.83399">
        <ele>837</ele>
        <time>2019-03-29T15:15:54Z</time>
      </trkpt>
      <trkpt lat="44.41523" lon="5.83403">
        <ele>837</ele>
        <time>2019-03-29T15:15:55Z</time>
      </trkpt>
      <trkpt lat="44.41524" lon="5.83408">
        <ele>837</ele>
        <time>2019-03-29T15:15:56Z</time>
      </trkpt>
      <trkpt lat="44.41525" lon="5.83413">
        <ele>837</ele>
        <time>2019-03-29T15:15:57Z</time>
      </trkpt>
      <trkpt lat="44.41525" lon="5.83418">
        <ele>837</ele>
        <time>2019-03-29T15:15:58Z</time>
      </trkpt>
      <trkpt lat="44.41525" lon="5.83422">
        <ele>837</ele>
        <time>2019-03-29T15:15:59Z</time>
      </trkpt>
      <trkpt lat="44.41525" lon="5.83426">
        <ele>837</ele>
        <time>2019-03-29T15:16:00Z</time>
      </trkpt>
      <trkpt lat="44.41526" lon="5.8343">
        <ele>837</ele>
        <time>2019-03-29T15:16:01Z</time>
      </trkpt>
      <trkpt lat="44.41526" lon="5.83435">
        <ele>837</ele>
        <time>2019-03-29T15:16:02Z</time>
      </trkpt>
      <trkpt lat="44.41526" lon="5.83439">
        <ele>838</ele>
        <time>2019-03-29T15:16:03Z</time>
      </trkpt>
      <trkpt lat="44.41527" lon="5.83444">
        <ele>838</ele>
        <time>2019-03-29T15:16:04Z</time>
      </trkpt>
      <trkpt lat="44.41528" lon="5.83448">
        <ele>838</ele>
        <time>2019-03-29T15:16:05Z</time>
      </trkpt>
      <trkpt lat="44.41529" lon="5.83452">
        <ele>839</ele>
        <time>2019-03-29T15:16:06Z</time>
      </trkpt>
      <trkpt lat="44.4153" lon="5.83456">
        <ele>839</ele>
        <time>2019-03-29T15:16:07Z</time>
      </trkpt>
      <trkpt lat="44.41532" lon="5.8346">
        <ele>839</ele>
        <time>2019-03-29T15:16:08Z</time>
      </trkpt>
      <trkpt lat="44.41533" lon="5.83464">
        <ele>839</ele>
        <time>2019-03-29T15:16:09Z</time>
      </trkpt>
      <trkpt lat="44.41535" lon="5.83469">
        <ele>840</ele>
        <time>2019-03-29T15:16:10Z</time>
      </trkpt>
      <trkpt lat="44.41536" lon="5.83473">
        <ele>840</ele>
        <time>2019-03-29T15:16:11Z</time>
      </trkpt>
      <trkpt lat="44.41537" lon="5.83477">
        <ele>840</ele>
        <time>2019-03-29T15:16:12Z</time>
      </trkpt>
      <trkpt lat="44.41539" lon="5.83481">
        <ele>840</ele>
        <time>2019-03-29T15:16:13Z</time>
      </trkpt>
      <trkpt lat="44.41541" lon="5.83485">
        <ele>840</ele>
        <time>2019-03-29T15:16:14Z</time>
      </trkpt>
      <trkpt lat="44.41542" lon="5.83489">
        <ele>840</ele>
        <time>2019-03-29T15:16:15Z</time>
      </trkpt>
      <trkpt lat="44.41544" lon="5.83494">
        <ele>840</ele>
        <time>2019-03-29T15:16:16Z</time>
      </trkpt>
      <trkpt lat="44.41546" lon="5.83497">
        <ele>840</ele>
        <time>2019-03-29T15:16:17Z</time>
      </trkpt>
      <trkpt lat="44.41548" lon="5.83501">
        <ele>840</ele>
        <time>2019-03-29T15:16:18Z</time>
      </trkpt>
      <trkpt lat="44.4155" lon="5.83505">
        <ele>840</ele>
        <time>2019-03-29T15:16:19Z</time>
      </trkpt>
      <trkpt lat="44.41551" lon="5.83509">
        <ele>840</ele>
        <time>2019-03-29T15:16:20Z</time>
      </trkpt>
      <trkpt lat="44.41552" lon="5.83514">
        <ele>840</ele>
        <time>2019-03-29T15:16:21Z</time>
      </trkpt>
      <trkpt lat="44.41552" lon="5.83519">
        <ele>841</ele>
        <time>2019-03-29T15:16:22Z</time>
      </trkpt>
      <trkpt lat="44.41551" lon="5.83524">
        <ele>841</ele>
        <time>2019-03-29T15:16:23Z</time>
      </trkpt>
      <trkpt lat="44.41549" lon="5.83529">
        <ele>841</ele>
        <time>2019-03-29T15:16:24Z</time>
      </trkpt>
      <trkpt lat="44.41548" lon="5.83532">
        <ele>841</ele>
        <time>2019-03-29T15:16:25Z</time>
      </trkpt>
      <trkpt lat="44.41544" lon="5.83534">
        <ele>841</ele>
        <time>2019-03-29T15:16:26Z</time>
      </trkpt>
      <trkpt lat="44.4154" lon="5.83533">
        <ele>842</ele>
        <time>2019-03-29T15:16:27Z</time>
      </trkpt>
      <trkpt lat="44.41535" lon="5.83531">
        <ele>842</ele>
        <time>2019-03-29T15:16:28Z</time>
      </trkpt>
      <trkpt lat="44.41531" lon="5.83529">
        <ele>843</ele>
        <time>2019-03-29T15:16:29Z</time>
      </trkpt>
      <trkpt lat="44.41527" lon="5.83526">
        <ele>843</ele>
        <time>2019-03-29T15:16:30Z</time>
      </trkpt>
      <trkpt lat="44.41524" lon="5.83524">
        <ele>843</ele>
        <time>2019-03-29T15:16:31Z</time>
      </trkpt>
      <trkpt lat="44.4152" lon="5.83522">
        <ele>844</ele>
        <time>2019-03-29T15:16:32Z</time>
      </trkpt>
      <trkpt lat="44.41517" lon="5.83519">
        <ele>844</ele>
        <time>2019-03-29T15:16:33Z</time>
      </trkpt>
      <trkpt lat="44.41514" lon="5.83517">
        <ele>844</ele>
        <time>2019-03-29T15:16:34Z</time>
      </trkpt>
      <trkpt lat="44.41511" lon="5.83516">
        <ele>845</ele>
        <time>2019-03-29T15:16:35Z</time>
      </trkpt>
      <trkpt lat="44.41508" lon="5.83515">
        <ele>845</ele>
        <time>2019-03-29T15:16:36Z</time>
      </trkpt>
      <trkpt lat="44.41505" lon="5.83514">
        <ele>845</ele>
        <time>2019-03-29T15:16:37Z</time>
      </trkpt>
      <trkpt lat="44.41502" lon="5.83513">
        <ele>846</ele>
        <time>2019-03-29T15:16:38Z</time>
      </trkpt>
      <trkpt lat="44.415" lon="5.83513">
        <ele>846</ele>
        <time>2019-03-29T15:16:39Z</time>
      </trkpt>
      <trkpt lat="44.41498" lon="5.83512">
        <ele>847</ele>
        <time>2019-03-29T15:16:40Z</time>
      </trkpt>
      <trkpt lat="44.41495" lon="5.83512">
        <ele>847</ele>
        <time>2019-03-29T15:16:41Z</time>
      </trkpt>
      <trkpt lat="44.41494" lon="5.83512">
        <ele>847</ele>
        <time>2019-03-29T15:16:42Z</time>
      </trkpt>
      <trkpt lat="44.41492" lon="5.83512">
        <ele>847</ele>
        <time>2019-03-29T15:16:43Z</time>
      </trkpt>
      <trkpt lat="44.41489" lon="5.83512">
        <ele>848</ele>
        <time>2019-03-29T15:16:44Z</time>
      </trkpt>
      <trkpt lat="44.41487" lon="5.83513">
        <ele>848</ele>
        <time>2019-03-29T15:16:45Z</time>
      </trkpt>
      <trkpt lat="44.41485" lon="5.83513">
        <ele>848</ele>
        <time>2019-03-29T15:16:46Z</time>
      </trkpt>
      <trkpt lat="44.41483" lon="5.83514">
        <ele>848</ele>
        <time>2019-03-29T15:16:47Z</time>
      </trkpt>
      <trkpt lat="44.41481" lon="5.83514">
        <ele>848</ele>
        <time>2019-03-29T15:16:48Z</time>
      </trkpt>
      <trkpt lat="44.41479" lon="5.83514">
        <ele>849</ele>
        <time>2019-03-29T15:16:49Z</time>
      </trkpt>
      <trkpt lat="44.41477" lon="5.83514">
        <ele>849</ele>
        <time>2019-03-29T15:16:50Z</time>
      </trkpt>
      <trkpt lat="44.41475" lon="5.83515">
        <ele>849</ele>
        <time>2019-03-29T15:16:51Z</time>
      </trkpt>
      <trkpt lat="44.41473" lon="5.83516">
        <ele>849</ele>
        <time>2019-03-29T15:16:52Z</time>
      </trkpt>
      <trkpt lat="44.41471" lon="5.83516">
        <ele>850</ele>
        <time>2019-03-29T15:16:53Z</time>
      </trkpt>
      <trkpt lat="44.41469" lon="5.83516">
        <ele>850</ele>
        <time>2019-03-29T15:16:54Z</time>
      </trkpt>
      <trkpt lat="44.41468" lon="5.83517">
        <ele>850</ele>
        <time>2019-03-29T15:16:55Z</time>
      </trkpt>
      <trkpt lat="44.41466" lon="5.83518">
        <ele>851</ele>
        <time>2019-03-29T15:16:56Z</time>
      </trkpt>
      <trkpt lat="44.41465" lon="5.83519">
        <ele>851</ele>
        <time>2019-03-29T15:16:57Z</time>
      </trkpt>
      <trkpt lat="44.41463" lon="5.8352">
        <ele>851</ele>
        <time>2019-03-29T15:16:58Z</time>
      </trkpt>
      <trkpt lat="44.41461" lon="5.83521">
        <ele>852</ele>
        <time>2019-03-29T15:16:59Z</time>
      </trkpt>
      <trkpt lat="44.4146" lon="5.83521">
        <ele>852</ele>
        <time>2019-03-29T15:17:00Z</time>
      </trkpt>
      <trkpt lat="44.41458" lon="5.83521">
        <ele>852</ele>
        <time>2019-03-29T15:17:01Z</time>
      </trkpt>
      <trkpt lat="44.41456" lon="5.83521">
        <ele>853</ele>
        <time>2019-03-29T15:17:02Z</time>
      </trkpt>
      <trkpt lat="44.41454" lon="5.83522">
        <ele>853</ele>
        <time>2019-03-29T15:17:03Z</time>
      </trkpt>
      <trkpt lat="44.41453" lon="5.83523">
        <ele>854</ele>
        <time>2019-03-29T15:17:04Z</time>
      </trkpt>
      <trkpt lat="44.41451" lon="5.83524">
        <ele>854</ele>
        <time>2019-03-29T15:17:05Z</time>
      </trkpt>
      <trkpt lat="44.41449" lon="5.83524">
        <ele>854</ele>
        <time>2019-03-29T15:17:06Z</time>
      </trkpt>
      <trkpt lat="44.41447" lon="5.83525">
        <ele>855</ele>
        <time>2019-03-29T15:17:07Z</time>
      </trkpt>
      <trkpt lat="44.41445" lon="5.83525">
        <ele>855</ele>
        <time>2019-03-29T15:17:08Z</time>
      </trkpt>
      <trkpt lat="44.41443" lon="5.83525">
        <ele>855</ele>
        <time>2019-03-29T15:17:09Z</time>
      </trkpt>
      <trkpt lat="44.41441" lon="5.83525">
        <ele>855</ele>
        <time>2019-03-29T15:17:10Z</time>
      </trkpt>
      <trkpt lat="44.41439" lon="5.83524">
        <ele>856</ele>
        <time>2019-03-29T15:17:11Z</time>
      </trkpt>
      <trkpt lat="44.41437" lon="5.83524">
        <ele>856</ele>
        <time>2019-03-29T15:17:12Z</time>
      </trkpt>
      <trkpt lat="44.41435" lon="5.83523">
        <ele>856</ele>
        <time>2019-03-29T15:17:13Z</time>
      </trkpt>
      <trkpt lat="44.41433" lon="5.83522">
        <ele>857</ele>
        <time>2019-03-29T15:17:14Z</time>
      </trkpt>
      <trkpt lat="44.41431" lon="5.83522">
        <ele>857</ele>
        <time>2019-03-29T15:17:15Z</time>
      </trkpt>
      <trkpt lat="44.41429" lon="5.83521">
        <ele>857</ele>
        <time>2019-03-29T15:17:16Z</time>
      </trkpt>
      <trkpt lat="44.41428" lon="5.8352">
        <ele>857</ele>
        <time>2019-03-29T15:17:17Z</time>
      </trkpt>
      <trkpt lat="44.41425" lon="5.8352">
        <ele>858</ele>
        <time>2019-03-29T15:17:18Z</time>
      </trkpt>
      <trkpt lat="44.41423" lon="5.83519">
        <ele>858</ele>
        <time>2019-03-29T15:17:19Z</time>
      </trkpt>
      <trkpt lat="44.41421" lon="5.83518">
        <ele>858</ele>
        <time>2019-03-29T15:17:20Z</time>
      </trkpt>
      <trkpt lat="44.41419" lon="5.83518">
        <ele>858</ele>
        <time>2019-03-29T15:17:21Z</time>
      </trkpt>
      <trkpt lat="44.41417" lon="5.83518">
        <ele>859</ele>
        <time>2019-03-29T15:17:22Z</time>
      </trkpt>
      <trkpt lat="44.41415" lon="5.83517">
        <ele>859</ele>
        <time>2019-03-29T15:17:23Z</time>
      </trkpt>
      <trkpt lat="44.41413" lon="5.83517">
        <ele>859</ele>
        <time>2019-03-29T15:17:24Z</time>
      </trkpt>
      <trkpt lat="44.41411" lon="5.83516">
        <ele>859</ele>
        <time>2019-03-29T15:17:25Z</time>
      </trkpt>
      <trkpt lat="44.41409" lon="5.83515">
        <ele>859</ele>
        <time>2019-03-29T15:17:26Z</time>
      </trkpt>
      <trkpt lat="44.41407" lon="5.83515">
        <ele>860</ele>
        <time>2019-03-29T15:17:27Z</time>
      </trkpt>
      <trkpt lat="44.41404" lon="5.83514">
        <ele>860</ele>
        <time>2019-03-29T15:17:28Z</time>
      </trkpt>
      <trkpt lat="44.41402" lon="5.83513">
        <ele>860</ele>
        <time>2019-03-29T15:17:29Z</time>
      </trkpt>
      <trkpt lat="44.414" lon="5.83512">
        <ele>860</ele>
        <time>2019-03-29T15:17:30Z</time>
      </trkpt>
      <trkpt lat="44.41398" lon="5.83512">
        <ele>860</ele>
        <time>2019-03-29T15:17:31Z</time>
      </trkpt>
      <trkpt lat="44.41396" lon="5.83512">
        <ele>860</ele>
        <time>2019-03-29T15:17:32Z</time>
      </trkpt>
      <trkpt lat="44.41394" lon="5.83512">
        <ele>860</ele>
        <time>2019-03-29T15:17:33Z</time>
      </trkpt>
      <trkpt lat="44.41392" lon="5.83512">
        <ele>860</ele>
        <time>2019-03-29T15:17:34Z</time>
      </trkpt>
      <trkpt lat="44.4139" lon="5.83512">
        <ele>860</ele>
        <time>2019-03-29T15:17:35Z</time>
      </trkpt>
      <trkpt lat="44.41388" lon="5.83513">
        <ele>860</ele>
        <time>2019-03-29T15:17:36Z</time>
      </trkpt>
      <trkpt lat="44.41386" lon="5.83514">
        <ele>860</ele>
        <time>2019-03-29T15:17:37Z</time>
      </trkpt>
      <trkpt lat="44.41385" lon="5.83515">
        <ele>860</ele>
        <time>2019-03-29T15:17:38Z</time>
      </trkpt>
      <trkpt lat="44.41383" lon="5.83517">
        <ele>860</ele>
        <time>2019-03-29T15:17:39Z</time>
      </trkpt>
      <trkpt lat="44.41381" lon="5.8352">
        <ele>860</ele>
        <time>2019-03-29T15:17:40Z</time>
      </trkpt>
      <trkpt lat="44.4138" lon="5.83522">
        <ele>860</ele>
        <time>2019-03-29T15:17:41Z</time>
      </trkpt>
      <trkpt lat="44.41379" lon="5.83525">
        <ele>860</ele>
        <time>2019-03-29T15:17:42Z</time>
      </trkpt>
      <trkpt lat="44.41378" lon="5.83528">
        <ele>860</ele>
        <time>2019-03-29T15:17:43Z</time>
      </trkpt>
      <trkpt lat="44.41378" lon="5.83531">
        <ele>860</ele>
        <time>2019-03-29T15:17:44Z</time>
      </trkpt>
      <trkpt lat="44.41378" lon="5.83533">
        <ele>860</ele>
        <time>2019-03-29T15:17:45Z</time>
      </trkpt>
      <trkpt lat="44.41377" lon="5.83536">
        <ele>860</ele>
        <time>2019-03-29T15:17:46Z</time>
      </trkpt>
      <trkpt lat="44.41377" lon="5.83539">
        <ele>860</ele>
        <time>2019-03-29T15:17:47Z</time>
      </trkpt>
      <trkpt lat="44.41376" lon="5.83542">
        <ele>860</ele>
        <time>2019-03-29T15:17:48Z</time>
      </trkpt>
      <trkpt lat="44.41376" lon="5.83545">
        <ele>860</ele>
        <time>2019-03-29T15:17:49Z</time>
      </trkpt>
      <trkpt lat="44.41376" lon="5.83548">
        <ele>860</ele>
        <time>2019-03-29T15:17:50Z</time>
      </trkpt>
      <trkpt lat="44.41376" lon="5.83551">
        <ele>860</ele>
        <time>2019-03-29T15:17:51Z</time>
      </trkpt>
      <trkpt lat="44.41376" lon="5.83554">
        <ele>860</ele>
        <time>2019-03-29T15:17:52Z</time>
      </trkpt>
      <trkpt lat="44.41375" lon="5.83556">
        <ele>860</ele>
        <time>2019-03-29T15:17:53Z</time>
      </trkpt>
      <trkpt lat="44.41374" lon="5.83559">
        <ele>860</ele>
        <time>2019-03-29T15:17:54Z</time>
      </trkpt>
      <trkpt lat="44.41374" lon="5.83562">
        <ele>860</ele>
        <time>2019-03-29T15:17:55Z</time>
      </trkpt>
      <trkpt lat="44.41373" lon="5.83565">
        <ele>860</ele>
        <time>2019-03-29T15:17:56Z</time>
      </trkpt>
      <trkpt lat="44.41373" lon="5.83567">
        <ele>861</ele>
        <time>2019-03-29T15:17:57Z</time>
      </trkpt>
      <trkpt lat="44.41373" lon="5.8357">
        <ele>861</ele>
        <time>2019-03-29T15:17:58Z</time>
      </trkpt>
      <trkpt lat="44.41372" lon="5.83572">
        <ele>861</ele>
        <time>2019-03-29T15:17:59Z</time>
      </trkpt>
      <trkpt lat="44.41372" lon="5.83575">
        <ele>861</ele>
        <time>2019-03-29T15:18:00Z</time>
      </trkpt>
      <trkpt lat="44.41371" lon="5.83577">
        <ele>861</ele>
        <time>2019-03-29T15:18:01Z</time>
      </trkpt>
      <trkpt lat="44.4137" lon="5.8358">
        <ele>861</ele>
        <time>2019-03-29T15:18:02Z</time>
      </trkpt>
      <trkpt lat="44.4137" lon="5.83582">
        <ele>861</ele>
        <time>2019-03-29T15:18:03Z</time>
      </trkpt>
      <trkpt lat="44.41369" lon="5.83585">
        <ele>861</ele>
        <time>2019-03-29T15:18:04Z</time>
      </trkpt>
      <trkpt lat="44.41369" lon="5.83588">
        <ele>861</ele>
        <time>2019-03-29T15:18:05Z</time>
      </trkpt>
      <trkpt lat="44.41368" lon="5.8359">
        <ele>861</ele>
        <time>2019-03-29T15:18:06Z</time>
      </trkpt>
      <trkpt lat="44.41367" lon="5.83593">
        <ele>861</ele>
        <time>2019-03-29T15:18:07Z</time>
      </trkpt>
      <trkpt lat="44.41367" lon="5.83596">
        <ele>861</ele>
        <time>2019-03-29T15:18:08Z</time>
      </trkpt>
      <trkpt lat="44.41367" lon="5.83599">
        <ele>862</ele>
        <time>2019-03-29T15:18:09Z</time>
      </trkpt>
      <trkpt lat="44.41366" lon="5.83601">
        <ele>862</ele>
        <time>2019-03-29T15:18:10Z</time>
      </trkpt>
      <trkpt lat="44.41366" lon="5.83604">
        <ele>862</ele>
        <time>2019-03-29T15:18:11Z</time>
      </trkpt>
      <trkpt lat="44.41365" lon="5.83606">
        <ele>862</ele>
        <time>2019-03-29T15:18:12Z</time>
      </trkpt>
      <trkpt lat="44.41365" lon="5.83609">
        <ele>862</ele>
        <time>2019-03-29T15:18:13Z</time>
      </trkpt>
      <trkpt lat="44.41364" lon="5.83612">
        <ele>862</ele>
        <time>2019-03-29T15:18:14Z</time>
      </trkpt>
      <trkpt lat="44.41364" lon="5.83614">
        <ele>862</ele>
        <time>2019-03-29T15:18:15Z</time>
      </trkpt>
      <trkpt lat="44.41364" lon="5.83617">
        <ele>863</ele>
        <time>2019-03-29T15:18:16Z</time>
      </trkpt>
      <trkpt lat="44.41364" lon="5.8362">
        <ele>863</ele>
        <time>2019-03-29T15:18:17Z</time>
      </trkpt>
      <trkpt lat="44.41363" lon="5.83622">
        <ele>863</ele>
        <time>2019-03-29T15:18:18Z</time>
      </trkpt>
      <trkpt lat="44.41363" lon="5.83625">
        <ele>863</ele>
        <time>2019-03-29T15:18:19Z</time>
      </trkpt>
      <trkpt lat="44.41362" lon="5.83628">
        <ele>863</ele>
        <time>2019-03-29T15:18:20Z</time>
      </trkpt>
      <trkpt lat="44.41362" lon="5.8363">
        <ele>863</ele>
        <time>2019-03-29T15:18:21Z</time>
      </trkpt>
      <trkpt lat="44.41361" lon="5.83633">
        <ele>864</ele>
        <time>2019-03-29T15:18:22Z</time>
      </trkpt>
      <trkpt lat="44.4136" lon="5.83636">
        <ele>864</ele>
        <time>2019-03-29T15:18:23Z</time>
      </trkpt>
      <trkpt lat="44.4136" lon="5.83638">
        <ele>864</ele>
        <time>2019-03-29T15:18:24Z</time>
      </trkpt>
      <trkpt lat="44.41359" lon="5.83641">
        <ele>864</ele>
        <time>2019-03-29T15:18:25Z</time>
      </trkpt>
      <trkpt lat="44.41358" lon="5.83644">
        <ele>864</ele>
        <time>2019-03-29T15:18:26Z</time>
      </trkpt>
      <trkpt lat="44.41357" lon="5.83647">
        <ele>865</ele>
        <time>2019-03-29T15:18:27Z</time>
      </trkpt>
      <trkpt lat="44.41356" lon="5.83649">
        <ele>865</ele>
        <time>2019-03-29T15:18:28Z</time>
      </trkpt>
      <trkpt lat="44.41355" lon="5.83651">
        <ele>865</ele>
        <time>2019-03-29T15:18:29Z</time>
      </trkpt>
      <trkpt lat="44.41354" lon="5.83653">
        <ele>865</ele>
        <time>2019-03-29T15:18:30Z</time>
      </trkpt>
      <trkpt lat="44.41352" lon="5.83654">
        <ele>865</ele>
        <time>2019-03-29T15:18:31Z</time>
      </trkpt>
      <trkpt lat="44.4135" lon="5.83654">
        <ele>865</ele>
        <time>2019-03-29T15:18:32Z</time>
      </trkpt>
      <trkpt lat="44.41348" lon="5.83655">
        <ele>866</ele>
        <time>2019-03-29T15:18:33Z</time>
      </trkpt>
      <trkpt lat="44.41346" lon="5.83656">
        <ele>866</ele>
        <time>2019-03-29T15:18:34Z</time>
      </trkpt>
      <trkpt lat="44.41345" lon="5.83657">
        <ele>866</ele>
        <time>2019-03-29T15:18:35Z</time>
      </trkpt>
      <trkpt lat="44.41343" lon="5.83659">
        <ele>866</ele>
        <time>2019-03-29T15:18:36Z</time>
      </trkpt>
      <trkpt lat="44.41342" lon="5.8366">
        <ele>866</ele>
        <time>2019-03-29T15:18:37Z</time>
      </trkpt>
      <trkpt lat="44.4134" lon="5.83661">
        <ele>866</ele>
        <time>2019-03-29T15:18:38Z</time>
      </trkpt>
      <trkpt lat="44.41339" lon="5.83663">
        <ele>866</ele>
        <time>2019-03-29T15:18:39Z</time>
      </trkpt>
      <trkpt lat="44.41338" lon="5.83665">
        <ele>866</ele>
        <time>2019-03-29T15:18:40Z</time>
      </trkpt>
      <trkpt lat="44.41336" lon="5.83666">
        <ele>866</ele>
        <time>2019-03-29T15:18:41Z</time>
      </trkpt>
      <trkpt lat="44.41335" lon="5.83668">
        <ele>867</ele>
        <time>2019-03-29T15:18:42Z</time>
      </trkpt>
      <trkpt lat="44.41333" lon="5.8367">
        <ele>867</ele>
        <time>2019-03-29T15:18:43Z</time>
      </trkpt>
      <trkpt lat="44.41332" lon="5.83672">
        <ele>867</ele>
        <time>2019-03-29T15:18:44Z</time>
      </trkpt>
      <trkpt lat="44.41331" lon="5.83674">
        <ele>867</ele>
        <time>2019-03-29T15:18:45Z</time>
      </trkpt>
      <trkpt lat="44.4133" lon="5.83676">
        <ele>868</ele>
        <time>2019-03-29T15:18:46Z</time>
      </trkpt>
      <trkpt lat="44.41329" lon="5.83678">
        <ele>868</ele>
        <time>2019-03-29T15:18:47Z</time>
      </trkpt>
      <trkpt lat="44.41328" lon="5.83681">
        <ele>868</ele>
        <time>2019-03-29T15:18:48Z</time>
      </trkpt>
      <trkpt lat="44.41327" lon="5.83683">
        <ele>868</ele>
        <time>2019-03-29T15:18:49Z</time>
      </trkpt>
      <trkpt lat="44.41327" lon="5.83686">
        <ele>868</ele>
        <time>2019-03-29T15:18:50Z</time>
      </trkpt>
      <trkpt lat="44.41327" lon="5.83688">
        <ele>869</ele>
        <time>2019-03-29T15:18:51Z</time>
      </trkpt>
      <trkpt lat="44.41326" lon="5.83691">
        <ele>869</ele>
        <time>2019-03-29T15:18:52Z</time>
      </trkpt>
      <trkpt lat="44.41326" lon="5.83694">
        <ele>869</ele>
        <time>2019-03-29T15:18:53Z</time>
      </trkpt>
      <trkpt lat="44.41326" lon="5.83696">
        <ele>869</ele>
        <time>2019-03-29T15:18:54Z</time>
      </trkpt>
      <trkpt lat="44.41326" lon="5.83699">
        <ele>869</ele>
        <time>2019-03-29T15:18:55Z</time>
      </trkpt>
      <trkpt lat="44.41327" lon="5.83702">
        <ele>870</ele>
        <time>2019-03-29T15:18:56Z</time>
      </trkpt>
      <trkpt lat="44.41327" lon="5.83705">
        <ele>870</ele>
        <time>2019-03-29T15:18:57Z</time>
      </trkpt>
      <trkpt lat="44.41328" lon="5.83707">
        <ele>870</ele>
        <time>2019-03-29T15:18:58Z</time>
      </trkpt>
      <trkpt lat="44.41328" lon="5.83709">
        <ele>870</ele>
        <time>2019-03-29T15:18:59Z</time>
      </trkpt>
      <trkpt lat="44.41329" lon="5.83712">
        <ele>870</ele>
        <time>2019-03-29T15:19:00Z</time>
      </trkpt>
      <trkpt lat="44.4133" lon="5.83714">
        <ele>871</ele>
        <time>2019-03-29T15:19:01Z</time>
      </trkpt>
      <trkpt lat="44.41331" lon="5.83717">
        <ele>871</ele>
        <time>2019-03-29T15:19:02Z</time>
      </trkpt>
      <trkpt lat="44.41332" lon="5.83719">
        <ele>871</ele>
        <time>2019-03-29T15:19:03Z</time>
      </trkpt>
      <trkpt lat="44.41333" lon="5.83721">
        <ele>871</ele>
        <time>2019-03-29T15:19:04Z</time>
      </trkpt>
      <trkpt lat="44.41334" lon="5.83723">
        <ele>871</ele>
        <time>2019-03-29T15:19:05Z</time>
      </trkpt>
      <trkpt lat="44.41335" lon="5.83725">
        <ele>871</ele>
        <time>2019-03-29T15:19:06Z</time>
      </trkpt>
      <trkpt lat="44.41336" lon="5.83728">
        <ele>872</ele>
        <time>2019-03-29T15:19:07Z</time>
      </trkpt>
      <trkpt lat="44.41336" lon="5.8373">
        <ele>872</ele>
        <time>2019-03-29T15:19:08Z</time>
      </trkpt>
      <trkpt lat="44.41338" lon="5.83733">
        <ele>872</ele>
        <time>2019-03-29T15:19:09Z</time>
      </trkpt>
      <trkpt lat="44.41339" lon="5.83736">
        <ele>872</ele>
        <time>2019-03-29T15:19:10Z</time>
      </trkpt>
      <trkpt lat="44.41339" lon="5.83739">
        <ele>873</ele>
        <time>2019-03-29T15:19:11Z</time>
      </trkpt>
      <trkpt lat="44.4134" lon="5.83741">
        <ele>873</ele>
        <time>2019-03-29T15:19:12Z</time>
      </trkpt>
      <trkpt lat="44.41341" lon="5.83744">
        <ele>873</ele>
        <time>2019-03-29T15:19:13Z</time>
      </trkpt>
      <trkpt lat="44.41341" lon="5.83747">
        <ele>873</ele>
        <time>2019-03-29T15:19:14Z</time>
      </trkpt>
      <trkpt lat="44.4134" lon="5.8375">
        <ele>873</ele>
        <time>2019-03-29T15:19:15Z</time>
      </trkpt>
      <trkpt lat="44.4134" lon="5.83752">
        <ele>873</ele>
        <time>2019-03-29T15:19:16Z</time>
      </trkpt>
      <trkpt lat="44.41339" lon="5.83755">
        <ele>874</ele>
        <time>2019-03-29T15:19:17Z</time>
      </trkpt>
      <trkpt lat="44.41338" lon="5.83757">
        <ele>874</ele>
        <time>2019-03-29T15:19:18Z</time>
      </trkpt>
      <trkpt lat="44.41338" lon="5.8376">
        <ele>874</ele>
        <time>2019-03-29T15:19:19Z</time>
      </trkpt>
      <trkpt lat="44.41337" lon="5.83763">
        <ele>874</ele>
        <time>2019-03-29T15:19:20Z</time>
      </trkpt>
      <trkpt lat="44.41336" lon="5.83765">
        <ele>875</ele>
        <time>2019-03-29T15:19:21Z</time>
      </trkpt>
      <trkpt lat="44.41334" lon="5.83768">
        <ele>875</ele>
        <time>2019-03-29T15:19:22Z</time>
      </trkpt>
      <trkpt lat="44.41333" lon="5.8377">
        <ele>875</ele>
        <time>2019-03-29T15:19:23Z</time>
      </trkpt>
      <trkpt lat="44.41332" lon="5.83773">
        <ele>875</ele>
        <time>2019-03-29T15:19:24Z</time>
      </trkpt>
      <trkpt lat="44.41331" lon="5.83775">
        <ele>876</ele>
        <time>2019-03-29T15:19:25Z</time>
      </trkpt>
      <trkpt lat="44.4133" lon="5.83777">
        <ele>876</ele>
        <time>2019-03-29T15:19:26Z</time>
      </trkpt>
      <trkpt lat="44.41329" lon="5.8378">
        <ele>876</ele>
        <time>2019-03-29T15:19:27Z</time>
      </trkpt>
      <trkpt lat="44.41328" lon="5.83782">
        <ele>877</ele>
        <time>2019-03-29T15:19:28Z</time>
      </trkpt>
      <trkpt lat="44.41327" lon="5.83784">
        <ele>877</ele>
        <time>2019-03-29T15:19:29Z</time>
      </trkpt>
      <trkpt lat="44.41325" lon="5.83787">
        <ele>877</ele>
        <time>2019-03-29T15:19:30Z</time>
      </trkpt>
      <trkpt lat="44.41324" lon="5.83789">
        <ele>877</ele>
        <time>2019-03-29T15:19:31Z</time>
      </trkpt>
      <trkpt lat="44.41323" lon="5.83791">
        <ele>878</ele>
        <time>2019-03-29T15:19:32Z</time>
      </trkpt>
      <trkpt lat="44.41321" lon="5.83793">
        <ele>878</ele>
        <time>2019-03-29T15:19:33Z</time>
      </trkpt>
      <trkpt lat="44.4132" lon="5.83795">
        <ele>878</ele>
        <time>2019-03-29T15:19:34Z</time>
      </trkpt>
      <trkpt lat="44.41318" lon="5.83796">
        <ele>878</ele>
        <time>2019-03-29T15:19:35Z</time>
      </trkpt>
      <trkpt lat="44.41316" lon="5.83798">
        <ele>878</ele>
        <time>2019-03-29T15:19:36Z</time>
      </trkpt>
      <trkpt lat="44.41315" lon="5.838">
        <ele>879</ele>
        <time>2019-03-29T15:19:37Z</time>
      </trkpt>
      <trkpt lat="44.41314" lon="5.83802">
        <ele>879</ele>
        <time>2019-03-29T15:19:38Z</time>
      </trkpt>
      <trkpt lat="44.41313" lon="5.83804">
        <ele>879</ele>
        <time>2019-03-29T15:19:39Z</time>
      </trkpt>
      <trkpt lat="44.41312" lon="5.83806">
        <ele>879</ele>
        <time>2019-03-29T15:19:40Z</time>
      </trkpt>
      <trkpt lat="44.4131" lon="5.83808">
        <ele>879</ele>
        <time>2019-03-29T15:19:41Z</time>
      </trkpt>
      <trkpt lat="44.41309" lon="5.8381">
        <ele>879</ele>
        <time>2019-03-29T15:19:42Z</time>
      </trkpt>
      <trkpt lat="44.41308" lon="5.83812">
        <ele>880</ele>
        <time>2019-03-29T15:19:43Z</time>
      </trkpt>
      <trkpt lat="44.41307" lon="5.83814">
        <ele>880</ele>
        <time>2019-03-29T15:19:44Z</time>
      </trkpt>
      <trkpt lat="44.41306" lon="5.83816">
        <ele>880</ele>
        <time>2019-03-29T15:19:45Z</time>
      </trkpt>
      <trkpt lat="44.41306" lon="5.83818">
        <ele>880</ele>
        <time>2019-03-29T15:19:46Z</time>
      </trkpt>
      <trkpt lat="44.41305" lon="5.83821">
        <ele>880</ele>
        <time>2019-03-29T15:19:47Z</time>
      </trkpt>
      <trkpt lat="44.41304" lon="5.83823">
        <ele>881</ele>
        <time>2019-03-29T15:19:48Z</time>
      </trkpt>
      <trkpt lat="44.41303" lon="5.83825">
        <ele>881</ele>
        <time>2019-03-29T15:19:49Z</time>
      </trkpt>
      <trkpt lat="44.41302" lon="5.83827">
        <ele>881</ele>
        <time>2019-03-29T15:19:50Z</time>
      </trkpt>
      <trkpt lat="44.41301" lon="5.83829">
        <ele>881</ele>
        <time>2019-03-29T15:19:51Z</time>
      </trkpt>
      <trkpt lat="44.41299" lon="5.83832">
        <ele>882</ele>
        <time>2019-03-29T15:19:52Z</time>
      </trkpt>
      <trkpt lat="44.41298" lon="5.83834">
        <ele>882</ele>
        <time>2019-03-29T15:19:53Z</time>
      </trkpt>
      <trkpt lat="44.41297" lon="5.83836">
        <ele>882</ele>
        <time>2019-03-29T15:19:54Z</time>
      </trkpt>
      <trkpt lat="44.41296" lon="5.83839">
        <ele>882</ele>
        <time>2019-03-29T15:19:55Z</time>
      </trkpt>
      <trkpt lat="44.41294" lon="5.83841">
        <ele>882</ele>
        <time>2019-03-29T15:19:56Z</time>
      </trkpt>
      <trkpt lat="44.41293" lon="5.83843">
        <ele>882</ele>
        <time>2019-03-29T15:19:57Z</time>
      </trkpt>
      <trkpt lat="44.41292" lon="5.83846">
        <ele>883</ele>
        <time>2019-03-29T15:19:58Z</time>
      </trkpt>
      <trkpt lat="44.41291" lon="5.83848">
        <ele>883</ele>
        <time>2019-03-29T15:19:59Z</time>
      </trkpt>
      <trkpt lat="44.4129" lon="5.8385">
        <ele>883</ele>
        <time>2019-03-29T15:20:00Z</time>
      </trkpt>
      <trkpt lat="44.41288" lon="5.83852">
        <ele>883</ele>
        <time>2019-03-29T15:20:01Z</time>
      </trkpt>
      <trkpt lat="44.41287" lon="5.83854">
        <ele>884</ele>
        <time>2019-03-29T15:20:02Z</time>
      </trkpt>
      <trkpt lat="44.41285" lon="5.83856">
        <ele>884</ele>
        <time>2019-03-29T15:20:03Z</time>
      </trkpt>
      <trkpt lat="44.41284" lon="5.83858">
        <ele>884</ele>
        <time>2019-03-29T15:20:04Z</time>
      </trkpt>
      <trkpt lat="44.41283" lon="5.8386">
        <ele>884</ele>
        <time>2019-03-29T15:20:05Z</time>
      </trkpt>
      <trkpt lat="44.41281" lon="5.83862">
        <ele>885</ele>
        <time>2019-03-29T15:20:06Z</time>
      </trkpt>
      <trkpt lat="44.4128" lon="5.83864">
        <ele>885</ele>
        <time>2019-03-29T15:20:07Z</time>
      </trkpt>
      <trkpt lat="44.41279" lon="5.83867">
        <ele>885</ele>
        <time>2019-03-29T15:20:08Z</time>
      </trkpt>
      <trkpt lat="44.41278" lon="5.83869">
        <ele>885</ele>
        <time>2019-03-29T15:20:09Z</time>
      </trkpt>
      <trkpt lat="44.41278" lon="5.83871">
        <ele>885</ele>
        <time>2019-03-29T15:20:10Z</time>
      </trkpt>
      <trkpt lat="44.41277" lon="5.83874">
        <ele>886</ele>
        <time>2019-03-29T15:20:11Z</time>
      </trkpt>
      <trkpt lat="44.41277" lon="5.83876">
        <ele>886</ele>
        <time>2019-03-29T15:20:12Z</time>
      </trkpt>
      <trkpt lat="44.41276" lon="5.83879">
        <ele>886</ele>
        <time>2019-03-29T15:20:13Z</time>
      </trkpt>
      <trkpt lat="44.41275" lon="5.83881">
        <ele>886</ele>
        <time>2019-03-29T15:20:14Z</time>
      </trkpt>
      <trkpt lat="44.41275" lon="5.83884">
        <ele>887</ele>
        <time>2019-03-29T15:20:15Z</time>
      </trkpt>
      <trkpt lat="44.41274" lon="5.83886">
        <ele>887</ele>
        <time>2019-03-29T15:20:16Z</time>
      </trkpt>
      <trkpt lat="44.41273" lon="5.83889">
        <ele>887</ele>
        <time>2019-03-29T15:20:17Z</time>
      </trkpt>
      <trkpt lat="44.41272" lon="5.83892">
        <ele>887</ele>
        <time>2019-03-29T15:20:18Z</time>
      </trkpt>
      <trkpt lat="44.41272" lon="5.83894">
        <ele>887</ele>
        <time>2019-03-29T15:20:19Z</time>
      </trkpt>
      <trkpt lat="44.41271" lon="5.83897">
        <ele>887</ele>
        <time>2019-03-29T15:20:20Z</time>
      </trkpt>
      <trkpt lat="44.4127" lon="5.83899">
        <ele>888</ele>
        <time>2019-03-29T15:20:21Z</time>
      </trkpt>
      <trkpt lat="44.41269" lon="5.83901">
        <ele>888</ele>
        <time>2019-03-29T15:20:22Z</time>
      </trkpt>
      <trkpt lat="44.41267" lon="5.83903">
        <ele>888</ele>
        <time>2019-03-29T15:20:23Z</time>
      </trkpt>
      <trkpt lat="44.41266" lon="5.83905">
        <ele>889</ele>
        <time>2019-03-29T15:20:24Z</time>
      </trkpt>
      <trkpt lat="44.41265" lon="5.83906">
        <ele>889</ele>
        <time>2019-03-29T15:20:25Z</time>
      </trkpt>
      <trkpt lat="44.41263" lon="5.83907">
        <ele>889</ele>
        <time>2019-03-29T15:20:26Z</time>
      </trkpt>
      <trkpt lat="44.41262" lon="5.83908">
        <ele>889</ele>
        <time>2019-03-29T15:20:27Z</time>
      </trkpt>
      <trkpt lat="44.4126" lon="5.83909">
        <ele>889</ele>
        <time>2019-03-29T15:20:28Z</time>
      </trkpt>
      <trkpt lat="44.41258" lon="5.8391">
        <ele>889</ele>
        <time>2019-03-29T15:20:29Z</time>
      </trkpt>
      <trkpt lat="44.41257" lon="5.83911">
        <ele>889</ele>
        <time>2019-03-29T15:20:30Z</time>
      </trkpt>
      <trkpt lat="44.41255" lon="5.83912">
        <ele>889</ele>
        <time>2019-03-29T15:20:31Z</time>
      </trkpt>
      <trkpt lat="44.41253" lon="5.83913">
        <ele>889</ele>
        <time>2019-03-29T15:20:32Z</time>
      </trkpt>
      <trkpt lat="44.41252" lon="5.83914">
        <ele>890</ele>
        <time>2019-03-29T15:20:33Z</time>
      </trkpt>
      <trkpt lat="44.4125" lon="5.83914">
        <ele>890</ele>
        <time>2019-03-29T15:20:34Z</time>
      </trkpt>
      <trkpt lat="44.41248" lon="5.83915">
        <ele>890</ele>
        <time>2019-03-29T15:20:35Z</time>
      </trkpt>
      <trkpt lat="44.41246" lon="5.83916">
        <ele>890</ele>
        <time>2019-03-29T15:20:36Z</time>
      </trkpt>
      <trkpt lat="44.41245" lon="5.83917">
        <ele>890</ele>
        <time>2019-03-29T15:20:37Z</time>
      </trkpt>
      <trkpt lat="44.41243" lon="5.83918">
        <ele>890</ele>
        <time>2019-03-29T15:20:38Z</time>
      </trkpt>
      <trkpt lat="44.41241" lon="5.83918">
        <ele>891</ele>
        <time>2019-03-29T15:20:39Z</time>
      </trkpt>
      <trkpt lat="44.4124" lon="5.83919">
        <ele>891</ele>
        <time>2019-03-29T15:20:40Z</time>
      </trkpt>
      <trkpt lat="44.41238" lon="5.8392">
        <ele>891</ele>
        <time>2019-03-29T15:20:41Z</time>
      </trkpt>
      <trkpt lat="44.41236" lon="5.8392">
        <ele>891</ele>
        <time>2019-03-29T15:20:42Z</time>
      </trkpt>
      <trkpt lat="44.41235" lon="5.8392">
        <ele>892</ele>
        <time>2019-03-29T15:20:43Z</time>
      </trkpt>
      <trkpt lat="44.41233" lon="5.8392">
        <ele>892</ele>
        <time>2019-03-29T15:20:44Z</time>
      </trkpt>
      <trkpt lat="44.41231" lon="5.83921">
        <ele>892</ele>
        <time>2019-03-29T15:20:45Z</time>
      </trkpt>
      <trkpt lat="44.4123" lon="5.83921">
        <ele>892</ele>
        <time>2019-03-29T15:20:46Z</time>
      </trkpt>
      <trkpt lat="44.41228" lon="5.83921">
        <ele>892</ele>
        <time>2019-03-29T15:20:47Z</time>
      </trkpt>
      <trkpt lat="44.41226" lon="5.8392">
        <ele>892</ele>
        <time>2019-03-29T15:20:48Z</time>
      </trkpt>
      <trkpt lat="44.41224" lon="5.83919">
        <ele>892</ele>
        <time>2019-03-29T15:20:49Z</time>
      </trkpt>
      <trkpt lat="44.41222" lon="5.83919">
        <ele>893</ele>
        <time>2019-03-29T15:20:50Z</time>
      </trkpt>
      <trkpt lat="44.4122" lon="5.83919">
        <ele>893</ele>
        <time>2019-03-29T15:20:51Z</time>
      </trkpt>
      <trkpt lat="44.41219" lon="5.83919">
        <ele>893</ele>
        <time>2019-03-29T15:20:52Z</time>
      </trkpt>
      <trkpt lat="44.41217" lon="5.83919">
        <ele>893</ele>
        <time>2019-03-29T15:20:53Z</time>
      </trkpt>
      <trkpt lat="44.41215" lon="5.8392">
        <ele>893</ele>
        <time>2019-03-29T15:20:54Z</time>
      </trkpt>
      <trkpt lat="44.41213" lon="5.8392">
        <ele>894</ele>
        <time>2019-03-29T15:20:55Z</time>
      </trkpt>
      <trkpt lat="44.41211" lon="5.83921">
        <ele>894</ele>
        <time>2019-03-29T15:20:56Z</time>
      </trkpt>
      <trkpt lat="44.41209" lon="5.83922">
        <ele>894</ele>
        <time>2019-03-29T15:20:57Z</time>
      </trkpt>
      <trkpt lat="44.41207" lon="5.83923">
        <ele>894</ele>
        <time>2019-03-29T15:20:58Z</time>
      </trkpt>
      <trkpt lat="44.41205" lon="5.83924">
        <ele>895</ele>
        <time>2019-03-29T15:20:59Z</time>
      </trkpt>
      <trkpt lat="44.41203" lon="5.83924">
        <ele>895</ele>
        <time>2019-03-29T15:21:00Z</time>
      </trkpt>
      <trkpt lat="44.41201" lon="5.83925">
        <ele>895</ele>
        <time>2019-03-29T15:21:01Z</time>
      </trkpt>
      <trkpt lat="44.41199" lon="5.83927">
        <ele>895</ele>
        <time>2019-03-29T15:21:02Z</time>
      </trkpt>
      <trkpt lat="44.41198" lon="5.83927">
        <ele>896</ele>
        <time>2019-03-29T15:21:03Z</time>
      </trkpt>
      <trkpt lat="44.41196" lon="5.83928">
        <ele>896</ele>
        <time>2019-03-29T15:21:04Z</time>
      </trkpt>
      <trkpt lat="44.41195" lon="5.83929">
        <ele>896</ele>
        <time>2019-03-29T15:21:05Z</time>
      </trkpt>
      <trkpt lat="44.41193" lon="5.8393">
        <ele>897</ele>
        <time>2019-03-29T15:21:06Z</time>
      </trkpt>
      <trkpt lat="44.41192" lon="5.83931">
        <ele>897</ele>
        <time>2019-03-29T15:21:07Z</time>
      </trkpt>
      <trkpt lat="44.4119" lon="5.83931">
        <ele>897</ele>
        <time>2019-03-29T15:21:08Z</time>
      </trkpt>
      <trkpt lat="44.41188" lon="5.83931">
        <ele>897</ele>
        <time>2019-03-29T15:21:09Z</time>
      </trkpt>
      <trkpt lat="44.41187" lon="5.83931">
        <ele>898</ele>
        <time>2019-03-29T15:21:10Z</time>
      </trkpt>
      <trkpt lat="44.41185" lon="5.8393">
        <ele>898</ele>
        <time>2019-03-29T15:21:11Z</time>
      </trkpt>
      <trkpt lat="44.41183" lon="5.8393">
        <ele>898</ele>
        <time>2019-03-29T15:21:12Z</time>
      </trkpt>
      <trkpt lat="44.41181" lon="5.83929">
        <ele>898</ele>
        <time>2019-03-29T15:21:13Z</time>
      </trkpt>
      <trkpt lat="44.41179" lon="5.83929">
        <ele>899</ele>
        <time>2019-03-29T15:21:14Z</time>
      </trkpt>
      <trkpt lat="44.41177" lon="5.83928">
        <ele>899</ele>
        <time>2019-03-29T15:21:15Z</time>
      </trkpt>
      <trkpt lat="44.41176" lon="5.83927">
        <ele>899</ele>
        <time>2019-03-29T15:21:16Z</time>
      </trkpt>
      <trkpt lat="44.41174" lon="5.83926">
        <ele>899</ele>
        <time>2019-03-29T15:21:17Z</time>
      </trkpt>
      <trkpt lat="44.41172" lon="5.83925">
        <ele>900</ele>
        <time>2019-03-29T15:21:18Z</time>
      </trkpt>
      <trkpt lat="44.41171" lon="5.83925">
        <ele>900</ele>
        <time>2019-03-29T15:21:19Z</time>
      </trkpt>
      <trkpt lat="44.41169" lon="5.83925">
        <ele>900</ele>
        <time>2019-03-29T15:21:20Z</time>
      </trkpt>
      <trkpt lat="44.41167" lon="5.83924">
        <ele>900</ele>
        <time>2019-03-29T15:21:21Z</time>
      </trkpt>
      <trkpt lat="44.41166" lon="5.83924">
        <ele>900</ele>
        <time>2019-03-29T15:21:22Z</time>
      </trkpt>
      <trkpt lat="44.41164" lon="5.83924">
        <ele>900</ele>
        <time>2019-03-29T15:21:23Z</time>
      </trkpt>
      <trkpt lat="44.41162" lon="5.83925">
        <ele>900</ele>
        <time>2019-03-29T15:21:24Z</time>
      </trkpt>
      <trkpt lat="44.41161" lon="5.83925">
        <ele>901</ele>
        <time>2019-03-29T15:21:25Z</time>
      </trkpt>
      <trkpt lat="44.41159" lon="5.83925">
        <ele>901</ele>
        <time>2019-03-29T15:21:26Z</time>
      </trkpt>
      <trkpt lat="44.41157" lon="5.83925">
        <ele>901</ele>
        <time>2019-03-29T15:21:27Z</time>
      </trkpt>
      <trkpt lat="44.41155" lon="5.83925">
        <ele>901</ele>
        <time>2019-03-29T15:21:28Z</time>
      </trkpt>
      <trkpt lat="44.41153" lon="5.83925">
        <ele>902</ele>
        <time>2019-03-29T15:21:29Z</time>
      </trkpt>
      <trkpt lat="44.41151" lon="5.83924">
        <ele>902</ele>
        <time>2019-03-29T15:21:30Z</time>
      </trkpt>
      <trkpt lat="44.41149" lon="5.83923">
        <ele>902</ele>
        <time>2019-03-29T15:21:31Z</time>
      </trkpt>
      <trkpt lat="44.41148" lon="5.83923">
        <ele>902</ele>
        <time>2019-03-29T15:21:32Z</time>
      </trkpt>
      <trkpt lat="44.41145" lon="5.83922">
        <ele>903</ele>
        <time>2019-03-29T15:21:33Z</time>
      </trkpt>
      <trkpt lat="44.41143" lon="5.83921">
        <ele>903</ele>
        <time>2019-03-29T15:21:34Z</time>
      </trkpt>
      <trkpt lat="44.41141" lon="5.8392">
        <ele>903</ele>
        <time>2019-03-29T15:21:35Z</time>
      </trkpt>
      <trkpt lat="44.41139" lon="5.83919">
        <ele>903</ele>
        <time>2019-03-29T15:21:36Z</time>
      </trkpt>
      <trkpt lat="44.41137" lon="5.83919">
        <ele>904</ele>
        <time>2019-03-29T15:21:37Z</time>
      </trkpt>
      <trkpt lat="44.41135" lon="5.83919">
        <ele>904</ele>
        <time>2019-03-29T15:21:38Z</time>
      </trkpt>
      <trkpt lat="44.41133" lon="5.83918">
        <ele>904</ele>
        <time>2019-03-29T15:21:39Z</time>
      </trkpt>
      <trkpt lat="44.41132" lon="5.83918">
        <ele>904</ele>
        <time>2019-03-29T15:21:40Z</time>
      </trkpt>
      <trkpt lat="44.4113" lon="5.83917">
        <ele>904</ele>
        <time>2019-03-29T15:21:41Z</time>
      </trkpt>
      <trkpt lat="44.41127" lon="5.83918">
        <ele>905</ele>
        <time>2019-03-29T15:21:42Z</time>
      </trkpt>
      <trkpt lat="44.41126" lon="5.83918">
        <ele>905</ele>
        <time>2019-03-29T15:21:43Z</time>
      </trkpt>
      <trkpt lat="44.41124" lon="5.83919">
        <ele>905</ele>
        <time>2019-03-29T15:21:44Z</time>
      </trkpt>
      <trkpt lat="44.41122" lon="5.8392">
        <ele>905</ele>
        <time>2019-03-29T15:21:45Z</time>
      </trkpt>
      <trkpt lat="44.41121" lon="5.83921">
        <ele>905</ele>
        <time>2019-03-29T15:21:46Z</time>
      </trkpt>
      <trkpt lat="44.41119" lon="5.83922">
        <ele>906</ele>
        <time>2019-03-29T15:21:47Z</time>
      </trkpt>
      <trkpt lat="44.41117" lon="5.83924">
        <ele>906</ele>
        <time>2019-03-29T15:21:48Z</time>
      </trkpt>
      <trkpt lat="44.41116" lon="5.83925">
        <ele>906</ele>
        <time>2019-03-29T15:21:49Z</time>
      </trkpt>
      <trkpt lat="44.41114" lon="5.83927">
        <ele>906</ele>
        <time>2019-03-29T15:21:50Z</time>
      </trkpt>
      <trkpt lat="44.41113" lon="5.83928">
        <ele>906</ele>
        <time>2019-03-29T15:21:51Z</time>
      </trkpt>
      <trkpt lat="44.41111" lon="5.8393">
        <ele>907</ele>
        <time>2019-03-29T15:21:52Z</time>
      </trkpt>
      <trkpt lat="44.4111" lon="5.83932">
        <ele>907</ele>
        <time>2019-03-29T15:21:53Z</time>
      </trkpt>
      <trkpt lat="44.41109" lon="5.83934">
        <ele>907</ele>
        <time>2019-03-29T15:21:54Z</time>
      </trkpt>
      <trkpt lat="44.41107" lon="5.83935">
        <ele>908</ele>
        <time>2019-03-29T15:21:55Z</time>
      </trkpt>
      <trkpt lat="44.41106" lon="5.83937">
        <ele>908</ele>
        <time>2019-03-29T15:21:56Z</time>
      </trkpt>
      <trkpt lat="44.41105" lon="5.83939">
        <ele>908</ele>
        <time>2019-03-29T15:21:57Z</time>
      </trkpt>
      <trkpt lat="44.41103" lon="5.83941">
        <ele>908</ele>
        <time>2019-03-29T15:21:58Z</time>
      </trkpt>
      <trkpt lat="44.41102" lon="5.83943">
        <ele>909</ele>
        <time>2019-03-29T15:21:59Z</time>
      </trkpt>
      <trkpt lat="44.411" lon="5.83944">
        <ele>909</ele>
        <time>2019-03-29T15:22:00Z</time>
      </trkpt>
      <trkpt lat="44.41099" lon="5.83946">
        <ele>909</ele>
        <time>2019-03-29T15:22:01Z</time>
      </trkpt>
      <trkpt lat="44.41098" lon="5.83947">
        <ele>909</ele>
        <time>2019-03-29T15:22:02Z</time>
      </trkpt>
      <trkpt lat="44.41096" lon="5.83949">
        <ele>909</ele>
        <time>2019-03-29T15:22:03Z</time>
      </trkpt>
      <trkpt lat="44.41094" lon="5.8395">
        <ele>910</ele>
        <time>2019-03-29T15:22:04Z</time>
      </trkpt>
      <trkpt lat="44.41093" lon="5.83951">
        <ele>910</ele>
        <time>2019-03-29T15:22:05Z</time>
      </trkpt>
      <trkpt lat="44.41091" lon="5.83951">
        <ele>910</ele>
        <time>2019-03-29T15:22:06Z</time>
      </trkpt>
      <trkpt lat="44.41089" lon="5.83951">
        <ele>910</ele>
        <time>2019-03-29T15:22:07Z</time>
      </trkpt>
      <trkpt lat="44.41087" lon="5.8395">
        <ele>910</ele>
        <time>2019-03-29T15:22:08Z</time>
      </trkpt>
      <trkpt lat="44.41085" lon="5.8395">
        <ele>910</ele>
        <time>2019-03-29T15:22:09Z</time>
      </trkpt>
      <trkpt lat="44.41083" lon="5.83949">
        <ele>910</ele>
        <time>2019-03-29T15:22:10Z</time>
      </trkpt>
      <trkpt lat="44.41081" lon="5.83949">
        <ele>910</ele>
        <time>2019-03-29T15:22:11Z</time>
      </trkpt>
      <trkpt lat="44.41079" lon="5.83949">
        <ele>910</ele>
        <time>2019-03-29T15:22:12Z</time>
      </trkpt>
      <trkpt lat="44.41077" lon="5.83949">
        <ele>910</ele>
        <time>2019-03-29T15:22:13Z</time>
      </trkpt>
      <trkpt lat="44.41076" lon="5.83948">
        <ele>911</ele>
        <time>2019-03-29T15:22:14Z</time>
      </trkpt>
      <trkpt lat="44.41074" lon="5.83948">
        <ele>911</ele>
        <time>2019-03-29T15:22:15Z</time>
      </trkpt>
      <trkpt lat="44.41072" lon="5.83948">
        <ele>911</ele>
        <time>2019-03-29T15:22:16Z</time>
      </trkpt>
      <trkpt lat="44.4107" lon="5.83948">
        <ele>911</ele>
        <time>2019-03-29T15:22:17Z</time>
      </trkpt>
      <trkpt lat="44.41068" lon="5.83949">
        <ele>912</ele>
        <time>2019-03-29T15:22:18Z</time>
      </trkpt>
      <trkpt lat="44.41066" lon="5.83949">
        <ele>912</ele>
        <time>2019-03-29T15:22:19Z</time>
      </trkpt>
      <trkpt lat="44.41064" lon="5.8395">
        <ele>912</ele>
        <time>2019-03-29T15:22:20Z</time>
      </trkpt>
      <trkpt lat="44.41062" lon="5.83951">
        <ele>913</ele>
        <time>2019-03-29T15:22:21Z</time>
      </trkpt>
      <trkpt lat="44.41061" lon="5.83952">
        <ele>913</ele>
        <time>2019-03-29T15:22:22Z</time>
      </trkpt>
      <trkpt lat="44.41059" lon="5.83953">
        <ele>914</ele>
        <time>2019-03-29T15:22:23Z</time>
      </trkpt>
      <trkpt lat="44.41057" lon="5.83954">
        <ele>914</ele>
        <time>2019-03-29T15:22:24Z</time>
      </trkpt>
      <trkpt lat="44.41055" lon="5.83955">
        <ele>914</ele>
        <time>2019-03-29T15:22:25Z</time>
      </trkpt>
      <trkpt lat="44.41053" lon="5.83956">
        <ele>915</ele>
        <time>2019-03-29T15:22:26Z</time>
      </trkpt>
      <trkpt lat="44.41052" lon="5.83958">
        <ele>915</ele>
        <time>2019-03-29T15:22:27Z</time>
      </trkpt>
      <trkpt lat="44.4105" lon="5.83959">
        <ele>915</ele>
        <time>2019-03-29T15:22:28Z</time>
      </trkpt>
      <trkpt lat="44.41048" lon="5.83961">
        <ele>915</ele>
        <time>2019-03-29T15:22:29Z</time>
      </trkpt>
      <trkpt lat="44.41047" lon="5.83962">
        <ele>915</ele>
        <time>2019-03-29T15:22:30Z</time>
      </trkpt>
      <trkpt lat="44.41045" lon="5.83963">
        <ele>915</ele>
        <time>2019-03-29T15:22:31Z</time>
      </trkpt>
      <trkpt lat="44.41043" lon="5.83965">
        <ele>916</ele>
        <time>2019-03-29T15:22:32Z</time>
      </trkpt>
      <trkpt lat="44.41042" lon="5.83967">
        <ele>916</ele>
        <time>2019-03-29T15:22:33Z</time>
      </trkpt>
      <trkpt lat="44.41041" lon="5.83968">
        <ele>916</ele>
        <time>2019-03-29T15:22:34Z</time>
      </trkpt>
      <trkpt lat="44.41039" lon="5.83969">
        <ele>916</ele>
        <time>2019-03-29T15:22:35Z</time>
      </trkpt>
      <trkpt lat="44.41037" lon="5.8397">
        <ele>917</ele>
        <time>2019-03-29T15:22:36Z</time>
      </trkpt>
      <trkpt lat="44.41035" lon="5.8397">
        <ele>917</ele>
        <time>2019-03-29T15:22:37Z</time>
      </trkpt>
      <trkpt lat="44.41034" lon="5.83971">
        <ele>917</ele>
        <time>2019-03-29T15:22:38Z</time>
      </trkpt>
      <trkpt lat="44.41032" lon="5.83973">
        <ele>918</ele>
        <time>2019-03-29T15:22:39Z</time>
      </trkpt>
      <trkpt lat="44.4103" lon="5.83974">
        <ele>918</ele>
        <time>2019-03-29T15:22:40Z</time>
      </trkpt>
      <trkpt lat="44.41028" lon="5.83976">
        <ele>918</ele>
        <time>2019-03-29T15:22:41Z</time>
      </trkpt>
      <trkpt lat="44.41026" lon="5.83977">
        <ele>919</ele>
        <time>2019-03-29T15:22:42Z</time>
      </trkpt>
      <trkpt lat="44.41024" lon="5.83978">
        <ele>919</ele>
        <time>2019-03-29T15:22:43Z</time>
      </trkpt>
      <trkpt lat="44.41021" lon="5.83979">
        <ele>919</ele>
        <time>2019-03-29T15:22:44Z</time>
      </trkpt>
      <trkpt lat="44.41019" lon="5.83979">
        <ele>919</ele>
        <time>2019-03-29T15:22:45Z</time>
      </trkpt>
      <trkpt lat="44.41017" lon="5.8398">
        <ele>920</ele>
        <time>2019-03-29T15:22:46Z</time>
      </trkpt>
      <trkpt lat="44.41015" lon="5.83981">
        <ele>920</ele>
        <time>2019-03-29T15:22:47Z</time>
      </trkpt>
      <trkpt lat="44.41014" lon="5.83982">
        <ele>920</ele>
        <time>2019-03-29T15:22:48Z</time>
      </trkpt>
      <trkpt lat="44.41013" lon="5.83983">
        <ele>921</ele>
        <time>2019-03-29T15:22:49Z</time>
      </trkpt>
      <trkpt lat="44.41011" lon="5.83983">
        <ele>922</ele>
        <time>2019-03-29T15:22:50Z</time>
      </trkpt>
      <trkpt lat="44.41009" lon="5.83983">
        <ele>923</ele>
        <time>2019-03-29T15:22:51Z</time>
      </trkpt>
      <trkpt lat="44.41007" lon="5.83984">
        <ele>923</ele>
        <time>2019-03-29T15:22:52Z</time>
      </trkpt>
      <trkpt lat="44.41005" lon="5.83985">
        <ele>923</ele>
        <time>2019-03-29T15:22:53Z</time>
      </trkpt>
      <trkpt lat="44.41003" lon="5.83985">
        <ele>923</ele>
        <time>2019-03-29T15:22:54Z</time>
      </trkpt>
      <trkpt lat="44.41001" lon="5.83985">
        <ele>923</ele>
        <time>2019-03-29T15:22:55Z</time>
      </trkpt>
      <trkpt lat="44.40999" lon="5.83985">
        <ele>923</ele>
        <time>2019-03-29T15:22:56Z</time>
      </trkpt>
      <trkpt lat="44.40997" lon="5.83987">
        <ele>923</ele>
        <time>2019-03-29T15:22:57Z</time>
      </trkpt>
      <trkpt lat="44.40996" lon="5.83987">
        <ele>923</ele>
        <time>2019-03-29T15:22:58Z</time>
      </trkpt>
      <trkpt lat="44.40994" lon="5.83988">
        <ele>923</ele>
        <time>2019-03-29T15:22:59Z</time>
      </trkpt>
      <trkpt lat="44.40992" lon="5.83988">
        <ele>923</ele>
        <time>2019-03-29T15:23:00Z</time>
      </trkpt>
      <trkpt lat="44.4099" lon="5.83989">
        <ele>923</ele>
        <time>2019-03-29T15:23:01Z</time>
      </trkpt>
      <trkpt lat="44.40987" lon="5.8399">
        <ele>923</ele>
        <time>2019-03-29T15:23:02Z</time>
      </trkpt>
      <trkpt lat="44.40985" lon="5.8399">
        <ele>923</ele>
        <time>2019-03-29T15:23:03Z</time>
      </trkpt>
      <trkpt lat="44.40983" lon="5.8399">
        <ele>923</ele>
        <time>2019-03-29T15:23:04Z</time>
      </trkpt>
      <trkpt lat="44.40981" lon="5.83991">
        <ele>923</ele>
        <time>2019-03-29T15:23:05Z</time>
      </trkpt>
      <trkpt lat="44.40979" lon="5.83992">
        <ele>923</ele>
        <time>2019-03-29T15:23:06Z</time>
      </trkpt>
      <trkpt lat="44.40977" lon="5.83993">
        <ele>923</ele>
        <time>2019-03-29T15:23:07Z</time>
      </trkpt>
      <trkpt lat="44.40975" lon="5.83994">
        <ele>923</ele>
        <time>2019-03-29T15:23:08Z</time>
      </trkpt>
      <trkpt lat="44.40973" lon="5.83995">
        <ele>923</ele>
        <time>2019-03-29T15:23:09Z</time>
      </trkpt>
      <trkpt lat="44.40971" lon="5.83996">
        <ele>923</ele>
        <time>2019-03-29T15:23:10Z</time>
      </trkpt>
      <trkpt lat="44.40969" lon="5.83997">
        <ele>923</ele>
        <time>2019-03-29T15:23:11Z</time>
      </trkpt>
      <trkpt lat="44.40968" lon="5.83999">
        <ele>923</ele>
        <time>2019-03-29T15:23:12Z</time>
      </trkpt>
      <trkpt lat="44.40966" lon="5.84">
        <ele>923</ele>
        <time>2019-03-29T15:23:13Z</time>
      </trkpt>
      <trkpt lat="44.40963" lon="5.84002">
        <ele>923</ele>
        <time>2019-03-29T15:23:14Z</time>
      </trkpt>
      <trkpt lat="44.40961" lon="5.84003">
        <ele>923</ele>
        <time>2019-03-29T15:23:15Z</time>
      </trkpt>
      <trkpt lat="44.40959" lon="5.84004">
        <ele>923</ele>
        <time>2019-03-29T15:23:16Z</time>
      </trkpt>
      <trkpt lat="44.40957" lon="5.84005">
        <ele>923</ele>
        <time>2019-03-29T15:23:17Z</time>
      </trkpt>
      <trkpt lat="44.40956" lon="5.84007">
        <ele>923</ele>
        <time>2019-03-29T15:23:18Z</time>
      </trkpt>
      <trkpt lat="44.40954" lon="5.84008">
        <ele>923</ele>
        <time>2019-03-29T15:23:19Z</time>
      </trkpt>
      <trkpt lat="44.40952" lon="5.8401">
        <ele>923</ele>
        <time>2019-03-29T15:23:20Z</time>
      </trkpt>
      <trkpt lat="44.40951" lon="5.84012">
        <ele>923</ele>
        <time>2019-03-29T15:23:21Z</time>
      </trkpt>
      <trkpt lat="44.4095" lon="5.84013">
        <ele>923</ele>
        <time>2019-03-29T15:23:22Z</time>
      </trkpt>
      <trkpt lat="44.40948" lon="5.84014">
        <ele>923</ele>
        <time>2019-03-29T15:23:23Z</time>
      </trkpt>
      <trkpt lat="44.40947" lon="5.84016">
        <ele>923</ele>
        <time>2019-03-29T15:23:24Z</time>
      </trkpt>
      <trkpt lat="44.40946" lon="5.84018">
        <ele>923</ele>
        <time>2019-03-29T15:23:25Z</time>
      </trkpt>
      <trkpt lat="44.40945" lon="5.8402">
        <ele>923</ele>
        <time>2019-03-29T15:23:26Z</time>
      </trkpt>
      <trkpt lat="44.40943" lon="5.84022">
        <ele>923</ele>
        <time>2019-03-29T15:23:27Z</time>
      </trkpt>
      <trkpt lat="44.40942" lon="5.84023">
        <ele>923</ele>
        <time>2019-03-29T15:23:29Z</time>
      </trkpt>
      <trkpt lat="44.40941" lon="5.84024">
        <ele>923</ele>
        <time>2019-03-29T15:23:39Z</time>
      </trkpt>
      <trkpt lat="44.40942" lon="5.84025">
        <ele>923</ele>
        <time>2019-03-29T15:23:51Z</time>
      </trkpt>
      <trkpt lat="44.40942" lon="5.84023">
        <ele>923</ele>
        <time>2019-03-29T15:23:57Z</time>
      </trkpt>
      <trkpt lat="44.4094" lon="5.84024">
        <ele>923</ele>
        <time>2019-03-29T15:24:05Z</time>
      </trkpt>
      <trkpt lat="44.40941" lon="5.84025">
        <ele>923</ele>
        <time>2019-03-29T15:24:17Z</time>
      </trkpt>
      <trkpt lat="44.40939" lon="5.84026">
        <ele>927</ele>
        <time>2019-03-29T15:24:33Z</time>
      </trkpt>
      <trkpt lat="44.40938" lon="5.84024">
        <ele>927</ele>
        <time>2019-03-29T15:24:39Z</time>
      </trkpt>
      <trkpt lat="44.40937" lon="5.84024">
        <ele>926</ele>
        <time>2019-03-29T15:24:45Z</time>
      </trkpt>
      <trkpt lat="44.40939" lon="5.84024">
        <ele>925</ele>
        <time>2019-03-29T15:25:20Z</time>
      </trkpt>
      <trkpt lat="44.4094" lon="5.84024">
        <ele>925</ele>
        <time>2019-03-29T15:25:23Z</time>
      </trkpt>
      <trkpt lat="44.40941" lon="5.84024">
        <ele>925</ele>
        <time>2019-03-29T15:25:38Z</time>
      </trkpt>
      <trkpt lat="44.40942" lon="5.84024">
        <ele>925</ele>
        <time>2019-03-29T15:25:44Z</time>
      </trkpt>
      <trkpt lat="44.40941" lon="5.84024">
        <ele>925</ele>
        <time>2019-03-29T15:25:49Z</time>
      </trkpt>
      <trkpt lat="44.4094" lon="5.84023">
        <ele>925</ele>
        <time>2019-03-29T15:25:59Z</time>
      </trkpt>
      <trkpt lat="44.40939" lon="5.84024">
        <ele>925</ele>
        <time>2019-03-29T15:26:21Z</time>
      </trkpt>
      <trkpt lat="44.4094" lon="5.84025">
        <ele>925</ele>
        <time>2019-03-29T15:26:23Z</time>
      </trkpt>
      <trkpt lat="44.40939" lon="5.84025">
        <ele>925</ele>
        <time>2019-03-29T15:26:46Z</time>
      </trkpt>
      <trkpt lat="44.4094" lon="5.84026">
        <ele>925</ele>
        <time>2019-03-29T15:26:54Z</time>
      </trkpt>
      <trkpt lat="44.40939" lon="5.84025">
        <ele>926</ele>
        <time>2019-03-29T15:27:43Z</time>
      </trkpt>
      <trkpt lat="44.40939" lon="5.84024">
        <ele>926</ele>
        <time>2019-03-29T15:27:49Z</time>
      </trkpt>
      <trkpt lat="44.4094" lon="5.84024">
        <ele>926</ele>
        <time>2019-03-29T15:27:54Z</time>
      </trkpt>
      <trkpt lat="44.40941" lon="5.84023">
        <ele>926</ele>
        <time>2019-03-29T15:28:08Z</time>
      </trkpt>
      <trkpt lat="44.40942" lon="5.84021">
        <ele>927</ele>
        <time>2019-03-29T15:28:23Z</time>
      </trkpt>
      <trkpt lat="44.4094" lon="5.84021">
        <ele>929</ele>
        <time>2019-03-29T15:28:40Z</time>
      </trkpt>
      <trkpt lat="44.40939" lon="5.84021">
        <ele>927</ele>
        <time>2019-03-29T15:29:00Z</time>
      </trkpt>
      <trkpt lat="44.40939" lon="5.84023">
        <ele>926</ele>
        <time>2019-03-29T15:29:30Z</time>
      </trkpt>
      <trkpt lat="44.40941" lon="5.84023">
        <ele>926</ele>
        <time>2019-03-29T15:29:56Z</time>
      </trkpt>
      <trkpt lat="44.40939" lon="5.84024">
        <ele>926</ele>
        <time>2019-03-29T15:30:40Z</time>
      </trkpt>
      <trkpt lat="44.40938" lon="5.84024">
        <ele>926</ele>
        <time>2019-03-29T15:31:11Z</time>
      </trkpt>
      <trkpt lat="44.40937" lon="5.84024">
        <ele>926</ele>
        <time>2019-03-29T15:31:13Z</time>
      </trkpt>
      <trkpt lat="44.40936" lon="5.84023">
        <ele>926</ele>
        <time>2019-03-29T15:31:15Z</time>
      </trkpt>
      <trkpt lat="44.40933" lon="5.84022">
        <ele>926</ele>
        <time>2019-03-29T15:31:17Z</time>
      </trkpt>
      <trkpt lat="44.40932" lon="5.84023">
        <ele>926</ele>
        <time>2019-03-29T15:31:18Z</time>
      </trkpt>
      <trkpt lat="44.4093" lon="5.84024">
        <ele>926</ele>
        <time>2019-03-29T15:31:19Z</time>
      </trkpt>
      <trkpt lat="44.40928" lon="5.84024">
        <ele>926</ele>
        <time>2019-03-29T15:31:20Z</time>
      </trkpt>
      <trkpt lat="44.40926" lon="5.84024">
        <ele>926</ele>
        <time>2019-03-29T15:31:21Z</time>
      </trkpt>
      <trkpt lat="44.40923" lon="5.84025">
        <ele>926</ele>
        <time>2019-03-29T15:31:22Z</time>
      </trkpt>
      <trkpt lat="44.40919" lon="5.84025">
        <ele>926</ele>
        <time>2019-03-29T15:31:23Z</time>
      </trkpt>
      <trkpt lat="44.40916" lon="5.84025">
        <ele>926</ele>
        <time>2019-03-29T15:31:24Z</time>
      </trkpt>
      <trkpt lat="44.40913" lon="5.84026">
        <ele>926</ele>
        <time>2019-03-29T15:31:25Z</time>
      </trkpt>
      <trkpt lat="44.40909" lon="5.84027">
        <ele>926</ele>
        <time>2019-03-29T15:31:26Z</time>
      </trkpt>
      <trkpt lat="44.40905" lon="5.84028">
        <ele>926</ele>
        <time>2019-03-29T15:31:27Z</time>
      </trkpt>
      <trkpt lat="44.40902" lon="5.84029">
        <ele>926</ele>
        <time>2019-03-29T15:31:28Z</time>
      </trkpt>
      <trkpt lat="44.40897" lon="5.84029">
        <ele>926</ele>
        <time>2019-03-29T15:31:29Z</time>
      </trkpt>
      <trkpt lat="44.40893" lon="5.8403">
        <ele>926</ele>
        <time>2019-03-29T15:31:30Z</time>
      </trkpt>
      <trkpt lat="44.40888" lon="5.84031">
        <ele>926</ele>
        <time>2019-03-29T15:31:31Z</time>
      </trkpt>
      <trkpt lat="44.40884" lon="5.84033">
        <ele>926</ele>
        <time>2019-03-29T15:31:32Z</time>
      </trkpt>
      <trkpt lat="44.40879" lon="5.84034">
        <ele>926</ele>
        <time>2019-03-29T15:31:33Z</time>
      </trkpt>
      <trkpt lat="44.40875" lon="5.84035">
        <ele>926</ele>
        <time>2019-03-29T15:31:34Z</time>
      </trkpt>
      <trkpt lat="44.4087" lon="5.84036">
        <ele>926</ele>
        <time>2019-03-29T15:31:35Z</time>
      </trkpt>
      <trkpt lat="44.40866" lon="5.84037">
        <ele>926</ele>
        <time>2019-03-29T15:31:36Z</time>
      </trkpt>
      <trkpt lat="44.40861" lon="5.84038">
        <ele>926</ele>
        <time>2019-03-29T15:31:37Z</time>
      </trkpt>
      <trkpt lat="44.40857" lon="5.84039">
        <ele>926</ele>
        <time>2019-03-29T15:31:38Z</time>
      </trkpt>
      <trkpt lat="44.40852" lon="5.8404">
        <ele>926</ele>
        <time>2019-03-29T15:31:39Z</time>
      </trkpt>
      <trkpt lat="44.40848" lon="5.84041">
        <ele>926</ele>
        <time>2019-03-29T15:31:40Z</time>
      </trkpt>
      <trkpt lat="44.40843" lon="5.84042">
        <ele>926</ele>
        <time>2019-03-29T15:31:41Z</time>
      </trkpt>
      <trkpt lat="44.40839" lon="5.84043">
        <ele>926</ele>
        <time>2019-03-29T15:31:42Z</time>
      </trkpt>
      <trkpt lat="44.40834" lon="5.84044">
        <ele>926</ele>
        <time>2019-03-29T15:31:43Z</time>
      </trkpt>
      <trkpt lat="44.40829" lon="5.84045">
        <ele>926</ele>
        <time>2019-03-29T15:31:44Z</time>
      </trkpt>
      <trkpt lat="44.40824" lon="5.84047">
        <ele>926</ele>
        <time>2019-03-29T15:31:45Z</time>
      </trkpt>
      <trkpt lat="44.40819" lon="5.84048">
        <ele>926</ele>
        <time>2019-03-29T15:31:46Z</time>
      </trkpt>
      <trkpt lat="44.40813" lon="5.84049">
        <ele>925</ele>
        <time>2019-03-29T15:31:47Z</time>
      </trkpt>
      <trkpt lat="44.40808" lon="5.8405">
        <ele>925</ele>
        <time>2019-03-29T15:31:48Z</time>
      </trkpt>
      <trkpt lat="44.40803" lon="5.84051">
        <ele>925</ele>
        <time>2019-03-29T15:31:49Z</time>
      </trkpt>
      <trkpt lat="44.40797" lon="5.84053">
        <ele>925</ele>
        <time>2019-03-29T15:31:50Z</time>
      </trkpt>
      <trkpt lat="44.40792" lon="5.84054">
        <ele>925</ele>
        <time>2019-03-29T15:31:51Z</time>
      </trkpt>
      <trkpt lat="44.40787" lon="5.84055">
        <ele>925</ele>
        <time>2019-03-29T15:31:52Z</time>
      </trkpt>
      <trkpt lat="44.40782" lon="5.84056">
        <ele>925</ele>
        <time>2019-03-29T15:31:53Z</time>
      </trkpt>
      <trkpt lat="44.40777" lon="5.84058">
        <ele>925</ele>
        <time>2019-03-29T15:31:54Z</time>
      </trkpt>
      <trkpt lat="44.40772" lon="5.84059">
        <ele>925</ele>
        <time>2019-03-29T15:31:55Z</time>
      </trkpt>
      <trkpt lat="44.40767" lon="5.84059">
        <ele>925</ele>
        <time>2019-03-29T15:31:56Z</time>
      </trkpt>
      <trkpt lat="44.40762" lon="5.8406">
        <ele>925</ele>
        <time>2019-03-29T15:31:57Z</time>
      </trkpt>
      <trkpt lat="44.40757" lon="5.84061">
        <ele>925</ele>
        <time>2019-03-29T15:31:58Z</time>
      </trkpt>
      <trkpt lat="44.40752" lon="5.84063">
        <ele>925</ele>
        <time>2019-03-29T15:31:59Z</time>
      </trkpt>
      <trkpt lat="44.40747" lon="5.84064">
        <ele>925</ele>
        <time>2019-03-29T15:32:00Z</time>
      </trkpt>
      <trkpt lat="44.40742" lon="5.84065">
        <ele>925</ele>
        <time>2019-03-29T15:32:01Z</time>
      </trkpt>
      <trkpt lat="44.40737" lon="5.84066">
        <ele>925</ele>
        <time>2019-03-29T15:32:02Z</time>
      </trkpt>
      <trkpt lat="44.40733" lon="5.84068">
        <ele>925</ele>
        <time>2019-03-29T15:32:03Z</time>
      </trkpt>
      <trkpt lat="44.40728" lon="5.84069">
        <ele>925</ele>
        <time>2019-03-29T15:32:04Z</time>
      </trkpt>
      <trkpt lat="44.40723" lon="5.84071">
        <ele>925</ele>
        <time>2019-03-29T15:32:05Z</time>
      </trkpt>
      <trkpt lat="44.40719" lon="5.84073">
        <ele>925</ele>
        <time>2019-03-29T15:32:06Z</time>
      </trkpt>
      <trkpt lat="44.40715" lon="5.84074">
        <ele>925</ele>
        <time>2019-03-29T15:32:07Z</time>
      </trkpt>
      <trkpt lat="44.40711" lon="5.84077">
        <ele>925</ele>
        <time>2019-03-29T15:32:08Z</time>
      </trkpt>
      <trkpt lat="44.40707" lon="5.8408">
        <ele>925</ele>
        <time>2019-03-29T15:32:09Z</time>
      </trkpt>
      <trkpt lat="44.40703" lon="5.84083">
        <ele>925</ele>
        <time>2019-03-29T15:32:10Z</time>
      </trkpt>
      <trkpt lat="44.40699" lon="5.84087">
        <ele>925</ele>
        <time>2019-03-29T15:32:11Z</time>
      </trkpt>
      <trkpt lat="44.40696" lon="5.84091">
        <ele>925</ele>
        <time>2019-03-29T15:32:12Z</time>
      </trkpt>
      <trkpt lat="44.40693" lon="5.84094">
        <ele>925</ele>
        <time>2019-03-29T15:32:13Z</time>
      </trkpt>
      <trkpt lat="44.40689" lon="5.84099">
        <ele>925</ele>
        <time>2019-03-29T15:32:14Z</time>
      </trkpt>
      <trkpt lat="44.40686" lon="5.84103">
        <ele>925</ele>
        <time>2019-03-29T15:32:15Z</time>
      </trkpt>
      <trkpt lat="44.40682" lon="5.84108">
        <ele>925</ele>
        <time>2019-03-29T15:32:16Z</time>
      </trkpt>
      <trkpt lat="44.40679" lon="5.84113">
        <ele>925</ele>
        <time>2019-03-29T15:32:17Z</time>
      </trkpt>
      <trkpt lat="44.40675" lon="5.84118">
        <ele>925</ele>
        <time>2019-03-29T15:32:18Z</time>
      </trkpt>
      <trkpt lat="44.40672" lon="5.84123">
        <ele>925</ele>
        <time>2019-03-29T15:32:19Z</time>
      </trkpt>
      <trkpt lat="44.40668" lon="5.84127">
        <ele>925</ele>
        <time>2019-03-29T15:32:20Z</time>
      </trkpt>
      <trkpt lat="44.40665" lon="5.84132">
        <ele>925</ele>
        <time>2019-03-29T15:32:21Z</time>
      </trkpt>
      <trkpt lat="44.40661" lon="5.84136">
        <ele>925</ele>
        <time>2019-03-29T15:32:22Z</time>
      </trkpt>
      <trkpt lat="44.40658" lon="5.84141">
        <ele>925</ele>
        <time>2019-03-29T15:32:23Z</time>
      </trkpt>
      <trkpt lat="44.40655" lon="5.84146">
        <ele>925</ele>
        <time>2019-03-29T15:32:24Z</time>
      </trkpt>
      <trkpt lat="44.40652" lon="5.84151">
        <ele>925</ele>
        <time>2019-03-29T15:32:25Z</time>
      </trkpt>
      <trkpt lat="44.40649" lon="5.84156">
        <ele>925</ele>
        <time>2019-03-29T15:32:26Z</time>
      </trkpt>
      <trkpt lat="44.40646" lon="5.84161">
        <ele>925</ele>
        <time>2019-03-29T15:32:27Z</time>
      </trkpt>
      <trkpt lat="44.40643" lon="5.84165">
        <ele>925</ele>
        <time>2019-03-29T15:32:28Z</time>
      </trkpt>
      <trkpt lat="44.4064" lon="5.84169">
        <ele>925</ele>
        <time>2019-03-29T15:32:29Z</time>
      </trkpt>
      <trkpt lat="44.40637" lon="5.84173">
        <ele>926</ele>
        <time>2019-03-29T15:32:30Z</time>
      </trkpt>
      <trkpt lat="44.40634" lon="5.84177">
        <ele>926</ele>
        <time>2019-03-29T15:32:31Z</time>
      </trkpt>
      <trkpt lat="44.40632" lon="5.84181">
        <ele>926</ele>
        <time>2019-03-29T15:32:32Z</time>
      </trkpt>
      <trkpt lat="44.40629" lon="5.84185">
        <ele>926</ele>
        <time>2019-03-29T15:32:33Z</time>
      </trkpt>
      <trkpt lat="44.40627" lon="5.84188">
        <ele>927</ele>
        <time>2019-03-29T15:32:34Z</time>
      </trkpt>
      <trkpt lat="44.40624" lon="5.84193">
        <ele>927</ele>
        <time>2019-03-29T15:32:35Z</time>
      </trkpt>
      <trkpt lat="44.40622" lon="5.84196">
        <ele>927</ele>
        <time>2019-03-29T15:32:36Z</time>
      </trkpt>
      <trkpt lat="44.40619" lon="5.84199">
        <ele>927</ele>
        <time>2019-03-29T15:32:37Z</time>
      </trkpt>
      <trkpt lat="44.40616" lon="5.84202">
        <ele>928</ele>
        <time>2019-03-29T15:32:38Z</time>
      </trkpt>
      <trkpt lat="44.40613" lon="5.84206">
        <ele>928</ele>
        <time>2019-03-29T15:32:39Z</time>
      </trkpt>
      <trkpt lat="44.40609" lon="5.84209">
        <ele>928</ele>
        <time>2019-03-29T15:32:40Z</time>
      </trkpt>
      <trkpt lat="44.40606" lon="5.84212">
        <ele>928</ele>
        <time>2019-03-29T15:32:41Z</time>
      </trkpt>
      <trkpt lat="44.40603" lon="5.84214">
        <ele>928</ele>
        <time>2019-03-29T15:32:42Z</time>
      </trkpt>
      <trkpt lat="44.40599" lon="5.84216">
        <ele>928</ele>
        <time>2019-03-29T15:32:43Z</time>
      </trkpt>
      <trkpt lat="44.40596" lon="5.84219">
        <ele>928</ele>
        <time>2019-03-29T15:32:44Z</time>
      </trkpt>
      <trkpt lat="44.40592" lon="5.84221">
        <ele>928</ele>
        <time>2019-03-29T15:32:45Z</time>
      </trkpt>
      <trkpt lat="44.40588" lon="5.84223">
        <ele>928</ele>
        <time>2019-03-29T15:32:46Z</time>
      </trkpt>
      <trkpt lat="44.40584" lon="5.84224">
        <ele>928</ele>
        <time>2019-03-29T15:32:47Z</time>
      </trkpt>
      <trkpt lat="44.4058" lon="5.84224">
        <ele>928</ele>
        <time>2019-03-29T15:32:48Z</time>
      </trkpt>
      <trkpt lat="44.40576" lon="5.84225">
        <ele>929</ele>
        <time>2019-03-29T15:32:49Z</time>
      </trkpt>
      <trkpt lat="44.40572" lon="5.84224">
        <ele>929</ele>
        <time>2019-03-29T15:32:50Z</time>
      </trkpt>
      <trkpt lat="44.40569" lon="5.84223">
        <ele>929</ele>
        <time>2019-03-29T15:32:51Z</time>
      </trkpt>
      <trkpt lat="44.40565" lon="5.84223">
        <ele>930</ele>
        <time>2019-03-29T15:32:52Z</time>
      </trkpt>
      <trkpt lat="44.40562" lon="5.84222">
        <ele>930</ele>
        <time>2019-03-29T15:32:53Z</time>
      </trkpt>
      <trkpt lat="44.40558" lon="5.8422">
        <ele>930</ele>
        <time>2019-03-29T15:32:54Z</time>
      </trkpt>
      <trkpt lat="44.40554" lon="5.84219">
        <ele>930</ele>
        <time>2019-03-29T15:32:55Z</time>
      </trkpt>
      <trkpt lat="44.40551" lon="5.84217">
        <ele>931</ele>
        <time>2019-03-29T15:32:56Z</time>
      </trkpt>
      <trkpt lat="44.40547" lon="5.84215">
        <ele>931</ele>
        <time>2019-03-29T15:32:57Z</time>
      </trkpt>
      <trkpt lat="44.40543" lon="5.84213">
        <ele>931</ele>
        <time>2019-03-29T15:32:58Z</time>
      </trkpt>
      <trkpt lat="44.40538" lon="5.8421">
        <ele>931</ele>
        <time>2019-03-29T15:32:59Z</time>
      </trkpt>
      <trkpt lat="44.40534" lon="5.84207">
        <ele>932</ele>
        <time>2019-03-29T15:33:00Z</time>
      </trkpt>
      <trkpt lat="44.4053" lon="5.84203">
        <ele>932</ele>
        <time>2019-03-29T15:33:01Z</time>
      </trkpt>
      <trkpt lat="44.40526" lon="5.842">
        <ele>932</ele>
        <time>2019-03-29T15:33:02Z</time>
      </trkpt>
      <trkpt lat="44.40522" lon="5.84196">
        <ele>932</ele>
        <time>2019-03-29T15:33:03Z</time>
      </trkpt>
      <trkpt lat="44.40517" lon="5.84192">
        <ele>932</ele>
        <time>2019-03-29T15:33:04Z</time>
      </trkpt>
      <trkpt lat="44.40513" lon="5.84187">
        <ele>932</ele>
        <time>2019-03-29T15:33:05Z</time>
      </trkpt>
      <trkpt lat="44.40508" lon="5.84183">
        <ele>932</ele>
        <time>2019-03-29T15:33:06Z</time>
      </trkpt>
      <trkpt lat="44.40503" lon="5.84177">
        <ele>932</ele>
        <time>2019-03-29T15:33:07Z</time>
      </trkpt>
      <trkpt lat="44.40498" lon="5.84172">
        <ele>932</ele>
        <time>2019-03-29T15:33:08Z</time>
      </trkpt>
      <trkpt lat="44.40493" lon="5.84167">
        <ele>932</ele>
        <time>2019-03-29T15:33:09Z</time>
      </trkpt>
      <trkpt lat="44.40488" lon="5.84162">
        <ele>932</ele>
        <time>2019-03-29T15:33:10Z</time>
      </trkpt>
      <trkpt lat="44.40482" lon="5.84156">
        <ele>932</ele>
        <time>2019-03-29T15:33:11Z</time>
      </trkpt>
      <trkpt lat="44.40475" lon="5.84152">
        <ele>932</ele>
        <time>2019-03-29T15:33:12Z</time>
      </trkpt>
      <trkpt lat="44.40469" lon="5.84148">
        <ele>932</ele>
        <time>2019-03-29T15:33:13Z</time>
      </trkpt>
      <trkpt lat="44.40462" lon="5.84144">
        <ele>932</ele>
        <time>2019-03-29T15:33:14Z</time>
      </trkpt>
      <trkpt lat="44.40455" lon="5.8414">
        <ele>932</ele>
        <time>2019-03-29T15:33:15Z</time>
      </trkpt>
      <trkpt lat="44.40448" lon="5.84137">
        <ele>932</ele>
        <time>2019-03-29T15:33:16Z</time>
      </trkpt>
      <trkpt lat="44.40441" lon="5.84135">
        <ele>932</ele>
        <time>2019-03-29T15:33:17Z</time>
      </trkpt>
      <trkpt lat="44.40434" lon="5.84132">
        <ele>932</ele>
        <time>2019-03-29T15:33:18Z</time>
      </trkpt>
      <trkpt lat="44.40426" lon="5.8413">
        <ele>932</ele>
        <time>2019-03-29T15:33:19Z</time>
      </trkpt>
      <trkpt lat="44.40419" lon="5.84127">
        <ele>932</ele>
        <time>2019-03-29T15:33:20Z</time>
      </trkpt>
      <trkpt lat="44.40412" lon="5.84123">
        <ele>932</ele>
        <time>2019-03-29T15:33:21Z</time>
      </trkpt>
      <trkpt lat="44.40404" lon="5.8412">
        <ele>932</ele>
        <time>2019-03-29T15:33:22Z</time>
      </trkpt>
      <trkpt lat="44.40397" lon="5.84116">
        <ele>932</ele>
        <time>2019-03-29T15:33:23Z</time>
      </trkpt>
      <trkpt lat="44.40389" lon="5.84113">
        <ele>932</ele>
        <time>2019-03-29T15:33:24Z</time>
      </trkpt>
      <trkpt lat="44.40381" lon="5.84109">
        <ele>931</ele>
        <time>2019-03-29T15:33:25Z</time>
      </trkpt>
      <trkpt lat="44.40373" lon="5.84106">
        <ele>930</ele>
        <time>2019-03-29T15:33:26Z</time>
      </trkpt>
      <trkpt lat="44.40364" lon="5.84105">
        <ele>930</ele>
        <time>2019-03-29T15:33:27Z</time>
      </trkpt>
      <trkpt lat="44.40356" lon="5.84106">
        <ele>930</ele>
        <time>2019-03-29T15:33:28Z</time>
      </trkpt>
      <trkpt lat="44.40348" lon="5.84108">
        <ele>929</ele>
        <time>2019-03-29T15:33:29Z</time>
      </trkpt>
      <trkpt lat="44.40339" lon="5.84111">
        <ele>929</ele>
        <time>2019-03-29T15:33:30Z</time>
      </trkpt>
      <trkpt lat="44.40331" lon="5.84114">
        <ele>928</ele>
        <time>2019-03-29T15:33:31Z</time>
      </trkpt>
      <trkpt lat="44.40323" lon="5.84117">
        <ele>927</ele>
        <time>2019-03-29T15:33:32Z</time>
      </trkpt>
      <trkpt lat="44.40316" lon="5.84119">
        <ele>927</ele>
        <time>2019-03-29T15:33:33Z</time>
      </trkpt>
      <trkpt lat="44.40308" lon="5.84122">
        <ele>927</ele>
        <time>2019-03-29T15:33:34Z</time>
      </trkpt>
      <trkpt lat="44.403" lon="5.84125">
        <ele>926</ele>
        <time>2019-03-29T15:33:35Z</time>
      </trkpt>
      <trkpt lat="44.40294" lon="5.84131">
        <ele>926</ele>
        <time>2019-03-29T15:33:36Z</time>
      </trkpt>
      <trkpt lat="44.40288" lon="5.84138">
        <ele>926</ele>
        <time>2019-03-29T15:33:37Z</time>
      </trkpt>
      <trkpt lat="44.40284" lon="5.84148">
        <ele>926</ele>
        <time>2019-03-29T15:33:38Z</time>
      </trkpt>
      <trkpt lat="44.40282" lon="5.84157">
        <ele>925</ele>
        <time>2019-03-29T15:33:39Z</time>
      </trkpt>
      <trkpt lat="44.4028" lon="5.84167">
        <ele>925</ele>
        <time>2019-03-29T15:33:40Z</time>
      </trkpt>
      <trkpt lat="44.40279" lon="5.84178">
        <ele>925</ele>
        <time>2019-03-29T15:33:41Z</time>
      </trkpt>
      <trkpt lat="44.40279" lon="5.84188">
        <ele>925</ele>
        <time>2019-03-29T15:33:42Z</time>
      </trkpt>
      <trkpt lat="44.40278" lon="5.84199">
        <ele>925</ele>
        <time>2019-03-29T15:33:43Z</time>
      </trkpt>
      <trkpt lat="44.40278" lon="5.8421">
        <ele>925</ele>
        <time>2019-03-29T15:33:44Z</time>
      </trkpt>
      <trkpt lat="44.40278" lon="5.84221">
        <ele>925</ele>
        <time>2019-03-29T15:33:45Z</time>
      </trkpt>
      <trkpt lat="44.40277" lon="5.84233">
        <ele>925</ele>
        <time>2019-03-29T15:33:46Z</time>
      </trkpt>
      <trkpt lat="44.40277" lon="5.84244">
        <ele>925</ele>
        <time>2019-03-29T15:33:47Z</time>
      </trkpt>
      <trkpt lat="44.40277" lon="5.84256">
        <ele>925</ele>
        <time>2019-03-29T15:33:48Z</time>
      </trkpt>
      <trkpt lat="44.40276" lon="5.84267">
        <ele>924</ele>
        <time>2019-03-29T15:33:49Z</time>
      </trkpt>
      <trkpt lat="44.40276" lon="5.84279">
        <ele>924</ele>
        <time>2019-03-29T15:33:50Z</time>
      </trkpt>
      <trkpt lat="44.40276" lon="5.84291">
        <ele>924</ele>
        <time>2019-03-29T15:33:51Z</time>
      </trkpt>
      <trkpt lat="44.40276" lon="5.84303">
        <ele>923</ele>
        <time>2019-03-29T15:33:52Z</time>
      </trkpt>
      <trkpt lat="44.40275" lon="5.84314">
        <ele>923</ele>
        <time>2019-03-29T15:33:53Z</time>
      </trkpt>
      <trkpt lat="44.40273" lon="5.84326">
        <ele>922</ele>
        <time>2019-03-29T15:33:54Z</time>
      </trkpt>
      <trkpt lat="44.40271" lon="5.84337">
        <ele>922</ele>
        <time>2019-03-29T15:33:55Z</time>
      </trkpt>
      <trkpt lat="44.40268" lon="5.84348">
        <ele>921</ele>
        <time>2019-03-29T15:33:56Z</time>
      </trkpt>
      <trkpt lat="44.40265" lon="5.84358">
        <ele>921</ele>
        <time>2019-03-29T15:33:57Z</time>
      </trkpt>
      <trkpt lat="44.40261" lon="5.84368">
        <ele>920</ele>
        <time>2019-03-29T15:33:58Z</time>
      </trkpt>
      <trkpt lat="44.40256" lon="5.84378">
        <ele>920</ele>
        <time>2019-03-29T15:33:59Z</time>
      </trkpt>
      <trkpt lat="44.40252" lon="5.84387">
        <ele>920</ele>
        <time>2019-03-29T15:34:00Z</time>
      </trkpt>
      <trkpt lat="44.40247" lon="5.84397">
        <ele>920</ele>
        <time>2019-03-29T15:34:01Z</time>
      </trkpt>
      <trkpt lat="44.40242" lon="5.84406">
        <ele>919</ele>
        <time>2019-03-29T15:34:02Z</time>
      </trkpt>
      <trkpt lat="44.40238" lon="5.84415">
        <ele>919</ele>
        <time>2019-03-29T15:34:03Z</time>
      </trkpt>
      <trkpt lat="44.40233" lon="5.84424">
        <ele>919</ele>
        <time>2019-03-29T15:34:04Z</time>
      </trkpt>
      <trkpt lat="44.40228" lon="5.84433">
        <ele>919</ele>
        <time>2019-03-29T15:34:05Z</time>
      </trkpt>
      <trkpt lat="44.40223" lon="5.84443">
        <ele>918</ele>
        <time>2019-03-29T15:34:06Z</time>
      </trkpt>
      <trkpt lat="44.40219" lon="5.84453">
        <ele>918</ele>
        <time>2019-03-29T15:34:07Z</time>
      </trkpt>
      <trkpt lat="44.40214" lon="5.84464">
        <ele>918</ele>
        <time>2019-03-29T15:34:08Z</time>
      </trkpt>
      <trkpt lat="44.40211" lon="5.84473">
        <ele>918</ele>
        <time>2019-03-29T15:34:09Z</time>
      </trkpt>
      <trkpt lat="44.40207" lon="5.84483">
        <ele>918</ele>
        <time>2019-03-29T15:34:10Z</time>
      </trkpt>
      <trkpt lat="44.40203" lon="5.84493">
        <ele>917</ele>
        <time>2019-03-29T15:34:11Z</time>
      </trkpt>
      <trkpt lat="44.402" lon="5.84504">
        <ele>917</ele>
        <time>2019-03-29T15:34:12Z</time>
      </trkpt>
      <trkpt lat="44.40197" lon="5.84514">
        <ele>917</ele>
        <time>2019-03-29T15:34:13Z</time>
      </trkpt>
      <trkpt lat="44.40193" lon="5.84524">
        <ele>917</ele>
        <time>2019-03-29T15:34:14Z</time>
      </trkpt>
      <trkpt lat="44.4019" lon="5.84534">
        <ele>916</ele>
        <time>2019-03-29T15:34:15Z</time>
      </trkpt>
      <trkpt lat="44.40187" lon="5.84544">
        <ele>916</ele>
        <time>2019-03-29T15:34:16Z</time>
      </trkpt>
      <trkpt lat="44.40184" lon="5.84554">
        <ele>916</ele>
        <time>2019-03-29T15:34:17Z</time>
      </trkpt>
      <trkpt lat="44.40181" lon="5.84564">
        <ele>916</ele>
        <time>2019-03-29T15:34:18Z</time>
      </trkpt>
      <trkpt lat="44.40179" lon="5.84574">
        <ele>915</ele>
        <time>2019-03-29T15:34:19Z</time>
      </trkpt>
      <trkpt lat="44.40176" lon="5.84583">
        <ele>915</ele>
        <time>2019-03-29T15:34:20Z</time>
      </trkpt>
      <trkpt lat="44.40173" lon="5.84592">
        <ele>914</ele>
        <time>2019-03-29T15:34:21Z</time>
      </trkpt>
      <trkpt lat="44.4017" lon="5.846">
        <ele>914</ele>
        <time>2019-03-29T15:34:22Z</time>
      </trkpt>
      <trkpt lat="44.40166" lon="5.84609">
        <ele>913</ele>
        <time>2019-03-29T15:34:23Z</time>
      </trkpt>
      <trkpt lat="44.40161" lon="5.84615">
        <ele>912</ele>
        <time>2019-03-29T15:34:24Z</time>
      </trkpt>
      <trkpt lat="44.40156" lon="5.84621">
        <ele>912</ele>
        <time>2019-03-29T15:34:25Z</time>
      </trkpt>
      <trkpt lat="44.4015" lon="5.84627">
        <ele>911</ele>
        <time>2019-03-29T15:34:26Z</time>
      </trkpt>
      <trkpt lat="44.40143" lon="5.84632">
        <ele>911</ele>
        <time>2019-03-29T15:34:27Z</time>
      </trkpt>
      <trkpt lat="44.40136" lon="5.84636">
        <ele>910</ele>
        <time>2019-03-29T15:34:28Z</time>
      </trkpt>
      <trkpt lat="44.40128" lon="5.84639">
        <ele>910</ele>
        <time>2019-03-29T15:34:29Z</time>
      </trkpt>
      <trkpt lat="44.4012" lon="5.84641">
        <ele>909</ele>
        <time>2019-03-29T15:34:30Z</time>
      </trkpt>
      <trkpt lat="44.40111" lon="5.84642">
        <ele>909</ele>
        <time>2019-03-29T15:34:31Z</time>
      </trkpt>
      <trkpt lat="44.40103" lon="5.84643">
        <ele>909</ele>
        <time>2019-03-29T15:34:32Z</time>
      </trkpt>
      <trkpt lat="44.40095" lon="5.84644">
        <ele>908</ele>
        <time>2019-03-29T15:34:33Z</time>
      </trkpt>
      <trkpt lat="44.40088" lon="5.84647">
        <ele>908</ele>
        <time>2019-03-29T15:34:34Z</time>
      </trkpt>
      <trkpt lat="44.4008" lon="5.8465">
        <ele>907</ele>
        <time>2019-03-29T15:34:35Z</time>
      </trkpt>
      <trkpt lat="44.40073" lon="5.84654">
        <ele>907</ele>
        <time>2019-03-29T15:34:36Z</time>
      </trkpt>
      <trkpt lat="44.40067" lon="5.84658">
        <ele>907</ele>
        <time>2019-03-29T15:34:37Z</time>
      </trkpt>
      <trkpt lat="44.40061" lon="5.84665">
        <ele>906</ele>
        <time>2019-03-29T15:34:38Z</time>
      </trkpt>
      <trkpt lat="44.40055" lon="5.84672">
        <ele>906</ele>
        <time>2019-03-29T15:34:39Z</time>
      </trkpt>
      <trkpt lat="44.4005" lon="5.8468">
        <ele>905</ele>
        <time>2019-03-29T15:34:40Z</time>
      </trkpt>
      <trkpt lat="44.40045" lon="5.84688">
        <ele>905</ele>
        <time>2019-03-29T15:34:41Z</time>
      </trkpt>
      <trkpt lat="44.40041" lon="5.84694">
        <ele>905</ele>
        <time>2019-03-29T15:34:42Z</time>
      </trkpt>
      <trkpt lat="44.40036" lon="5.84702">
        <ele>904</ele>
        <time>2019-03-29T15:34:43Z</time>
      </trkpt>
      <trkpt lat="44.40032" lon="5.8471">
        <ele>904</ele>
        <time>2019-03-29T15:34:44Z</time>
      </trkpt>
      <trkpt lat="44.40029" lon="5.84719">
        <ele>904</ele>
        <time>2019-03-29T15:34:45Z</time>
      </trkpt>
      <trkpt lat="44.40027" lon="5.84728">
        <ele>904</ele>
        <time>2019-03-29T15:34:46Z</time>
      </trkpt>
      <trkpt lat="44.40025" lon="5.84737">
        <ele>903</ele>
        <time>2019-03-29T15:34:47Z</time>
      </trkpt>
      <trkpt lat="44.40023" lon="5.84747">
        <ele>903</ele>
        <time>2019-03-29T15:34:48Z</time>
      </trkpt>
      <trkpt lat="44.40023" lon="5.84756">
        <ele>903</ele>
        <time>2019-03-29T15:34:49Z</time>
      </trkpt>
      <trkpt lat="44.40024" lon="5.84766">
        <ele>903</ele>
        <time>2019-03-29T15:34:50Z</time>
      </trkpt>
      <trkpt lat="44.40024" lon="5.84775">
        <ele>903</ele>
        <time>2019-03-29T15:34:51Z</time>
      </trkpt>
      <trkpt lat="44.40025" lon="5.84784">
        <ele>903</ele>
        <time>2019-03-29T15:34:52Z</time>
      </trkpt>
      <trkpt lat="44.40027" lon="5.84793">
        <ele>903</ele>
        <time>2019-03-29T15:34:53Z</time>
      </trkpt>
      <trkpt lat="44.40029" lon="5.84801">
        <ele>903</ele>
        <time>2019-03-29T15:34:54Z</time>
      </trkpt>
      <trkpt lat="44.40031" lon="5.84809">
        <ele>903</ele>
        <time>2019-03-29T15:34:55Z</time>
      </trkpt>
      <trkpt lat="44.40033" lon="5.84817">
        <ele>903</ele>
        <time>2019-03-29T15:34:56Z</time>
      </trkpt>
      <trkpt lat="44.40035" lon="5.84824">
        <ele>903</ele>
        <time>2019-03-29T15:34:57Z</time>
      </trkpt>
      <trkpt lat="44.40037" lon="5.84831">
        <ele>904</ele>
        <time>2019-03-29T15:34:58Z</time>
      </trkpt>
      <trkpt lat="44.40038" lon="5.84838">
        <ele>904</ele>
        <time>2019-03-29T15:34:59Z</time>
      </trkpt>
      <trkpt lat="44.40039" lon="5.84844">
        <ele>905</ele>
        <time>2019-03-29T15:35:00Z</time>
      </trkpt>
      <trkpt lat="44.40039" lon="5.84851">
        <ele>905</ele>
        <time>2019-03-29T15:35:01Z</time>
      </trkpt>
      <trkpt lat="44.4004" lon="5.84858">
        <ele>906</ele>
        <time>2019-03-29T15:35:02Z</time>
      </trkpt>
      <trkpt lat="44.40039" lon="5.84865">
        <ele>906</ele>
        <time>2019-03-29T15:35:03Z</time>
      </trkpt>
      <trkpt lat="44.40039" lon="5.84872">
        <ele>906</ele>
        <time>2019-03-29T15:35:04Z</time>
      </trkpt>
      <trkpt lat="44.40038" lon="5.84879">
        <ele>907</ele>
        <time>2019-03-29T15:35:05Z</time>
      </trkpt>
      <trkpt lat="44.40036" lon="5.84886">
        <ele>907</ele>
        <time>2019-03-29T15:35:06Z</time>
      </trkpt>
      <trkpt lat="44.40035" lon="5.84894">
        <ele>907</ele>
        <time>2019-03-29T15:35:07Z</time>
      </trkpt>
      <trkpt lat="44.40034" lon="5.849">
        <ele>907</ele>
        <time>2019-03-29T15:35:08Z</time>
      </trkpt>
      <trkpt lat="44.40033" lon="5.84907">
        <ele>907</ele>
        <time>2019-03-29T15:35:09Z</time>
      </trkpt>
      <trkpt lat="44.40031" lon="5.84913">
        <ele>907</ele>
        <time>2019-03-29T15:35:10Z</time>
      </trkpt>
      <trkpt lat="44.4003" lon="5.84919">
        <ele>907</ele>
        <time>2019-03-29T15:35:11Z</time>
      </trkpt>
      <trkpt lat="44.40028" lon="5.84925">
        <ele>907</ele>
        <time>2019-03-29T15:35:12Z</time>
      </trkpt>
      <trkpt lat="44.40026" lon="5.84931">
        <ele>907</ele>
        <time>2019-03-29T15:35:13Z</time>
      </trkpt>
      <trkpt lat="44.40024" lon="5.84937">
        <ele>908</ele>
        <time>2019-03-29T15:35:14Z</time>
      </trkpt>
      <trkpt lat="44.40022" lon="5.84943">
        <ele>908</ele>
        <time>2019-03-29T15:35:15Z</time>
      </trkpt>
      <trkpt lat="44.40019" lon="5.8495">
        <ele>908</ele>
        <time>2019-03-29T15:35:16Z</time>
      </trkpt>
      <trkpt lat="44.40017" lon="5.84956">
        <ele>908</ele>
        <time>2019-03-29T15:35:17Z</time>
      </trkpt>
      <trkpt lat="44.40014" lon="5.84962">
        <ele>908</ele>
        <time>2019-03-29T15:35:18Z</time>
      </trkpt>
      <trkpt lat="44.40012" lon="5.84969">
        <ele>908</ele>
        <time>2019-03-29T15:35:19Z</time>
      </trkpt>
      <trkpt lat="44.40008" lon="5.84975">
        <ele>908</ele>
        <time>2019-03-29T15:35:20Z</time>
      </trkpt>
      <trkpt lat="44.40004" lon="5.84981">
        <ele>908</ele>
        <time>2019-03-29T15:35:21Z</time>
      </trkpt>
      <trkpt lat="44.40001" lon="5.84987">
        <ele>908</ele>
        <time>2019-03-29T15:35:22Z</time>
      </trkpt>
      <trkpt lat="44.39997" lon="5.84993">
        <ele>908</ele>
        <time>2019-03-29T15:35:23Z</time>
      </trkpt>
      <trkpt lat="44.39993" lon="5.84999">
        <ele>909</ele>
        <time>2019-03-29T15:35:24Z</time>
      </trkpt>
      <trkpt lat="44.39988" lon="5.85003">
        <ele>909</ele>
        <time>2019-03-29T15:35:25Z</time>
      </trkpt>
      <trkpt lat="44.39983" lon="5.85007">
        <ele>909</ele>
        <time>2019-03-29T15:35:26Z</time>
      </trkpt>
      <trkpt lat="44.39978" lon="5.8501">
        <ele>909</ele>
        <time>2019-03-29T15:35:27Z</time>
      </trkpt>
      <trkpt lat="44.39973" lon="5.85014">
        <ele>909</ele>
        <time>2019-03-29T15:35:28Z</time>
      </trkpt>
      <trkpt lat="44.39968" lon="5.85017">
        <ele>909</ele>
        <time>2019-03-29T15:35:29Z</time>
      </trkpt>
      <trkpt lat="44.39963" lon="5.85021">
        <ele>909</ele>
        <time>2019-03-29T15:35:30Z</time>
      </trkpt>
      <trkpt lat="44.39958" lon="5.85024">
        <ele>910</ele>
        <time>2019-03-29T15:35:31Z</time>
      </trkpt>
      <trkpt lat="44.39952" lon="5.85028">
        <ele>910</ele>
        <time>2019-03-29T15:35:32Z</time>
      </trkpt>
      <trkpt lat="44.39948" lon="5.85032">
        <ele>910</ele>
        <time>2019-03-29T15:35:33Z</time>
      </trkpt>
      <trkpt lat="44.39943" lon="5.85035">
        <ele>910</ele>
        <time>2019-03-29T15:35:34Z</time>
      </trkpt>
      <trkpt lat="44.39938" lon="5.85038">
        <ele>910</ele>
        <time>2019-03-29T15:35:35Z</time>
      </trkpt>
      <trkpt lat="44.39932" lon="5.85041">
        <ele>911</ele>
        <time>2019-03-29T15:35:36Z</time>
      </trkpt>
      <trkpt lat="44.39927" lon="5.85044">
        <ele>911</ele>
        <time>2019-03-29T15:35:37Z</time>
      </trkpt>
      <trkpt lat="44.39922" lon="5.85046">
        <ele>911</ele>
        <time>2019-03-29T15:35:38Z</time>
      </trkpt>
      <trkpt lat="44.39917" lon="5.85048">
        <ele>911</ele>
        <time>2019-03-29T15:35:39Z</time>
      </trkpt>
      <trkpt lat="44.39912" lon="5.8505">
        <ele>911</ele>
        <time>2019-03-29T15:35:40Z</time>
      </trkpt>
      <trkpt lat="44.39906" lon="5.85051">
        <ele>911</ele>
        <time>2019-03-29T15:35:41Z</time>
      </trkpt>
      <trkpt lat="44.39901" lon="5.85051">
        <ele>911</ele>
        <time>2019-03-29T15:35:42Z</time>
      </trkpt>
      <trkpt lat="44.39895" lon="5.85052">
        <ele>911</ele>
        <time>2019-03-29T15:35:43Z</time>
      </trkpt>
      <trkpt lat="44.3989" lon="5.85052">
        <ele>911</ele>
        <time>2019-03-29T15:35:44Z</time>
      </trkpt>
      <trkpt lat="44.39884" lon="5.85052">
        <ele>911</ele>
        <time>2019-03-29T15:35:45Z</time>
      </trkpt>
      <trkpt lat="44.39878" lon="5.85051">
        <ele>911</ele>
        <time>2019-03-29T15:35:46Z</time>
      </trkpt>
      <trkpt lat="44.39872" lon="5.85051">
        <ele>911</ele>
        <time>2019-03-29T15:35:47Z</time>
      </trkpt>
      <trkpt lat="44.39866" lon="5.85051">
        <ele>911</ele>
        <time>2019-03-29T15:35:48Z</time>
      </trkpt>
      <trkpt lat="44.39861" lon="5.85051">
        <ele>911</ele>
        <time>2019-03-29T15:35:49Z</time>
      </trkpt>
      <trkpt lat="44.39854" lon="5.85052">
        <ele>911</ele>
        <time>2019-03-29T15:35:50Z</time>
      </trkpt>
      <trkpt lat="44.39848" lon="5.85053">
        <ele>911</ele>
        <time>2019-03-29T15:35:51Z</time>
      </trkpt>
      <trkpt lat="44.39843" lon="5.85054">
        <ele>911</ele>
        <time>2019-03-29T15:35:52Z</time>
      </trkpt>
      <trkpt lat="44.39837" lon="5.85056">
        <ele>911</ele>
        <time>2019-03-29T15:35:53Z</time>
      </trkpt>
      <trkpt lat="44.39831" lon="5.85059">
        <ele>911</ele>
        <time>2019-03-29T15:35:54Z</time>
      </trkpt>
      <trkpt lat="44.39826" lon="5.85062">
        <ele>911</ele>
        <time>2019-03-29T15:35:55Z</time>
      </trkpt>
      <trkpt lat="44.3982" lon="5.85066">
        <ele>911</ele>
        <time>2019-03-29T15:35:56Z</time>
      </trkpt>
      <trkpt lat="44.39814" lon="5.8507">
        <ele>911</ele>
        <time>2019-03-29T15:35:57Z</time>
      </trkpt>
      <trkpt lat="44.39809" lon="5.85074">
        <ele>911</ele>
        <time>2019-03-29T15:35:58Z</time>
      </trkpt>
      <trkpt lat="44.39804" lon="5.85078">
        <ele>911</ele>
        <time>2019-03-29T15:35:59Z</time>
      </trkpt>
      <trkpt lat="44.39799" lon="5.85081">
        <ele>911</ele>
        <time>2019-03-29T15:36:00Z</time>
      </trkpt>
      <trkpt lat="44.39793" lon="5.85083">
        <ele>911</ele>
        <time>2019-03-29T15:36:01Z</time>
      </trkpt>
      <trkpt lat="44.39788" lon="5.85085">
        <ele>911</ele>
        <time>2019-03-29T15:36:02Z</time>
      </trkpt>
      <trkpt lat="44.39783" lon="5.85088">
        <ele>911</ele>
        <time>2019-03-29T15:36:03Z</time>
      </trkpt>
      <trkpt lat="44.39779" lon="5.85092">
        <ele>911</ele>
        <time>2019-03-29T15:36:04Z</time>
      </trkpt>
      <trkpt lat="44.39775" lon="5.85099">
        <ele>911</ele>
        <time>2019-03-29T15:36:05Z</time>
      </trkpt>
      <trkpt lat="44.39774" lon="5.85106">
        <ele>911</ele>
        <time>2019-03-29T15:36:06Z</time>
      </trkpt>
      <trkpt lat="44.39773" lon="5.85114">
        <ele>911</ele>
        <time>2019-03-29T15:36:07Z</time>
      </trkpt>
      <trkpt lat="44.39774" lon="5.85122">
        <ele>911</ele>
        <time>2019-03-29T15:36:08Z</time>
      </trkpt>
      <trkpt lat="44.39774" lon="5.85129">
        <ele>911</ele>
        <time>2019-03-29T15:36:09Z</time>
      </trkpt>
      <trkpt lat="44.39775" lon="5.85137">
        <ele>911</ele>
        <time>2019-03-29T15:36:10Z</time>
      </trkpt>
      <trkpt lat="44.39777" lon="5.85144">
        <ele>911</ele>
        <time>2019-03-29T15:36:11Z</time>
      </trkpt>
      <trkpt lat="44.39778" lon="5.85152">
        <ele>911</ele>
        <time>2019-03-29T15:36:12Z</time>
      </trkpt>
      <trkpt lat="44.3978" lon="5.85159">
        <ele>911</ele>
        <time>2019-03-29T15:36:13Z</time>
      </trkpt>
      <trkpt lat="44.39782" lon="5.85166">
        <ele>911</ele>
        <time>2019-03-29T15:36:14Z</time>
      </trkpt>
      <trkpt lat="44.39784" lon="5.85173">
        <ele>911</ele>
        <time>2019-03-29T15:36:15Z</time>
      </trkpt>
      <trkpt lat="44.39786" lon="5.8518">
        <ele>912</ele>
        <time>2019-03-29T15:36:16Z</time>
      </trkpt>
      <trkpt lat="44.39788" lon="5.85187">
        <ele>912</ele>
        <time>2019-03-29T15:36:17Z</time>
      </trkpt>
      <trkpt lat="44.3979" lon="5.85194">
        <ele>913</ele>
        <time>2019-03-29T15:36:18Z</time>
      </trkpt>
      <trkpt lat="44.39793" lon="5.852">
        <ele>913</ele>
        <time>2019-03-29T15:36:19Z</time>
      </trkpt>
      <trkpt lat="44.39795" lon="5.85207">
        <ele>914</ele>
        <time>2019-03-29T15:36:20Z</time>
      </trkpt>
      <trkpt lat="44.39796" lon="5.85213">
        <ele>914</ele>
        <time>2019-03-29T15:36:21Z</time>
      </trkpt>
      <trkpt lat="44.39798" lon="5.85219">
        <ele>914</ele>
        <time>2019-03-29T15:36:22Z</time>
      </trkpt>
      <trkpt lat="44.398" lon="5.85225">
        <ele>914</ele>
        <time>2019-03-29T15:36:23Z</time>
      </trkpt>
      <trkpt lat="44.39801" lon="5.85231">
        <ele>915</ele>
        <time>2019-03-29T15:36:24Z</time>
      </trkpt>
      <trkpt lat="44.39801" lon="5.85238">
        <ele>915</ele>
        <time>2019-03-29T15:36:25Z</time>
      </trkpt>
      <trkpt lat="44.39803" lon="5.85244">
        <ele>915</ele>
        <time>2019-03-29T15:36:26Z</time>
      </trkpt>
      <trkpt lat="44.39804" lon="5.8525">
        <ele>916</ele>
        <time>2019-03-29T15:36:27Z</time>
      </trkpt>
      <trkpt lat="44.39805" lon="5.85256">
        <ele>916</ele>
        <time>2019-03-29T15:36:28Z</time>
      </trkpt>
      <trkpt lat="44.39806" lon="5.85263">
        <ele>917</ele>
        <time>2019-03-29T15:36:29Z</time>
      </trkpt>
      <trkpt lat="44.39806" lon="5.85269">
        <ele>917</ele>
        <time>2019-03-29T15:36:30Z</time>
      </trkpt>
      <trkpt lat="44.39808" lon="5.85275">
        <ele>917</ele>
        <time>2019-03-29T15:36:31Z</time>
      </trkpt>
      <trkpt lat="44.39808" lon="5.85281">
        <ele>917</ele>
        <time>2019-03-29T15:36:32Z</time>
      </trkpt>
      <trkpt lat="44.39809" lon="5.85287">
        <ele>918</ele>
        <time>2019-03-29T15:36:33Z</time>
      </trkpt>
      <trkpt lat="44.3981" lon="5.85292">
        <ele>918</ele>
        <time>2019-03-29T15:36:34Z</time>
      </trkpt>
      <trkpt lat="44.39811" lon="5.85298">
        <ele>918</ele>
        <time>2019-03-29T15:36:35Z</time>
      </trkpt>
      <trkpt lat="44.39811" lon="5.85304">
        <ele>918</ele>
        <time>2019-03-29T15:36:36Z</time>
      </trkpt>
      <trkpt lat="44.39811" lon="5.8531">
        <ele>918</ele>
        <time>2019-03-29T15:36:37Z</time>
      </trkpt>
      <trkpt lat="44.39812" lon="5.85316">
        <ele>918</ele>
        <time>2019-03-29T15:36:38Z</time>
      </trkpt>
      <trkpt lat="44.39812" lon="5.85322">
        <ele>918</ele>
        <time>2019-03-29T15:36:39Z</time>
      </trkpt>
      <trkpt lat="44.39813" lon="5.85327">
        <ele>918</ele>
        <time>2019-03-29T15:36:40Z</time>
      </trkpt>
      <trkpt lat="44.39814" lon="5.85333">
        <ele>918</ele>
        <time>2019-03-29T15:36:41Z</time>
      </trkpt>
      <trkpt lat="44.39814" lon="5.85339">
        <ele>918</ele>
        <time>2019-03-29T15:36:42Z</time>
      </trkpt>
      <trkpt lat="44.39814" lon="5.85345">
        <ele>918</ele>
        <time>2019-03-29T15:36:43Z</time>
      </trkpt>
      <trkpt lat="44.39815" lon="5.8535">
        <ele>918</ele>
        <time>2019-03-29T15:36:44Z</time>
      </trkpt>
      <trkpt lat="44.39815" lon="5.85356">
        <ele>918</ele>
        <time>2019-03-29T15:36:45Z</time>
      </trkpt>
      <trkpt lat="44.39815" lon="5.85362">
        <ele>918</ele>
        <time>2019-03-29T15:36:46Z</time>
      </trkpt>
      <trkpt lat="44.39816" lon="5.85368">
        <ele>918</ele>
        <time>2019-03-29T15:36:47Z</time>
      </trkpt>
      <trkpt lat="44.39817" lon="5.85373">
        <ele>918</ele>
        <time>2019-03-29T15:36:48Z</time>
      </trkpt>
      <trkpt lat="44.39817" lon="5.85379">
        <ele>918</ele>
        <time>2019-03-29T15:36:49Z</time>
      </trkpt>
      <trkpt lat="44.39818" lon="5.85386">
        <ele>918</ele>
        <time>2019-03-29T15:36:50Z</time>
      </trkpt>
      <trkpt lat="44.39819" lon="5.85392">
        <ele>919</ele>
        <time>2019-03-29T15:36:51Z</time>
      </trkpt>
      <trkpt lat="44.39819" lon="5.85397">
        <ele>920</ele>
        <time>2019-03-29T15:36:52Z</time>
      </trkpt>
      <trkpt lat="44.39819" lon="5.85403">
        <ele>920</ele>
        <time>2019-03-29T15:36:53Z</time>
      </trkpt>
      <trkpt lat="44.39819" lon="5.85408">
        <ele>920</ele>
        <time>2019-03-29T15:36:54Z</time>
      </trkpt>
      <trkpt lat="44.39819" lon="5.85414">
        <ele>921</ele>
        <time>2019-03-29T15:36:55Z</time>
      </trkpt>
      <trkpt lat="44.39819" lon="5.85419">
        <ele>921</ele>
        <time>2019-03-29T15:36:56Z</time>
      </trkpt>
      <trkpt lat="44.39818" lon="5.85425">
        <ele>921</ele>
        <time>2019-03-29T15:36:57Z</time>
      </trkpt>
      <trkpt lat="44.39817" lon="5.8543">
        <ele>921</ele>
        <time>2019-03-29T15:36:58Z</time>
      </trkpt>
      <trkpt lat="44.39817" lon="5.85435">
        <ele>921</ele>
        <time>2019-03-29T15:36:59Z</time>
      </trkpt>
      <trkpt lat="44.39816" lon="5.8544">
        <ele>921</ele>
        <time>2019-03-29T15:37:00Z</time>
      </trkpt>
      <trkpt lat="44.39814" lon="5.85445">
        <ele>921</ele>
        <time>2019-03-29T15:37:01Z</time>
      </trkpt>
      <trkpt lat="44.39813" lon="5.85449">
        <ele>921</ele>
        <time>2019-03-29T15:37:02Z</time>
      </trkpt>
      <trkpt lat="44.39811" lon="5.85454">
        <ele>921</ele>
        <time>2019-03-29T15:37:03Z</time>
      </trkpt>
      <trkpt lat="44.3981" lon="5.85458">
        <ele>921</ele>
        <time>2019-03-29T15:37:04Z</time>
      </trkpt>
      <trkpt lat="44.39808" lon="5.85462">
        <ele>921</ele>
        <time>2019-03-29T15:37:05Z</time>
      </trkpt>
      <trkpt lat="44.39806" lon="5.85465">
        <ele>921</ele>
        <time>2019-03-29T15:37:06Z</time>
      </trkpt>
      <trkpt lat="44.39804" lon="5.85468">
        <ele>922</ele>
        <time>2019-03-29T15:37:07Z</time>
      </trkpt>
      <trkpt lat="44.39802" lon="5.85471">
        <ele>922</ele>
        <time>2019-03-29T15:37:08Z</time>
      </trkpt>
      <trkpt lat="44.39799" lon="5.85474">
        <ele>922</ele>
        <time>2019-03-29T15:37:09Z</time>
      </trkpt>
      <trkpt lat="44.39796" lon="5.85475">
        <ele>923</ele>
        <time>2019-03-29T15:37:10Z</time>
      </trkpt>
      <trkpt lat="44.39793" lon="5.85477">
        <ele>923</ele>
        <time>2019-03-29T15:37:11Z</time>
      </trkpt>
      <trkpt lat="44.3979" lon="5.85479">
        <ele>923</ele>
        <time>2019-03-29T15:37:12Z</time>
      </trkpt>
      <trkpt lat="44.39786" lon="5.85481">
        <ele>923</ele>
        <time>2019-03-29T15:37:13Z</time>
      </trkpt>
      <trkpt lat="44.39781" lon="5.85483">
        <ele>923</ele>
        <time>2019-03-29T15:37:14Z</time>
      </trkpt>
      <trkpt lat="44.39775" lon="5.85484">
        <ele>923</ele>
        <time>2019-03-29T15:37:15Z</time>
      </trkpt>
      <trkpt lat="44.3977" lon="5.85484">
        <ele>923</ele>
        <time>2019-03-29T15:37:16Z</time>
      </trkpt>
      <trkpt lat="44.39764" lon="5.85484">
        <ele>923</ele>
        <time>2019-03-29T15:37:17Z</time>
      </trkpt>
      <trkpt lat="44.39756" lon="5.85483">
        <ele>923</ele>
        <time>2019-03-29T15:37:18Z</time>
      </trkpt>
      <trkpt lat="44.39749" lon="5.85481">
        <ele>923</ele>
        <time>2019-03-29T15:37:19Z</time>
      </trkpt>
      <trkpt lat="44.39741" lon="5.85479">
        <ele>923</ele>
        <time>2019-03-29T15:37:20Z</time>
      </trkpt>
      <trkpt lat="44.39732" lon="5.85477">
        <ele>923</ele>
        <time>2019-03-29T15:37:21Z</time>
      </trkpt>
      <trkpt lat="44.39723" lon="5.85474">
        <ele>923</ele>
        <time>2019-03-29T15:37:22Z</time>
      </trkpt>
      <trkpt lat="44.39714" lon="5.8547">
        <ele>923</ele>
        <time>2019-03-29T15:37:23Z</time>
      </trkpt>
      <trkpt lat="44.39704" lon="5.85467">
        <ele>922</ele>
        <time>2019-03-29T15:37:24Z</time>
      </trkpt>
      <trkpt lat="44.39693" lon="5.85464">
        <ele>922</ele>
        <time>2019-03-29T15:37:25Z</time>
      </trkpt>
      <trkpt lat="44.39682" lon="5.85462">
        <ele>921</ele>
        <time>2019-03-29T15:37:26Z</time>
      </trkpt>
      <trkpt lat="44.39671" lon="5.8546">
        <ele>920</ele>
        <time>2019-03-29T15:37:27Z</time>
      </trkpt>
      <trkpt lat="44.39658" lon="5.85458">
        <ele>919</ele>
        <time>2019-03-29T15:37:28Z</time>
      </trkpt>
      <trkpt lat="44.39647" lon="5.85455">
        <ele>918</ele>
        <time>2019-03-29T15:37:29Z</time>
      </trkpt>
      <trkpt lat="44.39634" lon="5.85452">
        <ele>917</ele>
        <time>2019-03-29T15:37:30Z</time>
      </trkpt>
      <trkpt lat="44.39622" lon="5.85448">
        <ele>916</ele>
        <time>2019-03-29T15:37:31Z</time>
      </trkpt>
      <trkpt lat="44.3961" lon="5.85444">
        <ele>915</ele>
        <time>2019-03-29T15:37:32Z</time>
      </trkpt>
      <trkpt lat="44.39598" lon="5.85441">
        <ele>914</ele>
        <time>2019-03-29T15:37:33Z</time>
      </trkpt>
      <trkpt lat="44.39586" lon="5.85439">
        <ele>913</ele>
        <time>2019-03-29T15:37:34Z</time>
      </trkpt>
      <trkpt lat="44.39575" lon="5.85437">
        <ele>912</ele>
        <time>2019-03-29T15:37:35Z</time>
      </trkpt>
      <trkpt lat="44.39565" lon="5.85437">
        <ele>911</ele>
        <time>2019-03-29T15:37:36Z</time>
      </trkpt>
      <trkpt lat="44.39554" lon="5.85437">
        <ele>911</ele>
        <time>2019-03-29T15:37:37Z</time>
      </trkpt>
      <trkpt lat="44.39544" lon="5.85438">
        <ele>910</ele>
        <time>2019-03-29T15:37:38Z</time>
      </trkpt>
      <trkpt lat="44.39534" lon="5.85441">
        <ele>910</ele>
        <time>2019-03-29T15:37:39Z</time>
      </trkpt>
      <trkpt lat="44.39525" lon="5.85446">
        <ele>910</ele>
        <time>2019-03-29T15:37:40Z</time>
      </trkpt>
      <trkpt lat="44.39516" lon="5.85452">
        <ele>910</ele>
        <time>2019-03-29T15:37:41Z</time>
      </trkpt>
      <trkpt lat="44.39508" lon="5.8546">
        <ele>910</ele>
        <time>2019-03-29T15:37:42Z</time>
      </trkpt>
      <trkpt lat="44.39501" lon="5.85469">
        <ele>910</ele>
        <time>2019-03-29T15:37:43Z</time>
      </trkpt>
      <trkpt lat="44.39495" lon="5.85477">
        <ele>910</ele>
        <time>2019-03-29T15:37:44Z</time>
      </trkpt>
      <trkpt lat="44.39489" lon="5.85485">
        <ele>910</ele>
        <time>2019-03-29T15:37:45Z</time>
      </trkpt>
      <trkpt lat="44.39483" lon="5.85493">
        <ele>910</ele>
        <time>2019-03-29T15:37:46Z</time>
      </trkpt>
      <trkpt lat="44.39478" lon="5.85499">
        <ele>910</ele>
        <time>2019-03-29T15:37:47Z</time>
      </trkpt>
      <trkpt lat="44.39473" lon="5.85506">
        <ele>910</ele>
        <time>2019-03-29T15:37:48Z</time>
      </trkpt>
      <trkpt lat="44.39468" lon="5.85513">
        <ele>910</ele>
        <time>2019-03-29T15:37:49Z</time>
      </trkpt>
      <trkpt lat="44.39464" lon="5.85519">
        <ele>910</ele>
        <time>2019-03-29T15:37:50Z</time>
      </trkpt>
      <trkpt lat="44.3946" lon="5.85525">
        <ele>910</ele>
        <time>2019-03-29T15:37:51Z</time>
      </trkpt>
      <trkpt lat="44.39456" lon="5.85531">
        <ele>910</ele>
        <time>2019-03-29T15:37:52Z</time>
      </trkpt>
      <trkpt lat="44.39453" lon="5.85537">
        <ele>910</ele>
        <time>2019-03-29T15:37:53Z</time>
      </trkpt>
      <trkpt lat="44.3945" lon="5.85544">
        <ele>910</ele>
        <time>2019-03-29T15:37:54Z</time>
      </trkpt>
      <trkpt lat="44.39446" lon="5.8555">
        <ele>910</ele>
        <time>2019-03-29T15:37:55Z</time>
      </trkpt>
      <trkpt lat="44.39441" lon="5.85556">
        <ele>910</ele>
        <time>2019-03-29T15:37:56Z</time>
      </trkpt>
      <trkpt lat="44.39436" lon="5.85562">
        <ele>910</ele>
        <time>2019-03-29T15:37:57Z</time>
      </trkpt>
      <trkpt lat="44.39431" lon="5.85566">
        <ele>910</ele>
        <time>2019-03-29T15:37:58Z</time>
      </trkpt>
      <trkpt lat="44.39425" lon="5.8557">
        <ele>910</ele>
        <time>2019-03-29T15:37:59Z</time>
      </trkpt>
      <trkpt lat="44.3942" lon="5.85574">
        <ele>910</ele>
        <time>2019-03-29T15:38:00Z</time>
      </trkpt>
      <trkpt lat="44.39414" lon="5.85578">
        <ele>910</ele>
        <time>2019-03-29T15:38:01Z</time>
      </trkpt>
      <trkpt lat="44.39409" lon="5.85582">
        <ele>910</ele>
        <time>2019-03-29T15:38:02Z</time>
      </trkpt>
      <trkpt lat="44.39404" lon="5.85587">
        <ele>910</ele>
        <time>2019-03-29T15:38:03Z</time>
      </trkpt>
      <trkpt lat="44.39399" lon="5.85593">
        <ele>910</ele>
        <time>2019-03-29T15:38:04Z</time>
      </trkpt>
      <trkpt lat="44.39396" lon="5.85599">
        <ele>910</ele>
        <time>2019-03-29T15:38:05Z</time>
      </trkpt>
      <trkpt lat="44.39392" lon="5.85605">
        <ele>910</ele>
        <time>2019-03-29T15:38:06Z</time>
      </trkpt>
      <trkpt lat="44.39388" lon="5.85611">
        <ele>910</ele>
        <time>2019-03-29T15:38:07Z</time>
      </trkpt>
      <trkpt lat="44.39385" lon="5.85618">
        <ele>910</ele>
        <time>2019-03-29T15:38:08Z</time>
      </trkpt>
      <trkpt lat="44.39382" lon="5.85624">
        <ele>910</ele>
        <time>2019-03-29T15:38:09Z</time>
      </trkpt>
      <trkpt lat="44.39379" lon="5.85631">
        <ele>910</ele>
        <time>2019-03-29T15:38:10Z</time>
      </trkpt>
      <trkpt lat="44.39376" lon="5.85637">
        <ele>910</ele>
        <time>2019-03-29T15:38:11Z</time>
      </trkpt>
      <trkpt lat="44.39372" lon="5.85644">
        <ele>910</ele>
        <time>2019-03-29T15:38:12Z</time>
      </trkpt>
      <trkpt lat="44.39368" lon="5.85651">
        <ele>910</ele>
        <time>2019-03-29T15:38:13Z</time>
      </trkpt>
      <trkpt lat="44.39365" lon="5.85659">
        <ele>910</ele>
        <time>2019-03-29T15:38:14Z</time>
      </trkpt>
      <trkpt lat="44.39361" lon="5.85667">
        <ele>910</ele>
        <time>2019-03-29T15:38:15Z</time>
      </trkpt>
      <trkpt lat="44.39358" lon="5.85675">
        <ele>910</ele>
        <time>2019-03-29T15:38:16Z</time>
      </trkpt>
      <trkpt lat="44.39355" lon="5.85684">
        <ele>910</ele>
        <time>2019-03-29T15:38:17Z</time>
      </trkpt>
      <trkpt lat="44.39353" lon="5.85693">
        <ele>910</ele>
        <time>2019-03-29T15:38:18Z</time>
      </trkpt>
      <trkpt lat="44.39351" lon="5.85702">
        <ele>910</ele>
        <time>2019-03-29T15:38:19Z</time>
      </trkpt>
      <trkpt lat="44.39348" lon="5.85711">
        <ele>910</ele>
        <time>2019-03-29T15:38:20Z</time>
      </trkpt>
      <trkpt lat="44.39346" lon="5.8572">
        <ele>910</ele>
        <time>2019-03-29T15:38:21Z</time>
      </trkpt>
      <trkpt lat="44.39343" lon="5.85729">
        <ele>910</ele>
        <time>2019-03-29T15:38:22Z</time>
      </trkpt>
      <trkpt lat="44.3934" lon="5.85738">
        <ele>910</ele>
        <time>2019-03-29T15:38:23Z</time>
      </trkpt>
      <trkpt lat="44.39337" lon="5.85746">
        <ele>910</ele>
        <time>2019-03-29T15:38:24Z</time>
      </trkpt>
      <trkpt lat="44.39334" lon="5.85754">
        <ele>910</ele>
        <time>2019-03-29T15:38:25Z</time>
      </trkpt>
      <trkpt lat="44.39331" lon="5.85763">
        <ele>910</ele>
        <time>2019-03-29T15:38:26Z</time>
      </trkpt>
      <trkpt lat="44.39327" lon="5.85771">
        <ele>910</ele>
        <time>2019-03-29T15:38:27Z</time>
      </trkpt>
      <trkpt lat="44.39324" lon="5.85778">
        <ele>910</ele>
        <time>2019-03-29T15:38:28Z</time>
      </trkpt>
      <trkpt lat="44.3932" lon="5.85785">
        <ele>910</ele>
        <time>2019-03-29T15:38:29Z</time>
      </trkpt>
      <trkpt lat="44.39317" lon="5.85791">
        <ele>910</ele>
        <time>2019-03-29T15:38:30Z</time>
      </trkpt>
      <trkpt lat="44.39313" lon="5.85798">
        <ele>910</ele>
        <time>2019-03-29T15:38:31Z</time>
      </trkpt>
      <trkpt lat="44.39309" lon="5.85805">
        <ele>910</ele>
        <time>2019-03-29T15:38:32Z</time>
      </trkpt>
      <trkpt lat="44.39304" lon="5.85813">
        <ele>910</ele>
        <time>2019-03-29T15:38:33Z</time>
      </trkpt>
      <trkpt lat="44.393" lon="5.8582">
        <ele>910</ele>
        <time>2019-03-29T15:38:34Z</time>
      </trkpt>
      <trkpt lat="44.39296" lon="5.85827">
        <ele>910</ele>
        <time>2019-03-29T15:38:35Z</time>
      </trkpt>
      <trkpt lat="44.39292" lon="5.85835">
        <ele>910</ele>
        <time>2019-03-29T15:38:36Z</time>
      </trkpt>
      <trkpt lat="44.39289" lon="5.85843">
        <ele>910</ele>
        <time>2019-03-29T15:38:37Z</time>
      </trkpt>
      <trkpt lat="44.39285" lon="5.8585">
        <ele>910</ele>
        <time>2019-03-29T15:38:38Z</time>
      </trkpt>
      <trkpt lat="44.39282" lon="5.85858">
        <ele>910</ele>
        <time>2019-03-29T15:38:39Z</time>
      </trkpt>
      <trkpt lat="44.3928" lon="5.85865">
        <ele>910</ele>
        <time>2019-03-29T15:38:40Z</time>
      </trkpt>
      <trkpt lat="44.39277" lon="5.85874">
        <ele>910</ele>
        <time>2019-03-29T15:38:41Z</time>
      </trkpt>
      <trkpt lat="44.39275" lon="5.85882">
        <ele>910</ele>
        <time>2019-03-29T15:38:42Z</time>
      </trkpt>
      <trkpt lat="44.39273" lon="5.85889">
        <ele>910</ele>
        <time>2019-03-29T15:38:43Z</time>
      </trkpt>
      <trkpt lat="44.39272" lon="5.85898">
        <ele>910</ele>
        <time>2019-03-29T15:38:44Z</time>
      </trkpt>
      <trkpt lat="44.3927" lon="5.85906">
        <ele>910</ele>
        <time>2019-03-29T15:38:45Z</time>
      </trkpt>
      <trkpt lat="44.39268" lon="5.85915">
        <ele>910</ele>
        <time>2019-03-29T15:38:46Z</time>
      </trkpt>
      <trkpt lat="44.39265" lon="5.85923">
        <ele>910</ele>
        <time>2019-03-29T15:38:47Z</time>
      </trkpt>
      <trkpt lat="44.39262" lon="5.85932">
        <ele>910</ele>
        <time>2019-03-29T15:38:48Z</time>
      </trkpt>
      <trkpt lat="44.39258" lon="5.8594">
        <ele>910</ele>
        <time>2019-03-29T15:38:49Z</time>
      </trkpt>
      <trkpt lat="44.39255" lon="5.85948">
        <ele>910</ele>
        <time>2019-03-29T15:38:50Z</time>
      </trkpt>
      <trkpt lat="44.39251" lon="5.85956">
        <ele>910</ele>
        <time>2019-03-29T15:38:51Z</time>
      </trkpt>
      <trkpt lat="44.39247" lon="5.85965">
        <ele>910</ele>
        <time>2019-03-29T15:38:52Z</time>
      </trkpt>
      <trkpt lat="44.39244" lon="5.85974">
        <ele>910</ele>
        <time>2019-03-29T15:38:53Z</time>
      </trkpt>
      <trkpt lat="44.3924" lon="5.85983">
        <ele>910</ele>
        <time>2019-03-29T15:38:54Z</time>
      </trkpt>
      <trkpt lat="44.39237" lon="5.85991">
        <ele>910</ele>
        <time>2019-03-29T15:38:55Z</time>
      </trkpt>
      <trkpt lat="44.39234" lon="5.85998">
        <ele>910</ele>
        <time>2019-03-29T15:38:56Z</time>
      </trkpt>
      <trkpt lat="44.3923" lon="5.86005">
        <ele>910</ele>
        <time>2019-03-29T15:38:57Z</time>
      </trkpt>
      <trkpt lat="44.39227" lon="5.86012">
        <ele>910</ele>
        <time>2019-03-29T15:38:58Z</time>
      </trkpt>
      <trkpt lat="44.39224" lon="5.86019">
        <ele>910</ele>
        <time>2019-03-29T15:38:59Z</time>
      </trkpt>
      <trkpt lat="44.3922" lon="5.86026">
        <ele>910</ele>
        <time>2019-03-29T15:39:00Z</time>
      </trkpt>
      <trkpt lat="44.39217" lon="5.86034">
        <ele>909</ele>
        <time>2019-03-29T15:39:01Z</time>
      </trkpt>
      <trkpt lat="44.39214" lon="5.86042">
        <ele>909</ele>
        <time>2019-03-29T15:39:02Z</time>
      </trkpt>
      <trkpt lat="44.39211" lon="5.86051">
        <ele>909</ele>
        <time>2019-03-29T15:39:03Z</time>
      </trkpt>
      <trkpt lat="44.39209" lon="5.86059">
        <ele>908</ele>
        <time>2019-03-29T15:39:04Z</time>
      </trkpt>
      <trkpt lat="44.39207" lon="5.86067">
        <ele>908</ele>
        <time>2019-03-29T15:39:05Z</time>
      </trkpt>
      <trkpt lat="44.39205" lon="5.86076">
        <ele>907</ele>
        <time>2019-03-29T15:39:06Z</time>
      </trkpt>
      <trkpt lat="44.39204" lon="5.86085">
        <ele>907</ele>
        <time>2019-03-29T15:39:07Z</time>
      </trkpt>
      <trkpt lat="44.39201" lon="5.86093">
        <ele>907</ele>
        <time>2019-03-29T15:39:08Z</time>
      </trkpt>
      <trkpt lat="44.39199" lon="5.86102">
        <ele>907</ele>
        <time>2019-03-29T15:39:09Z</time>
      </trkpt>
      <trkpt lat="44.39196" lon="5.8611">
        <ele>907</ele>
        <time>2019-03-29T15:39:10Z</time>
      </trkpt>
      <trkpt lat="44.39193" lon="5.86118">
        <ele>907</ele>
        <time>2019-03-29T15:39:11Z</time>
      </trkpt>
      <trkpt lat="44.3919" lon="5.86126">
        <ele>906</ele>
        <time>2019-03-29T15:39:12Z</time>
      </trkpt>
      <trkpt lat="44.39187" lon="5.86133">
        <ele>906</ele>
        <time>2019-03-29T15:39:13Z</time>
      </trkpt>
      <trkpt lat="44.39183" lon="5.86141">
        <ele>906</ele>
        <time>2019-03-29T15:39:14Z</time>
      </trkpt>
      <trkpt lat="44.39179" lon="5.86148">
        <ele>905</ele>
        <time>2019-03-29T15:39:15Z</time>
      </trkpt>
      <trkpt lat="44.39175" lon="5.86155">
        <ele>905</ele>
        <time>2019-03-29T15:39:16Z</time>
      </trkpt>
      <trkpt lat="44.3917" lon="5.86162">
        <ele>905</ele>
        <time>2019-03-29T15:39:17Z</time>
      </trkpt>
      <trkpt lat="44.39164" lon="5.8617">
        <ele>904</ele>
        <time>2019-03-29T15:39:18Z</time>
      </trkpt>
      <trkpt lat="44.39158" lon="5.86178">
        <ele>904</ele>
        <time>2019-03-29T15:39:19Z</time>
      </trkpt>
      <trkpt lat="44.39152" lon="5.86186">
        <ele>904</ele>
        <time>2019-03-29T15:39:20Z</time>
      </trkpt>
      <trkpt lat="44.39145" lon="5.86194">
        <ele>903</ele>
        <time>2019-03-29T15:39:21Z</time>
      </trkpt>
      <trkpt lat="44.39138" lon="5.86201">
        <ele>903</ele>
        <time>2019-03-29T15:39:22Z</time>
      </trkpt>
      <trkpt lat="44.39131" lon="5.8621">
        <ele>902</ele>
        <time>2019-03-29T15:39:23Z</time>
      </trkpt>
      <trkpt lat="44.39125" lon="5.86218">
        <ele>902</ele>
        <time>2019-03-29T15:39:24Z</time>
      </trkpt>
      <trkpt lat="44.39117" lon="5.86227">
        <ele>902</ele>
        <time>2019-03-29T15:39:25Z</time>
      </trkpt>
      <trkpt lat="44.3911" lon="5.86236">
        <ele>901</ele>
        <time>2019-03-29T15:39:26Z</time>
      </trkpt>
      <trkpt lat="44.39102" lon="5.86245">
        <ele>901</ele>
        <time>2019-03-29T15:39:27Z</time>
      </trkpt>
      <trkpt lat="44.39094" lon="5.86254">
        <ele>900</ele>
        <time>2019-03-29T15:39:28Z</time>
      </trkpt>
      <trkpt lat="44.39085" lon="5.86264">
        <ele>900</ele>
        <time>2019-03-29T15:39:29Z</time>
      </trkpt>
      <trkpt lat="44.39077" lon="5.86273">
        <ele>899</ele>
        <time>2019-03-29T15:39:30Z</time>
      </trkpt>
      <trkpt lat="44.3907" lon="5.86281">
        <ele>899</ele>
        <time>2019-03-29T15:39:31Z</time>
      </trkpt>
      <trkpt lat="44.39062" lon="5.86289">
        <ele>899</ele>
        <time>2019-03-29T15:39:32Z</time>
      </trkpt>
      <trkpt lat="44.39054" lon="5.86298">
        <ele>898</ele>
        <time>2019-03-29T15:39:33Z</time>
      </trkpt>
      <trkpt lat="44.39046" lon="5.86306">
        <ele>898</ele>
        <time>2019-03-29T15:39:34Z</time>
      </trkpt>
      <trkpt lat="44.39038" lon="5.86315">
        <ele>897</ele>
        <time>2019-03-29T15:39:35Z</time>
      </trkpt>
      <trkpt lat="44.39031" lon="5.86325">
        <ele>896</ele>
        <time>2019-03-29T15:39:36Z</time>
      </trkpt>
      <trkpt lat="44.39025" lon="5.86335">
        <ele>896</ele>
        <time>2019-03-29T15:39:37Z</time>
      </trkpt>
      <trkpt lat="44.39019" lon="5.86345">
        <ele>895</ele>
        <time>2019-03-29T15:39:38Z</time>
      </trkpt>
      <trkpt lat="44.39013" lon="5.86356">
        <ele>894</ele>
        <time>2019-03-29T15:39:39Z</time>
      </trkpt>
      <trkpt lat="44.39007" lon="5.86367">
        <ele>894</ele>
        <time>2019-03-29T15:39:40Z</time>
      </trkpt>
      <trkpt lat="44.39001" lon="5.86376">
        <ele>894</ele>
        <time>2019-03-29T15:39:41Z</time>
      </trkpt>
      <trkpt lat="44.38994" lon="5.86384">
        <ele>893</ele>
        <time>2019-03-29T15:39:42Z</time>
      </trkpt>
      <trkpt lat="44.38986" lon="5.8639">
        <ele>893</ele>
        <time>2019-03-29T15:39:43Z</time>
      </trkpt>
      <trkpt lat="44.38977" lon="5.86394">
        <ele>893</ele>
        <time>2019-03-29T15:39:44Z</time>
      </trkpt>
      <trkpt lat="44.38969" lon="5.86398">
        <ele>893</ele>
        <time>2019-03-29T15:39:45Z</time>
      </trkpt>
      <trkpt lat="44.38959" lon="5.86401">
        <ele>892</ele>
        <time>2019-03-29T15:39:46Z</time>
      </trkpt>
      <trkpt lat="44.3895" lon="5.86406">
        <ele>892</ele>
        <time>2019-03-29T15:39:47Z</time>
      </trkpt>
      <trkpt lat="44.3894" lon="5.86411">
        <ele>891</ele>
        <time>2019-03-29T15:39:48Z</time>
      </trkpt>
      <trkpt lat="44.38931" lon="5.86416">
        <ele>891</ele>
        <time>2019-03-29T15:39:49Z</time>
      </trkpt>
      <trkpt lat="44.38922" lon="5.86421">
        <ele>890</ele>
        <time>2019-03-29T15:39:50Z</time>
      </trkpt>
      <trkpt lat="44.38913" lon="5.86427">
        <ele>890</ele>
        <time>2019-03-29T15:39:51Z</time>
      </trkpt>
      <trkpt lat="44.38905" lon="5.86434">
        <ele>889</ele>
        <time>2019-03-29T15:39:52Z</time>
      </trkpt>
      <trkpt lat="44.38897" lon="5.86442">
        <ele>889</ele>
        <time>2019-03-29T15:39:53Z</time>
      </trkpt>
      <trkpt lat="44.38889" lon="5.86449">
        <ele>889</ele>
        <time>2019-03-29T15:39:54Z</time>
      </trkpt>
      <trkpt lat="44.38882" lon="5.86457">
        <ele>889</ele>
        <time>2019-03-29T15:39:55Z</time>
      </trkpt>
      <trkpt lat="44.38876" lon="5.86465">
        <ele>889</ele>
        <time>2019-03-29T15:39:56Z</time>
      </trkpt>
      <trkpt lat="44.38869" lon="5.86473">
        <ele>889</ele>
        <time>2019-03-29T15:39:57Z</time>
      </trkpt>
      <trkpt lat="44.38863" lon="5.86481">
        <ele>889</ele>
        <time>2019-03-29T15:39:58Z</time>
      </trkpt>
      <trkpt lat="44.38858" lon="5.86488">
        <ele>889</ele>
        <time>2019-03-29T15:39:59Z</time>
      </trkpt>
      <trkpt lat="44.38852" lon="5.86495">
        <ele>889</ele>
        <time>2019-03-29T15:40:00Z</time>
      </trkpt>
      <trkpt lat="44.38847" lon="5.86503">
        <ele>889</ele>
        <time>2019-03-29T15:40:01Z</time>
      </trkpt>
      <trkpt lat="44.38841" lon="5.86509">
        <ele>889</ele>
        <time>2019-03-29T15:40:02Z</time>
      </trkpt>
      <trkpt lat="44.38836" lon="5.86515">
        <ele>888</ele>
        <time>2019-03-29T15:40:03Z</time>
      </trkpt>
      <trkpt lat="44.38831" lon="5.86521">
        <ele>888</ele>
        <time>2019-03-29T15:40:04Z</time>
      </trkpt>
      <trkpt lat="44.38825" lon="5.86526">
        <ele>888</ele>
        <time>2019-03-29T15:40:05Z</time>
      </trkpt>
      <trkpt lat="44.38818" lon="5.86532">
        <ele>888</ele>
        <time>2019-03-29T15:40:06Z</time>
      </trkpt>
      <trkpt lat="44.38811" lon="5.86538">
        <ele>887</ele>
        <time>2019-03-29T15:40:07Z</time>
      </trkpt>
      <trkpt lat="44.38804" lon="5.86544">
        <ele>887</ele>
        <time>2019-03-29T15:40:08Z</time>
      </trkpt>
      <trkpt lat="44.38796" lon="5.8655">
        <ele>886</ele>
        <time>2019-03-29T15:40:09Z</time>
      </trkpt>
      <trkpt lat="44.38787" lon="5.86556">
        <ele>885</ele>
        <time>2019-03-29T15:40:10Z</time>
      </trkpt>
      <trkpt lat="44.38778" lon="5.86562">
        <ele>885</ele>
        <time>2019-03-29T15:40:11Z</time>
      </trkpt>
      <trkpt lat="44.38769" lon="5.86568">
        <ele>884</ele>
        <time>2019-03-29T15:40:12Z</time>
      </trkpt>
      <trkpt lat="44.3876" lon="5.86574">
        <ele>883</ele>
        <time>2019-03-29T15:40:13Z</time>
      </trkpt>
      <trkpt lat="44.38751" lon="5.8658">
        <ele>882</ele>
        <time>2019-03-29T15:40:14Z</time>
      </trkpt>
      <trkpt lat="44.38742" lon="5.86587">
        <ele>881</ele>
        <time>2019-03-29T15:40:15Z</time>
      </trkpt>
      <trkpt lat="44.38732" lon="5.86593">
        <ele>880</ele>
        <time>2019-03-29T15:40:16Z</time>
      </trkpt>
      <trkpt lat="44.38722" lon="5.86599">
        <ele>879</ele>
        <time>2019-03-29T15:40:17Z</time>
      </trkpt>
      <trkpt lat="44.38712" lon="5.86605">
        <ele>878</ele>
        <time>2019-03-29T15:40:18Z</time>
      </trkpt>
      <trkpt lat="44.38701" lon="5.86611">
        <ele>877</ele>
        <time>2019-03-29T15:40:19Z</time>
      </trkpt>
      <trkpt lat="44.38689" lon="5.86616">
        <ele>876</ele>
        <time>2019-03-29T15:40:20Z</time>
      </trkpt>
      <trkpt lat="44.38678" lon="5.8662">
        <ele>875</ele>
        <time>2019-03-29T15:40:21Z</time>
      </trkpt>
      <trkpt lat="44.38667" lon="5.86624">
        <ele>874</ele>
        <time>2019-03-29T15:40:22Z</time>
      </trkpt>
      <trkpt lat="44.38655" lon="5.86629">
        <ele>873</ele>
        <time>2019-03-29T15:40:23Z</time>
      </trkpt>
      <trkpt lat="44.38644" lon="5.86633">
        <ele>872</ele>
        <time>2019-03-29T15:40:24Z</time>
      </trkpt>
      <trkpt lat="44.38633" lon="5.86638">
        <ele>871</ele>
        <time>2019-03-29T15:40:25Z</time>
      </trkpt>
      <trkpt lat="44.38622" lon="5.86643">
        <ele>870</ele>
        <time>2019-03-29T15:40:26Z</time>
      </trkpt>
      <trkpt lat="44.38611" lon="5.86648">
        <ele>869</ele>
        <time>2019-03-29T15:40:27Z</time>
      </trkpt>
      <trkpt lat="44.386" lon="5.86653">
        <ele>868</ele>
        <time>2019-03-29T15:40:28Z</time>
      </trkpt>
      <trkpt lat="44.3859" lon="5.86657">
        <ele>867</ele>
        <time>2019-03-29T15:40:29Z</time>
      </trkpt>
      <trkpt lat="44.3858" lon="5.86663">
        <ele>866</ele>
        <time>2019-03-29T15:40:30Z</time>
      </trkpt>
      <trkpt lat="44.3857" lon="5.86667">
        <ele>865</ele>
        <time>2019-03-29T15:40:31Z</time>
      </trkpt>
      <trkpt lat="44.3856" lon="5.86672">
        <ele>864</ele>
        <time>2019-03-29T15:40:32Z</time>
      </trkpt>
      <trkpt lat="44.3855" lon="5.86676">
        <ele>863</ele>
        <time>2019-03-29T15:40:33Z</time>
      </trkpt>
      <trkpt lat="44.38541" lon="5.86681">
        <ele>862</ele>
        <time>2019-03-29T15:40:34Z</time>
      </trkpt>
      <trkpt lat="44.38531" lon="5.86686">
        <ele>861</ele>
        <time>2019-03-29T15:40:35Z</time>
      </trkpt>
      <trkpt lat="44.38522" lon="5.8669">
        <ele>861</ele>
        <time>2019-03-29T15:40:36Z</time>
      </trkpt>
      <trkpt lat="44.38513" lon="5.86694">
        <ele>861</ele>
        <time>2019-03-29T15:40:37Z</time>
      </trkpt>
      <trkpt lat="44.38505" lon="5.86698">
        <ele>861</ele>
        <time>2019-03-29T15:40:38Z</time>
      </trkpt>
      <trkpt lat="44.38497" lon="5.86703">
        <ele>861</ele>
        <time>2019-03-29T15:40:39Z</time>
      </trkpt>
      <trkpt lat="44.38489" lon="5.86709">
        <ele>861</ele>
        <time>2019-03-29T15:40:40Z</time>
      </trkpt>
      <trkpt lat="44.38481" lon="5.86715">
        <ele>861</ele>
        <time>2019-03-29T15:40:41Z</time>
      </trkpt>
      <trkpt lat="44.38474" lon="5.86721">
        <ele>860</ele>
        <time>2019-03-29T15:40:42Z</time>
      </trkpt>
      <trkpt lat="44.38466" lon="5.86727">
        <ele>860</ele>
        <time>2019-03-29T15:40:43Z</time>
      </trkpt>
      <trkpt lat="44.38459" lon="5.86734">
        <ele>860</ele>
        <time>2019-03-29T15:40:44Z</time>
      </trkpt>
      <trkpt lat="44.38451" lon="5.86741">
        <ele>860</ele>
        <time>2019-03-29T15:40:45Z</time>
      </trkpt>
      <trkpt lat="44.38444" lon="5.86747">
        <ele>860</ele>
        <time>2019-03-29T15:40:46Z</time>
      </trkpt>
      <trkpt lat="44.38437" lon="5.86752">
        <ele>860</ele>
        <time>2019-03-29T15:40:47Z</time>
      </trkpt>
      <trkpt lat="44.38429" lon="5.86759">
        <ele>860</ele>
        <time>2019-03-29T15:40:48Z</time>
      </trkpt>
      <trkpt lat="44.38422" lon="5.86765">
        <ele>860</ele>
        <time>2019-03-29T15:40:49Z</time>
      </trkpt>
      <trkpt lat="44.38415" lon="5.86771">
        <ele>860</ele>
        <time>2019-03-29T15:40:50Z</time>
      </trkpt>
      <trkpt lat="44.38408" lon="5.86776">
        <ele>860</ele>
        <time>2019-03-29T15:40:51Z</time>
      </trkpt>
      <trkpt lat="44.38401" lon="5.86782">
        <ele>860</ele>
        <time>2019-03-29T15:40:52Z</time>
      </trkpt>
      <trkpt lat="44.38395" lon="5.86787">
        <ele>860</ele>
        <time>2019-03-29T15:40:53Z</time>
      </trkpt>
      <trkpt lat="44.38389" lon="5.86793">
        <ele>860</ele>
        <time>2019-03-29T15:40:54Z</time>
      </trkpt>
      <trkpt lat="44.38382" lon="5.86798">
        <ele>860</ele>
        <time>2019-03-29T15:40:55Z</time>
      </trkpt>
      <trkpt lat="44.38376" lon="5.86803">
        <ele>860</ele>
        <time>2019-03-29T15:40:56Z</time>
      </trkpt>
      <trkpt lat="44.38371" lon="5.86808">
        <ele>860</ele>
        <time>2019-03-29T15:40:57Z</time>
      </trkpt>
      <trkpt lat="44.38364" lon="5.86812">
        <ele>860</ele>
        <time>2019-03-29T15:40:58Z</time>
      </trkpt>
      <trkpt lat="44.38359" lon="5.86816">
        <ele>860</ele>
        <time>2019-03-29T15:40:59Z</time>
      </trkpt>
      <trkpt lat="44.38354" lon="5.86819">
        <ele>860</ele>
        <time>2019-03-29T15:41:00Z</time>
      </trkpt>
      <trkpt lat="44.38349" lon="5.86822">
        <ele>860</ele>
        <time>2019-03-29T15:41:01Z</time>
      </trkpt>
      <trkpt lat="44.38343" lon="5.86826">
        <ele>860</ele>
        <time>2019-03-29T15:41:02Z</time>
      </trkpt>
      <trkpt lat="44.38337" lon="5.86829">
        <ele>860</ele>
        <time>2019-03-29T15:41:03Z</time>
      </trkpt>
      <trkpt lat="44.38331" lon="5.86832">
        <ele>860</ele>
        <time>2019-03-29T15:41:04Z</time>
      </trkpt>
      <trkpt lat="44.38325" lon="5.86836">
        <ele>859</ele>
        <time>2019-03-29T15:41:05Z</time>
      </trkpt>
      <trkpt lat="44.38318" lon="5.86839">
        <ele>859</ele>
        <time>2019-03-29T15:41:06Z</time>
      </trkpt>
      <trkpt lat="44.3831" lon="5.86843">
        <ele>858</ele>
        <time>2019-03-29T15:41:07Z</time>
      </trkpt>
      <trkpt lat="44.38302" lon="5.86847">
        <ele>857</ele>
        <time>2019-03-29T15:41:08Z</time>
      </trkpt>
      <trkpt lat="44.38294" lon="5.86851">
        <ele>857</ele>
        <time>2019-03-29T15:41:09Z</time>
      </trkpt>
      <trkpt lat="44.38285" lon="5.86855">
        <ele>856</ele>
        <time>2019-03-29T15:41:10Z</time>
      </trkpt>
      <trkpt lat="44.38276" lon="5.8686">
        <ele>855</ele>
        <time>2019-03-29T15:41:11Z</time>
      </trkpt>
      <trkpt lat="44.38268" lon="5.86864">
        <ele>854</ele>
        <time>2019-03-29T15:41:12Z</time>
      </trkpt>
      <trkpt lat="44.38258" lon="5.86868">
        <ele>854</ele>
        <time>2019-03-29T15:41:13Z</time>
      </trkpt>
      <trkpt lat="44.3825" lon="5.86872">
        <ele>853</ele>
        <time>2019-03-29T15:41:14Z</time>
      </trkpt>
      <trkpt lat="44.38241" lon="5.86876">
        <ele>852</ele>
        <time>2019-03-29T15:41:15Z</time>
      </trkpt>
      <trkpt lat="44.38231" lon="5.86879">
        <ele>851</ele>
        <time>2019-03-29T15:41:16Z</time>
      </trkpt>
      <trkpt lat="44.38221" lon="5.86882">
        <ele>850</ele>
        <time>2019-03-29T15:41:17Z</time>
      </trkpt>
      <trkpt lat="44.38211" lon="5.86885">
        <ele>849</ele>
        <time>2019-03-29T15:41:18Z</time>
      </trkpt>
      <trkpt lat="44.38201" lon="5.86887">
        <ele>848</ele>
        <time>2019-03-29T15:41:19Z</time>
      </trkpt>
      <trkpt lat="44.38191" lon="5.86889">
        <ele>847</ele>
        <time>2019-03-29T15:41:20Z</time>
      </trkpt>
      <trkpt lat="44.38182" lon="5.86891">
        <ele>846</ele>
        <time>2019-03-29T15:41:21Z</time>
      </trkpt>
      <trkpt lat="44.38172" lon="5.86892">
        <ele>845</ele>
        <time>2019-03-29T15:41:22Z</time>
      </trkpt>
      <trkpt lat="44.38163" lon="5.86893">
        <ele>844</ele>
        <time>2019-03-29T15:41:23Z</time>
      </trkpt>
      <trkpt lat="44.38155" lon="5.86894">
        <ele>843</ele>
        <time>2019-03-29T15:41:24Z</time>
      </trkpt>
      <trkpt lat="44.38146" lon="5.86894">
        <ele>842</ele>
        <time>2019-03-29T15:41:25Z</time>
      </trkpt>
      <trkpt lat="44.38137" lon="5.86893">
        <ele>841</ele>
        <time>2019-03-29T15:41:26Z</time>
      </trkpt>
      <trkpt lat="44.38128" lon="5.86891">
        <ele>840</ele>
        <time>2019-03-29T15:41:27Z</time>
      </trkpt>
      <trkpt lat="44.38118" lon="5.86888">
        <ele>840</ele>
        <time>2019-03-29T15:41:28Z</time>
      </trkpt>
      <trkpt lat="44.38108" lon="5.86886">
        <ele>839</ele>
        <time>2019-03-29T15:41:29Z</time>
      </trkpt>
      <trkpt lat="44.38099" lon="5.86886">
        <ele>838</ele>
        <time>2019-03-29T15:41:30Z</time>
      </trkpt>
      <trkpt lat="44.38089" lon="5.86887">
        <ele>837</ele>
        <time>2019-03-29T15:41:31Z</time>
      </trkpt>
      <trkpt lat="44.3808" lon="5.8689">
        <ele>836</ele>
        <time>2019-03-29T15:41:32Z</time>
      </trkpt>
      <trkpt lat="44.38071" lon="5.86895">
        <ele>835</ele>
        <time>2019-03-29T15:41:33Z</time>
      </trkpt>
      <trkpt lat="44.38062" lon="5.86901">
        <ele>834</ele>
        <time>2019-03-29T15:41:34Z</time>
      </trkpt>
      <trkpt lat="44.38054" lon="5.86909">
        <ele>833</ele>
        <time>2019-03-29T15:41:35Z</time>
      </trkpt>
      <trkpt lat="44.38045" lon="5.86917">
        <ele>832</ele>
        <time>2019-03-29T15:41:36Z</time>
      </trkpt>
      <trkpt lat="44.38037" lon="5.86925">
        <ele>831</ele>
        <time>2019-03-29T15:41:37Z</time>
      </trkpt>
      <trkpt lat="44.38029" lon="5.86933">
        <ele>830</ele>
        <time>2019-03-29T15:41:38Z</time>
      </trkpt>
      <trkpt lat="44.38021" lon="5.86941">
        <ele>829</ele>
        <time>2019-03-29T15:41:39Z</time>
      </trkpt>
      <trkpt lat="44.38013" lon="5.86948">
        <ele>828</ele>
        <time>2019-03-29T15:41:40Z</time>
      </trkpt>
      <trkpt lat="44.38004" lon="5.86954">
        <ele>827</ele>
        <time>2019-03-29T15:41:41Z</time>
      </trkpt>
      <trkpt lat="44.37995" lon="5.86956">
        <ele>826</ele>
        <time>2019-03-29T15:41:42Z</time>
      </trkpt>
      <trkpt lat="44.37986" lon="5.86956">
        <ele>825</ele>
        <time>2019-03-29T15:41:43Z</time>
      </trkpt>
      <trkpt lat="44.37976" lon="5.86955">
        <ele>824</ele>
        <time>2019-03-29T15:41:44Z</time>
      </trkpt>
      <trkpt lat="44.37967" lon="5.86953">
        <ele>823</ele>
        <time>2019-03-29T15:41:45Z</time>
      </trkpt>
      <trkpt lat="44.37957" lon="5.86951">
        <ele>823</ele>
        <time>2019-03-29T15:41:46Z</time>
      </trkpt>
      <trkpt lat="44.37946" lon="5.86947">
        <ele>822</ele>
        <time>2019-03-29T15:41:47Z</time>
      </trkpt>
      <trkpt lat="44.37936" lon="5.86943">
        <ele>821</ele>
        <time>2019-03-29T15:41:48Z</time>
      </trkpt>
      <trkpt lat="44.37926" lon="5.86938">
        <ele>820</ele>
        <time>2019-03-29T15:41:49Z</time>
      </trkpt>
      <trkpt lat="44.37915" lon="5.86933">
        <ele>819</ele>
        <time>2019-03-29T15:41:50Z</time>
      </trkpt>
      <trkpt lat="44.37905" lon="5.86928">
        <ele>818</ele>
        <time>2019-03-29T15:41:51Z</time>
      </trkpt>
      <trkpt lat="44.37896" lon="5.86925">
        <ele>817</ele>
        <time>2019-03-29T15:41:52Z</time>
      </trkpt>
      <trkpt lat="44.37886" lon="5.86923">
        <ele>816</ele>
        <time>2019-03-29T15:41:53Z</time>
      </trkpt>
      <trkpt lat="44.37876" lon="5.86921">
        <ele>815</ele>
        <time>2019-03-29T15:41:54Z</time>
      </trkpt>
      <trkpt lat="44.37867" lon="5.86917">
        <ele>814</ele>
        <time>2019-03-29T15:41:55Z</time>
      </trkpt>
      <trkpt lat="44.37857" lon="5.86912">
        <ele>813</ele>
        <time>2019-03-29T15:41:56Z</time>
      </trkpt>
      <trkpt lat="44.37848" lon="5.86905">
        <ele>812</ele>
        <time>2019-03-29T15:41:57Z</time>
      </trkpt>
      <trkpt lat="44.37839" lon="5.86899">
        <ele>811</ele>
        <time>2019-03-29T15:41:58Z</time>
      </trkpt>
      <trkpt lat="44.37829" lon="5.86893">
        <ele>810</ele>
        <time>2019-03-29T15:41:59Z</time>
      </trkpt>
      <trkpt lat="44.3782" lon="5.8689">
        <ele>809</ele>
        <time>2019-03-29T15:42:00Z</time>
      </trkpt>
      <trkpt lat="44.3781" lon="5.86889">
        <ele>809</ele>
        <time>2019-03-29T15:42:01Z</time>
      </trkpt>
      <trkpt lat="44.37801" lon="5.86887">
        <ele>808</ele>
        <time>2019-03-29T15:42:02Z</time>
      </trkpt>
      <trkpt lat="44.37792" lon="5.86885">
        <ele>807</ele>
        <time>2019-03-29T15:42:03Z</time>
      </trkpt>
      <trkpt lat="44.37782" lon="5.86881">
        <ele>807</ele>
        <time>2019-03-29T15:42:04Z</time>
      </trkpt>
      <trkpt lat="44.37773" lon="5.86877">
        <ele>806</ele>
        <time>2019-03-29T15:42:05Z</time>
      </trkpt>
      <trkpt lat="44.37764" lon="5.86873">
        <ele>805</ele>
        <time>2019-03-29T15:42:06Z</time>
      </trkpt>
      <trkpt lat="44.37755" lon="5.8687">
        <ele>804</ele>
        <time>2019-03-29T15:42:07Z</time>
      </trkpt>
      <trkpt lat="44.37746" lon="5.86868">
        <ele>804</ele>
        <time>2019-03-29T15:42:08Z</time>
      </trkpt>
      <trkpt lat="44.37737" lon="5.86868">
        <ele>803</ele>
        <time>2019-03-29T15:42:09Z</time>
      </trkpt>
      <trkpt lat="44.37727" lon="5.86872">
        <ele>802</ele>
        <time>2019-03-29T15:42:10Z</time>
      </trkpt>
      <trkpt lat="44.37717" lon="5.86878">
        <ele>801</ele>
        <time>2019-03-29T15:42:11Z</time>
      </trkpt>
      <trkpt lat="44.37709" lon="5.86887">
        <ele>800</ele>
        <time>2019-03-29T15:42:12Z</time>
      </trkpt>
      <trkpt lat="44.37701" lon="5.86896">
        <ele>799</ele>
        <time>2019-03-29T15:42:13Z</time>
      </trkpt>
      <trkpt lat="44.37693" lon="5.86905">
        <ele>799</ele>
        <time>2019-03-29T15:42:14Z</time>
      </trkpt>
      <trkpt lat="44.37685" lon="5.86914">
        <ele>798</ele>
        <time>2019-03-29T15:42:15Z</time>
      </trkpt>
      <trkpt lat="44.37676" lon="5.86922">
        <ele>798</ele>
        <time>2019-03-29T15:42:16Z</time>
      </trkpt>
      <trkpt lat="44.37667" lon="5.86928">
        <ele>797</ele>
        <time>2019-03-29T15:42:17Z</time>
      </trkpt>
      <trkpt lat="44.37657" lon="5.86933">
        <ele>796</ele>
        <time>2019-03-29T15:42:18Z</time>
      </trkpt>
      <trkpt lat="44.37648" lon="5.86936">
        <ele>796</ele>
        <time>2019-03-29T15:42:19Z</time>
      </trkpt>
      <trkpt lat="44.3764" lon="5.86938">
        <ele>795</ele>
        <time>2019-03-29T15:42:20Z</time>
      </trkpt>
      <trkpt lat="44.37632" lon="5.86939">
        <ele>794</ele>
        <time>2019-03-29T15:42:21Z</time>
      </trkpt>
      <trkpt lat="44.37625" lon="5.8694">
        <ele>793</ele>
        <time>2019-03-29T15:42:22Z</time>
      </trkpt>
      <trkpt lat="44.37618" lon="5.8694">
        <ele>792</ele>
        <time>2019-03-29T15:42:23Z</time>
      </trkpt>
      <trkpt lat="44.37611" lon="5.8694">
        <ele>791</ele>
        <time>2019-03-29T15:42:24Z</time>
      </trkpt>
      <trkpt lat="44.37606" lon="5.8694">
        <ele>791</ele>
        <time>2019-03-29T15:42:25Z</time>
      </trkpt>
      <trkpt lat="44.37602" lon="5.86941">
        <ele>790</ele>
        <time>2019-03-29T15:42:26Z</time>
      </trkpt>
      <trkpt lat="44.37598" lon="5.86945">
        <ele>789</ele>
        <time>2019-03-29T15:42:27Z</time>
      </trkpt>
      <trkpt lat="44.37597" lon="5.86951">
        <ele>789</ele>
        <time>2019-03-29T15:42:28Z</time>
      </trkpt>
      <trkpt lat="44.37598" lon="5.86957">
        <ele>789</ele>
        <time>2019-03-29T15:42:29Z</time>
      </trkpt>
      <trkpt lat="44.37601" lon="5.86962">
        <ele>788</ele>
        <time>2019-03-29T15:42:30Z</time>
      </trkpt>
      <trkpt lat="44.37606" lon="5.86965">
        <ele>788</ele>
        <time>2019-03-29T15:42:31Z</time>
      </trkpt>
      <trkpt lat="44.37612" lon="5.86967">
        <ele>787</ele>
        <time>2019-03-29T15:42:32Z</time>
      </trkpt>
      <trkpt lat="44.37619" lon="5.86968">
        <ele>787</ele>
        <time>2019-03-29T15:42:33Z</time>
      </trkpt>
      <trkpt lat="44.37626" lon="5.86971">
        <ele>787</ele>
        <time>2019-03-29T15:42:34Z</time>
      </trkpt>
      <trkpt lat="44.37633" lon="5.86974">
        <ele>787</ele>
        <time>2019-03-29T15:42:35Z</time>
      </trkpt>
      <trkpt lat="44.37639" lon="5.86979">
        <ele>787</ele>
        <time>2019-03-29T15:42:36Z</time>
      </trkpt>
      <trkpt lat="44.37645" lon="5.86985">
        <ele>787</ele>
        <time>2019-03-29T15:42:37Z</time>
      </trkpt>
      <trkpt lat="44.37651" lon="5.86993">
        <ele>786</ele>
        <time>2019-03-29T15:42:38Z</time>
      </trkpt>
      <trkpt lat="44.37655" lon="5.87003">
        <ele>786</ele>
        <time>2019-03-29T15:42:39Z</time>
      </trkpt>
      <trkpt lat="44.37659" lon="5.87013">
        <ele>785</ele>
        <time>2019-03-29T15:42:40Z</time>
      </trkpt>
      <trkpt lat="44.37662" lon="5.87023">
        <ele>784</ele>
        <time>2019-03-29T15:42:41Z</time>
      </trkpt>
      <trkpt lat="44.37665" lon="5.87035">
        <ele>784</ele>
        <time>2019-03-29T15:42:42Z</time>
      </trkpt>
      <trkpt lat="44.37669" lon="5.87046">
        <ele>783</ele>
        <time>2019-03-29T15:42:43Z</time>
      </trkpt>
      <trkpt lat="44.37672" lon="5.87058">
        <ele>783</ele>
        <time>2019-03-29T15:42:44Z</time>
      </trkpt>
      <trkpt lat="44.37676" lon="5.87069">
        <ele>782</ele>
        <time>2019-03-29T15:42:45Z</time>
      </trkpt>
      <trkpt lat="44.37681" lon="5.8708">
        <ele>781</ele>
        <time>2019-03-29T15:42:46Z</time>
      </trkpt>
      <trkpt lat="44.37686" lon="5.8709">
        <ele>780</ele>
        <time>2019-03-29T15:42:47Z</time>
      </trkpt>
      <trkpt lat="44.37691" lon="5.87101">
        <ele>780</ele>
        <time>2019-03-29T15:42:48Z</time>
      </trkpt>
      <trkpt lat="44.37696" lon="5.8711">
        <ele>779</ele>
        <time>2019-03-29T15:42:49Z</time>
      </trkpt>
      <trkpt lat="44.37701" lon="5.8712">
        <ele>778</ele>
        <time>2019-03-29T15:42:50Z</time>
      </trkpt>
      <trkpt lat="44.37705" lon="5.87129">
        <ele>778</ele>
        <time>2019-03-29T15:42:51Z</time>
      </trkpt>
      <trkpt lat="44.37707" lon="5.87139">
        <ele>777</ele>
        <time>2019-03-29T15:42:52Z</time>
      </trkpt>
      <trkpt lat="44.37708" lon="5.87149">
        <ele>776</ele>
        <time>2019-03-29T15:42:53Z</time>
      </trkpt>
      <trkpt lat="44.37708" lon="5.8716">
        <ele>775</ele>
        <time>2019-03-29T15:42:54Z</time>
      </trkpt>
      <trkpt lat="44.37708" lon="5.87171">
        <ele>774</ele>
        <time>2019-03-29T15:42:55Z</time>
      </trkpt>
      <trkpt lat="44.37709" lon="5.87183">
        <ele>773</ele>
        <time>2019-03-29T15:42:56Z</time>
      </trkpt>
      <trkpt lat="44.37712" lon="5.87194">
        <ele>772</ele>
        <time>2019-03-29T15:42:57Z</time>
      </trkpt>
      <trkpt lat="44.37717" lon="5.87205">
        <ele>771</ele>
        <time>2019-03-29T15:42:58Z</time>
      </trkpt>
      <trkpt lat="44.37721" lon="5.87215">
        <ele>770</ele>
        <time>2019-03-29T15:42:59Z</time>
      </trkpt>
      <trkpt lat="44.37726" lon="5.87226">
        <ele>769</ele>
        <time>2019-03-29T15:43:00Z</time>
      </trkpt>
      <trkpt lat="44.37731" lon="5.87237">
        <ele>768</ele>
        <time>2019-03-29T15:43:01Z</time>
      </trkpt>
      <trkpt lat="44.37735" lon="5.87247">
        <ele>767</ele>
        <time>2019-03-29T15:43:02Z</time>
      </trkpt>
      <trkpt lat="44.37741" lon="5.87255">
        <ele>766</ele>
        <time>2019-03-29T15:43:03Z</time>
      </trkpt>
      <trkpt lat="44.37747" lon="5.8726">
        <ele>765</ele>
        <time>2019-03-29T15:43:04Z</time>
      </trkpt>
      <trkpt lat="44.37755" lon="5.87263">
        <ele>764</ele>
        <time>2019-03-29T15:43:05Z</time>
      </trkpt>
      <trkpt lat="44.37762" lon="5.87264">
        <ele>763</ele>
        <time>2019-03-29T15:43:06Z</time>
      </trkpt>
      <trkpt lat="44.37769" lon="5.87265">
        <ele>762</ele>
        <time>2019-03-29T15:43:07Z</time>
      </trkpt>
      <trkpt lat="44.37775" lon="5.87268">
        <ele>761</ele>
        <time>2019-03-29T15:43:08Z</time>
      </trkpt>
      <trkpt lat="44.37779" lon="5.87272">
        <ele>760</ele>
        <time>2019-03-29T15:43:09Z</time>
      </trkpt>
      <trkpt lat="44.37781" lon="5.87278">
        <ele>759</ele>
        <time>2019-03-29T15:43:10Z</time>
      </trkpt>
      <trkpt lat="44.3778" lon="5.87285">
        <ele>758</ele>
        <time>2019-03-29T15:43:11Z</time>
      </trkpt>
      <trkpt lat="44.37775" lon="5.87291">
        <ele>757</ele>
        <time>2019-03-29T15:43:12Z</time>
      </trkpt>
      <trkpt lat="44.37769" lon="5.87296">
        <ele>757</ele>
        <time>2019-03-29T15:43:13Z</time>
      </trkpt>
      <trkpt lat="44.37763" lon="5.87302">
        <ele>756</ele>
        <time>2019-03-29T15:43:14Z</time>
      </trkpt>
      <trkpt lat="44.37756" lon="5.87307">
        <ele>755</ele>
        <time>2019-03-29T15:43:15Z</time>
      </trkpt>
      <trkpt lat="44.37749" lon="5.87311">
        <ele>754</ele>
        <time>2019-03-29T15:43:16Z</time>
      </trkpt>
      <trkpt lat="44.37741" lon="5.87316">
        <ele>754</ele>
        <time>2019-03-29T15:43:17Z</time>
      </trkpt>
      <trkpt lat="44.37734" lon="5.87319">
        <ele>753</ele>
        <time>2019-03-29T15:43:18Z</time>
      </trkpt>
      <trkpt lat="44.37726" lon="5.87323">
        <ele>752</ele>
        <time>2019-03-29T15:43:19Z</time>
      </trkpt>
      <trkpt lat="44.37717" lon="5.87327">
        <ele>751</ele>
        <time>2019-03-29T15:43:20Z</time>
      </trkpt>
      <trkpt lat="44.3771" lon="5.87332">
        <ele>750</ele>
        <time>2019-03-29T15:43:21Z</time>
      </trkpt>
      <trkpt lat="44.37703" lon="5.87339">
        <ele>750</ele>
        <time>2019-03-29T15:43:22Z</time>
      </trkpt>
      <trkpt lat="44.37696" lon="5.87347">
        <ele>749</ele>
        <time>2019-03-29T15:43:23Z</time>
      </trkpt>
      <trkpt lat="44.3769" lon="5.87355">
        <ele>748</ele>
        <time>2019-03-29T15:43:24Z</time>
      </trkpt>
      <trkpt lat="44.37683" lon="5.87364">
        <ele>747</ele>
        <time>2019-03-29T15:43:25Z</time>
      </trkpt>
      <trkpt lat="44.37676" lon="5.87372">
        <ele>747</ele>
        <time>2019-03-29T15:43:26Z</time>
      </trkpt>
      <trkpt lat="44.37669" lon="5.8738">
        <ele>746</ele>
        <time>2019-03-29T15:43:27Z</time>
      </trkpt>
      <trkpt lat="44.37661" lon="5.87387">
        <ele>745</ele>
        <time>2019-03-29T15:43:28Z</time>
      </trkpt>
      <trkpt lat="44.37653" lon="5.87395">
        <ele>745</ele>
        <time>2019-03-29T15:43:29Z</time>
      </trkpt>
      <trkpt lat="44.37646" lon="5.87402">
        <ele>744</ele>
        <time>2019-03-29T15:43:30Z</time>
      </trkpt>
      <trkpt lat="44.37639" lon="5.87408">
        <ele>743</ele>
        <time>2019-03-29T15:43:31Z</time>
      </trkpt>
      <trkpt lat="44.37631" lon="5.87415">
        <ele>743</ele>
        <time>2019-03-29T15:43:32Z</time>
      </trkpt>
      <trkpt lat="44.37624" lon="5.87422">
        <ele>742</ele>
        <time>2019-03-29T15:43:33Z</time>
      </trkpt>
      <trkpt lat="44.37618" lon="5.87429">
        <ele>742</ele>
        <time>2019-03-29T15:43:34Z</time>
      </trkpt>
      <trkpt lat="44.37611" lon="5.87437">
        <ele>741</ele>
        <time>2019-03-29T15:43:35Z</time>
      </trkpt>
      <trkpt lat="44.37606" lon="5.87446">
        <ele>741</ele>
        <time>2019-03-29T15:43:36Z</time>
      </trkpt>
      <trkpt lat="44.37602" lon="5.87456">
        <ele>740</ele>
        <time>2019-03-29T15:43:37Z</time>
      </trkpt>
      <trkpt lat="44.376" lon="5.87467">
        <ele>740</ele>
        <time>2019-03-29T15:43:38Z</time>
      </trkpt>
      <trkpt lat="44.37599" lon="5.87478">
        <ele>739</ele>
        <time>2019-03-29T15:43:39Z</time>
      </trkpt>
      <trkpt lat="44.376" lon="5.87489">
        <ele>738</ele>
        <time>2019-03-29T15:43:40Z</time>
      </trkpt>
      <trkpt lat="44.37601" lon="5.875">
        <ele>737</ele>
        <time>2019-03-29T15:43:41Z</time>
      </trkpt>
      <trkpt lat="44.37601" lon="5.87512">
        <ele>737</ele>
        <time>2019-03-29T15:43:42Z</time>
      </trkpt>
      <trkpt lat="44.37601" lon="5.87525">
        <ele>736</ele>
        <time>2019-03-29T15:43:43Z</time>
      </trkpt>
      <trkpt lat="44.376" lon="5.87537">
        <ele>735</ele>
        <time>2019-03-29T15:43:44Z</time>
      </trkpt>
      <trkpt lat="44.37599" lon="5.87548">
        <ele>735</ele>
        <time>2019-03-29T15:43:45Z</time>
      </trkpt>
      <trkpt lat="44.37598" lon="5.8756">
        <ele>734</ele>
        <time>2019-03-29T15:43:46Z</time>
      </trkpt>
      <trkpt lat="44.37598" lon="5.87572">
        <ele>733</ele>
        <time>2019-03-29T15:43:47Z</time>
      </trkpt>
      <trkpt lat="44.37599" lon="5.87584">
        <ele>732</ele>
        <time>2019-03-29T15:43:48Z</time>
      </trkpt>
      <trkpt lat="44.37602" lon="5.87595">
        <ele>732</ele>
        <time>2019-03-29T15:43:49Z</time>
      </trkpt>
      <trkpt lat="44.37606" lon="5.87607">
        <ele>731</ele>
        <time>2019-03-29T15:43:50Z</time>
      </trkpt>
      <trkpt lat="44.3761" lon="5.87618">
        <ele>730</ele>
        <time>2019-03-29T15:43:51Z</time>
      </trkpt>
      <trkpt lat="44.37614" lon="5.87629">
        <ele>730</ele>
        <time>2019-03-29T15:43:52Z</time>
      </trkpt>
      <trkpt lat="44.37617" lon="5.87641">
        <ele>729</ele>
        <time>2019-03-29T15:43:53Z</time>
      </trkpt>
      <trkpt lat="44.37619" lon="5.87653">
        <ele>728</ele>
        <time>2019-03-29T15:43:54Z</time>
      </trkpt>
      <trkpt lat="44.37621" lon="5.87665">
        <ele>727</ele>
        <time>2019-03-29T15:43:55Z</time>
      </trkpt>
      <trkpt lat="44.37622" lon="5.87678">
        <ele>727</ele>
        <time>2019-03-29T15:43:56Z</time>
      </trkpt>
      <trkpt lat="44.37623" lon="5.87691">
        <ele>726</ele>
        <time>2019-03-29T15:43:57Z</time>
      </trkpt>
      <trkpt lat="44.37623" lon="5.87704">
        <ele>725</ele>
        <time>2019-03-29T15:43:58Z</time>
      </trkpt>
      <trkpt lat="44.37623" lon="5.87717">
        <ele>724</ele>
        <time>2019-03-29T15:43:59Z</time>
      </trkpt>
      <trkpt lat="44.37623" lon="5.8773">
        <ele>723</ele>
        <time>2019-03-29T15:44:00Z</time>
      </trkpt>
      <trkpt lat="44.37624" lon="5.87744">
        <ele>722</ele>
        <time>2019-03-29T15:44:01Z</time>
      </trkpt>
      <trkpt lat="44.37624" lon="5.87757">
        <ele>721</ele>
        <time>2019-03-29T15:44:02Z</time>
      </trkpt>
      <trkpt lat="44.37624" lon="5.87771">
        <ele>720</ele>
        <time>2019-03-29T15:44:03Z</time>
      </trkpt>
      <trkpt lat="44.37625" lon="5.87784">
        <ele>719</ele>
        <time>2019-03-29T15:44:04Z</time>
      </trkpt>
      <trkpt lat="44.37626" lon="5.87797">
        <ele>718</ele>
        <time>2019-03-29T15:44:05Z</time>
      </trkpt>
      <trkpt lat="44.37629" lon="5.8781">
        <ele>717</ele>
        <time>2019-03-29T15:44:06Z</time>
      </trkpt>
      <trkpt lat="44.37632" lon="5.87822">
        <ele>716</ele>
        <time>2019-03-29T15:44:07Z</time>
      </trkpt>
      <trkpt lat="44.37635" lon="5.87836">
        <ele>715</ele>
        <time>2019-03-29T15:44:08Z</time>
      </trkpt>
      <trkpt lat="44.37639" lon="5.87849">
        <ele>714</ele>
        <time>2019-03-29T15:44:09Z</time>
      </trkpt>
      <trkpt lat="44.37642" lon="5.87863">
        <ele>713</ele>
        <time>2019-03-29T15:44:10Z</time>
      </trkpt>
      <trkpt lat="44.37645" lon="5.87877">
        <ele>712</ele>
        <time>2019-03-29T15:44:11Z</time>
      </trkpt>
      <trkpt lat="44.37648" lon="5.8789">
        <ele>711</ele>
        <time>2019-03-29T15:44:12Z</time>
      </trkpt>
      <trkpt lat="44.37651" lon="5.87903">
        <ele>710</ele>
        <time>2019-03-29T15:44:13Z</time>
      </trkpt>
      <trkpt lat="44.37653" lon="5.87917">
        <ele>709</ele>
        <time>2019-03-29T15:44:14Z</time>
      </trkpt>
      <trkpt lat="44.37655" lon="5.8793">
        <ele>708</ele>
        <time>2019-03-29T15:44:15Z</time>
      </trkpt>
      <trkpt lat="44.37656" lon="5.87943">
        <ele>707</ele>
        <time>2019-03-29T15:44:16Z</time>
      </trkpt>
      <trkpt lat="44.37657" lon="5.87957">
        <ele>706</ele>
        <time>2019-03-29T15:44:17Z</time>
      </trkpt>
      <trkpt lat="44.37657" lon="5.8797">
        <ele>705</ele>
        <time>2019-03-29T15:44:18Z</time>
      </trkpt>
      <trkpt lat="44.37656" lon="5.87984">
        <ele>704</ele>
        <time>2019-03-29T15:44:19Z</time>
      </trkpt>
      <trkpt lat="44.37655" lon="5.87997">
        <ele>703</ele>
        <time>2019-03-29T15:44:20Z</time>
      </trkpt>
      <trkpt lat="44.37654" lon="5.88011">
        <ele>702</ele>
        <time>2019-03-29T15:44:21Z</time>
      </trkpt>
      <trkpt lat="44.37653" lon="5.88025">
        <ele>701</ele>
        <time>2019-03-29T15:44:22Z</time>
      </trkpt>
      <trkpt lat="44.37652" lon="5.88038">
        <ele>700</ele>
        <time>2019-03-29T15:44:23Z</time>
      </trkpt>
      <trkpt lat="44.37651" lon="5.88052">
        <ele>699</ele>
        <time>2019-03-29T15:44:24Z</time>
      </trkpt>
      <trkpt lat="44.3765" lon="5.88066">
        <ele>698</ele>
        <time>2019-03-29T15:44:25Z</time>
      </trkpt>
      <trkpt lat="44.37649" lon="5.8808">
        <ele>697</ele>
        <time>2019-03-29T15:44:26Z</time>
      </trkpt>
      <trkpt lat="44.37647" lon="5.88095">
        <ele>696</ele>
        <time>2019-03-29T15:44:27Z</time>
      </trkpt>
      <trkpt lat="44.37646" lon="5.88109">
        <ele>695</ele>
        <time>2019-03-29T15:44:28Z</time>
      </trkpt>
      <trkpt lat="44.37645" lon="5.88124">
        <ele>694</ele>
        <time>2019-03-29T15:44:29Z</time>
      </trkpt>
      <trkpt lat="44.37644" lon="5.88138">
        <ele>693</ele>
        <time>2019-03-29T15:44:30Z</time>
      </trkpt>
      <trkpt lat="44.37643" lon="5.88152">
        <ele>692</ele>
        <time>2019-03-29T15:44:31Z</time>
      </trkpt>
      <trkpt lat="44.37642" lon="5.88167">
        <ele>691</ele>
        <time>2019-03-29T15:44:32Z</time>
      </trkpt>
      <trkpt lat="44.3764" lon="5.88181">
        <ele>690</ele>
        <time>2019-03-29T15:44:33Z</time>
      </trkpt>
      <trkpt lat="44.37639" lon="5.88195">
        <ele>689</ele>
        <time>2019-03-29T15:44:34Z</time>
      </trkpt>
      <trkpt lat="44.37638" lon="5.88209">
        <ele>688</ele>
        <time>2019-03-29T15:44:35Z</time>
      </trkpt>
      <trkpt lat="44.37638" lon="5.88223">
        <ele>687</ele>
        <time>2019-03-29T15:44:36Z</time>
      </trkpt>
      <trkpt lat="44.37638" lon="5.88237">
        <ele>686</ele>
        <time>2019-03-29T15:44:37Z</time>
      </trkpt>
      <trkpt lat="44.3764" lon="5.88251">
        <ele>685</ele>
        <time>2019-03-29T15:44:38Z</time>
      </trkpt>
      <trkpt lat="44.37642" lon="5.88264">
        <ele>684</ele>
        <time>2019-03-29T15:44:39Z</time>
      </trkpt>
      <trkpt lat="44.37644" lon="5.88277">
        <ele>683</ele>
        <time>2019-03-29T15:44:40Z</time>
      </trkpt>
      <trkpt lat="44.37646" lon="5.8829">
        <ele>682</ele>
        <time>2019-03-29T15:44:41Z</time>
      </trkpt>
      <trkpt lat="44.37648" lon="5.88303">
        <ele>681</ele>
        <time>2019-03-29T15:44:42Z</time>
      </trkpt>
      <trkpt lat="44.37651" lon="5.88315">
        <ele>681</ele>
        <time>2019-03-29T15:44:43Z</time>
      </trkpt>
      <trkpt lat="44.37653" lon="5.88327">
        <ele>680</ele>
        <time>2019-03-29T15:44:44Z</time>
      </trkpt>
      <trkpt lat="44.37655" lon="5.88339">
        <ele>679</ele>
        <time>2019-03-29T15:44:45Z</time>
      </trkpt>
      <trkpt lat="44.37657" lon="5.88351">
        <ele>678</ele>
        <time>2019-03-29T15:44:46Z</time>
      </trkpt>
      <trkpt lat="44.37659" lon="5.88363">
        <ele>678</ele>
        <time>2019-03-29T15:44:47Z</time>
      </trkpt>
      <trkpt lat="44.37662" lon="5.88376">
        <ele>677</ele>
        <time>2019-03-29T15:44:48Z</time>
      </trkpt>
      <trkpt lat="44.37665" lon="5.88388">
        <ele>676</ele>
        <time>2019-03-29T15:44:49Z</time>
      </trkpt>
      <trkpt lat="44.37669" lon="5.884">
        <ele>675</ele>
        <time>2019-03-29T15:44:50Z</time>
      </trkpt>
      <trkpt lat="44.37674" lon="5.88413">
        <ele>675</ele>
        <time>2019-03-29T15:44:51Z</time>
      </trkpt>
      <trkpt lat="44.37678" lon="5.88424">
        <ele>674</ele>
        <time>2019-03-29T15:44:52Z</time>
      </trkpt>
      <trkpt lat="44.37683" lon="5.88436">
        <ele>673</ele>
        <time>2019-03-29T15:44:53Z</time>
      </trkpt>
      <trkpt lat="44.37688" lon="5.88448">
        <ele>673</ele>
        <time>2019-03-29T15:44:54Z</time>
      </trkpt>
      <trkpt lat="44.37693" lon="5.8846">
        <ele>672</ele>
        <time>2019-03-29T15:44:55Z</time>
      </trkpt>
      <trkpt lat="44.37698" lon="5.88472">
        <ele>672</ele>
        <time>2019-03-29T15:44:56Z</time>
      </trkpt>
      <trkpt lat="44.37701" lon="5.88483">
        <ele>671</ele>
        <time>2019-03-29T15:44:57Z</time>
      </trkpt>
      <trkpt lat="44.37703" lon="5.88494">
        <ele>671</ele>
        <time>2019-03-29T15:44:58Z</time>
      </trkpt>
      <trkpt lat="44.37702" lon="5.88506">
        <ele>670</ele>
        <time>2019-03-29T15:44:59Z</time>
      </trkpt>
      <trkpt lat="44.37699" lon="5.88518">
        <ele>670</ele>
        <time>2019-03-29T15:45:00Z</time>
      </trkpt>
      <trkpt lat="44.37695" lon="5.88528">
        <ele>670</ele>
        <time>2019-03-29T15:45:01Z</time>
      </trkpt>
      <trkpt lat="44.3769" lon="5.88538">
        <ele>669</ele>
        <time>2019-03-29T15:45:02Z</time>
      </trkpt>
      <trkpt lat="44.37685" lon="5.88549">
        <ele>669</ele>
        <time>2019-03-29T15:45:03Z</time>
      </trkpt>
      <trkpt lat="44.3768" lon="5.88559">
        <ele>668</ele>
        <time>2019-03-29T15:45:04Z</time>
      </trkpt>
      <trkpt lat="44.37675" lon="5.8857">
        <ele>668</ele>
        <time>2019-03-29T15:45:05Z</time>
      </trkpt>
      <trkpt lat="44.3767" lon="5.88581">
        <ele>667</ele>
        <time>2019-03-29T15:45:06Z</time>
      </trkpt>
      <trkpt lat="44.37665" lon="5.88593">
        <ele>667</ele>
        <time>2019-03-29T15:45:07Z</time>
      </trkpt>
      <trkpt lat="44.3766" lon="5.88604">
        <ele>666</ele>
        <time>2019-03-29T15:45:08Z</time>
      </trkpt>
      <trkpt lat="44.37655" lon="5.88616">
        <ele>666</ele>
        <time>2019-03-29T15:45:09Z</time>
      </trkpt>
      <trkpt lat="44.3765" lon="5.88627">
        <ele>665</ele>
        <time>2019-03-29T15:45:10Z</time>
      </trkpt>
      <trkpt lat="44.37645" lon="5.88637">
        <ele>665</ele>
        <time>2019-03-29T15:45:11Z</time>
      </trkpt>
      <trkpt lat="44.3764" lon="5.88648">
        <ele>664</ele>
        <time>2019-03-29T15:45:12Z</time>
      </trkpt>
      <trkpt lat="44.37636" lon="5.88659">
        <ele>664</ele>
        <time>2019-03-29T15:45:13Z</time>
      </trkpt>
      <trkpt lat="44.37631" lon="5.8867">
        <ele>663</ele>
        <time>2019-03-29T15:45:14Z</time>
      </trkpt>
      <trkpt lat="44.37626" lon="5.88682">
        <ele>663</ele>
        <time>2019-03-29T15:45:15Z</time>
      </trkpt>
      <trkpt lat="44.37621" lon="5.88693">
        <ele>662</ele>
        <time>2019-03-29T15:45:16Z</time>
      </trkpt>
      <trkpt lat="44.37616" lon="5.88705">
        <ele>662</ele>
        <time>2019-03-29T15:45:17Z</time>
      </trkpt>
      <trkpt lat="44.37611" lon="5.88717">
        <ele>662</ele>
        <time>2019-03-29T15:45:18Z</time>
      </trkpt>
      <trkpt lat="44.37606" lon="5.88728">
        <ele>661</ele>
        <time>2019-03-29T15:45:19Z</time>
      </trkpt>
      <trkpt lat="44.37601" lon="5.88739">
        <ele>661</ele>
        <time>2019-03-29T15:45:20Z</time>
      </trkpt>
      <trkpt lat="44.37597" lon="5.88751">
        <ele>661</ele>
        <time>2019-03-29T15:45:21Z</time>
      </trkpt>
      <trkpt lat="44.37592" lon="5.88762">
        <ele>661</ele>
        <time>2019-03-29T15:45:22Z</time>
      </trkpt>
      <trkpt lat="44.37587" lon="5.88773">
        <ele>661</ele>
        <time>2019-03-29T15:45:23Z</time>
      </trkpt>
      <trkpt lat="44.37582" lon="5.88783">
        <ele>660</ele>
        <time>2019-03-29T15:45:24Z</time>
      </trkpt>
      <trkpt lat="44.37577" lon="5.88793">
        <ele>660</ele>
        <time>2019-03-29T15:45:25Z</time>
      </trkpt>
      <trkpt lat="44.3757" lon="5.88802">
        <ele>660</ele>
        <time>2019-03-29T15:45:26Z</time>
      </trkpt>
      <trkpt lat="44.37564" lon="5.88809">
        <ele>660</ele>
        <time>2019-03-29T15:45:27Z</time>
      </trkpt>
      <trkpt lat="44.37557" lon="5.88817">
        <ele>660</ele>
        <time>2019-03-29T15:45:28Z</time>
      </trkpt>
      <trkpt lat="44.3755" lon="5.88824">
        <ele>660</ele>
        <time>2019-03-29T15:45:29Z</time>
      </trkpt>
      <trkpt lat="44.37543" lon="5.88831">
        <ele>660</ele>
        <time>2019-03-29T15:45:30Z</time>
      </trkpt>
      <trkpt lat="44.37537" lon="5.88837">
        <ele>659</ele>
        <time>2019-03-29T15:45:31Z</time>
      </trkpt>
      <trkpt lat="44.37531" lon="5.88844">
        <ele>659</ele>
        <time>2019-03-29T15:45:32Z</time>
      </trkpt>
      <trkpt lat="44.37524" lon="5.8885">
        <ele>659</ele>
        <time>2019-03-29T15:45:33Z</time>
      </trkpt>
      <trkpt lat="44.37518" lon="5.88856">
        <ele>659</ele>
        <time>2019-03-29T15:45:34Z</time>
      </trkpt>
      <trkpt lat="44.37512" lon="5.88862">
        <ele>659</ele>
        <time>2019-03-29T15:45:35Z</time>
      </trkpt>
      <trkpt lat="44.37506" lon="5.88868">
        <ele>659</ele>
        <time>2019-03-29T15:45:36Z</time>
      </trkpt>
      <trkpt lat="44.375" lon="5.88874">
        <ele>659</ele>
        <time>2019-03-29T15:45:37Z</time>
      </trkpt>
      <trkpt lat="44.37494" lon="5.88879">
        <ele>659</ele>
        <time>2019-03-29T15:45:38Z</time>
      </trkpt>
      <trkpt lat="44.37488" lon="5.88885">
        <ele>659</ele>
        <time>2019-03-29T15:45:39Z</time>
      </trkpt>
      <trkpt lat="44.37483" lon="5.8889">
        <ele>659</ele>
        <time>2019-03-29T15:45:40Z</time>
      </trkpt>
      <trkpt lat="44.37477" lon="5.88896">
        <ele>659</ele>
        <time>2019-03-29T15:45:41Z</time>
      </trkpt>
      <trkpt lat="44.37471" lon="5.88902">
        <ele>659</ele>
        <time>2019-03-29T15:45:42Z</time>
      </trkpt>
      <trkpt lat="44.37466" lon="5.88907">
        <ele>658</ele>
        <time>2019-03-29T15:45:43Z</time>
      </trkpt>
      <trkpt lat="44.3746" lon="5.88913">
        <ele>658</ele>
        <time>2019-03-29T15:45:44Z</time>
      </trkpt>
      <trkpt lat="44.37454" lon="5.88919">
        <ele>658</ele>
        <time>2019-03-29T15:45:45Z</time>
      </trkpt>
      <trkpt lat="44.37449" lon="5.88926">
        <ele>658</ele>
        <time>2019-03-29T15:45:46Z</time>
      </trkpt>
      <trkpt lat="44.37443" lon="5.88933">
        <ele>657</ele>
        <time>2019-03-29T15:45:47Z</time>
      </trkpt>
      <trkpt lat="44.37438" lon="5.88941">
        <ele>657</ele>
        <time>2019-03-29T15:45:48Z</time>
      </trkpt>
      <trkpt lat="44.37433" lon="5.8895">
        <ele>656</ele>
        <time>2019-03-29T15:45:49Z</time>
      </trkpt>
      <trkpt lat="44.37429" lon="5.8896">
        <ele>656</ele>
        <time>2019-03-29T15:45:50Z</time>
      </trkpt>
      <trkpt lat="44.37426" lon="5.8897">
        <ele>655</ele>
        <time>2019-03-29T15:45:51Z</time>
      </trkpt>
      <trkpt lat="44.37423" lon="5.88981">
        <ele>655</ele>
        <time>2019-03-29T15:45:52Z</time>
      </trkpt>
      <trkpt lat="44.37421" lon="5.88993">
        <ele>654</ele>
        <time>2019-03-29T15:45:53Z</time>
      </trkpt>
      <trkpt lat="44.37419" lon="5.89005">
        <ele>653</ele>
        <time>2019-03-29T15:45:54Z</time>
      </trkpt>
      <trkpt lat="44.37417" lon="5.89016">
        <ele>652</ele>
        <time>2019-03-29T15:45:55Z</time>
      </trkpt>
      <trkpt lat="44.37415" lon="5.89028">
        <ele>652</ele>
        <time>2019-03-29T15:45:56Z</time>
      </trkpt>
      <trkpt lat="44.37413" lon="5.8904">
        <ele>651</ele>
        <time>2019-03-29T15:45:57Z</time>
      </trkpt>
      <trkpt lat="44.37413" lon="5.89051">
        <ele>650</ele>
        <time>2019-03-29T15:45:58Z</time>
      </trkpt>
      <trkpt lat="44.37414" lon="5.89063">
        <ele>649</ele>
        <time>2019-03-29T15:45:59Z</time>
      </trkpt>
      <trkpt lat="44.37416" lon="5.89075">
        <ele>648</ele>
        <time>2019-03-29T15:46:00Z</time>
      </trkpt>
      <trkpt lat="44.37419" lon="5.89085">
        <ele>648</ele>
        <time>2019-03-29T15:46:01Z</time>
      </trkpt>
      <trkpt lat="44.37422" lon="5.89096">
        <ele>647</ele>
        <time>2019-03-29T15:46:02Z</time>
      </trkpt>
      <trkpt lat="44.37426" lon="5.89107">
        <ele>646</ele>
        <time>2019-03-29T15:46:03Z</time>
      </trkpt>
      <trkpt lat="44.37431" lon="5.89118">
        <ele>646</ele>
        <time>2019-03-29T15:46:04Z</time>
      </trkpt>
      <trkpt lat="44.37437" lon="5.89128">
        <ele>645</ele>
        <time>2019-03-29T15:46:05Z</time>
      </trkpt>
      <trkpt lat="44.37442" lon="5.89138">
        <ele>645</ele>
        <time>2019-03-29T15:46:06Z</time>
      </trkpt>
      <trkpt lat="44.37447" lon="5.89148">
        <ele>644</ele>
        <time>2019-03-29T15:46:07Z</time>
      </trkpt>
      <trkpt lat="44.37452" lon="5.8916">
        <ele>644</ele>
        <time>2019-03-29T15:46:08Z</time>
      </trkpt>
      <trkpt lat="44.37455" lon="5.89172">
        <ele>643</ele>
        <time>2019-03-29T15:46:09Z</time>
      </trkpt>
      <trkpt lat="44.37458" lon="5.89185">
        <ele>643</ele>
        <time>2019-03-29T15:46:10Z</time>
      </trkpt>
      <trkpt lat="44.3746" lon="5.89198">
        <ele>642</ele>
        <time>2019-03-29T15:46:11Z</time>
      </trkpt>
      <trkpt lat="44.37461" lon="5.89212">
        <ele>641</ele>
        <time>2019-03-29T15:46:12Z</time>
      </trkpt>
      <trkpt lat="44.37461" lon="5.89225">
        <ele>641</ele>
        <time>2019-03-29T15:46:13Z</time>
      </trkpt>
      <trkpt lat="44.37461" lon="5.89238">
        <ele>640</ele>
        <time>2019-03-29T15:46:14Z</time>
      </trkpt>
      <trkpt lat="44.37461" lon="5.89252">
        <ele>640</ele>
        <time>2019-03-29T15:46:15Z</time>
      </trkpt>
      <trkpt lat="44.37459" lon="5.89265">
        <ele>639</ele>
        <time>2019-03-29T15:46:16Z</time>
      </trkpt>
      <trkpt lat="44.37456" lon="5.89278">
        <ele>639</ele>
        <time>2019-03-29T15:46:17Z</time>
      </trkpt>
      <trkpt lat="44.37454" lon="5.8929">
        <ele>638</ele>
        <time>2019-03-29T15:46:18Z</time>
      </trkpt>
      <trkpt lat="44.37451" lon="5.89303">
        <ele>638</ele>
        <time>2019-03-29T15:46:19Z</time>
      </trkpt>
      <trkpt lat="44.37448" lon="5.89316">
        <ele>637</ele>
        <time>2019-03-29T15:46:20Z</time>
      </trkpt>
      <trkpt lat="44.37447" lon="5.8933">
        <ele>636</ele>
        <time>2019-03-29T15:46:21Z</time>
      </trkpt>
      <trkpt lat="44.37445" lon="5.89344">
        <ele>635</ele>
        <time>2019-03-29T15:46:22Z</time>
      </trkpt>
      <trkpt lat="44.37445" lon="5.89358">
        <ele>634</ele>
        <time>2019-03-29T15:46:23Z</time>
      </trkpt>
      <trkpt lat="44.37444" lon="5.89371">
        <ele>633</ele>
        <time>2019-03-29T15:46:24Z</time>
      </trkpt>
      <trkpt lat="44.37443" lon="5.89386">
        <ele>632</ele>
        <time>2019-03-29T15:46:25Z</time>
      </trkpt>
      <trkpt lat="44.37442" lon="5.89399">
        <ele>631</ele>
        <time>2019-03-29T15:46:26Z</time>
      </trkpt>
      <trkpt lat="44.37441" lon="5.89412">
        <ele>630</ele>
        <time>2019-03-29T15:46:27Z</time>
      </trkpt>
      <trkpt lat="44.3744" lon="5.89425">
        <ele>629</ele>
        <time>2019-03-29T15:46:28Z</time>
      </trkpt>
      <trkpt lat="44.37439" lon="5.89437">
        <ele>628</ele>
        <time>2019-03-29T15:46:29Z</time>
      </trkpt>
      <trkpt lat="44.37437" lon="5.89449">
        <ele>627</ele>
        <time>2019-03-29T15:46:30Z</time>
      </trkpt>
      <trkpt lat="44.37433" lon="5.89461">
        <ele>626</ele>
        <time>2019-03-29T15:46:31Z</time>
      </trkpt>
      <trkpt lat="44.37429" lon="5.89472">
        <ele>625</ele>
        <time>2019-03-29T15:46:32Z</time>
      </trkpt>
      <trkpt lat="44.37423" lon="5.89482">
        <ele>624</ele>
        <time>2019-03-29T15:46:33Z</time>
      </trkpt>
      <trkpt lat="44.37417" lon="5.89492">
        <ele>623</ele>
        <time>2019-03-29T15:46:34Z</time>
      </trkpt>
      <trkpt lat="44.37412" lon="5.89501">
        <ele>622</ele>
        <time>2019-03-29T15:46:35Z</time>
      </trkpt>
      <trkpt lat="44.37406" lon="5.89511">
        <ele>621</ele>
        <time>2019-03-29T15:46:36Z</time>
      </trkpt>
      <trkpt lat="44.37402" lon="5.89522">
        <ele>620</ele>
        <time>2019-03-29T15:46:37Z</time>
      </trkpt>
      <trkpt lat="44.37399" lon="5.89534">
        <ele>619</ele>
        <time>2019-03-29T15:46:38Z</time>
      </trkpt>
      <trkpt lat="44.37396" lon="5.89547">
        <ele>618</ele>
        <time>2019-03-29T15:46:39Z</time>
      </trkpt>
      <trkpt lat="44.37393" lon="5.8956">
        <ele>617</ele>
        <time>2019-03-29T15:46:40Z</time>
      </trkpt>
      <trkpt lat="44.37389" lon="5.89572">
        <ele>616</ele>
        <time>2019-03-29T15:46:41Z</time>
      </trkpt>
      <trkpt lat="44.37383" lon="5.89583">
        <ele>615</ele>
        <time>2019-03-29T15:46:42Z</time>
      </trkpt>
      <trkpt lat="44.37377" lon="5.89594">
        <ele>614</ele>
        <time>2019-03-29T15:46:43Z</time>
      </trkpt>
      <trkpt lat="44.37371" lon="5.89605">
        <ele>613</ele>
        <time>2019-03-29T15:46:44Z</time>
      </trkpt>
      <trkpt lat="44.37365" lon="5.89617">
        <ele>612</ele>
        <time>2019-03-29T15:46:45Z</time>
      </trkpt>
      <trkpt lat="44.3736" lon="5.89629">
        <ele>611</ele>
        <time>2019-03-29T15:46:46Z</time>
      </trkpt>
      <trkpt lat="44.37354" lon="5.8964">
        <ele>610</ele>
        <time>2019-03-29T15:46:47Z</time>
      </trkpt>
      <trkpt lat="44.37349" lon="5.89652">
        <ele>609</ele>
        <time>2019-03-29T15:46:48Z</time>
      </trkpt>
      <trkpt lat="44.37343" lon="5.89665">
        <ele>608</ele>
        <time>2019-03-29T15:46:49Z</time>
      </trkpt>
      <trkpt lat="44.37338" lon="5.89677">
        <ele>607</ele>
        <time>2019-03-29T15:46:50Z</time>
      </trkpt>
      <trkpt lat="44.37333" lon="5.89688">
        <ele>606</ele>
        <time>2019-03-29T15:46:51Z</time>
      </trkpt>
      <trkpt lat="44.37327" lon="5.897">
        <ele>606</ele>
        <time>2019-03-29T15:46:52Z</time>
      </trkpt>
      <trkpt lat="44.37321" lon="5.89711">
        <ele>605</ele>
        <time>2019-03-29T15:46:53Z</time>
      </trkpt>
      <trkpt lat="44.37316" lon="5.89722">
        <ele>604</ele>
        <time>2019-03-29T15:46:54Z</time>
      </trkpt>
      <trkpt lat="44.3731" lon="5.89732">
        <ele>604</ele>
        <time>2019-03-29T15:46:55Z</time>
      </trkpt>
      <trkpt lat="44.37304" lon="5.89742">
        <ele>604</ele>
        <time>2019-03-29T15:46:56Z</time>
      </trkpt>
      <trkpt lat="44.37297" lon="5.89751">
        <ele>604</ele>
        <time>2019-03-29T15:46:57Z</time>
      </trkpt>
      <trkpt lat="44.37289" lon="5.89758">
        <ele>604</ele>
        <time>2019-03-29T15:46:58Z</time>
      </trkpt>
      <trkpt lat="44.37282" lon="5.89765">
        <ele>603</ele>
        <time>2019-03-29T15:46:59Z</time>
      </trkpt>
      <trkpt lat="44.37273" lon="5.89771">
        <ele>603</ele>
        <time>2019-03-29T15:47:00Z</time>
      </trkpt>
      <trkpt lat="44.37265" lon="5.89776">
        <ele>603</ele>
        <time>2019-03-29T15:47:01Z</time>
      </trkpt>
      <trkpt lat="44.37257" lon="5.89782">
        <ele>602</ele>
        <time>2019-03-29T15:47:02Z</time>
      </trkpt>
      <trkpt lat="44.3725" lon="5.89788">
        <ele>601</ele>
        <time>2019-03-29T15:47:03Z</time>
      </trkpt>
      <trkpt lat="44.37244" lon="5.89796">
        <ele>600</ele>
        <time>2019-03-29T15:47:04Z</time>
      </trkpt>
      <trkpt lat="44.37237" lon="5.89805">
        <ele>599</ele>
        <time>2019-03-29T15:47:05Z</time>
      </trkpt>
      <trkpt lat="44.37231" lon="5.89816">
        <ele>598</ele>
        <time>2019-03-29T15:47:06Z</time>
      </trkpt>
      <trkpt lat="44.37228" lon="5.89829">
        <ele>597</ele>
        <time>2019-03-29T15:47:07Z</time>
      </trkpt>
      <trkpt lat="44.37224" lon="5.89842">
        <ele>597</ele>
        <time>2019-03-29T15:47:08Z</time>
      </trkpt>
      <trkpt lat="44.37221" lon="5.89855">
        <ele>597</ele>
        <time>2019-03-29T15:47:09Z</time>
      </trkpt>
      <trkpt lat="44.37218" lon="5.89867">
        <ele>597</ele>
        <time>2019-03-29T15:47:10Z</time>
      </trkpt>
      <trkpt lat="44.37215" lon="5.89879">
        <ele>597</ele>
        <time>2019-03-29T15:47:11Z</time>
      </trkpt>
      <trkpt lat="44.37212" lon="5.8989">
        <ele>597</ele>
        <time>2019-03-29T15:47:12Z</time>
      </trkpt>
      <trkpt lat="44.37209" lon="5.899">
        <ele>597</ele>
        <time>2019-03-29T15:47:13Z</time>
      </trkpt>
      <trkpt lat="44.37206" lon="5.8991">
        <ele>597</ele>
        <time>2019-03-29T15:47:14Z</time>
      </trkpt>
      <trkpt lat="44.37204" lon="5.89919">
        <ele>597</ele>
        <time>2019-03-29T15:47:15Z</time>
      </trkpt>
      <trkpt lat="44.37202" lon="5.89927">
        <ele>597</ele>
        <time>2019-03-29T15:47:16Z</time>
      </trkpt>
      <trkpt lat="44.37199" lon="5.89936">
        <ele>597</ele>
        <time>2019-03-29T15:47:17Z</time>
      </trkpt>
      <trkpt lat="44.37197" lon="5.89944">
        <ele>597</ele>
        <time>2019-03-29T15:47:18Z</time>
      </trkpt>
      <trkpt lat="44.37194" lon="5.89951">
        <ele>597</ele>
        <time>2019-03-29T15:47:19Z</time>
      </trkpt>
      <trkpt lat="44.37192" lon="5.89957">
        <ele>597</ele>
        <time>2019-03-29T15:47:20Z</time>
      </trkpt>
      <trkpt lat="44.37188" lon="5.89961">
        <ele>597</ele>
        <time>2019-03-29T15:47:21Z</time>
      </trkpt>
      <trkpt lat="44.37185" lon="5.89963">
        <ele>597</ele>
        <time>2019-03-29T15:47:22Z</time>
      </trkpt>
      <trkpt lat="44.3718" lon="5.89962">
        <ele>597</ele>
        <time>2019-03-29T15:47:23Z</time>
      </trkpt>
      <trkpt lat="44.37176" lon="5.8996">
        <ele>597</ele>
        <time>2019-03-29T15:47:24Z</time>
      </trkpt>
      <trkpt lat="44.37172" lon="5.89957">
        <ele>597</ele>
        <time>2019-03-29T15:47:25Z</time>
      </trkpt>
      <trkpt lat="44.37167" lon="5.89955">
        <ele>597</ele>
        <time>2019-03-29T15:47:26Z</time>
      </trkpt>
      <trkpt lat="44.37162" lon="5.89952">
        <ele>597</ele>
        <time>2019-03-29T15:47:27Z</time>
      </trkpt>
      <trkpt lat="44.37157" lon="5.8995">
        <ele>597</ele>
        <time>2019-03-29T15:47:28Z</time>
      </trkpt>
      <trkpt lat="44.37152" lon="5.89948">
        <ele>597</ele>
        <time>2019-03-29T15:47:29Z</time>
      </trkpt>
      <trkpt lat="44.37147" lon="5.89946">
        <ele>597</ele>
        <time>2019-03-29T15:47:30Z</time>
      </trkpt>
      <trkpt lat="44.37141" lon="5.89946">
        <ele>597</ele>
        <time>2019-03-29T15:47:31Z</time>
      </trkpt>
      <trkpt lat="44.37136" lon="5.89946">
        <ele>597</ele>
        <time>2019-03-29T15:47:32Z</time>
      </trkpt>
      <trkpt lat="44.37131" lon="5.89948">
        <ele>597</ele>
        <time>2019-03-29T15:47:33Z</time>
      </trkpt>
      <trkpt lat="44.37126" lon="5.8995">
        <ele>597</ele>
        <time>2019-03-29T15:47:34Z</time>
      </trkpt>
      <trkpt lat="44.37122" lon="5.89952">
        <ele>597</ele>
        <time>2019-03-29T15:47:35Z</time>
      </trkpt>
      <trkpt lat="44.37117" lon="5.89955">
        <ele>597</ele>
        <time>2019-03-29T15:47:36Z</time>
      </trkpt>
      <trkpt lat="44.37112" lon="5.89958">
        <ele>597</ele>
        <time>2019-03-29T15:47:37Z</time>
      </trkpt>
      <trkpt lat="44.37108" lon="5.89962">
        <ele>597</ele>
        <time>2019-03-29T15:47:38Z</time>
      </trkpt>
      <trkpt lat="44.37104" lon="5.89967">
        <ele>597</ele>
        <time>2019-03-29T15:47:39Z</time>
      </trkpt>
      <trkpt lat="44.37101" lon="5.89971">
        <ele>597</ele>
        <time>2019-03-29T15:47:40Z</time>
      </trkpt>
      <trkpt lat="44.37097" lon="5.89975">
        <ele>597</ele>
        <time>2019-03-29T15:47:41Z</time>
      </trkpt>
      <trkpt lat="44.37094" lon="5.89979">
        <ele>597</ele>
        <time>2019-03-29T15:47:42Z</time>
      </trkpt>
      <trkpt lat="44.3709" lon="5.89983">
        <ele>597</ele>
        <time>2019-03-29T15:47:43Z</time>
      </trkpt>
      <trkpt lat="44.37086" lon="5.89987">
        <ele>597</ele>
        <time>2019-03-29T15:47:44Z</time>
      </trkpt>
      <trkpt lat="44.37083" lon="5.89991">
        <ele>597</ele>
        <time>2019-03-29T15:47:45Z</time>
      </trkpt>
      <trkpt lat="44.37079" lon="5.89994">
        <ele>597</ele>
        <time>2019-03-29T15:47:46Z</time>
      </trkpt>
      <trkpt lat="44.37075" lon="5.89997">
        <ele>597</ele>
        <time>2019-03-29T15:47:47Z</time>
      </trkpt>
      <trkpt lat="44.37072" lon="5.9">
        <ele>597</ele>
        <time>2019-03-29T15:47:48Z</time>
      </trkpt>
      <trkpt lat="44.37068" lon="5.90002">
        <ele>597</ele>
        <time>2019-03-29T15:47:49Z</time>
      </trkpt>
      <trkpt lat="44.37065" lon="5.90004">
        <ele>597</ele>
        <time>2019-03-29T15:47:50Z</time>
      </trkpt>
      <trkpt lat="44.37061" lon="5.90005">
        <ele>597</ele>
        <time>2019-03-29T15:47:51Z</time>
      </trkpt>
      <trkpt lat="44.37058" lon="5.90006">
        <ele>598</ele>
        <time>2019-03-29T15:47:52Z</time>
      </trkpt>
      <trkpt lat="44.37054" lon="5.90006">
        <ele>598</ele>
        <time>2019-03-29T15:47:53Z</time>
      </trkpt>
      <trkpt lat="44.37051" lon="5.90006">
        <ele>599</ele>
        <time>2019-03-29T15:47:54Z</time>
      </trkpt>
      <trkpt lat="44.37047" lon="5.90006">
        <ele>599</ele>
        <time>2019-03-29T15:47:55Z</time>
      </trkpt>
      <trkpt lat="44.37043" lon="5.90005">
        <ele>599</ele>
        <time>2019-03-29T15:47:56Z</time>
      </trkpt>
      <trkpt lat="44.37039" lon="5.90004">
        <ele>599</ele>
        <time>2019-03-29T15:47:57Z</time>
      </trkpt>
      <trkpt lat="44.37035" lon="5.90003">
        <ele>600</ele>
        <time>2019-03-29T15:47:58Z</time>
      </trkpt>
      <trkpt lat="44.37031" lon="5.90002">
        <ele>600</ele>
        <time>2019-03-29T15:47:59Z</time>
      </trkpt>
      <trkpt lat="44.37026" lon="5.90001">
        <ele>600</ele>
        <time>2019-03-29T15:48:00Z</time>
      </trkpt>
      <trkpt lat="44.37022" lon="5.89999">
        <ele>600</ele>
        <time>2019-03-29T15:48:01Z</time>
      </trkpt>
      <trkpt lat="44.37017" lon="5.89998">
        <ele>600</ele>
        <time>2019-03-29T15:48:02Z</time>
      </trkpt>
      <trkpt lat="44.37012" lon="5.89996">
        <ele>600</ele>
        <time>2019-03-29T15:48:03Z</time>
      </trkpt>
      <trkpt lat="44.37007" lon="5.89994">
        <ele>600</ele>
        <time>2019-03-29T15:48:04Z</time>
      </trkpt>
      <trkpt lat="44.37002" lon="5.89992">
        <ele>600</ele>
        <time>2019-03-29T15:48:05Z</time>
      </trkpt>
      <trkpt lat="44.36996" lon="5.8999">
        <ele>600</ele>
        <time>2019-03-29T15:48:06Z</time>
      </trkpt>
      <trkpt lat="44.3699" lon="5.89987">
        <ele>600</ele>
        <time>2019-03-29T15:48:07Z</time>
      </trkpt>
      <trkpt lat="44.36985" lon="5.89985">
        <ele>600</ele>
        <time>2019-03-29T15:48:08Z</time>
      </trkpt>
      <trkpt lat="44.36979" lon="5.89982">
        <ele>600</ele>
        <time>2019-03-29T15:48:09Z</time>
      </trkpt>
      <trkpt lat="44.36972" lon="5.89979">
        <ele>600</ele>
        <time>2019-03-29T15:48:10Z</time>
      </trkpt>
      <trkpt lat="44.36966" lon="5.89975">
        <ele>600</ele>
        <time>2019-03-29T15:48:11Z</time>
      </trkpt>
      <trkpt lat="44.36959" lon="5.89972">
        <ele>600</ele>
        <time>2019-03-29T15:48:12Z</time>
      </trkpt>
      <trkpt lat="44.36952" lon="5.89968">
        <ele>600</ele>
        <time>2019-03-29T15:48:13Z</time>
      </trkpt>
      <trkpt lat="44.36945" lon="5.89963">
        <ele>600</ele>
        <time>2019-03-29T15:48:14Z</time>
      </trkpt>
      <trkpt lat="44.36938" lon="5.89959">
        <ele>600</ele>
        <time>2019-03-29T15:48:15Z</time>
      </trkpt>
      <trkpt lat="44.3693" lon="5.89955">
        <ele>600</ele>
        <time>2019-03-29T15:48:16Z</time>
      </trkpt>
      <trkpt lat="44.36923" lon="5.8995">
        <ele>600</ele>
        <time>2019-03-29T15:48:17Z</time>
      </trkpt>
      <trkpt lat="44.36915" lon="5.89946">
        <ele>600</ele>
        <time>2019-03-29T15:48:18Z</time>
      </trkpt>
      <trkpt lat="44.36908" lon="5.89941">
        <ele>600</ele>
        <time>2019-03-29T15:48:19Z</time>
      </trkpt>
      <trkpt lat="44.369" lon="5.89936">
        <ele>600</ele>
        <time>2019-03-29T15:48:20Z</time>
      </trkpt>
      <trkpt lat="44.36892" lon="5.89931">
        <ele>600</ele>
        <time>2019-03-29T15:48:21Z</time>
      </trkpt>
      <trkpt lat="44.36884" lon="5.89926">
        <ele>600</ele>
        <time>2019-03-29T15:48:22Z</time>
      </trkpt>
      <trkpt lat="44.36876" lon="5.89921">
        <ele>599</ele>
        <time>2019-03-29T15:48:23Z</time>
      </trkpt>
      <trkpt lat="44.36868" lon="5.89915">
        <ele>599</ele>
        <time>2019-03-29T15:48:24Z</time>
      </trkpt>
      <trkpt lat="44.36859" lon="5.89909">
        <ele>598</ele>
        <time>2019-03-29T15:48:25Z</time>
      </trkpt>
      <trkpt lat="44.36851" lon="5.89902">
        <ele>598</ele>
        <time>2019-03-29T15:48:26Z</time>
      </trkpt>
      <trkpt lat="44.36843" lon="5.89894">
        <ele>597</ele>
        <time>2019-03-29T15:48:27Z</time>
      </trkpt>
      <trkpt lat="44.36836" lon="5.89887">
        <ele>597</ele>
        <time>2019-03-29T15:48:28Z</time>
      </trkpt>
      <trkpt lat="44.36829" lon="5.89879">
        <ele>597</ele>
        <time>2019-03-29T15:48:29Z</time>
      </trkpt>
      <trkpt lat="44.36822" lon="5.89871">
        <ele>597</ele>
        <time>2019-03-29T15:48:30Z</time>
      </trkpt>
      <trkpt lat="44.36816" lon="5.89863">
        <ele>597</ele>
        <time>2019-03-29T15:48:31Z</time>
      </trkpt>
      <trkpt lat="44.3681" lon="5.89855">
        <ele>597</ele>
        <time>2019-03-29T15:48:32Z</time>
      </trkpt>
      <trkpt lat="44.36804" lon="5.89847">
        <ele>597</ele>
        <time>2019-03-29T15:48:33Z</time>
      </trkpt>
      <trkpt lat="44.368" lon="5.89839">
        <ele>597</ele>
        <time>2019-03-29T15:48:34Z</time>
      </trkpt>
      <trkpt lat="44.36796" lon="5.89831">
        <ele>597</ele>
        <time>2019-03-29T15:48:35Z</time>
      </trkpt>
      <trkpt lat="44.36793" lon="5.89823">
        <ele>597</ele>
        <time>2019-03-29T15:48:36Z</time>
      </trkpt>
      <trkpt lat="44.36791" lon="5.89815">
        <ele>597</ele>
        <time>2019-03-29T15:48:37Z</time>
      </trkpt>
      <trkpt lat="44.36789" lon="5.89808">
        <ele>597</ele>
        <time>2019-03-29T15:48:38Z</time>
      </trkpt>
      <trkpt lat="44.36786" lon="5.89801">
        <ele>597</ele>
        <time>2019-03-29T15:48:39Z</time>
      </trkpt>
      <trkpt lat="44.36784" lon="5.89794">
        <ele>597</ele>
        <time>2019-03-29T15:48:40Z</time>
      </trkpt>
      <trkpt lat="44.36781" lon="5.89788">
        <ele>597</ele>
        <time>2019-03-29T15:48:41Z</time>
      </trkpt>
      <trkpt lat="44.36779" lon="5.89782">
        <ele>597</ele>
        <time>2019-03-29T15:48:42Z</time>
      </trkpt>
      <trkpt lat="44.36776" lon="5.89776">
        <ele>597</ele>
        <time>2019-03-29T15:48:43Z</time>
      </trkpt>
      <trkpt lat="44.36773" lon="5.8977">
        <ele>597</ele>
        <time>2019-03-29T15:48:44Z</time>
      </trkpt>
      <trkpt lat="44.36771" lon="5.89764">
        <ele>597</ele>
        <time>2019-03-29T15:48:45Z</time>
      </trkpt>
      <trkpt lat="44.36768" lon="5.89758">
        <ele>597</ele>
        <time>2019-03-29T15:48:46Z</time>
      </trkpt>
      <trkpt lat="44.36765" lon="5.89752">
        <ele>597</ele>
        <time>2019-03-29T15:48:47Z</time>
      </trkpt>
      <trkpt lat="44.36761" lon="5.89747">
        <ele>597</ele>
        <time>2019-03-29T15:48:48Z</time>
      </trkpt>
      <trkpt lat="44.36758" lon="5.89741">
        <ele>597</ele>
        <time>2019-03-29T15:48:49Z</time>
      </trkpt>
      <trkpt lat="44.36754" lon="5.89735">
        <ele>597</ele>
        <time>2019-03-29T15:48:50Z</time>
      </trkpt>
      <trkpt lat="44.3675" lon="5.89729">
        <ele>597</ele>
        <time>2019-03-29T15:48:51Z</time>
      </trkpt>
      <trkpt lat="44.36747" lon="5.89723">
        <ele>597</ele>
        <time>2019-03-29T15:48:52Z</time>
      </trkpt>
      <trkpt lat="44.36742" lon="5.89717">
        <ele>597</ele>
        <time>2019-03-29T15:48:53Z</time>
      </trkpt>
      <trkpt lat="44.36739" lon="5.89711">
        <ele>597</ele>
        <time>2019-03-29T15:48:54Z</time>
      </trkpt>
      <trkpt lat="44.36735" lon="5.89705">
        <ele>597</ele>
        <time>2019-03-29T15:48:55Z</time>
      </trkpt>
      <trkpt lat="44.36731" lon="5.89698">
        <ele>597</ele>
        <time>2019-03-29T15:48:56Z</time>
      </trkpt>
      <trkpt lat="44.36726" lon="5.89692">
        <ele>597</ele>
        <time>2019-03-29T15:48:57Z</time>
      </trkpt>
      <trkpt lat="44.36722" lon="5.89685">
        <ele>597</ele>
        <time>2019-03-29T15:48:58Z</time>
      </trkpt>
      <trkpt lat="44.36718" lon="5.89679">
        <ele>597</ele>
        <time>2019-03-29T15:48:59Z</time>
      </trkpt>
      <trkpt lat="44.36714" lon="5.89672">
        <ele>597</ele>
        <time>2019-03-29T15:49:00Z</time>
      </trkpt>
      <trkpt lat="44.3671" lon="5.89666">
        <ele>597</ele>
        <time>2019-03-29T15:49:01Z</time>
      </trkpt>
      <trkpt lat="44.36705" lon="5.89659">
        <ele>597</ele>
        <time>2019-03-29T15:49:02Z</time>
      </trkpt>
      <trkpt lat="44.36701" lon="5.89652">
        <ele>597</ele>
        <time>2019-03-29T15:49:03Z</time>
      </trkpt>
      <trkpt lat="44.36697" lon="5.89645">
        <ele>597</ele>
        <time>2019-03-29T15:49:04Z</time>
      </trkpt>
      <trkpt lat="44.36693" lon="5.89639">
        <ele>597</ele>
        <time>2019-03-29T15:49:05Z</time>
      </trkpt>
      <trkpt lat="44.36688" lon="5.89632">
        <ele>597</ele>
        <time>2019-03-29T15:49:06Z</time>
      </trkpt>
      <trkpt lat="44.36683" lon="5.89625">
        <ele>597</ele>
        <time>2019-03-29T15:49:07Z</time>
      </trkpt>
      <trkpt lat="44.36678" lon="5.89617">
        <ele>597</ele>
        <time>2019-03-29T15:49:08Z</time>
      </trkpt>
      <trkpt lat="44.36673" lon="5.8961">
        <ele>597</ele>
        <time>2019-03-29T15:49:09Z</time>
      </trkpt>
      <trkpt lat="44.36668" lon="5.89602">
        <ele>597</ele>
        <time>2019-03-29T15:49:10Z</time>
      </trkpt>
      <trkpt lat="44.36663" lon="5.89594">
        <ele>597</ele>
        <time>2019-03-29T15:49:11Z</time>
      </trkpt>
      <trkpt lat="44.36658" lon="5.89586">
        <ele>597</ele>
        <time>2019-03-29T15:49:12Z</time>
      </trkpt>
      <trkpt lat="44.36653" lon="5.89578">
        <ele>597</ele>
        <time>2019-03-29T15:49:13Z</time>
      </trkpt>
      <trkpt lat="44.36647" lon="5.8957">
        <ele>597</ele>
        <time>2019-03-29T15:49:14Z</time>
      </trkpt>
      <trkpt lat="44.36642" lon="5.89562">
        <ele>597</ele>
        <time>2019-03-29T15:49:15Z</time>
      </trkpt>
      <trkpt lat="44.36637" lon="5.89553">
        <ele>597</ele>
        <time>2019-03-29T15:49:16Z</time>
      </trkpt>
      <trkpt lat="44.36632" lon="5.89546">
        <ele>597</ele>
        <time>2019-03-29T15:49:17Z</time>
      </trkpt>
      <trkpt lat="44.36627" lon="5.89538">
        <ele>597</ele>
        <time>2019-03-29T15:49:18Z</time>
      </trkpt>
      <trkpt lat="44.36623" lon="5.89531">
        <ele>597</ele>
        <time>2019-03-29T15:49:19Z</time>
      </trkpt>
      <trkpt lat="44.36618" lon="5.89524">
        <ele>597</ele>
        <time>2019-03-29T15:49:20Z</time>
      </trkpt>
      <trkpt lat="44.36613" lon="5.89517">
        <ele>597</ele>
        <time>2019-03-29T15:49:21Z</time>
      </trkpt>
      <trkpt lat="44.36609" lon="5.89511">
        <ele>597</ele>
        <time>2019-03-29T15:49:22Z</time>
      </trkpt>
      <trkpt lat="44.36605" lon="5.89504">
        <ele>597</ele>
        <time>2019-03-29T15:49:23Z</time>
      </trkpt>
      <trkpt lat="44.36601" lon="5.89498">
        <ele>597</ele>
        <time>2019-03-29T15:49:24Z</time>
      </trkpt>
      <trkpt lat="44.36597" lon="5.89492">
        <ele>597</ele>
        <time>2019-03-29T15:49:25Z</time>
      </trkpt>
      <trkpt lat="44.36593" lon="5.89486">
        <ele>597</ele>
        <time>2019-03-29T15:49:26Z</time>
      </trkpt>
      <trkpt lat="44.36589" lon="5.8948">
        <ele>597</ele>
        <time>2019-03-29T15:49:27Z</time>
      </trkpt>
      <trkpt lat="44.36585" lon="5.89474">
        <ele>597</ele>
        <time>2019-03-29T15:49:28Z</time>
      </trkpt>
      <trkpt lat="44.36581" lon="5.89468">
        <ele>597</ele>
        <time>2019-03-29T15:49:29Z</time>
      </trkpt>
      <trkpt lat="44.36577" lon="5.89462">
        <ele>597</ele>
        <time>2019-03-29T15:49:30Z</time>
      </trkpt>
      <trkpt lat="44.36574" lon="5.89456">
        <ele>597</ele>
        <time>2019-03-29T15:49:31Z</time>
      </trkpt>
      <trkpt lat="44.3657" lon="5.89449">
        <ele>597</ele>
        <time>2019-03-29T15:49:32Z</time>
      </trkpt>
      <trkpt lat="44.36567" lon="5.89442">
        <ele>597</ele>
        <time>2019-03-29T15:49:33Z</time>
      </trkpt>
      <trkpt lat="44.36563" lon="5.89435">
        <ele>597</ele>
        <time>2019-03-29T15:49:34Z</time>
      </trkpt>
      <trkpt lat="44.3656" lon="5.89427">
        <ele>597</ele>
        <time>2019-03-29T15:49:35Z</time>
      </trkpt>
      <trkpt lat="44.36557" lon="5.89419">
        <ele>597</ele>
        <time>2019-03-29T15:49:36Z</time>
      </trkpt>
      <trkpt lat="44.36555" lon="5.89411">
        <ele>597</ele>
        <time>2019-03-29T15:49:37Z</time>
      </trkpt>
      <trkpt lat="44.36553" lon="5.89402">
        <ele>597</ele>
        <time>2019-03-29T15:49:38Z</time>
      </trkpt>
      <trkpt lat="44.36552" lon="5.89394">
        <ele>597</ele>
        <time>2019-03-29T15:49:39Z</time>
      </trkpt>
      <trkpt lat="44.3655" lon="5.89385">
        <ele>597</ele>
        <time>2019-03-29T15:49:40Z</time>
      </trkpt>
      <trkpt lat="44.36549" lon="5.89376">
        <ele>597</ele>
        <time>2019-03-29T15:49:41Z</time>
      </trkpt>
      <trkpt lat="44.36549" lon="5.89366">
        <ele>597</ele>
        <time>2019-03-29T15:49:42Z</time>
      </trkpt>
      <trkpt lat="44.36548" lon="5.89357">
        <ele>597</ele>
        <time>2019-03-29T15:49:43Z</time>
      </trkpt>
      <trkpt lat="44.36547" lon="5.89348">
        <ele>597</ele>
        <time>2019-03-29T15:49:44Z</time>
      </trkpt>
      <trkpt lat="44.36546" lon="5.89338">
        <ele>597</ele>
        <time>2019-03-29T15:49:45Z</time>
      </trkpt>
      <trkpt lat="44.36544" lon="5.89329">
        <ele>597</ele>
        <time>2019-03-29T15:49:46Z</time>
      </trkpt>
      <trkpt lat="44.36542" lon="5.89321">
        <ele>597</ele>
        <time>2019-03-29T15:49:47Z</time>
      </trkpt>
      <trkpt lat="44.36541" lon="5.89312">
        <ele>597</ele>
        <time>2019-03-29T15:49:48Z</time>
      </trkpt>
      <trkpt lat="44.36538" lon="5.89304">
        <ele>597</ele>
        <time>2019-03-29T15:49:49Z</time>
      </trkpt>
      <trkpt lat="44.36536" lon="5.89296">
        <ele>597</ele>
        <time>2019-03-29T15:49:50Z</time>
      </trkpt>
      <trkpt lat="44.36533" lon="5.8929">
        <ele>597</ele>
        <time>2019-03-29T15:49:51Z</time>
      </trkpt>
      <trkpt lat="44.36531" lon="5.89283">
        <ele>597</ele>
        <time>2019-03-29T15:49:52Z</time>
      </trkpt>
      <trkpt lat="44.36529" lon="5.89277">
        <ele>597</ele>
        <time>2019-03-29T15:49:53Z</time>
      </trkpt>
      <trkpt lat="44.36527" lon="5.8927">
        <ele>597</ele>
        <time>2019-03-29T15:49:54Z</time>
      </trkpt>
      <trkpt lat="44.36526" lon="5.89264">
        <ele>597</ele>
        <time>2019-03-29T15:49:55Z</time>
      </trkpt>
      <trkpt lat="44.36524" lon="5.89259">
        <ele>597</ele>
        <time>2019-03-29T15:49:56Z</time>
      </trkpt>
      <trkpt lat="44.36522" lon="5.89253">
        <ele>597</ele>
        <time>2019-03-29T15:49:57Z</time>
      </trkpt>
      <trkpt lat="44.3652" lon="5.89248">
        <ele>597</ele>
        <time>2019-03-29T15:49:58Z</time>
      </trkpt>
      <trkpt lat="44.36517" lon="5.89242">
        <ele>597</ele>
        <time>2019-03-29T15:49:59Z</time>
      </trkpt>
      <trkpt lat="44.36515" lon="5.89237">
        <ele>597</ele>
        <time>2019-03-29T15:50:00Z</time>
      </trkpt>
      <trkpt lat="44.36513" lon="5.89231">
        <ele>597</ele>
        <time>2019-03-29T15:50:01Z</time>
      </trkpt>
      <trkpt lat="44.36511" lon="5.89226">
        <ele>597</ele>
        <time>2019-03-29T15:50:02Z</time>
      </trkpt>
      <trkpt lat="44.36509" lon="5.8922">
        <ele>597</ele>
        <time>2019-03-29T15:50:03Z</time>
      </trkpt>
      <trkpt lat="44.36507" lon="5.89215">
        <ele>597</ele>
        <time>2019-03-29T15:50:04Z</time>
      </trkpt>
      <trkpt lat="44.36505" lon="5.8921">
        <ele>597</ele>
        <time>2019-03-29T15:50:05Z</time>
      </trkpt>
      <trkpt lat="44.36503" lon="5.89204">
        <ele>597</ele>
        <time>2019-03-29T15:50:06Z</time>
      </trkpt>
      <trkpt lat="44.36501" lon="5.89198">
        <ele>597</ele>
        <time>2019-03-29T15:50:07Z</time>
      </trkpt>
      <trkpt lat="44.36498" lon="5.89193">
        <ele>597</ele>
        <time>2019-03-29T15:50:08Z</time>
      </trkpt>
      <trkpt lat="44.36496" lon="5.89187">
        <ele>597</ele>
        <time>2019-03-29T15:50:09Z</time>
      </trkpt>
      <trkpt lat="44.36494" lon="5.89182">
        <ele>597</ele>
        <time>2019-03-29T15:50:10Z</time>
      </trkpt>
      <trkpt lat="44.36491" lon="5.89175">
        <ele>597</ele>
        <time>2019-03-29T15:50:11Z</time>
      </trkpt>
      <trkpt lat="44.36489" lon="5.8917">
        <ele>597</ele>
        <time>2019-03-29T15:50:12Z</time>
      </trkpt>
      <trkpt lat="44.36487" lon="5.89163">
        <ele>597</ele>
        <time>2019-03-29T15:50:13Z</time>
      </trkpt>
      <trkpt lat="44.36485" lon="5.89157">
        <ele>597</ele>
        <time>2019-03-29T15:50:14Z</time>
      </trkpt>
      <trkpt lat="44.36483" lon="5.89151">
        <ele>597</ele>
        <time>2019-03-29T15:50:15Z</time>
      </trkpt>
      <trkpt lat="44.3648" lon="5.89145">
        <ele>597</ele>
        <time>2019-03-29T15:50:16Z</time>
      </trkpt>
      <trkpt lat="44.36478" lon="5.89139">
        <ele>597</ele>
        <time>2019-03-29T15:50:17Z</time>
      </trkpt>
      <trkpt lat="44.36476" lon="5.89132">
        <ele>597</ele>
        <time>2019-03-29T15:50:18Z</time>
      </trkpt>
      <trkpt lat="44.36473" lon="5.89126">
        <ele>597</ele>
        <time>2019-03-29T15:50:19Z</time>
      </trkpt>
      <trkpt lat="44.36471" lon="5.8912">
        <ele>598</ele>
        <time>2019-03-29T15:50:20Z</time>
      </trkpt>
      <trkpt lat="44.36469" lon="5.89114">
        <ele>598</ele>
        <time>2019-03-29T15:50:21Z</time>
      </trkpt>
      <trkpt lat="44.36467" lon="5.89108">
        <ele>598</ele>
        <time>2019-03-29T15:50:22Z</time>
      </trkpt>
      <trkpt lat="44.36465" lon="5.89102">
        <ele>598</ele>
        <time>2019-03-29T15:50:23Z</time>
      </trkpt>
      <trkpt lat="44.36462" lon="5.89096">
        <ele>598</ele>
        <time>2019-03-29T15:50:24Z</time>
      </trkpt>
      <trkpt lat="44.3646" lon="5.8909">
        <ele>599</ele>
        <time>2019-03-29T15:50:25Z</time>
      </trkpt>
      <trkpt lat="44.36458" lon="5.89084">
        <ele>599</ele>
        <time>2019-03-29T15:50:26Z</time>
      </trkpt>
      <trkpt lat="44.36456" lon="5.89078">
        <ele>599</ele>
        <time>2019-03-29T15:50:27Z</time>
      </trkpt>
      <trkpt lat="44.36454" lon="5.89072">
        <ele>599</ele>
        <time>2019-03-29T15:50:28Z</time>
      </trkpt>
      <trkpt lat="44.36452" lon="5.89067">
        <ele>600</ele>
        <time>2019-03-29T15:50:29Z</time>
      </trkpt>
      <trkpt lat="44.3645" lon="5.89061">
        <ele>600</ele>
        <time>2019-03-29T15:50:30Z</time>
      </trkpt>
      <trkpt lat="44.36448" lon="5.89055">
        <ele>600</ele>
        <time>2019-03-29T15:50:31Z</time>
      </trkpt>
      <trkpt lat="44.36446" lon="5.89049">
        <ele>600</ele>
        <time>2019-03-29T15:50:32Z</time>
      </trkpt>
      <trkpt lat="44.36444" lon="5.89043">
        <ele>601</ele>
        <time>2019-03-29T15:50:33Z</time>
      </trkpt>
      <trkpt lat="44.36442" lon="5.89038">
        <ele>601</ele>
        <time>2019-03-29T15:50:34Z</time>
      </trkpt>
      <trkpt lat="44.3644" lon="5.89032">
        <ele>601</ele>
        <time>2019-03-29T15:50:35Z</time>
      </trkpt>
      <trkpt lat="44.36438" lon="5.89026">
        <ele>601</ele>
        <time>2019-03-29T15:50:36Z</time>
      </trkpt>
      <trkpt lat="44.36435" lon="5.89021">
        <ele>601</ele>
        <time>2019-03-29T15:50:37Z</time>
      </trkpt>
      <trkpt lat="44.36433" lon="5.89015">
        <ele>601</ele>
        <time>2019-03-29T15:50:38Z</time>
      </trkpt>
      <trkpt lat="44.36431" lon="5.89009">
        <ele>601</ele>
        <time>2019-03-29T15:50:39Z</time>
      </trkpt>
      <trkpt lat="44.36429" lon="5.89003">
        <ele>601</ele>
        <time>2019-03-29T15:50:40Z</time>
      </trkpt>
      <trkpt lat="44.36427" lon="5.88997">
        <ele>601</ele>
        <time>2019-03-29T15:50:41Z</time>
      </trkpt>
      <trkpt lat="44.36424" lon="5.88991">
        <ele>601</ele>
        <time>2019-03-29T15:50:42Z</time>
      </trkpt>
      <trkpt lat="44.36421" lon="5.88984">
        <ele>601</ele>
        <time>2019-03-29T15:50:43Z</time>
      </trkpt>
      <trkpt lat="44.36419" lon="5.88977">
        <ele>601</ele>
        <time>2019-03-29T15:50:44Z</time>
      </trkpt>
      <trkpt lat="44.36416" lon="5.8897">
        <ele>601</ele>
        <time>2019-03-29T15:50:45Z</time>
      </trkpt>
      <trkpt lat="44.36413" lon="5.88962">
        <ele>601</ele>
        <time>2019-03-29T15:50:46Z</time>
      </trkpt>
      <trkpt lat="44.36409" lon="5.88954">
        <ele>601</ele>
        <time>2019-03-29T15:50:47Z</time>
      </trkpt>
      <trkpt lat="44.36406" lon="5.88946">
        <ele>601</ele>
        <time>2019-03-29T15:50:48Z</time>
      </trkpt>
      <trkpt lat="44.36403" lon="5.88938">
        <ele>601</ele>
        <time>2019-03-29T15:50:49Z</time>
      </trkpt>
      <trkpt lat="44.364" lon="5.8893">
        <ele>601</ele>
        <time>2019-03-29T15:50:50Z</time>
      </trkpt>
      <trkpt lat="44.36397" lon="5.88922">
        <ele>601</ele>
        <time>2019-03-29T15:50:51Z</time>
      </trkpt>
      <trkpt lat="44.36394" lon="5.88914">
        <ele>601</ele>
        <time>2019-03-29T15:50:52Z</time>
      </trkpt>
      <trkpt lat="44.36391" lon="5.88908">
        <ele>601</ele>
        <time>2019-03-29T15:50:53Z</time>
      </trkpt>
      <trkpt lat="44.36389" lon="5.88901">
        <ele>601</ele>
        <time>2019-03-29T15:50:54Z</time>
      </trkpt>
      <trkpt lat="44.36386" lon="5.88895">
        <ele>602</ele>
        <time>2019-03-29T15:50:55Z</time>
      </trkpt>
      <trkpt lat="44.36384" lon="5.88889">
        <ele>602</ele>
        <time>2019-03-29T15:50:56Z</time>
      </trkpt>
      <trkpt lat="44.36382" lon="5.88883">
        <ele>602</ele>
        <time>2019-03-29T15:50:57Z</time>
      </trkpt>
      <trkpt lat="44.3638" lon="5.88877">
        <ele>602</ele>
        <time>2019-03-29T15:50:58Z</time>
      </trkpt>
      <trkpt lat="44.36378" lon="5.88871">
        <ele>602</ele>
        <time>2019-03-29T15:50:59Z</time>
      </trkpt>
      <trkpt lat="44.36376" lon="5.88865">
        <ele>602</ele>
        <time>2019-03-29T15:51:00Z</time>
      </trkpt>
      <trkpt lat="44.36374" lon="5.88859">
        <ele>602</ele>
        <time>2019-03-29T15:51:01Z</time>
      </trkpt>
      <trkpt lat="44.36371" lon="5.88853">
        <ele>602</ele>
        <time>2019-03-29T15:51:02Z</time>
      </trkpt>
      <trkpt lat="44.36369" lon="5.88847">
        <ele>603</ele>
        <time>2019-03-29T15:51:03Z</time>
      </trkpt>
      <trkpt lat="44.36367" lon="5.88842">
        <ele>603</ele>
        <time>2019-03-29T15:51:04Z</time>
      </trkpt>
      <trkpt lat="44.36364" lon="5.88836">
        <ele>603</ele>
        <time>2019-03-29T15:51:05Z</time>
      </trkpt>
      <trkpt lat="44.36362" lon="5.8883">
        <ele>603</ele>
        <time>2019-03-29T15:51:06Z</time>
      </trkpt>
      <trkpt lat="44.3636" lon="5.88824">
        <ele>604</ele>
        <time>2019-03-29T15:51:07Z</time>
      </trkpt>
      <trkpt lat="44.36358" lon="5.88819">
        <ele>604</ele>
        <time>2019-03-29T15:51:08Z</time>
      </trkpt>
      <trkpt lat="44.36356" lon="5.88813">
        <ele>604</ele>
        <time>2019-03-29T15:51:09Z</time>
      </trkpt>
      <trkpt lat="44.36354" lon="5.88807">
        <ele>604</ele>
        <time>2019-03-29T15:51:10Z</time>
      </trkpt>
      <trkpt lat="44.36352" lon="5.88802">
        <ele>604</ele>
        <time>2019-03-29T15:51:11Z</time>
      </trkpt>
      <trkpt lat="44.3635" lon="5.88797">
        <ele>604</ele>
        <time>2019-03-29T15:51:12Z</time>
      </trkpt>
      <trkpt lat="44.36348" lon="5.88791">
        <ele>604</ele>
        <time>2019-03-29T15:51:13Z</time>
      </trkpt>
      <trkpt lat="44.36347" lon="5.88786">
        <ele>604</ele>
        <time>2019-03-29T15:51:14Z</time>
      </trkpt>
      <trkpt lat="44.36345" lon="5.8878">
        <ele>605</ele>
        <time>2019-03-29T15:51:15Z</time>
      </trkpt>
      <trkpt lat="44.36344" lon="5.88775">
        <ele>605</ele>
        <time>2019-03-29T15:51:16Z</time>
      </trkpt>
      <trkpt lat="44.36343" lon="5.88769">
        <ele>605</ele>
        <time>2019-03-29T15:51:17Z</time>
      </trkpt>
      <trkpt lat="44.36342" lon="5.88764">
        <ele>605</ele>
        <time>2019-03-29T15:51:18Z</time>
      </trkpt>
      <trkpt lat="44.36341" lon="5.88758">
        <ele>605</ele>
        <time>2019-03-29T15:51:19Z</time>
      </trkpt>
      <trkpt lat="44.36341" lon="5.88752">
        <ele>606</ele>
        <time>2019-03-29T15:51:20Z</time>
      </trkpt>
      <trkpt lat="44.36341" lon="5.88747">
        <ele>606</ele>
        <time>2019-03-29T15:51:21Z</time>
      </trkpt>
      <trkpt lat="44.36341" lon="5.8874">
        <ele>606</ele>
        <time>2019-03-29T15:51:22Z</time>
      </trkpt>
      <trkpt lat="44.36341" lon="5.88734">
        <ele>606</ele>
        <time>2019-03-29T15:51:23Z</time>
      </trkpt>
      <trkpt lat="44.36342" lon="5.88728">
        <ele>606</ele>
        <time>2019-03-29T15:51:24Z</time>
      </trkpt>
      <trkpt lat="44.36344" lon="5.88722">
        <ele>606</ele>
        <time>2019-03-29T15:51:25Z</time>
      </trkpt>
      <trkpt lat="44.36345" lon="5.88716">
        <ele>606</ele>
        <time>2019-03-29T15:51:26Z</time>
      </trkpt>
      <trkpt lat="44.36347" lon="5.8871">
        <ele>606</ele>
        <time>2019-03-29T15:51:27Z</time>
      </trkpt>
      <trkpt lat="44.36349" lon="5.88704">
        <ele>606</ele>
        <time>2019-03-29T15:51:28Z</time>
      </trkpt>
      <trkpt lat="44.36352" lon="5.88698">
        <ele>606</ele>
        <time>2019-03-29T15:51:29Z</time>
      </trkpt>
      <trkpt lat="44.36354" lon="5.88692">
        <ele>606</ele>
        <time>2019-03-29T15:51:30Z</time>
      </trkpt>
      <trkpt lat="44.36357" lon="5.88685">
        <ele>606</ele>
        <time>2019-03-29T15:51:31Z</time>
      </trkpt>
      <trkpt lat="44.3636" lon="5.88679">
        <ele>606</ele>
        <time>2019-03-29T15:51:32Z</time>
      </trkpt>
      <trkpt lat="44.36363" lon="5.88671">
        <ele>606</ele>
        <time>2019-03-29T15:51:33Z</time>
      </trkpt>
      <trkpt lat="44.36366" lon="5.88664">
        <ele>606</ele>
        <time>2019-03-29T15:51:34Z</time>
      </trkpt>
      <trkpt lat="44.36368" lon="5.88657">
        <ele>606</ele>
        <time>2019-03-29T15:51:35Z</time>
      </trkpt>
      <trkpt lat="44.3637" lon="5.88649">
        <ele>606</ele>
        <time>2019-03-29T15:51:36Z</time>
      </trkpt>
      <trkpt lat="44.36372" lon="5.88641">
        <ele>606</ele>
        <time>2019-03-29T15:51:37Z</time>
      </trkpt>
      <trkpt lat="44.36373" lon="5.88633">
        <ele>606</ele>
        <time>2019-03-29T15:51:38Z</time>
      </trkpt>
      <trkpt lat="44.36374" lon="5.88626">
        <ele>606</ele>
        <time>2019-03-29T15:51:39Z</time>
      </trkpt>
      <trkpt lat="44.36374" lon="5.88618">
        <ele>606</ele>
        <time>2019-03-29T15:51:40Z</time>
      </trkpt>
      <trkpt lat="44.36375" lon="5.8861">
        <ele>606</ele>
        <time>2019-03-29T15:51:41Z</time>
      </trkpt>
      <trkpt lat="44.36375" lon="5.88602">
        <ele>606</ele>
        <time>2019-03-29T15:51:42Z</time>
      </trkpt>
      <trkpt lat="44.36375" lon="5.88593">
        <ele>606</ele>
        <time>2019-03-29T15:51:43Z</time>
      </trkpt>
      <trkpt lat="44.36375" lon="5.88585">
        <ele>606</ele>
        <time>2019-03-29T15:51:44Z</time>
      </trkpt>
      <trkpt lat="44.36375" lon="5.88577">
        <ele>606</ele>
        <time>2019-03-29T15:51:45Z</time>
      </trkpt>
      <trkpt lat="44.36375" lon="5.88568">
        <ele>606</ele>
        <time>2019-03-29T15:51:46Z</time>
      </trkpt>
      <trkpt lat="44.36375" lon="5.8856">
        <ele>606</ele>
        <time>2019-03-29T15:51:47Z</time>
      </trkpt>
      <trkpt lat="44.36375" lon="5.88551">
        <ele>606</ele>
        <time>2019-03-29T15:51:48Z</time>
      </trkpt>
      <trkpt lat="44.36376" lon="5.88543">
        <ele>606</ele>
        <time>2019-03-29T15:51:49Z</time>
      </trkpt>
      <trkpt lat="44.36376" lon="5.88535">
        <ele>606</ele>
        <time>2019-03-29T15:51:50Z</time>
      </trkpt>
      <trkpt lat="44.36377" lon="5.88526">
        <ele>606</ele>
        <time>2019-03-29T15:51:51Z</time>
      </trkpt>
      <trkpt lat="44.36377" lon="5.88518">
        <ele>606</ele>
        <time>2019-03-29T15:51:52Z</time>
      </trkpt>
      <trkpt lat="44.36377" lon="5.8851">
        <ele>606</ele>
        <time>2019-03-29T15:51:53Z</time>
      </trkpt>
      <trkpt lat="44.36376" lon="5.885">
        <ele>606</ele>
        <time>2019-03-29T15:51:54Z</time>
      </trkpt>
      <trkpt lat="44.36376" lon="5.88491">
        <ele>606</ele>
        <time>2019-03-29T15:51:55Z</time>
      </trkpt>
      <trkpt lat="44.36376" lon="5.88481">
        <ele>606</ele>
        <time>2019-03-29T15:51:56Z</time>
      </trkpt>
      <trkpt lat="44.36376" lon="5.88472">
        <ele>606</ele>
        <time>2019-03-29T15:51:57Z</time>
      </trkpt>
      <trkpt lat="44.36376" lon="5.88462">
        <ele>606</ele>
        <time>2019-03-29T15:51:58Z</time>
      </trkpt>
      <trkpt lat="44.36375" lon="5.88451">
        <ele>606</ele>
        <time>2019-03-29T15:51:59Z</time>
      </trkpt>
      <trkpt lat="44.36374" lon="5.88441">
        <ele>606</ele>
        <time>2019-03-29T15:52:00Z</time>
      </trkpt>
      <trkpt lat="44.36373" lon="5.8843">
        <ele>606</ele>
        <time>2019-03-29T15:52:01Z</time>
      </trkpt>
      <trkpt lat="44.36371" lon="5.88419">
        <ele>606</ele>
        <time>2019-03-29T15:52:02Z</time>
      </trkpt>
      <trkpt lat="44.36369" lon="5.88409">
        <ele>605</ele>
        <time>2019-03-29T15:52:03Z</time>
      </trkpt>
      <trkpt lat="44.36367" lon="5.88398">
        <ele>605</ele>
        <time>2019-03-29T15:52:04Z</time>
      </trkpt>
      <trkpt lat="44.36364" lon="5.88388">
        <ele>605</ele>
        <time>2019-03-29T15:52:05Z</time>
      </trkpt>
      <trkpt lat="44.3636" lon="5.88378">
        <ele>605</ele>
        <time>2019-03-29T15:52:06Z</time>
      </trkpt>
      <trkpt lat="44.36356" lon="5.88368">
        <ele>605</ele>
        <time>2019-03-29T15:52:07Z</time>
      </trkpt>
      <trkpt lat="44.36353" lon="5.88358">
        <ele>605</ele>
        <time>2019-03-29T15:52:08Z</time>
      </trkpt>
      <trkpt lat="44.36349" lon="5.88349">
        <ele>605</ele>
        <time>2019-03-29T15:52:09Z</time>
      </trkpt>
      <trkpt lat="44.36345" lon="5.8834">
        <ele>605</ele>
        <time>2019-03-29T15:52:10Z</time>
      </trkpt>
      <trkpt lat="44.36341" lon="5.88332">
        <ele>605</ele>
        <time>2019-03-29T15:52:11Z</time>
      </trkpt>
      <trkpt lat="44.36338" lon="5.88325">
        <ele>605</ele>
        <time>2019-03-29T15:52:12Z</time>
      </trkpt>
      <trkpt lat="44.36334" lon="5.88318">
        <ele>605</ele>
        <time>2019-03-29T15:52:13Z</time>
      </trkpt>
      <trkpt lat="44.36331" lon="5.88311">
        <ele>605</ele>
        <time>2019-03-29T15:52:14Z</time>
      </trkpt>
      <trkpt lat="44.36329" lon="5.88305">
        <ele>605</ele>
        <time>2019-03-29T15:52:15Z</time>
      </trkpt>
      <trkpt lat="44.36326" lon="5.88298">
        <ele>605</ele>
        <time>2019-03-29T15:52:16Z</time>
      </trkpt>
      <trkpt lat="44.36325" lon="5.88291">
        <ele>605</ele>
        <time>2019-03-29T15:52:17Z</time>
      </trkpt>
      <trkpt lat="44.36323" lon="5.88284">
        <ele>605</ele>
        <time>2019-03-29T15:52:18Z</time>
      </trkpt>
      <trkpt lat="44.36322" lon="5.88277">
        <ele>605</ele>
        <time>2019-03-29T15:52:19Z</time>
      </trkpt>
      <trkpt lat="44.36321" lon="5.8827">
        <ele>605</ele>
        <time>2019-03-29T15:52:20Z</time>
      </trkpt>
      <trkpt lat="44.3632" lon="5.88264">
        <ele>605</ele>
        <time>2019-03-29T15:52:21Z</time>
      </trkpt>
      <trkpt lat="44.36319" lon="5.88257">
        <ele>605</ele>
        <time>2019-03-29T15:52:22Z</time>
      </trkpt>
      <trkpt lat="44.36318" lon="5.8825">
        <ele>605</ele>
        <time>2019-03-29T15:52:23Z</time>
      </trkpt>
      <trkpt lat="44.36317" lon="5.88243">
        <ele>605</ele>
        <time>2019-03-29T15:52:24Z</time>
      </trkpt>
      <trkpt lat="44.36316" lon="5.88236">
        <ele>605</ele>
        <time>2019-03-29T15:52:25Z</time>
      </trkpt>
      <trkpt lat="44.36315" lon="5.88229">
        <ele>605</ele>
        <time>2019-03-29T15:52:26Z</time>
      </trkpt>
      <trkpt lat="44.36314" lon="5.88222">
        <ele>605</ele>
        <time>2019-03-29T15:52:27Z</time>
      </trkpt>
      <trkpt lat="44.36312" lon="5.88214">
        <ele>605</ele>
        <time>2019-03-29T15:52:28Z</time>
      </trkpt>
      <trkpt lat="44.36311" lon="5.88207">
        <ele>605</ele>
        <time>2019-03-29T15:52:29Z</time>
      </trkpt>
      <trkpt lat="44.36309" lon="5.882">
        <ele>605</ele>
        <time>2019-03-29T15:52:30Z</time>
      </trkpt>
      <trkpt lat="44.36307" lon="5.88194">
        <ele>605</ele>
        <time>2019-03-29T15:52:31Z</time>
      </trkpt>
      <trkpt lat="44.36305" lon="5.88187">
        <ele>605</ele>
        <time>2019-03-29T15:52:32Z</time>
      </trkpt>
      <trkpt lat="44.36304" lon="5.88179">
        <ele>605</ele>
        <time>2019-03-29T15:52:33Z</time>
      </trkpt>
      <trkpt lat="44.36302" lon="5.88172">
        <ele>605</ele>
        <time>2019-03-29T15:52:34Z</time>
      </trkpt>
      <trkpt lat="44.363" lon="5.88166">
        <ele>605</ele>
        <time>2019-03-29T15:52:35Z</time>
      </trkpt>
      <trkpt lat="44.36299" lon="5.88158">
        <ele>605</ele>
        <time>2019-03-29T15:52:36Z</time>
      </trkpt>
      <trkpt lat="44.36298" lon="5.88151">
        <ele>605</ele>
        <time>2019-03-29T15:52:37Z</time>
      </trkpt>
      <trkpt lat="44.36296" lon="5.88143">
        <ele>605</ele>
        <time>2019-03-29T15:52:38Z</time>
      </trkpt>
      <trkpt lat="44.36294" lon="5.88136">
        <ele>605</ele>
        <time>2019-03-29T15:52:39Z</time>
      </trkpt>
      <trkpt lat="44.36292" lon="5.88129">
        <ele>605</ele>
        <time>2019-03-29T15:52:40Z</time>
      </trkpt>
      <trkpt lat="44.36291" lon="5.88121">
        <ele>605</ele>
        <time>2019-03-29T15:52:41Z</time>
      </trkpt>
      <trkpt lat="44.36289" lon="5.88112">
        <ele>605</ele>
        <time>2019-03-29T15:52:42Z</time>
      </trkpt>
      <trkpt lat="44.36287" lon="5.88104">
        <ele>606</ele>
        <time>2019-03-29T15:52:43Z</time>
      </trkpt>
      <trkpt lat="44.36285" lon="5.88096">
        <ele>606</ele>
        <time>2019-03-29T15:52:44Z</time>
      </trkpt>
      <trkpt lat="44.36283" lon="5.88087">
        <ele>606</ele>
        <time>2019-03-29T15:52:45Z</time>
      </trkpt>
      <trkpt lat="44.36282" lon="5.88078">
        <ele>606</ele>
        <time>2019-03-29T15:52:46Z</time>
      </trkpt>
      <trkpt lat="44.36279" lon="5.88069">
        <ele>606</ele>
        <time>2019-03-29T15:52:47Z</time>
      </trkpt>
      <trkpt lat="44.36276" lon="5.8806">
        <ele>607</ele>
        <time>2019-03-29T15:52:48Z</time>
      </trkpt>
      <trkpt lat="44.36274" lon="5.88051">
        <ele>607</ele>
        <time>2019-03-29T15:52:49Z</time>
      </trkpt>
      <trkpt lat="44.36271" lon="5.88043">
        <ele>607</ele>
        <time>2019-03-29T15:52:50Z</time>
      </trkpt>
      <trkpt lat="44.36268" lon="5.88034">
        <ele>607</ele>
        <time>2019-03-29T15:52:51Z</time>
      </trkpt>
      <trkpt lat="44.36265" lon="5.88026">
        <ele>607</ele>
        <time>2019-03-29T15:52:52Z</time>
      </trkpt>
      <trkpt lat="44.36262" lon="5.88019">
        <ele>607</ele>
        <time>2019-03-29T15:52:53Z</time>
      </trkpt>
      <trkpt lat="44.36259" lon="5.88012">
        <ele>607</ele>
        <time>2019-03-29T15:52:54Z</time>
      </trkpt>
      <trkpt lat="44.36256" lon="5.88005">
        <ele>607</ele>
        <time>2019-03-29T15:52:55Z</time>
      </trkpt>
      <trkpt lat="44.36253" lon="5.87999">
        <ele>607</ele>
        <time>2019-03-29T15:52:56Z</time>
      </trkpt>
      <trkpt lat="44.36251" lon="5.87992">
        <ele>607</ele>
        <time>2019-03-29T15:52:57Z</time>
      </trkpt>
      <trkpt lat="44.36249" lon="5.87986">
        <ele>607</ele>
        <time>2019-03-29T15:52:58Z</time>
      </trkpt>
      <trkpt lat="44.36247" lon="5.87979">
        <ele>607</ele>
        <time>2019-03-29T15:52:59Z</time>
      </trkpt>
      <trkpt lat="44.36246" lon="5.87973">
        <ele>607</ele>
        <time>2019-03-29T15:53:00Z</time>
      </trkpt>
      <trkpt lat="44.36245" lon="5.87966">
        <ele>607</ele>
        <time>2019-03-29T15:53:01Z</time>
      </trkpt>
      <trkpt lat="44.36245" lon="5.8796">
        <ele>607</ele>
        <time>2019-03-29T15:53:02Z</time>
      </trkpt>
      <trkpt lat="44.36245" lon="5.87954">
        <ele>607</ele>
        <time>2019-03-29T15:53:03Z</time>
      </trkpt>
      <trkpt lat="44.36246" lon="5.87947">
        <ele>607</ele>
        <time>2019-03-29T15:53:04Z</time>
      </trkpt>
      <trkpt lat="44.36246" lon="5.87941">
        <ele>608</ele>
        <time>2019-03-29T15:53:05Z</time>
      </trkpt>
      <trkpt lat="44.36246" lon="5.87934">
        <ele>608</ele>
        <time>2019-03-29T15:53:06Z</time>
      </trkpt>
      <trkpt lat="44.36247" lon="5.87928">
        <ele>608</ele>
        <time>2019-03-29T15:53:07Z</time>
      </trkpt>
      <trkpt lat="44.36248" lon="5.87921">
        <ele>608</ele>
        <time>2019-03-29T15:53:08Z</time>
      </trkpt>
      <trkpt lat="44.36249" lon="5.87914">
        <ele>608</ele>
        <time>2019-03-29T15:53:09Z</time>
      </trkpt>
      <trkpt lat="44.3625" lon="5.87907">
        <ele>608</ele>
        <time>2019-03-29T15:53:10Z</time>
      </trkpt>
      <trkpt lat="44.3625" lon="5.879">
        <ele>608</ele>
        <time>2019-03-29T15:53:11Z</time>
      </trkpt>
      <trkpt lat="44.36251" lon="5.87893">
        <ele>608</ele>
        <time>2019-03-29T15:53:12Z</time>
      </trkpt>
      <trkpt lat="44.3625" lon="5.87886">
        <ele>608</ele>
        <time>2019-03-29T15:53:13Z</time>
      </trkpt>
      <trkpt lat="44.3625" lon="5.87879">
        <ele>608</ele>
        <time>2019-03-29T15:53:14Z</time>
      </trkpt>
      <trkpt lat="44.36249" lon="5.87871">
        <ele>608</ele>
        <time>2019-03-29T15:53:15Z</time>
      </trkpt>
      <trkpt lat="44.36248" lon="5.87863">
        <ele>608</ele>
        <time>2019-03-29T15:53:16Z</time>
      </trkpt>
      <trkpt lat="44.36247" lon="5.87855">
        <ele>608</ele>
        <time>2019-03-29T15:53:17Z</time>
      </trkpt>
      <trkpt lat="44.36246" lon="5.87847">
        <ele>608</ele>
        <time>2019-03-29T15:53:18Z</time>
      </trkpt>
      <trkpt lat="44.36245" lon="5.87839">
        <ele>608</ele>
        <time>2019-03-29T15:53:19Z</time>
      </trkpt>
      <trkpt lat="44.36243" lon="5.87831">
        <ele>608</ele>
        <time>2019-03-29T15:53:20Z</time>
      </trkpt>
      <trkpt lat="44.36242" lon="5.87823">
        <ele>608</ele>
        <time>2019-03-29T15:53:21Z</time>
      </trkpt>
      <trkpt lat="44.3624" lon="5.87816">
        <ele>608</ele>
        <time>2019-03-29T15:53:22Z</time>
      </trkpt>
      <trkpt lat="44.36238" lon="5.87809">
        <ele>608</ele>
        <time>2019-03-29T15:53:23Z</time>
      </trkpt>
      <trkpt lat="44.36236" lon="5.87802">
        <ele>608</ele>
        <time>2019-03-29T15:53:24Z</time>
      </trkpt>
      <trkpt lat="44.36234" lon="5.87795">
        <ele>608</ele>
        <time>2019-03-29T15:53:25Z</time>
      </trkpt>
      <trkpt lat="44.36232" lon="5.87788">
        <ele>608</ele>
        <time>2019-03-29T15:53:26Z</time>
      </trkpt>
      <trkpt lat="44.36229" lon="5.87781">
        <ele>609</ele>
        <time>2019-03-29T15:53:27Z</time>
      </trkpt>
      <trkpt lat="44.36227" lon="5.87774">
        <ele>609</ele>
        <time>2019-03-29T15:53:28Z</time>
      </trkpt>
      <trkpt lat="44.36226" lon="5.87767">
        <ele>610</ele>
        <time>2019-03-29T15:53:29Z</time>
      </trkpt>
      <trkpt lat="44.36225" lon="5.8776">
        <ele>610</ele>
        <time>2019-03-29T15:53:30Z</time>
      </trkpt>
      <trkpt lat="44.36224" lon="5.87753">
        <ele>610</ele>
        <time>2019-03-29T15:53:31Z</time>
      </trkpt>
      <trkpt lat="44.36223" lon="5.87747">
        <ele>611</ele>
        <time>2019-03-29T15:53:32Z</time>
      </trkpt>
      <trkpt lat="44.36222" lon="5.87741">
        <ele>611</ele>
        <time>2019-03-29T15:53:33Z</time>
      </trkpt>
      <trkpt lat="44.36222" lon="5.87734">
        <ele>611</ele>
        <time>2019-03-29T15:53:34Z</time>
      </trkpt>
      <trkpt lat="44.36221" lon="5.87727">
        <ele>611</ele>
        <time>2019-03-29T15:53:35Z</time>
      </trkpt>
      <trkpt lat="44.36221" lon="5.8772">
        <ele>611</ele>
        <time>2019-03-29T15:53:36Z</time>
      </trkpt>
      <trkpt lat="44.36221" lon="5.87714">
        <ele>611</ele>
        <time>2019-03-29T15:53:37Z</time>
      </trkpt>
      <trkpt lat="44.3622" lon="5.87707">
        <ele>611</ele>
        <time>2019-03-29T15:53:38Z</time>
      </trkpt>
      <trkpt lat="44.3622" lon="5.87701">
        <ele>611</ele>
        <time>2019-03-29T15:53:39Z</time>
      </trkpt>
      <trkpt lat="44.3622" lon="5.87694">
        <ele>611</ele>
        <time>2019-03-29T15:53:40Z</time>
      </trkpt>
      <trkpt lat="44.3622" lon="5.87687">
        <ele>611</ele>
        <time>2019-03-29T15:53:41Z</time>
      </trkpt>
      <trkpt lat="44.3622" lon="5.87681">
        <ele>612</ele>
        <time>2019-03-29T15:53:42Z</time>
      </trkpt>
      <trkpt lat="44.3622" lon="5.87674">
        <ele>612</ele>
        <time>2019-03-29T15:53:43Z</time>
      </trkpt>
      <trkpt lat="44.3622" lon="5.87668">
        <ele>612</ele>
        <time>2019-03-29T15:53:44Z</time>
      </trkpt>
      <trkpt lat="44.3622" lon="5.87662">
        <ele>613</ele>
        <time>2019-03-29T15:53:45Z</time>
      </trkpt>
      <trkpt lat="44.36219" lon="5.87655">
        <ele>613</ele>
        <time>2019-03-29T15:53:46Z</time>
      </trkpt>
      <trkpt lat="44.36219" lon="5.87649">
        <ele>613</ele>
        <time>2019-03-29T15:53:47Z</time>
      </trkpt>
      <trkpt lat="44.36218" lon="5.87643">
        <ele>614</ele>
        <time>2019-03-29T15:53:48Z</time>
      </trkpt>
      <trkpt lat="44.36217" lon="5.87637">
        <ele>614</ele>
        <time>2019-03-29T15:53:49Z</time>
      </trkpt>
      <trkpt lat="44.36216" lon="5.87631">
        <ele>614</ele>
        <time>2019-03-29T15:53:50Z</time>
      </trkpt>
      <trkpt lat="44.36215" lon="5.87625">
        <ele>614</ele>
        <time>2019-03-29T15:53:51Z</time>
      </trkpt>
      <trkpt lat="44.36214" lon="5.87619">
        <ele>615</ele>
        <time>2019-03-29T15:53:52Z</time>
      </trkpt>
      <trkpt lat="44.36212" lon="5.87613">
        <ele>615</ele>
        <time>2019-03-29T15:53:53Z</time>
      </trkpt>
      <trkpt lat="44.36211" lon="5.87607">
        <ele>615</ele>
        <time>2019-03-29T15:53:54Z</time>
      </trkpt>
      <trkpt lat="44.36209" lon="5.87601">
        <ele>615</ele>
        <time>2019-03-29T15:53:55Z</time>
      </trkpt>
      <trkpt lat="44.36208" lon="5.87595">
        <ele>616</ele>
        <time>2019-03-29T15:53:56Z</time>
      </trkpt>
      <trkpt lat="44.36206" lon="5.87589">
        <ele>616</ele>
        <time>2019-03-29T15:53:57Z</time>
      </trkpt>
      <trkpt lat="44.36205" lon="5.87584">
        <ele>616</ele>
        <time>2019-03-29T15:53:58Z</time>
      </trkpt>
      <trkpt lat="44.36203" lon="5.87578">
        <ele>617</ele>
        <time>2019-03-29T15:53:59Z</time>
      </trkpt>
      <trkpt lat="44.36202" lon="5.87572">
        <ele>617</ele>
        <time>2019-03-29T15:54:00Z</time>
      </trkpt>
      <trkpt lat="44.36201" lon="5.87567">
        <ele>617</ele>
        <time>2019-03-29T15:54:01Z</time>
      </trkpt>
      <trkpt lat="44.362" lon="5.87561">
        <ele>617</ele>
        <time>2019-03-29T15:54:02Z</time>
      </trkpt>
      <trkpt lat="44.362" lon="5.87556">
        <ele>618</ele>
        <time>2019-03-29T15:54:03Z</time>
      </trkpt>
      <trkpt lat="44.36199" lon="5.8755">
        <ele>618</ele>
        <time>2019-03-29T15:54:04Z</time>
      </trkpt>
      <trkpt lat="44.36198" lon="5.87544">
        <ele>618</ele>
        <time>2019-03-29T15:54:05Z</time>
      </trkpt>
      <trkpt lat="44.36198" lon="5.87539">
        <ele>618</ele>
        <time>2019-03-29T15:54:06Z</time>
      </trkpt>
      <trkpt lat="44.36197" lon="5.87534">
        <ele>618</ele>
        <time>2019-03-29T15:54:07Z</time>
      </trkpt>
      <trkpt lat="44.36197" lon="5.87528">
        <ele>618</ele>
        <time>2019-03-29T15:54:08Z</time>
      </trkpt>
      <trkpt lat="44.36196" lon="5.87523">
        <ele>618</ele>
        <time>2019-03-29T15:54:09Z</time>
      </trkpt>
      <trkpt lat="44.36195" lon="5.87517">
        <ele>618</ele>
        <time>2019-03-29T15:54:10Z</time>
      </trkpt>
      <trkpt lat="44.36195" lon="5.87512">
        <ele>619</ele>
        <time>2019-03-29T15:54:11Z</time>
      </trkpt>
      <trkpt lat="44.36194" lon="5.87506">
        <ele>619</ele>
        <time>2019-03-29T15:54:12Z</time>
      </trkpt>
      <trkpt lat="44.36193" lon="5.87501">
        <ele>619</ele>
        <time>2019-03-29T15:54:13Z</time>
      </trkpt>
      <trkpt lat="44.36193" lon="5.87496">
        <ele>619</ele>
        <time>2019-03-29T15:54:14Z</time>
      </trkpt>
      <trkpt lat="44.36193" lon="5.87491">
        <ele>619</ele>
        <time>2019-03-29T15:54:15Z</time>
      </trkpt>
      <trkpt lat="44.36192" lon="5.87486">
        <ele>620</ele>
        <time>2019-03-29T15:54:16Z</time>
      </trkpt>
      <trkpt lat="44.36192" lon="5.8748">
        <ele>620</ele>
        <time>2019-03-29T15:54:17Z</time>
      </trkpt>
      <trkpt lat="44.36192" lon="5.87475">
        <ele>620</ele>
        <time>2019-03-29T15:54:18Z</time>
      </trkpt>
      <trkpt lat="44.36192" lon="5.8747">
        <ele>620</ele>
        <time>2019-03-29T15:54:19Z</time>
      </trkpt>
      <trkpt lat="44.36193" lon="5.87465">
        <ele>620</ele>
        <time>2019-03-29T15:54:20Z</time>
      </trkpt>
      <trkpt lat="44.36193" lon="5.8746">
        <ele>621</ele>
        <time>2019-03-29T15:54:21Z</time>
      </trkpt>
      <trkpt lat="44.36194" lon="5.87455">
        <ele>621</ele>
        <time>2019-03-29T15:54:22Z</time>
      </trkpt>
      <trkpt lat="44.36195" lon="5.8745">
        <ele>621</ele>
        <time>2019-03-29T15:54:23Z</time>
      </trkpt>
      <trkpt lat="44.36195" lon="5.87445">
        <ele>621</ele>
        <time>2019-03-29T15:54:24Z</time>
      </trkpt>
      <trkpt lat="44.36196" lon="5.87441">
        <ele>621</ele>
        <time>2019-03-29T15:54:25Z</time>
      </trkpt>
      <trkpt lat="44.36198" lon="5.87436">
        <ele>622</ele>
        <time>2019-03-29T15:54:26Z</time>
      </trkpt>
      <trkpt lat="44.36199" lon="5.87431">
        <ele>622</ele>
        <time>2019-03-29T15:54:27Z</time>
      </trkpt>
      <trkpt lat="44.36201" lon="5.87426">
        <ele>622</ele>
        <time>2019-03-29T15:54:28Z</time>
      </trkpt>
      <trkpt lat="44.36202" lon="5.87421">
        <ele>622</ele>
        <time>2019-03-29T15:54:29Z</time>
      </trkpt>
      <trkpt lat="44.36203" lon="5.87416">
        <ele>622</ele>
        <time>2019-03-29T15:54:30Z</time>
      </trkpt>
      <trkpt lat="44.36204" lon="5.87411">
        <ele>622</ele>
        <time>2019-03-29T15:54:31Z</time>
      </trkpt>
      <trkpt lat="44.36205" lon="5.87405">
        <ele>623</ele>
        <time>2019-03-29T15:54:32Z</time>
      </trkpt>
      <trkpt lat="44.36206" lon="5.874">
        <ele>623</ele>
        <time>2019-03-29T15:54:33Z</time>
      </trkpt>
      <trkpt lat="44.36207" lon="5.87394">
        <ele>623</ele>
        <time>2019-03-29T15:54:34Z</time>
      </trkpt>
      <trkpt lat="44.36207" lon="5.87389">
        <ele>623</ele>
        <time>2019-03-29T15:54:35Z</time>
      </trkpt>
      <trkpt lat="44.36207" lon="5.87383">
        <ele>623</ele>
        <time>2019-03-29T15:54:36Z</time>
      </trkpt>
      <trkpt lat="44.36207" lon="5.87378">
        <ele>623</ele>
        <time>2019-03-29T15:54:37Z</time>
      </trkpt>
      <trkpt lat="44.36206" lon="5.87372">
        <ele>623</ele>
        <time>2019-03-29T15:54:38Z</time>
      </trkpt>
      <trkpt lat="44.36205" lon="5.87366">
        <ele>624</ele>
        <time>2019-03-29T15:54:39Z</time>
      </trkpt>
      <trkpt lat="44.36204" lon="5.87361">
        <ele>624</ele>
        <time>2019-03-29T15:54:40Z</time>
      </trkpt>
      <trkpt lat="44.36203" lon="5.87355">
        <ele>624</ele>
        <time>2019-03-29T15:54:41Z</time>
      </trkpt>
      <trkpt lat="44.36201" lon="5.8735">
        <ele>624</ele>
        <time>2019-03-29T15:54:42Z</time>
      </trkpt>
      <trkpt lat="44.36199" lon="5.87346">
        <ele>624</ele>
        <time>2019-03-29T15:54:43Z</time>
      </trkpt>
      <trkpt lat="44.36197" lon="5.87341">
        <ele>625</ele>
        <time>2019-03-29T15:54:44Z</time>
      </trkpt>
      <trkpt lat="44.36195" lon="5.87337">
        <ele>625</ele>
        <time>2019-03-29T15:54:45Z</time>
      </trkpt>
      <trkpt lat="44.36192" lon="5.87333">
        <ele>625</ele>
        <time>2019-03-29T15:54:46Z</time>
      </trkpt>
      <trkpt lat="44.36191" lon="5.87329">
        <ele>625</ele>
        <time>2019-03-29T15:54:47Z</time>
      </trkpt>
      <trkpt lat="44.36188" lon="5.87324">
        <ele>625</ele>
        <time>2019-03-29T15:54:48Z</time>
      </trkpt>
      <trkpt lat="44.36185" lon="5.87321">
        <ele>625</ele>
        <time>2019-03-29T15:54:49Z</time>
      </trkpt>
      <trkpt lat="44.36182" lon="5.87317">
        <ele>625</ele>
        <time>2019-03-29T15:54:50Z</time>
      </trkpt>
      <trkpt lat="44.3618" lon="5.87313">
        <ele>625</ele>
        <time>2019-03-29T15:54:51Z</time>
      </trkpt>
      <trkpt lat="44.36178" lon="5.87309">
        <ele>625</ele>
        <time>2019-03-29T15:54:52Z</time>
      </trkpt>
      <trkpt lat="44.36175" lon="5.87305">
        <ele>626</ele>
        <time>2019-03-29T15:54:53Z</time>
      </trkpt>
      <trkpt lat="44.36172" lon="5.87302">
        <ele>626</ele>
        <time>2019-03-29T15:54:54Z</time>
      </trkpt>
      <trkpt lat="44.3617" lon="5.87299">
        <ele>627</ele>
        <time>2019-03-29T15:54:55Z</time>
      </trkpt>
      <trkpt lat="44.36168" lon="5.87296">
        <ele>627</ele>
        <time>2019-03-29T15:54:56Z</time>
      </trkpt>
      <trkpt lat="44.36166" lon="5.87293">
        <ele>627</ele>
        <time>2019-03-29T15:54:57Z</time>
      </trkpt>
      <trkpt lat="44.36163" lon="5.8729">
        <ele>628</ele>
        <time>2019-03-29T15:54:58Z</time>
      </trkpt>
      <trkpt lat="44.3616" lon="5.87288">
        <ele>628</ele>
        <time>2019-03-29T15:54:59Z</time>
      </trkpt>
      <trkpt lat="44.36158" lon="5.87285">
        <ele>628</ele>
        <time>2019-03-29T15:55:00Z</time>
      </trkpt>
      <trkpt lat="44.36156" lon="5.87282">
        <ele>628</ele>
        <time>2019-03-29T15:55:01Z</time>
      </trkpt>
      <trkpt lat="44.36154" lon="5.87279">
        <ele>628</ele>
        <time>2019-03-29T15:55:02Z</time>
      </trkpt>
      <trkpt lat="44.36153" lon="5.87275">
        <ele>628</ele>
        <time>2019-03-29T15:55:03Z</time>
      </trkpt>
      <trkpt lat="44.36153" lon="5.87271">
        <ele>628</ele>
        <time>2019-03-29T15:55:04Z</time>
      </trkpt>
      <trkpt lat="44.36151" lon="5.87267">
        <ele>629</ele>
        <time>2019-03-29T15:55:05Z</time>
      </trkpt>
      <trkpt lat="44.3615" lon="5.87264">
        <ele>629</ele>
        <time>2019-03-29T15:55:06Z</time>
      </trkpt>
      <trkpt lat="44.36149" lon="5.8726">
        <ele>629</ele>
        <time>2019-03-29T15:55:07Z</time>
      </trkpt>
      <trkpt lat="44.36147" lon="5.87257">
        <ele>629</ele>
        <time>2019-03-29T15:55:08Z</time>
      </trkpt>
      <trkpt lat="44.36147" lon="5.87253">
        <ele>629</ele>
        <time>2019-03-29T15:55:09Z</time>
      </trkpt>
      <trkpt lat="44.36146" lon="5.87249">
        <ele>629</ele>
        <time>2019-03-29T15:55:10Z</time>
      </trkpt>
      <trkpt lat="44.36145" lon="5.87245">
        <ele>630</ele>
        <time>2019-03-29T15:55:11Z</time>
      </trkpt>
      <trkpt lat="44.36144" lon="5.87242">
        <ele>630</ele>
        <time>2019-03-29T15:55:12Z</time>
      </trkpt>
      <trkpt lat="44.36143" lon="5.87238">
        <ele>631</ele>
        <time>2019-03-29T15:55:13Z</time>
      </trkpt>
      <trkpt lat="44.36143" lon="5.87235">
        <ele>632</ele>
        <time>2019-03-29T15:55:14Z</time>
      </trkpt>
      <trkpt lat="44.36142" lon="5.87232">
        <ele>632</ele>
        <time>2019-03-29T15:55:15Z</time>
      </trkpt>
      <trkpt lat="44.36142" lon="5.87229">
        <ele>633</ele>
        <time>2019-03-29T15:55:16Z</time>
      </trkpt>
      <trkpt lat="44.36142" lon="5.87225">
        <ele>633</ele>
        <time>2019-03-29T15:55:17Z</time>
      </trkpt>
      <trkpt lat="44.36141" lon="5.87222">
        <ele>634</ele>
        <time>2019-03-29T15:55:18Z</time>
      </trkpt>
      <trkpt lat="44.3614" lon="5.87219">
        <ele>634</ele>
        <time>2019-03-29T15:55:19Z</time>
      </trkpt>
      <trkpt lat="44.3614" lon="5.87216">
        <ele>634</ele>
        <time>2019-03-29T15:55:20Z</time>
      </trkpt>
      <trkpt lat="44.36139" lon="5.87213">
        <ele>634</ele>
        <time>2019-03-29T15:55:21Z</time>
      </trkpt>
      <trkpt lat="44.36139" lon="5.87209">
        <ele>635</ele>
        <time>2019-03-29T15:55:22Z</time>
      </trkpt>
      <trkpt lat="44.36138" lon="5.87206">
        <ele>635</ele>
        <time>2019-03-29T15:55:23Z</time>
      </trkpt>
      <trkpt lat="44.36137" lon="5.87203">
        <ele>635</ele>
        <time>2019-03-29T15:55:24Z</time>
      </trkpt>
      <trkpt lat="44.36136" lon="5.87199">
        <ele>635</ele>
        <time>2019-03-29T15:55:25Z</time>
      </trkpt>
      <trkpt lat="44.36136" lon="5.87196">
        <ele>635</ele>
        <time>2019-03-29T15:55:26Z</time>
      </trkpt>
      <trkpt lat="44.36135" lon="5.87193">
        <ele>635</ele>
        <time>2019-03-29T15:55:27Z</time>
      </trkpt>
      <trkpt lat="44.36135" lon="5.87189">
        <ele>635</ele>
        <time>2019-03-29T15:55:28Z</time>
      </trkpt>
      <trkpt lat="44.36134" lon="5.87186">
        <ele>635</ele>
        <time>2019-03-29T15:55:29Z</time>
      </trkpt>
      <trkpt lat="44.36134" lon="5.87182">
        <ele>636</ele>
        <time>2019-03-29T15:55:30Z</time>
      </trkpt>
      <trkpt lat="44.36133" lon="5.87179">
        <ele>636</ele>
        <time>2019-03-29T15:55:31Z</time>
      </trkpt>
      <trkpt lat="44.36133" lon="5.87176">
        <ele>636</ele>
        <time>2019-03-29T15:55:32Z</time>
      </trkpt>
      <trkpt lat="44.36132" lon="5.87172">
        <ele>636</ele>
        <time>2019-03-29T15:55:33Z</time>
      </trkpt>
      <trkpt lat="44.36132" lon="5.87168">
        <ele>636</ele>
        <time>2019-03-29T15:55:34Z</time>
      </trkpt>
      <trkpt lat="44.36132" lon="5.87164">
        <ele>636</ele>
        <time>2019-03-29T15:55:35Z</time>
      </trkpt>
      <trkpt lat="44.36131" lon="5.87161">
        <ele>637</ele>
        <time>2019-03-29T15:55:36Z</time>
      </trkpt>
      <trkpt lat="44.36131" lon="5.87157">
        <ele>637</ele>
        <time>2019-03-29T15:55:37Z</time>
      </trkpt>
      <trkpt lat="44.36131" lon="5.87154">
        <ele>637</ele>
        <time>2019-03-29T15:55:38Z</time>
      </trkpt>
      <trkpt lat="44.3613" lon="5.8715">
        <ele>638</ele>
        <time>2019-03-29T15:55:39Z</time>
      </trkpt>
      <trkpt lat="44.36129" lon="5.87147">
        <ele>638</ele>
        <time>2019-03-29T15:55:40Z</time>
      </trkpt>
      <trkpt lat="44.36129" lon="5.87144">
        <ele>638</ele>
        <time>2019-03-29T15:55:41Z</time>
      </trkpt>
      <trkpt lat="44.36128" lon="5.8714">
        <ele>638</ele>
        <time>2019-03-29T15:55:42Z</time>
      </trkpt>
      <trkpt lat="44.36128" lon="5.87137">
        <ele>638</ele>
        <time>2019-03-29T15:55:43Z</time>
      </trkpt>
      <trkpt lat="44.36127" lon="5.87133">
        <ele>639</ele>
        <time>2019-03-29T15:55:44Z</time>
      </trkpt>
      <trkpt lat="44.36127" lon="5.8713">
        <ele>639</ele>
        <time>2019-03-29T15:55:45Z</time>
      </trkpt>
      <trkpt lat="44.36126" lon="5.87126">
        <ele>639</ele>
        <time>2019-03-29T15:55:46Z</time>
      </trkpt>
      <trkpt lat="44.36126" lon="5.87123">
        <ele>639</ele>
        <time>2019-03-29T15:55:47Z</time>
      </trkpt>
      <trkpt lat="44.36125" lon="5.87119">
        <ele>639</ele>
        <time>2019-03-29T15:55:48Z</time>
      </trkpt>
      <trkpt lat="44.36124" lon="5.87116">
        <ele>640</ele>
        <time>2019-03-29T15:55:49Z</time>
      </trkpt>
      <trkpt lat="44.36124" lon="5.87112">
        <ele>640</ele>
        <time>2019-03-29T15:55:50Z</time>
      </trkpt>
      <trkpt lat="44.36123" lon="5.87109">
        <ele>640</ele>
        <time>2019-03-29T15:55:51Z</time>
      </trkpt>
      <trkpt lat="44.36123" lon="5.87105">
        <ele>640</ele>
        <time>2019-03-29T15:55:52Z</time>
      </trkpt>
      <trkpt lat="44.36122" lon="5.87102">
        <ele>641</ele>
        <time>2019-03-29T15:55:53Z</time>
      </trkpt>
      <trkpt lat="44.36122" lon="5.87098">
        <ele>641</ele>
        <time>2019-03-29T15:55:54Z</time>
      </trkpt>
      <trkpt lat="44.36121" lon="5.87094">
        <ele>641</ele>
        <time>2019-03-29T15:55:55Z</time>
      </trkpt>
      <trkpt lat="44.36121" lon="5.87091">
        <ele>641</ele>
        <time>2019-03-29T15:55:56Z</time>
      </trkpt>
      <trkpt lat="44.3612" lon="5.87087">
        <ele>642</ele>
        <time>2019-03-29T15:55:57Z</time>
      </trkpt>
      <trkpt lat="44.3612" lon="5.87084">
        <ele>642</ele>
        <time>2019-03-29T15:55:58Z</time>
      </trkpt>
      <trkpt lat="44.36119" lon="5.8708">
        <ele>642</ele>
        <time>2019-03-29T15:55:59Z</time>
      </trkpt>
      <trkpt lat="44.36118" lon="5.87077">
        <ele>642</ele>
        <time>2019-03-29T15:56:00Z</time>
      </trkpt>
      <trkpt lat="44.36118" lon="5.87073">
        <ele>643</ele>
        <time>2019-03-29T15:56:01Z</time>
      </trkpt>
      <trkpt lat="44.36117" lon="5.8707">
        <ele>643</ele>
        <time>2019-03-29T15:56:02Z</time>
      </trkpt>
      <trkpt lat="44.36117" lon="5.87066">
        <ele>643</ele>
        <time>2019-03-29T15:56:03Z</time>
      </trkpt>
      <trkpt lat="44.36116" lon="5.87063">
        <ele>643</ele>
        <time>2019-03-29T15:56:04Z</time>
      </trkpt>
      <trkpt lat="44.36115" lon="5.87059">
        <ele>644</ele>
        <time>2019-03-29T15:56:05Z</time>
      </trkpt>
      <trkpt lat="44.36114" lon="5.87056">
        <ele>644</ele>
        <time>2019-03-29T15:56:06Z</time>
      </trkpt>
      <trkpt lat="44.36113" lon="5.87052">
        <ele>644</ele>
        <time>2019-03-29T15:56:07Z</time>
      </trkpt>
      <trkpt lat="44.36113" lon="5.87048">
        <ele>645</ele>
        <time>2019-03-29T15:56:08Z</time>
      </trkpt>
      <trkpt lat="44.36112" lon="5.87045">
        <ele>645</ele>
        <time>2019-03-29T15:56:09Z</time>
      </trkpt>
      <trkpt lat="44.36112" lon="5.87041">
        <ele>645</ele>
        <time>2019-03-29T15:56:10Z</time>
      </trkpt>
      <trkpt lat="44.36111" lon="5.87038">
        <ele>645</ele>
        <time>2019-03-29T15:56:11Z</time>
      </trkpt>
      <trkpt lat="44.3611" lon="5.87034">
        <ele>646</ele>
        <time>2019-03-29T15:56:12Z</time>
      </trkpt>
      <trkpt lat="44.36109" lon="5.87031">
        <ele>646</ele>
        <time>2019-03-29T15:56:13Z</time>
      </trkpt>
      <trkpt lat="44.36108" lon="5.87027">
        <ele>646</ele>
        <time>2019-03-29T15:56:14Z</time>
      </trkpt>
      <trkpt lat="44.36107" lon="5.87024">
        <ele>646</ele>
        <time>2019-03-29T15:56:15Z</time>
      </trkpt>
      <trkpt lat="44.36106" lon="5.8702">
        <ele>647</ele>
        <time>2019-03-29T15:56:16Z</time>
      </trkpt>
      <trkpt lat="44.36105" lon="5.87017">
        <ele>647</ele>
        <time>2019-03-29T15:56:17Z</time>
      </trkpt>
      <trkpt lat="44.36104" lon="5.87013">
        <ele>647</ele>
        <time>2019-03-29T15:56:18Z</time>
      </trkpt>
      <trkpt lat="44.36103" lon="5.87009">
        <ele>647</ele>
        <time>2019-03-29T15:56:19Z</time>
      </trkpt>
      <trkpt lat="44.36102" lon="5.87006">
        <ele>647</ele>
        <time>2019-03-29T15:56:20Z</time>
      </trkpt>
      <trkpt lat="44.36101" lon="5.87003">
        <ele>648</ele>
        <time>2019-03-29T15:56:21Z</time>
      </trkpt>
      <trkpt lat="44.36099" lon="5.86999">
        <ele>648</ele>
        <time>2019-03-29T15:56:22Z</time>
      </trkpt>
      <trkpt lat="44.36098" lon="5.86996">
        <ele>648</ele>
        <time>2019-03-29T15:56:23Z</time>
      </trkpt>
      <trkpt lat="44.36097" lon="5.86992">
        <ele>648</ele>
        <time>2019-03-29T15:56:24Z</time>
      </trkpt>
      <trkpt lat="44.36095" lon="5.86989">
        <ele>649</ele>
        <time>2019-03-29T15:56:25Z</time>
      </trkpt>
      <trkpt lat="44.36094" lon="5.86985">
        <ele>649</ele>
        <time>2019-03-29T15:56:26Z</time>
      </trkpt>
      <trkpt lat="44.36093" lon="5.86982">
        <ele>649</ele>
        <time>2019-03-29T15:56:27Z</time>
      </trkpt>
      <trkpt lat="44.36092" lon="5.86979">
        <ele>649</ele>
        <time>2019-03-29T15:56:28Z</time>
      </trkpt>
      <trkpt lat="44.3609" lon="5.86976">
        <ele>650</ele>
        <time>2019-03-29T15:56:29Z</time>
      </trkpt>
      <trkpt lat="44.36089" lon="5.86973">
        <ele>650</ele>
        <time>2019-03-29T15:56:30Z</time>
      </trkpt>
      <trkpt lat="44.36087" lon="5.8697">
        <ele>650</ele>
        <time>2019-03-29T15:56:31Z</time>
      </trkpt>
      <trkpt lat="44.36086" lon="5.86967">
        <ele>650</ele>
        <time>2019-03-29T15:56:32Z</time>
      </trkpt>
      <trkpt lat="44.36084" lon="5.86964">
        <ele>650</ele>
        <time>2019-03-29T15:56:33Z</time>
      </trkpt>
      <trkpt lat="44.36083" lon="5.8696">
        <ele>650</ele>
        <time>2019-03-29T15:56:34Z</time>
      </trkpt>
      <trkpt lat="44.36081" lon="5.86957">
        <ele>650</ele>
        <time>2019-03-29T15:56:35Z</time>
      </trkpt>
      <trkpt lat="44.3608" lon="5.86954">
        <ele>650</ele>
        <time>2019-03-29T15:56:36Z</time>
      </trkpt>
      <trkpt lat="44.36078" lon="5.86951">
        <ele>650</ele>
        <time>2019-03-29T15:56:37Z</time>
      </trkpt>
      <trkpt lat="44.36077" lon="5.86948">
        <ele>650</ele>
        <time>2019-03-29T15:56:38Z</time>
      </trkpt>
      <trkpt lat="44.36075" lon="5.86944">
        <ele>650</ele>
        <time>2019-03-29T15:56:39Z</time>
      </trkpt>
      <trkpt lat="44.36074" lon="5.86941">
        <ele>650</ele>
        <time>2019-03-29T15:56:40Z</time>
      </trkpt>
      <trkpt lat="44.36072" lon="5.86938">
        <ele>650</ele>
        <time>2019-03-29T15:56:41Z</time>
      </trkpt>
      <trkpt lat="44.36071" lon="5.86934">
        <ele>650</ele>
        <time>2019-03-29T15:56:42Z</time>
      </trkpt>
      <trkpt lat="44.36069" lon="5.86931">
        <ele>650</ele>
        <time>2019-03-29T15:56:43Z</time>
      </trkpt>
      <trkpt lat="44.36068" lon="5.86927">
        <ele>650</ele>
        <time>2019-03-29T15:56:44Z</time>
      </trkpt>
      <trkpt lat="44.36066" lon="5.86924">
        <ele>650</ele>
        <time>2019-03-29T15:56:45Z</time>
      </trkpt>
      <trkpt lat="44.36064" lon="5.8692">
        <ele>650</ele>
        <time>2019-03-29T15:56:46Z</time>
      </trkpt>
      <trkpt lat="44.36063" lon="5.86917">
        <ele>650</ele>
        <time>2019-03-29T15:56:47Z</time>
      </trkpt>
      <trkpt lat="44.36061" lon="5.86914">
        <ele>650</ele>
        <time>2019-03-29T15:56:48Z</time>
      </trkpt>
      <trkpt lat="44.36059" lon="5.8691">
        <ele>650</ele>
        <time>2019-03-29T15:56:49Z</time>
      </trkpt>
      <trkpt lat="44.36057" lon="5.86907">
        <ele>650</ele>
        <time>2019-03-29T15:56:50Z</time>
      </trkpt>
      <trkpt lat="44.36055" lon="5.86903">
        <ele>650</ele>
        <time>2019-03-29T15:56:51Z</time>
      </trkpt>
      <trkpt lat="44.36054" lon="5.869">
        <ele>651</ele>
        <time>2019-03-29T15:56:52Z</time>
      </trkpt>
      <trkpt lat="44.36052" lon="5.86896">
        <ele>651</ele>
        <time>2019-03-29T15:56:53Z</time>
      </trkpt>
      <trkpt lat="44.3605" lon="5.86893">
        <ele>651</ele>
        <time>2019-03-29T15:56:54Z</time>
      </trkpt>
      <trkpt lat="44.36049" lon="5.86889">
        <ele>651</ele>
        <time>2019-03-29T15:56:55Z</time>
      </trkpt>
      <trkpt lat="44.36047" lon="5.86885">
        <ele>651</ele>
        <time>2019-03-29T15:56:56Z</time>
      </trkpt>
      <trkpt lat="44.36045" lon="5.86881">
        <ele>651</ele>
        <time>2019-03-29T15:56:57Z</time>
      </trkpt>
      <trkpt lat="44.36043" lon="5.86878">
        <ele>652</ele>
        <time>2019-03-29T15:56:58Z</time>
      </trkpt>
      <trkpt lat="44.36042" lon="5.86874">
        <ele>652</ele>
        <time>2019-03-29T15:56:59Z</time>
      </trkpt>
      <trkpt lat="44.3604" lon="5.8687">
        <ele>652</ele>
        <time>2019-03-29T15:57:00Z</time>
      </trkpt>
      <trkpt lat="44.36038" lon="5.86867">
        <ele>652</ele>
        <time>2019-03-29T15:57:01Z</time>
      </trkpt>
      <trkpt lat="44.36036" lon="5.86863">
        <ele>652</ele>
        <time>2019-03-29T15:57:02Z</time>
      </trkpt>
      <trkpt lat="44.36034" lon="5.86859">
        <ele>652</ele>
        <time>2019-03-29T15:57:03Z</time>
      </trkpt>
      <trkpt lat="44.36033" lon="5.86856">
        <ele>653</ele>
        <time>2019-03-29T15:57:04Z</time>
      </trkpt>
      <trkpt lat="44.36031" lon="5.86852">
        <ele>653</ele>
        <time>2019-03-29T15:57:05Z</time>
      </trkpt>
      <trkpt lat="44.36029" lon="5.86848">
        <ele>653</ele>
        <time>2019-03-29T15:57:06Z</time>
      </trkpt>
      <trkpt lat="44.36027" lon="5.86844">
        <ele>653</ele>
        <time>2019-03-29T15:57:07Z</time>
      </trkpt>
      <trkpt lat="44.36026" lon="5.86841">
        <ele>653</ele>
        <time>2019-03-29T15:57:08Z</time>
      </trkpt>
      <trkpt lat="44.36024" lon="5.86837">
        <ele>653</ele>
        <time>2019-03-29T15:57:09Z</time>
      </trkpt>
      <trkpt lat="44.36022" lon="5.86833">
        <ele>654</ele>
        <time>2019-03-29T15:57:10Z</time>
      </trkpt>
      <trkpt lat="44.36021" lon="5.86829">
        <ele>654</ele>
        <time>2019-03-29T15:57:11Z</time>
      </trkpt>
      <trkpt lat="44.36018" lon="5.86825">
        <ele>654</ele>
        <time>2019-03-29T15:57:12Z</time>
      </trkpt>
      <trkpt lat="44.36017" lon="5.86821">
        <ele>654</ele>
        <time>2019-03-29T15:57:13Z</time>
      </trkpt>
      <trkpt lat="44.36015" lon="5.86818">
        <ele>654</ele>
        <time>2019-03-29T15:57:14Z</time>
      </trkpt>
      <trkpt lat="44.36013" lon="5.86813">
        <ele>654</ele>
        <time>2019-03-29T15:57:15Z</time>
      </trkpt>
      <trkpt lat="44.36011" lon="5.86809">
        <ele>655</ele>
        <time>2019-03-29T15:57:16Z</time>
      </trkpt>
      <trkpt lat="44.36009" lon="5.86805">
        <ele>655</ele>
        <time>2019-03-29T15:57:17Z</time>
      </trkpt>
      <trkpt lat="44.36007" lon="5.86801">
        <ele>655</ele>
        <time>2019-03-29T15:57:18Z</time>
      </trkpt>
      <trkpt lat="44.36005" lon="5.86797">
        <ele>655</ele>
        <time>2019-03-29T15:57:19Z</time>
      </trkpt>
      <trkpt lat="44.36003" lon="5.86793">
        <ele>655</ele>
        <time>2019-03-29T15:57:20Z</time>
      </trkpt>
      <trkpt lat="44.36001" lon="5.86789">
        <ele>655</ele>
        <time>2019-03-29T15:57:21Z</time>
      </trkpt>
      <trkpt lat="44.35999" lon="5.86785">
        <ele>655</ele>
        <time>2019-03-29T15:57:22Z</time>
      </trkpt>
      <trkpt lat="44.35997" lon="5.86781">
        <ele>656</ele>
        <time>2019-03-29T15:57:23Z</time>
      </trkpt>
      <trkpt lat="44.35995" lon="5.86777">
        <ele>656</ele>
        <time>2019-03-29T15:57:24Z</time>
      </trkpt>
      <trkpt lat="44.35994" lon="5.86773">
        <ele>656</ele>
        <time>2019-03-29T15:57:25Z</time>
      </trkpt>
      <trkpt lat="44.35992" lon="5.86768">
        <ele>656</ele>
        <time>2019-03-29T15:57:26Z</time>
      </trkpt>
      <trkpt lat="44.35989" lon="5.86764">
        <ele>656</ele>
        <time>2019-03-29T15:57:27Z</time>
      </trkpt>
      <trkpt lat="44.35987" lon="5.86761">
        <ele>656</ele>
        <time>2019-03-29T15:57:28Z</time>
      </trkpt>
      <trkpt lat="44.35985" lon="5.86756">
        <ele>656</ele>
        <time>2019-03-29T15:57:29Z</time>
      </trkpt>
      <trkpt lat="44.35983" lon="5.86752">
        <ele>657</ele>
        <time>2019-03-29T15:57:30Z</time>
      </trkpt>
      <trkpt lat="44.35981" lon="5.86748">
        <ele>657</ele>
        <time>2019-03-29T15:57:31Z</time>
      </trkpt>
      <trkpt lat="44.35979" lon="5.86743">
        <ele>657</ele>
        <time>2019-03-29T15:57:32Z</time>
      </trkpt>
      <trkpt lat="44.35977" lon="5.86738">
        <ele>657</ele>
        <time>2019-03-29T15:57:33Z</time>
      </trkpt>
      <trkpt lat="44.35975" lon="5.86733">
        <ele>657</ele>
        <time>2019-03-29T15:57:34Z</time>
      </trkpt>
      <trkpt lat="44.35973" lon="5.86729">
        <ele>657</ele>
        <time>2019-03-29T15:57:35Z</time>
      </trkpt>
      <trkpt lat="44.3597" lon="5.86724">
        <ele>657</ele>
        <time>2019-03-29T15:57:36Z</time>
      </trkpt>
      <trkpt lat="44.35968" lon="5.8672">
        <ele>657</ele>
        <time>2019-03-29T15:57:37Z</time>
      </trkpt>
      <trkpt lat="44.35966" lon="5.86715">
        <ele>658</ele>
        <time>2019-03-29T15:57:38Z</time>
      </trkpt>
      <trkpt lat="44.35964" lon="5.8671">
        <ele>658</ele>
        <time>2019-03-29T15:57:39Z</time>
      </trkpt>
      <trkpt lat="44.35962" lon="5.86705">
        <ele>658</ele>
        <time>2019-03-29T15:57:40Z</time>
      </trkpt>
      <trkpt lat="44.3596" lon="5.867">
        <ele>658</ele>
        <time>2019-03-29T15:57:41Z</time>
      </trkpt>
      <trkpt lat="44.35958" lon="5.86695">
        <ele>658</ele>
        <time>2019-03-29T15:57:42Z</time>
      </trkpt>
      <trkpt lat="44.35956" lon="5.8669">
        <ele>658</ele>
        <time>2019-03-29T15:57:43Z</time>
      </trkpt>
      <trkpt lat="44.35954" lon="5.86685">
        <ele>658</ele>
        <time>2019-03-29T15:57:44Z</time>
      </trkpt>
      <trkpt lat="44.35952" lon="5.86679">
        <ele>658</ele>
        <time>2019-03-29T15:57:45Z</time>
      </trkpt>
      <trkpt lat="44.35951" lon="5.86673">
        <ele>658</ele>
        <time>2019-03-29T15:57:46Z</time>
      </trkpt>
      <trkpt lat="44.35949" lon="5.86668">
        <ele>659</ele>
        <time>2019-03-29T15:57:47Z</time>
      </trkpt>
      <trkpt lat="44.35948" lon="5.86662">
        <ele>659</ele>
        <time>2019-03-29T15:57:48Z</time>
      </trkpt>
      <trkpt lat="44.35946" lon="5.86656">
        <ele>659</ele>
        <time>2019-03-29T15:57:49Z</time>
      </trkpt>
      <trkpt lat="44.35945" lon="5.8665">
        <ele>659</ele>
        <time>2019-03-29T15:57:50Z</time>
      </trkpt>
      <trkpt lat="44.35944" lon="5.86644">
        <ele>659</ele>
        <time>2019-03-29T15:57:51Z</time>
      </trkpt>
      <trkpt lat="44.35942" lon="5.86637">
        <ele>659</ele>
        <time>2019-03-29T15:57:52Z</time>
      </trkpt>
      <trkpt lat="44.35941" lon="5.8663">
        <ele>659</ele>
        <time>2019-03-29T15:57:53Z</time>
      </trkpt>
      <trkpt lat="44.35939" lon="5.86624">
        <ele>659</ele>
        <time>2019-03-29T15:57:54Z</time>
      </trkpt>
      <trkpt lat="44.35938" lon="5.86617">
        <ele>659</ele>
        <time>2019-03-29T15:57:55Z</time>
      </trkpt>
      <trkpt lat="44.35936" lon="5.86611">
        <ele>659</ele>
        <time>2019-03-29T15:57:56Z</time>
      </trkpt>
      <trkpt lat="44.35935" lon="5.86604">
        <ele>659</ele>
        <time>2019-03-29T15:57:57Z</time>
      </trkpt>
      <trkpt lat="44.35934" lon="5.86597">
        <ele>659</ele>
        <time>2019-03-29T15:57:58Z</time>
      </trkpt>
      <trkpt lat="44.35932" lon="5.8659">
        <ele>659</ele>
        <time>2019-03-29T15:57:59Z</time>
      </trkpt>
      <trkpt lat="44.35931" lon="5.86583">
        <ele>659</ele>
        <time>2019-03-29T15:58:00Z</time>
      </trkpt>
      <trkpt lat="44.35929" lon="5.86576">
        <ele>659</ele>
        <time>2019-03-29T15:58:01Z</time>
      </trkpt>
      <trkpt lat="44.35928" lon="5.86569">
        <ele>659</ele>
        <time>2019-03-29T15:58:02Z</time>
      </trkpt>
      <trkpt lat="44.35926" lon="5.86562">
        <ele>660</ele>
        <time>2019-03-29T15:58:03Z</time>
      </trkpt>
      <trkpt lat="44.35925" lon="5.86554">
        <ele>660</ele>
        <time>2019-03-29T15:58:04Z</time>
      </trkpt>
      <trkpt lat="44.35923" lon="5.86547">
        <ele>660</ele>
        <time>2019-03-29T15:58:05Z</time>
      </trkpt>
      <trkpt lat="44.35921" lon="5.8654">
        <ele>660</ele>
        <time>2019-03-29T15:58:06Z</time>
      </trkpt>
      <trkpt lat="44.3592" lon="5.86532">
        <ele>660</ele>
        <time>2019-03-29T15:58:07Z</time>
      </trkpt>
      <trkpt lat="44.35918" lon="5.86524">
        <ele>660</ele>
        <time>2019-03-29T15:58:08Z</time>
      </trkpt>
      <trkpt lat="44.35917" lon="5.86517">
        <ele>660</ele>
        <time>2019-03-29T15:58:09Z</time>
      </trkpt>
      <trkpt lat="44.35915" lon="5.86509">
        <ele>660</ele>
        <time>2019-03-29T15:58:10Z</time>
      </trkpt>
      <trkpt lat="44.35913" lon="5.86502">
        <ele>660</ele>
        <time>2019-03-29T15:58:11Z</time>
      </trkpt>
      <trkpt lat="44.35911" lon="5.86494">
        <ele>661</ele>
        <time>2019-03-29T15:58:12Z</time>
      </trkpt>
      <trkpt lat="44.3591" lon="5.86486">
        <ele>661</ele>
        <time>2019-03-29T15:58:13Z</time>
      </trkpt>
      <trkpt lat="44.35908" lon="5.86479">
        <ele>661</ele>
        <time>2019-03-29T15:58:14Z</time>
      </trkpt>
      <trkpt lat="44.35907" lon="5.86471">
        <ele>661</ele>
        <time>2019-03-29T15:58:15Z</time>
      </trkpt>
      <trkpt lat="44.35905" lon="5.86464">
        <ele>661</ele>
        <time>2019-03-29T15:58:16Z</time>
      </trkpt>
      <trkpt lat="44.35904" lon="5.86456">
        <ele>661</ele>
        <time>2019-03-29T15:58:17Z</time>
      </trkpt>
      <trkpt lat="44.35902" lon="5.86449">
        <ele>661</ele>
        <time>2019-03-29T15:58:18Z</time>
      </trkpt>
      <trkpt lat="44.359" lon="5.86441">
        <ele>661</ele>
        <time>2019-03-29T15:58:19Z</time>
      </trkpt>
      <trkpt lat="44.35899" lon="5.86434">
        <ele>661</ele>
        <time>2019-03-29T15:58:20Z</time>
      </trkpt>
      <trkpt lat="44.35897" lon="5.86426">
        <ele>661</ele>
        <time>2019-03-29T15:58:21Z</time>
      </trkpt>
      <trkpt lat="44.35895" lon="5.86418">
        <ele>662</ele>
        <time>2019-03-29T15:58:22Z</time>
      </trkpt>
      <trkpt lat="44.35894" lon="5.86411">
        <ele>662</ele>
        <time>2019-03-29T15:58:23Z</time>
      </trkpt>
      <trkpt lat="44.35892" lon="5.86403">
        <ele>662</ele>
        <time>2019-03-29T15:58:24Z</time>
      </trkpt>
      <trkpt lat="44.3589" lon="5.86396">
        <ele>662</ele>
        <time>2019-03-29T15:58:25Z</time>
      </trkpt>
      <trkpt lat="44.35888" lon="5.86388">
        <ele>662</ele>
        <time>2019-03-29T15:58:26Z</time>
      </trkpt>
      <trkpt lat="44.35887" lon="5.8638">
        <ele>662</ele>
        <time>2019-03-29T15:58:27Z</time>
      </trkpt>
      <trkpt lat="44.35885" lon="5.86373">
        <ele>662</ele>
        <time>2019-03-29T15:58:28Z</time>
      </trkpt>
      <trkpt lat="44.35883" lon="5.86365">
        <ele>662</ele>
        <time>2019-03-29T15:58:29Z</time>
      </trkpt>
      <trkpt lat="44.35882" lon="5.86357">
        <ele>662</ele>
        <time>2019-03-29T15:58:30Z</time>
      </trkpt>
      <trkpt lat="44.3588" lon="5.8635">
        <ele>662</ele>
        <time>2019-03-29T15:58:31Z</time>
      </trkpt>
      <trkpt lat="44.35878" lon="5.86342">
        <ele>662</ele>
        <time>2019-03-29T15:58:32Z</time>
      </trkpt>
      <trkpt lat="44.35875" lon="5.86335">
        <ele>662</ele>
        <time>2019-03-29T15:58:33Z</time>
      </trkpt>
      <trkpt lat="44.35873" lon="5.86327">
        <ele>662</ele>
        <time>2019-03-29T15:58:34Z</time>
      </trkpt>
      <trkpt lat="44.3587" lon="5.8632">
        <ele>662</ele>
        <time>2019-03-29T15:58:35Z</time>
      </trkpt>
      <trkpt lat="44.35867" lon="5.86313">
        <ele>662</ele>
        <time>2019-03-29T15:58:36Z</time>
      </trkpt>
      <trkpt lat="44.35865" lon="5.86306">
        <ele>662</ele>
        <time>2019-03-29T15:58:37Z</time>
      </trkpt>
      <trkpt lat="44.35861" lon="5.86298">
        <ele>662</ele>
        <time>2019-03-29T15:58:38Z</time>
      </trkpt>
      <trkpt lat="44.35858" lon="5.86291">
        <ele>662</ele>
        <time>2019-03-29T15:58:39Z</time>
      </trkpt>
      <trkpt lat="44.35854" lon="5.86284">
        <ele>662</ele>
        <time>2019-03-29T15:58:40Z</time>
      </trkpt>
      <trkpt lat="44.35851" lon="5.86278">
        <ele>662</ele>
        <time>2019-03-29T15:58:41Z</time>
      </trkpt>
      <trkpt lat="44.35849" lon="5.86272">
        <ele>662</ele>
        <time>2019-03-29T15:58:42Z</time>
      </trkpt>
      <trkpt lat="44.35846" lon="5.86267">
        <ele>662</ele>
        <time>2019-03-29T15:58:43Z</time>
      </trkpt>
      <trkpt lat="44.35844" lon="5.86263">
        <ele>662</ele>
        <time>2019-03-29T15:58:44Z</time>
      </trkpt>
      <trkpt lat="44.35843" lon="5.86261">
        <ele>662</ele>
        <time>2019-03-29T15:58:45Z</time>
      </trkpt>
      <trkpt lat="44.35842" lon="5.86261">
        <ele>662</ele>
        <time>2019-03-29T15:58:58Z</time>
      </trkpt>
      <trkpt lat="44.35841" lon="5.86262">
        <ele>662</ele>
        <time>2019-03-29T15:59:10Z</time>
      </trkpt>
      <trkpt lat="44.35842" lon="5.86262">
        <ele>662</ele>
        <time>2019-03-29T15:59:28Z</time>
      </trkpt>
      <trkpt lat="44.35844" lon="5.86263">
        <ele>662</ele>
        <time>2019-03-29T16:00:00Z</time>
      </trkpt>
      <trkpt lat="44.35842" lon="5.86263">
        <ele>662</ele>
        <time>2019-03-29T16:01:41Z</time>
      </trkpt>
      <trkpt lat="44.35842" lon="5.86265">
        <ele>662</ele>
        <time>2019-03-29T16:02:43Z</time>
      </trkpt>
      <trkpt lat="44.35841" lon="5.86265">
        <ele>662</ele>
        <time>2019-03-29T16:03:05Z</time>
      </trkpt>
      <trkpt lat="44.35842" lon="5.86263">
        <ele>662</ele>
        <time>2019-03-29T16:03:21Z</time>
      </trkpt>
      <trkpt lat="44.35843" lon="5.86263">
        <ele>662</ele>
        <time>2019-03-29T16:03:28Z</time>
      </trkpt>
      <trkpt lat="44.35844" lon="5.86263">
        <ele>662</ele>
        <time>2019-03-29T16:03:32Z</time>
      </trkpt>
      <trkpt lat="44.35845" lon="5.86261">
        <ele>662</ele>
        <time>2019-03-29T16:04:28Z</time>
      </trkpt>
      <trkpt lat="44.35845" lon="5.8626">
        <ele>663</ele>
        <time>2019-03-29T16:04:49Z</time>
      </trkpt>
      <trkpt lat="44.35844" lon="5.86261">
        <ele>663</ele>
        <time>2019-03-29T16:05:32Z</time>
      </trkpt>
      <trkpt lat="44.35842" lon="5.86259">
        <ele>663</ele>
        <time>2019-03-29T16:06:33Z</time>
      </trkpt>
      <trkpt lat="44.3584" lon="5.86257">
        <ele>663</ele>
        <time>2019-03-29T16:06:35Z</time>
      </trkpt>
      <trkpt lat="44.3584" lon="5.86255">
        <ele>663</ele>
        <time>2019-03-29T16:06:36Z</time>
      </trkpt>
      <trkpt lat="44.35839" lon="5.86253">
        <ele>663</ele>
        <time>2019-03-29T16:06:37Z</time>
      </trkpt>
      <trkpt lat="44.35838" lon="5.86251">
        <ele>663</ele>
        <time>2019-03-29T16:06:38Z</time>
      </trkpt>
      <trkpt lat="44.35837" lon="5.86248">
        <ele>663</ele>
        <time>2019-03-29T16:06:39Z</time>
      </trkpt>
      <trkpt lat="44.35836" lon="5.86245">
        <ele>663</ele>
        <time>2019-03-29T16:06:40Z</time>
      </trkpt>
      <trkpt lat="44.35834" lon="5.86241">
        <ele>663</ele>
        <time>2019-03-29T16:06:41Z</time>
      </trkpt>
      <trkpt lat="44.35833" lon="5.86237">
        <ele>663</ele>
        <time>2019-03-29T16:06:42Z</time>
      </trkpt>
      <trkpt lat="44.35831" lon="5.86233">
        <ele>663</ele>
        <time>2019-03-29T16:06:43Z</time>
      </trkpt>
      <trkpt lat="44.35829" lon="5.86228">
        <ele>663</ele>
        <time>2019-03-29T16:06:44Z</time>
      </trkpt>
      <trkpt lat="44.35828" lon="5.86223">
        <ele>663</ele>
        <time>2019-03-29T16:06:45Z</time>
      </trkpt>
      <trkpt lat="44.35826" lon="5.86218">
        <ele>663</ele>
        <time>2019-03-29T16:06:46Z</time>
      </trkpt>
      <trkpt lat="44.35824" lon="5.86212">
        <ele>663</ele>
        <time>2019-03-29T16:06:47Z</time>
      </trkpt>
      <trkpt lat="44.35822" lon="5.86207">
        <ele>663</ele>
        <time>2019-03-29T16:06:48Z</time>
      </trkpt>
      <trkpt lat="44.3582" lon="5.86201">
        <ele>663</ele>
        <time>2019-03-29T16:06:49Z</time>
      </trkpt>
      <trkpt lat="44.35819" lon="5.86194">
        <ele>663</ele>
        <time>2019-03-29T16:06:50Z</time>
      </trkpt>
      <trkpt lat="44.35817" lon="5.86188">
        <ele>663</ele>
        <time>2019-03-29T16:06:51Z</time>
      </trkpt>
      <trkpt lat="44.35815" lon="5.86181">
        <ele>663</ele>
        <time>2019-03-29T16:06:52Z</time>
      </trkpt>
      <trkpt lat="44.35814" lon="5.86174">
        <ele>663</ele>
        <time>2019-03-29T16:06:53Z</time>
      </trkpt>
      <trkpt lat="44.35812" lon="5.86167">
        <ele>663</ele>
        <time>2019-03-29T16:06:54Z</time>
      </trkpt>
      <trkpt lat="44.35811" lon="5.8616">
        <ele>663</ele>
        <time>2019-03-29T16:06:55Z</time>
      </trkpt>
      <trkpt lat="44.35809" lon="5.86153">
        <ele>663</ele>
        <time>2019-03-29T16:06:56Z</time>
      </trkpt>
      <trkpt lat="44.35808" lon="5.86145">
        <ele>663</ele>
        <time>2019-03-29T16:06:57Z</time>
      </trkpt>
      <trkpt lat="44.35807" lon="5.86138">
        <ele>663</ele>
        <time>2019-03-29T16:06:58Z</time>
      </trkpt>
      <trkpt lat="44.35805" lon="5.8613">
        <ele>663</ele>
        <time>2019-03-29T16:06:59Z</time>
      </trkpt>
      <trkpt lat="44.35804" lon="5.86123">
        <ele>663</ele>
        <time>2019-03-29T16:07:00Z</time>
      </trkpt>
      <trkpt lat="44.35802" lon="5.86115">
        <ele>663</ele>
        <time>2019-03-29T16:07:01Z</time>
      </trkpt>
      <trkpt lat="44.35801" lon="5.86107">
        <ele>663</ele>
        <time>2019-03-29T16:07:02Z</time>
      </trkpt>
      <trkpt lat="44.35799" lon="5.86099">
        <ele>663</ele>
        <time>2019-03-29T16:07:03Z</time>
      </trkpt>
      <trkpt lat="44.35797" lon="5.86091">
        <ele>663</ele>
        <time>2019-03-29T16:07:04Z</time>
      </trkpt>
      <trkpt lat="44.35796" lon="5.86083">
        <ele>663</ele>
        <time>2019-03-29T16:07:05Z</time>
      </trkpt>
      <trkpt lat="44.35794" lon="5.86074">
        <ele>663</ele>
        <time>2019-03-29T16:07:06Z</time>
      </trkpt>
      <trkpt lat="44.35792" lon="5.86066">
        <ele>663</ele>
        <time>2019-03-29T16:07:07Z</time>
      </trkpt>
      <trkpt lat="44.3579" lon="5.86058">
        <ele>663</ele>
        <time>2019-03-29T16:07:08Z</time>
      </trkpt>
      <trkpt lat="44.35788" lon="5.8605">
        <ele>663</ele>
        <time>2019-03-29T16:07:09Z</time>
      </trkpt>
      <trkpt lat="44.35786" lon="5.86042">
        <ele>663</ele>
        <time>2019-03-29T16:07:10Z</time>
      </trkpt>
      <trkpt lat="44.35783" lon="5.86035">
        <ele>663</ele>
        <time>2019-03-29T16:07:11Z</time>
      </trkpt>
      <trkpt lat="44.35779" lon="5.86027">
        <ele>663</ele>
        <time>2019-03-29T16:07:12Z</time>
      </trkpt>
      <trkpt lat="44.35775" lon="5.8602">
        <ele>663</ele>
        <time>2019-03-29T16:07:13Z</time>
      </trkpt>
      <trkpt lat="44.35772" lon="5.86013">
        <ele>663</ele>
        <time>2019-03-29T16:07:14Z</time>
      </trkpt>
      <trkpt lat="44.35768" lon="5.86005">
        <ele>663</ele>
        <time>2019-03-29T16:07:15Z</time>
      </trkpt>
      <trkpt lat="44.35764" lon="5.85997">
        <ele>663</ele>
        <time>2019-03-29T16:07:16Z</time>
      </trkpt>
      <trkpt lat="44.3576" lon="5.8599">
        <ele>663</ele>
        <time>2019-03-29T16:07:17Z</time>
      </trkpt>
      <trkpt lat="44.35756" lon="5.85982">
        <ele>663</ele>
        <time>2019-03-29T16:07:18Z</time>
      </trkpt>
      <trkpt lat="44.35751" lon="5.85975">
        <ele>663</ele>
        <time>2019-03-29T16:07:19Z</time>
      </trkpt>
      <trkpt lat="44.35746" lon="5.85968">
        <ele>662</ele>
        <time>2019-03-29T16:07:20Z</time>
      </trkpt>
      <trkpt lat="44.35742" lon="5.8596">
        <ele>662</ele>
        <time>2019-03-29T16:07:21Z</time>
      </trkpt>
      <trkpt lat="44.35737" lon="5.85953">
        <ele>662</ele>
        <time>2019-03-29T16:07:22Z</time>
      </trkpt>
      <trkpt lat="44.35733" lon="5.85945">
        <ele>662</ele>
        <time>2019-03-29T16:07:23Z</time>
      </trkpt>
      <trkpt lat="44.35728" lon="5.85938">
        <ele>661</ele>
        <time>2019-03-29T16:07:24Z</time>
      </trkpt>
      <trkpt lat="44.35723" lon="5.8593">
        <ele>661</ele>
        <time>2019-03-29T16:07:25Z</time>
      </trkpt>
      <trkpt lat="44.35718" lon="5.85922">
        <ele>661</ele>
        <time>2019-03-29T16:07:26Z</time>
      </trkpt>
      <trkpt lat="44.35713" lon="5.85914">
        <ele>661</ele>
        <time>2019-03-29T16:07:27Z</time>
      </trkpt>
      <trkpt lat="44.35708" lon="5.85906">
        <ele>661</ele>
        <time>2019-03-29T16:07:28Z</time>
      </trkpt>
      <trkpt lat="44.35703" lon="5.85898">
        <ele>660</ele>
        <time>2019-03-29T16:07:29Z</time>
      </trkpt>
      <trkpt lat="44.35698" lon="5.8589">
        <ele>660</ele>
        <time>2019-03-29T16:07:30Z</time>
      </trkpt>
      <trkpt lat="44.35693" lon="5.85882">
        <ele>660</ele>
        <time>2019-03-29T16:07:31Z</time>
      </trkpt>
      <trkpt lat="44.35688" lon="5.85874">
        <ele>660</ele>
        <time>2019-03-29T16:07:32Z</time>
      </trkpt>
      <trkpt lat="44.35683" lon="5.85866">
        <ele>659</ele>
        <time>2019-03-29T16:07:33Z</time>
      </trkpt>
      <trkpt lat="44.35678" lon="5.85858">
        <ele>659</ele>
        <time>2019-03-29T16:07:34Z</time>
      </trkpt>
      <trkpt lat="44.35673" lon="5.8585">
        <ele>659</ele>
        <time>2019-03-29T16:07:35Z</time>
      </trkpt>
      <trkpt lat="44.35667" lon="5.85841">
        <ele>659</ele>
        <time>2019-03-29T16:07:36Z</time>
      </trkpt>
      <trkpt lat="44.35662" lon="5.85833">
        <ele>659</ele>
        <time>2019-03-29T16:07:37Z</time>
      </trkpt>
      <trkpt lat="44.35657" lon="5.85824">
        <ele>658</ele>
        <time>2019-03-29T16:07:38Z</time>
      </trkpt>
      <trkpt lat="44.35651" lon="5.85816">
        <ele>658</ele>
        <time>2019-03-29T16:07:39Z</time>
      </trkpt>
      <trkpt lat="44.35646" lon="5.85807">
        <ele>658</ele>
        <time>2019-03-29T16:07:40Z</time>
      </trkpt>
      <trkpt lat="44.35641" lon="5.85799">
        <ele>658</ele>
        <time>2019-03-29T16:07:41Z</time>
      </trkpt>
      <trkpt lat="44.35635" lon="5.85791">
        <ele>658</ele>
        <time>2019-03-29T16:07:42Z</time>
      </trkpt>
      <trkpt lat="44.3563" lon="5.85783">
        <ele>658</ele>
        <time>2019-03-29T16:07:43Z</time>
      </trkpt>
      <trkpt lat="44.35624" lon="5.85775">
        <ele>657</ele>
        <time>2019-03-29T16:07:44Z</time>
      </trkpt>
      <trkpt lat="44.35619" lon="5.85768">
        <ele>657</ele>
        <time>2019-03-29T16:07:45Z</time>
      </trkpt>
      <trkpt lat="44.35613" lon="5.8576">
        <ele>657</ele>
        <time>2019-03-29T16:07:46Z</time>
      </trkpt>
      <trkpt lat="44.35607" lon="5.85752">
        <ele>657</ele>
        <time>2019-03-29T16:07:47Z</time>
      </trkpt>
      <trkpt lat="44.35601" lon="5.85745">
        <ele>656</ele>
        <time>2019-03-29T16:07:48Z</time>
      </trkpt>
      <trkpt lat="44.35595" lon="5.85738">
        <ele>656</ele>
        <time>2019-03-29T16:07:49Z</time>
      </trkpt>
      <trkpt lat="44.35589" lon="5.85731">
        <ele>656</ele>
        <time>2019-03-29T16:07:50Z</time>
      </trkpt>
      <trkpt lat="44.35582" lon="5.85723">
        <ele>656</ele>
        <time>2019-03-29T16:07:51Z</time>
      </trkpt>
      <trkpt lat="44.35576" lon="5.85716">
        <ele>655</ele>
        <time>2019-03-29T16:07:52Z</time>
      </trkpt>
      <trkpt lat="44.35569" lon="5.85709">
        <ele>655</ele>
        <time>2019-03-29T16:07:53Z</time>
      </trkpt>
      <trkpt lat="44.35563" lon="5.85702">
        <ele>654</ele>
        <time>2019-03-29T16:07:54Z</time>
      </trkpt>
      <trkpt lat="44.35556" lon="5.85694">
        <ele>654</ele>
        <time>2019-03-29T16:07:55Z</time>
      </trkpt>
      <trkpt lat="44.3555" lon="5.85687">
        <ele>654</ele>
        <time>2019-03-29T16:07:56Z</time>
      </trkpt>
      <trkpt lat="44.35543" lon="5.85679">
        <ele>653</ele>
        <time>2019-03-29T16:07:57Z</time>
      </trkpt>
      <trkpt lat="44.35537" lon="5.85672">
        <ele>653</ele>
        <time>2019-03-29T16:07:58Z</time>
      </trkpt>
      <trkpt lat="44.3553" lon="5.85665">
        <ele>653</ele>
        <time>2019-03-29T16:07:59Z</time>
      </trkpt>
      <trkpt lat="44.35523" lon="5.85657">
        <ele>652</ele>
        <time>2019-03-29T16:08:00Z</time>
      </trkpt>
      <trkpt lat="44.35517" lon="5.8565">
        <ele>652</ele>
        <time>2019-03-29T16:08:01Z</time>
      </trkpt>
      <trkpt lat="44.3551" lon="5.85642">
        <ele>652</ele>
        <time>2019-03-29T16:08:02Z</time>
      </trkpt>
      <trkpt lat="44.35503" lon="5.85635">
        <ele>651</ele>
        <time>2019-03-29T16:08:03Z</time>
      </trkpt>
      <trkpt lat="44.35497" lon="5.85628">
        <ele>651</ele>
        <time>2019-03-29T16:08:04Z</time>
      </trkpt>
      <trkpt lat="44.3549" lon="5.85621">
        <ele>651</ele>
        <time>2019-03-29T16:08:05Z</time>
      </trkpt>
      <trkpt lat="44.35484" lon="5.85614">
        <ele>651</ele>
        <time>2019-03-29T16:08:06Z</time>
      </trkpt>
      <trkpt lat="44.35477" lon="5.85607">
        <ele>650</ele>
        <time>2019-03-29T16:08:07Z</time>
      </trkpt>
      <trkpt lat="44.35471" lon="5.856">
        <ele>650</ele>
        <time>2019-03-29T16:08:08Z</time>
      </trkpt>
      <trkpt lat="44.35464" lon="5.85593">
        <ele>650</ele>
        <time>2019-03-29T16:08:09Z</time>
      </trkpt>
      <trkpt lat="44.35458" lon="5.85585">
        <ele>650</ele>
        <time>2019-03-29T16:08:10Z</time>
      </trkpt>
      <trkpt lat="44.35452" lon="5.85578">
        <ele>649</ele>
        <time>2019-03-29T16:08:11Z</time>
      </trkpt>
      <trkpt lat="44.35445" lon="5.85571">
        <ele>649</ele>
        <time>2019-03-29T16:08:12Z</time>
      </trkpt>
      <trkpt lat="44.35439" lon="5.85564">
        <ele>649</ele>
        <time>2019-03-29T16:08:13Z</time>
      </trkpt>
      <trkpt lat="44.35432" lon="5.85557">
        <ele>649</ele>
        <time>2019-03-29T16:08:14Z</time>
      </trkpt>
      <trkpt lat="44.35425" lon="5.85549">
        <ele>648</ele>
        <time>2019-03-29T16:08:15Z</time>
      </trkpt>
      <trkpt lat="44.35419" lon="5.85542">
        <ele>648</ele>
        <time>2019-03-29T16:08:16Z</time>
      </trkpt>
      <trkpt lat="44.35412" lon="5.85535">
        <ele>648</ele>
        <time>2019-03-29T16:08:17Z</time>
      </trkpt>
      <trkpt lat="44.35405" lon="5.85528">
        <ele>647</ele>
        <time>2019-03-29T16:08:18Z</time>
      </trkpt>
      <trkpt lat="44.35398" lon="5.8552">
        <ele>647</ele>
        <time>2019-03-29T16:08:19Z</time>
      </trkpt>
      <trkpt lat="44.35392" lon="5.85512">
        <ele>647</ele>
        <time>2019-03-29T16:08:20Z</time>
      </trkpt>
      <trkpt lat="44.35384" lon="5.85505">
        <ele>647</ele>
        <time>2019-03-29T16:08:21Z</time>
      </trkpt>
      <trkpt lat="44.35378" lon="5.85497">
        <ele>646</ele>
        <time>2019-03-29T16:08:22Z</time>
      </trkpt>
      <trkpt lat="44.35371" lon="5.8549">
        <ele>646</ele>
        <time>2019-03-29T16:08:23Z</time>
      </trkpt>
      <trkpt lat="44.35363" lon="5.85482">
        <ele>646</ele>
        <time>2019-03-29T16:08:24Z</time>
      </trkpt>
      <trkpt lat="44.35357" lon="5.85474">
        <ele>645</ele>
        <time>2019-03-29T16:08:25Z</time>
      </trkpt>
      <trkpt lat="44.3535" lon="5.85466">
        <ele>645</ele>
        <time>2019-03-29T16:08:26Z</time>
      </trkpt>
      <trkpt lat="44.35343" lon="5.85458">
        <ele>645</ele>
        <time>2019-03-29T16:08:27Z</time>
      </trkpt>
      <trkpt lat="44.35336" lon="5.8545">
        <ele>645</ele>
        <time>2019-03-29T16:08:28Z</time>
      </trkpt>
      <trkpt lat="44.3533" lon="5.85442">
        <ele>644</ele>
        <time>2019-03-29T16:08:29Z</time>
      </trkpt>
      <trkpt lat="44.35323" lon="5.85433">
        <ele>644</ele>
        <time>2019-03-29T16:08:30Z</time>
      </trkpt>
      <trkpt lat="44.35318" lon="5.85423">
        <ele>644</ele>
        <time>2019-03-29T16:08:31Z</time>
      </trkpt>
      <trkpt lat="44.35313" lon="5.85412">
        <ele>643</ele>
        <time>2019-03-29T16:08:32Z</time>
      </trkpt>
      <trkpt lat="44.35309" lon="5.85401">
        <ele>643</ele>
        <time>2019-03-29T16:08:33Z</time>
      </trkpt>
      <trkpt lat="44.35305" lon="5.8539">
        <ele>643</ele>
        <time>2019-03-29T16:08:34Z</time>
      </trkpt>
      <trkpt lat="44.35302" lon="5.85378">
        <ele>643</ele>
        <time>2019-03-29T16:08:35Z</time>
      </trkpt>
      <trkpt lat="44.35298" lon="5.85367">
        <ele>643</ele>
        <time>2019-03-29T16:08:36Z</time>
      </trkpt>
      <trkpt lat="44.35295" lon="5.85356">
        <ele>642</ele>
        <time>2019-03-29T16:08:37Z</time>
      </trkpt>
      <trkpt lat="44.35291" lon="5.85344">
        <ele>642</ele>
        <time>2019-03-29T16:08:38Z</time>
      </trkpt>
      <trkpt lat="44.35287" lon="5.85332">
        <ele>642</ele>
        <time>2019-03-29T16:08:39Z</time>
      </trkpt>
      <trkpt lat="44.35284" lon="5.8532">
        <ele>642</ele>
        <time>2019-03-29T16:08:40Z</time>
      </trkpt>
      <trkpt lat="44.3528" lon="5.85309">
        <ele>642</ele>
        <time>2019-03-29T16:08:41Z</time>
      </trkpt>
      <trkpt lat="44.35276" lon="5.85297">
        <ele>641</ele>
        <time>2019-03-29T16:08:42Z</time>
      </trkpt>
      <trkpt lat="44.35273" lon="5.85285">
        <ele>641</ele>
        <time>2019-03-29T16:08:43Z</time>
      </trkpt>
      <trkpt lat="44.35269" lon="5.85273">
        <ele>641</ele>
        <time>2019-03-29T16:08:44Z</time>
      </trkpt>
      <trkpt lat="44.35265" lon="5.85261">
        <ele>641</ele>
        <time>2019-03-29T16:08:45Z</time>
      </trkpt>
      <trkpt lat="44.35261" lon="5.8525">
        <ele>640</ele>
        <time>2019-03-29T16:08:46Z</time>
      </trkpt>
      <trkpt lat="44.35257" lon="5.85238">
        <ele>640</ele>
        <time>2019-03-29T16:08:47Z</time>
      </trkpt>
      <trkpt lat="44.35253" lon="5.85225">
        <ele>640</ele>
        <time>2019-03-29T16:08:48Z</time>
      </trkpt>
      <trkpt lat="44.3525" lon="5.85214">
        <ele>640</ele>
        <time>2019-03-29T16:08:49Z</time>
      </trkpt>
      <trkpt lat="44.35246" lon="5.85202">
        <ele>639</ele>
        <time>2019-03-29T16:08:50Z</time>
      </trkpt>
      <trkpt lat="44.35242" lon="5.8519">
        <ele>639</ele>
        <time>2019-03-29T16:08:51Z</time>
      </trkpt>
      <trkpt lat="44.35239" lon="5.85178">
        <ele>639</ele>
        <time>2019-03-29T16:08:52Z</time>
      </trkpt>
      <trkpt lat="44.35234" lon="5.85166">
        <ele>639</ele>
        <time>2019-03-29T16:08:53Z</time>
      </trkpt>
      <trkpt lat="44.3523" lon="5.85155">
        <ele>638</ele>
        <time>2019-03-29T16:08:54Z</time>
      </trkpt>
      <trkpt lat="44.35224" lon="5.85144">
        <ele>638</ele>
        <time>2019-03-29T16:08:55Z</time>
      </trkpt>
      <trkpt lat="44.35218" lon="5.85134">
        <ele>638</ele>
        <time>2019-03-29T16:08:56Z</time>
      </trkpt>
      <trkpt lat="44.35212" lon="5.85124">
        <ele>638</ele>
        <time>2019-03-29T16:08:57Z</time>
      </trkpt>
      <trkpt lat="44.35206" lon="5.85115">
        <ele>638</ele>
        <time>2019-03-29T16:08:58Z</time>
      </trkpt>
      <trkpt lat="44.35199" lon="5.85106">
        <ele>638</ele>
        <time>2019-03-29T16:08:59Z</time>
      </trkpt>
      <trkpt lat="44.35192" lon="5.85098">
        <ele>638</ele>
        <time>2019-03-29T16:09:00Z</time>
      </trkpt>
      <trkpt lat="44.35185" lon="5.8509">
        <ele>638</ele>
        <time>2019-03-29T16:09:01Z</time>
      </trkpt>
      <trkpt lat="44.35178" lon="5.85083">
        <ele>638</ele>
        <time>2019-03-29T16:09:02Z</time>
      </trkpt>
      <trkpt lat="44.35171" lon="5.85075">
        <ele>638</ele>
        <time>2019-03-29T16:09:03Z</time>
      </trkpt>
      <trkpt lat="44.35164" lon="5.85067">
        <ele>638</ele>
        <time>2019-03-29T16:09:04Z</time>
      </trkpt>
      <trkpt lat="44.35157" lon="5.85059">
        <ele>638</ele>
        <time>2019-03-29T16:09:05Z</time>
      </trkpt>
      <trkpt lat="44.35151" lon="5.85051">
        <ele>637</ele>
        <time>2019-03-29T16:09:06Z</time>
      </trkpt>
      <trkpt lat="44.35145" lon="5.85043">
        <ele>637</ele>
        <time>2019-03-29T16:09:07Z</time>
      </trkpt>
      <trkpt lat="44.35139" lon="5.85034">
        <ele>637</ele>
        <time>2019-03-29T16:09:08Z</time>
      </trkpt>
      <trkpt lat="44.35134" lon="5.85024">
        <ele>637</ele>
        <time>2019-03-29T16:09:09Z</time>
      </trkpt>
      <trkpt lat="44.3513" lon="5.85013">
        <ele>636</ele>
        <time>2019-03-29T16:09:10Z</time>
      </trkpt>
      <trkpt lat="44.35125" lon="5.85003">
        <ele>636</ele>
        <time>2019-03-29T16:09:11Z</time>
      </trkpt>
      <trkpt lat="44.3512" lon="5.84993">
        <ele>636</ele>
        <time>2019-03-29T16:09:12Z</time>
      </trkpt>
      <trkpt lat="44.35116" lon="5.84982">
        <ele>636</ele>
        <time>2019-03-29T16:09:13Z</time>
      </trkpt>
      <trkpt lat="44.35112" lon="5.84971">
        <ele>635</ele>
        <time>2019-03-29T16:09:14Z</time>
      </trkpt>
      <trkpt lat="44.35107" lon="5.8496">
        <ele>635</ele>
        <time>2019-03-29T16:09:15Z</time>
      </trkpt>
      <trkpt lat="44.35103" lon="5.8495">
        <ele>635</ele>
        <time>2019-03-29T16:09:16Z</time>
      </trkpt>
      <trkpt lat="44.35098" lon="5.8494">
        <ele>635</ele>
        <time>2019-03-29T16:09:17Z</time>
      </trkpt>
      <trkpt lat="44.35093" lon="5.8493">
        <ele>635</ele>
        <time>2019-03-29T16:09:18Z</time>
      </trkpt>
      <trkpt lat="44.35088" lon="5.8492">
        <ele>634</ele>
        <time>2019-03-29T16:09:19Z</time>
      </trkpt>
      <trkpt lat="44.35082" lon="5.8491">
        <ele>634</ele>
        <time>2019-03-29T16:09:20Z</time>
      </trkpt>
      <trkpt lat="44.35077" lon="5.849">
        <ele>634</ele>
        <time>2019-03-29T16:09:21Z</time>
      </trkpt>
      <trkpt lat="44.3507" lon="5.84891">
        <ele>634</ele>
        <time>2019-03-29T16:09:22Z</time>
      </trkpt>
      <trkpt lat="44.35064" lon="5.84882">
        <ele>634</ele>
        <time>2019-03-29T16:09:23Z</time>
      </trkpt>
      <trkpt lat="44.35058" lon="5.84873">
        <ele>634</ele>
        <time>2019-03-29T16:09:24Z</time>
      </trkpt>
      <trkpt lat="44.35052" lon="5.84864">
        <ele>634</ele>
        <time>2019-03-29T16:09:25Z</time>
      </trkpt>
      <trkpt lat="44.35046" lon="5.84855">
        <ele>633</ele>
        <time>2019-03-29T16:09:26Z</time>
      </trkpt>
      <trkpt lat="44.3504" lon="5.84846">
        <ele>633</ele>
        <time>2019-03-29T16:09:27Z</time>
      </trkpt>
      <trkpt lat="44.35034" lon="5.84837">
        <ele>633</ele>
        <time>2019-03-29T16:09:28Z</time>
      </trkpt>
      <trkpt lat="44.35027" lon="5.84829">
        <ele>632</ele>
        <time>2019-03-29T16:09:29Z</time>
      </trkpt>
      <trkpt lat="44.3502" lon="5.84822">
        <ele>632</ele>
        <time>2019-03-29T16:09:30Z</time>
      </trkpt>
      <trkpt lat="44.35012" lon="5.84814">
        <ele>632</ele>
        <time>2019-03-29T16:09:31Z</time>
      </trkpt>
      <trkpt lat="44.35005" lon="5.84807">
        <ele>631</ele>
        <time>2019-03-29T16:09:32Z</time>
      </trkpt>
      <trkpt lat="44.34998" lon="5.84799">
        <ele>631</ele>
        <time>2019-03-29T16:09:33Z</time>
      </trkpt>
      <trkpt lat="44.3499" lon="5.84793">
        <ele>631</ele>
        <time>2019-03-29T16:09:34Z</time>
      </trkpt>
      <trkpt lat="44.34983" lon="5.84786">
        <ele>631</ele>
        <time>2019-03-29T16:09:35Z</time>
      </trkpt>
      <trkpt lat="44.34975" lon="5.8478">
        <ele>631</ele>
        <time>2019-03-29T16:09:36Z</time>
      </trkpt>
      <trkpt lat="44.34968" lon="5.84773">
        <ele>631</ele>
        <time>2019-03-29T16:09:37Z</time>
      </trkpt>
      <trkpt lat="44.3496" lon="5.84767">
        <ele>631</ele>
        <time>2019-03-29T16:09:38Z</time>
      </trkpt>
      <trkpt lat="44.34953" lon="5.8476">
        <ele>631</ele>
        <time>2019-03-29T16:09:39Z</time>
      </trkpt>
      <trkpt lat="44.34945" lon="5.84754">
        <ele>631</ele>
        <time>2019-03-29T16:09:40Z</time>
      </trkpt>
      <trkpt lat="44.34937" lon="5.84748">
        <ele>631</ele>
        <time>2019-03-29T16:09:41Z</time>
      </trkpt>
      <trkpt lat="44.3493" lon="5.84741">
        <ele>631</ele>
        <time>2019-03-29T16:09:42Z</time>
      </trkpt>
      <trkpt lat="44.34923" lon="5.84735">
        <ele>631</ele>
        <time>2019-03-29T16:09:43Z</time>
      </trkpt>
      <trkpt lat="44.34916" lon="5.84728">
        <ele>631</ele>
        <time>2019-03-29T16:09:44Z</time>
      </trkpt>
      <trkpt lat="44.34909" lon="5.84721">
        <ele>630</ele>
        <time>2019-03-29T16:09:45Z</time>
      </trkpt>
      <trkpt lat="44.34902" lon="5.84713">
        <ele>630</ele>
        <time>2019-03-29T16:09:46Z</time>
      </trkpt>
      <trkpt lat="44.34896" lon="5.84705">
        <ele>630</ele>
        <time>2019-03-29T16:09:47Z</time>
      </trkpt>
      <trkpt lat="44.3489" lon="5.84696">
        <ele>630</ele>
        <time>2019-03-29T16:09:48Z</time>
      </trkpt>
      <trkpt lat="44.34884" lon="5.84687">
        <ele>630</ele>
        <time>2019-03-29T16:09:49Z</time>
      </trkpt>
      <trkpt lat="44.34879" lon="5.84678">
        <ele>630</ele>
        <time>2019-03-29T16:09:50Z</time>
      </trkpt>
      <trkpt lat="44.34874" lon="5.84668">
        <ele>630</ele>
        <time>2019-03-29T16:09:51Z</time>
      </trkpt>
      <trkpt lat="44.34868" lon="5.84659">
        <ele>630</ele>
        <time>2019-03-29T16:09:52Z</time>
      </trkpt>
      <trkpt lat="44.34863" lon="5.8465">
        <ele>629</ele>
        <time>2019-03-29T16:09:53Z</time>
      </trkpt>
      <trkpt lat="44.34858" lon="5.8464">
        <ele>629</ele>
        <time>2019-03-29T16:09:54Z</time>
      </trkpt>
      <trkpt lat="44.34853" lon="5.84631">
        <ele>629</ele>
        <time>2019-03-29T16:09:55Z</time>
      </trkpt>
      <trkpt lat="44.34847" lon="5.84622">
        <ele>629</ele>
        <time>2019-03-29T16:09:56Z</time>
      </trkpt>
      <trkpt lat="44.34842" lon="5.84614">
        <ele>629</ele>
        <time>2019-03-29T16:09:57Z</time>
      </trkpt>
      <trkpt lat="44.34836" lon="5.84605">
        <ele>628</ele>
        <time>2019-03-29T16:09:58Z</time>
      </trkpt>
      <trkpt lat="44.3483" lon="5.84597">
        <ele>628</ele>
        <time>2019-03-29T16:09:59Z</time>
      </trkpt>
      <trkpt lat="44.34824" lon="5.84589">
        <ele>628</ele>
        <time>2019-03-29T16:10:00Z</time>
      </trkpt>
      <trkpt lat="44.34818" lon="5.84581">
        <ele>628</ele>
        <time>2019-03-29T16:10:01Z</time>
      </trkpt>
      <trkpt lat="44.34812" lon="5.84573">
        <ele>628</ele>
        <time>2019-03-29T16:10:02Z</time>
      </trkpt>
      <trkpt lat="44.34805" lon="5.84565">
        <ele>628</ele>
        <time>2019-03-29T16:10:03Z</time>
      </trkpt>
      <trkpt lat="44.34799" lon="5.84557">
        <ele>627</ele>
        <time>2019-03-29T16:10:04Z</time>
      </trkpt>
      <trkpt lat="44.34792" lon="5.84549">
        <ele>627</ele>
        <time>2019-03-29T16:10:05Z</time>
      </trkpt>
      <trkpt lat="44.34785" lon="5.84542">
        <ele>627</ele>
        <time>2019-03-29T16:10:06Z</time>
      </trkpt>
      <trkpt lat="44.34779" lon="5.84534">
        <ele>627</ele>
        <time>2019-03-29T16:10:07Z</time>
      </trkpt>
      <trkpt lat="44.34772" lon="5.84526">
        <ele>627</ele>
        <time>2019-03-29T16:10:08Z</time>
      </trkpt>
      <trkpt lat="44.34766" lon="5.84518">
        <ele>626</ele>
        <time>2019-03-29T16:10:09Z</time>
      </trkpt>
      <trkpt lat="44.34759" lon="5.84511">
        <ele>626</ele>
        <time>2019-03-29T16:10:10Z</time>
      </trkpt>
      <trkpt lat="44.34753" lon="5.84503">
        <ele>626</ele>
        <time>2019-03-29T16:10:11Z</time>
      </trkpt>
      <trkpt lat="44.34746" lon="5.84495">
        <ele>626</ele>
        <time>2019-03-29T16:10:12Z</time>
      </trkpt>
      <trkpt lat="44.34739" lon="5.84487">
        <ele>626</ele>
        <time>2019-03-29T16:10:13Z</time>
      </trkpt>
      <trkpt lat="44.34733" lon="5.84479">
        <ele>626</ele>
        <time>2019-03-29T16:10:14Z</time>
      </trkpt>
      <trkpt lat="44.34726" lon="5.84472">
        <ele>626</ele>
        <time>2019-03-29T16:10:15Z</time>
      </trkpt>
      <trkpt lat="44.34719" lon="5.84464">
        <ele>625</ele>
        <time>2019-03-29T16:10:16Z</time>
      </trkpt>
      <trkpt lat="44.34713" lon="5.84456">
        <ele>625</ele>
        <time>2019-03-29T16:10:17Z</time>
      </trkpt>
      <trkpt lat="44.34706" lon="5.84449">
        <ele>625</ele>
        <time>2019-03-29T16:10:18Z</time>
      </trkpt>
      <trkpt lat="44.347" lon="5.84441">
        <ele>625</ele>
        <time>2019-03-29T16:10:19Z</time>
      </trkpt>
      <trkpt lat="44.34694" lon="5.84433">
        <ele>625</ele>
        <time>2019-03-29T16:10:20Z</time>
      </trkpt>
      <trkpt lat="44.34687" lon="5.84425">
        <ele>624</ele>
        <time>2019-03-29T16:10:21Z</time>
      </trkpt>
      <trkpt lat="44.34681" lon="5.84417">
        <ele>624</ele>
        <time>2019-03-29T16:10:22Z</time>
      </trkpt>
      <trkpt lat="44.34675" lon="5.84408">
        <ele>624</ele>
        <time>2019-03-29T16:10:23Z</time>
      </trkpt>
      <trkpt lat="44.3467" lon="5.84399">
        <ele>624</ele>
        <time>2019-03-29T16:10:24Z</time>
      </trkpt>
      <trkpt lat="44.34665" lon="5.84389">
        <ele>623</ele>
        <time>2019-03-29T16:10:25Z</time>
      </trkpt>
      <trkpt lat="44.3466" lon="5.84379">
        <ele>623</ele>
        <time>2019-03-29T16:10:26Z</time>
      </trkpt>
      <trkpt lat="44.34655" lon="5.84369">
        <ele>623</ele>
        <time>2019-03-29T16:10:27Z</time>
      </trkpt>
      <trkpt lat="44.34651" lon="5.84359">
        <ele>623</ele>
        <time>2019-03-29T16:10:28Z</time>
      </trkpt>
      <trkpt lat="44.34647" lon="5.84348">
        <ele>622</ele>
        <time>2019-03-29T16:10:29Z</time>
      </trkpt>
      <trkpt lat="44.34644" lon="5.84337">
        <ele>622</ele>
        <time>2019-03-29T16:10:30Z</time>
      </trkpt>
      <trkpt lat="44.3464" lon="5.84325">
        <ele>622</ele>
        <time>2019-03-29T16:10:31Z</time>
      </trkpt>
      <trkpt lat="44.34637" lon="5.84313">
        <ele>622</ele>
        <time>2019-03-29T16:10:32Z</time>
      </trkpt>
      <trkpt lat="44.34634" lon="5.843">
        <ele>622</ele>
        <time>2019-03-29T16:10:33Z</time>
      </trkpt>
      <trkpt lat="44.34632" lon="5.84288">
        <ele>622</ele>
        <time>2019-03-29T16:10:34Z</time>
      </trkpt>
      <trkpt lat="44.34629" lon="5.84275">
        <ele>622</ele>
        <time>2019-03-29T16:10:35Z</time>
      </trkpt>
      <trkpt lat="44.34627" lon="5.84262">
        <ele>622</ele>
        <time>2019-03-29T16:10:36Z</time>
      </trkpt>
      <trkpt lat="44.34624" lon="5.84249">
        <ele>622</ele>
        <time>2019-03-29T16:10:37Z</time>
      </trkpt>
      <trkpt lat="44.34621" lon="5.84237">
        <ele>622</ele>
        <time>2019-03-29T16:10:38Z</time>
      </trkpt>
      <trkpt lat="44.34618" lon="5.84225">
        <ele>622</ele>
        <time>2019-03-29T16:10:39Z</time>
      </trkpt>
      <trkpt lat="44.34614" lon="5.84212">
        <ele>622</ele>
        <time>2019-03-29T16:10:40Z</time>
      </trkpt>
      <trkpt lat="44.3461" lon="5.84201">
        <ele>622</ele>
        <time>2019-03-29T16:10:41Z</time>
      </trkpt>
      <trkpt lat="44.34605" lon="5.84189">
        <ele>622</ele>
        <time>2019-03-29T16:10:42Z</time>
      </trkpt>
      <trkpt lat="44.346" lon="5.84178">
        <ele>622</ele>
        <time>2019-03-29T16:10:43Z</time>
      </trkpt>
      <trkpt lat="44.34595" lon="5.84167">
        <ele>622</ele>
        <time>2019-03-29T16:10:44Z</time>
      </trkpt>
      <trkpt lat="44.34589" lon="5.84157">
        <ele>622</ele>
        <time>2019-03-29T16:10:45Z</time>
      </trkpt>
      <trkpt lat="44.34582" lon="5.84148">
        <ele>621</ele>
        <time>2019-03-29T16:10:46Z</time>
      </trkpt>
      <trkpt lat="44.34576" lon="5.84138">
        <ele>621</ele>
        <time>2019-03-29T16:10:47Z</time>
      </trkpt>
      <trkpt lat="44.34569" lon="5.84129">
        <ele>621</ele>
        <time>2019-03-29T16:10:48Z</time>
      </trkpt>
      <trkpt lat="44.34562" lon="5.84121">
        <ele>621</ele>
        <time>2019-03-29T16:10:49Z</time>
      </trkpt>
      <trkpt lat="44.34556" lon="5.84113">
        <ele>621</ele>
        <time>2019-03-29T16:10:50Z</time>
      </trkpt>
      <trkpt lat="44.3455" lon="5.84104">
        <ele>621</ele>
        <time>2019-03-29T16:10:51Z</time>
      </trkpt>
      <trkpt lat="44.34544" lon="5.84096">
        <ele>621</ele>
        <time>2019-03-29T16:10:52Z</time>
      </trkpt>
      <trkpt lat="44.34538" lon="5.84088">
        <ele>621</ele>
        <time>2019-03-29T16:10:53Z</time>
      </trkpt>
      <trkpt lat="44.34533" lon="5.8408">
        <ele>621</ele>
        <time>2019-03-29T16:10:54Z</time>
      </trkpt>
      <trkpt lat="44.34526" lon="5.84072">
        <ele>621</ele>
        <time>2019-03-29T16:10:55Z</time>
      </trkpt>
      <trkpt lat="44.3452" lon="5.84064">
        <ele>621</ele>
        <time>2019-03-29T16:10:56Z</time>
      </trkpt>
      <trkpt lat="44.34514" lon="5.84056">
        <ele>621</ele>
        <time>2019-03-29T16:10:57Z</time>
      </trkpt>
      <trkpt lat="44.34507" lon="5.84048">
        <ele>621</ele>
        <time>2019-03-29T16:10:58Z</time>
      </trkpt>
      <trkpt lat="44.34501" lon="5.8404">
        <ele>621</ele>
        <time>2019-03-29T16:10:59Z</time>
      </trkpt>
      <trkpt lat="44.34495" lon="5.84032">
        <ele>621</ele>
        <time>2019-03-29T16:11:00Z</time>
      </trkpt>
      <trkpt lat="44.34489" lon="5.84024">
        <ele>621</ele>
        <time>2019-03-29T16:11:01Z</time>
      </trkpt>
      <trkpt lat="44.34483" lon="5.84016">
        <ele>621</ele>
        <time>2019-03-29T16:11:02Z</time>
      </trkpt>
      <trkpt lat="44.34476" lon="5.84008">
        <ele>621</ele>
        <time>2019-03-29T16:11:03Z</time>
      </trkpt>
      <trkpt lat="44.3447" lon="5.83999">
        <ele>621</ele>
        <time>2019-03-29T16:11:04Z</time>
      </trkpt>
      <trkpt lat="44.34464" lon="5.83991">
        <ele>621</ele>
        <time>2019-03-29T16:11:05Z</time>
      </trkpt>
      <trkpt lat="44.34458" lon="5.83984">
        <ele>621</ele>
        <time>2019-03-29T16:11:06Z</time>
      </trkpt>
      <trkpt lat="44.34451" lon="5.83976">
        <ele>621</ele>
        <time>2019-03-29T16:11:07Z</time>
      </trkpt>
      <trkpt lat="44.34444" lon="5.83968">
        <ele>621</ele>
        <time>2019-03-29T16:11:08Z</time>
      </trkpt>
      <trkpt lat="44.34438" lon="5.8396">
        <ele>621</ele>
        <time>2019-03-29T16:11:09Z</time>
      </trkpt>
      <trkpt lat="44.34432" lon="5.83953">
        <ele>621</ele>
        <time>2019-03-29T16:11:10Z</time>
      </trkpt>
      <trkpt lat="44.34426" lon="5.83945">
        <ele>621</ele>
        <time>2019-03-29T16:11:11Z</time>
      </trkpt>
      <trkpt lat="44.3442" lon="5.83937">
        <ele>621</ele>
        <time>2019-03-29T16:11:12Z</time>
      </trkpt>
      <trkpt lat="44.34414" lon="5.8393">
        <ele>621</ele>
        <time>2019-03-29T16:11:13Z</time>
      </trkpt>
      <trkpt lat="44.34408" lon="5.83922">
        <ele>621</ele>
        <time>2019-03-29T16:11:14Z</time>
      </trkpt>
      <trkpt lat="44.34402" lon="5.83914">
        <ele>621</ele>
        <time>2019-03-29T16:11:15Z</time>
      </trkpt>
      <trkpt lat="44.34396" lon="5.83906">
        <ele>621</ele>
        <time>2019-03-29T16:11:16Z</time>
      </trkpt>
      <trkpt lat="44.34389" lon="5.83898">
        <ele>621</ele>
        <time>2019-03-29T16:11:17Z</time>
      </trkpt>
      <trkpt lat="44.34383" lon="5.83891">
        <ele>621</ele>
        <time>2019-03-29T16:11:18Z</time>
      </trkpt>
      <trkpt lat="44.34378" lon="5.83883">
        <ele>621</ele>
        <time>2019-03-29T16:11:19Z</time>
      </trkpt>
      <trkpt lat="44.34372" lon="5.83875">
        <ele>620</ele>
        <time>2019-03-29T16:11:20Z</time>
      </trkpt>
      <trkpt lat="44.34365" lon="5.83868">
        <ele>620</ele>
        <time>2019-03-29T16:11:21Z</time>
      </trkpt>
      <trkpt lat="44.34359" lon="5.8386">
        <ele>620</ele>
        <time>2019-03-29T16:11:22Z</time>
      </trkpt>
      <trkpt lat="44.34353" lon="5.83852">
        <ele>620</ele>
        <time>2019-03-29T16:11:23Z</time>
      </trkpt>
      <trkpt lat="44.34347" lon="5.83845">
        <ele>620</ele>
        <time>2019-03-29T16:11:24Z</time>
      </trkpt>
      <trkpt lat="44.34341" lon="5.83837">
        <ele>620</ele>
        <time>2019-03-29T16:11:25Z</time>
      </trkpt>
      <trkpt lat="44.34335" lon="5.83829">
        <ele>620</ele>
        <time>2019-03-29T16:11:26Z</time>
      </trkpt>
      <trkpt lat="44.34329" lon="5.83821">
        <ele>619</ele>
        <time>2019-03-29T16:11:27Z</time>
      </trkpt>
      <trkpt lat="44.34323" lon="5.83813">
        <ele>619</ele>
        <time>2019-03-29T16:11:28Z</time>
      </trkpt>
      <trkpt lat="44.34317" lon="5.83806">
        <ele>619</ele>
        <time>2019-03-29T16:11:29Z</time>
      </trkpt>
      <trkpt lat="44.34311" lon="5.83798">
        <ele>619</ele>
        <time>2019-03-29T16:11:30Z</time>
      </trkpt>
      <trkpt lat="44.34305" lon="5.8379">
        <ele>618</ele>
        <time>2019-03-29T16:11:31Z</time>
      </trkpt>
      <trkpt lat="44.34299" lon="5.83782">
        <ele>618</ele>
        <time>2019-03-29T16:11:32Z</time>
      </trkpt>
      <trkpt lat="44.34293" lon="5.83775">
        <ele>618</ele>
        <time>2019-03-29T16:11:33Z</time>
      </trkpt>
      <trkpt lat="44.34287" lon="5.83767">
        <ele>618</ele>
        <time>2019-03-29T16:11:34Z</time>
      </trkpt>
      <trkpt lat="44.34281" lon="5.83759">
        <ele>617</ele>
        <time>2019-03-29T16:11:35Z</time>
      </trkpt>
      <trkpt lat="44.34275" lon="5.83751">
        <ele>617</ele>
        <time>2019-03-29T16:11:36Z</time>
      </trkpt>
      <trkpt lat="44.34269" lon="5.83744">
        <ele>617</ele>
        <time>2019-03-29T16:11:37Z</time>
      </trkpt>
      <trkpt lat="44.34264" lon="5.83736">
        <ele>617</ele>
        <time>2019-03-29T16:11:38Z</time>
      </trkpt>
      <trkpt lat="44.34258" lon="5.83728">
        <ele>616</ele>
        <time>2019-03-29T16:11:39Z</time>
      </trkpt>
      <trkpt lat="44.34251" lon="5.8372">
        <ele>616</ele>
        <time>2019-03-29T16:11:40Z</time>
      </trkpt>
      <trkpt lat="44.34246" lon="5.83712">
        <ele>616</ele>
        <time>2019-03-29T16:11:41Z</time>
      </trkpt>
      <trkpt lat="44.3424" lon="5.83704">
        <ele>616</ele>
        <time>2019-03-29T16:11:42Z</time>
      </trkpt>
      <trkpt lat="44.34233" lon="5.83697">
        <ele>615</ele>
        <time>2019-03-29T16:11:43Z</time>
      </trkpt>
      <trkpt lat="44.34227" lon="5.83689">
        <ele>615</ele>
        <time>2019-03-29T16:11:44Z</time>
      </trkpt>
      <trkpt lat="44.34221" lon="5.83681">
        <ele>615</ele>
        <time>2019-03-29T16:11:45Z</time>
      </trkpt>
      <trkpt lat="44.34214" lon="5.83673">
        <ele>615</ele>
        <time>2019-03-29T16:11:46Z</time>
      </trkpt>
      <trkpt lat="44.34208" lon="5.83665">
        <ele>615</ele>
        <time>2019-03-29T16:11:47Z</time>
      </trkpt>
      <trkpt lat="44.34201" lon="5.83657">
        <ele>615</ele>
        <time>2019-03-29T16:11:48Z</time>
      </trkpt>
      <trkpt lat="44.34195" lon="5.83649">
        <ele>615</ele>
        <time>2019-03-29T16:11:49Z</time>
      </trkpt>
      <trkpt lat="44.34189" lon="5.83642">
        <ele>615</ele>
        <time>2019-03-29T16:11:50Z</time>
      </trkpt>
      <trkpt lat="44.34182" lon="5.83636">
        <ele>615</ele>
        <time>2019-03-29T16:11:51Z</time>
      </trkpt>
      <trkpt lat="44.34176" lon="5.83629">
        <ele>615</ele>
        <time>2019-03-29T16:11:52Z</time>
      </trkpt>
      <trkpt lat="44.34169" lon="5.83623">
        <ele>615</ele>
        <time>2019-03-29T16:11:53Z</time>
      </trkpt>
      <trkpt lat="44.34163" lon="5.83616">
        <ele>615</ele>
        <time>2019-03-29T16:11:54Z</time>
      </trkpt>
      <trkpt lat="44.34157" lon="5.8361">
        <ele>615</ele>
        <time>2019-03-29T16:11:55Z</time>
      </trkpt>
      <trkpt lat="44.34151" lon="5.83604">
        <ele>615</ele>
        <time>2019-03-29T16:11:56Z</time>
      </trkpt>
      <trkpt lat="44.34145" lon="5.83598">
        <ele>615</ele>
        <time>2019-03-29T16:11:57Z</time>
      </trkpt>
      <trkpt lat="44.34138" lon="5.83592">
        <ele>615</ele>
        <time>2019-03-29T16:11:58Z</time>
      </trkpt>
      <trkpt lat="44.34132" lon="5.83586">
        <ele>615</ele>
        <time>2019-03-29T16:11:59Z</time>
      </trkpt>
      <trkpt lat="44.34126" lon="5.8358">
        <ele>615</ele>
        <time>2019-03-29T16:12:00Z</time>
      </trkpt>
      <trkpt lat="44.34121" lon="5.83575">
        <ele>615</ele>
        <time>2019-03-29T16:12:01Z</time>
      </trkpt>
      <trkpt lat="44.34115" lon="5.83569">
        <ele>615</ele>
        <time>2019-03-29T16:12:02Z</time>
      </trkpt>
      <trkpt lat="44.34109" lon="5.83563">
        <ele>615</ele>
        <time>2019-03-29T16:12:03Z</time>
      </trkpt>
      <trkpt lat="44.34104" lon="5.83558">
        <ele>615</ele>
        <time>2019-03-29T16:12:04Z</time>
      </trkpt>
      <trkpt lat="44.34098" lon="5.83552">
        <ele>615</ele>
        <time>2019-03-29T16:12:05Z</time>
      </trkpt>
      <trkpt lat="44.34092" lon="5.83546">
        <ele>615</ele>
        <time>2019-03-29T16:12:06Z</time>
      </trkpt>
      <trkpt lat="44.34086" lon="5.8354">
        <ele>615</ele>
        <time>2019-03-29T16:12:07Z</time>
      </trkpt>
      <trkpt lat="44.3408" lon="5.83534">
        <ele>615</ele>
        <time>2019-03-29T16:12:08Z</time>
      </trkpt>
      <trkpt lat="44.34074" lon="5.83528">
        <ele>615</ele>
        <time>2019-03-29T16:12:09Z</time>
      </trkpt>
      <trkpt lat="44.34068" lon="5.83522">
        <ele>615</ele>
        <time>2019-03-29T16:12:10Z</time>
      </trkpt>
      <trkpt lat="44.34062" lon="5.83516">
        <ele>615</ele>
        <time>2019-03-29T16:12:11Z</time>
      </trkpt>
      <trkpt lat="44.34056" lon="5.83509">
        <ele>614</ele>
        <time>2019-03-29T16:12:12Z</time>
      </trkpt>
      <trkpt lat="44.34049" lon="5.83503">
        <ele>614</ele>
        <time>2019-03-29T16:12:13Z</time>
      </trkpt>
      <trkpt lat="44.34042" lon="5.83497">
        <ele>614</ele>
        <time>2019-03-29T16:12:14Z</time>
      </trkpt>
      <trkpt lat="44.34036" lon="5.8349">
        <ele>614</ele>
        <time>2019-03-29T16:12:15Z</time>
      </trkpt>
      <trkpt lat="44.34029" lon="5.83483">
        <ele>613</ele>
        <time>2019-03-29T16:12:16Z</time>
      </trkpt>
      <trkpt lat="44.34022" lon="5.83476">
        <ele>613</ele>
        <time>2019-03-29T16:12:17Z</time>
      </trkpt>
      <trkpt lat="44.34015" lon="5.83469">
        <ele>613</ele>
        <time>2019-03-29T16:12:18Z</time>
      </trkpt>
      <trkpt lat="44.34008" lon="5.83462">
        <ele>612</ele>
        <time>2019-03-29T16:12:19Z</time>
      </trkpt>
      <trkpt lat="44.34" lon="5.83455">
        <ele>612</ele>
        <time>2019-03-29T16:12:20Z</time>
      </trkpt>
      <trkpt lat="44.33993" lon="5.83448">
        <ele>612</ele>
        <time>2019-03-29T16:12:21Z</time>
      </trkpt>
      <trkpt lat="44.33986" lon="5.83441">
        <ele>611</ele>
        <time>2019-03-29T16:12:22Z</time>
      </trkpt>
      <trkpt lat="44.33979" lon="5.83434">
        <ele>611</ele>
        <time>2019-03-29T16:12:23Z</time>
      </trkpt>
      <trkpt lat="44.33971" lon="5.83427">
        <ele>611</ele>
        <time>2019-03-29T16:12:24Z</time>
      </trkpt>
      <trkpt lat="44.33963" lon="5.83421">
        <ele>611</ele>
        <time>2019-03-29T16:12:25Z</time>
      </trkpt>
      <trkpt lat="44.33955" lon="5.83416">
        <ele>610</ele>
        <time>2019-03-29T16:12:26Z</time>
      </trkpt>
      <trkpt lat="44.33946" lon="5.83411">
        <ele>610</ele>
        <time>2019-03-29T16:12:27Z</time>
      </trkpt>
      <trkpt lat="44.33938" lon="5.83407">
        <ele>610</ele>
        <time>2019-03-29T16:12:28Z</time>
      </trkpt>
      <trkpt lat="44.33929" lon="5.83405">
        <ele>610</ele>
        <time>2019-03-29T16:12:29Z</time>
      </trkpt>
      <trkpt lat="44.33919" lon="5.83402">
        <ele>609</ele>
        <time>2019-03-29T16:12:30Z</time>
      </trkpt>
      <trkpt lat="44.3391" lon="5.834">
        <ele>609</ele>
        <time>2019-03-29T16:12:31Z</time>
      </trkpt>
      <trkpt lat="44.33901" lon="5.83399">
        <ele>609</ele>
        <time>2019-03-29T16:12:32Z</time>
      </trkpt>
      <trkpt lat="44.33891" lon="5.83397">
        <ele>609</ele>
        <time>2019-03-29T16:12:33Z</time>
      </trkpt>
      <trkpt lat="44.33882" lon="5.83395">
        <ele>609</ele>
        <time>2019-03-29T16:12:34Z</time>
      </trkpt>
      <trkpt lat="44.33872" lon="5.83393">
        <ele>609</ele>
        <time>2019-03-29T16:12:35Z</time>
      </trkpt>
      <trkpt lat="44.33863" lon="5.83391">
        <ele>608</ele>
        <time>2019-03-29T16:12:36Z</time>
      </trkpt>
      <trkpt lat="44.33853" lon="5.83389">
        <ele>608</ele>
        <time>2019-03-29T16:12:37Z</time>
      </trkpt>
      <trkpt lat="44.33843" lon="5.83387">
        <ele>608</ele>
        <time>2019-03-29T16:12:38Z</time>
      </trkpt>
      <trkpt lat="44.33834" lon="5.83385">
        <ele>608</ele>
        <time>2019-03-29T16:12:39Z</time>
      </trkpt>
      <trkpt lat="44.33824" lon="5.83383">
        <ele>608</ele>
        <time>2019-03-29T16:12:40Z</time>
      </trkpt>
      <trkpt lat="44.33815" lon="5.83381">
        <ele>608</ele>
        <time>2019-03-29T16:12:41Z</time>
      </trkpt>
      <trkpt lat="44.33805" lon="5.8338">
        <ele>607</ele>
        <time>2019-03-29T16:12:42Z</time>
      </trkpt>
      <trkpt lat="44.33796" lon="5.83378">
        <ele>607</ele>
        <time>2019-03-29T16:12:43Z</time>
      </trkpt>
      <trkpt lat="44.33786" lon="5.83376">
        <ele>607</ele>
        <time>2019-03-29T16:12:44Z</time>
      </trkpt>
      <trkpt lat="44.33777" lon="5.83374">
        <ele>607</ele>
        <time>2019-03-29T16:12:45Z</time>
      </trkpt>
      <trkpt lat="44.33768" lon="5.83372">
        <ele>607</ele>
        <time>2019-03-29T16:12:46Z</time>
      </trkpt>
      <trkpt lat="44.33759" lon="5.83371">
        <ele>606</ele>
        <time>2019-03-29T16:12:47Z</time>
      </trkpt>
      <trkpt lat="44.33749" lon="5.8337">
        <ele>606</ele>
        <time>2019-03-29T16:12:48Z</time>
      </trkpt>
      <trkpt lat="44.3374" lon="5.83369">
        <ele>606</ele>
        <time>2019-03-29T16:12:49Z</time>
      </trkpt>
      <trkpt lat="44.33731" lon="5.83368">
        <ele>606</ele>
        <time>2019-03-29T16:12:50Z</time>
      </trkpt>
      <trkpt lat="44.33722" lon="5.83367">
        <ele>605</ele>
        <time>2019-03-29T16:12:51Z</time>
      </trkpt>
      <trkpt lat="44.33713" lon="5.83367">
        <ele>605</ele>
        <time>2019-03-29T16:12:52Z</time>
      </trkpt>
      <trkpt lat="44.33704" lon="5.83366">
        <ele>605</ele>
        <time>2019-03-29T16:12:53Z</time>
      </trkpt>
      <trkpt lat="44.33695" lon="5.83365">
        <ele>605</ele>
        <time>2019-03-29T16:12:54Z</time>
      </trkpt>
      <trkpt lat="44.33686" lon="5.83364">
        <ele>604</ele>
        <time>2019-03-29T16:12:55Z</time>
      </trkpt>
      <trkpt lat="44.33677" lon="5.83363">
        <ele>604</ele>
        <time>2019-03-29T16:12:56Z</time>
      </trkpt>
      <trkpt lat="44.33669" lon="5.83362">
        <ele>604</ele>
        <time>2019-03-29T16:12:57Z</time>
      </trkpt>
      <trkpt lat="44.3366" lon="5.83361">
        <ele>603</ele>
        <time>2019-03-29T16:12:58Z</time>
      </trkpt>
      <trkpt lat="44.33651" lon="5.8336">
        <ele>603</ele>
        <time>2019-03-29T16:12:59Z</time>
      </trkpt>
      <trkpt lat="44.33642" lon="5.83359">
        <ele>603</ele>
        <time>2019-03-29T16:13:00Z</time>
      </trkpt>
      <trkpt lat="44.33633" lon="5.83358">
        <ele>603</ele>
        <time>2019-03-29T16:13:01Z</time>
      </trkpt>
      <trkpt lat="44.33624" lon="5.83357">
        <ele>603</ele>
        <time>2019-03-29T16:13:02Z</time>
      </trkpt>
      <trkpt lat="44.33614" lon="5.83356">
        <ele>602</ele>
        <time>2019-03-29T16:13:03Z</time>
      </trkpt>
      <trkpt lat="44.33605" lon="5.83355">
        <ele>602</ele>
        <time>2019-03-29T16:13:04Z</time>
      </trkpt>
      <trkpt lat="44.33596" lon="5.83354">
        <ele>602</ele>
        <time>2019-03-29T16:13:05Z</time>
      </trkpt>
      <trkpt lat="44.33587" lon="5.83353">
        <ele>602</ele>
        <time>2019-03-29T16:13:06Z</time>
      </trkpt>
      <trkpt lat="44.33577" lon="5.83352">
        <ele>601</ele>
        <time>2019-03-29T16:13:07Z</time>
      </trkpt>
      <trkpt lat="44.33568" lon="5.83351">
        <ele>601</ele>
        <time>2019-03-29T16:13:08Z</time>
      </trkpt>
      <trkpt lat="44.33558" lon="5.8335">
        <ele>601</ele>
        <time>2019-03-29T16:13:09Z</time>
      </trkpt>
      <trkpt lat="44.33549" lon="5.83349">
        <ele>600</ele>
        <time>2019-03-29T16:13:10Z</time>
      </trkpt>
      <trkpt lat="44.3354" lon="5.83348">
        <ele>600</ele>
        <time>2019-03-29T16:13:11Z</time>
      </trkpt>
      <trkpt lat="44.3353" lon="5.83347">
        <ele>599</ele>
        <time>2019-03-29T16:13:12Z</time>
      </trkpt>
      <trkpt lat="44.33522" lon="5.83346">
        <ele>599</ele>
        <time>2019-03-29T16:13:13Z</time>
      </trkpt>
      <trkpt lat="44.33512" lon="5.83346">
        <ele>599</ele>
        <time>2019-03-29T16:13:14Z</time>
      </trkpt>
      <trkpt lat="44.33504" lon="5.83345">
        <ele>598</ele>
        <time>2019-03-29T16:13:15Z</time>
      </trkpt>
      <trkpt lat="44.33495" lon="5.83344">
        <ele>598</ele>
        <time>2019-03-29T16:13:16Z</time>
      </trkpt>
      <trkpt lat="44.33486" lon="5.83343">
        <ele>598</ele>
        <time>2019-03-29T16:13:17Z</time>
      </trkpt>
      <trkpt lat="44.33478" lon="5.83342">
        <ele>597</ele>
        <time>2019-03-29T16:13:18Z</time>
      </trkpt>
      <trkpt lat="44.3347" lon="5.83342">
        <ele>597</ele>
        <time>2019-03-29T16:13:19Z</time>
      </trkpt>
      <trkpt lat="44.33461" lon="5.83342">
        <ele>597</ele>
        <time>2019-03-29T16:13:20Z</time>
      </trkpt>
      <trkpt lat="44.33453" lon="5.83343">
        <ele>597</ele>
        <time>2019-03-29T16:13:21Z</time>
      </trkpt>
      <trkpt lat="44.33445" lon="5.83343">
        <ele>597</ele>
        <time>2019-03-29T16:13:22Z</time>
      </trkpt>
      <trkpt lat="44.33437" lon="5.83344">
        <ele>596</ele>
        <time>2019-03-29T16:13:23Z</time>
      </trkpt>
      <trkpt lat="44.33429" lon="5.83345">
        <ele>596</ele>
        <time>2019-03-29T16:13:24Z</time>
      </trkpt>
      <trkpt lat="44.33421" lon="5.83347">
        <ele>596</ele>
        <time>2019-03-29T16:13:25Z</time>
      </trkpt>
      <trkpt lat="44.33413" lon="5.83348">
        <ele>596</ele>
        <time>2019-03-29T16:13:26Z</time>
      </trkpt>
      <trkpt lat="44.33406" lon="5.83349">
        <ele>595</ele>
        <time>2019-03-29T16:13:27Z</time>
      </trkpt>
      <trkpt lat="44.33398" lon="5.8335">
        <ele>595</ele>
        <time>2019-03-29T16:13:28Z</time>
      </trkpt>
      <trkpt lat="44.3339" lon="5.83352">
        <ele>595</ele>
        <time>2019-03-29T16:13:29Z</time>
      </trkpt>
      <trkpt lat="44.33382" lon="5.83353">
        <ele>595</ele>
        <time>2019-03-29T16:13:30Z</time>
      </trkpt>
      <trkpt lat="44.33374" lon="5.83354">
        <ele>595</ele>
        <time>2019-03-29T16:13:31Z</time>
      </trkpt>
      <trkpt lat="44.33366" lon="5.83355">
        <ele>595</ele>
        <time>2019-03-29T16:13:32Z</time>
      </trkpt>
      <trkpt lat="44.33358" lon="5.83357">
        <ele>595</ele>
        <time>2019-03-29T16:13:33Z</time>
      </trkpt>
      <trkpt lat="44.3335" lon="5.83358">
        <ele>594</ele>
        <time>2019-03-29T16:13:34Z</time>
      </trkpt>
      <trkpt lat="44.33342" lon="5.83359">
        <ele>594</ele>
        <time>2019-03-29T16:13:35Z</time>
      </trkpt>
      <trkpt lat="44.33335" lon="5.8336">
        <ele>594</ele>
        <time>2019-03-29T16:13:36Z</time>
      </trkpt>
      <trkpt lat="44.33327" lon="5.83361">
        <ele>594</ele>
        <time>2019-03-29T16:13:37Z</time>
      </trkpt>
      <trkpt lat="44.33319" lon="5.83362">
        <ele>594</ele>
        <time>2019-03-29T16:13:38Z</time>
      </trkpt>
      <trkpt lat="44.33311" lon="5.83364">
        <ele>594</ele>
        <time>2019-03-29T16:13:39Z</time>
      </trkpt>
      <trkpt lat="44.33303" lon="5.83365">
        <ele>594</ele>
        <time>2019-03-29T16:13:40Z</time>
      </trkpt>
      <trkpt lat="44.33296" lon="5.83366">
        <ele>594</ele>
        <time>2019-03-29T16:13:41Z</time>
      </trkpt>
      <trkpt lat="44.33288" lon="5.83367">
        <ele>593</ele>
        <time>2019-03-29T16:13:42Z</time>
      </trkpt>
      <trkpt lat="44.33281" lon="5.83368">
        <ele>593</ele>
        <time>2019-03-29T16:13:43Z</time>
      </trkpt>
      <trkpt lat="44.33273" lon="5.83369">
        <ele>593</ele>
        <time>2019-03-29T16:13:44Z</time>
      </trkpt>
      <trkpt lat="44.33266" lon="5.83371">
        <ele>593</ele>
        <time>2019-03-29T16:13:45Z</time>
      </trkpt>
      <trkpt lat="44.33258" lon="5.83372">
        <ele>593</ele>
        <time>2019-03-29T16:13:46Z</time>
      </trkpt>
      <trkpt lat="44.3325" lon="5.83373">
        <ele>593</ele>
        <time>2019-03-29T16:13:47Z</time>
      </trkpt>
      <trkpt lat="44.33243" lon="5.83374">
        <ele>593</ele>
        <time>2019-03-29T16:13:48Z</time>
      </trkpt>
      <trkpt lat="44.33236" lon="5.83375">
        <ele>593</ele>
        <time>2019-03-29T16:13:49Z</time>
      </trkpt>
      <trkpt lat="44.33228" lon="5.83376">
        <ele>592</ele>
        <time>2019-03-29T16:13:50Z</time>
      </trkpt>
      <trkpt lat="44.3322" lon="5.83377">
        <ele>592</ele>
        <time>2019-03-29T16:13:51Z</time>
      </trkpt>
      <trkpt lat="44.33213" lon="5.83378">
        <ele>592</ele>
        <time>2019-03-29T16:13:52Z</time>
      </trkpt>
      <trkpt lat="44.33205" lon="5.8338">
        <ele>592</ele>
        <time>2019-03-29T16:13:53Z</time>
      </trkpt>
      <trkpt lat="44.33197" lon="5.83381">
        <ele>592</ele>
        <time>2019-03-29T16:13:54Z</time>
      </trkpt>
      <trkpt lat="44.3319" lon="5.83382">
        <ele>592</ele>
        <time>2019-03-29T16:13:55Z</time>
      </trkpt>
      <trkpt lat="44.33182" lon="5.83383">
        <ele>591</ele>
        <time>2019-03-29T16:13:56Z</time>
      </trkpt>
      <trkpt lat="44.33175" lon="5.83384">
        <ele>591</ele>
        <time>2019-03-29T16:13:57Z</time>
      </trkpt>
      <trkpt lat="44.33167" lon="5.83385">
        <ele>591</ele>
        <time>2019-03-29T16:13:58Z</time>
      </trkpt>
      <trkpt lat="44.33159" lon="5.83387">
        <ele>591</ele>
        <time>2019-03-29T16:13:59Z</time>
      </trkpt>
      <trkpt lat="44.33152" lon="5.83388">
        <ele>591</ele>
        <time>2019-03-29T16:14:00Z</time>
      </trkpt>
      <trkpt lat="44.33144" lon="5.83389">
        <ele>591</ele>
        <time>2019-03-29T16:14:01Z</time>
      </trkpt>
      <trkpt lat="44.33137" lon="5.8339">
        <ele>591</ele>
        <time>2019-03-29T16:14:02Z</time>
      </trkpt>
      <trkpt lat="44.33129" lon="5.83391">
        <ele>591</ele>
        <time>2019-03-29T16:14:03Z</time>
      </trkpt>
      <trkpt lat="44.33122" lon="5.83392">
        <ele>591</ele>
        <time>2019-03-29T16:14:04Z</time>
      </trkpt>
      <trkpt lat="44.33114" lon="5.83392">
        <ele>590</ele>
        <time>2019-03-29T16:14:05Z</time>
      </trkpt>
      <trkpt lat="44.33107" lon="5.83393">
        <ele>590</ele>
        <time>2019-03-29T16:14:06Z</time>
      </trkpt>
      <trkpt lat="44.331" lon="5.83394">
        <ele>590</ele>
        <time>2019-03-29T16:14:07Z</time>
      </trkpt>
      <trkpt lat="44.33093" lon="5.83395">
        <ele>590</ele>
        <time>2019-03-29T16:14:08Z</time>
      </trkpt>
      <trkpt lat="44.33086" lon="5.83395">
        <ele>590</ele>
        <time>2019-03-29T16:14:09Z</time>
      </trkpt>
      <trkpt lat="44.33079" lon="5.83396">
        <ele>590</ele>
        <time>2019-03-29T16:14:10Z</time>
      </trkpt>
      <trkpt lat="44.33072" lon="5.83396">
        <ele>590</ele>
        <time>2019-03-29T16:14:11Z</time>
      </trkpt>
      <trkpt lat="44.33065" lon="5.83396">
        <ele>590</ele>
        <time>2019-03-29T16:14:12Z</time>
      </trkpt>
      <trkpt lat="44.33059" lon="5.83396">
        <ele>590</ele>
        <time>2019-03-29T16:14:13Z</time>
      </trkpt>
      <trkpt lat="44.33052" lon="5.83396">
        <ele>590</ele>
        <time>2019-03-29T16:14:14Z</time>
      </trkpt>
      <trkpt lat="44.33046" lon="5.83395">
        <ele>590</ele>
        <time>2019-03-29T16:14:15Z</time>
      </trkpt>
      <trkpt lat="44.3304" lon="5.83395">
        <ele>590</ele>
        <time>2019-03-29T16:14:16Z</time>
      </trkpt>
      <trkpt lat="44.33033" lon="5.83395">
        <ele>590</ele>
        <time>2019-03-29T16:14:17Z</time>
      </trkpt>
      <trkpt lat="44.33028" lon="5.83394">
        <ele>590</ele>
        <time>2019-03-29T16:14:18Z</time>
      </trkpt>
      <trkpt lat="44.33021" lon="5.83394">
        <ele>590</ele>
        <time>2019-03-29T16:14:19Z</time>
      </trkpt>
      <trkpt lat="44.33015" lon="5.83394">
        <ele>590</ele>
        <time>2019-03-29T16:14:20Z</time>
      </trkpt>
      <trkpt lat="44.3301" lon="5.83393">
        <ele>590</ele>
        <time>2019-03-29T16:14:21Z</time>
      </trkpt>
      <trkpt lat="44.33004" lon="5.83393">
        <ele>590</ele>
        <time>2019-03-29T16:14:22Z</time>
      </trkpt>
      <trkpt lat="44.32998" lon="5.83393">
        <ele>590</ele>
        <time>2019-03-29T16:14:23Z</time>
      </trkpt>
      <trkpt lat="44.32992" lon="5.83392">
        <ele>590</ele>
        <time>2019-03-29T16:14:24Z</time>
      </trkpt>
      <trkpt lat="44.32985" lon="5.83392">
        <ele>590</ele>
        <time>2019-03-29T16:14:25Z</time>
      </trkpt>
      <trkpt lat="44.32979" lon="5.83392">
        <ele>590</ele>
        <time>2019-03-29T16:14:26Z</time>
      </trkpt>
      <trkpt lat="44.32973" lon="5.83392">
        <ele>590</ele>
        <time>2019-03-29T16:14:27Z</time>
      </trkpt>
      <trkpt lat="44.32966" lon="5.83391">
        <ele>590</ele>
        <time>2019-03-29T16:14:28Z</time>
      </trkpt>
      <trkpt lat="44.32959" lon="5.83391">
        <ele>590</ele>
        <time>2019-03-29T16:14:29Z</time>
      </trkpt>
      <trkpt lat="44.32953" lon="5.83391">
        <ele>590</ele>
        <time>2019-03-29T16:14:30Z</time>
      </trkpt>
      <trkpt lat="44.32946" lon="5.8339">
        <ele>590</ele>
        <time>2019-03-29T16:14:31Z</time>
      </trkpt>
      <trkpt lat="44.32939" lon="5.8339">
        <ele>590</ele>
        <time>2019-03-29T16:14:32Z</time>
      </trkpt>
      <trkpt lat="44.32932" lon="5.8339">
        <ele>590</ele>
        <time>2019-03-29T16:14:33Z</time>
      </trkpt>
      <trkpt lat="44.32925" lon="5.83389">
        <ele>590</ele>
        <time>2019-03-29T16:14:34Z</time>
      </trkpt>
      <trkpt lat="44.32917" lon="5.83388">
        <ele>590</ele>
        <time>2019-03-29T16:14:35Z</time>
      </trkpt>
      <trkpt lat="44.32909" lon="5.83388">
        <ele>590</ele>
        <time>2019-03-29T16:14:36Z</time>
      </trkpt>
      <trkpt lat="44.32901" lon="5.83387">
        <ele>590</ele>
        <time>2019-03-29T16:14:37Z</time>
      </trkpt>
      <trkpt lat="44.32894" lon="5.83387">
        <ele>590</ele>
        <time>2019-03-29T16:14:38Z</time>
      </trkpt>
      <trkpt lat="44.32886" lon="5.83387">
        <ele>589</ele>
        <time>2019-03-29T16:14:39Z</time>
      </trkpt>
      <trkpt lat="44.32877" lon="5.83386">
        <ele>589</ele>
        <time>2019-03-29T16:14:40Z</time>
      </trkpt>
      <trkpt lat="44.32869" lon="5.83385">
        <ele>589</ele>
        <time>2019-03-29T16:14:41Z</time>
      </trkpt>
      <trkpt lat="44.32861" lon="5.83385">
        <ele>588</ele>
        <time>2019-03-29T16:14:42Z</time>
      </trkpt>
      <trkpt lat="44.32853" lon="5.83384">
        <ele>588</ele>
        <time>2019-03-29T16:14:43Z</time>
      </trkpt>
      <trkpt lat="44.32844" lon="5.83384">
        <ele>588</ele>
        <time>2019-03-29T16:14:44Z</time>
      </trkpt>
      <trkpt lat="44.32835" lon="5.83383">
        <ele>587</ele>
        <time>2019-03-29T16:14:45Z</time>
      </trkpt>
      <trkpt lat="44.32827" lon="5.83382">
        <ele>587</ele>
        <time>2019-03-29T16:14:46Z</time>
      </trkpt>
      <trkpt lat="44.32818" lon="5.8338">
        <ele>587</ele>
        <time>2019-03-29T16:14:47Z</time>
      </trkpt>
      <trkpt lat="44.3281" lon="5.83377">
        <ele>586</ele>
        <time>2019-03-29T16:14:48Z</time>
      </trkpt>
      <trkpt lat="44.32802" lon="5.83372">
        <ele>586</ele>
        <time>2019-03-29T16:14:49Z</time>
      </trkpt>
      <trkpt lat="44.32794" lon="5.83367">
        <ele>586</ele>
        <time>2019-03-29T16:14:50Z</time>
      </trkpt>
      <trkpt lat="44.32787" lon="5.83362">
        <ele>585</ele>
        <time>2019-03-29T16:14:51Z</time>
      </trkpt>
      <trkpt lat="44.3278" lon="5.83357">
        <ele>585</ele>
        <time>2019-03-29T16:14:52Z</time>
      </trkpt>
      <trkpt lat="44.32772" lon="5.83352">
        <ele>584</ele>
        <time>2019-03-29T16:14:53Z</time>
      </trkpt>
      <trkpt lat="44.32765" lon="5.83347">
        <ele>584</ele>
        <time>2019-03-29T16:14:54Z</time>
      </trkpt>
      <trkpt lat="44.32758" lon="5.83341">
        <ele>584</ele>
        <time>2019-03-29T16:14:55Z</time>
      </trkpt>
      <trkpt lat="44.32751" lon="5.83336">
        <ele>583</ele>
        <time>2019-03-29T16:14:56Z</time>
      </trkpt>
      <trkpt lat="44.32743" lon="5.83331">
        <ele>583</ele>
        <time>2019-03-29T16:14:57Z</time>
      </trkpt>
      <trkpt lat="44.32736" lon="5.83325">
        <ele>583</ele>
        <time>2019-03-29T16:14:58Z</time>
      </trkpt>
      <trkpt lat="44.32729" lon="5.8332">
        <ele>583</ele>
        <time>2019-03-29T16:14:59Z</time>
      </trkpt>
      <trkpt lat="44.32722" lon="5.83315">
        <ele>583</ele>
        <time>2019-03-29T16:15:00Z</time>
      </trkpt>
      <trkpt lat="44.32714" lon="5.8331">
        <ele>583</ele>
        <time>2019-03-29T16:15:01Z</time>
      </trkpt>
      <trkpt lat="44.32707" lon="5.83305">
        <ele>583</ele>
        <time>2019-03-29T16:15:02Z</time>
      </trkpt>
      <trkpt lat="44.327" lon="5.83299">
        <ele>583</ele>
        <time>2019-03-29T16:15:03Z</time>
      </trkpt>
      <trkpt lat="44.32693" lon="5.83294">
        <ele>583</ele>
        <time>2019-03-29T16:15:04Z</time>
      </trkpt>
      <trkpt lat="44.32686" lon="5.83288">
        <ele>582</ele>
        <time>2019-03-29T16:15:05Z</time>
      </trkpt>
      <trkpt lat="44.32678" lon="5.83283">
        <ele>582</ele>
        <time>2019-03-29T16:15:06Z</time>
      </trkpt>
      <trkpt lat="44.32671" lon="5.83278">
        <ele>582</ele>
        <time>2019-03-29T16:15:07Z</time>
      </trkpt>
      <trkpt lat="44.32664" lon="5.83273">
        <ele>582</ele>
        <time>2019-03-29T16:15:08Z</time>
      </trkpt>
      <trkpt lat="44.32657" lon="5.83268">
        <ele>582</ele>
        <time>2019-03-29T16:15:09Z</time>
      </trkpt>
      <trkpt lat="44.32649" lon="5.83263">
        <ele>582</ele>
        <time>2019-03-29T16:15:10Z</time>
      </trkpt>
      <trkpt lat="44.32642" lon="5.83258">
        <ele>582</ele>
        <time>2019-03-29T16:15:11Z</time>
      </trkpt>
      <trkpt lat="44.32635" lon="5.83253">
        <ele>582</ele>
        <time>2019-03-29T16:15:12Z</time>
      </trkpt>
      <trkpt lat="44.32629" lon="5.83247">
        <ele>582</ele>
        <time>2019-03-29T16:15:13Z</time>
      </trkpt>
      <trkpt lat="44.32621" lon="5.83242">
        <ele>582</ele>
        <time>2019-03-29T16:15:14Z</time>
      </trkpt>
      <trkpt lat="44.32614" lon="5.83238">
        <ele>582</ele>
        <time>2019-03-29T16:15:15Z</time>
      </trkpt>
      <trkpt lat="44.32607" lon="5.83233">
        <ele>582</ele>
        <time>2019-03-29T16:15:16Z</time>
      </trkpt>
      <trkpt lat="44.32599" lon="5.83228">
        <ele>582</ele>
        <time>2019-03-29T16:15:17Z</time>
      </trkpt>
      <trkpt lat="44.32592" lon="5.83224">
        <ele>582</ele>
        <time>2019-03-29T16:15:18Z</time>
      </trkpt>
      <trkpt lat="44.32584" lon="5.8322">
        <ele>582</ele>
        <time>2019-03-29T16:15:19Z</time>
      </trkpt>
      <trkpt lat="44.32577" lon="5.83216">
        <ele>582</ele>
        <time>2019-03-29T16:15:20Z</time>
      </trkpt>
      <trkpt lat="44.32569" lon="5.83213">
        <ele>582</ele>
        <time>2019-03-29T16:15:21Z</time>
      </trkpt>
      <trkpt lat="44.32561" lon="5.8321">
        <ele>582</ele>
        <time>2019-03-29T16:15:22Z</time>
      </trkpt>
      <trkpt lat="44.32554" lon="5.83206">
        <ele>582</ele>
        <time>2019-03-29T16:15:23Z</time>
      </trkpt>
      <trkpt lat="44.32546" lon="5.83203">
        <ele>582</ele>
        <time>2019-03-29T16:15:24Z</time>
      </trkpt>
      <trkpt lat="44.32538" lon="5.83199">
        <ele>581</ele>
        <time>2019-03-29T16:15:25Z</time>
      </trkpt>
      <trkpt lat="44.32531" lon="5.83195">
        <ele>581</ele>
        <time>2019-03-29T16:15:26Z</time>
      </trkpt>
      <trkpt lat="44.32523" lon="5.83192">
        <ele>581</ele>
        <time>2019-03-29T16:15:27Z</time>
      </trkpt>
      <trkpt lat="44.32516" lon="5.83189">
        <ele>581</ele>
        <time>2019-03-29T16:15:28Z</time>
      </trkpt>
      <trkpt lat="44.32508" lon="5.83185">
        <ele>581</ele>
        <time>2019-03-29T16:15:29Z</time>
      </trkpt>
      <trkpt lat="44.32501" lon="5.83182">
        <ele>581</ele>
        <time>2019-03-29T16:15:30Z</time>
      </trkpt>
      <trkpt lat="44.32494" lon="5.83178">
        <ele>581</ele>
        <time>2019-03-29T16:15:31Z</time>
      </trkpt>
      <trkpt lat="44.32486" lon="5.83174">
        <ele>581</ele>
        <time>2019-03-29T16:15:32Z</time>
      </trkpt>
      <trkpt lat="44.32479" lon="5.8317">
        <ele>581</ele>
        <time>2019-03-29T16:15:33Z</time>
      </trkpt>
      <trkpt lat="44.32473" lon="5.83165">
        <ele>581</ele>
        <time>2019-03-29T16:15:34Z</time>
      </trkpt>
      <trkpt lat="44.32466" lon="5.8316">
        <ele>581</ele>
        <time>2019-03-29T16:15:35Z</time>
      </trkpt>
      <trkpt lat="44.3246" lon="5.83155">
        <ele>581</ele>
        <time>2019-03-29T16:15:36Z</time>
      </trkpt>
      <trkpt lat="44.32454" lon="5.8315">
        <ele>581</ele>
        <time>2019-03-29T16:15:37Z</time>
      </trkpt>
      <trkpt lat="44.32449" lon="5.83145">
        <ele>581</ele>
        <time>2019-03-29T16:15:38Z</time>
      </trkpt>
      <trkpt lat="44.32443" lon="5.83139">
        <ele>581</ele>
        <time>2019-03-29T16:15:39Z</time>
      </trkpt>
      <trkpt lat="44.32437" lon="5.83134">
        <ele>581</ele>
        <time>2019-03-29T16:15:40Z</time>
      </trkpt>
      <trkpt lat="44.32431" lon="5.83128">
        <ele>581</ele>
        <time>2019-03-29T16:15:41Z</time>
      </trkpt>
      <trkpt lat="44.32426" lon="5.83123">
        <ele>581</ele>
        <time>2019-03-29T16:15:42Z</time>
      </trkpt>
      <trkpt lat="44.3242" lon="5.83117">
        <ele>581</ele>
        <time>2019-03-29T16:15:43Z</time>
      </trkpt>
      <trkpt lat="44.32414" lon="5.83111">
        <ele>581</ele>
        <time>2019-03-29T16:15:44Z</time>
      </trkpt>
      <trkpt lat="44.32409" lon="5.83104">
        <ele>581</ele>
        <time>2019-03-29T16:15:45Z</time>
      </trkpt>
      <trkpt lat="44.32404" lon="5.83097">
        <ele>581</ele>
        <time>2019-03-29T16:15:46Z</time>
      </trkpt>
      <trkpt lat="44.32399" lon="5.8309">
        <ele>581</ele>
        <time>2019-03-29T16:15:47Z</time>
      </trkpt>
      <trkpt lat="44.32395" lon="5.83082">
        <ele>581</ele>
        <time>2019-03-29T16:15:48Z</time>
      </trkpt>
      <trkpt lat="44.32391" lon="5.83074">
        <ele>581</ele>
        <time>2019-03-29T16:15:49Z</time>
      </trkpt>
      <trkpt lat="44.32387" lon="5.83066">
        <ele>581</ele>
        <time>2019-03-29T16:15:50Z</time>
      </trkpt>
      <trkpt lat="44.32384" lon="5.83057">
        <ele>581</ele>
        <time>2019-03-29T16:15:51Z</time>
      </trkpt>
      <trkpt lat="44.32381" lon="5.83048">
        <ele>581</ele>
        <time>2019-03-29T16:15:52Z</time>
      </trkpt>
      <trkpt lat="44.32378" lon="5.8304">
        <ele>581</ele>
        <time>2019-03-29T16:15:53Z</time>
      </trkpt>
      <trkpt lat="44.32376" lon="5.83031">
        <ele>581</ele>
        <time>2019-03-29T16:15:54Z</time>
      </trkpt>
      <trkpt lat="44.32374" lon="5.83022">
        <ele>581</ele>
        <time>2019-03-29T16:15:55Z</time>
      </trkpt>
      <trkpt lat="44.32371" lon="5.83013">
        <ele>581</ele>
        <time>2019-03-29T16:15:56Z</time>
      </trkpt>
      <trkpt lat="44.32369" lon="5.83005">
        <ele>581</ele>
        <time>2019-03-29T16:15:57Z</time>
      </trkpt>
      <trkpt lat="44.32365" lon="5.82997">
        <ele>581</ele>
        <time>2019-03-29T16:15:58Z</time>
      </trkpt>
      <trkpt lat="44.32362" lon="5.82989">
        <ele>581</ele>
        <time>2019-03-29T16:15:59Z</time>
      </trkpt>
      <trkpt lat="44.32357" lon="5.82983">
        <ele>581</ele>
        <time>2019-03-29T16:16:00Z</time>
      </trkpt>
      <trkpt lat="44.32352" lon="5.82977">
        <ele>581</ele>
        <time>2019-03-29T16:16:01Z</time>
      </trkpt>
      <trkpt lat="44.32346" lon="5.82971">
        <ele>581</ele>
        <time>2019-03-29T16:16:02Z</time>
      </trkpt>
      <trkpt lat="44.32341" lon="5.82966">
        <ele>581</ele>
        <time>2019-03-29T16:16:03Z</time>
      </trkpt>
      <trkpt lat="44.32335" lon="5.82961">
        <ele>581</ele>
        <time>2019-03-29T16:16:04Z</time>
      </trkpt>
      <trkpt lat="44.32328" lon="5.82957">
        <ele>581</ele>
        <time>2019-03-29T16:16:05Z</time>
      </trkpt>
      <trkpt lat="44.32321" lon="5.82953">
        <ele>581</ele>
        <time>2019-03-29T16:16:06Z</time>
      </trkpt>
      <trkpt lat="44.32314" lon="5.8295">
        <ele>581</ele>
        <time>2019-03-29T16:16:07Z</time>
      </trkpt>
      <trkpt lat="44.32307" lon="5.82946">
        <ele>581</ele>
        <time>2019-03-29T16:16:08Z</time>
      </trkpt>
      <trkpt lat="44.323" lon="5.82942">
        <ele>581</ele>
        <time>2019-03-29T16:16:09Z</time>
      </trkpt>
      <trkpt lat="44.32292" lon="5.82939">
        <ele>581</ele>
        <time>2019-03-29T16:16:10Z</time>
      </trkpt>
      <trkpt lat="44.32285" lon="5.82935">
        <ele>581</ele>
        <time>2019-03-29T16:16:11Z</time>
      </trkpt>
      <trkpt lat="44.32277" lon="5.82932">
        <ele>581</ele>
        <time>2019-03-29T16:16:12Z</time>
      </trkpt>
      <trkpt lat="44.32269" lon="5.82928">
        <ele>581</ele>
        <time>2019-03-29T16:16:13Z</time>
      </trkpt>
      <trkpt lat="44.32262" lon="5.82924">
        <ele>581</ele>
        <time>2019-03-29T16:16:14Z</time>
      </trkpt>
      <trkpt lat="44.32254" lon="5.82921">
        <ele>581</ele>
        <time>2019-03-29T16:16:15Z</time>
      </trkpt>
      <trkpt lat="44.32247" lon="5.82917">
        <ele>580</ele>
        <time>2019-03-29T16:16:16Z</time>
      </trkpt>
      <trkpt lat="44.3224" lon="5.82913">
        <ele>580</ele>
        <time>2019-03-29T16:16:17Z</time>
      </trkpt>
      <trkpt lat="44.32233" lon="5.8291">
        <ele>580</ele>
        <time>2019-03-29T16:16:18Z</time>
      </trkpt>
      <trkpt lat="44.32225" lon="5.82906">
        <ele>580</ele>
        <time>2019-03-29T16:16:19Z</time>
      </trkpt>
      <trkpt lat="44.32218" lon="5.82902">
        <ele>579</ele>
        <time>2019-03-29T16:16:20Z</time>
      </trkpt>
      <trkpt lat="44.3221" lon="5.82898">
        <ele>579</ele>
        <time>2019-03-29T16:16:21Z</time>
      </trkpt>
      <trkpt lat="44.32203" lon="5.82895">
        <ele>579</ele>
        <time>2019-03-29T16:16:22Z</time>
      </trkpt>
      <trkpt lat="44.32196" lon="5.82891">
        <ele>578</ele>
        <time>2019-03-29T16:16:23Z</time>
      </trkpt>
      <trkpt lat="44.32188" lon="5.82888">
        <ele>578</ele>
        <time>2019-03-29T16:16:24Z</time>
      </trkpt>
      <trkpt lat="44.32181" lon="5.82884">
        <ele>578</ele>
        <time>2019-03-29T16:16:25Z</time>
      </trkpt>
      <trkpt lat="44.32174" lon="5.8288">
        <ele>578</ele>
        <time>2019-03-29T16:16:26Z</time>
      </trkpt>
      <trkpt lat="44.32167" lon="5.82877">
        <ele>578</ele>
        <time>2019-03-29T16:16:27Z</time>
      </trkpt>
      <trkpt lat="44.3216" lon="5.82874">
        <ele>578</ele>
        <time>2019-03-29T16:16:28Z</time>
      </trkpt>
      <trkpt lat="44.32153" lon="5.8287">
        <ele>577</ele>
        <time>2019-03-29T16:16:29Z</time>
      </trkpt>
      <trkpt lat="44.32146" lon="5.82868">
        <ele>577</ele>
        <time>2019-03-29T16:16:30Z</time>
      </trkpt>
      <trkpt lat="44.32138" lon="5.82866">
        <ele>577</ele>
        <time>2019-03-29T16:16:31Z</time>
      </trkpt>
      <trkpt lat="44.32131" lon="5.82864">
        <ele>577</ele>
        <time>2019-03-29T16:16:32Z</time>
      </trkpt>
      <trkpt lat="44.32124" lon="5.82862">
        <ele>577</ele>
        <time>2019-03-29T16:16:33Z</time>
      </trkpt>
      <trkpt lat="44.32117" lon="5.8286">
        <ele>577</ele>
        <time>2019-03-29T16:16:34Z</time>
      </trkpt>
      <trkpt lat="44.32109" lon="5.82858">
        <ele>577</ele>
        <time>2019-03-29T16:16:35Z</time>
      </trkpt>
      <trkpt lat="44.32102" lon="5.82856">
        <ele>577</ele>
        <time>2019-03-29T16:16:36Z</time>
      </trkpt>
      <trkpt lat="44.32095" lon="5.82854">
        <ele>577</ele>
        <time>2019-03-29T16:16:37Z</time>
      </trkpt>
      <trkpt lat="44.32088" lon="5.82851">
        <ele>577</ele>
        <time>2019-03-29T16:16:38Z</time>
      </trkpt>
      <trkpt lat="44.3208" lon="5.82848">
        <ele>577</ele>
        <time>2019-03-29T16:16:39Z</time>
      </trkpt>
      <trkpt lat="44.32073" lon="5.82844">
        <ele>577</ele>
        <time>2019-03-29T16:16:40Z</time>
      </trkpt>
      <trkpt lat="44.32066" lon="5.8284">
        <ele>577</ele>
        <time>2019-03-29T16:16:41Z</time>
      </trkpt>
      <trkpt lat="44.32059" lon="5.82835">
        <ele>576</ele>
        <time>2019-03-29T16:16:42Z</time>
      </trkpt>
      <trkpt lat="44.32052" lon="5.8283">
        <ele>576</ele>
        <time>2019-03-29T16:16:43Z</time>
      </trkpt>
      <trkpt lat="44.32045" lon="5.82825">
        <ele>576</ele>
        <time>2019-03-29T16:16:44Z</time>
      </trkpt>
      <trkpt lat="44.32037" lon="5.8282">
        <ele>575</ele>
        <time>2019-03-29T16:16:45Z</time>
      </trkpt>
      <trkpt lat="44.3203" lon="5.82815">
        <ele>575</ele>
        <time>2019-03-29T16:16:46Z</time>
      </trkpt>
      <trkpt lat="44.32022" lon="5.8281">
        <ele>574</ele>
        <time>2019-03-29T16:16:47Z</time>
      </trkpt>
      <trkpt lat="44.32015" lon="5.82806">
        <ele>573</ele>
        <time>2019-03-29T16:16:48Z</time>
      </trkpt>
      <trkpt lat="44.32007" lon="5.82801">
        <ele>573</ele>
        <time>2019-03-29T16:16:49Z</time>
      </trkpt>
      <trkpt lat="44.31999" lon="5.82797">
        <ele>573</ele>
        <time>2019-03-29T16:16:50Z</time>
      </trkpt>
      <trkpt lat="44.3199" lon="5.82794">
        <ele>572</ele>
        <time>2019-03-29T16:16:51Z</time>
      </trkpt>
      <trkpt lat="44.31982" lon="5.82791">
        <ele>572</ele>
        <time>2019-03-29T16:16:52Z</time>
      </trkpt>
      <trkpt lat="44.31974" lon="5.82787">
        <ele>571</ele>
        <time>2019-03-29T16:16:53Z</time>
      </trkpt>
      <trkpt lat="44.31965" lon="5.82784">
        <ele>571</ele>
        <time>2019-03-29T16:16:54Z</time>
      </trkpt>
      <trkpt lat="44.31957" lon="5.8278">
        <ele>571</ele>
        <time>2019-03-29T16:16:55Z</time>
      </trkpt>
      <trkpt lat="44.31948" lon="5.82777">
        <ele>570</ele>
        <time>2019-03-29T16:16:56Z</time>
      </trkpt>
      <trkpt lat="44.31939" lon="5.82775">
        <ele>570</ele>
        <time>2019-03-29T16:16:57Z</time>
      </trkpt>
      <trkpt lat="44.31931" lon="5.82773">
        <ele>570</ele>
        <time>2019-03-29T16:16:58Z</time>
      </trkpt>
      <trkpt lat="44.31922" lon="5.82771">
        <ele>570</ele>
        <time>2019-03-29T16:16:59Z</time>
      </trkpt>
      <trkpt lat="44.31913" lon="5.82771">
        <ele>570</ele>
        <time>2019-03-29T16:17:00Z</time>
      </trkpt>
      <trkpt lat="44.31905" lon="5.8277">
        <ele>570</ele>
        <time>2019-03-29T16:17:01Z</time>
      </trkpt>
      <trkpt lat="44.31896" lon="5.8277">
        <ele>569</ele>
        <time>2019-03-29T16:17:02Z</time>
      </trkpt>
      <trkpt lat="44.31887" lon="5.8277">
        <ele>569</ele>
        <time>2019-03-29T16:17:03Z</time>
      </trkpt>
      <trkpt lat="44.31879" lon="5.82769">
        <ele>569</ele>
        <time>2019-03-29T16:17:04Z</time>
      </trkpt>
      <trkpt lat="44.3187" lon="5.82767">
        <ele>569</ele>
        <time>2019-03-29T16:17:05Z</time>
      </trkpt>
      <trkpt lat="44.31861" lon="5.82765">
        <ele>568</ele>
        <time>2019-03-29T16:17:06Z</time>
      </trkpt>
      <trkpt lat="44.31853" lon="5.82763">
        <ele>568</ele>
        <time>2019-03-29T16:17:07Z</time>
      </trkpt>
      <trkpt lat="44.31845" lon="5.82759">
        <ele>568</ele>
        <time>2019-03-29T16:17:08Z</time>
      </trkpt>
      <trkpt lat="44.31837" lon="5.82754">
        <ele>568</ele>
        <time>2019-03-29T16:17:09Z</time>
      </trkpt>
      <trkpt lat="44.31829" lon="5.8275">
        <ele>567</ele>
        <time>2019-03-29T16:17:10Z</time>
      </trkpt>
      <trkpt lat="44.31821" lon="5.82744">
        <ele>567</ele>
        <time>2019-03-29T16:17:11Z</time>
      </trkpt>
      <trkpt lat="44.31814" lon="5.82738">
        <ele>567</ele>
        <time>2019-03-29T16:17:12Z</time>
      </trkpt>
      <trkpt lat="44.31807" lon="5.82731">
        <ele>566</ele>
        <time>2019-03-29T16:17:13Z</time>
      </trkpt>
      <trkpt lat="44.31801" lon="5.82725">
        <ele>566</ele>
        <time>2019-03-29T16:17:14Z</time>
      </trkpt>
      <trkpt lat="44.31794" lon="5.82718">
        <ele>566</ele>
        <time>2019-03-29T16:17:15Z</time>
      </trkpt>
      <trkpt lat="44.31788" lon="5.82712">
        <ele>566</ele>
        <time>2019-03-29T16:17:16Z</time>
      </trkpt>
      <trkpt lat="44.31781" lon="5.82705">
        <ele>566</ele>
        <time>2019-03-29T16:17:17Z</time>
      </trkpt>
      <trkpt lat="44.31775" lon="5.82699">
        <ele>566</ele>
        <time>2019-03-29T16:17:18Z</time>
      </trkpt>
      <trkpt lat="44.31769" lon="5.82692">
        <ele>565</ele>
        <time>2019-03-29T16:17:19Z</time>
      </trkpt>
      <trkpt lat="44.31762" lon="5.82686">
        <ele>565</ele>
        <time>2019-03-29T16:17:20Z</time>
      </trkpt>
      <trkpt lat="44.31756" lon="5.8268">
        <ele>565</ele>
        <time>2019-03-29T16:17:21Z</time>
      </trkpt>
      <trkpt lat="44.3175" lon="5.82673">
        <ele>565</ele>
        <time>2019-03-29T16:17:22Z</time>
      </trkpt>
      <trkpt lat="44.31744" lon="5.82667">
        <ele>565</ele>
        <time>2019-03-29T16:17:23Z</time>
      </trkpt>
      <trkpt lat="44.31738" lon="5.82661">
        <ele>565</ele>
        <time>2019-03-29T16:17:24Z</time>
      </trkpt>
      <trkpt lat="44.31732" lon="5.82655">
        <ele>565</ele>
        <time>2019-03-29T16:17:25Z</time>
      </trkpt>
      <trkpt lat="44.31726" lon="5.82649">
        <ele>565</ele>
        <time>2019-03-29T16:17:26Z</time>
      </trkpt>
      <trkpt lat="44.3172" lon="5.82643">
        <ele>565</ele>
        <time>2019-03-29T16:17:27Z</time>
      </trkpt>
      <trkpt lat="44.31714" lon="5.82637">
        <ele>564</ele>
        <time>2019-03-29T16:17:28Z</time>
      </trkpt>
      <trkpt lat="44.31708" lon="5.82631">
        <ele>564</ele>
        <time>2019-03-29T16:17:29Z</time>
      </trkpt>
      <trkpt lat="44.31703" lon="5.82624">
        <ele>564</ele>
        <time>2019-03-29T16:17:30Z</time>
      </trkpt>
      <trkpt lat="44.31697" lon="5.82619">
        <ele>564</ele>
        <time>2019-03-29T16:17:31Z</time>
      </trkpt>
      <trkpt lat="44.31692" lon="5.82613">
        <ele>563</ele>
        <time>2019-03-29T16:17:32Z</time>
      </trkpt>
      <trkpt lat="44.31686" lon="5.82607">
        <ele>563</ele>
        <time>2019-03-29T16:17:33Z</time>
      </trkpt>
      <trkpt lat="44.31681" lon="5.82602">
        <ele>563</ele>
        <time>2019-03-29T16:17:34Z</time>
      </trkpt>
      <trkpt lat="44.31676" lon="5.82596">
        <ele>563</ele>
        <time>2019-03-29T16:17:35Z</time>
      </trkpt>
      <trkpt lat="44.3167" lon="5.82591">
        <ele>563</ele>
        <time>2019-03-29T16:17:36Z</time>
      </trkpt>
      <trkpt lat="44.31665" lon="5.82587">
        <ele>563</ele>
        <time>2019-03-29T16:17:37Z</time>
      </trkpt>
      <trkpt lat="44.3166" lon="5.82582">
        <ele>563</ele>
        <time>2019-03-29T16:17:38Z</time>
      </trkpt>
      <trkpt lat="44.31655" lon="5.82577">
        <ele>563</ele>
        <time>2019-03-29T16:17:39Z</time>
      </trkpt>
      <trkpt lat="44.3165" lon="5.82572">
        <ele>563</ele>
        <time>2019-03-29T16:17:40Z</time>
      </trkpt>
      <trkpt lat="44.31645" lon="5.82567">
        <ele>563</ele>
        <time>2019-03-29T16:17:41Z</time>
      </trkpt>
      <trkpt lat="44.31641" lon="5.82562">
        <ele>563</ele>
        <time>2019-03-29T16:17:42Z</time>
      </trkpt>
      <trkpt lat="44.31636" lon="5.82558">
        <ele>563</ele>
        <time>2019-03-29T16:17:43Z</time>
      </trkpt>
      <trkpt lat="44.31632" lon="5.82553">
        <ele>563</ele>
        <time>2019-03-29T16:17:44Z</time>
      </trkpt>
      <trkpt lat="44.31628" lon="5.82549">
        <ele>563</ele>
        <time>2019-03-29T16:17:45Z</time>
      </trkpt>
      <trkpt lat="44.31623" lon="5.82546">
        <ele>563</ele>
        <time>2019-03-29T16:17:46Z</time>
      </trkpt>
      <trkpt lat="44.31618" lon="5.82543">
        <ele>563</ele>
        <time>2019-03-29T16:17:47Z</time>
      </trkpt>
      <trkpt lat="44.31614" lon="5.82539">
        <ele>563</ele>
        <time>2019-03-29T16:17:48Z</time>
      </trkpt>
      <trkpt lat="44.31609" lon="5.82535">
        <ele>563</ele>
        <time>2019-03-29T16:17:49Z</time>
      </trkpt>
      <trkpt lat="44.31605" lon="5.8253">
        <ele>563</ele>
        <time>2019-03-29T16:17:50Z</time>
      </trkpt>
      <trkpt lat="44.31601" lon="5.82525">
        <ele>563</ele>
        <time>2019-03-29T16:17:51Z</time>
      </trkpt>
      <trkpt lat="44.31597" lon="5.8252">
        <ele>563</ele>
        <time>2019-03-29T16:17:52Z</time>
      </trkpt>
      <trkpt lat="44.31592" lon="5.82515">
        <ele>563</ele>
        <time>2019-03-29T16:17:53Z</time>
      </trkpt>
      <trkpt lat="44.31588" lon="5.82511">
        <ele>563</ele>
        <time>2019-03-29T16:17:54Z</time>
      </trkpt>
      <trkpt lat="44.31584" lon="5.82506">
        <ele>563</ele>
        <time>2019-03-29T16:17:55Z</time>
      </trkpt>
      <trkpt lat="44.31579" lon="5.82501">
        <ele>563</ele>
        <time>2019-03-29T16:17:56Z</time>
      </trkpt>
      <trkpt lat="44.31575" lon="5.82496">
        <ele>563</ele>
        <time>2019-03-29T16:17:57Z</time>
      </trkpt>
      <trkpt lat="44.3157" lon="5.82491">
        <ele>563</ele>
        <time>2019-03-29T16:17:58Z</time>
      </trkpt>
      <trkpt lat="44.31565" lon="5.82487">
        <ele>563</ele>
        <time>2019-03-29T16:17:59Z</time>
      </trkpt>
      <trkpt lat="44.31561" lon="5.82483">
        <ele>563</ele>
        <time>2019-03-29T16:18:00Z</time>
      </trkpt>
      <trkpt lat="44.31556" lon="5.82478">
        <ele>563</ele>
        <time>2019-03-29T16:18:01Z</time>
      </trkpt>
      <trkpt lat="44.31552" lon="5.82474">
        <ele>563</ele>
        <time>2019-03-29T16:18:02Z</time>
      </trkpt>
      <trkpt lat="44.31547" lon="5.82469">
        <ele>563</ele>
        <time>2019-03-29T16:18:03Z</time>
      </trkpt>
      <trkpt lat="44.31543" lon="5.82465">
        <ele>563</ele>
        <time>2019-03-29T16:18:04Z</time>
      </trkpt>
      <trkpt lat="44.31538" lon="5.8246">
        <ele>563</ele>
        <time>2019-03-29T16:18:05Z</time>
      </trkpt>
      <trkpt lat="44.31534" lon="5.82455">
        <ele>563</ele>
        <time>2019-03-29T16:18:06Z</time>
      </trkpt>
      <trkpt lat="44.3153" lon="5.8245">
        <ele>563</ele>
        <time>2019-03-29T16:18:07Z</time>
      </trkpt>
      <trkpt lat="44.31526" lon="5.82446">
        <ele>563</ele>
        <time>2019-03-29T16:18:08Z</time>
      </trkpt>
      <trkpt lat="44.31522" lon="5.82442">
        <ele>563</ele>
        <time>2019-03-29T16:18:09Z</time>
      </trkpt>
      <trkpt lat="44.31518" lon="5.82439">
        <ele>563</ele>
        <time>2019-03-29T16:18:10Z</time>
      </trkpt>
      <trkpt lat="44.31514" lon="5.82434">
        <ele>563</ele>
        <time>2019-03-29T16:18:11Z</time>
      </trkpt>
      <trkpt lat="44.31509" lon="5.8243">
        <ele>563</ele>
        <time>2019-03-29T16:18:12Z</time>
      </trkpt>
      <trkpt lat="44.31504" lon="5.82425">
        <ele>563</ele>
        <time>2019-03-29T16:18:13Z</time>
      </trkpt>
      <trkpt lat="44.31499" lon="5.8242">
        <ele>563</ele>
        <time>2019-03-29T16:18:14Z</time>
      </trkpt>
      <trkpt lat="44.31495" lon="5.82415">
        <ele>563</ele>
        <time>2019-03-29T16:18:15Z</time>
      </trkpt>
      <trkpt lat="44.31491" lon="5.8241">
        <ele>563</ele>
        <time>2019-03-29T16:18:16Z</time>
      </trkpt>
      <trkpt lat="44.31487" lon="5.82405">
        <ele>563</ele>
        <time>2019-03-29T16:18:17Z</time>
      </trkpt>
      <trkpt lat="44.31484" lon="5.824">
        <ele>563</ele>
        <time>2019-03-29T16:18:18Z</time>
      </trkpt>
      <trkpt lat="44.31481" lon="5.82397">
        <ele>563</ele>
        <time>2019-03-29T16:18:19Z</time>
      </trkpt>
      <trkpt lat="44.31478" lon="5.82393">
        <ele>563</ele>
        <time>2019-03-29T16:18:20Z</time>
      </trkpt>
      <trkpt lat="44.31474" lon="5.82389">
        <ele>563</ele>
        <time>2019-03-29T16:18:21Z</time>
      </trkpt>
      <trkpt lat="44.3147" lon="5.82387">
        <ele>563</ele>
        <time>2019-03-29T16:18:22Z</time>
      </trkpt>
      <trkpt lat="44.31467" lon="5.82384">
        <ele>564</ele>
        <time>2019-03-29T16:18:23Z</time>
      </trkpt>
      <trkpt lat="44.31465" lon="5.82381">
        <ele>564</ele>
        <time>2019-03-29T16:18:24Z</time>
      </trkpt>
      <trkpt lat="44.31464" lon="5.82378">
        <ele>565</ele>
        <time>2019-03-29T16:18:25Z</time>
      </trkpt>
      <trkpt lat="44.31462" lon="5.82375">
        <ele>565</ele>
        <time>2019-03-29T16:18:26Z</time>
      </trkpt>
      <trkpt lat="44.31459" lon="5.82373">
        <ele>566</ele>
        <time>2019-03-29T16:18:27Z</time>
      </trkpt>
      <trkpt lat="44.31456" lon="5.82371">
        <ele>566</ele>
        <time>2019-03-29T16:18:28Z</time>
      </trkpt>
      <trkpt lat="44.31455" lon="5.82368">
        <ele>567</ele>
        <time>2019-03-29T16:18:29Z</time>
      </trkpt>
      <trkpt lat="44.31454" lon="5.82367">
        <ele>568</ele>
        <time>2019-03-29T16:18:30Z</time>
      </trkpt>
      <trkpt lat="44.31453" lon="5.82365">
        <ele>569</ele>
        <time>2019-03-29T16:18:31Z</time>
      </trkpt>
      <trkpt lat="44.31451" lon="5.82366">
        <ele>570</ele>
        <time>2019-03-29T16:18:32Z</time>
      </trkpt>
      <trkpt lat="44.3145" lon="5.82365">
        <ele>571</ele>
        <time>2019-03-29T16:18:33Z</time>
      </trkpt>
      <trkpt lat="44.31448" lon="5.82366">
        <ele>572</ele>
        <time>2019-03-29T16:18:34Z</time>
      </trkpt>
      <trkpt lat="44.31447" lon="5.82365">
        <ele>573</ele>
        <time>2019-03-29T16:18:35Z</time>
      </trkpt>
      <trkpt lat="44.31446" lon="5.82363">
        <ele>573</ele>
        <time>2019-03-29T16:18:39Z</time>
      </trkpt>
      <trkpt lat="44.31444" lon="5.82365">
        <ele>573</ele>
        <time>2019-03-29T16:18:45Z</time>
      </trkpt>
      <trkpt lat="44.31443" lon="5.82367">
        <ele>573</ele>
        <time>2019-03-29T16:18:46Z</time>
      </trkpt>
      <trkpt lat="44.31442" lon="5.82369">
        <ele>573</ele>
        <time>2019-03-29T16:18:47Z</time>
      </trkpt>
      <trkpt lat="44.31442" lon="5.82372">
        <ele>573</ele>
        <time>2019-03-29T16:18:48Z</time>
      </trkpt>
      <trkpt lat="44.31441" lon="5.82376">
        <ele>573</ele>
        <time>2019-03-29T16:18:49Z</time>
      </trkpt>
      <trkpt lat="44.31441" lon="5.8238">
        <ele>573</ele>
        <time>2019-03-29T16:18:50Z</time>
      </trkpt>
      <trkpt lat="44.31441" lon="5.82385">
        <ele>573</ele>
        <time>2019-03-29T16:18:51Z</time>
      </trkpt>
      <trkpt lat="44.31441" lon="5.8239">
        <ele>573</ele>
        <time>2019-03-29T16:18:52Z</time>
      </trkpt>
      <trkpt lat="44.3144" lon="5.82396">
        <ele>573</ele>
        <time>2019-03-29T16:18:53Z</time>
      </trkpt>
      <trkpt lat="44.31438" lon="5.82402">
        <ele>573</ele>
        <time>2019-03-29T16:18:54Z</time>
      </trkpt>
      <trkpt lat="44.31437" lon="5.82409">
        <ele>573</ele>
        <time>2019-03-29T16:18:55Z</time>
      </trkpt>
      <trkpt lat="44.31436" lon="5.82415">
        <ele>573</ele>
        <time>2019-03-29T16:18:56Z</time>
      </trkpt>
      <trkpt lat="44.31434" lon="5.82423">
        <ele>573</ele>
        <time>2019-03-29T16:18:57Z</time>
      </trkpt>
      <trkpt lat="44.31433" lon="5.8243">
        <ele>573</ele>
        <time>2019-03-29T16:18:58Z</time>
      </trkpt>
      <trkpt lat="44.31433" lon="5.82438">
        <ele>573</ele>
        <time>2019-03-29T16:18:59Z</time>
      </trkpt>
      <trkpt lat="44.31431" lon="5.82446">
        <ele>573</ele>
        <time>2019-03-29T16:19:00Z</time>
      </trkpt>
      <trkpt lat="44.31429" lon="5.82453">
        <ele>573</ele>
        <time>2019-03-29T16:19:01Z</time>
      </trkpt>
      <trkpt lat="44.31427" lon="5.82461">
        <ele>573</ele>
        <time>2019-03-29T16:19:02Z</time>
      </trkpt>
      <trkpt lat="44.31425" lon="5.82469">
        <ele>573</ele>
        <time>2019-03-29T16:19:03Z</time>
      </trkpt>
      <trkpt lat="44.31422" lon="5.82477">
        <ele>573</ele>
        <time>2019-03-29T16:19:04Z</time>
      </trkpt>
      <trkpt lat="44.3142" lon="5.82485">
        <ele>573</ele>
        <time>2019-03-29T16:19:05Z</time>
      </trkpt>
      <trkpt lat="44.31418" lon="5.82493">
        <ele>573</ele>
        <time>2019-03-29T16:19:06Z</time>
      </trkpt>
      <trkpt lat="44.31419" lon="5.82502">
        <ele>573</ele>
        <time>2019-03-29T16:19:07Z</time>
      </trkpt>
      <trkpt lat="44.31418" lon="5.82511">
        <ele>573</ele>
        <time>2019-03-29T16:19:08Z</time>
      </trkpt>
      <trkpt lat="44.31417" lon="5.8252">
        <ele>573</ele>
        <time>2019-03-29T16:19:09Z</time>
      </trkpt>
      <trkpt lat="44.31415" lon="5.82529">
        <ele>573</ele>
        <time>2019-03-29T16:19:10Z</time>
      </trkpt>
      <trkpt lat="44.31413" lon="5.82538">
        <ele>573</ele>
        <time>2019-03-29T16:19:11Z</time>
      </trkpt>
      <trkpt lat="44.31411" lon="5.82548">
        <ele>573</ele>
        <time>2019-03-29T16:19:12Z</time>
      </trkpt>
      <trkpt lat="44.31409" lon="5.82557">
        <ele>573</ele>
        <time>2019-03-29T16:19:13Z</time>
      </trkpt>
      <trkpt lat="44.31408" lon="5.82566">
        <ele>572</ele>
        <time>2019-03-29T16:19:14Z</time>
      </trkpt>
      <trkpt lat="44.31406" lon="5.82576">
        <ele>572</ele>
        <time>2019-03-29T16:19:15Z</time>
      </trkpt>
      <trkpt lat="44.31404" lon="5.82584">
        <ele>572</ele>
        <time>2019-03-29T16:19:16Z</time>
      </trkpt>
      <trkpt lat="44.31402" lon="5.82592">
        <ele>572</ele>
        <time>2019-03-29T16:19:17Z</time>
      </trkpt>
      <trkpt lat="44.314" lon="5.826">
        <ele>571</ele>
        <time>2019-03-29T16:19:18Z</time>
      </trkpt>
      <trkpt lat="44.31399" lon="5.82608">
        <ele>571</ele>
        <time>2019-03-29T16:19:19Z</time>
      </trkpt>
      <trkpt lat="44.31398" lon="5.82616">
        <ele>571</ele>
        <time>2019-03-29T16:19:20Z</time>
      </trkpt>
      <trkpt lat="44.31397" lon="5.82623">
        <ele>571</ele>
        <time>2019-03-29T16:19:21Z</time>
      </trkpt>
      <trkpt lat="44.31395" lon="5.8263">
        <ele>570</ele>
        <time>2019-03-29T16:19:22Z</time>
      </trkpt>
      <trkpt lat="44.31393" lon="5.82637">
        <ele>570</ele>
        <time>2019-03-29T16:19:23Z</time>
      </trkpt>
      <trkpt lat="44.3139" lon="5.82644">
        <ele>569</ele>
        <time>2019-03-29T16:19:24Z</time>
      </trkpt>
      <trkpt lat="44.31387" lon="5.8265">
        <ele>569</ele>
        <time>2019-03-29T16:19:25Z</time>
      </trkpt>
      <trkpt lat="44.31384" lon="5.82656">
        <ele>568</ele>
        <time>2019-03-29T16:19:26Z</time>
      </trkpt>
      <trkpt lat="44.31381" lon="5.82662">
        <ele>568</ele>
        <time>2019-03-29T16:19:27Z</time>
      </trkpt>
      <trkpt lat="44.31377" lon="5.82668">
        <ele>568</ele>
        <time>2019-03-29T16:19:28Z</time>
      </trkpt>
      <trkpt lat="44.31374" lon="5.82674">
        <ele>568</ele>
        <time>2019-03-29T16:19:29Z</time>
      </trkpt>
      <trkpt lat="44.3137" lon="5.82679">
        <ele>568</ele>
        <time>2019-03-29T16:19:30Z</time>
      </trkpt>
      <trkpt lat="44.31366" lon="5.82683">
        <ele>568</ele>
        <time>2019-03-29T16:19:31Z</time>
      </trkpt>
      <trkpt lat="44.31363" lon="5.82688">
        <ele>568</ele>
        <time>2019-03-29T16:19:32Z</time>
      </trkpt>
      <trkpt lat="44.31361" lon="5.82694">
        <ele>568</ele>
        <time>2019-03-29T16:19:33Z</time>
      </trkpt>
      <trkpt lat="44.31361" lon="5.82701">
        <ele>568</ele>
        <time>2019-03-29T16:19:34Z</time>
      </trkpt>
      <trkpt lat="44.31364" lon="5.82706">
        <ele>568</ele>
        <time>2019-03-29T16:19:35Z</time>
      </trkpt>
      <trkpt lat="44.31368" lon="5.82711">
        <ele>568</ele>
        <time>2019-03-29T16:19:36Z</time>
      </trkpt>
      <trkpt lat="44.31372" lon="5.82717">
        <ele>568</ele>
        <time>2019-03-29T16:19:37Z</time>
      </trkpt>
      <trkpt lat="44.31374" lon="5.82725">
        <ele>568</ele>
        <time>2019-03-29T16:19:38Z</time>
      </trkpt>
      <trkpt lat="44.31375" lon="5.82732">
        <ele>567</ele>
        <time>2019-03-29T16:19:39Z</time>
      </trkpt>
      <trkpt lat="44.31375" lon="5.82739">
        <ele>567</ele>
        <time>2019-03-29T16:19:40Z</time>
      </trkpt>
      <trkpt lat="44.31375" lon="5.82747">
        <ele>567</ele>
        <time>2019-03-29T16:19:41Z</time>
      </trkpt>
      <trkpt lat="44.31377" lon="5.82755">
        <ele>567</ele>
        <time>2019-03-29T16:19:42Z</time>
      </trkpt>
      <trkpt lat="44.31377" lon="5.82762">
        <ele>567</ele>
        <time>2019-03-29T16:19:43Z</time>
      </trkpt>
      <trkpt lat="44.31377" lon="5.8277">
        <ele>567</ele>
        <time>2019-03-29T16:19:44Z</time>
      </trkpt>
      <trkpt lat="44.31377" lon="5.82778">
        <ele>566</ele>
        <time>2019-03-29T16:19:45Z</time>
      </trkpt>
      <trkpt lat="44.31377" lon="5.82785">
        <ele>566</ele>
        <time>2019-03-29T16:19:46Z</time>
      </trkpt>
      <trkpt lat="44.31376" lon="5.82793">
        <ele>566</ele>
        <time>2019-03-29T16:19:47Z</time>
      </trkpt>
      <trkpt lat="44.31376" lon="5.82801">
        <ele>566</ele>
        <time>2019-03-29T16:19:48Z</time>
      </trkpt>
      <trkpt lat="44.31376" lon="5.82809">
        <ele>566</ele>
        <time>2019-03-29T16:19:49Z</time>
      </trkpt>
      <trkpt lat="44.31375" lon="5.82817">
        <ele>566</ele>
        <time>2019-03-29T16:19:50Z</time>
      </trkpt>
      <trkpt lat="44.31374" lon="5.82824">
        <ele>566</ele>
        <time>2019-03-29T16:19:51Z</time>
      </trkpt>
      <trkpt lat="44.31373" lon="5.82832">
        <ele>566</ele>
        <time>2019-03-29T16:19:52Z</time>
      </trkpt>
      <trkpt lat="44.31372" lon="5.8284">
        <ele>566</ele>
        <time>2019-03-29T16:19:53Z</time>
      </trkpt>
      <trkpt lat="44.31372" lon="5.82848">
        <ele>566</ele>
        <time>2019-03-29T16:19:54Z</time>
      </trkpt>
      <trkpt lat="44.31371" lon="5.82856">
        <ele>566</ele>
        <time>2019-03-29T16:19:55Z</time>
      </trkpt>
      <trkpt lat="44.3137" lon="5.82863">
        <ele>566</ele>
        <time>2019-03-29T16:19:56Z</time>
      </trkpt>
      <trkpt lat="44.31369" lon="5.82871">
        <ele>566</ele>
        <time>2019-03-29T16:19:57Z</time>
      </trkpt>
      <trkpt lat="44.31367" lon="5.82879">
        <ele>566</ele>
        <time>2019-03-29T16:19:58Z</time>
      </trkpt>
      <trkpt lat="44.31367" lon="5.82886">
        <ele>566</ele>
        <time>2019-03-29T16:19:59Z</time>
      </trkpt>
      <trkpt lat="44.31366" lon="5.82894">
        <ele>566</ele>
        <time>2019-03-29T16:20:00Z</time>
      </trkpt>
      <trkpt lat="44.31366" lon="5.82901">
        <ele>566</ele>
        <time>2019-03-29T16:20:01Z</time>
      </trkpt>
      <trkpt lat="44.31366" lon="5.82909">
        <ele>566</ele>
        <time>2019-03-29T16:20:02Z</time>
      </trkpt>
      <trkpt lat="44.31365" lon="5.82916">
        <ele>566</ele>
        <time>2019-03-29T16:20:03Z</time>
      </trkpt>
      <trkpt lat="44.31363" lon="5.82924">
        <ele>566</ele>
        <time>2019-03-29T16:20:04Z</time>
      </trkpt>
      <trkpt lat="44.31362" lon="5.82932">
        <ele>566</ele>
        <time>2019-03-29T16:20:05Z</time>
      </trkpt>
      <trkpt lat="44.31361" lon="5.82939">
        <ele>566</ele>
        <time>2019-03-29T16:20:06Z</time>
      </trkpt>
      <trkpt lat="44.3136" lon="5.82947">
        <ele>566</ele>
        <time>2019-03-29T16:20:07Z</time>
      </trkpt>
      <trkpt lat="44.31358" lon="5.82954">
        <ele>566</ele>
        <time>2019-03-29T16:20:08Z</time>
      </trkpt>
      <trkpt lat="44.31358" lon="5.82962">
        <ele>566</ele>
        <time>2019-03-29T16:20:09Z</time>
      </trkpt>
      <trkpt lat="44.31357" lon="5.82969">
        <ele>566</ele>
        <time>2019-03-29T16:20:10Z</time>
      </trkpt>
      <trkpt lat="44.31357" lon="5.82977">
        <ele>566</ele>
        <time>2019-03-29T16:20:11Z</time>
      </trkpt>
      <trkpt lat="44.31356" lon="5.82984">
        <ele>566</ele>
        <time>2019-03-29T16:20:12Z</time>
      </trkpt>
      <trkpt lat="44.31356" lon="5.82991">
        <ele>566</ele>
        <time>2019-03-29T16:20:13Z</time>
      </trkpt>
      <trkpt lat="44.31355" lon="5.82998">
        <ele>566</ele>
        <time>2019-03-29T16:20:14Z</time>
      </trkpt>
      <trkpt lat="44.31354" lon="5.83005">
        <ele>566</ele>
        <time>2019-03-29T16:20:15Z</time>
      </trkpt>
      <trkpt lat="44.31354" lon="5.83011">
        <ele>566</ele>
        <time>2019-03-29T16:20:16Z</time>
      </trkpt>
      <trkpt lat="44.31353" lon="5.83018">
        <ele>566</ele>
        <time>2019-03-29T16:20:17Z</time>
      </trkpt>
      <trkpt lat="44.31351" lon="5.83024">
        <ele>566</ele>
        <time>2019-03-29T16:20:18Z</time>
      </trkpt>
      <trkpt lat="44.3135" lon="5.83031">
        <ele>566</ele>
        <time>2019-03-29T16:20:19Z</time>
      </trkpt>
      <trkpt lat="44.31349" lon="5.83037">
        <ele>566</ele>
        <time>2019-03-29T16:20:20Z</time>
      </trkpt>
      <trkpt lat="44.31348" lon="5.83043">
        <ele>566</ele>
        <time>2019-03-29T16:20:21Z</time>
      </trkpt>
      <trkpt lat="44.31347" lon="5.83048">
        <ele>566</ele>
        <time>2019-03-29T16:20:22Z</time>
      </trkpt>
      <trkpt lat="44.31346" lon="5.83054">
        <ele>566</ele>
        <time>2019-03-29T16:20:23Z</time>
      </trkpt>
      <trkpt lat="44.31345" lon="5.83059">
        <ele>566</ele>
        <time>2019-03-29T16:20:24Z</time>
      </trkpt>
      <trkpt lat="44.31345" lon="5.83064">
        <ele>566</ele>
        <time>2019-03-29T16:20:25Z</time>
      </trkpt>
      <trkpt lat="44.31345" lon="5.8307">
        <ele>566</ele>
        <time>2019-03-29T16:20:26Z</time>
      </trkpt>
      <trkpt lat="44.31345" lon="5.83075">
        <ele>566</ele>
        <time>2019-03-29T16:20:27Z</time>
      </trkpt>
      <trkpt lat="44.31344" lon="5.83081">
        <ele>566</ele>
        <time>2019-03-29T16:20:28Z</time>
      </trkpt>
      <trkpt lat="44.31344" lon="5.83085">
        <ele>566</ele>
        <time>2019-03-29T16:20:29Z</time>
      </trkpt>
      <trkpt lat="44.31344" lon="5.8309">
        <ele>566</ele>
        <time>2019-03-29T16:20:30Z</time>
      </trkpt>
      <trkpt lat="44.31343" lon="5.83095">
        <ele>566</ele>
        <time>2019-03-29T16:20:31Z</time>
      </trkpt>
      <trkpt lat="44.31344" lon="5.83099">
        <ele>566</ele>
        <time>2019-03-29T16:20:32Z</time>
      </trkpt>
      <trkpt lat="44.31346" lon="5.83101">
        <ele>566</ele>
        <time>2019-03-29T16:20:33Z</time>
      </trkpt>
      <trkpt lat="44.31349" lon="5.83103">
        <ele>566</ele>
        <time>2019-03-29T16:20:34Z</time>
      </trkpt>
      <trkpt lat="44.31352" lon="5.83103">
        <ele>566</ele>
        <time>2019-03-29T16:20:35Z</time>
      </trkpt>
      <trkpt lat="44.31355" lon="5.83102">
        <ele>566</ele>
        <time>2019-03-29T16:20:36Z</time>
      </trkpt>
      <trkpt lat="44.31358" lon="5.83102">
        <ele>566</ele>
        <time>2019-03-29T16:20:37Z</time>
      </trkpt>
      <trkpt lat="44.31361" lon="5.831">
        <ele>566</ele>
        <time>2019-03-29T16:20:38Z</time>
      </trkpt>
      <trkpt lat="44.31363" lon="5.83096">
        <ele>566</ele>
        <time>2019-03-29T16:20:39Z</time>
      </trkpt>
      <trkpt lat="44.31364" lon="5.83091">
        <ele>566</ele>
        <time>2019-03-29T16:20:40Z</time>
      </trkpt>
      <trkpt lat="44.31366" lon="5.83085">
        <ele>566</ele>
        <time>2019-03-29T16:20:41Z</time>
      </trkpt>
      <trkpt lat="44.31367" lon="5.8308">
        <ele>566</ele>
        <time>2019-03-29T16:20:42Z</time>
      </trkpt>
      <trkpt lat="44.3137" lon="5.83075">
        <ele>566</ele>
        <time>2019-03-29T16:20:43Z</time>
      </trkpt>
      <trkpt lat="44.31372" lon="5.8307">
        <ele>566</ele>
        <time>2019-03-29T16:20:44Z</time>
      </trkpt>
      <trkpt lat="44.31375" lon="5.83065">
        <ele>566</ele>
        <time>2019-03-29T16:20:45Z</time>
      </trkpt>
      <trkpt lat="44.31378" lon="5.8306">
        <ele>566</ele>
        <time>2019-03-29T16:20:46Z</time>
      </trkpt>
      <trkpt lat="44.31381" lon="5.83054">
        <ele>566</ele>
        <time>2019-03-29T16:20:47Z</time>
      </trkpt>
      <trkpt lat="44.31384" lon="5.83048">
        <ele>566</ele>
        <time>2019-03-29T16:20:48Z</time>
      </trkpt>
      <trkpt lat="44.31387" lon="5.83043">
        <ele>566</ele>
        <time>2019-03-29T16:20:49Z</time>
      </trkpt>
      <trkpt lat="44.3139" lon="5.83037">
        <ele>566</ele>
        <time>2019-03-29T16:20:50Z</time>
      </trkpt>
      <trkpt lat="44.31394" lon="5.83032">
        <ele>566</ele>
        <time>2019-03-29T16:20:51Z</time>
      </trkpt>
      <trkpt lat="44.31398" lon="5.83027">
        <ele>566</ele>
        <time>2019-03-29T16:20:52Z</time>
      </trkpt>
      <trkpt lat="44.31402" lon="5.83021">
        <ele>566</ele>
        <time>2019-03-29T16:20:53Z</time>
      </trkpt>
      <trkpt lat="44.31406" lon="5.83016">
        <ele>566</ele>
        <time>2019-03-29T16:20:54Z</time>
      </trkpt>
      <trkpt lat="44.31409" lon="5.8301">
        <ele>566</ele>
        <time>2019-03-29T16:20:55Z</time>
      </trkpt>
      <trkpt lat="44.31413" lon="5.83004">
        <ele>566</ele>
        <time>2019-03-29T16:20:56Z</time>
      </trkpt>
      <trkpt lat="44.31417" lon="5.82998">
        <ele>566</ele>
        <time>2019-03-29T16:20:57Z</time>
      </trkpt>
      <trkpt lat="44.3142" lon="5.82993">
        <ele>566</ele>
        <time>2019-03-29T16:20:58Z</time>
      </trkpt>
      <trkpt lat="44.31424" lon="5.82987">
        <ele>566</ele>
        <time>2019-03-29T16:20:59Z</time>
      </trkpt>
      <trkpt lat="44.31427" lon="5.82982">
        <ele>566</ele>
        <time>2019-03-29T16:21:00Z</time>
      </trkpt>
      <trkpt lat="44.3143" lon="5.82976">
        <ele>566</ele>
        <time>2019-03-29T16:21:01Z</time>
      </trkpt>
      <trkpt lat="44.31434" lon="5.82971">
        <ele>566</ele>
        <time>2019-03-29T16:21:02Z</time>
      </trkpt>
      <trkpt lat="44.31438" lon="5.82966">
        <ele>566</ele>
        <time>2019-03-29T16:21:03Z</time>
      </trkpt>
      <trkpt lat="44.31441" lon="5.82961">
        <ele>566</ele>
        <time>2019-03-29T16:21:04Z</time>
      </trkpt>
      <trkpt lat="44.31445" lon="5.82956">
        <ele>566</ele>
        <time>2019-03-29T16:21:05Z</time>
      </trkpt>
      <trkpt lat="44.31448" lon="5.82951">
        <ele>566</ele>
        <time>2019-03-29T16:21:06Z</time>
      </trkpt>
      <trkpt lat="44.31451" lon="5.82945">
        <ele>566</ele>
        <time>2019-03-29T16:21:07Z</time>
      </trkpt>
      <trkpt lat="44.31455" lon="5.8294">
        <ele>566</ele>
        <time>2019-03-29T16:21:08Z</time>
      </trkpt>
      <trkpt lat="44.31458" lon="5.82935">
        <ele>566</ele>
        <time>2019-03-29T16:21:09Z</time>
      </trkpt>
      <trkpt lat="44.31462" lon="5.8293">
        <ele>566</ele>
        <time>2019-03-29T16:21:10Z</time>
      </trkpt>
      <trkpt lat="44.31465" lon="5.82925">
        <ele>566</ele>
        <time>2019-03-29T16:21:11Z</time>
      </trkpt>
      <trkpt lat="44.31469" lon="5.8292">
        <ele>566</ele>
        <time>2019-03-29T16:21:12Z</time>
      </trkpt>
      <trkpt lat="44.31472" lon="5.82915">
        <ele>566</ele>
        <time>2019-03-29T16:21:13Z</time>
      </trkpt>
      <trkpt lat="44.31476" lon="5.82911">
        <ele>566</ele>
        <time>2019-03-29T16:21:14Z</time>
      </trkpt>
      <trkpt lat="44.31479" lon="5.82905">
        <ele>566</ele>
        <time>2019-03-29T16:21:15Z</time>
      </trkpt>
      <trkpt lat="44.31482" lon="5.829">
        <ele>566</ele>
        <time>2019-03-29T16:21:16Z</time>
      </trkpt>
      <trkpt lat="44.31485" lon="5.82896">
        <ele>566</ele>
        <time>2019-03-29T16:21:17Z</time>
      </trkpt>
      <trkpt lat="44.31488" lon="5.82891">
        <ele>566</ele>
        <time>2019-03-29T16:21:18Z</time>
      </trkpt>
      <trkpt lat="44.31491" lon="5.82886">
        <ele>566</ele>
        <time>2019-03-29T16:21:19Z</time>
      </trkpt>
      <trkpt lat="44.31495" lon="5.82881">
        <ele>566</ele>
        <time>2019-03-29T16:21:20Z</time>
      </trkpt>
      <trkpt lat="44.31498" lon="5.82876">
        <ele>566</ele>
        <time>2019-03-29T16:21:21Z</time>
      </trkpt>
      <trkpt lat="44.31501" lon="5.82873">
        <ele>566</ele>
        <time>2019-03-29T16:21:22Z</time>
      </trkpt>
      <trkpt lat="44.31504" lon="5.8287">
        <ele>566</ele>
        <time>2019-03-29T16:21:23Z</time>
      </trkpt>
      <trkpt lat="44.31508" lon="5.82869">
        <ele>566</ele>
        <time>2019-03-29T16:21:24Z</time>
      </trkpt>
      <trkpt lat="44.31512" lon="5.8287">
        <ele>566</ele>
        <time>2019-03-29T16:21:25Z</time>
      </trkpt>
      <trkpt lat="44.31516" lon="5.82873">
        <ele>566</ele>
        <time>2019-03-29T16:21:26Z</time>
      </trkpt>
      <trkpt lat="44.31519" lon="5.82876">
        <ele>566</ele>
        <time>2019-03-29T16:21:27Z</time>
      </trkpt>
      <trkpt lat="44.31522" lon="5.8288">
        <ele>566</ele>
        <time>2019-03-29T16:21:28Z</time>
      </trkpt>
      <trkpt lat="44.31525" lon="5.82883">
        <ele>566</ele>
        <time>2019-03-29T16:21:29Z</time>
      </trkpt>
      <trkpt lat="44.31529" lon="5.82887">
        <ele>566</ele>
        <time>2019-03-29T16:21:30Z</time>
      </trkpt>
      <trkpt lat="44.31532" lon="5.8289">
        <ele>566</ele>
        <time>2019-03-29T16:21:31Z</time>
      </trkpt>
      <trkpt lat="44.31535" lon="5.82894">
        <ele>566</ele>
        <time>2019-03-29T16:21:32Z</time>
      </trkpt>
      <trkpt lat="44.31537" lon="5.82897">
        <ele>566</ele>
        <time>2019-03-29T16:21:33Z</time>
      </trkpt>
      <trkpt lat="44.3154" lon="5.829">
        <ele>566</ele>
        <time>2019-03-29T16:21:34Z</time>
      </trkpt>
      <trkpt lat="44.31543" lon="5.82903">
        <ele>566</ele>
        <time>2019-03-29T16:21:35Z</time>
      </trkpt>
      <trkpt lat="44.31546" lon="5.82905">
        <ele>566</ele>
        <time>2019-03-29T16:21:36Z</time>
      </trkpt>
      <trkpt lat="44.31548" lon="5.82908">
        <ele>566</ele>
        <time>2019-03-29T16:21:37Z</time>
      </trkpt>
      <trkpt lat="44.31551" lon="5.82911">
        <ele>566</ele>
        <time>2019-03-29T16:21:38Z</time>
      </trkpt>
      <trkpt lat="44.31554" lon="5.82913">
        <ele>566</ele>
        <time>2019-03-29T16:21:39Z</time>
      </trkpt>
      <trkpt lat="44.31556" lon="5.82915">
        <ele>566</ele>
        <time>2019-03-29T16:21:40Z</time>
      </trkpt>
      <trkpt lat="44.31559" lon="5.82916">
        <ele>566</ele>
        <time>2019-03-29T16:21:41Z</time>
      </trkpt>
      <trkpt lat="44.31561" lon="5.82918">
        <ele>566</ele>
        <time>2019-03-29T16:21:42Z</time>
      </trkpt>
      <trkpt lat="44.31564" lon="5.8292">
        <ele>566</ele>
        <time>2019-03-29T16:21:43Z</time>
      </trkpt>
      <trkpt lat="44.31567" lon="5.82922">
        <ele>566</ele>
        <time>2019-03-29T16:21:44Z</time>
      </trkpt>
      <trkpt lat="44.3157" lon="5.82924">
        <ele>566</ele>
        <time>2019-03-29T16:21:45Z</time>
      </trkpt>
      <trkpt lat="44.31572" lon="5.82926">
        <ele>566</ele>
        <time>2019-03-29T16:21:46Z</time>
      </trkpt>
      <trkpt lat="44.31575" lon="5.82928">
        <ele>566</ele>
        <time>2019-03-29T16:21:47Z</time>
      </trkpt>
      <trkpt lat="44.31578" lon="5.8293">
        <ele>566</ele>
        <time>2019-03-29T16:21:48Z</time>
      </trkpt>
      <trkpt lat="44.31581" lon="5.82932">
        <ele>567</ele>
        <time>2019-03-29T16:21:49Z</time>
      </trkpt>
      <trkpt lat="44.31584" lon="5.82933">
        <ele>567</ele>
        <time>2019-03-29T16:21:50Z</time>
      </trkpt>
      <trkpt lat="44.31586" lon="5.82935">
        <ele>567</ele>
        <time>2019-03-29T16:21:51Z</time>
      </trkpt>
      <trkpt lat="44.31589" lon="5.82936">
        <ele>567</ele>
        <time>2019-03-29T16:21:52Z</time>
      </trkpt>
      <trkpt lat="44.31591" lon="5.82938">
        <ele>567</ele>
        <time>2019-03-29T16:21:53Z</time>
      </trkpt>
      <trkpt lat="44.31593" lon="5.82939">
        <ele>567</ele>
        <time>2019-03-29T16:21:54Z</time>
      </trkpt>
      <trkpt lat="44.31594" lon="5.82941">
        <ele>567</ele>
        <time>2019-03-29T16:21:55Z</time>
      </trkpt>
      <trkpt lat="44.31595" lon="5.82943">
        <ele>567</ele>
        <time>2019-03-29T16:21:56Z</time>
      </trkpt>
      <trkpt lat="44.31597" lon="5.82944">
        <ele>567</ele>
        <time>2019-03-29T16:21:57Z</time>
      </trkpt>
      <trkpt lat="44.31599" lon="5.82946">
        <ele>567</ele>
        <time>2019-03-29T16:21:58Z</time>
      </trkpt>
      <trkpt lat="44.31601" lon="5.82947">
        <ele>567</ele>
        <time>2019-03-29T16:21:59Z</time>
      </trkpt>
      <trkpt lat="44.31604" lon="5.82949">
        <ele>567</ele>
        <time>2019-03-29T16:22:00Z</time>
      </trkpt>
      <trkpt lat="44.31605" lon="5.82953">
        <ele>568</ele>
        <time>2019-03-29T16:22:01Z</time>
      </trkpt>
      <trkpt lat="44.31607" lon="5.82956">
        <ele>568</ele>
        <time>2019-03-29T16:22:02Z</time>
      </trkpt>
      <trkpt lat="44.31607" lon="5.82958">
        <ele>568</ele>
        <time>2019-03-29T16:22:03Z</time>
      </trkpt>
      <trkpt lat="44.31608" lon="5.82957">
        <ele>569</ele>
        <time>2019-03-29T16:22:13Z</time>
      </trkpt>
      <trkpt lat="44.31606" lon="5.82958">
        <ele>569</ele>
        <time>2019-03-29T16:22:16Z</time>
      </trkpt>
      <trkpt lat="44.31605" lon="5.82958">
        <ele>570</ele>
        <time>2019-03-29T16:22:20Z</time>
      </trkpt>
      <trkpt lat="44.31606" lon="5.82959">
        <ele>571</ele>
        <time>2019-03-29T16:22:23Z</time>
      </trkpt>
      <trkpt lat="44.31606" lon="5.82957">
        <ele>571</ele>
        <time>2019-03-29T16:22:26Z</time>
      </trkpt>
      <trkpt lat="44.31606" lon="5.82956">
        <ele>570</ele>
        <time>2019-03-29T16:22:34Z</time>
      </trkpt>
      <trkpt lat="44.31605" lon="5.82956">
        <ele>570</ele>
        <time>2019-03-29T16:22:35Z</time>
      </trkpt>
      <trkpt lat="44.31604" lon="5.82957">
        <ele>570</ele>
        <time>2019-03-29T16:22:36Z</time>
      </trkpt>
      <trkpt lat="44.31602" lon="5.82958">
        <ele>570</ele>
        <time>2019-03-29T16:22:41Z</time>
      </trkpt>
      <trkpt lat="44.31602" lon="5.82959">
        <ele>570</ele>
        <time>2019-03-29T16:22:43Z</time>
      </trkpt>
    </trkseg>
  </trk>
</gpx>